<?xml version="1.0" encoding="UTF-8" standalone="no" ?>
<gpx xmlns="http://www.topografix.com/GPX/1/1" xmlns:xsi="http://www.w3.org/2001/XMLSchema-instance" xsi:schemaLocation="http://www.topografix.com/GPX/1/1 http://www.topografix.com/GPX/1/1/gpx.xsd" version="1.1" creator="VisuGPX - https://www.visugpx.com">
  <metadata>
    <name>Pic Prada Pyrénées</name>
  </metadata>
  <trk>
    <name><![CDATA[Pic Prada Pyrénées]]></name>
    <trkseg>
      <trkpt lat="42.85139" lon="0.27245">
        <ele>1374.7</ele>
        <time>2022-02-09T07:39:31Z</time>
      </trkpt>
      <trkpt lat="42.8514" lon="0.27245">
        <ele>1374.8</ele>
        <time>2022-02-09T07:39:32Z</time>
      </trkpt>
      <trkpt lat="42.85141" lon="0.27246">
        <ele>1374.8</ele>
        <time>2022-02-09T07:39:33Z</time>
      </trkpt>
      <trkpt lat="42.85142" lon="0.27248">
        <ele>1374.5</ele>
        <time>2022-02-09T07:39:34Z</time>
      </trkpt>
      <trkpt lat="42.85143" lon="0.27249">
        <ele>1374.7</ele>
        <time>2022-02-09T07:39:35Z</time>
      </trkpt>
      <trkpt lat="42.85144" lon="0.27249">
        <ele>1374.7</ele>
        <time>2022-02-09T07:39:36Z</time>
      </trkpt>
      <trkpt lat="42.85145" lon="0.27251">
        <ele>1374.7</ele>
        <time>2022-02-09T07:39:37Z</time>
      </trkpt>
      <trkpt lat="42.85145" lon="0.27251">
        <ele>1374.4</ele>
        <time>2022-02-09T07:39:38Z</time>
      </trkpt>
      <trkpt lat="42.85145" lon="0.27252">
        <ele>1374.4</ele>
        <time>2022-02-09T07:39:39Z</time>
      </trkpt>
      <trkpt lat="42.85145" lon="0.27252">
        <ele>1374.4</ele>
        <time>2022-02-09T07:39:40Z</time>
      </trkpt>
      <trkpt lat="42.85146" lon="0.27253">
        <ele>1374.4</ele>
        <time>2022-02-09T07:39:41Z</time>
      </trkpt>
      <trkpt lat="42.85147" lon="0.27256">
        <ele>1374.5</ele>
        <time>2022-02-09T07:39:42Z</time>
      </trkpt>
      <trkpt lat="42.85148" lon="0.27256">
        <ele>1374.5</ele>
        <time>2022-02-09T07:39:43Z</time>
      </trkpt>
      <trkpt lat="42.85148" lon="0.27256">
        <ele>1374.5</ele>
        <time>2022-02-09T07:39:44Z</time>
      </trkpt>
      <trkpt lat="42.85148" lon="0.27256">
        <ele>1374.5</ele>
        <time>2022-02-09T07:39:45Z</time>
      </trkpt>
      <trkpt lat="42.85148" lon="0.27256">
        <ele>1374.5</ele>
        <time>2022-02-09T07:39:46Z</time>
      </trkpt>
      <trkpt lat="42.85148" lon="0.27256">
        <ele>1374.5</ele>
        <time>2022-02-09T07:39:47Z</time>
      </trkpt>
      <trkpt lat="42.85148" lon="0.27256">
        <ele>1374.5</ele>
        <time>2022-02-09T07:39:48Z</time>
      </trkpt>
      <trkpt lat="42.85149" lon="0.27257">
        <ele>1374.5</ele>
        <time>2022-02-09T07:39:49Z</time>
      </trkpt>
      <trkpt lat="42.85149" lon="0.27257">
        <ele>1374.5</ele>
        <time>2022-02-09T07:39:50Z</time>
      </trkpt>
      <trkpt lat="42.85149" lon="0.27257">
        <ele>1374.5</ele>
        <time>2022-02-09T07:39:51Z</time>
      </trkpt>
      <trkpt lat="42.85149" lon="0.27257">
        <ele>1374.5</ele>
        <time>2022-02-09T07:39:52Z</time>
      </trkpt>
      <trkpt lat="42.85148" lon="0.27257">
        <ele>1374.5</ele>
        <time>2022-02-09T07:39:53Z</time>
      </trkpt>
      <trkpt lat="42.85148" lon="0.27257">
        <ele>1374.5</ele>
        <time>2022-02-09T07:39:54Z</time>
      </trkpt>
      <trkpt lat="42.85148" lon="0.27257">
        <ele>1374.5</ele>
        <time>2022-02-09T07:39:55Z</time>
      </trkpt>
      <trkpt lat="42.85148" lon="0.27257">
        <ele>1374.5</ele>
        <time>2022-02-09T07:39:56Z</time>
      </trkpt>
      <trkpt lat="42.85148" lon="0.27257">
        <ele>1374.5</ele>
        <time>2022-02-09T07:39:57Z</time>
      </trkpt>
      <trkpt lat="42.85148" lon="0.27257">
        <ele>1374.5</ele>
        <time>2022-02-09T07:39:58Z</time>
      </trkpt>
      <trkpt lat="42.85148" lon="0.27267">
        <ele>1374.2</ele>
        <time>2022-02-09T07:39:59Z</time>
      </trkpt>
      <trkpt lat="42.85148" lon="0.2728">
        <ele>1374</ele>
        <time>2022-02-09T07:40:00Z</time>
      </trkpt>
      <trkpt lat="42.85147" lon="0.2728">
        <ele>1374</ele>
        <time>2022-02-09T07:40:01Z</time>
      </trkpt>
      <trkpt lat="42.85147" lon="0.2728">
        <ele>1374</ele>
        <time>2022-02-09T07:40:02Z</time>
      </trkpt>
      <trkpt lat="42.85148" lon="0.2728">
        <ele>1374</ele>
        <time>2022-02-09T07:40:03Z</time>
      </trkpt>
      <trkpt lat="42.85148" lon="0.2728">
        <ele>1374</ele>
        <time>2022-02-09T07:40:04Z</time>
      </trkpt>
      <trkpt lat="42.85148" lon="0.2728">
        <ele>1374</ele>
        <time>2022-02-09T07:40:05Z</time>
      </trkpt>
      <trkpt lat="42.85148" lon="0.27281">
        <ele>1374</ele>
        <time>2022-02-09T07:40:06Z</time>
      </trkpt>
      <trkpt lat="42.85148" lon="0.27281">
        <ele>1374.1</ele>
        <time>2022-02-09T07:40:07Z</time>
      </trkpt>
      <trkpt lat="42.85148" lon="0.27281">
        <ele>1374</ele>
        <time>2022-02-09T07:40:08Z</time>
      </trkpt>
      <trkpt lat="42.85149" lon="0.27281">
        <ele>1374</ele>
        <time>2022-02-09T07:40:09Z</time>
      </trkpt>
      <trkpt lat="42.85149" lon="0.27281">
        <ele>1374</ele>
        <time>2022-02-09T07:40:10Z</time>
      </trkpt>
      <trkpt lat="42.85149" lon="0.27281">
        <ele>1374</ele>
        <time>2022-02-09T07:40:11Z</time>
      </trkpt>
      <trkpt lat="42.85149" lon="0.27281">
        <ele>1374</ele>
        <time>2022-02-09T07:40:12Z</time>
      </trkpt>
      <trkpt lat="42.85149" lon="0.27281">
        <ele>1374</ele>
        <time>2022-02-09T07:40:13Z</time>
      </trkpt>
      <trkpt lat="42.85149" lon="0.27281">
        <ele>1374</ele>
        <time>2022-02-09T07:40:14Z</time>
      </trkpt>
      <trkpt lat="42.85149" lon="0.27281">
        <ele>1374</ele>
        <time>2022-02-09T07:40:15Z</time>
      </trkpt>
      <trkpt lat="42.85149" lon="0.27281">
        <ele>1374</ele>
        <time>2022-02-09T07:40:16Z</time>
      </trkpt>
      <trkpt lat="42.85149" lon="0.27281">
        <ele>1374</ele>
        <time>2022-02-09T07:40:17Z</time>
      </trkpt>
      <trkpt lat="42.85149" lon="0.27281">
        <ele>1374</ele>
        <time>2022-02-09T07:40:18Z</time>
      </trkpt>
      <trkpt lat="42.85149" lon="0.27281">
        <ele>1374</ele>
        <time>2022-02-09T07:40:19Z</time>
      </trkpt>
      <trkpt lat="42.85149" lon="0.27281">
        <ele>1374</ele>
        <time>2022-02-09T07:40:20Z</time>
      </trkpt>
      <trkpt lat="42.85148" lon="0.27281">
        <ele>1374</ele>
        <time>2022-02-09T07:40:21Z</time>
      </trkpt>
      <trkpt lat="42.85147" lon="0.27282">
        <ele>1374.1</ele>
        <time>2022-02-09T07:40:22Z</time>
      </trkpt>
      <trkpt lat="42.85147" lon="0.27283">
        <ele>1374.1</ele>
        <time>2022-02-09T07:40:23Z</time>
      </trkpt>
      <trkpt lat="42.85147" lon="0.27283">
        <ele>1374.1</ele>
        <time>2022-02-09T07:40:24Z</time>
      </trkpt>
      <trkpt lat="42.85147" lon="0.27283">
        <ele>1374.1</ele>
        <time>2022-02-09T07:40:25Z</time>
      </trkpt>
      <trkpt lat="42.85148" lon="0.27283">
        <ele>1374.1</ele>
        <time>2022-02-09T07:40:26Z</time>
      </trkpt>
      <trkpt lat="42.85148" lon="0.27283">
        <ele>1374.1</ele>
        <time>2022-02-09T07:40:27Z</time>
      </trkpt>
      <trkpt lat="42.85148" lon="0.27283">
        <ele>1374.1</ele>
        <time>2022-02-09T07:40:28Z</time>
      </trkpt>
      <trkpt lat="42.85148" lon="0.27283">
        <ele>1374.1</ele>
        <time>2022-02-09T07:40:29Z</time>
      </trkpt>
      <trkpt lat="42.85148" lon="0.27283">
        <ele>1374.1</ele>
        <time>2022-02-09T07:40:30Z</time>
      </trkpt>
      <trkpt lat="42.85148" lon="0.27283">
        <ele>1374.1</ele>
        <time>2022-02-09T07:40:31Z</time>
      </trkpt>
      <trkpt lat="42.85148" lon="0.27283">
        <ele>1374.1</ele>
        <time>2022-02-09T07:40:32Z</time>
      </trkpt>
      <trkpt lat="42.85148" lon="0.27283">
        <ele>1374.1</ele>
        <time>2022-02-09T07:40:33Z</time>
      </trkpt>
      <trkpt lat="42.85148" lon="0.27283">
        <ele>1374.1</ele>
        <time>2022-02-09T07:40:34Z</time>
      </trkpt>
      <trkpt lat="42.85148" lon="0.27283">
        <ele>1374.1</ele>
        <time>2022-02-09T07:40:35Z</time>
      </trkpt>
      <trkpt lat="42.85148" lon="0.27283">
        <ele>1374.1</ele>
        <time>2022-02-09T07:40:36Z</time>
      </trkpt>
      <trkpt lat="42.85148" lon="0.27283">
        <ele>1374.1</ele>
        <time>2022-02-09T07:40:37Z</time>
      </trkpt>
      <trkpt lat="42.85148" lon="0.27283">
        <ele>1374.1</ele>
        <time>2022-02-09T07:40:38Z</time>
      </trkpt>
      <trkpt lat="42.85148" lon="0.27283">
        <ele>1374.1</ele>
        <time>2022-02-09T07:40:39Z</time>
      </trkpt>
      <trkpt lat="42.85148" lon="0.27282">
        <ele>1374.1</ele>
        <time>2022-02-09T07:40:40Z</time>
      </trkpt>
      <trkpt lat="42.85149" lon="0.27281">
        <ele>1374.4</ele>
        <time>2022-02-09T07:40:41Z</time>
      </trkpt>
      <trkpt lat="42.8515" lon="0.2728">
        <ele>1374.4</ele>
        <time>2022-02-09T07:40:42Z</time>
      </trkpt>
      <trkpt lat="42.8515" lon="0.2728">
        <ele>1374.4</ele>
        <time>2022-02-09T07:40:43Z</time>
      </trkpt>
      <trkpt lat="42.85151" lon="0.27279">
        <ele>1374.4</ele>
        <time>2022-02-09T07:40:44Z</time>
      </trkpt>
      <trkpt lat="42.85151" lon="0.27278">
        <ele>1374.4</ele>
        <time>2022-02-09T07:40:45Z</time>
      </trkpt>
      <trkpt lat="42.85152" lon="0.27276">
        <ele>1374.4</ele>
        <time>2022-02-09T07:40:46Z</time>
      </trkpt>
      <trkpt lat="42.85152" lon="0.27275">
        <ele>1374.4</ele>
        <time>2022-02-09T07:40:47Z</time>
      </trkpt>
      <trkpt lat="42.85153" lon="0.27274">
        <ele>1374.8</ele>
        <time>2022-02-09T07:40:48Z</time>
      </trkpt>
      <trkpt lat="42.85153" lon="0.27273">
        <ele>1374.8</ele>
        <time>2022-02-09T07:40:49Z</time>
      </trkpt>
      <trkpt lat="42.85154" lon="0.27273">
        <ele>1374.8</ele>
        <time>2022-02-09T07:40:50Z</time>
      </trkpt>
      <trkpt lat="42.85154" lon="0.27272">
        <ele>1374.8</ele>
        <time>2022-02-09T07:40:51Z</time>
      </trkpt>
      <trkpt lat="42.85154" lon="0.27271">
        <ele>1374.8</ele>
        <time>2022-02-09T07:40:52Z</time>
      </trkpt>
      <trkpt lat="42.85155" lon="0.2727">
        <ele>1374.8</ele>
        <time>2022-02-09T07:40:53Z</time>
      </trkpt>
      <trkpt lat="42.85155" lon="0.2727">
        <ele>1374.8</ele>
        <time>2022-02-09T07:40:54Z</time>
      </trkpt>
      <trkpt lat="42.85155" lon="0.27269">
        <ele>1374.8</ele>
        <time>2022-02-09T07:40:55Z</time>
      </trkpt>
      <trkpt lat="42.85155" lon="0.27269">
        <ele>1374.8</ele>
        <time>2022-02-09T07:40:56Z</time>
      </trkpt>
      <trkpt lat="42.85155" lon="0.27269">
        <ele>1374.8</ele>
        <time>2022-02-09T07:40:57Z</time>
      </trkpt>
      <trkpt lat="42.85155" lon="0.27269">
        <ele>1374.8</ele>
        <time>2022-02-09T07:40:58Z</time>
      </trkpt>
      <trkpt lat="42.85155" lon="0.27269">
        <ele>1374.8</ele>
        <time>2022-02-09T07:40:59Z</time>
      </trkpt>
      <trkpt lat="42.85155" lon="0.27269">
        <ele>1374.8</ele>
        <time>2022-02-09T07:41:00Z</time>
      </trkpt>
      <trkpt lat="42.85155" lon="0.27269">
        <ele>1374.8</ele>
        <time>2022-02-09T07:41:01Z</time>
      </trkpt>
      <trkpt lat="42.85155" lon="0.27269">
        <ele>1374.8</ele>
        <time>2022-02-09T07:41:02Z</time>
      </trkpt>
      <trkpt lat="42.85155" lon="0.27269">
        <ele>1374.8</ele>
        <time>2022-02-09T07:41:03Z</time>
      </trkpt>
      <trkpt lat="42.85155" lon="0.27269">
        <ele>1374.8</ele>
        <time>2022-02-09T07:41:04Z</time>
      </trkpt>
      <trkpt lat="42.85155" lon="0.27269">
        <ele>1374.8</ele>
        <time>2022-02-09T07:41:05Z</time>
      </trkpt>
      <trkpt lat="42.85155" lon="0.27269">
        <ele>1374.8</ele>
        <time>2022-02-09T07:41:06Z</time>
      </trkpt>
      <trkpt lat="42.85155" lon="0.27269">
        <ele>1374.8</ele>
        <time>2022-02-09T07:41:07Z</time>
      </trkpt>
      <trkpt lat="42.85155" lon="0.27269">
        <ele>1374.8</ele>
        <time>2022-02-09T07:41:08Z</time>
      </trkpt>
      <trkpt lat="42.85155" lon="0.27269">
        <ele>1374.8</ele>
        <time>2022-02-09T07:41:09Z</time>
      </trkpt>
      <trkpt lat="42.85155" lon="0.27269">
        <ele>1374.8</ele>
        <time>2022-02-09T07:41:10Z</time>
      </trkpt>
      <trkpt lat="42.85155" lon="0.27269">
        <ele>1374.8</ele>
        <time>2022-02-09T07:41:11Z</time>
      </trkpt>
      <trkpt lat="42.85155" lon="0.27269">
        <ele>1374.8</ele>
        <time>2022-02-09T07:41:12Z</time>
      </trkpt>
      <trkpt lat="42.85155" lon="0.27269">
        <ele>1374.8</ele>
        <time>2022-02-09T07:41:13Z</time>
      </trkpt>
      <trkpt lat="42.85155" lon="0.27269">
        <ele>1374.8</ele>
        <time>2022-02-09T07:41:14Z</time>
      </trkpt>
      <trkpt lat="42.85155" lon="0.27269">
        <ele>1374.8</ele>
        <time>2022-02-09T07:41:15Z</time>
      </trkpt>
      <trkpt lat="42.85156" lon="0.27268">
        <ele>1375.2</ele>
        <time>2022-02-09T07:41:16Z</time>
      </trkpt>
      <trkpt lat="42.85156" lon="0.27267">
        <ele>1375.2</ele>
        <time>2022-02-09T07:41:17Z</time>
      </trkpt>
      <trkpt lat="42.85156" lon="0.27266">
        <ele>1375.2</ele>
        <time>2022-02-09T07:41:18Z</time>
      </trkpt>
      <trkpt lat="42.85157" lon="0.27266">
        <ele>1375.2</ele>
        <time>2022-02-09T07:41:19Z</time>
      </trkpt>
      <trkpt lat="42.85157" lon="0.27265">
        <ele>1375.2</ele>
        <time>2022-02-09T07:41:20Z</time>
      </trkpt>
      <trkpt lat="42.85158" lon="0.27264">
        <ele>1375.2</ele>
        <time>2022-02-09T07:41:21Z</time>
      </trkpt>
      <trkpt lat="42.85158" lon="0.27263">
        <ele>1375.2</ele>
        <time>2022-02-09T07:41:22Z</time>
      </trkpt>
      <trkpt lat="42.85158" lon="0.27262">
        <ele>1375.2</ele>
        <time>2022-02-09T07:41:23Z</time>
      </trkpt>
      <trkpt lat="42.85159" lon="0.27261">
        <ele>1375.6</ele>
        <time>2022-02-09T07:41:24Z</time>
      </trkpt>
      <trkpt lat="42.85159" lon="0.2726">
        <ele>1375.6</ele>
        <time>2022-02-09T07:41:25Z</time>
      </trkpt>
      <trkpt lat="42.8516" lon="0.27259">
        <ele>1375.7</ele>
        <time>2022-02-09T07:41:26Z</time>
      </trkpt>
      <trkpt lat="42.8516" lon="0.27258">
        <ele>1375.7</ele>
        <time>2022-02-09T07:41:27Z</time>
      </trkpt>
      <trkpt lat="42.8516" lon="0.27257">
        <ele>1375.7</ele>
        <time>2022-02-09T07:41:28Z</time>
      </trkpt>
      <trkpt lat="42.85161" lon="0.27256">
        <ele>1375.7</ele>
        <time>2022-02-09T07:41:29Z</time>
      </trkpt>
      <trkpt lat="42.85161" lon="0.27255">
        <ele>1375.8</ele>
        <time>2022-02-09T07:41:30Z</time>
      </trkpt>
      <trkpt lat="42.85162" lon="0.27254">
        <ele>1375.8</ele>
        <time>2022-02-09T07:41:31Z</time>
      </trkpt>
      <trkpt lat="42.85162" lon="0.27253">
        <ele>1376.2</ele>
        <time>2022-02-09T07:41:32Z</time>
      </trkpt>
      <trkpt lat="42.85163" lon="0.27252">
        <ele>1376.2</ele>
        <time>2022-02-09T07:41:33Z</time>
      </trkpt>
      <trkpt lat="42.85163" lon="0.27251">
        <ele>1376.4</ele>
        <time>2022-02-09T07:41:34Z</time>
      </trkpt>
      <trkpt lat="42.85164" lon="0.2725">
        <ele>1376.4</ele>
        <time>2022-02-09T07:41:35Z</time>
      </trkpt>
      <trkpt lat="42.85164" lon="0.27249">
        <ele>1376.4</ele>
        <time>2022-02-09T07:41:36Z</time>
      </trkpt>
      <trkpt lat="42.85165" lon="0.27248">
        <ele>1376.4</ele>
        <time>2022-02-09T07:41:37Z</time>
      </trkpt>
      <trkpt lat="42.85165" lon="0.27247">
        <ele>1376.9</ele>
        <time>2022-02-09T07:41:38Z</time>
      </trkpt>
      <trkpt lat="42.85165" lon="0.27246">
        <ele>1376.9</ele>
        <time>2022-02-09T07:41:39Z</time>
      </trkpt>
      <trkpt lat="42.85166" lon="0.27244">
        <ele>1376.9</ele>
        <time>2022-02-09T07:41:40Z</time>
      </trkpt>
      <trkpt lat="42.85167" lon="0.27243">
        <ele>1376.9</ele>
        <time>2022-02-09T07:41:41Z</time>
      </trkpt>
      <trkpt lat="42.85167" lon="0.27242">
        <ele>1377.1</ele>
        <time>2022-02-09T07:41:42Z</time>
      </trkpt>
      <trkpt lat="42.85168" lon="0.27241">
        <ele>1377.1</ele>
        <time>2022-02-09T07:41:43Z</time>
      </trkpt>
      <trkpt lat="42.85168" lon="0.2724">
        <ele>1377.1</ele>
        <time>2022-02-09T07:41:44Z</time>
      </trkpt>
      <trkpt lat="42.85168" lon="0.27238">
        <ele>1377.6</ele>
        <time>2022-02-09T07:41:45Z</time>
      </trkpt>
      <trkpt lat="42.85169" lon="0.27237">
        <ele>1377.6</ele>
        <time>2022-02-09T07:41:46Z</time>
      </trkpt>
      <trkpt lat="42.85169" lon="0.27236">
        <ele>1377.6</ele>
        <time>2022-02-09T07:41:47Z</time>
      </trkpt>
      <trkpt lat="42.8517" lon="0.27235">
        <ele>1377.6</ele>
        <time>2022-02-09T07:41:48Z</time>
      </trkpt>
      <trkpt lat="42.8517" lon="0.27233">
        <ele>1377.8</ele>
        <time>2022-02-09T07:41:49Z</time>
      </trkpt>
      <trkpt lat="42.8517" lon="0.27232">
        <ele>1377.8</ele>
        <time>2022-02-09T07:41:50Z</time>
      </trkpt>
      <trkpt lat="42.85171" lon="0.27231">
        <ele>1377.8</ele>
        <time>2022-02-09T07:41:51Z</time>
      </trkpt>
      <trkpt lat="42.85171" lon="0.2723">
        <ele>1378.4</ele>
        <time>2022-02-09T07:41:52Z</time>
      </trkpt>
      <trkpt lat="42.85172" lon="0.27229">
        <ele>1378.4</ele>
        <time>2022-02-09T07:41:53Z</time>
      </trkpt>
      <trkpt lat="42.85172" lon="0.27227">
        <ele>1378.4</ele>
        <time>2022-02-09T07:41:54Z</time>
      </trkpt>
      <trkpt lat="42.85172" lon="0.27226">
        <ele>1378.4</ele>
        <time>2022-02-09T07:41:55Z</time>
      </trkpt>
      <trkpt lat="42.85173" lon="0.27225">
        <ele>1378.5</ele>
        <time>2022-02-09T07:41:56Z</time>
      </trkpt>
      <trkpt lat="42.85174" lon="0.27224">
        <ele>1378.5</ele>
        <time>2022-02-09T07:41:57Z</time>
      </trkpt>
      <trkpt lat="42.85174" lon="0.27223">
        <ele>1378.5</ele>
        <time>2022-02-09T07:41:58Z</time>
      </trkpt>
      <trkpt lat="42.85175" lon="0.27221">
        <ele>1378.9</ele>
        <time>2022-02-09T07:41:59Z</time>
      </trkpt>
      <trkpt lat="42.85175" lon="0.2722">
        <ele>1379.1</ele>
        <time>2022-02-09T07:42:00Z</time>
      </trkpt>
      <trkpt lat="42.85176" lon="0.27219">
        <ele>1379.1</ele>
        <time>2022-02-09T07:42:01Z</time>
      </trkpt>
      <trkpt lat="42.85176" lon="0.27218">
        <ele>1379.1</ele>
        <time>2022-02-09T07:42:02Z</time>
      </trkpt>
      <trkpt lat="42.85177" lon="0.27216">
        <ele>1379.3</ele>
        <time>2022-02-09T07:42:03Z</time>
      </trkpt>
      <trkpt lat="42.85177" lon="0.27215">
        <ele>1379.3</ele>
        <time>2022-02-09T07:42:04Z</time>
      </trkpt>
      <trkpt lat="42.85178" lon="0.27214">
        <ele>1379.6</ele>
        <time>2022-02-09T07:42:05Z</time>
      </trkpt>
      <trkpt lat="42.85178" lon="0.27213">
        <ele>1379.6</ele>
        <time>2022-02-09T07:42:06Z</time>
      </trkpt>
      <trkpt lat="42.85179" lon="0.27212">
        <ele>1379.7</ele>
        <time>2022-02-09T07:42:07Z</time>
      </trkpt>
      <trkpt lat="42.85179" lon="0.27211">
        <ele>1379.7</ele>
        <time>2022-02-09T07:42:08Z</time>
      </trkpt>
      <trkpt lat="42.8518" lon="0.2721">
        <ele>1379.7</ele>
        <time>2022-02-09T07:42:09Z</time>
      </trkpt>
      <trkpt lat="42.8518" lon="0.27209">
        <ele>1379.7</ele>
        <time>2022-02-09T07:42:10Z</time>
      </trkpt>
      <trkpt lat="42.85181" lon="0.27207">
        <ele>1380.5</ele>
        <time>2022-02-09T07:42:11Z</time>
      </trkpt>
      <trkpt lat="42.85182" lon="0.27206">
        <ele>1380.5</ele>
        <time>2022-02-09T07:42:12Z</time>
      </trkpt>
      <trkpt lat="42.85182" lon="0.27205">
        <ele>1380.5</ele>
        <time>2022-02-09T07:42:13Z</time>
      </trkpt>
      <trkpt lat="42.85183" lon="0.27204">
        <ele>1380.5</ele>
        <time>2022-02-09T07:42:14Z</time>
      </trkpt>
      <trkpt lat="42.85184" lon="0.27203">
        <ele>1380.7</ele>
        <time>2022-02-09T07:42:15Z</time>
      </trkpt>
      <trkpt lat="42.85184" lon="0.27202">
        <ele>1381</ele>
        <time>2022-02-09T07:42:16Z</time>
      </trkpt>
      <trkpt lat="42.85185" lon="0.27201">
        <ele>1381</ele>
        <time>2022-02-09T07:42:17Z</time>
      </trkpt>
      <trkpt lat="42.85185" lon="0.272">
        <ele>1381</ele>
        <time>2022-02-09T07:42:18Z</time>
      </trkpt>
      <trkpt lat="42.85185" lon="0.27199">
        <ele>1381.2</ele>
        <time>2022-02-09T07:42:19Z</time>
      </trkpt>
      <trkpt lat="42.85186" lon="0.27198">
        <ele>1381.2</ele>
        <time>2022-02-09T07:42:20Z</time>
      </trkpt>
      <trkpt lat="42.85186" lon="0.27197">
        <ele>1381.2</ele>
        <time>2022-02-09T07:42:21Z</time>
      </trkpt>
      <trkpt lat="42.85187" lon="0.27196">
        <ele>1381.6</ele>
        <time>2022-02-09T07:42:22Z</time>
      </trkpt>
      <trkpt lat="42.85188" lon="0.27195">
        <ele>1381.9</ele>
        <time>2022-02-09T07:42:23Z</time>
      </trkpt>
      <trkpt lat="42.85188" lon="0.27194">
        <ele>1381.9</ele>
        <time>2022-02-09T07:42:24Z</time>
      </trkpt>
      <trkpt lat="42.85189" lon="0.27193">
        <ele>1381.9</ele>
        <time>2022-02-09T07:42:25Z</time>
      </trkpt>
      <trkpt lat="42.8519" lon="0.27191">
        <ele>1381.9</ele>
        <time>2022-02-09T07:42:26Z</time>
      </trkpt>
      <trkpt lat="42.85191" lon="0.2719">
        <ele>1382.5</ele>
        <time>2022-02-09T07:42:27Z</time>
      </trkpt>
      <trkpt lat="42.85191" lon="0.27189">
        <ele>1382.5</ele>
        <time>2022-02-09T07:42:28Z</time>
      </trkpt>
      <trkpt lat="42.85192" lon="0.27188">
        <ele>1382.5</ele>
        <time>2022-02-09T07:42:29Z</time>
      </trkpt>
      <trkpt lat="42.85192" lon="0.27187">
        <ele>1382.5</ele>
        <time>2022-02-09T07:42:30Z</time>
      </trkpt>
      <trkpt lat="42.85193" lon="0.27187">
        <ele>1382.8</ele>
        <time>2022-02-09T07:42:31Z</time>
      </trkpt>
      <trkpt lat="42.85194" lon="0.27186">
        <ele>1383.2</ele>
        <time>2022-02-09T07:42:32Z</time>
      </trkpt>
      <trkpt lat="42.85194" lon="0.27185">
        <ele>1383.2</ele>
        <time>2022-02-09T07:42:33Z</time>
      </trkpt>
      <trkpt lat="42.85195" lon="0.27184">
        <ele>1383.2</ele>
        <time>2022-02-09T07:42:34Z</time>
      </trkpt>
      <trkpt lat="42.85196" lon="0.27182">
        <ele>1383.5</ele>
        <time>2022-02-09T07:42:35Z</time>
      </trkpt>
      <trkpt lat="42.85197" lon="0.27182">
        <ele>1383.9</ele>
        <time>2022-02-09T07:42:36Z</time>
      </trkpt>
      <trkpt lat="42.85197" lon="0.27181">
        <ele>1383.9</ele>
        <time>2022-02-09T07:42:37Z</time>
      </trkpt>
      <trkpt lat="42.85198" lon="0.2718">
        <ele>1383.9</ele>
        <time>2022-02-09T07:42:38Z</time>
      </trkpt>
      <trkpt lat="42.85199" lon="0.27179">
        <ele>1383.9</ele>
        <time>2022-02-09T07:42:39Z</time>
      </trkpt>
      <trkpt lat="42.852" lon="0.27179">
        <ele>1384.3</ele>
        <time>2022-02-09T07:42:40Z</time>
      </trkpt>
      <trkpt lat="42.852" lon="0.27178">
        <ele>1384.6</ele>
        <time>2022-02-09T07:42:41Z</time>
      </trkpt>
      <trkpt lat="42.85201" lon="0.27177">
        <ele>1384.6</ele>
        <time>2022-02-09T07:42:42Z</time>
      </trkpt>
      <trkpt lat="42.85202" lon="0.27177">
        <ele>1384.6</ele>
        <time>2022-02-09T07:42:43Z</time>
      </trkpt>
      <trkpt lat="42.85203" lon="0.27176">
        <ele>1385</ele>
        <time>2022-02-09T07:42:44Z</time>
      </trkpt>
      <trkpt lat="42.85204" lon="0.27175">
        <ele>1385</ele>
        <time>2022-02-09T07:42:45Z</time>
      </trkpt>
      <trkpt lat="42.85205" lon="0.27174">
        <ele>1385</ele>
        <time>2022-02-09T07:42:46Z</time>
      </trkpt>
      <trkpt lat="42.85205" lon="0.27173">
        <ele>1385.3</ele>
        <time>2022-02-09T07:42:47Z</time>
      </trkpt>
      <trkpt lat="42.85206" lon="0.27172">
        <ele>1385.7</ele>
        <time>2022-02-09T07:42:48Z</time>
      </trkpt>
      <trkpt lat="42.85207" lon="0.27171">
        <ele>1385.7</ele>
        <time>2022-02-09T07:42:49Z</time>
      </trkpt>
      <trkpt lat="42.85207" lon="0.2717">
        <ele>1385.7</ele>
        <time>2022-02-09T07:42:50Z</time>
      </trkpt>
      <trkpt lat="42.85208" lon="0.2717">
        <ele>1386</ele>
        <time>2022-02-09T07:42:51Z</time>
      </trkpt>
      <trkpt lat="42.85209" lon="0.27169">
        <ele>1386</ele>
        <time>2022-02-09T07:42:52Z</time>
      </trkpt>
      <trkpt lat="42.8521" lon="0.27168">
        <ele>1386.4</ele>
        <time>2022-02-09T07:42:53Z</time>
      </trkpt>
      <trkpt lat="42.8521" lon="0.27167">
        <ele>1386.4</ele>
        <time>2022-02-09T07:42:54Z</time>
      </trkpt>
      <trkpt lat="42.85211" lon="0.27167">
        <ele>1386.4</ele>
        <time>2022-02-09T07:42:55Z</time>
      </trkpt>
      <trkpt lat="42.85212" lon="0.27166">
        <ele>1386.4</ele>
        <time>2022-02-09T07:42:56Z</time>
      </trkpt>
      <trkpt lat="42.85212" lon="0.27165">
        <ele>1387.2</ele>
        <time>2022-02-09T07:42:57Z</time>
      </trkpt>
      <trkpt lat="42.85213" lon="0.27164">
        <ele>1387.2</ele>
        <time>2022-02-09T07:42:58Z</time>
      </trkpt>
      <trkpt lat="42.85214" lon="0.27163">
        <ele>1387.2</ele>
        <time>2022-02-09T07:42:59Z</time>
      </trkpt>
      <trkpt lat="42.85215" lon="0.27162">
        <ele>1387.2</ele>
        <time>2022-02-09T07:43:00Z</time>
      </trkpt>
      <trkpt lat="42.85215" lon="0.27161">
        <ele>1387.7</ele>
        <time>2022-02-09T07:43:01Z</time>
      </trkpt>
      <trkpt lat="42.85216" lon="0.27161">
        <ele>1388</ele>
        <time>2022-02-09T07:43:02Z</time>
      </trkpt>
      <trkpt lat="42.85217" lon="0.2716">
        <ele>1388</ele>
        <time>2022-02-09T07:43:03Z</time>
      </trkpt>
      <trkpt lat="42.85218" lon="0.27159">
        <ele>1388</ele>
        <time>2022-02-09T07:43:04Z</time>
      </trkpt>
      <trkpt lat="42.85218" lon="0.27158">
        <ele>1388.5</ele>
        <time>2022-02-09T07:43:05Z</time>
      </trkpt>
      <trkpt lat="42.85219" lon="0.27157">
        <ele>1388.5</ele>
        <time>2022-02-09T07:43:06Z</time>
      </trkpt>
      <trkpt lat="42.8522" lon="0.27156">
        <ele>1388.8</ele>
        <time>2022-02-09T07:43:07Z</time>
      </trkpt>
      <trkpt lat="42.85221" lon="0.27155">
        <ele>1388.8</ele>
        <time>2022-02-09T07:43:08Z</time>
      </trkpt>
      <trkpt lat="42.85222" lon="0.27154">
        <ele>1389.3</ele>
        <time>2022-02-09T07:43:09Z</time>
      </trkpt>
      <trkpt lat="42.85222" lon="0.27153">
        <ele>1389.3</ele>
        <time>2022-02-09T07:43:10Z</time>
      </trkpt>
      <trkpt lat="42.85223" lon="0.27152">
        <ele>1389.7</ele>
        <time>2022-02-09T07:43:11Z</time>
      </trkpt>
      <trkpt lat="42.85224" lon="0.2715">
        <ele>1389.7</ele>
        <time>2022-02-09T07:43:12Z</time>
      </trkpt>
      <trkpt lat="42.85224" lon="0.27149">
        <ele>1389.7</ele>
        <time>2022-02-09T07:43:13Z</time>
      </trkpt>
      <trkpt lat="42.85225" lon="0.27148">
        <ele>1390.5</ele>
        <time>2022-02-09T07:43:14Z</time>
      </trkpt>
      <trkpt lat="42.85226" lon="0.27147">
        <ele>1390.5</ele>
        <time>2022-02-09T07:43:15Z</time>
      </trkpt>
      <trkpt lat="42.85226" lon="0.27146">
        <ele>1390.5</ele>
        <time>2022-02-09T07:43:16Z</time>
      </trkpt>
      <trkpt lat="42.85226" lon="0.27144">
        <ele>1390.5</ele>
        <time>2022-02-09T07:43:17Z</time>
      </trkpt>
      <trkpt lat="42.85227" lon="0.27143">
        <ele>1391</ele>
        <time>2022-02-09T07:43:18Z</time>
      </trkpt>
      <trkpt lat="42.85227" lon="0.27142">
        <ele>1391</ele>
        <time>2022-02-09T07:43:19Z</time>
      </trkpt>
      <trkpt lat="42.85228" lon="0.27141">
        <ele>1391.4</ele>
        <time>2022-02-09T07:43:20Z</time>
      </trkpt>
      <trkpt lat="42.85229" lon="0.2714">
        <ele>1391.4</ele>
        <time>2022-02-09T07:43:21Z</time>
      </trkpt>
      <trkpt lat="42.85229" lon="0.27139">
        <ele>1391.9</ele>
        <time>2022-02-09T07:43:22Z</time>
      </trkpt>
      <trkpt lat="42.8523" lon="0.27138">
        <ele>1391.9</ele>
        <time>2022-02-09T07:43:23Z</time>
      </trkpt>
      <trkpt lat="42.8523" lon="0.27137">
        <ele>1391.9</ele>
        <time>2022-02-09T07:43:24Z</time>
      </trkpt>
      <trkpt lat="42.85231" lon="0.27136">
        <ele>1392.4</ele>
        <time>2022-02-09T07:43:25Z</time>
      </trkpt>
      <trkpt lat="42.85232" lon="0.27135">
        <ele>1392.8</ele>
        <time>2022-02-09T07:43:26Z</time>
      </trkpt>
      <trkpt lat="42.85233" lon="0.27135">
        <ele>1392.8</ele>
        <time>2022-02-09T07:43:27Z</time>
      </trkpt>
      <trkpt lat="42.85234" lon="0.27135">
        <ele>1392.8</ele>
        <time>2022-02-09T07:43:28Z</time>
      </trkpt>
      <trkpt lat="42.85235" lon="0.27135">
        <ele>1393.3</ele>
        <time>2022-02-09T07:43:29Z</time>
      </trkpt>
      <trkpt lat="42.85236" lon="0.27135">
        <ele>1393.3</ele>
        <time>2022-02-09T07:43:30Z</time>
      </trkpt>
      <trkpt lat="42.85237" lon="0.27134">
        <ele>1393.3</ele>
        <time>2022-02-09T07:43:31Z</time>
      </trkpt>
      <trkpt lat="42.85237" lon="0.27134">
        <ele>1393.8</ele>
        <time>2022-02-09T07:43:32Z</time>
      </trkpt>
      <trkpt lat="42.85238" lon="0.27134">
        <ele>1393.8</ele>
        <time>2022-02-09T07:43:33Z</time>
      </trkpt>
      <trkpt lat="42.85239" lon="0.27134">
        <ele>1393.8</ele>
        <time>2022-02-09T07:43:34Z</time>
      </trkpt>
      <trkpt lat="42.8524" lon="0.27133">
        <ele>1393.8</ele>
        <time>2022-02-09T07:43:35Z</time>
      </trkpt>
      <trkpt lat="42.85241" lon="0.27133">
        <ele>1394.3</ele>
        <time>2022-02-09T07:43:36Z</time>
      </trkpt>
      <trkpt lat="42.85242" lon="0.27133">
        <ele>1394.3</ele>
        <time>2022-02-09T07:43:37Z</time>
      </trkpt>
      <trkpt lat="42.85243" lon="0.27133">
        <ele>1394.3</ele>
        <time>2022-02-09T07:43:38Z</time>
      </trkpt>
      <trkpt lat="42.85244" lon="0.27133">
        <ele>1394.8</ele>
        <time>2022-02-09T07:43:39Z</time>
      </trkpt>
      <trkpt lat="42.85244" lon="0.27134">
        <ele>1394.8</ele>
        <time>2022-02-09T07:43:40Z</time>
      </trkpt>
      <trkpt lat="42.85245" lon="0.27134">
        <ele>1394.8</ele>
        <time>2022-02-09T07:43:41Z</time>
      </trkpt>
      <trkpt lat="42.85246" lon="0.27134">
        <ele>1394.8</ele>
        <time>2022-02-09T07:43:42Z</time>
      </trkpt>
      <trkpt lat="42.85247" lon="0.27134">
        <ele>1395.3</ele>
        <time>2022-02-09T07:43:43Z</time>
      </trkpt>
      <trkpt lat="42.85248" lon="0.27135">
        <ele>1395.3</ele>
        <time>2022-02-09T07:43:44Z</time>
      </trkpt>
      <trkpt lat="42.85249" lon="0.27135">
        <ele>1394.9</ele>
        <time>2022-02-09T07:43:45Z</time>
      </trkpt>
      <trkpt lat="42.8525" lon="0.27136">
        <ele>1394.9</ele>
        <time>2022-02-09T07:43:46Z</time>
      </trkpt>
      <trkpt lat="42.8525" lon="0.27136">
        <ele>1395.5</ele>
        <time>2022-02-09T07:43:47Z</time>
      </trkpt>
      <trkpt lat="42.85251" lon="0.27137">
        <ele>1395.5</ele>
        <time>2022-02-09T07:43:48Z</time>
      </trkpt>
      <trkpt lat="42.85252" lon="0.27138">
        <ele>1395.5</ele>
        <time>2022-02-09T07:43:49Z</time>
      </trkpt>
      <trkpt lat="42.85253" lon="0.27138">
        <ele>1395.5</ele>
        <time>2022-02-09T07:43:50Z</time>
      </trkpt>
      <trkpt lat="42.85254" lon="0.27139">
        <ele>1396.1</ele>
        <time>2022-02-09T07:43:51Z</time>
      </trkpt>
      <trkpt lat="42.85254" lon="0.2714">
        <ele>1395.8</ele>
        <time>2022-02-09T07:43:52Z</time>
      </trkpt>
      <trkpt lat="42.85255" lon="0.27141">
        <ele>1395.8</ele>
        <time>2022-02-09T07:43:53Z</time>
      </trkpt>
      <trkpt lat="42.85255" lon="0.27142">
        <ele>1395.8</ele>
        <time>2022-02-09T07:43:54Z</time>
      </trkpt>
      <trkpt lat="42.85256" lon="0.27143">
        <ele>1395.8</ele>
        <time>2022-02-09T07:43:55Z</time>
      </trkpt>
      <trkpt lat="42.85257" lon="0.27144">
        <ele>1396.4</ele>
        <time>2022-02-09T07:43:56Z</time>
      </trkpt>
      <trkpt lat="42.85257" lon="0.27144">
        <ele>1396.2</ele>
        <time>2022-02-09T07:43:57Z</time>
      </trkpt>
      <trkpt lat="42.85258" lon="0.27145">
        <ele>1396.2</ele>
        <time>2022-02-09T07:43:58Z</time>
      </trkpt>
      <trkpt lat="42.85259" lon="0.27146">
        <ele>1396.2</ele>
        <time>2022-02-09T07:43:59Z</time>
      </trkpt>
      <trkpt lat="42.85259" lon="0.27147">
        <ele>1396.2</ele>
        <time>2022-02-09T07:44:00Z</time>
      </trkpt>
      <trkpt lat="42.8526" lon="0.27147">
        <ele>1396.8</ele>
        <time>2022-02-09T07:44:01Z</time>
      </trkpt>
      <trkpt lat="42.85261" lon="0.27148">
        <ele>1396.8</ele>
        <time>2022-02-09T07:44:02Z</time>
      </trkpt>
      <trkpt lat="42.85262" lon="0.27149">
        <ele>1396.7</ele>
        <time>2022-02-09T07:44:03Z</time>
      </trkpt>
      <trkpt lat="42.85262" lon="0.2715">
        <ele>1396.7</ele>
        <time>2022-02-09T07:44:04Z</time>
      </trkpt>
      <trkpt lat="42.85263" lon="0.2715">
        <ele>1397.3</ele>
        <time>2022-02-09T07:44:05Z</time>
      </trkpt>
      <trkpt lat="42.85264" lon="0.27151">
        <ele>1397.3</ele>
        <time>2022-02-09T07:44:06Z</time>
      </trkpt>
      <trkpt lat="42.85264" lon="0.27152">
        <ele>1397.3</ele>
        <time>2022-02-09T07:44:07Z</time>
      </trkpt>
      <trkpt lat="42.85265" lon="0.27153">
        <ele>1397.2</ele>
        <time>2022-02-09T07:44:08Z</time>
      </trkpt>
      <trkpt lat="42.85266" lon="0.27154">
        <ele>1397.2</ele>
        <time>2022-02-09T07:44:09Z</time>
      </trkpt>
      <trkpt lat="42.85266" lon="0.27155">
        <ele>1397.9</ele>
        <time>2022-02-09T07:44:10Z</time>
      </trkpt>
      <trkpt lat="42.85267" lon="0.27155">
        <ele>1397.9</ele>
        <time>2022-02-09T07:44:11Z</time>
      </trkpt>
      <trkpt lat="42.85267" lon="0.27156">
        <ele>1397.9</ele>
        <time>2022-02-09T07:44:12Z</time>
      </trkpt>
      <trkpt lat="42.85268" lon="0.27157">
        <ele>1397.9</ele>
        <time>2022-02-09T07:44:13Z</time>
      </trkpt>
      <trkpt lat="42.85268" lon="0.27158">
        <ele>1397.9</ele>
        <time>2022-02-09T07:44:14Z</time>
      </trkpt>
      <trkpt lat="42.85269" lon="0.27159">
        <ele>1397.9</ele>
        <time>2022-02-09T07:44:15Z</time>
      </trkpt>
      <trkpt lat="42.85269" lon="0.2716">
        <ele>1398.5</ele>
        <time>2022-02-09T07:44:16Z</time>
      </trkpt>
      <trkpt lat="42.8527" lon="0.27161">
        <ele>1398.5</ele>
        <time>2022-02-09T07:44:17Z</time>
      </trkpt>
      <trkpt lat="42.8527" lon="0.27162">
        <ele>1398.6</ele>
        <time>2022-02-09T07:44:18Z</time>
      </trkpt>
      <trkpt lat="42.85271" lon="0.27163">
        <ele>1398.6</ele>
        <time>2022-02-09T07:44:19Z</time>
      </trkpt>
      <trkpt lat="42.85271" lon="0.27164">
        <ele>1398.6</ele>
        <time>2022-02-09T07:44:20Z</time>
      </trkpt>
      <trkpt lat="42.85272" lon="0.27165">
        <ele>1398.6</ele>
        <time>2022-02-09T07:44:21Z</time>
      </trkpt>
      <trkpt lat="42.85272" lon="0.27166">
        <ele>1399.3</ele>
        <time>2022-02-09T07:44:22Z</time>
      </trkpt>
      <trkpt lat="42.85273" lon="0.27167">
        <ele>1399.3</ele>
        <time>2022-02-09T07:44:23Z</time>
      </trkpt>
      <trkpt lat="42.85273" lon="0.27168">
        <ele>1399.3</ele>
        <time>2022-02-09T07:44:24Z</time>
      </trkpt>
      <trkpt lat="42.85274" lon="0.27168">
        <ele>1399.3</ele>
        <time>2022-02-09T07:44:25Z</time>
      </trkpt>
      <trkpt lat="42.85275" lon="0.27169">
        <ele>1399.3</ele>
        <time>2022-02-09T07:44:26Z</time>
      </trkpt>
      <trkpt lat="42.85275" lon="0.2717">
        <ele>1400.2</ele>
        <time>2022-02-09T07:44:27Z</time>
      </trkpt>
      <trkpt lat="42.85276" lon="0.27171">
        <ele>1400.2</ele>
        <time>2022-02-09T07:44:28Z</time>
      </trkpt>
      <trkpt lat="42.85277" lon="0.27171">
        <ele>1400.2</ele>
        <time>2022-02-09T07:44:29Z</time>
      </trkpt>
      <trkpt lat="42.85278" lon="0.27171">
        <ele>1400.2</ele>
        <time>2022-02-09T07:44:30Z</time>
      </trkpt>
      <trkpt lat="42.85278" lon="0.27172">
        <ele>1401</ele>
        <time>2022-02-09T07:44:31Z</time>
      </trkpt>
      <trkpt lat="42.85279" lon="0.27172">
        <ele>1401</ele>
        <time>2022-02-09T07:44:32Z</time>
      </trkpt>
      <trkpt lat="42.8528" lon="0.27172">
        <ele>1401</ele>
        <time>2022-02-09T07:44:33Z</time>
      </trkpt>
      <trkpt lat="42.85281" lon="0.27172">
        <ele>1401</ele>
        <time>2022-02-09T07:44:34Z</time>
      </trkpt>
      <trkpt lat="42.85281" lon="0.27172">
        <ele>1401.9</ele>
        <time>2022-02-09T07:44:35Z</time>
      </trkpt>
      <trkpt lat="42.85283" lon="0.27171">
        <ele>1401.9</ele>
        <time>2022-02-09T07:44:36Z</time>
      </trkpt>
      <trkpt lat="42.85283" lon="0.27171">
        <ele>1401.9</ele>
        <time>2022-02-09T07:44:37Z</time>
      </trkpt>
      <trkpt lat="42.85284" lon="0.27171">
        <ele>1401.9</ele>
        <time>2022-02-09T07:44:38Z</time>
      </trkpt>
      <trkpt lat="42.85285" lon="0.27171">
        <ele>1402.7</ele>
        <time>2022-02-09T07:44:39Z</time>
      </trkpt>
      <trkpt lat="42.85286" lon="0.27171">
        <ele>1402.7</ele>
        <time>2022-02-09T07:44:40Z</time>
      </trkpt>
      <trkpt lat="42.85286" lon="0.2717">
        <ele>1402.7</ele>
        <time>2022-02-09T07:44:41Z</time>
      </trkpt>
      <trkpt lat="42.85287" lon="0.2717">
        <ele>1402.7</ele>
        <time>2022-02-09T07:44:42Z</time>
      </trkpt>
      <trkpt lat="42.85288" lon="0.2717">
        <ele>1403.5</ele>
        <time>2022-02-09T07:44:43Z</time>
      </trkpt>
      <trkpt lat="42.85289" lon="0.2717">
        <ele>1403.5</ele>
        <time>2022-02-09T07:44:44Z</time>
      </trkpt>
      <trkpt lat="42.8529" lon="0.2717">
        <ele>1403.4</ele>
        <time>2022-02-09T07:44:45Z</time>
      </trkpt>
      <trkpt lat="42.85291" lon="0.27169">
        <ele>1404.2</ele>
        <time>2022-02-09T07:44:46Z</time>
      </trkpt>
      <trkpt lat="42.85292" lon="0.27169">
        <ele>1404.2</ele>
        <time>2022-02-09T07:44:47Z</time>
      </trkpt>
      <trkpt lat="42.85293" lon="0.27169">
        <ele>1404.2</ele>
        <time>2022-02-09T07:44:48Z</time>
      </trkpt>
      <trkpt lat="42.85294" lon="0.27169">
        <ele>1404.2</ele>
        <time>2022-02-09T07:44:49Z</time>
      </trkpt>
      <trkpt lat="42.85294" lon="0.27168">
        <ele>1405</ele>
        <time>2022-02-09T07:44:50Z</time>
      </trkpt>
      <trkpt lat="42.85295" lon="0.27168">
        <ele>1405</ele>
        <time>2022-02-09T07:44:51Z</time>
      </trkpt>
      <trkpt lat="42.85296" lon="0.27168">
        <ele>1405</ele>
        <time>2022-02-09T07:44:52Z</time>
      </trkpt>
      <trkpt lat="42.85297" lon="0.27167">
        <ele>1405</ele>
        <time>2022-02-09T07:44:53Z</time>
      </trkpt>
      <trkpt lat="42.85298" lon="0.27167">
        <ele>1405.8</ele>
        <time>2022-02-09T07:44:54Z</time>
      </trkpt>
      <trkpt lat="42.85299" lon="0.27167">
        <ele>1405.8</ele>
        <time>2022-02-09T07:44:55Z</time>
      </trkpt>
      <trkpt lat="42.853" lon="0.27167">
        <ele>1405.8</ele>
        <time>2022-02-09T07:44:56Z</time>
      </trkpt>
      <trkpt lat="42.85301" lon="0.27166">
        <ele>1406.8</ele>
        <time>2022-02-09T07:44:57Z</time>
      </trkpt>
      <trkpt lat="42.85302" lon="0.27166">
        <ele>1406.8</ele>
        <time>2022-02-09T07:44:58Z</time>
      </trkpt>
      <trkpt lat="42.85303" lon="0.27166">
        <ele>1406.8</ele>
        <time>2022-02-09T07:44:59Z</time>
      </trkpt>
      <trkpt lat="42.85304" lon="0.27165">
        <ele>1407.7</ele>
        <time>2022-02-09T07:45:00Z</time>
      </trkpt>
      <trkpt lat="42.85305" lon="0.27165">
        <ele>1407.7</ele>
        <time>2022-02-09T07:45:01Z</time>
      </trkpt>
      <trkpt lat="42.85306" lon="0.27165">
        <ele>1407.7</ele>
        <time>2022-02-09T07:45:02Z</time>
      </trkpt>
      <trkpt lat="42.85307" lon="0.27164">
        <ele>1408.7</ele>
        <time>2022-02-09T07:45:03Z</time>
      </trkpt>
      <trkpt lat="42.85307" lon="0.27164">
        <ele>1408.7</ele>
        <time>2022-02-09T07:45:04Z</time>
      </trkpt>
      <trkpt lat="42.85308" lon="0.27164">
        <ele>1408.7</ele>
        <time>2022-02-09T07:45:05Z</time>
      </trkpt>
      <trkpt lat="42.85309" lon="0.27164">
        <ele>1408.7</ele>
        <time>2022-02-09T07:45:06Z</time>
      </trkpt>
      <trkpt lat="42.8531" lon="0.27163">
        <ele>1409.7</ele>
        <time>2022-02-09T07:45:07Z</time>
      </trkpt>
      <trkpt lat="42.85311" lon="0.27163">
        <ele>1409.7</ele>
        <time>2022-02-09T07:45:08Z</time>
      </trkpt>
      <trkpt lat="42.85312" lon="0.27163">
        <ele>1409.7</ele>
        <time>2022-02-09T07:45:09Z</time>
      </trkpt>
      <trkpt lat="42.85313" lon="0.27163">
        <ele>1409.7</ele>
        <time>2022-02-09T07:45:10Z</time>
      </trkpt>
      <trkpt lat="42.85314" lon="0.27163">
        <ele>1410.6</ele>
        <time>2022-02-09T07:45:11Z</time>
      </trkpt>
      <trkpt lat="42.85315" lon="0.27163">
        <ele>1410.6</ele>
        <time>2022-02-09T07:45:12Z</time>
      </trkpt>
      <trkpt lat="42.85315" lon="0.27162">
        <ele>1410.6</ele>
        <time>2022-02-09T07:45:13Z</time>
      </trkpt>
      <trkpt lat="42.85316" lon="0.27162">
        <ele>1411.4</ele>
        <time>2022-02-09T07:45:14Z</time>
      </trkpt>
      <trkpt lat="42.85317" lon="0.27162">
        <ele>1411.4</ele>
        <time>2022-02-09T07:45:15Z</time>
      </trkpt>
      <trkpt lat="42.85318" lon="0.27162">
        <ele>1411.4</ele>
        <time>2022-02-09T07:45:16Z</time>
      </trkpt>
      <trkpt lat="42.85319" lon="0.27162">
        <ele>1411.4</ele>
        <time>2022-02-09T07:45:17Z</time>
      </trkpt>
      <trkpt lat="42.8532" lon="0.27162">
        <ele>1412.1</ele>
        <time>2022-02-09T07:45:18Z</time>
      </trkpt>
      <trkpt lat="42.8532" lon="0.27162">
        <ele>1412.1</ele>
        <time>2022-02-09T07:45:19Z</time>
      </trkpt>
      <trkpt lat="42.85321" lon="0.27162">
        <ele>1412.1</ele>
        <time>2022-02-09T07:45:20Z</time>
      </trkpt>
      <trkpt lat="42.85322" lon="0.27162">
        <ele>1412.1</ele>
        <time>2022-02-09T07:45:21Z</time>
      </trkpt>
      <trkpt lat="42.85323" lon="0.27162">
        <ele>1412.9</ele>
        <time>2022-02-09T07:45:22Z</time>
      </trkpt>
      <trkpt lat="42.85323" lon="0.27161">
        <ele>1412.8</ele>
        <time>2022-02-09T07:45:23Z</time>
      </trkpt>
      <trkpt lat="42.85324" lon="0.2716">
        <ele>1412.8</ele>
        <time>2022-02-09T07:45:24Z</time>
      </trkpt>
      <trkpt lat="42.85324" lon="0.2716">
        <ele>1412.8</ele>
        <time>2022-02-09T07:45:25Z</time>
      </trkpt>
      <trkpt lat="42.85325" lon="0.27159">
        <ele>1412.8</ele>
        <time>2022-02-09T07:45:26Z</time>
      </trkpt>
      <trkpt lat="42.85326" lon="0.27158">
        <ele>1413.7</ele>
        <time>2022-02-09T07:45:27Z</time>
      </trkpt>
      <trkpt lat="42.85326" lon="0.27157">
        <ele>1413.5</ele>
        <time>2022-02-09T07:45:28Z</time>
      </trkpt>
      <trkpt lat="42.85327" lon="0.27156">
        <ele>1413.5</ele>
        <time>2022-02-09T07:45:29Z</time>
      </trkpt>
      <trkpt lat="42.85327" lon="0.27155">
        <ele>1413.5</ele>
        <time>2022-02-09T07:45:30Z</time>
      </trkpt>
      <trkpt lat="42.85328" lon="0.27154">
        <ele>1413.5</ele>
        <time>2022-02-09T07:45:31Z</time>
      </trkpt>
      <trkpt lat="42.85328" lon="0.27153">
        <ele>1413.5</ele>
        <time>2022-02-09T07:45:32Z</time>
      </trkpt>
      <trkpt lat="42.85329" lon="0.27152">
        <ele>1414.3</ele>
        <time>2022-02-09T07:45:33Z</time>
      </trkpt>
      <trkpt lat="42.85329" lon="0.27151">
        <ele>1414.3</ele>
        <time>2022-02-09T07:45:34Z</time>
      </trkpt>
      <trkpt lat="42.8533" lon="0.2715">
        <ele>1414.3</ele>
        <time>2022-02-09T07:45:35Z</time>
      </trkpt>
      <trkpt lat="42.8533" lon="0.27149">
        <ele>1414.3</ele>
        <time>2022-02-09T07:45:36Z</time>
      </trkpt>
      <trkpt lat="42.85331" lon="0.27148">
        <ele>1414.3</ele>
        <time>2022-02-09T07:45:37Z</time>
      </trkpt>
      <trkpt lat="42.85332" lon="0.27148">
        <ele>1414.2</ele>
        <time>2022-02-09T07:45:38Z</time>
      </trkpt>
      <trkpt lat="42.85332" lon="0.27147">
        <ele>1415.1</ele>
        <time>2022-02-09T07:45:39Z</time>
      </trkpt>
      <trkpt lat="42.85333" lon="0.27146">
        <ele>1415.1</ele>
        <time>2022-02-09T07:45:40Z</time>
      </trkpt>
      <trkpt lat="42.85333" lon="0.27145">
        <ele>1415.1</ele>
        <time>2022-02-09T07:45:41Z</time>
      </trkpt>
      <trkpt lat="42.85334" lon="0.27144">
        <ele>1415</ele>
        <time>2022-02-09T07:45:42Z</time>
      </trkpt>
      <trkpt lat="42.85334" lon="0.27143">
        <ele>1415</ele>
        <time>2022-02-09T07:45:43Z</time>
      </trkpt>
      <trkpt lat="42.85335" lon="0.27142">
        <ele>1415.8</ele>
        <time>2022-02-09T07:45:44Z</time>
      </trkpt>
      <trkpt lat="42.85335" lon="0.27141">
        <ele>1415.8</ele>
        <time>2022-02-09T07:45:45Z</time>
      </trkpt>
      <trkpt lat="42.85336" lon="0.2714">
        <ele>1415.8</ele>
        <time>2022-02-09T07:45:46Z</time>
      </trkpt>
      <trkpt lat="42.85337" lon="0.27139">
        <ele>1415.7</ele>
        <time>2022-02-09T07:45:47Z</time>
      </trkpt>
      <trkpt lat="42.85337" lon="0.27139">
        <ele>1415.7</ele>
        <time>2022-02-09T07:45:48Z</time>
      </trkpt>
      <trkpt lat="42.85337" lon="0.27138">
        <ele>1415.7</ele>
        <time>2022-02-09T07:45:49Z</time>
      </trkpt>
      <trkpt lat="42.85338" lon="0.27137">
        <ele>1416.5</ele>
        <time>2022-02-09T07:45:50Z</time>
      </trkpt>
      <trkpt lat="42.85338" lon="0.27136">
        <ele>1416.5</ele>
        <time>2022-02-09T07:45:51Z</time>
      </trkpt>
      <trkpt lat="42.85339" lon="0.27135">
        <ele>1416.4</ele>
        <time>2022-02-09T07:45:52Z</time>
      </trkpt>
      <trkpt lat="42.8534" lon="0.27134">
        <ele>1416.4</ele>
        <time>2022-02-09T07:45:53Z</time>
      </trkpt>
      <trkpt lat="42.8534" lon="0.27133">
        <ele>1416.4</ele>
        <time>2022-02-09T07:45:54Z</time>
      </trkpt>
      <trkpt lat="42.85341" lon="0.27133">
        <ele>1416.4</ele>
        <time>2022-02-09T07:45:55Z</time>
      </trkpt>
      <trkpt lat="42.85341" lon="0.27132">
        <ele>1417.1</ele>
        <time>2022-02-09T07:45:56Z</time>
      </trkpt>
      <trkpt lat="42.85342" lon="0.27131">
        <ele>1417</ele>
        <time>2022-02-09T07:45:57Z</time>
      </trkpt>
      <trkpt lat="42.85343" lon="0.2713">
        <ele>1417</ele>
        <time>2022-02-09T07:45:58Z</time>
      </trkpt>
      <trkpt lat="42.85343" lon="0.27129">
        <ele>1417</ele>
        <time>2022-02-09T07:45:59Z</time>
      </trkpt>
      <trkpt lat="42.85344" lon="0.27128">
        <ele>1417</ele>
        <time>2022-02-09T07:46:00Z</time>
      </trkpt>
      <trkpt lat="42.85345" lon="0.27127">
        <ele>1417.6</ele>
        <time>2022-02-09T07:46:01Z</time>
      </trkpt>
      <trkpt lat="42.85345" lon="0.27126">
        <ele>1417.6</ele>
        <time>2022-02-09T07:46:02Z</time>
      </trkpt>
      <trkpt lat="42.85346" lon="0.27126">
        <ele>1417.6</ele>
        <time>2022-02-09T07:46:03Z</time>
      </trkpt>
      <trkpt lat="42.85346" lon="0.27125">
        <ele>1417.6</ele>
        <time>2022-02-09T07:46:04Z</time>
      </trkpt>
      <trkpt lat="42.85347" lon="0.27124">
        <ele>1417.6</ele>
        <time>2022-02-09T07:46:05Z</time>
      </trkpt>
      <trkpt lat="42.85347" lon="0.27123">
        <ele>1417.6</ele>
        <time>2022-02-09T07:46:06Z</time>
      </trkpt>
      <trkpt lat="42.85348" lon="0.27122">
        <ele>1418.2</ele>
        <time>2022-02-09T07:46:07Z</time>
      </trkpt>
      <trkpt lat="42.85348" lon="0.27121">
        <ele>1418.2</ele>
        <time>2022-02-09T07:46:08Z</time>
      </trkpt>
      <trkpt lat="42.85349" lon="0.2712">
        <ele>1418.2</ele>
        <time>2022-02-09T07:46:09Z</time>
      </trkpt>
      <trkpt lat="42.85349" lon="0.27119">
        <ele>1418.2</ele>
        <time>2022-02-09T07:46:10Z</time>
      </trkpt>
      <trkpt lat="42.85349" lon="0.27118">
        <ele>1418.2</ele>
        <time>2022-02-09T07:46:11Z</time>
      </trkpt>
      <trkpt lat="42.85349" lon="0.27117">
        <ele>1418.2</ele>
        <time>2022-02-09T07:46:12Z</time>
      </trkpt>
      <trkpt lat="42.85349" lon="0.27116">
        <ele>1418.2</ele>
        <time>2022-02-09T07:46:13Z</time>
      </trkpt>
      <trkpt lat="42.85349" lon="0.27115">
        <ele>1418.2</ele>
        <time>2022-02-09T07:46:14Z</time>
      </trkpt>
      <trkpt lat="42.8535" lon="0.27113">
        <ele>1418.1</ele>
        <time>2022-02-09T07:46:15Z</time>
      </trkpt>
      <trkpt lat="42.8535" lon="0.27112">
        <ele>1418.1</ele>
        <time>2022-02-09T07:46:16Z</time>
      </trkpt>
      <trkpt lat="42.8535" lon="0.27111">
        <ele>1418.1</ele>
        <time>2022-02-09T07:46:17Z</time>
      </trkpt>
      <trkpt lat="42.8535" lon="0.2711">
        <ele>1418.1</ele>
        <time>2022-02-09T07:46:18Z</time>
      </trkpt>
      <trkpt lat="42.85351" lon="0.27109">
        <ele>1418.8</ele>
        <time>2022-02-09T07:46:19Z</time>
      </trkpt>
      <trkpt lat="42.85351" lon="0.27108">
        <ele>1418.8</ele>
        <time>2022-02-09T07:46:20Z</time>
      </trkpt>
      <trkpt lat="42.85352" lon="0.27108">
        <ele>1418.8</ele>
        <time>2022-02-09T07:46:21Z</time>
      </trkpt>
      <trkpt lat="42.85353" lon="0.27107">
        <ele>1418.8</ele>
        <time>2022-02-09T07:46:22Z</time>
      </trkpt>
      <trkpt lat="42.85353" lon="0.27106">
        <ele>1418.8</ele>
        <time>2022-02-09T07:46:23Z</time>
      </trkpt>
      <trkpt lat="42.85354" lon="0.27105">
        <ele>1419.6</ele>
        <time>2022-02-09T07:46:24Z</time>
      </trkpt>
      <trkpt lat="42.85354" lon="0.27105">
        <ele>1419.6</ele>
        <time>2022-02-09T07:46:25Z</time>
      </trkpt>
      <trkpt lat="42.85355" lon="0.27104">
        <ele>1419.6</ele>
        <time>2022-02-09T07:46:26Z</time>
      </trkpt>
      <trkpt lat="42.85356" lon="0.27103">
        <ele>1419.6</ele>
        <time>2022-02-09T07:46:27Z</time>
      </trkpt>
      <trkpt lat="42.85356" lon="0.27102">
        <ele>1419.6</ele>
        <time>2022-02-09T07:46:28Z</time>
      </trkpt>
      <trkpt lat="42.85357" lon="0.27102">
        <ele>1420.3</ele>
        <time>2022-02-09T07:46:29Z</time>
      </trkpt>
      <trkpt lat="42.85357" lon="0.27101">
        <ele>1420.3</ele>
        <time>2022-02-09T07:46:30Z</time>
      </trkpt>
      <trkpt lat="42.85358" lon="0.271">
        <ele>1420.3</ele>
        <time>2022-02-09T07:46:31Z</time>
      </trkpt>
      <trkpt lat="42.85359" lon="0.271">
        <ele>1420.3</ele>
        <time>2022-02-09T07:46:32Z</time>
      </trkpt>
      <trkpt lat="42.8536" lon="0.27099">
        <ele>1420.3</ele>
        <time>2022-02-09T07:46:33Z</time>
      </trkpt>
      <trkpt lat="42.8536" lon="0.27098">
        <ele>1421</ele>
        <time>2022-02-09T07:46:34Z</time>
      </trkpt>
      <trkpt lat="42.85361" lon="0.27098">
        <ele>1421</ele>
        <time>2022-02-09T07:46:35Z</time>
      </trkpt>
      <trkpt lat="42.85362" lon="0.27097">
        <ele>1420.9</ele>
        <time>2022-02-09T07:46:36Z</time>
      </trkpt>
      <trkpt lat="42.85362" lon="0.27096">
        <ele>1420.9</ele>
        <time>2022-02-09T07:46:37Z</time>
      </trkpt>
      <trkpt lat="42.85363" lon="0.27095">
        <ele>1420.9</ele>
        <time>2022-02-09T07:46:38Z</time>
      </trkpt>
      <trkpt lat="42.85364" lon="0.27095">
        <ele>1421.6</ele>
        <time>2022-02-09T07:46:39Z</time>
      </trkpt>
      <trkpt lat="42.85365" lon="0.27094">
        <ele>1421.6</ele>
        <time>2022-02-09T07:46:40Z</time>
      </trkpt>
      <trkpt lat="42.85365" lon="0.27094">
        <ele>1421.6</ele>
        <time>2022-02-09T07:46:41Z</time>
      </trkpt>
      <trkpt lat="42.85366" lon="0.27093">
        <ele>1421.6</ele>
        <time>2022-02-09T07:46:42Z</time>
      </trkpt>
      <trkpt lat="42.85366" lon="0.27093">
        <ele>1422.3</ele>
        <time>2022-02-09T07:46:43Z</time>
      </trkpt>
      <trkpt lat="42.85367" lon="0.27092">
        <ele>1422.2</ele>
        <time>2022-02-09T07:46:44Z</time>
      </trkpt>
      <trkpt lat="42.85368" lon="0.27091">
        <ele>1422.2</ele>
        <time>2022-02-09T07:46:45Z</time>
      </trkpt>
      <trkpt lat="42.85369" lon="0.27091">
        <ele>1422.2</ele>
        <time>2022-02-09T07:46:46Z</time>
      </trkpt>
      <trkpt lat="42.85369" lon="0.2709">
        <ele>1422.2</ele>
        <time>2022-02-09T07:46:47Z</time>
      </trkpt>
      <trkpt lat="42.8537" lon="0.2709">
        <ele>1422.8</ele>
        <time>2022-02-09T07:46:48Z</time>
      </trkpt>
      <trkpt lat="42.8537" lon="0.27089">
        <ele>1422.8</ele>
        <time>2022-02-09T07:46:49Z</time>
      </trkpt>
      <trkpt lat="42.85371" lon="0.27088">
        <ele>1422.8</ele>
        <time>2022-02-09T07:46:50Z</time>
      </trkpt>
      <trkpt lat="42.85372" lon="0.27088">
        <ele>1422.7</ele>
        <time>2022-02-09T07:46:51Z</time>
      </trkpt>
      <trkpt lat="42.85373" lon="0.27087">
        <ele>1422.7</ele>
        <time>2022-02-09T07:46:52Z</time>
      </trkpt>
      <trkpt lat="42.85373" lon="0.27087">
        <ele>1423.4</ele>
        <time>2022-02-09T07:46:53Z</time>
      </trkpt>
      <trkpt lat="42.85374" lon="0.27086">
        <ele>1423.4</ele>
        <time>2022-02-09T07:46:54Z</time>
      </trkpt>
      <trkpt lat="42.85374" lon="0.27086">
        <ele>1423.4</ele>
        <time>2022-02-09T07:46:55Z</time>
      </trkpt>
      <trkpt lat="42.85375" lon="0.27085">
        <ele>1423.4</ele>
        <time>2022-02-09T07:46:56Z</time>
      </trkpt>
      <trkpt lat="42.85376" lon="0.27085">
        <ele>1423.4</ele>
        <time>2022-02-09T07:46:57Z</time>
      </trkpt>
      <trkpt lat="42.85376" lon="0.27084">
        <ele>1424</ele>
        <time>2022-02-09T07:46:58Z</time>
      </trkpt>
      <trkpt lat="42.85377" lon="0.27084">
        <ele>1423.9</ele>
        <time>2022-02-09T07:46:59Z</time>
      </trkpt>
      <trkpt lat="42.85378" lon="0.27083">
        <ele>1423.9</ele>
        <time>2022-02-09T07:47:00Z</time>
      </trkpt>
      <trkpt lat="42.85378" lon="0.27083">
        <ele>1423.9</ele>
        <time>2022-02-09T07:47:01Z</time>
      </trkpt>
      <trkpt lat="42.85379" lon="0.27082">
        <ele>1423.9</ele>
        <time>2022-02-09T07:47:02Z</time>
      </trkpt>
      <trkpt lat="42.85379" lon="0.27082">
        <ele>1424.6</ele>
        <time>2022-02-09T07:47:03Z</time>
      </trkpt>
      <trkpt lat="42.8538" lon="0.27081">
        <ele>1424.6</ele>
        <time>2022-02-09T07:47:04Z</time>
      </trkpt>
      <trkpt lat="42.85381" lon="0.2708">
        <ele>1424.6</ele>
        <time>2022-02-09T07:47:05Z</time>
      </trkpt>
      <trkpt lat="42.85381" lon="0.27079">
        <ele>1424.5</ele>
        <time>2022-02-09T07:47:06Z</time>
      </trkpt>
      <trkpt lat="42.85382" lon="0.27078">
        <ele>1424.5</ele>
        <time>2022-02-09T07:47:07Z</time>
      </trkpt>
      <trkpt lat="42.85382" lon="0.27077">
        <ele>1425.2</ele>
        <time>2022-02-09T07:47:08Z</time>
      </trkpt>
      <trkpt lat="42.85383" lon="0.27077">
        <ele>1425.2</ele>
        <time>2022-02-09T07:47:09Z</time>
      </trkpt>
      <trkpt lat="42.85383" lon="0.27076">
        <ele>1425.2</ele>
        <time>2022-02-09T07:47:10Z</time>
      </trkpt>
      <trkpt lat="42.85384" lon="0.27075">
        <ele>1425.2</ele>
        <time>2022-02-09T07:47:11Z</time>
      </trkpt>
      <trkpt lat="42.85384" lon="0.27074">
        <ele>1425.2</ele>
        <time>2022-02-09T07:47:12Z</time>
      </trkpt>
      <trkpt lat="42.85385" lon="0.27074">
        <ele>1425.2</ele>
        <time>2022-02-09T07:47:13Z</time>
      </trkpt>
      <trkpt lat="42.85385" lon="0.27073">
        <ele>1425.9</ele>
        <time>2022-02-09T07:47:14Z</time>
      </trkpt>
      <trkpt lat="42.85386" lon="0.27072">
        <ele>1425.9</ele>
        <time>2022-02-09T07:47:15Z</time>
      </trkpt>
      <trkpt lat="42.85386" lon="0.27071">
        <ele>1425.9</ele>
        <time>2022-02-09T07:47:16Z</time>
      </trkpt>
      <trkpt lat="42.85387" lon="0.2707">
        <ele>1425.9</ele>
        <time>2022-02-09T07:47:17Z</time>
      </trkpt>
      <trkpt lat="42.85387" lon="0.2707">
        <ele>1425.9</ele>
        <time>2022-02-09T07:47:18Z</time>
      </trkpt>
      <trkpt lat="42.85388" lon="0.27069">
        <ele>1425.9</ele>
        <time>2022-02-09T07:47:19Z</time>
      </trkpt>
      <trkpt lat="42.85388" lon="0.27068">
        <ele>1426.7</ele>
        <time>2022-02-09T07:47:20Z</time>
      </trkpt>
      <trkpt lat="42.85389" lon="0.27067">
        <ele>1426.7</ele>
        <time>2022-02-09T07:47:21Z</time>
      </trkpt>
      <trkpt lat="42.8539" lon="0.27067">
        <ele>1426.6</ele>
        <time>2022-02-09T07:47:22Z</time>
      </trkpt>
      <trkpt lat="42.8539" lon="0.27066">
        <ele>1426.6</ele>
        <time>2022-02-09T07:47:23Z</time>
      </trkpt>
      <trkpt lat="42.85391" lon="0.27065">
        <ele>1426.6</ele>
        <time>2022-02-09T07:47:24Z</time>
      </trkpt>
      <trkpt lat="42.85391" lon="0.27065">
        <ele>1426.6</ele>
        <time>2022-02-09T07:47:25Z</time>
      </trkpt>
      <trkpt lat="42.85392" lon="0.27064">
        <ele>1427.4</ele>
        <time>2022-02-09T07:47:26Z</time>
      </trkpt>
      <trkpt lat="42.85393" lon="0.27063">
        <ele>1427.4</ele>
        <time>2022-02-09T07:47:27Z</time>
      </trkpt>
      <trkpt lat="42.85393" lon="0.27062">
        <ele>1427.4</ele>
        <time>2022-02-09T07:47:28Z</time>
      </trkpt>
      <trkpt lat="42.85394" lon="0.27062">
        <ele>1427.4</ele>
        <time>2022-02-09T07:47:29Z</time>
      </trkpt>
      <trkpt lat="42.85395" lon="0.27061">
        <ele>1427.4</ele>
        <time>2022-02-09T07:47:30Z</time>
      </trkpt>
      <trkpt lat="42.85395" lon="0.27061">
        <ele>1428.2</ele>
        <time>2022-02-09T07:47:31Z</time>
      </trkpt>
      <trkpt lat="42.85396" lon="0.2706">
        <ele>1428.2</ele>
        <time>2022-02-09T07:47:32Z</time>
      </trkpt>
      <trkpt lat="42.85397" lon="0.2706">
        <ele>1428.2</ele>
        <time>2022-02-09T07:47:33Z</time>
      </trkpt>
      <trkpt lat="42.85397" lon="0.27059">
        <ele>1428.2</ele>
        <time>2022-02-09T07:47:34Z</time>
      </trkpt>
      <trkpt lat="42.85398" lon="0.27058">
        <ele>1428.9</ele>
        <time>2022-02-09T07:47:35Z</time>
      </trkpt>
      <trkpt lat="42.85399" lon="0.27058">
        <ele>1428.9</ele>
        <time>2022-02-09T07:47:36Z</time>
      </trkpt>
      <trkpt lat="42.854" lon="0.27057">
        <ele>1428.9</ele>
        <time>2022-02-09T07:47:37Z</time>
      </trkpt>
      <trkpt lat="42.854" lon="0.27057">
        <ele>1428.9</ele>
        <time>2022-02-09T07:47:38Z</time>
      </trkpt>
      <trkpt lat="42.85401" lon="0.27056">
        <ele>1428.9</ele>
        <time>2022-02-09T07:47:39Z</time>
      </trkpt>
      <trkpt lat="42.85402" lon="0.27056">
        <ele>1429.6</ele>
        <time>2022-02-09T07:47:40Z</time>
      </trkpt>
      <trkpt lat="42.85402" lon="0.27055">
        <ele>1429.6</ele>
        <time>2022-02-09T07:47:41Z</time>
      </trkpt>
      <trkpt lat="42.85403" lon="0.27055">
        <ele>1429.6</ele>
        <time>2022-02-09T07:47:42Z</time>
      </trkpt>
      <trkpt lat="42.85404" lon="0.27054">
        <ele>1429.6</ele>
        <time>2022-02-09T07:47:43Z</time>
      </trkpt>
      <trkpt lat="42.85404" lon="0.27054">
        <ele>1430.2</ele>
        <time>2022-02-09T07:47:44Z</time>
      </trkpt>
      <trkpt lat="42.85405" lon="0.27053">
        <ele>1430.2</ele>
        <time>2022-02-09T07:47:45Z</time>
      </trkpt>
      <trkpt lat="42.85406" lon="0.27053">
        <ele>1430.2</ele>
        <time>2022-02-09T07:47:46Z</time>
      </trkpt>
      <trkpt lat="42.85406" lon="0.27052">
        <ele>1430.2</ele>
        <time>2022-02-09T07:47:47Z</time>
      </trkpt>
      <trkpt lat="42.85407" lon="0.27051">
        <ele>1430.2</ele>
        <time>2022-02-09T07:47:48Z</time>
      </trkpt>
      <trkpt lat="42.85407" lon="0.27051">
        <ele>1430.9</ele>
        <time>2022-02-09T07:47:49Z</time>
      </trkpt>
      <trkpt lat="42.85408" lon="0.2705">
        <ele>1430.9</ele>
        <time>2022-02-09T07:47:50Z</time>
      </trkpt>
      <trkpt lat="42.85408" lon="0.27049">
        <ele>1430.8</ele>
        <time>2022-02-09T07:47:51Z</time>
      </trkpt>
      <trkpt lat="42.85409" lon="0.27049">
        <ele>1430.8</ele>
        <time>2022-02-09T07:47:52Z</time>
      </trkpt>
      <trkpt lat="42.8541" lon="0.27048">
        <ele>1430.8</ele>
        <time>2022-02-09T07:47:53Z</time>
      </trkpt>
      <trkpt lat="42.8541" lon="0.27047">
        <ele>1430.8</ele>
        <time>2022-02-09T07:47:54Z</time>
      </trkpt>
      <trkpt lat="42.85411" lon="0.27046">
        <ele>1431.6</ele>
        <time>2022-02-09T07:47:55Z</time>
      </trkpt>
      <trkpt lat="42.85411" lon="0.27045">
        <ele>1431.5</ele>
        <time>2022-02-09T07:47:56Z</time>
      </trkpt>
      <trkpt lat="42.85412" lon="0.27044">
        <ele>1431.5</ele>
        <time>2022-02-09T07:47:57Z</time>
      </trkpt>
      <trkpt lat="42.85413" lon="0.27044">
        <ele>1431.5</ele>
        <time>2022-02-09T07:47:58Z</time>
      </trkpt>
      <trkpt lat="42.85413" lon="0.27043">
        <ele>1431.5</ele>
        <time>2022-02-09T07:47:59Z</time>
      </trkpt>
      <trkpt lat="42.85413" lon="0.27042">
        <ele>1431.5</ele>
        <time>2022-02-09T07:48:00Z</time>
      </trkpt>
      <trkpt lat="42.85414" lon="0.27041">
        <ele>1432.4</ele>
        <time>2022-02-09T07:48:01Z</time>
      </trkpt>
      <trkpt lat="42.85415" lon="0.2704">
        <ele>1432.3</ele>
        <time>2022-02-09T07:48:02Z</time>
      </trkpt>
      <trkpt lat="42.85415" lon="0.2704">
        <ele>1432.3</ele>
        <time>2022-02-09T07:48:03Z</time>
      </trkpt>
      <trkpt lat="42.85416" lon="0.27039">
        <ele>1432.3</ele>
        <time>2022-02-09T07:48:04Z</time>
      </trkpt>
      <trkpt lat="42.85416" lon="0.27038">
        <ele>1432.3</ele>
        <time>2022-02-09T07:48:05Z</time>
      </trkpt>
      <trkpt lat="42.85417" lon="0.27037">
        <ele>1433.3</ele>
        <time>2022-02-09T07:48:06Z</time>
      </trkpt>
      <trkpt lat="42.85418" lon="0.27037">
        <ele>1433.3</ele>
        <time>2022-02-09T07:48:07Z</time>
      </trkpt>
      <trkpt lat="42.85419" lon="0.27036">
        <ele>1433.3</ele>
        <time>2022-02-09T07:48:08Z</time>
      </trkpt>
      <trkpt lat="42.85419" lon="0.27035">
        <ele>1433.3</ele>
        <time>2022-02-09T07:48:09Z</time>
      </trkpt>
      <trkpt lat="42.8542" lon="0.27034">
        <ele>1434.2</ele>
        <time>2022-02-09T07:48:10Z</time>
      </trkpt>
      <trkpt lat="42.85421" lon="0.27033">
        <ele>1434.2</ele>
        <time>2022-02-09T07:48:11Z</time>
      </trkpt>
      <trkpt lat="42.85421" lon="0.27032">
        <ele>1434.3</ele>
        <time>2022-02-09T07:48:12Z</time>
      </trkpt>
      <trkpt lat="42.85422" lon="0.27031">
        <ele>1434.3</ele>
        <time>2022-02-09T07:48:13Z</time>
      </trkpt>
      <trkpt lat="42.85422" lon="0.2703">
        <ele>1434.3</ele>
        <time>2022-02-09T07:48:14Z</time>
      </trkpt>
      <trkpt lat="42.85423" lon="0.2703">
        <ele>1434.3</ele>
        <time>2022-02-09T07:48:15Z</time>
      </trkpt>
      <trkpt lat="42.85423" lon="0.27029">
        <ele>1435.2</ele>
        <time>2022-02-09T07:48:16Z</time>
      </trkpt>
      <trkpt lat="42.85424" lon="0.27028">
        <ele>1435.2</ele>
        <time>2022-02-09T07:48:17Z</time>
      </trkpt>
      <trkpt lat="42.85424" lon="0.27028">
        <ele>1435.3</ele>
        <time>2022-02-09T07:48:18Z</time>
      </trkpt>
      <trkpt lat="42.85425" lon="0.27027">
        <ele>1435.3</ele>
        <time>2022-02-09T07:48:19Z</time>
      </trkpt>
      <trkpt lat="42.85426" lon="0.27027">
        <ele>1435.3</ele>
        <time>2022-02-09T07:48:20Z</time>
      </trkpt>
      <trkpt lat="42.85426" lon="0.27026">
        <ele>1436.2</ele>
        <time>2022-02-09T07:48:21Z</time>
      </trkpt>
      <trkpt lat="42.85427" lon="0.27025">
        <ele>1436.2</ele>
        <time>2022-02-09T07:48:22Z</time>
      </trkpt>
      <trkpt lat="42.85427" lon="0.27025">
        <ele>1436.2</ele>
        <time>2022-02-09T07:48:23Z</time>
      </trkpt>
      <trkpt lat="42.85428" lon="0.27024">
        <ele>1436.2</ele>
        <time>2022-02-09T07:48:24Z</time>
      </trkpt>
      <trkpt lat="42.85428" lon="0.27023">
        <ele>1436.3</ele>
        <time>2022-02-09T07:48:25Z</time>
      </trkpt>
      <trkpt lat="42.85429" lon="0.27023">
        <ele>1436.3</ele>
        <time>2022-02-09T07:48:26Z</time>
      </trkpt>
      <trkpt lat="42.85429" lon="0.27022">
        <ele>1437.1</ele>
        <time>2022-02-09T07:48:27Z</time>
      </trkpt>
      <trkpt lat="42.8543" lon="0.27021">
        <ele>1437.1</ele>
        <time>2022-02-09T07:48:28Z</time>
      </trkpt>
      <trkpt lat="42.8543" lon="0.2702">
        <ele>1437.1</ele>
        <time>2022-02-09T07:48:29Z</time>
      </trkpt>
      <trkpt lat="42.85431" lon="0.2702">
        <ele>1437.1</ele>
        <time>2022-02-09T07:48:30Z</time>
      </trkpt>
      <trkpt lat="42.85431" lon="0.27019">
        <ele>1437.2</ele>
        <time>2022-02-09T07:48:31Z</time>
      </trkpt>
      <trkpt lat="42.85432" lon="0.27018">
        <ele>1437.2</ele>
        <time>2022-02-09T07:48:32Z</time>
      </trkpt>
      <trkpt lat="42.85432" lon="0.27017">
        <ele>1437.2</ele>
        <time>2022-02-09T07:48:33Z</time>
      </trkpt>
      <trkpt lat="42.85432" lon="0.27016">
        <ele>1437.2</ele>
        <time>2022-02-09T07:48:34Z</time>
      </trkpt>
      <trkpt lat="42.85433" lon="0.27016">
        <ele>1438.1</ele>
        <time>2022-02-09T07:48:35Z</time>
      </trkpt>
      <trkpt lat="42.85433" lon="0.27015">
        <ele>1438.2</ele>
        <time>2022-02-09T07:48:36Z</time>
      </trkpt>
      <trkpt lat="42.85433" lon="0.27014">
        <ele>1438.2</ele>
        <time>2022-02-09T07:48:37Z</time>
      </trkpt>
      <trkpt lat="42.85434" lon="0.27013">
        <ele>1438.2</ele>
        <time>2022-02-09T07:48:38Z</time>
      </trkpt>
      <trkpt lat="42.85434" lon="0.27012">
        <ele>1438.2</ele>
        <time>2022-02-09T07:48:39Z</time>
      </trkpt>
      <trkpt lat="42.85434" lon="0.27011">
        <ele>1438.4</ele>
        <time>2022-02-09T07:48:40Z</time>
      </trkpt>
      <trkpt lat="42.85435" lon="0.2701">
        <ele>1438.4</ele>
        <time>2022-02-09T07:48:41Z</time>
      </trkpt>
      <trkpt lat="42.85435" lon="0.27009">
        <ele>1438.4</ele>
        <time>2022-02-09T07:48:42Z</time>
      </trkpt>
      <trkpt lat="42.85436" lon="0.27008">
        <ele>1439.3</ele>
        <time>2022-02-09T07:48:43Z</time>
      </trkpt>
      <trkpt lat="42.85436" lon="0.27007">
        <ele>1439.3</ele>
        <time>2022-02-09T07:48:44Z</time>
      </trkpt>
      <trkpt lat="42.85437" lon="0.27006">
        <ele>1439.5</ele>
        <time>2022-02-09T07:48:45Z</time>
      </trkpt>
      <trkpt lat="42.85437" lon="0.27005">
        <ele>1439.5</ele>
        <time>2022-02-09T07:48:46Z</time>
      </trkpt>
      <trkpt lat="42.85438" lon="0.27004">
        <ele>1439.5</ele>
        <time>2022-02-09T07:48:47Z</time>
      </trkpt>
      <trkpt lat="42.85438" lon="0.27004">
        <ele>1439.5</ele>
        <time>2022-02-09T07:48:48Z</time>
      </trkpt>
      <trkpt lat="42.85438" lon="0.27003">
        <ele>1439.5</ele>
        <time>2022-02-09T07:48:49Z</time>
      </trkpt>
      <trkpt lat="42.85439" lon="0.27002">
        <ele>1440.7</ele>
        <time>2022-02-09T07:48:50Z</time>
      </trkpt>
      <trkpt lat="42.85439" lon="0.27001">
        <ele>1440.7</ele>
        <time>2022-02-09T07:48:51Z</time>
      </trkpt>
      <trkpt lat="42.8544" lon="0.27">
        <ele>1440.7</ele>
        <time>2022-02-09T07:48:52Z</time>
      </trkpt>
      <trkpt lat="42.8544" lon="0.26999">
        <ele>1440.7</ele>
        <time>2022-02-09T07:48:53Z</time>
      </trkpt>
      <trkpt lat="42.85441" lon="0.26999">
        <ele>1440.7</ele>
        <time>2022-02-09T07:48:54Z</time>
      </trkpt>
      <trkpt lat="42.85441" lon="0.26998">
        <ele>1440.8</ele>
        <time>2022-02-09T07:48:55Z</time>
      </trkpt>
      <trkpt lat="42.85442" lon="0.26997">
        <ele>1441.9</ele>
        <time>2022-02-09T07:48:56Z</time>
      </trkpt>
      <trkpt lat="42.85443" lon="0.26996">
        <ele>1441.9</ele>
        <time>2022-02-09T07:48:57Z</time>
      </trkpt>
      <trkpt lat="42.85443" lon="0.26996">
        <ele>1441.9</ele>
        <time>2022-02-09T07:48:58Z</time>
      </trkpt>
      <trkpt lat="42.85444" lon="0.26995">
        <ele>1441.9</ele>
        <time>2022-02-09T07:48:59Z</time>
      </trkpt>
      <trkpt lat="42.85444" lon="0.26994">
        <ele>1441.9</ele>
        <time>2022-02-09T07:49:00Z</time>
      </trkpt>
      <trkpt lat="42.85445" lon="0.26994">
        <ele>1442</ele>
        <time>2022-02-09T07:49:01Z</time>
      </trkpt>
      <trkpt lat="42.85445" lon="0.26993">
        <ele>1443.1</ele>
        <time>2022-02-09T07:49:02Z</time>
      </trkpt>
      <trkpt lat="42.85446" lon="0.26992">
        <ele>1443.1</ele>
        <time>2022-02-09T07:49:03Z</time>
      </trkpt>
      <trkpt lat="42.85447" lon="0.26992">
        <ele>1443.1</ele>
        <time>2022-02-09T07:49:04Z</time>
      </trkpt>
      <trkpt lat="42.85447" lon="0.26991">
        <ele>1443.1</ele>
        <time>2022-02-09T07:49:05Z</time>
      </trkpt>
      <trkpt lat="42.85448" lon="0.26991">
        <ele>1443.1</ele>
        <time>2022-02-09T07:49:06Z</time>
      </trkpt>
      <trkpt lat="42.85449" lon="0.26991">
        <ele>1444.2</ele>
        <time>2022-02-09T07:49:07Z</time>
      </trkpt>
      <trkpt lat="42.8545" lon="0.26991">
        <ele>1444.2</ele>
        <time>2022-02-09T07:49:08Z</time>
      </trkpt>
      <trkpt lat="42.8545" lon="0.26991">
        <ele>1444.2</ele>
        <time>2022-02-09T07:49:09Z</time>
      </trkpt>
      <trkpt lat="42.85451" lon="0.26991">
        <ele>1444.2</ele>
        <time>2022-02-09T07:49:10Z</time>
      </trkpt>
      <trkpt lat="42.85452" lon="0.26991">
        <ele>1445.3</ele>
        <time>2022-02-09T07:49:11Z</time>
      </trkpt>
      <trkpt lat="42.85452" lon="0.26991">
        <ele>1445.3</ele>
        <time>2022-02-09T07:49:12Z</time>
      </trkpt>
      <trkpt lat="42.85453" lon="0.26992">
        <ele>1445.3</ele>
        <time>2022-02-09T07:49:13Z</time>
      </trkpt>
      <trkpt lat="42.85454" lon="0.26992">
        <ele>1445.3</ele>
        <time>2022-02-09T07:49:14Z</time>
      </trkpt>
      <trkpt lat="42.85455" lon="0.26992">
        <ele>1446.3</ele>
        <time>2022-02-09T07:49:15Z</time>
      </trkpt>
      <trkpt lat="42.85455" lon="0.26993">
        <ele>1446.3</ele>
        <time>2022-02-09T07:49:16Z</time>
      </trkpt>
      <trkpt lat="42.85456" lon="0.26993">
        <ele>1446.3</ele>
        <time>2022-02-09T07:49:17Z</time>
      </trkpt>
      <trkpt lat="42.85456" lon="0.26993">
        <ele>1446.3</ele>
        <time>2022-02-09T07:49:18Z</time>
      </trkpt>
      <trkpt lat="42.85457" lon="0.26994">
        <ele>1446.3</ele>
        <time>2022-02-09T07:49:19Z</time>
      </trkpt>
      <trkpt lat="42.85458" lon="0.26994">
        <ele>1447.3</ele>
        <time>2022-02-09T07:49:20Z</time>
      </trkpt>
      <trkpt lat="42.85458" lon="0.26994">
        <ele>1447.3</ele>
        <time>2022-02-09T07:49:21Z</time>
      </trkpt>
      <trkpt lat="42.85459" lon="0.26993">
        <ele>1447.3</ele>
        <time>2022-02-09T07:49:22Z</time>
      </trkpt>
      <trkpt lat="42.85459" lon="0.26992">
        <ele>1447.3</ele>
        <time>2022-02-09T07:49:23Z</time>
      </trkpt>
      <trkpt lat="42.8546" lon="0.26992">
        <ele>1447.3</ele>
        <time>2022-02-09T07:49:24Z</time>
      </trkpt>
      <trkpt lat="42.8546" lon="0.26991">
        <ele>1447.3</ele>
        <time>2022-02-09T07:49:25Z</time>
      </trkpt>
      <trkpt lat="42.8546" lon="0.2699">
        <ele>1447.3</ele>
        <time>2022-02-09T07:49:26Z</time>
      </trkpt>
      <trkpt lat="42.85461" lon="0.26989">
        <ele>1448.4</ele>
        <time>2022-02-09T07:49:27Z</time>
      </trkpt>
      <trkpt lat="42.85461" lon="0.26988">
        <ele>1448.4</ele>
        <time>2022-02-09T07:49:28Z</time>
      </trkpt>
      <trkpt lat="42.85462" lon="0.26987">
        <ele>1448.4</ele>
        <time>2022-02-09T07:49:29Z</time>
      </trkpt>
      <trkpt lat="42.85462" lon="0.26986">
        <ele>1448.4</ele>
        <time>2022-02-09T07:49:30Z</time>
      </trkpt>
      <trkpt lat="42.85462" lon="0.26986">
        <ele>1448.4</ele>
        <time>2022-02-09T07:49:31Z</time>
      </trkpt>
      <trkpt lat="42.85462" lon="0.26985">
        <ele>1448.5</ele>
        <time>2022-02-09T07:49:32Z</time>
      </trkpt>
      <trkpt lat="42.85462" lon="0.26984">
        <ele>1448.5</ele>
        <time>2022-02-09T07:49:33Z</time>
      </trkpt>
      <trkpt lat="42.85462" lon="0.26983">
        <ele>1448.5</ele>
        <time>2022-02-09T07:49:34Z</time>
      </trkpt>
      <trkpt lat="42.85462" lon="0.26982">
        <ele>1448.5</ele>
        <time>2022-02-09T07:49:35Z</time>
      </trkpt>
      <trkpt lat="42.85463" lon="0.26981">
        <ele>1448.5</ele>
        <time>2022-02-09T07:49:36Z</time>
      </trkpt>
      <trkpt lat="42.85463" lon="0.26981">
        <ele>1448.6</ele>
        <time>2022-02-09T07:49:37Z</time>
      </trkpt>
      <trkpt lat="42.85463" lon="0.2698">
        <ele>1448.6</ele>
        <time>2022-02-09T07:49:38Z</time>
      </trkpt>
      <trkpt lat="42.85464" lon="0.26979">
        <ele>1448.6</ele>
        <time>2022-02-09T07:49:39Z</time>
      </trkpt>
      <trkpt lat="42.85464" lon="0.26978">
        <ele>1449.8</ele>
        <time>2022-02-09T07:49:40Z</time>
      </trkpt>
      <trkpt lat="42.85464" lon="0.26977">
        <ele>1449.8</ele>
        <time>2022-02-09T07:49:41Z</time>
      </trkpt>
      <trkpt lat="42.85465" lon="0.26977">
        <ele>1449.9</ele>
        <time>2022-02-09T07:49:42Z</time>
      </trkpt>
      <trkpt lat="42.85465" lon="0.26976">
        <ele>1449.9</ele>
        <time>2022-02-09T07:49:43Z</time>
      </trkpt>
      <trkpt lat="42.85466" lon="0.26975">
        <ele>1449.9</ele>
        <time>2022-02-09T07:49:44Z</time>
      </trkpt>
      <trkpt lat="42.85466" lon="0.26974">
        <ele>1449.9</ele>
        <time>2022-02-09T07:49:45Z</time>
      </trkpt>
      <trkpt lat="42.85466" lon="0.26973">
        <ele>1449.9</ele>
        <time>2022-02-09T07:49:46Z</time>
      </trkpt>
      <trkpt lat="42.85467" lon="0.26972">
        <ele>1450</ele>
        <time>2022-02-09T07:49:47Z</time>
      </trkpt>
      <trkpt lat="42.85467" lon="0.26971">
        <ele>1450</ele>
        <time>2022-02-09T07:49:48Z</time>
      </trkpt>
      <trkpt lat="42.85467" lon="0.2697">
        <ele>1451.4</ele>
        <time>2022-02-09T07:49:49Z</time>
      </trkpt>
      <trkpt lat="42.85468" lon="0.26969">
        <ele>1451.4</ele>
        <time>2022-02-09T07:49:50Z</time>
      </trkpt>
      <trkpt lat="42.85468" lon="0.26968">
        <ele>1451.5</ele>
        <time>2022-02-09T07:49:51Z</time>
      </trkpt>
      <trkpt lat="42.85468" lon="0.26967">
        <ele>1451.5</ele>
        <time>2022-02-09T07:49:52Z</time>
      </trkpt>
      <trkpt lat="42.85469" lon="0.26966">
        <ele>1451.5</ele>
        <time>2022-02-09T07:49:53Z</time>
      </trkpt>
      <trkpt lat="42.85469" lon="0.26965">
        <ele>1451.5</ele>
        <time>2022-02-09T07:49:54Z</time>
      </trkpt>
      <trkpt lat="42.85469" lon="0.26964">
        <ele>1451.5</ele>
        <time>2022-02-09T07:49:55Z</time>
      </trkpt>
      <trkpt lat="42.8547" lon="0.26963">
        <ele>1451.6</ele>
        <time>2022-02-09T07:49:56Z</time>
      </trkpt>
      <trkpt lat="42.8547" lon="0.26962">
        <ele>1451.6</ele>
        <time>2022-02-09T07:49:57Z</time>
      </trkpt>
      <trkpt lat="42.8547" lon="0.26962">
        <ele>1453</ele>
        <time>2022-02-09T07:49:58Z</time>
      </trkpt>
      <trkpt lat="42.85471" lon="0.26961">
        <ele>1453</ele>
        <time>2022-02-09T07:49:59Z</time>
      </trkpt>
      <trkpt lat="42.85471" lon="0.2696">
        <ele>1453</ele>
        <time>2022-02-09T07:50:00Z</time>
      </trkpt>
      <trkpt lat="42.85471" lon="0.26959">
        <ele>1453.1</ele>
        <time>2022-02-09T07:50:01Z</time>
      </trkpt>
      <trkpt lat="42.85472" lon="0.26958">
        <ele>1453.1</ele>
        <time>2022-02-09T07:50:02Z</time>
      </trkpt>
      <trkpt lat="42.85472" lon="0.26957">
        <ele>1453.1</ele>
        <time>2022-02-09T07:50:03Z</time>
      </trkpt>
      <trkpt lat="42.85472" lon="0.26956">
        <ele>1453.1</ele>
        <time>2022-02-09T07:50:04Z</time>
      </trkpt>
      <trkpt lat="42.85473" lon="0.26955">
        <ele>1453.1</ele>
        <time>2022-02-09T07:50:05Z</time>
      </trkpt>
      <trkpt lat="42.85473" lon="0.26954">
        <ele>1453.3</ele>
        <time>2022-02-09T07:50:06Z</time>
      </trkpt>
      <trkpt lat="42.85473" lon="0.26954">
        <ele>1454.6</ele>
        <time>2022-02-09T07:50:07Z</time>
      </trkpt>
      <trkpt lat="42.85474" lon="0.26953">
        <ele>1454.6</ele>
        <time>2022-02-09T07:50:08Z</time>
      </trkpt>
      <trkpt lat="42.85474" lon="0.26952">
        <ele>1454.6</ele>
        <time>2022-02-09T07:50:09Z</time>
      </trkpt>
      <trkpt lat="42.85474" lon="0.26951">
        <ele>1454.7</ele>
        <time>2022-02-09T07:50:10Z</time>
      </trkpt>
      <trkpt lat="42.85474" lon="0.2695">
        <ele>1454.7</ele>
        <time>2022-02-09T07:50:11Z</time>
      </trkpt>
      <trkpt lat="42.85474" lon="0.26949">
        <ele>1454.7</ele>
        <time>2022-02-09T07:50:12Z</time>
      </trkpt>
      <trkpt lat="42.85475" lon="0.26948">
        <ele>1454.7</ele>
        <time>2022-02-09T07:50:13Z</time>
      </trkpt>
      <trkpt lat="42.85475" lon="0.26947">
        <ele>1454.7</ele>
        <time>2022-02-09T07:50:14Z</time>
      </trkpt>
      <trkpt lat="42.85475" lon="0.26946">
        <ele>1454.8</ele>
        <time>2022-02-09T07:50:15Z</time>
      </trkpt>
      <trkpt lat="42.85475" lon="0.26944">
        <ele>1454.8</ele>
        <time>2022-02-09T07:50:16Z</time>
      </trkpt>
      <trkpt lat="42.85475" lon="0.26943">
        <ele>1454.8</ele>
        <time>2022-02-09T07:50:17Z</time>
      </trkpt>
      <trkpt lat="42.85476" lon="0.26942">
        <ele>1454.9</ele>
        <time>2022-02-09T07:50:18Z</time>
      </trkpt>
      <trkpt lat="42.85476" lon="0.26941">
        <ele>1454.9</ele>
        <time>2022-02-09T07:50:19Z</time>
      </trkpt>
      <trkpt lat="42.85476" lon="0.26939">
        <ele>1454.9</ele>
        <time>2022-02-09T07:50:20Z</time>
      </trkpt>
      <trkpt lat="42.85476" lon="0.26938">
        <ele>1454.9</ele>
        <time>2022-02-09T07:50:21Z</time>
      </trkpt>
      <trkpt lat="42.85476" lon="0.26937">
        <ele>1455.1</ele>
        <time>2022-02-09T07:50:22Z</time>
      </trkpt>
      <trkpt lat="42.85476" lon="0.26936">
        <ele>1455.1</ele>
        <time>2022-02-09T07:50:23Z</time>
      </trkpt>
      <trkpt lat="42.85477" lon="0.26934">
        <ele>1456.1</ele>
        <time>2022-02-09T07:50:24Z</time>
      </trkpt>
      <trkpt lat="42.85477" lon="0.26933">
        <ele>1456.3</ele>
        <time>2022-02-09T07:50:25Z</time>
      </trkpt>
      <trkpt lat="42.85477" lon="0.26932">
        <ele>1456.3</ele>
        <time>2022-02-09T07:50:26Z</time>
      </trkpt>
      <trkpt lat="42.85477" lon="0.26931">
        <ele>1456.3</ele>
        <time>2022-02-09T07:50:27Z</time>
      </trkpt>
      <trkpt lat="42.85478" lon="0.2693">
        <ele>1456.3</ele>
        <time>2022-02-09T07:50:28Z</time>
      </trkpt>
      <trkpt lat="42.85478" lon="0.26929">
        <ele>1456.4</ele>
        <time>2022-02-09T07:50:29Z</time>
      </trkpt>
      <trkpt lat="42.85478" lon="0.26928">
        <ele>1456.4</ele>
        <time>2022-02-09T07:50:30Z</time>
      </trkpt>
      <trkpt lat="42.85478" lon="0.26926">
        <ele>1456.4</ele>
        <time>2022-02-09T07:50:31Z</time>
      </trkpt>
      <trkpt lat="42.85478" lon="0.26925">
        <ele>1456.4</ele>
        <time>2022-02-09T07:50:32Z</time>
      </trkpt>
      <trkpt lat="42.85479" lon="0.26924">
        <ele>1456.7</ele>
        <time>2022-02-09T07:50:33Z</time>
      </trkpt>
      <trkpt lat="42.85479" lon="0.26923">
        <ele>1456.7</ele>
        <time>2022-02-09T07:50:34Z</time>
      </trkpt>
      <trkpt lat="42.85479" lon="0.26923">
        <ele>1456.7</ele>
        <time>2022-02-09T07:50:35Z</time>
      </trkpt>
      <trkpt lat="42.85479" lon="0.26922">
        <ele>1456.7</ele>
        <time>2022-02-09T07:50:36Z</time>
      </trkpt>
      <trkpt lat="42.8548" lon="0.26921">
        <ele>1457.6</ele>
        <time>2022-02-09T07:50:37Z</time>
      </trkpt>
      <trkpt lat="42.8548" lon="0.26921">
        <ele>1457.8</ele>
        <time>2022-02-09T07:50:38Z</time>
      </trkpt>
      <trkpt lat="42.8548" lon="0.2692">
        <ele>1457.8</ele>
        <time>2022-02-09T07:50:39Z</time>
      </trkpt>
      <trkpt lat="42.8548" lon="0.2692">
        <ele>1457.8</ele>
        <time>2022-02-09T07:50:40Z</time>
      </trkpt>
      <trkpt lat="42.8548" lon="0.2692">
        <ele>1457.8</ele>
        <time>2022-02-09T07:50:41Z</time>
      </trkpt>
      <trkpt lat="42.8548" lon="0.2692">
        <ele>1457.8</ele>
        <time>2022-02-09T07:50:42Z</time>
      </trkpt>
      <trkpt lat="42.8548" lon="0.2692">
        <ele>1457.8</ele>
        <time>2022-02-09T07:50:43Z</time>
      </trkpt>
      <trkpt lat="42.8548" lon="0.2692">
        <ele>1457.8</ele>
        <time>2022-02-09T07:50:44Z</time>
      </trkpt>
      <trkpt lat="42.8548" lon="0.2692">
        <ele>1457.8</ele>
        <time>2022-02-09T07:50:45Z</time>
      </trkpt>
      <trkpt lat="42.8548" lon="0.2692">
        <ele>1457.8</ele>
        <time>2022-02-09T07:50:46Z</time>
      </trkpt>
      <trkpt lat="42.8548" lon="0.2692">
        <ele>1457.8</ele>
        <time>2022-02-09T07:50:47Z</time>
      </trkpt>
      <trkpt lat="42.8548" lon="0.2692">
        <ele>1457.8</ele>
        <time>2022-02-09T07:50:48Z</time>
      </trkpt>
      <trkpt lat="42.85481" lon="0.26919">
        <ele>1457.8</ele>
        <time>2022-02-09T07:50:49Z</time>
      </trkpt>
      <trkpt lat="42.85482" lon="0.26919">
        <ele>1457.8</ele>
        <time>2022-02-09T07:50:50Z</time>
      </trkpt>
      <trkpt lat="42.85483" lon="0.26919">
        <ele>1458.8</ele>
        <time>2022-02-09T07:50:51Z</time>
      </trkpt>
      <trkpt lat="42.85484" lon="0.26918">
        <ele>1458.8</ele>
        <time>2022-02-09T07:50:52Z</time>
      </trkpt>
      <trkpt lat="42.85484" lon="0.26917">
        <ele>1458.8</ele>
        <time>2022-02-09T07:50:53Z</time>
      </trkpt>
      <trkpt lat="42.85485" lon="0.26917">
        <ele>1458.8</ele>
        <time>2022-02-09T07:50:54Z</time>
      </trkpt>
      <trkpt lat="42.85485" lon="0.26917">
        <ele>1459</ele>
        <time>2022-02-09T07:50:55Z</time>
      </trkpt>
      <trkpt lat="42.85485" lon="0.26916">
        <ele>1459</ele>
        <time>2022-02-09T07:50:56Z</time>
      </trkpt>
      <trkpt lat="42.85486" lon="0.26916">
        <ele>1459</ele>
        <time>2022-02-09T07:50:57Z</time>
      </trkpt>
      <trkpt lat="42.85486" lon="0.26916">
        <ele>1459</ele>
        <time>2022-02-09T07:50:58Z</time>
      </trkpt>
      <trkpt lat="42.85486" lon="0.26916">
        <ele>1460</ele>
        <time>2022-02-09T07:50:59Z</time>
      </trkpt>
      <trkpt lat="42.85486" lon="0.26916">
        <ele>1460</ele>
        <time>2022-02-09T07:51:00Z</time>
      </trkpt>
      <trkpt lat="42.85486" lon="0.26915">
        <ele>1460</ele>
        <time>2022-02-09T07:51:01Z</time>
      </trkpt>
      <trkpt lat="42.85487" lon="0.26915">
        <ele>1460</ele>
        <time>2022-02-09T07:51:02Z</time>
      </trkpt>
      <trkpt lat="42.85487" lon="0.26914">
        <ele>1460</ele>
        <time>2022-02-09T07:51:03Z</time>
      </trkpt>
      <trkpt lat="42.85487" lon="0.26914">
        <ele>1460</ele>
        <time>2022-02-09T07:51:04Z</time>
      </trkpt>
      <trkpt lat="42.85487" lon="0.26914">
        <ele>1460</ele>
        <time>2022-02-09T07:51:05Z</time>
      </trkpt>
      <trkpt lat="42.85487" lon="0.26913">
        <ele>1460</ele>
        <time>2022-02-09T07:51:06Z</time>
      </trkpt>
      <trkpt lat="42.85488" lon="0.26912">
        <ele>1460.2</ele>
        <time>2022-02-09T07:51:07Z</time>
      </trkpt>
      <trkpt lat="42.85488" lon="0.26911">
        <ele>1460.2</ele>
        <time>2022-02-09T07:51:08Z</time>
      </trkpt>
      <trkpt lat="42.85488" lon="0.26911">
        <ele>1460.2</ele>
        <time>2022-02-09T07:51:09Z</time>
      </trkpt>
      <trkpt lat="42.85488" lon="0.2691">
        <ele>1460.2</ele>
        <time>2022-02-09T07:51:10Z</time>
      </trkpt>
      <trkpt lat="42.85488" lon="0.26909">
        <ele>1460.2</ele>
        <time>2022-02-09T07:51:11Z</time>
      </trkpt>
      <trkpt lat="42.85488" lon="0.26908">
        <ele>1460.5</ele>
        <time>2022-02-09T07:51:12Z</time>
      </trkpt>
      <trkpt lat="42.85488" lon="0.26907">
        <ele>1460.5</ele>
        <time>2022-02-09T07:51:13Z</time>
      </trkpt>
      <trkpt lat="42.85488" lon="0.26905">
        <ele>1460.5</ele>
        <time>2022-02-09T07:51:14Z</time>
      </trkpt>
      <trkpt lat="42.85489" lon="0.26904">
        <ele>1460.5</ele>
        <time>2022-02-09T07:51:15Z</time>
      </trkpt>
      <trkpt lat="42.85489" lon="0.26903">
        <ele>1460.7</ele>
        <time>2022-02-09T07:51:16Z</time>
      </trkpt>
      <trkpt lat="42.85489" lon="0.26902">
        <ele>1460.7</ele>
        <time>2022-02-09T07:51:17Z</time>
      </trkpt>
      <trkpt lat="42.85489" lon="0.26901">
        <ele>1460.7</ele>
        <time>2022-02-09T07:51:18Z</time>
      </trkpt>
      <trkpt lat="42.85489" lon="0.269">
        <ele>1461.7</ele>
        <time>2022-02-09T07:51:19Z</time>
      </trkpt>
      <trkpt lat="42.85489" lon="0.26899">
        <ele>1461.9</ele>
        <time>2022-02-09T07:51:20Z</time>
      </trkpt>
      <trkpt lat="42.8549" lon="0.26898">
        <ele>1461.9</ele>
        <time>2022-02-09T07:51:21Z</time>
      </trkpt>
      <trkpt lat="42.8549" lon="0.26897">
        <ele>1461.9</ele>
        <time>2022-02-09T07:51:22Z</time>
      </trkpt>
      <trkpt lat="42.8549" lon="0.26896">
        <ele>1461.9</ele>
        <time>2022-02-09T07:51:23Z</time>
      </trkpt>
      <trkpt lat="42.8549" lon="0.26895">
        <ele>1462.1</ele>
        <time>2022-02-09T07:51:24Z</time>
      </trkpt>
      <trkpt lat="42.8549" lon="0.26894">
        <ele>1462.1</ele>
        <time>2022-02-09T07:51:25Z</time>
      </trkpt>
      <trkpt lat="42.85491" lon="0.26893">
        <ele>1462.1</ele>
        <time>2022-02-09T07:51:26Z</time>
      </trkpt>
      <trkpt lat="42.85491" lon="0.26892">
        <ele>1462.1</ele>
        <time>2022-02-09T07:51:27Z</time>
      </trkpt>
      <trkpt lat="42.85491" lon="0.26892">
        <ele>1462.1</ele>
        <time>2022-02-09T07:51:28Z</time>
      </trkpt>
      <trkpt lat="42.85491" lon="0.26891">
        <ele>1462.4</ele>
        <time>2022-02-09T07:51:29Z</time>
      </trkpt>
      <trkpt lat="42.85491" lon="0.2689">
        <ele>1462.4</ele>
        <time>2022-02-09T07:51:30Z</time>
      </trkpt>
      <trkpt lat="42.85492" lon="0.26889">
        <ele>1462.4</ele>
        <time>2022-02-09T07:51:31Z</time>
      </trkpt>
      <trkpt lat="42.85492" lon="0.26888">
        <ele>1463.3</ele>
        <time>2022-02-09T07:51:32Z</time>
      </trkpt>
      <trkpt lat="42.85492" lon="0.26888">
        <ele>1463.3</ele>
        <time>2022-02-09T07:51:33Z</time>
      </trkpt>
      <trkpt lat="42.85493" lon="0.26887">
        <ele>1463.3</ele>
        <time>2022-02-09T07:51:34Z</time>
      </trkpt>
      <trkpt lat="42.85493" lon="0.26887">
        <ele>1463.3</ele>
        <time>2022-02-09T07:51:35Z</time>
      </trkpt>
      <trkpt lat="42.85493" lon="0.26886">
        <ele>1463.6</ele>
        <time>2022-02-09T07:51:36Z</time>
      </trkpt>
      <trkpt lat="42.85493" lon="0.26885">
        <ele>1463.6</ele>
        <time>2022-02-09T07:51:37Z</time>
      </trkpt>
      <trkpt lat="42.85493" lon="0.26884">
        <ele>1463.6</ele>
        <time>2022-02-09T07:51:38Z</time>
      </trkpt>
      <trkpt lat="42.85493" lon="0.26883">
        <ele>1463.6</ele>
        <time>2022-02-09T07:51:39Z</time>
      </trkpt>
      <trkpt lat="42.85493" lon="0.26883">
        <ele>1463.6</ele>
        <time>2022-02-09T07:51:40Z</time>
      </trkpt>
      <trkpt lat="42.85493" lon="0.26882">
        <ele>1463.8</ele>
        <time>2022-02-09T07:51:41Z</time>
      </trkpt>
      <trkpt lat="42.85493" lon="0.26881">
        <ele>1463.8</ele>
        <time>2022-02-09T07:51:42Z</time>
      </trkpt>
      <trkpt lat="42.85493" lon="0.26881">
        <ele>1463.8</ele>
        <time>2022-02-09T07:51:43Z</time>
      </trkpt>
      <trkpt lat="42.85494" lon="0.2688">
        <ele>1463.8</ele>
        <time>2022-02-09T07:51:44Z</time>
      </trkpt>
      <trkpt lat="42.85494" lon="0.26879">
        <ele>1463.8</ele>
        <time>2022-02-09T07:51:45Z</time>
      </trkpt>
      <trkpt lat="42.85494" lon="0.26879">
        <ele>1463.8</ele>
        <time>2022-02-09T07:51:46Z</time>
      </trkpt>
      <trkpt lat="42.85495" lon="0.26878">
        <ele>1463.8</ele>
        <time>2022-02-09T07:51:47Z</time>
      </trkpt>
      <trkpt lat="42.85495" lon="0.26878">
        <ele>1463.8</ele>
        <time>2022-02-09T07:51:48Z</time>
      </trkpt>
      <trkpt lat="42.85495" lon="0.26878">
        <ele>1464.8</ele>
        <time>2022-02-09T07:51:49Z</time>
      </trkpt>
      <trkpt lat="42.85496" lon="0.26878">
        <ele>1465</ele>
        <time>2022-02-09T07:51:50Z</time>
      </trkpt>
      <trkpt lat="42.85497" lon="0.26878">
        <ele>1464.8</ele>
        <time>2022-02-09T07:51:51Z</time>
      </trkpt>
      <trkpt lat="42.85497" lon="0.26878">
        <ele>1464.8</ele>
        <time>2022-02-09T07:51:52Z</time>
      </trkpt>
      <trkpt lat="42.85497" lon="0.26878">
        <ele>1464.8</ele>
        <time>2022-02-09T07:51:53Z</time>
      </trkpt>
      <trkpt lat="42.85498" lon="0.26878">
        <ele>1464.8</ele>
        <time>2022-02-09T07:51:54Z</time>
      </trkpt>
      <trkpt lat="42.85498" lon="0.26878">
        <ele>1464.8</ele>
        <time>2022-02-09T07:51:55Z</time>
      </trkpt>
      <trkpt lat="42.85498" lon="0.26878">
        <ele>1464.8</ele>
        <time>2022-02-09T07:51:56Z</time>
      </trkpt>
      <trkpt lat="42.85498" lon="0.26878">
        <ele>1464.8</ele>
        <time>2022-02-09T07:51:57Z</time>
      </trkpt>
      <trkpt lat="42.85498" lon="0.26878">
        <ele>1464.8</ele>
        <time>2022-02-09T07:51:58Z</time>
      </trkpt>
      <trkpt lat="42.85499" lon="0.26878">
        <ele>1465.8</ele>
        <time>2022-02-09T07:51:59Z</time>
      </trkpt>
      <trkpt lat="42.85499" lon="0.26878">
        <ele>1465.8</ele>
        <time>2022-02-09T07:52:00Z</time>
      </trkpt>
      <trkpt lat="42.855" lon="0.26878">
        <ele>1466</ele>
        <time>2022-02-09T07:52:01Z</time>
      </trkpt>
      <trkpt lat="42.855" lon="0.26878">
        <ele>1466</ele>
        <time>2022-02-09T07:52:02Z</time>
      </trkpt>
      <trkpt lat="42.85501" lon="0.26877">
        <ele>1466</ele>
        <time>2022-02-09T07:52:03Z</time>
      </trkpt>
      <trkpt lat="42.85501" lon="0.26877">
        <ele>1466</ele>
        <time>2022-02-09T07:52:04Z</time>
      </trkpt>
      <trkpt lat="42.85501" lon="0.26877">
        <ele>1466</ele>
        <time>2022-02-09T07:52:05Z</time>
      </trkpt>
      <trkpt lat="42.85501" lon="0.26877">
        <ele>1466</ele>
        <time>2022-02-09T07:52:06Z</time>
      </trkpt>
      <trkpt lat="42.85501" lon="0.26877">
        <ele>1466</ele>
        <time>2022-02-09T07:52:07Z</time>
      </trkpt>
      <trkpt lat="42.85501" lon="0.26877">
        <ele>1466</ele>
        <time>2022-02-09T07:52:08Z</time>
      </trkpt>
      <trkpt lat="42.85501" lon="0.26877">
        <ele>1466</ele>
        <time>2022-02-09T07:52:09Z</time>
      </trkpt>
      <trkpt lat="42.85501" lon="0.26877">
        <ele>1466</ele>
        <time>2022-02-09T07:52:10Z</time>
      </trkpt>
      <trkpt lat="42.85501" lon="0.26877">
        <ele>1466</ele>
        <time>2022-02-09T07:52:11Z</time>
      </trkpt>
      <trkpt lat="42.85501" lon="0.26877">
        <ele>1466</ele>
        <time>2022-02-09T07:52:12Z</time>
      </trkpt>
      <trkpt lat="42.85501" lon="0.26877">
        <ele>1466</ele>
        <time>2022-02-09T07:52:13Z</time>
      </trkpt>
      <trkpt lat="42.85501" lon="0.26877">
        <ele>1466</ele>
        <time>2022-02-09T07:52:14Z</time>
      </trkpt>
      <trkpt lat="42.85501" lon="0.26877">
        <ele>1466</ele>
        <time>2022-02-09T07:52:15Z</time>
      </trkpt>
      <trkpt lat="42.85501" lon="0.26877">
        <ele>1466</ele>
        <time>2022-02-09T07:52:16Z</time>
      </trkpt>
      <trkpt lat="42.85501" lon="0.26877">
        <ele>1466</ele>
        <time>2022-02-09T07:52:17Z</time>
      </trkpt>
      <trkpt lat="42.85501" lon="0.26877">
        <ele>1466</ele>
        <time>2022-02-09T07:52:18Z</time>
      </trkpt>
      <trkpt lat="42.85501" lon="0.26877">
        <ele>1466</ele>
        <time>2022-02-09T07:52:19Z</time>
      </trkpt>
      <trkpt lat="42.85501" lon="0.26877">
        <ele>1466</ele>
        <time>2022-02-09T07:52:20Z</time>
      </trkpt>
      <trkpt lat="42.85501" lon="0.26877">
        <ele>1466</ele>
        <time>2022-02-09T07:52:21Z</time>
      </trkpt>
      <trkpt lat="42.85501" lon="0.26877">
        <ele>1466</ele>
        <time>2022-02-09T07:52:22Z</time>
      </trkpt>
      <trkpt lat="42.85501" lon="0.26877">
        <ele>1466</ele>
        <time>2022-02-09T07:52:23Z</time>
      </trkpt>
      <trkpt lat="42.85501" lon="0.26877">
        <ele>1466</ele>
        <time>2022-02-09T07:52:24Z</time>
      </trkpt>
      <trkpt lat="42.85501" lon="0.26877">
        <ele>1466</ele>
        <time>2022-02-09T07:52:25Z</time>
      </trkpt>
      <trkpt lat="42.85501" lon="0.26877">
        <ele>1466</ele>
        <time>2022-02-09T07:52:26Z</time>
      </trkpt>
      <trkpt lat="42.85501" lon="0.26877">
        <ele>1466</ele>
        <time>2022-02-09T07:52:27Z</time>
      </trkpt>
      <trkpt lat="42.85501" lon="0.26877">
        <ele>1466</ele>
        <time>2022-02-09T07:52:28Z</time>
      </trkpt>
      <trkpt lat="42.85501" lon="0.26877">
        <ele>1466</ele>
        <time>2022-02-09T07:52:29Z</time>
      </trkpt>
      <trkpt lat="42.85501" lon="0.26877">
        <ele>1466</ele>
        <time>2022-02-09T07:52:30Z</time>
      </trkpt>
      <trkpt lat="42.85501" lon="0.26877">
        <ele>1466</ele>
        <time>2022-02-09T07:52:31Z</time>
      </trkpt>
      <trkpt lat="42.85501" lon="0.26877">
        <ele>1466</ele>
        <time>2022-02-09T07:52:32Z</time>
      </trkpt>
      <trkpt lat="42.85501" lon="0.26877">
        <ele>1466</ele>
        <time>2022-02-09T07:52:33Z</time>
      </trkpt>
      <trkpt lat="42.85501" lon="0.26877">
        <ele>1466</ele>
        <time>2022-02-09T07:52:34Z</time>
      </trkpt>
      <trkpt lat="42.85501" lon="0.26877">
        <ele>1466</ele>
        <time>2022-02-09T07:52:35Z</time>
      </trkpt>
      <trkpt lat="42.85501" lon="0.26877">
        <ele>1466</ele>
        <time>2022-02-09T07:52:36Z</time>
      </trkpt>
      <trkpt lat="42.85501" lon="0.26877">
        <ele>1466</ele>
        <time>2022-02-09T07:52:37Z</time>
      </trkpt>
      <trkpt lat="42.85501" lon="0.26877">
        <ele>1466</ele>
        <time>2022-02-09T07:52:38Z</time>
      </trkpt>
      <trkpt lat="42.85501" lon="0.26877">
        <ele>1466</ele>
        <time>2022-02-09T07:52:39Z</time>
      </trkpt>
      <trkpt lat="42.85501" lon="0.26877">
        <ele>1466</ele>
        <time>2022-02-09T07:52:40Z</time>
      </trkpt>
      <trkpt lat="42.85501" lon="0.26877">
        <ele>1466</ele>
        <time>2022-02-09T07:52:41Z</time>
      </trkpt>
      <trkpt lat="42.85501" lon="0.26877">
        <ele>1466</ele>
        <time>2022-02-09T07:52:42Z</time>
      </trkpt>
      <trkpt lat="42.85501" lon="0.26877">
        <ele>1466</ele>
        <time>2022-02-09T07:52:43Z</time>
      </trkpt>
      <trkpt lat="42.85501" lon="0.26877">
        <ele>1466</ele>
        <time>2022-02-09T07:52:44Z</time>
      </trkpt>
      <trkpt lat="42.85501" lon="0.26877">
        <ele>1466</ele>
        <time>2022-02-09T07:52:45Z</time>
      </trkpt>
      <trkpt lat="42.85501" lon="0.26877">
        <ele>1466</ele>
        <time>2022-02-09T07:52:46Z</time>
      </trkpt>
      <trkpt lat="42.85501" lon="0.26877">
        <ele>1466</ele>
        <time>2022-02-09T07:52:47Z</time>
      </trkpt>
      <trkpt lat="42.85501" lon="0.26877">
        <ele>1466</ele>
        <time>2022-02-09T07:52:48Z</time>
      </trkpt>
      <trkpt lat="42.85501" lon="0.26877">
        <ele>1466</ele>
        <time>2022-02-09T07:52:49Z</time>
      </trkpt>
      <trkpt lat="42.85501" lon="0.26877">
        <ele>1466</ele>
        <time>2022-02-09T07:52:50Z</time>
      </trkpt>
      <trkpt lat="42.85501" lon="0.26877">
        <ele>1466</ele>
        <time>2022-02-09T07:52:51Z</time>
      </trkpt>
      <trkpt lat="42.85501" lon="0.26877">
        <ele>1466</ele>
        <time>2022-02-09T07:52:52Z</time>
      </trkpt>
      <trkpt lat="42.85501" lon="0.26877">
        <ele>1466</ele>
        <time>2022-02-09T07:52:53Z</time>
      </trkpt>
      <trkpt lat="42.85501" lon="0.26877">
        <ele>1466</ele>
        <time>2022-02-09T07:52:54Z</time>
      </trkpt>
      <trkpt lat="42.85501" lon="0.26877">
        <ele>1466</ele>
        <time>2022-02-09T07:52:55Z</time>
      </trkpt>
      <trkpt lat="42.85501" lon="0.26877">
        <ele>1466</ele>
        <time>2022-02-09T07:52:56Z</time>
      </trkpt>
      <trkpt lat="42.85501" lon="0.26877">
        <ele>1466</ele>
        <time>2022-02-09T07:52:57Z</time>
      </trkpt>
      <trkpt lat="42.85501" lon="0.26877">
        <ele>1466</ele>
        <time>2022-02-09T07:52:58Z</time>
      </trkpt>
      <trkpt lat="42.85501" lon="0.26877">
        <ele>1466</ele>
        <time>2022-02-09T07:52:59Z</time>
      </trkpt>
      <trkpt lat="42.85501" lon="0.26877">
        <ele>1466</ele>
        <time>2022-02-09T07:53:00Z</time>
      </trkpt>
      <trkpt lat="42.85501" lon="0.26877">
        <ele>1466</ele>
        <time>2022-02-09T07:53:01Z</time>
      </trkpt>
      <trkpt lat="42.85501" lon="0.26877">
        <ele>1466</ele>
        <time>2022-02-09T07:53:02Z</time>
      </trkpt>
      <trkpt lat="42.85501" lon="0.26877">
        <ele>1466</ele>
        <time>2022-02-09T07:53:03Z</time>
      </trkpt>
      <trkpt lat="42.85501" lon="0.26877">
        <ele>1466</ele>
        <time>2022-02-09T07:53:04Z</time>
      </trkpt>
      <trkpt lat="42.85501" lon="0.26877">
        <ele>1466</ele>
        <time>2022-02-09T07:53:05Z</time>
      </trkpt>
      <trkpt lat="42.85501" lon="0.26877">
        <ele>1466</ele>
        <time>2022-02-09T07:53:06Z</time>
      </trkpt>
      <trkpt lat="42.85501" lon="0.26877">
        <ele>1466</ele>
        <time>2022-02-09T07:53:07Z</time>
      </trkpt>
      <trkpt lat="42.85501" lon="0.26877">
        <ele>1466</ele>
        <time>2022-02-09T07:53:08Z</time>
      </trkpt>
      <trkpt lat="42.85501" lon="0.26877">
        <ele>1466</ele>
        <time>2022-02-09T07:53:09Z</time>
      </trkpt>
      <trkpt lat="42.85501" lon="0.26877">
        <ele>1466</ele>
        <time>2022-02-09T07:53:10Z</time>
      </trkpt>
      <trkpt lat="42.85501" lon="0.26877">
        <ele>1466</ele>
        <time>2022-02-09T07:53:11Z</time>
      </trkpt>
      <trkpt lat="42.85501" lon="0.26877">
        <ele>1466</ele>
        <time>2022-02-09T07:53:12Z</time>
      </trkpt>
      <trkpt lat="42.85501" lon="0.26877">
        <ele>1466</ele>
        <time>2022-02-09T07:53:13Z</time>
      </trkpt>
      <trkpt lat="42.85501" lon="0.26877">
        <ele>1466</ele>
        <time>2022-02-09T07:53:14Z</time>
      </trkpt>
      <trkpt lat="42.85501" lon="0.26877">
        <ele>1466</ele>
        <time>2022-02-09T07:53:15Z</time>
      </trkpt>
      <trkpt lat="42.85501" lon="0.26877">
        <ele>1466</ele>
        <time>2022-02-09T07:53:16Z</time>
      </trkpt>
      <trkpt lat="42.85501" lon="0.26877">
        <ele>1466</ele>
        <time>2022-02-09T07:53:17Z</time>
      </trkpt>
      <trkpt lat="42.85501" lon="0.26877">
        <ele>1466</ele>
        <time>2022-02-09T07:53:18Z</time>
      </trkpt>
      <trkpt lat="42.85501" lon="0.26877">
        <ele>1466</ele>
        <time>2022-02-09T07:53:19Z</time>
      </trkpt>
      <trkpt lat="42.85501" lon="0.26877">
        <ele>1466</ele>
        <time>2022-02-09T07:53:20Z</time>
      </trkpt>
      <trkpt lat="42.85501" lon="0.26877">
        <ele>1466</ele>
        <time>2022-02-09T07:53:21Z</time>
      </trkpt>
      <trkpt lat="42.85501" lon="0.26877">
        <ele>1466</ele>
        <time>2022-02-09T07:53:22Z</time>
      </trkpt>
      <trkpt lat="42.85501" lon="0.26877">
        <ele>1466</ele>
        <time>2022-02-09T07:53:23Z</time>
      </trkpt>
      <trkpt lat="42.85501" lon="0.26877">
        <ele>1466</ele>
        <time>2022-02-09T07:53:24Z</time>
      </trkpt>
      <trkpt lat="42.85501" lon="0.26877">
        <ele>1466</ele>
        <time>2022-02-09T07:53:25Z</time>
      </trkpt>
      <trkpt lat="42.85501" lon="0.26877">
        <ele>1466</ele>
        <time>2022-02-09T07:53:26Z</time>
      </trkpt>
      <trkpt lat="42.85501" lon="0.26877">
        <ele>1466</ele>
        <time>2022-02-09T07:53:27Z</time>
      </trkpt>
      <trkpt lat="42.85501" lon="0.26877">
        <ele>1466</ele>
        <time>2022-02-09T07:53:28Z</time>
      </trkpt>
      <trkpt lat="42.85501" lon="0.26877">
        <ele>1466</ele>
        <time>2022-02-09T07:53:29Z</time>
      </trkpt>
      <trkpt lat="42.85501" lon="0.26877">
        <ele>1466</ele>
        <time>2022-02-09T07:53:30Z</time>
      </trkpt>
      <trkpt lat="42.85501" lon="0.26877">
        <ele>1466</ele>
        <time>2022-02-09T07:53:31Z</time>
      </trkpt>
      <trkpt lat="42.85501" lon="0.26877">
        <ele>1466</ele>
        <time>2022-02-09T07:53:32Z</time>
      </trkpt>
      <trkpt lat="42.85501" lon="0.26877">
        <ele>1466</ele>
        <time>2022-02-09T07:53:33Z</time>
      </trkpt>
      <trkpt lat="42.85501" lon="0.26877">
        <ele>1466</ele>
        <time>2022-02-09T07:53:34Z</time>
      </trkpt>
      <trkpt lat="42.85501" lon="0.26877">
        <ele>1466</ele>
        <time>2022-02-09T07:53:35Z</time>
      </trkpt>
      <trkpt lat="42.85501" lon="0.26877">
        <ele>1466</ele>
        <time>2022-02-09T07:53:36Z</time>
      </trkpt>
      <trkpt lat="42.85501" lon="0.26877">
        <ele>1466</ele>
        <time>2022-02-09T07:53:37Z</time>
      </trkpt>
      <trkpt lat="42.85501" lon="0.26877">
        <ele>1466</ele>
        <time>2022-02-09T07:53:38Z</time>
      </trkpt>
      <trkpt lat="42.85501" lon="0.26877">
        <ele>1466</ele>
        <time>2022-02-09T07:53:39Z</time>
      </trkpt>
      <trkpt lat="42.85501" lon="0.26877">
        <ele>1466</ele>
        <time>2022-02-09T07:53:40Z</time>
      </trkpt>
      <trkpt lat="42.85501" lon="0.26877">
        <ele>1466</ele>
        <time>2022-02-09T07:53:41Z</time>
      </trkpt>
      <trkpt lat="42.85501" lon="0.26877">
        <ele>1466</ele>
        <time>2022-02-09T07:53:42Z</time>
      </trkpt>
      <trkpt lat="42.85501" lon="0.26877">
        <ele>1466</ele>
        <time>2022-02-09T07:53:43Z</time>
      </trkpt>
      <trkpt lat="42.85501" lon="0.26877">
        <ele>1466</ele>
        <time>2022-02-09T07:53:44Z</time>
      </trkpt>
      <trkpt lat="42.85501" lon="0.26877">
        <ele>1466</ele>
        <time>2022-02-09T07:53:45Z</time>
      </trkpt>
      <trkpt lat="42.85501" lon="0.26877">
        <ele>1466</ele>
        <time>2022-02-09T07:53:46Z</time>
      </trkpt>
      <trkpt lat="42.85501" lon="0.26877">
        <ele>1466</ele>
        <time>2022-02-09T07:53:47Z</time>
      </trkpt>
      <trkpt lat="42.85501" lon="0.26877">
        <ele>1466</ele>
        <time>2022-02-09T07:53:48Z</time>
      </trkpt>
      <trkpt lat="42.85501" lon="0.26877">
        <ele>1466</ele>
        <time>2022-02-09T07:53:49Z</time>
      </trkpt>
      <trkpt lat="42.85501" lon="0.26877">
        <ele>1466</ele>
        <time>2022-02-09T07:53:50Z</time>
      </trkpt>
      <trkpt lat="42.85501" lon="0.26877">
        <ele>1466</ele>
        <time>2022-02-09T07:53:51Z</time>
      </trkpt>
      <trkpt lat="42.85501" lon="0.26877">
        <ele>1466</ele>
        <time>2022-02-09T07:53:52Z</time>
      </trkpt>
      <trkpt lat="42.85501" lon="0.26877">
        <ele>1466</ele>
        <time>2022-02-09T07:53:53Z</time>
      </trkpt>
      <trkpt lat="42.85501" lon="0.26877">
        <ele>1466</ele>
        <time>2022-02-09T07:53:54Z</time>
      </trkpt>
      <trkpt lat="42.85501" lon="0.26877">
        <ele>1466</ele>
        <time>2022-02-09T07:53:55Z</time>
      </trkpt>
      <trkpt lat="42.85501" lon="0.26877">
        <ele>1466</ele>
        <time>2022-02-09T07:53:56Z</time>
      </trkpt>
      <trkpt lat="42.85501" lon="0.26877">
        <ele>1466</ele>
        <time>2022-02-09T07:53:57Z</time>
      </trkpt>
      <trkpt lat="42.85501" lon="0.26877">
        <ele>1466</ele>
        <time>2022-02-09T07:53:58Z</time>
      </trkpt>
      <trkpt lat="42.85501" lon="0.26877">
        <ele>1466</ele>
        <time>2022-02-09T07:53:59Z</time>
      </trkpt>
      <trkpt lat="42.85501" lon="0.26877">
        <ele>1466</ele>
        <time>2022-02-09T07:54:00Z</time>
      </trkpt>
      <trkpt lat="42.85501" lon="0.26877">
        <ele>1466</ele>
        <time>2022-02-09T07:54:01Z</time>
      </trkpt>
      <trkpt lat="42.85501" lon="0.26877">
        <ele>1466</ele>
        <time>2022-02-09T07:54:02Z</time>
      </trkpt>
      <trkpt lat="42.85501" lon="0.26877">
        <ele>1466</ele>
        <time>2022-02-09T07:54:03Z</time>
      </trkpt>
      <trkpt lat="42.85501" lon="0.26877">
        <ele>1466</ele>
        <time>2022-02-09T07:54:04Z</time>
      </trkpt>
      <trkpt lat="42.85501" lon="0.26877">
        <ele>1466</ele>
        <time>2022-02-09T07:54:05Z</time>
      </trkpt>
      <trkpt lat="42.85501" lon="0.26877">
        <ele>1466</ele>
        <time>2022-02-09T07:54:06Z</time>
      </trkpt>
      <trkpt lat="42.85501" lon="0.26877">
        <ele>1466</ele>
        <time>2022-02-09T07:54:07Z</time>
      </trkpt>
      <trkpt lat="42.85501" lon="0.26877">
        <ele>1466</ele>
        <time>2022-02-09T07:54:08Z</time>
      </trkpt>
      <trkpt lat="42.85501" lon="0.26877">
        <ele>1466</ele>
        <time>2022-02-09T07:54:09Z</time>
      </trkpt>
      <trkpt lat="42.85501" lon="0.26877">
        <ele>1466</ele>
        <time>2022-02-09T07:54:10Z</time>
      </trkpt>
      <trkpt lat="42.85501" lon="0.26877">
        <ele>1466</ele>
        <time>2022-02-09T07:54:11Z</time>
      </trkpt>
      <trkpt lat="42.85501" lon="0.26877">
        <ele>1466</ele>
        <time>2022-02-09T07:54:12Z</time>
      </trkpt>
      <trkpt lat="42.85501" lon="0.26877">
        <ele>1466</ele>
        <time>2022-02-09T07:54:13Z</time>
      </trkpt>
      <trkpt lat="42.85501" lon="0.26877">
        <ele>1466</ele>
        <time>2022-02-09T07:54:14Z</time>
      </trkpt>
      <trkpt lat="42.85501" lon="0.26877">
        <ele>1466</ele>
        <time>2022-02-09T07:54:15Z</time>
      </trkpt>
      <trkpt lat="42.85501" lon="0.26877">
        <ele>1466</ele>
        <time>2022-02-09T07:54:16Z</time>
      </trkpt>
      <trkpt lat="42.85501" lon="0.26877">
        <ele>1466</ele>
        <time>2022-02-09T07:54:17Z</time>
      </trkpt>
      <trkpt lat="42.85501" lon="0.26877">
        <ele>1466</ele>
        <time>2022-02-09T07:54:18Z</time>
      </trkpt>
      <trkpt lat="42.85501" lon="0.26877">
        <ele>1466</ele>
        <time>2022-02-09T07:54:19Z</time>
      </trkpt>
      <trkpt lat="42.85501" lon="0.26877">
        <ele>1466</ele>
        <time>2022-02-09T07:54:20Z</time>
      </trkpt>
      <trkpt lat="42.85501" lon="0.26877">
        <ele>1466</ele>
        <time>2022-02-09T07:54:21Z</time>
      </trkpt>
      <trkpt lat="42.85501" lon="0.26877">
        <ele>1466</ele>
        <time>2022-02-09T07:54:22Z</time>
      </trkpt>
      <trkpt lat="42.85501" lon="0.26877">
        <ele>1466</ele>
        <time>2022-02-09T07:54:23Z</time>
      </trkpt>
      <trkpt lat="42.85501" lon="0.26877">
        <ele>1466</ele>
        <time>2022-02-09T07:54:24Z</time>
      </trkpt>
      <trkpt lat="42.85501" lon="0.26877">
        <ele>1466</ele>
        <time>2022-02-09T07:54:25Z</time>
      </trkpt>
      <trkpt lat="42.85501" lon="0.26877">
        <ele>1466</ele>
        <time>2022-02-09T07:54:26Z</time>
      </trkpt>
      <trkpt lat="42.85501" lon="0.26877">
        <ele>1466</ele>
        <time>2022-02-09T07:54:27Z</time>
      </trkpt>
      <trkpt lat="42.85501" lon="0.26877">
        <ele>1466</ele>
        <time>2022-02-09T07:54:28Z</time>
      </trkpt>
      <trkpt lat="42.85501" lon="0.26877">
        <ele>1466</ele>
        <time>2022-02-09T07:54:29Z</time>
      </trkpt>
      <trkpt lat="42.85501" lon="0.26877">
        <ele>1466</ele>
        <time>2022-02-09T07:54:30Z</time>
      </trkpt>
      <trkpt lat="42.85501" lon="0.26877">
        <ele>1466</ele>
        <time>2022-02-09T07:54:31Z</time>
      </trkpt>
      <trkpt lat="42.85501" lon="0.26877">
        <ele>1466</ele>
        <time>2022-02-09T07:54:32Z</time>
      </trkpt>
      <trkpt lat="42.85501" lon="0.26877">
        <ele>1466</ele>
        <time>2022-02-09T07:54:33Z</time>
      </trkpt>
      <trkpt lat="42.85501" lon="0.26877">
        <ele>1466</ele>
        <time>2022-02-09T07:54:34Z</time>
      </trkpt>
      <trkpt lat="42.85501" lon="0.26877">
        <ele>1466</ele>
        <time>2022-02-09T07:54:35Z</time>
      </trkpt>
      <trkpt lat="42.85501" lon="0.26877">
        <ele>1466</ele>
        <time>2022-02-09T07:54:36Z</time>
      </trkpt>
      <trkpt lat="42.85501" lon="0.26877">
        <ele>1466</ele>
        <time>2022-02-09T07:54:37Z</time>
      </trkpt>
      <trkpt lat="42.85501" lon="0.26877">
        <ele>1466</ele>
        <time>2022-02-09T07:54:38Z</time>
      </trkpt>
      <trkpt lat="42.85501" lon="0.26877">
        <ele>1466</ele>
        <time>2022-02-09T07:54:39Z</time>
      </trkpt>
      <trkpt lat="42.85501" lon="0.26877">
        <ele>1466</ele>
        <time>2022-02-09T07:54:40Z</time>
      </trkpt>
      <trkpt lat="42.85501" lon="0.26877">
        <ele>1466</ele>
        <time>2022-02-09T07:54:41Z</time>
      </trkpt>
      <trkpt lat="42.85501" lon="0.26877">
        <ele>1466</ele>
        <time>2022-02-09T07:54:42Z</time>
      </trkpt>
      <trkpt lat="42.85501" lon="0.26877">
        <ele>1466</ele>
        <time>2022-02-09T07:54:43Z</time>
      </trkpt>
      <trkpt lat="42.85501" lon="0.26877">
        <ele>1466</ele>
        <time>2022-02-09T07:54:44Z</time>
      </trkpt>
      <trkpt lat="42.85501" lon="0.26877">
        <ele>1466</ele>
        <time>2022-02-09T07:54:45Z</time>
      </trkpt>
      <trkpt lat="42.85501" lon="0.26877">
        <ele>1466</ele>
        <time>2022-02-09T07:54:46Z</time>
      </trkpt>
      <trkpt lat="42.85501" lon="0.26877">
        <ele>1466</ele>
        <time>2022-02-09T07:54:47Z</time>
      </trkpt>
      <trkpt lat="42.85501" lon="0.26877">
        <ele>1466</ele>
        <time>2022-02-09T07:54:48Z</time>
      </trkpt>
      <trkpt lat="42.85501" lon="0.26877">
        <ele>1466</ele>
        <time>2022-02-09T07:54:49Z</time>
      </trkpt>
      <trkpt lat="42.85501" lon="0.26877">
        <ele>1466</ele>
        <time>2022-02-09T07:54:50Z</time>
      </trkpt>
      <trkpt lat="42.85501" lon="0.26877">
        <ele>1466</ele>
        <time>2022-02-09T07:54:51Z</time>
      </trkpt>
      <trkpt lat="42.85501" lon="0.26877">
        <ele>1466</ele>
        <time>2022-02-09T07:54:52Z</time>
      </trkpt>
      <trkpt lat="42.85501" lon="0.26877">
        <ele>1466</ele>
        <time>2022-02-09T07:54:53Z</time>
      </trkpt>
      <trkpt lat="42.85501" lon="0.26877">
        <ele>1466</ele>
        <time>2022-02-09T07:54:54Z</time>
      </trkpt>
      <trkpt lat="42.85501" lon="0.26877">
        <ele>1466</ele>
        <time>2022-02-09T07:54:55Z</time>
      </trkpt>
      <trkpt lat="42.85501" lon="0.26877">
        <ele>1466</ele>
        <time>2022-02-09T07:54:56Z</time>
      </trkpt>
      <trkpt lat="42.85501" lon="0.26877">
        <ele>1466</ele>
        <time>2022-02-09T07:54:57Z</time>
      </trkpt>
      <trkpt lat="42.85501" lon="0.26877">
        <ele>1466</ele>
        <time>2022-02-09T07:54:58Z</time>
      </trkpt>
      <trkpt lat="42.85501" lon="0.26877">
        <ele>1466</ele>
        <time>2022-02-09T07:54:59Z</time>
      </trkpt>
      <trkpt lat="42.85501" lon="0.26877">
        <ele>1466</ele>
        <time>2022-02-09T07:55:00Z</time>
      </trkpt>
      <trkpt lat="42.85501" lon="0.26877">
        <ele>1466</ele>
        <time>2022-02-09T07:55:01Z</time>
      </trkpt>
      <trkpt lat="42.85501" lon="0.26877">
        <ele>1466</ele>
        <time>2022-02-09T07:55:02Z</time>
      </trkpt>
      <trkpt lat="42.85501" lon="0.26877">
        <ele>1466</ele>
        <time>2022-02-09T07:55:03Z</time>
      </trkpt>
      <trkpt lat="42.85501" lon="0.26877">
        <ele>1466</ele>
        <time>2022-02-09T07:55:04Z</time>
      </trkpt>
      <trkpt lat="42.85501" lon="0.26877">
        <ele>1466</ele>
        <time>2022-02-09T07:55:05Z</time>
      </trkpt>
      <trkpt lat="42.85501" lon="0.26877">
        <ele>1466</ele>
        <time>2022-02-09T07:55:06Z</time>
      </trkpt>
      <trkpt lat="42.85501" lon="0.26877">
        <ele>1466</ele>
        <time>2022-02-09T07:55:07Z</time>
      </trkpt>
      <trkpt lat="42.85501" lon="0.26877">
        <ele>1466</ele>
        <time>2022-02-09T07:55:08Z</time>
      </trkpt>
      <trkpt lat="42.85501" lon="0.26877">
        <ele>1466</ele>
        <time>2022-02-09T07:55:09Z</time>
      </trkpt>
      <trkpt lat="42.85501" lon="0.26877">
        <ele>1466</ele>
        <time>2022-02-09T07:55:10Z</time>
      </trkpt>
      <trkpt lat="42.85501" lon="0.26877">
        <ele>1466</ele>
        <time>2022-02-09T07:55:11Z</time>
      </trkpt>
      <trkpt lat="42.85501" lon="0.26877">
        <ele>1466</ele>
        <time>2022-02-09T07:55:12Z</time>
      </trkpt>
      <trkpt lat="42.85501" lon="0.26877">
        <ele>1466</ele>
        <time>2022-02-09T07:55:13Z</time>
      </trkpt>
      <trkpt lat="42.85501" lon="0.26877">
        <ele>1466</ele>
        <time>2022-02-09T07:55:14Z</time>
      </trkpt>
      <trkpt lat="42.85501" lon="0.26877">
        <ele>1466</ele>
        <time>2022-02-09T07:55:15Z</time>
      </trkpt>
      <trkpt lat="42.85501" lon="0.26877">
        <ele>1466</ele>
        <time>2022-02-09T07:55:16Z</time>
      </trkpt>
      <trkpt lat="42.85501" lon="0.26877">
        <ele>1466</ele>
        <time>2022-02-09T07:55:17Z</time>
      </trkpt>
      <trkpt lat="42.85501" lon="0.26877">
        <ele>1466</ele>
        <time>2022-02-09T07:55:18Z</time>
      </trkpt>
      <trkpt lat="42.85501" lon="0.26877">
        <ele>1466</ele>
        <time>2022-02-09T07:55:19Z</time>
      </trkpt>
      <trkpt lat="42.85501" lon="0.26877">
        <ele>1466</ele>
        <time>2022-02-09T07:55:20Z</time>
      </trkpt>
      <trkpt lat="42.85501" lon="0.26877">
        <ele>1466</ele>
        <time>2022-02-09T07:55:21Z</time>
      </trkpt>
      <trkpt lat="42.85501" lon="0.26877">
        <ele>1466</ele>
        <time>2022-02-09T07:55:22Z</time>
      </trkpt>
      <trkpt lat="42.85501" lon="0.26877">
        <ele>1466</ele>
        <time>2022-02-09T07:55:23Z</time>
      </trkpt>
      <trkpt lat="42.85501" lon="0.26877">
        <ele>1466</ele>
        <time>2022-02-09T07:55:24Z</time>
      </trkpt>
      <trkpt lat="42.85501" lon="0.26877">
        <ele>1466</ele>
        <time>2022-02-09T07:55:25Z</time>
      </trkpt>
      <trkpt lat="42.85501" lon="0.26877">
        <ele>1466</ele>
        <time>2022-02-09T07:55:26Z</time>
      </trkpt>
      <trkpt lat="42.85501" lon="0.26877">
        <ele>1466</ele>
        <time>2022-02-09T07:55:27Z</time>
      </trkpt>
      <trkpt lat="42.85501" lon="0.26877">
        <ele>1466</ele>
        <time>2022-02-09T07:55:28Z</time>
      </trkpt>
      <trkpt lat="42.85501" lon="0.26877">
        <ele>1466</ele>
        <time>2022-02-09T07:55:29Z</time>
      </trkpt>
      <trkpt lat="42.85501" lon="0.26877">
        <ele>1466</ele>
        <time>2022-02-09T07:55:30Z</time>
      </trkpt>
      <trkpt lat="42.85501" lon="0.26877">
        <ele>1466</ele>
        <time>2022-02-09T07:55:31Z</time>
      </trkpt>
      <trkpt lat="42.85501" lon="0.26877">
        <ele>1466</ele>
        <time>2022-02-09T07:55:32Z</time>
      </trkpt>
      <trkpt lat="42.85501" lon="0.26877">
        <ele>1466</ele>
        <time>2022-02-09T07:55:33Z</time>
      </trkpt>
      <trkpt lat="42.85501" lon="0.26877">
        <ele>1466</ele>
        <time>2022-02-09T07:55:34Z</time>
      </trkpt>
      <trkpt lat="42.85501" lon="0.26877">
        <ele>1466</ele>
        <time>2022-02-09T07:55:35Z</time>
      </trkpt>
      <trkpt lat="42.85501" lon="0.26877">
        <ele>1466</ele>
        <time>2022-02-09T07:55:36Z</time>
      </trkpt>
      <trkpt lat="42.85501" lon="0.26877">
        <ele>1466</ele>
        <time>2022-02-09T07:55:37Z</time>
      </trkpt>
      <trkpt lat="42.85501" lon="0.26877">
        <ele>1466</ele>
        <time>2022-02-09T07:55:38Z</time>
      </trkpt>
      <trkpt lat="42.85501" lon="0.26877">
        <ele>1466</ele>
        <time>2022-02-09T07:55:39Z</time>
      </trkpt>
      <trkpt lat="42.85501" lon="0.26877">
        <ele>1466</ele>
        <time>2022-02-09T07:55:40Z</time>
      </trkpt>
      <trkpt lat="42.85501" lon="0.26877">
        <ele>1466</ele>
        <time>2022-02-09T07:55:41Z</time>
      </trkpt>
      <trkpt lat="42.85501" lon="0.26877">
        <ele>1466</ele>
        <time>2022-02-09T07:55:42Z</time>
      </trkpt>
      <trkpt lat="42.85501" lon="0.26877">
        <ele>1466</ele>
        <time>2022-02-09T07:55:43Z</time>
      </trkpt>
      <trkpt lat="42.85501" lon="0.26877">
        <ele>1466</ele>
        <time>2022-02-09T07:55:44Z</time>
      </trkpt>
      <trkpt lat="42.85501" lon="0.26877">
        <ele>1466</ele>
        <time>2022-02-09T07:55:45Z</time>
      </trkpt>
      <trkpt lat="42.85501" lon="0.26877">
        <ele>1466</ele>
        <time>2022-02-09T07:55:46Z</time>
      </trkpt>
      <trkpt lat="42.85501" lon="0.26877">
        <ele>1466</ele>
        <time>2022-02-09T07:55:47Z</time>
      </trkpt>
      <trkpt lat="42.85501" lon="0.26877">
        <ele>1466</ele>
        <time>2022-02-09T07:55:48Z</time>
      </trkpt>
      <trkpt lat="42.85501" lon="0.26877">
        <ele>1466</ele>
        <time>2022-02-09T07:55:49Z</time>
      </trkpt>
      <trkpt lat="42.85501" lon="0.26877">
        <ele>1466</ele>
        <time>2022-02-09T07:55:50Z</time>
      </trkpt>
      <trkpt lat="42.85501" lon="0.26877">
        <ele>1466</ele>
        <time>2022-02-09T07:55:51Z</time>
      </trkpt>
      <trkpt lat="42.85501" lon="0.26877">
        <ele>1466</ele>
        <time>2022-02-09T07:55:52Z</time>
      </trkpt>
      <trkpt lat="42.85501" lon="0.26877">
        <ele>1466</ele>
        <time>2022-02-09T07:55:53Z</time>
      </trkpt>
      <trkpt lat="42.85501" lon="0.26877">
        <ele>1466</ele>
        <time>2022-02-09T07:55:54Z</time>
      </trkpt>
      <trkpt lat="42.85501" lon="0.26877">
        <ele>1466</ele>
        <time>2022-02-09T07:55:55Z</time>
      </trkpt>
      <trkpt lat="42.85502" lon="0.26877">
        <ele>1467</ele>
        <time>2022-02-09T07:55:56Z</time>
      </trkpt>
      <trkpt lat="42.85503" lon="0.26876">
        <ele>1467</ele>
        <time>2022-02-09T07:55:57Z</time>
      </trkpt>
      <trkpt lat="42.85503" lon="0.26876">
        <ele>1467</ele>
        <time>2022-02-09T07:55:58Z</time>
      </trkpt>
      <trkpt lat="42.85503" lon="0.26876">
        <ele>1467</ele>
        <time>2022-02-09T07:55:59Z</time>
      </trkpt>
      <trkpt lat="42.85503" lon="0.26876">
        <ele>1467</ele>
        <time>2022-02-09T07:56:00Z</time>
      </trkpt>
      <trkpt lat="42.85503" lon="0.26876">
        <ele>1467</ele>
        <time>2022-02-09T07:56:01Z</time>
      </trkpt>
      <trkpt lat="42.85503" lon="0.26876">
        <ele>1467</ele>
        <time>2022-02-09T07:56:02Z</time>
      </trkpt>
      <trkpt lat="42.85503" lon="0.26876">
        <ele>1467</ele>
        <time>2022-02-09T07:56:03Z</time>
      </trkpt>
      <trkpt lat="42.85503" lon="0.26876">
        <ele>1467</ele>
        <time>2022-02-09T07:56:04Z</time>
      </trkpt>
      <trkpt lat="42.85503" lon="0.26876">
        <ele>1467</ele>
        <time>2022-02-09T07:56:05Z</time>
      </trkpt>
      <trkpt lat="42.85503" lon="0.26876">
        <ele>1467</ele>
        <time>2022-02-09T07:56:06Z</time>
      </trkpt>
      <trkpt lat="42.85503" lon="0.26876">
        <ele>1467</ele>
        <time>2022-02-09T07:56:07Z</time>
      </trkpt>
      <trkpt lat="42.85503" lon="0.26876">
        <ele>1467</ele>
        <time>2022-02-09T07:56:08Z</time>
      </trkpt>
      <trkpt lat="42.85503" lon="0.26876">
        <ele>1467</ele>
        <time>2022-02-09T07:56:09Z</time>
      </trkpt>
      <trkpt lat="42.85503" lon="0.26876">
        <ele>1467</ele>
        <time>2022-02-09T07:56:10Z</time>
      </trkpt>
      <trkpt lat="42.85503" lon="0.26876">
        <ele>1467</ele>
        <time>2022-02-09T07:56:11Z</time>
      </trkpt>
      <trkpt lat="42.85503" lon="0.26876">
        <ele>1467</ele>
        <time>2022-02-09T07:56:12Z</time>
      </trkpt>
      <trkpt lat="42.85503" lon="0.26876">
        <ele>1467</ele>
        <time>2022-02-09T07:56:13Z</time>
      </trkpt>
      <trkpt lat="42.85503" lon="0.26876">
        <ele>1467</ele>
        <time>2022-02-09T07:56:14Z</time>
      </trkpt>
      <trkpt lat="42.85503" lon="0.26876">
        <ele>1467</ele>
        <time>2022-02-09T07:56:15Z</time>
      </trkpt>
      <trkpt lat="42.85503" lon="0.26876">
        <ele>1467</ele>
        <time>2022-02-09T07:56:16Z</time>
      </trkpt>
      <trkpt lat="42.85503" lon="0.26876">
        <ele>1467</ele>
        <time>2022-02-09T07:56:17Z</time>
      </trkpt>
      <trkpt lat="42.85503" lon="0.26876">
        <ele>1467</ele>
        <time>2022-02-09T07:56:18Z</time>
      </trkpt>
      <trkpt lat="42.85503" lon="0.26876">
        <ele>1467</ele>
        <time>2022-02-09T07:56:19Z</time>
      </trkpt>
      <trkpt lat="42.85503" lon="0.26876">
        <ele>1467</ele>
        <time>2022-02-09T07:56:20Z</time>
      </trkpt>
      <trkpt lat="42.85503" lon="0.26876">
        <ele>1467</ele>
        <time>2022-02-09T07:56:21Z</time>
      </trkpt>
      <trkpt lat="42.85503" lon="0.26876">
        <ele>1467</ele>
        <time>2022-02-09T07:56:22Z</time>
      </trkpt>
      <trkpt lat="42.85503" lon="0.26876">
        <ele>1467</ele>
        <time>2022-02-09T07:56:23Z</time>
      </trkpt>
      <trkpt lat="42.85503" lon="0.26876">
        <ele>1467</ele>
        <time>2022-02-09T07:56:24Z</time>
      </trkpt>
      <trkpt lat="42.85503" lon="0.26876">
        <ele>1467</ele>
        <time>2022-02-09T07:56:25Z</time>
      </trkpt>
      <trkpt lat="42.85503" lon="0.26876">
        <ele>1467</ele>
        <time>2022-02-09T07:56:26Z</time>
      </trkpt>
      <trkpt lat="42.85503" lon="0.26876">
        <ele>1467</ele>
        <time>2022-02-09T07:56:27Z</time>
      </trkpt>
      <trkpt lat="42.85503" lon="0.26876">
        <ele>1467</ele>
        <time>2022-02-09T07:56:28Z</time>
      </trkpt>
      <trkpt lat="42.85503" lon="0.26876">
        <ele>1467</ele>
        <time>2022-02-09T07:56:29Z</time>
      </trkpt>
      <trkpt lat="42.85503" lon="0.26876">
        <ele>1467</ele>
        <time>2022-02-09T07:56:30Z</time>
      </trkpt>
      <trkpt lat="42.85503" lon="0.26876">
        <ele>1467</ele>
        <time>2022-02-09T07:56:31Z</time>
      </trkpt>
      <trkpt lat="42.85503" lon="0.26876">
        <ele>1467</ele>
        <time>2022-02-09T07:56:32Z</time>
      </trkpt>
      <trkpt lat="42.85503" lon="0.26876">
        <ele>1467</ele>
        <time>2022-02-09T07:56:33Z</time>
      </trkpt>
      <trkpt lat="42.85504" lon="0.26876">
        <ele>1467</ele>
        <time>2022-02-09T07:56:34Z</time>
      </trkpt>
      <trkpt lat="42.85505" lon="0.26876">
        <ele>1467.9</ele>
        <time>2022-02-09T07:56:35Z</time>
      </trkpt>
      <trkpt lat="42.85505" lon="0.26876">
        <ele>1467.9</ele>
        <time>2022-02-09T07:56:36Z</time>
      </trkpt>
      <trkpt lat="42.85506" lon="0.26876">
        <ele>1467.9</ele>
        <time>2022-02-09T07:56:37Z</time>
      </trkpt>
      <trkpt lat="42.85506" lon="0.26876">
        <ele>1467.9</ele>
        <time>2022-02-09T07:56:38Z</time>
      </trkpt>
      <trkpt lat="42.85506" lon="0.26876">
        <ele>1467.9</ele>
        <time>2022-02-09T07:56:39Z</time>
      </trkpt>
      <trkpt lat="42.85506" lon="0.26876">
        <ele>1467.9</ele>
        <time>2022-02-09T07:56:40Z</time>
      </trkpt>
      <trkpt lat="42.85506" lon="0.26876">
        <ele>1467.9</ele>
        <time>2022-02-09T07:56:41Z</time>
      </trkpt>
      <trkpt lat="42.85506" lon="0.26876">
        <ele>1467.9</ele>
        <time>2022-02-09T07:56:42Z</time>
      </trkpt>
      <trkpt lat="42.85506" lon="0.26876">
        <ele>1467.9</ele>
        <time>2022-02-09T07:56:43Z</time>
      </trkpt>
      <trkpt lat="42.85506" lon="0.26876">
        <ele>1467.9</ele>
        <time>2022-02-09T07:56:44Z</time>
      </trkpt>
      <trkpt lat="42.85506" lon="0.26876">
        <ele>1467.9</ele>
        <time>2022-02-09T07:56:45Z</time>
      </trkpt>
      <trkpt lat="42.85506" lon="0.26876">
        <ele>1467.9</ele>
        <time>2022-02-09T07:56:46Z</time>
      </trkpt>
      <trkpt lat="42.85506" lon="0.26876">
        <ele>1467.9</ele>
        <time>2022-02-09T07:56:47Z</time>
      </trkpt>
      <trkpt lat="42.85506" lon="0.26876">
        <ele>1467.9</ele>
        <time>2022-02-09T07:56:48Z</time>
      </trkpt>
      <trkpt lat="42.85506" lon="0.26876">
        <ele>1467.9</ele>
        <time>2022-02-09T07:56:49Z</time>
      </trkpt>
      <trkpt lat="42.85506" lon="0.26876">
        <ele>1467.9</ele>
        <time>2022-02-09T07:56:50Z</time>
      </trkpt>
      <trkpt lat="42.85506" lon="0.26876">
        <ele>1467.9</ele>
        <time>2022-02-09T07:56:51Z</time>
      </trkpt>
      <trkpt lat="42.85506" lon="0.26876">
        <ele>1467.9</ele>
        <time>2022-02-09T07:56:52Z</time>
      </trkpt>
      <trkpt lat="42.85506" lon="0.26876">
        <ele>1467.9</ele>
        <time>2022-02-09T07:56:53Z</time>
      </trkpt>
      <trkpt lat="42.85506" lon="0.26876">
        <ele>1467.9</ele>
        <time>2022-02-09T07:56:54Z</time>
      </trkpt>
      <trkpt lat="42.85506" lon="0.26876">
        <ele>1467.9</ele>
        <time>2022-02-09T07:56:55Z</time>
      </trkpt>
      <trkpt lat="42.85506" lon="0.26876">
        <ele>1467.9</ele>
        <time>2022-02-09T07:56:56Z</time>
      </trkpt>
      <trkpt lat="42.85506" lon="0.26876">
        <ele>1467.9</ele>
        <time>2022-02-09T07:56:57Z</time>
      </trkpt>
      <trkpt lat="42.85506" lon="0.26876">
        <ele>1467.9</ele>
        <time>2022-02-09T07:56:58Z</time>
      </trkpt>
      <trkpt lat="42.85506" lon="0.26876">
        <ele>1467.9</ele>
        <time>2022-02-09T07:56:59Z</time>
      </trkpt>
      <trkpt lat="42.85506" lon="0.26876">
        <ele>1467.9</ele>
        <time>2022-02-09T07:57:00Z</time>
      </trkpt>
      <trkpt lat="42.85506" lon="0.26876">
        <ele>1467.9</ele>
        <time>2022-02-09T07:57:01Z</time>
      </trkpt>
      <trkpt lat="42.85506" lon="0.26876">
        <ele>1467.9</ele>
        <time>2022-02-09T07:57:02Z</time>
      </trkpt>
      <trkpt lat="42.85506" lon="0.26876">
        <ele>1467.9</ele>
        <time>2022-02-09T07:57:03Z</time>
      </trkpt>
      <trkpt lat="42.85507" lon="0.26875">
        <ele>1467.9</ele>
        <time>2022-02-09T07:57:04Z</time>
      </trkpt>
      <trkpt lat="42.85507" lon="0.26875">
        <ele>1467.9</ele>
        <time>2022-02-09T07:57:05Z</time>
      </trkpt>
      <trkpt lat="42.85508" lon="0.26875">
        <ele>1468.9</ele>
        <time>2022-02-09T07:57:06Z</time>
      </trkpt>
      <trkpt lat="42.85509" lon="0.26874">
        <ele>1468.9</ele>
        <time>2022-02-09T07:57:07Z</time>
      </trkpt>
      <trkpt lat="42.85509" lon="0.26874">
        <ele>1469.1</ele>
        <time>2022-02-09T07:57:08Z</time>
      </trkpt>
      <trkpt lat="42.8551" lon="0.26873">
        <ele>1469.1</ele>
        <time>2022-02-09T07:57:09Z</time>
      </trkpt>
      <trkpt lat="42.8551" lon="0.26873">
        <ele>1469.1</ele>
        <time>2022-02-09T07:57:10Z</time>
      </trkpt>
      <trkpt lat="42.85511" lon="0.26872">
        <ele>1469.1</ele>
        <time>2022-02-09T07:57:11Z</time>
      </trkpt>
      <trkpt lat="42.85511" lon="0.26872">
        <ele>1470.1</ele>
        <time>2022-02-09T07:57:12Z</time>
      </trkpt>
      <trkpt lat="42.85512" lon="0.26872">
        <ele>1470.1</ele>
        <time>2022-02-09T07:57:13Z</time>
      </trkpt>
      <trkpt lat="42.85513" lon="0.26871">
        <ele>1470.1</ele>
        <time>2022-02-09T07:57:14Z</time>
      </trkpt>
      <trkpt lat="42.85514" lon="0.26871">
        <ele>1470.1</ele>
        <time>2022-02-09T07:57:15Z</time>
      </trkpt>
      <trkpt lat="42.85514" lon="0.26871">
        <ele>1471</ele>
        <time>2022-02-09T07:57:16Z</time>
      </trkpt>
      <trkpt lat="42.85515" lon="0.2687">
        <ele>1471</ele>
        <time>2022-02-09T07:57:17Z</time>
      </trkpt>
      <trkpt lat="42.85516" lon="0.2687">
        <ele>1471</ele>
        <time>2022-02-09T07:57:18Z</time>
      </trkpt>
      <trkpt lat="42.85516" lon="0.2687">
        <ele>1471</ele>
        <time>2022-02-09T07:57:19Z</time>
      </trkpt>
      <trkpt lat="42.85517" lon="0.2687">
        <ele>1471</ele>
        <time>2022-02-09T07:57:20Z</time>
      </trkpt>
      <trkpt lat="42.85518" lon="0.26869">
        <ele>1472</ele>
        <time>2022-02-09T07:57:21Z</time>
      </trkpt>
      <trkpt lat="42.85518" lon="0.26869">
        <ele>1472.2</ele>
        <time>2022-02-09T07:57:22Z</time>
      </trkpt>
      <trkpt lat="42.85519" lon="0.26869">
        <ele>1472.2</ele>
        <time>2022-02-09T07:57:23Z</time>
      </trkpt>
      <trkpt lat="42.8552" lon="0.26868">
        <ele>1472.2</ele>
        <time>2022-02-09T07:57:24Z</time>
      </trkpt>
      <trkpt lat="42.85521" lon="0.26868">
        <ele>1473.3</ele>
        <time>2022-02-09T07:57:25Z</time>
      </trkpt>
      <trkpt lat="42.85521" lon="0.26868">
        <ele>1473.3</ele>
        <time>2022-02-09T07:57:26Z</time>
      </trkpt>
      <trkpt lat="42.85522" lon="0.26867">
        <ele>1473.3</ele>
        <time>2022-02-09T07:57:27Z</time>
      </trkpt>
      <trkpt lat="42.85523" lon="0.26867">
        <ele>1473.3</ele>
        <time>2022-02-09T07:57:28Z</time>
      </trkpt>
      <trkpt lat="42.85524" lon="0.26867">
        <ele>1474.3</ele>
        <time>2022-02-09T07:57:29Z</time>
      </trkpt>
      <trkpt lat="42.85524" lon="0.26867">
        <ele>1474.3</ele>
        <time>2022-02-09T07:57:30Z</time>
      </trkpt>
      <trkpt lat="42.85525" lon="0.26867">
        <ele>1474.3</ele>
        <time>2022-02-09T07:57:31Z</time>
      </trkpt>
      <trkpt lat="42.85526" lon="0.26867">
        <ele>1474.3</ele>
        <time>2022-02-09T07:57:32Z</time>
      </trkpt>
      <trkpt lat="42.85527" lon="0.26867">
        <ele>1474.3</ele>
        <time>2022-02-09T07:57:33Z</time>
      </trkpt>
      <trkpt lat="42.85527" lon="0.26867">
        <ele>1475.4</ele>
        <time>2022-02-09T07:57:34Z</time>
      </trkpt>
      <trkpt lat="42.85528" lon="0.26867">
        <ele>1475.4</ele>
        <time>2022-02-09T07:57:35Z</time>
      </trkpt>
      <trkpt lat="42.85528" lon="0.26867">
        <ele>1475.4</ele>
        <time>2022-02-09T07:57:36Z</time>
      </trkpt>
      <trkpt lat="42.85529" lon="0.26867">
        <ele>1475.4</ele>
        <time>2022-02-09T07:57:37Z</time>
      </trkpt>
      <trkpt lat="42.85529" lon="0.26867">
        <ele>1475.4</ele>
        <time>2022-02-09T07:57:38Z</time>
      </trkpt>
      <trkpt lat="42.85529" lon="0.26867">
        <ele>1475.4</ele>
        <time>2022-02-09T07:57:39Z</time>
      </trkpt>
      <trkpt lat="42.85529" lon="0.26867">
        <ele>1475.4</ele>
        <time>2022-02-09T07:57:40Z</time>
      </trkpt>
      <trkpt lat="42.85529" lon="0.26867">
        <ele>1475.4</ele>
        <time>2022-02-09T07:57:41Z</time>
      </trkpt>
      <trkpt lat="42.85529" lon="0.26866">
        <ele>1475.4</ele>
        <time>2022-02-09T07:57:42Z</time>
      </trkpt>
      <trkpt lat="42.8553" lon="0.26866">
        <ele>1476.6</ele>
        <time>2022-02-09T07:57:43Z</time>
      </trkpt>
      <trkpt lat="42.85531" lon="0.26865">
        <ele>1476.6</ele>
        <time>2022-02-09T07:57:44Z</time>
      </trkpt>
      <trkpt lat="42.85532" lon="0.26865">
        <ele>1476.7</ele>
        <time>2022-02-09T07:57:45Z</time>
      </trkpt>
      <trkpt lat="42.85532" lon="0.26865">
        <ele>1476.7</ele>
        <time>2022-02-09T07:57:46Z</time>
      </trkpt>
      <trkpt lat="42.85533" lon="0.26865">
        <ele>1477.9</ele>
        <time>2022-02-09T07:57:47Z</time>
      </trkpt>
      <trkpt lat="42.85534" lon="0.26864">
        <ele>1477.9</ele>
        <time>2022-02-09T07:57:48Z</time>
      </trkpt>
      <trkpt lat="42.85534" lon="0.26864">
        <ele>1477.9</ele>
        <time>2022-02-09T07:57:49Z</time>
      </trkpt>
      <trkpt lat="42.85535" lon="0.26864">
        <ele>1477.9</ele>
        <time>2022-02-09T07:57:50Z</time>
      </trkpt>
      <trkpt lat="42.85536" lon="0.26863">
        <ele>1477.9</ele>
        <time>2022-02-09T07:57:51Z</time>
      </trkpt>
      <trkpt lat="42.85537" lon="0.26863">
        <ele>1479</ele>
        <time>2022-02-09T07:57:52Z</time>
      </trkpt>
      <trkpt lat="42.85537" lon="0.26862">
        <ele>1479</ele>
        <time>2022-02-09T07:57:53Z</time>
      </trkpt>
      <trkpt lat="42.85538" lon="0.26862">
        <ele>1479</ele>
        <time>2022-02-09T07:57:54Z</time>
      </trkpt>
      <trkpt lat="42.85538" lon="0.26862">
        <ele>1479</ele>
        <time>2022-02-09T07:57:55Z</time>
      </trkpt>
      <trkpt lat="42.85539" lon="0.26862">
        <ele>1479</ele>
        <time>2022-02-09T07:57:56Z</time>
      </trkpt>
      <trkpt lat="42.8554" lon="0.26861">
        <ele>1480</ele>
        <time>2022-02-09T07:57:57Z</time>
      </trkpt>
      <trkpt lat="42.85541" lon="0.26861">
        <ele>1480</ele>
        <time>2022-02-09T07:57:58Z</time>
      </trkpt>
      <trkpt lat="42.85541" lon="0.26861">
        <ele>1480.2</ele>
        <time>2022-02-09T07:57:59Z</time>
      </trkpt>
      <trkpt lat="42.85542" lon="0.2686">
        <ele>1480.2</ele>
        <time>2022-02-09T07:58:00Z</time>
      </trkpt>
      <trkpt lat="42.85543" lon="0.2686">
        <ele>1481.2</ele>
        <time>2022-02-09T07:58:01Z</time>
      </trkpt>
      <trkpt lat="42.85543" lon="0.26859">
        <ele>1481.2</ele>
        <time>2022-02-09T07:58:02Z</time>
      </trkpt>
      <trkpt lat="42.85544" lon="0.26859">
        <ele>1481.2</ele>
        <time>2022-02-09T07:58:03Z</time>
      </trkpt>
      <trkpt lat="42.85545" lon="0.26859">
        <ele>1481.2</ele>
        <time>2022-02-09T07:58:04Z</time>
      </trkpt>
      <trkpt lat="42.85546" lon="0.26858">
        <ele>1482.2</ele>
        <time>2022-02-09T07:58:05Z</time>
      </trkpt>
      <trkpt lat="42.85546" lon="0.26858">
        <ele>1482.2</ele>
        <time>2022-02-09T07:58:06Z</time>
      </trkpt>
      <trkpt lat="42.85547" lon="0.26858">
        <ele>1482.2</ele>
        <time>2022-02-09T07:58:07Z</time>
      </trkpt>
      <trkpt lat="42.85548" lon="0.26858">
        <ele>1482.2</ele>
        <time>2022-02-09T07:58:08Z</time>
      </trkpt>
      <trkpt lat="42.85549" lon="0.26858">
        <ele>1482.2</ele>
        <time>2022-02-09T07:58:09Z</time>
      </trkpt>
      <trkpt lat="42.85549" lon="0.26858">
        <ele>1483.3</ele>
        <time>2022-02-09T07:58:10Z</time>
      </trkpt>
      <trkpt lat="42.8555" lon="0.26857">
        <ele>1483.3</ele>
        <time>2022-02-09T07:58:11Z</time>
      </trkpt>
      <trkpt lat="42.85551" lon="0.26857">
        <ele>1483.3</ele>
        <time>2022-02-09T07:58:12Z</time>
      </trkpt>
      <trkpt lat="42.85551" lon="0.26856">
        <ele>1483.4</ele>
        <time>2022-02-09T07:58:13Z</time>
      </trkpt>
      <trkpt lat="42.85552" lon="0.26856">
        <ele>1483.4</ele>
        <time>2022-02-09T07:58:14Z</time>
      </trkpt>
      <trkpt lat="42.85552" lon="0.26855">
        <ele>1484.5</ele>
        <time>2022-02-09T07:58:15Z</time>
      </trkpt>
      <trkpt lat="42.85553" lon="0.26855">
        <ele>1484.5</ele>
        <time>2022-02-09T07:58:16Z</time>
      </trkpt>
      <trkpt lat="42.85554" lon="0.26854">
        <ele>1484.5</ele>
        <time>2022-02-09T07:58:17Z</time>
      </trkpt>
      <trkpt lat="42.85554" lon="0.26853">
        <ele>1484.5</ele>
        <time>2022-02-09T07:58:18Z</time>
      </trkpt>
      <trkpt lat="42.85555" lon="0.26853">
        <ele>1484.5</ele>
        <time>2022-02-09T07:58:19Z</time>
      </trkpt>
      <trkpt lat="42.85555" lon="0.26852">
        <ele>1485.8</ele>
        <time>2022-02-09T07:58:20Z</time>
      </trkpt>
      <trkpt lat="42.85556" lon="0.26851">
        <ele>1485.8</ele>
        <time>2022-02-09T07:58:21Z</time>
      </trkpt>
      <trkpt lat="42.85556" lon="0.2685">
        <ele>1485.8</ele>
        <time>2022-02-09T07:58:22Z</time>
      </trkpt>
      <trkpt lat="42.85556" lon="0.26849">
        <ele>1485.8</ele>
        <time>2022-02-09T07:58:23Z</time>
      </trkpt>
      <trkpt lat="42.85556" lon="0.26848">
        <ele>1485.8</ele>
        <time>2022-02-09T07:58:24Z</time>
      </trkpt>
      <trkpt lat="42.85556" lon="0.26847">
        <ele>1485.9</ele>
        <time>2022-02-09T07:58:25Z</time>
      </trkpt>
      <trkpt lat="42.85556" lon="0.26846">
        <ele>1485.9</ele>
        <time>2022-02-09T07:58:26Z</time>
      </trkpt>
      <trkpt lat="42.85556" lon="0.26845">
        <ele>1485.9</ele>
        <time>2022-02-09T07:58:27Z</time>
      </trkpt>
      <trkpt lat="42.85557" lon="0.26844">
        <ele>1485.9</ele>
        <time>2022-02-09T07:58:28Z</time>
      </trkpt>
      <trkpt lat="42.85557" lon="0.26843">
        <ele>1485.9</ele>
        <time>2022-02-09T07:58:29Z</time>
      </trkpt>
      <trkpt lat="42.85558" lon="0.26843">
        <ele>1485.9</ele>
        <time>2022-02-09T07:58:30Z</time>
      </trkpt>
      <trkpt lat="42.85558" lon="0.26842">
        <ele>1485.9</ele>
        <time>2022-02-09T07:58:31Z</time>
      </trkpt>
      <trkpt lat="42.85559" lon="0.26842">
        <ele>1487.1</ele>
        <time>2022-02-09T07:58:32Z</time>
      </trkpt>
      <trkpt lat="42.85559" lon="0.26842">
        <ele>1487.1</ele>
        <time>2022-02-09T07:58:33Z</time>
      </trkpt>
      <trkpt lat="42.8556" lon="0.26841">
        <ele>1487.1</ele>
        <time>2022-02-09T07:58:34Z</time>
      </trkpt>
      <trkpt lat="42.8556" lon="0.2684">
        <ele>1487.1</ele>
        <time>2022-02-09T07:58:35Z</time>
      </trkpt>
      <trkpt lat="42.8556" lon="0.26839">
        <ele>1487.2</ele>
        <time>2022-02-09T07:58:36Z</time>
      </trkpt>
      <trkpt lat="42.85561" lon="0.26838">
        <ele>1487.2</ele>
        <time>2022-02-09T07:58:37Z</time>
      </trkpt>
      <trkpt lat="42.85561" lon="0.26838">
        <ele>1487.2</ele>
        <time>2022-02-09T07:58:38Z</time>
      </trkpt>
      <trkpt lat="42.85561" lon="0.26837">
        <ele>1487.2</ele>
        <time>2022-02-09T07:58:39Z</time>
      </trkpt>
      <trkpt lat="42.85562" lon="0.26836">
        <ele>1488.3</ele>
        <time>2022-02-09T07:58:40Z</time>
      </trkpt>
      <trkpt lat="42.85562" lon="0.26835">
        <ele>1488.3</ele>
        <time>2022-02-09T07:58:41Z</time>
      </trkpt>
      <trkpt lat="42.85562" lon="0.26834">
        <ele>1488.4</ele>
        <time>2022-02-09T07:58:42Z</time>
      </trkpt>
      <trkpt lat="42.85563" lon="0.26834">
        <ele>1488.4</ele>
        <time>2022-02-09T07:58:43Z</time>
      </trkpt>
      <trkpt lat="42.85563" lon="0.26833">
        <ele>1488.4</ele>
        <time>2022-02-09T07:58:44Z</time>
      </trkpt>
      <trkpt lat="42.85564" lon="0.26832">
        <ele>1488.4</ele>
        <time>2022-02-09T07:58:45Z</time>
      </trkpt>
      <trkpt lat="42.85565" lon="0.26832">
        <ele>1489.5</ele>
        <time>2022-02-09T07:58:46Z</time>
      </trkpt>
      <trkpt lat="42.85565" lon="0.26831">
        <ele>1489.5</ele>
        <time>2022-02-09T07:58:47Z</time>
      </trkpt>
      <trkpt lat="42.85566" lon="0.26831">
        <ele>1489.5</ele>
        <time>2022-02-09T07:58:48Z</time>
      </trkpt>
      <trkpt lat="42.85567" lon="0.2683">
        <ele>1489.5</ele>
        <time>2022-02-09T07:58:49Z</time>
      </trkpt>
      <trkpt lat="42.85567" lon="0.2683">
        <ele>1489.5</ele>
        <time>2022-02-09T07:58:50Z</time>
      </trkpt>
      <trkpt lat="42.85568" lon="0.26829">
        <ele>1490.5</ele>
        <time>2022-02-09T07:58:51Z</time>
      </trkpt>
      <trkpt lat="42.85569" lon="0.26829">
        <ele>1490.5</ele>
        <time>2022-02-09T07:58:52Z</time>
      </trkpt>
      <trkpt lat="42.8557" lon="0.26829">
        <ele>1490.5</ele>
        <time>2022-02-09T07:58:53Z</time>
      </trkpt>
      <trkpt lat="42.85571" lon="0.26829">
        <ele>1490.5</ele>
        <time>2022-02-09T07:58:54Z</time>
      </trkpt>
      <trkpt lat="42.85571" lon="0.26828">
        <ele>1491.4</ele>
        <time>2022-02-09T07:58:55Z</time>
      </trkpt>
      <trkpt lat="42.85572" lon="0.26828">
        <ele>1491.4</ele>
        <time>2022-02-09T07:58:56Z</time>
      </trkpt>
      <trkpt lat="42.85573" lon="0.26828">
        <ele>1491.4</ele>
        <time>2022-02-09T07:58:57Z</time>
      </trkpt>
      <trkpt lat="42.85573" lon="0.26828">
        <ele>1491.4</ele>
        <time>2022-02-09T07:58:58Z</time>
      </trkpt>
      <trkpt lat="42.85574" lon="0.26828">
        <ele>1492.4</ele>
        <time>2022-02-09T07:58:59Z</time>
      </trkpt>
      <trkpt lat="42.85575" lon="0.26828">
        <ele>1492.4</ele>
        <time>2022-02-09T07:59:00Z</time>
      </trkpt>
      <trkpt lat="42.85575" lon="0.26828">
        <ele>1492.4</ele>
        <time>2022-02-09T07:59:01Z</time>
      </trkpt>
      <trkpt lat="42.85576" lon="0.26827">
        <ele>1492.4</ele>
        <time>2022-02-09T07:59:02Z</time>
      </trkpt>
      <trkpt lat="42.85577" lon="0.26827">
        <ele>1492.4</ele>
        <time>2022-02-09T07:59:03Z</time>
      </trkpt>
      <trkpt lat="42.85577" lon="0.26826">
        <ele>1493.5</ele>
        <time>2022-02-09T07:59:04Z</time>
      </trkpt>
      <trkpt lat="42.85578" lon="0.26826">
        <ele>1493.5</ele>
        <time>2022-02-09T07:59:05Z</time>
      </trkpt>
      <trkpt lat="42.85579" lon="0.26826">
        <ele>1493.5</ele>
        <time>2022-02-09T07:59:06Z</time>
      </trkpt>
      <trkpt lat="42.85579" lon="0.26825">
        <ele>1493.5</ele>
        <time>2022-02-09T07:59:07Z</time>
      </trkpt>
      <trkpt lat="42.8558" lon="0.26824">
        <ele>1493.5</ele>
        <time>2022-02-09T07:59:08Z</time>
      </trkpt>
      <trkpt lat="42.8558" lon="0.26823">
        <ele>1493.5</ele>
        <time>2022-02-09T07:59:09Z</time>
      </trkpt>
      <trkpt lat="42.8558" lon="0.26823">
        <ele>1494.6</ele>
        <time>2022-02-09T07:59:10Z</time>
      </trkpt>
      <trkpt lat="42.85581" lon="0.26822">
        <ele>1494.6</ele>
        <time>2022-02-09T07:59:11Z</time>
      </trkpt>
      <trkpt lat="42.85581" lon="0.26821">
        <ele>1494.6</ele>
        <time>2022-02-09T07:59:12Z</time>
      </trkpt>
      <trkpt lat="42.85581" lon="0.2682">
        <ele>1494.6</ele>
        <time>2022-02-09T07:59:13Z</time>
      </trkpt>
      <trkpt lat="42.85582" lon="0.26819">
        <ele>1494.6</ele>
        <time>2022-02-09T07:59:14Z</time>
      </trkpt>
      <trkpt lat="42.85582" lon="0.26819">
        <ele>1494.6</ele>
        <time>2022-02-09T07:59:15Z</time>
      </trkpt>
      <trkpt lat="42.85583" lon="0.26818">
        <ele>1494.6</ele>
        <time>2022-02-09T07:59:16Z</time>
      </trkpt>
      <trkpt lat="42.85583" lon="0.26817">
        <ele>1494.7</ele>
        <time>2022-02-09T07:59:17Z</time>
      </trkpt>
      <trkpt lat="42.85584" lon="0.26817">
        <ele>1495.8</ele>
        <time>2022-02-09T07:59:18Z</time>
      </trkpt>
      <trkpt lat="42.85584" lon="0.26816">
        <ele>1495.8</ele>
        <time>2022-02-09T07:59:19Z</time>
      </trkpt>
      <trkpt lat="42.85585" lon="0.26816">
        <ele>1495.8</ele>
        <time>2022-02-09T07:59:20Z</time>
      </trkpt>
      <trkpt lat="42.85585" lon="0.26815">
        <ele>1495.8</ele>
        <time>2022-02-09T07:59:21Z</time>
      </trkpt>
      <trkpt lat="42.85586" lon="0.26815">
        <ele>1495.8</ele>
        <time>2022-02-09T07:59:22Z</time>
      </trkpt>
      <trkpt lat="42.85586" lon="0.26814">
        <ele>1495.8</ele>
        <time>2022-02-09T07:59:23Z</time>
      </trkpt>
      <trkpt lat="42.85586" lon="0.26813">
        <ele>1495.9</ele>
        <time>2022-02-09T07:59:24Z</time>
      </trkpt>
      <trkpt lat="42.85587" lon="0.26813">
        <ele>1497</ele>
        <time>2022-02-09T07:59:25Z</time>
      </trkpt>
      <trkpt lat="42.85587" lon="0.26812">
        <ele>1497</ele>
        <time>2022-02-09T07:59:26Z</time>
      </trkpt>
      <trkpt lat="42.85588" lon="0.26812">
        <ele>1497</ele>
        <time>2022-02-09T07:59:27Z</time>
      </trkpt>
      <trkpt lat="42.85588" lon="0.26811">
        <ele>1497</ele>
        <time>2022-02-09T07:59:28Z</time>
      </trkpt>
      <trkpt lat="42.85588" lon="0.2681">
        <ele>1497</ele>
        <time>2022-02-09T07:59:29Z</time>
      </trkpt>
      <trkpt lat="42.85589" lon="0.2681">
        <ele>1497</ele>
        <time>2022-02-09T07:59:30Z</time>
      </trkpt>
      <trkpt lat="42.85589" lon="0.26809">
        <ele>1497.1</ele>
        <time>2022-02-09T07:59:31Z</time>
      </trkpt>
      <trkpt lat="42.85589" lon="0.26808">
        <ele>1497.1</ele>
        <time>2022-02-09T07:59:32Z</time>
      </trkpt>
      <trkpt lat="42.8559" lon="0.26808">
        <ele>1498.1</ele>
        <time>2022-02-09T07:59:33Z</time>
      </trkpt>
      <trkpt lat="42.8559" lon="0.26807">
        <ele>1498.1</ele>
        <time>2022-02-09T07:59:34Z</time>
      </trkpt>
      <trkpt lat="42.85591" lon="0.26806">
        <ele>1498.1</ele>
        <time>2022-02-09T07:59:35Z</time>
      </trkpt>
      <trkpt lat="42.85591" lon="0.26806">
        <ele>1498.1</ele>
        <time>2022-02-09T07:59:36Z</time>
      </trkpt>
      <trkpt lat="42.85591" lon="0.26805">
        <ele>1498.2</ele>
        <time>2022-02-09T07:59:37Z</time>
      </trkpt>
      <trkpt lat="42.85591" lon="0.26804">
        <ele>1498.2</ele>
        <time>2022-02-09T07:59:38Z</time>
      </trkpt>
      <trkpt lat="42.85592" lon="0.26803">
        <ele>1498.2</ele>
        <time>2022-02-09T07:59:39Z</time>
      </trkpt>
      <trkpt lat="42.85592" lon="0.26802">
        <ele>1498.2</ele>
        <time>2022-02-09T07:59:40Z</time>
      </trkpt>
      <trkpt lat="42.85592" lon="0.26801">
        <ele>1498.2</ele>
        <time>2022-02-09T07:59:41Z</time>
      </trkpt>
      <trkpt lat="42.85592" lon="0.268">
        <ele>1498.3</ele>
        <time>2022-02-09T07:59:42Z</time>
      </trkpt>
      <trkpt lat="42.85592" lon="0.26799">
        <ele>1498.3</ele>
        <time>2022-02-09T07:59:43Z</time>
      </trkpt>
      <trkpt lat="42.85592" lon="0.26798">
        <ele>1498.3</ele>
        <time>2022-02-09T07:59:44Z</time>
      </trkpt>
      <trkpt lat="42.85592" lon="0.26797">
        <ele>1498.3</ele>
        <time>2022-02-09T07:59:45Z</time>
      </trkpt>
      <trkpt lat="42.85592" lon="0.26796">
        <ele>1498.4</ele>
        <time>2022-02-09T07:59:46Z</time>
      </trkpt>
      <trkpt lat="42.85592" lon="0.26796">
        <ele>1498.4</ele>
        <time>2022-02-09T07:59:47Z</time>
      </trkpt>
      <trkpt lat="42.85592" lon="0.26795">
        <ele>1498.4</ele>
        <time>2022-02-09T07:59:48Z</time>
      </trkpt>
      <trkpt lat="42.85593" lon="0.26794">
        <ele>1498.4</ele>
        <time>2022-02-09T07:59:49Z</time>
      </trkpt>
      <trkpt lat="42.85593" lon="0.26794">
        <ele>1499.5</ele>
        <time>2022-02-09T07:59:50Z</time>
      </trkpt>
      <trkpt lat="42.85594" lon="0.26794">
        <ele>1499.5</ele>
        <time>2022-02-09T07:59:51Z</time>
      </trkpt>
      <trkpt lat="42.85594" lon="0.26793">
        <ele>1499.5</ele>
        <time>2022-02-09T07:59:52Z</time>
      </trkpt>
      <trkpt lat="42.85595" lon="0.26793">
        <ele>1499.5</ele>
        <time>2022-02-09T07:59:53Z</time>
      </trkpt>
      <trkpt lat="42.85596" lon="0.26793">
        <ele>1499.6</ele>
        <time>2022-02-09T07:59:54Z</time>
      </trkpt>
      <trkpt lat="42.85596" lon="0.26793">
        <ele>1500.5</ele>
        <time>2022-02-09T07:59:55Z</time>
      </trkpt>
      <trkpt lat="42.85597" lon="0.26792">
        <ele>1500.5</ele>
        <time>2022-02-09T07:59:56Z</time>
      </trkpt>
      <trkpt lat="42.85597" lon="0.26792">
        <ele>1500.7</ele>
        <time>2022-02-09T07:59:57Z</time>
      </trkpt>
      <trkpt lat="42.85598" lon="0.26792">
        <ele>1500.7</ele>
        <time>2022-02-09T07:59:58Z</time>
      </trkpt>
      <trkpt lat="42.85598" lon="0.26791">
        <ele>1500.7</ele>
        <time>2022-02-09T07:59:59Z</time>
      </trkpt>
      <trkpt lat="42.85599" lon="0.26791">
        <ele>1501.7</ele>
        <time>2022-02-09T08:00:00Z</time>
      </trkpt>
      <trkpt lat="42.856" lon="0.26791">
        <ele>1501.8</ele>
        <time>2022-02-09T08:00:01Z</time>
      </trkpt>
      <trkpt lat="42.856" lon="0.2679">
        <ele>1501.8</ele>
        <time>2022-02-09T08:00:02Z</time>
      </trkpt>
      <trkpt lat="42.85601" lon="0.2679">
        <ele>1501.8</ele>
        <time>2022-02-09T08:00:03Z</time>
      </trkpt>
      <trkpt lat="42.85602" lon="0.2679">
        <ele>1501.9</ele>
        <time>2022-02-09T08:00:04Z</time>
      </trkpt>
      <trkpt lat="42.85602" lon="0.2679">
        <ele>1503</ele>
        <time>2022-02-09T08:00:05Z</time>
      </trkpt>
      <trkpt lat="42.85603" lon="0.26789">
        <ele>1503</ele>
        <time>2022-02-09T08:00:06Z</time>
      </trkpt>
      <trkpt lat="42.85603" lon="0.26789">
        <ele>1503</ele>
        <time>2022-02-09T08:00:07Z</time>
      </trkpt>
      <trkpt lat="42.85604" lon="0.26788">
        <ele>1503.1</ele>
        <time>2022-02-09T08:00:08Z</time>
      </trkpt>
      <trkpt lat="42.85604" lon="0.26788">
        <ele>1503.1</ele>
        <time>2022-02-09T08:00:09Z</time>
      </trkpt>
      <trkpt lat="42.85605" lon="0.26788">
        <ele>1503.2</ele>
        <time>2022-02-09T08:00:10Z</time>
      </trkpt>
      <trkpt lat="42.85606" lon="0.26787">
        <ele>1504.4</ele>
        <time>2022-02-09T08:00:11Z</time>
      </trkpt>
      <trkpt lat="42.85606" lon="0.26787">
        <ele>1504.4</ele>
        <time>2022-02-09T08:00:12Z</time>
      </trkpt>
      <trkpt lat="42.85607" lon="0.26786">
        <ele>1504.4</ele>
        <time>2022-02-09T08:00:13Z</time>
      </trkpt>
      <trkpt lat="42.85607" lon="0.26786">
        <ele>1504.5</ele>
        <time>2022-02-09T08:00:14Z</time>
      </trkpt>
      <trkpt lat="42.85608" lon="0.26785">
        <ele>1504.5</ele>
        <time>2022-02-09T08:00:15Z</time>
      </trkpt>
      <trkpt lat="42.85608" lon="0.26785">
        <ele>1504.5</ele>
        <time>2022-02-09T08:00:16Z</time>
      </trkpt>
      <trkpt lat="42.85609" lon="0.26784">
        <ele>1505.7</ele>
        <time>2022-02-09T08:00:17Z</time>
      </trkpt>
      <trkpt lat="42.85609" lon="0.26784">
        <ele>1505.8</ele>
        <time>2022-02-09T08:00:18Z</time>
      </trkpt>
      <trkpt lat="42.8561" lon="0.26783">
        <ele>1505.9</ele>
        <time>2022-02-09T08:00:19Z</time>
      </trkpt>
      <trkpt lat="42.8561" lon="0.26782">
        <ele>1505.9</ele>
        <time>2022-02-09T08:00:20Z</time>
      </trkpt>
      <trkpt lat="42.8561" lon="0.26782">
        <ele>1506</ele>
        <time>2022-02-09T08:00:21Z</time>
      </trkpt>
      <trkpt lat="42.85611" lon="0.26781">
        <ele>1506</ele>
        <time>2022-02-09T08:00:22Z</time>
      </trkpt>
      <trkpt lat="42.85611" lon="0.2678">
        <ele>1506</ele>
        <time>2022-02-09T08:00:23Z</time>
      </trkpt>
      <trkpt lat="42.85611" lon="0.26779">
        <ele>1506</ele>
        <time>2022-02-09T08:00:24Z</time>
      </trkpt>
      <trkpt lat="42.85612" lon="0.26779">
        <ele>1506.2</ele>
        <time>2022-02-09T08:00:25Z</time>
      </trkpt>
      <trkpt lat="42.85612" lon="0.26778">
        <ele>1507.4</ele>
        <time>2022-02-09T08:00:26Z</time>
      </trkpt>
      <trkpt lat="42.85612" lon="0.26777">
        <ele>1507.4</ele>
        <time>2022-02-09T08:00:27Z</time>
      </trkpt>
      <trkpt lat="42.85613" lon="0.26777">
        <ele>1507.5</ele>
        <time>2022-02-09T08:00:28Z</time>
      </trkpt>
      <trkpt lat="42.85613" lon="0.26776">
        <ele>1507.5</ele>
        <time>2022-02-09T08:00:29Z</time>
      </trkpt>
      <trkpt lat="42.85613" lon="0.26775">
        <ele>1507.5</ele>
        <time>2022-02-09T08:00:30Z</time>
      </trkpt>
      <trkpt lat="42.85614" lon="0.26775">
        <ele>1507.6</ele>
        <time>2022-02-09T08:00:31Z</time>
      </trkpt>
      <trkpt lat="42.85614" lon="0.26774">
        <ele>1507.7</ele>
        <time>2022-02-09T08:00:32Z</time>
      </trkpt>
      <trkpt lat="42.85614" lon="0.26773">
        <ele>1507.7</ele>
        <time>2022-02-09T08:00:33Z</time>
      </trkpt>
      <trkpt lat="42.85614" lon="0.26772">
        <ele>1507.7</ele>
        <time>2022-02-09T08:00:34Z</time>
      </trkpt>
      <trkpt lat="42.85615" lon="0.26771">
        <ele>1507.8</ele>
        <time>2022-02-09T08:00:35Z</time>
      </trkpt>
      <trkpt lat="42.85615" lon="0.26771">
        <ele>1508.8</ele>
        <time>2022-02-09T08:00:36Z</time>
      </trkpt>
      <trkpt lat="42.85615" lon="0.2677">
        <ele>1509</ele>
        <time>2022-02-09T08:00:37Z</time>
      </trkpt>
      <trkpt lat="42.85615" lon="0.26769">
        <ele>1509.1</ele>
        <time>2022-02-09T08:00:38Z</time>
      </trkpt>
      <trkpt lat="42.85616" lon="0.26768">
        <ele>1509.1</ele>
        <time>2022-02-09T08:00:39Z</time>
      </trkpt>
      <trkpt lat="42.85616" lon="0.26767">
        <ele>1509.1</ele>
        <time>2022-02-09T08:00:40Z</time>
      </trkpt>
      <trkpt lat="42.85617" lon="0.26766">
        <ele>1509.1</ele>
        <time>2022-02-09T08:00:41Z</time>
      </trkpt>
      <trkpt lat="42.85617" lon="0.26766">
        <ele>1509.3</ele>
        <time>2022-02-09T08:00:42Z</time>
      </trkpt>
      <trkpt lat="42.85617" lon="0.26765">
        <ele>1509.3</ele>
        <time>2022-02-09T08:00:43Z</time>
      </trkpt>
      <trkpt lat="42.85618" lon="0.26765">
        <ele>1510.3</ele>
        <time>2022-02-09T08:00:44Z</time>
      </trkpt>
      <trkpt lat="42.85619" lon="0.26765">
        <ele>1510.4</ele>
        <time>2022-02-09T08:00:45Z</time>
      </trkpt>
      <trkpt lat="42.85619" lon="0.26765">
        <ele>1510.4</ele>
        <time>2022-02-09T08:00:46Z</time>
      </trkpt>
      <trkpt lat="42.8562" lon="0.26765">
        <ele>1510.4</ele>
        <time>2022-02-09T08:00:47Z</time>
      </trkpt>
      <trkpt lat="42.85621" lon="0.26764">
        <ele>1510.4</ele>
        <time>2022-02-09T08:00:48Z</time>
      </trkpt>
      <trkpt lat="42.85621" lon="0.26764">
        <ele>1511.5</ele>
        <time>2022-02-09T08:00:49Z</time>
      </trkpt>
      <trkpt lat="42.85622" lon="0.26764">
        <ele>1511.5</ele>
        <time>2022-02-09T08:00:50Z</time>
      </trkpt>
      <trkpt lat="42.85622" lon="0.26764">
        <ele>1511.5</ele>
        <time>2022-02-09T08:00:51Z</time>
      </trkpt>
      <trkpt lat="42.85623" lon="0.26764">
        <ele>1511.6</ele>
        <time>2022-02-09T08:00:52Z</time>
      </trkpt>
      <trkpt lat="42.85623" lon="0.26763">
        <ele>1511.6</ele>
        <time>2022-02-09T08:00:53Z</time>
      </trkpt>
      <trkpt lat="42.85624" lon="0.26762">
        <ele>1511.6</ele>
        <time>2022-02-09T08:00:54Z</time>
      </trkpt>
      <trkpt lat="42.85624" lon="0.26762">
        <ele>1511.8</ele>
        <time>2022-02-09T08:00:55Z</time>
      </trkpt>
      <trkpt lat="42.85624" lon="0.26761">
        <ele>1511.8</ele>
        <time>2022-02-09T08:00:56Z</time>
      </trkpt>
      <trkpt lat="42.85624" lon="0.2676">
        <ele>1512.8</ele>
        <time>2022-02-09T08:00:57Z</time>
      </trkpt>
      <trkpt lat="42.85624" lon="0.26759">
        <ele>1512.8</ele>
        <time>2022-02-09T08:00:58Z</time>
      </trkpt>
      <trkpt lat="42.85625" lon="0.26759">
        <ele>1512.9</ele>
        <time>2022-02-09T08:00:59Z</time>
      </trkpt>
      <trkpt lat="42.85625" lon="0.26758">
        <ele>1513.1</ele>
        <time>2022-02-09T08:01:00Z</time>
      </trkpt>
      <trkpt lat="42.85626" lon="0.26757">
        <ele>1513.1</ele>
        <time>2022-02-09T08:01:01Z</time>
      </trkpt>
      <trkpt lat="42.85626" lon="0.26756">
        <ele>1513.2</ele>
        <time>2022-02-09T08:01:02Z</time>
      </trkpt>
      <trkpt lat="42.85626" lon="0.26755">
        <ele>1513.2</ele>
        <time>2022-02-09T08:01:03Z</time>
      </trkpt>
      <trkpt lat="42.85626" lon="0.26755">
        <ele>1513.2</ele>
        <time>2022-02-09T08:01:04Z</time>
      </trkpt>
      <trkpt lat="42.85627" lon="0.26754">
        <ele>1513.3</ele>
        <time>2022-02-09T08:01:05Z</time>
      </trkpt>
      <trkpt lat="42.85627" lon="0.26753">
        <ele>1513.6</ele>
        <time>2022-02-09T08:01:06Z</time>
      </trkpt>
      <trkpt lat="42.85628" lon="0.26753">
        <ele>1514.6</ele>
        <time>2022-02-09T08:01:07Z</time>
      </trkpt>
      <trkpt lat="42.85628" lon="0.26753">
        <ele>1514.6</ele>
        <time>2022-02-09T08:01:08Z</time>
      </trkpt>
      <trkpt lat="42.85629" lon="0.26752">
        <ele>1514.6</ele>
        <time>2022-02-09T08:01:09Z</time>
      </trkpt>
      <trkpt lat="42.85629" lon="0.26752">
        <ele>1514.7</ele>
        <time>2022-02-09T08:01:10Z</time>
      </trkpt>
      <trkpt lat="42.8563" lon="0.26752">
        <ele>1514.7</ele>
        <time>2022-02-09T08:01:11Z</time>
      </trkpt>
      <trkpt lat="42.8563" lon="0.26752">
        <ele>1514.7</ele>
        <time>2022-02-09T08:01:12Z</time>
      </trkpt>
      <trkpt lat="42.85631" lon="0.26752">
        <ele>1515.9</ele>
        <time>2022-02-09T08:01:13Z</time>
      </trkpt>
      <trkpt lat="42.85632" lon="0.26752">
        <ele>1515.9</ele>
        <time>2022-02-09T08:01:14Z</time>
      </trkpt>
      <trkpt lat="42.85632" lon="0.26752">
        <ele>1515.9</ele>
        <time>2022-02-09T08:01:15Z</time>
      </trkpt>
      <trkpt lat="42.85633" lon="0.26751">
        <ele>1516</ele>
        <time>2022-02-09T08:01:16Z</time>
      </trkpt>
      <trkpt lat="42.85633" lon="0.26751">
        <ele>1516</ele>
        <time>2022-02-09T08:01:17Z</time>
      </trkpt>
      <trkpt lat="42.85634" lon="0.26751">
        <ele>1517.2</ele>
        <time>2022-02-09T08:01:18Z</time>
      </trkpt>
      <trkpt lat="42.85635" lon="0.26751">
        <ele>1517.2</ele>
        <time>2022-02-09T08:01:19Z</time>
      </trkpt>
      <trkpt lat="42.85635" lon="0.2675">
        <ele>1517.3</ele>
        <time>2022-02-09T08:01:20Z</time>
      </trkpt>
      <trkpt lat="42.85636" lon="0.2675">
        <ele>1517.3</ele>
        <time>2022-02-09T08:01:21Z</time>
      </trkpt>
      <trkpt lat="42.85637" lon="0.2675">
        <ele>1517.3</ele>
        <time>2022-02-09T08:01:22Z</time>
      </trkpt>
      <trkpt lat="42.85637" lon="0.2675">
        <ele>1518.6</ele>
        <time>2022-02-09T08:01:23Z</time>
      </trkpt>
      <trkpt lat="42.85638" lon="0.2675">
        <ele>1518.6</ele>
        <time>2022-02-09T08:01:24Z</time>
      </trkpt>
      <trkpt lat="42.85638" lon="0.2675">
        <ele>1518.6</ele>
        <time>2022-02-09T08:01:25Z</time>
      </trkpt>
      <trkpt lat="42.85639" lon="0.26749">
        <ele>1518.6</ele>
        <time>2022-02-09T08:01:26Z</time>
      </trkpt>
      <trkpt lat="42.8564" lon="0.26749">
        <ele>1519</ele>
        <time>2022-02-09T08:01:27Z</time>
      </trkpt>
      <trkpt lat="42.8564" lon="0.26749">
        <ele>1520.2</ele>
        <time>2022-02-09T08:01:28Z</time>
      </trkpt>
      <trkpt lat="42.85641" lon="0.26748">
        <ele>1520.2</ele>
        <time>2022-02-09T08:01:29Z</time>
      </trkpt>
      <trkpt lat="42.85641" lon="0.26748">
        <ele>1520.2</ele>
        <time>2022-02-09T08:01:30Z</time>
      </trkpt>
      <trkpt lat="42.85642" lon="0.26747">
        <ele>1520.2</ele>
        <time>2022-02-09T08:01:31Z</time>
      </trkpt>
      <trkpt lat="42.85642" lon="0.26746">
        <ele>1520.2</ele>
        <time>2022-02-09T08:01:32Z</time>
      </trkpt>
      <trkpt lat="42.85643" lon="0.26746">
        <ele>1520.2</ele>
        <time>2022-02-09T08:01:33Z</time>
      </trkpt>
      <trkpt lat="42.85643" lon="0.26745">
        <ele>1521.4</ele>
        <time>2022-02-09T08:01:34Z</time>
      </trkpt>
      <trkpt lat="42.85644" lon="0.26745">
        <ele>1521.6</ele>
        <time>2022-02-09T08:01:35Z</time>
      </trkpt>
      <trkpt lat="42.85644" lon="0.26744">
        <ele>1521.6</ele>
        <time>2022-02-09T08:01:36Z</time>
      </trkpt>
      <trkpt lat="42.85644" lon="0.26743">
        <ele>1521.6</ele>
        <time>2022-02-09T08:01:37Z</time>
      </trkpt>
      <trkpt lat="42.85645" lon="0.26743">
        <ele>1521.6</ele>
        <time>2022-02-09T08:01:38Z</time>
      </trkpt>
      <trkpt lat="42.85646" lon="0.26742">
        <ele>1521.6</ele>
        <time>2022-02-09T08:01:39Z</time>
      </trkpt>
      <trkpt lat="42.85646" lon="0.26742">
        <ele>1521.6</ele>
        <time>2022-02-09T08:01:40Z</time>
      </trkpt>
      <trkpt lat="42.85647" lon="0.26741">
        <ele>1522.8</ele>
        <time>2022-02-09T08:01:41Z</time>
      </trkpt>
      <trkpt lat="42.85647" lon="0.2674">
        <ele>1523.1</ele>
        <time>2022-02-09T08:01:42Z</time>
      </trkpt>
      <trkpt lat="42.85647" lon="0.2674">
        <ele>1523.1</ele>
        <time>2022-02-09T08:01:43Z</time>
      </trkpt>
      <trkpt lat="42.85648" lon="0.26739">
        <ele>1523.1</ele>
        <time>2022-02-09T08:01:44Z</time>
      </trkpt>
      <trkpt lat="42.85649" lon="0.26739">
        <ele>1523.1</ele>
        <time>2022-02-09T08:01:45Z</time>
      </trkpt>
      <trkpt lat="42.85649" lon="0.26739">
        <ele>1523.1</ele>
        <time>2022-02-09T08:01:46Z</time>
      </trkpt>
      <trkpt lat="42.85649" lon="0.26738">
        <ele>1523.1</ele>
        <time>2022-02-09T08:01:47Z</time>
      </trkpt>
      <trkpt lat="42.8565" lon="0.26738">
        <ele>1524.2</ele>
        <time>2022-02-09T08:01:48Z</time>
      </trkpt>
      <trkpt lat="42.8565" lon="0.26737">
        <ele>1524.2</ele>
        <time>2022-02-09T08:01:49Z</time>
      </trkpt>
      <trkpt lat="42.85651" lon="0.26737">
        <ele>1524.2</ele>
        <time>2022-02-09T08:01:50Z</time>
      </trkpt>
      <trkpt lat="42.85651" lon="0.26736">
        <ele>1524.5</ele>
        <time>2022-02-09T08:01:51Z</time>
      </trkpt>
      <trkpt lat="42.85652" lon="0.26735">
        <ele>1524.5</ele>
        <time>2022-02-09T08:01:52Z</time>
      </trkpt>
      <trkpt lat="42.85652" lon="0.26735">
        <ele>1524.5</ele>
        <time>2022-02-09T08:01:53Z</time>
      </trkpt>
      <trkpt lat="42.85652" lon="0.26734">
        <ele>1524.5</ele>
        <time>2022-02-09T08:01:54Z</time>
      </trkpt>
      <trkpt lat="42.85652" lon="0.26733">
        <ele>1524.5</ele>
        <time>2022-02-09T08:01:55Z</time>
      </trkpt>
      <trkpt lat="42.85653" lon="0.26733">
        <ele>1525.6</ele>
        <time>2022-02-09T08:01:56Z</time>
      </trkpt>
      <trkpt lat="42.85653" lon="0.26732">
        <ele>1525.6</ele>
        <time>2022-02-09T08:01:57Z</time>
      </trkpt>
      <trkpt lat="42.85654" lon="0.26732">
        <ele>1526</ele>
        <time>2022-02-09T08:01:58Z</time>
      </trkpt>
      <trkpt lat="42.85654" lon="0.26731">
        <ele>1526</ele>
        <time>2022-02-09T08:01:59Z</time>
      </trkpt>
      <trkpt lat="42.85655" lon="0.26731">
        <ele>1526</ele>
        <time>2022-02-09T08:02:00Z</time>
      </trkpt>
      <trkpt lat="42.85655" lon="0.2673">
        <ele>1526</ele>
        <time>2022-02-09T08:02:01Z</time>
      </trkpt>
      <trkpt lat="42.85656" lon="0.26729">
        <ele>1527.1</ele>
        <time>2022-02-09T08:02:02Z</time>
      </trkpt>
      <trkpt lat="42.85656" lon="0.26729">
        <ele>1527.1</ele>
        <time>2022-02-09T08:02:03Z</time>
      </trkpt>
      <trkpt lat="42.85657" lon="0.26728">
        <ele>1527.1</ele>
        <time>2022-02-09T08:02:04Z</time>
      </trkpt>
      <trkpt lat="42.85657" lon="0.26727">
        <ele>1527.4</ele>
        <time>2022-02-09T08:02:05Z</time>
      </trkpt>
      <trkpt lat="42.85657" lon="0.26727">
        <ele>1527.4</ele>
        <time>2022-02-09T08:02:06Z</time>
      </trkpt>
      <trkpt lat="42.85658" lon="0.26726">
        <ele>1527.4</ele>
        <time>2022-02-09T08:02:07Z</time>
      </trkpt>
      <trkpt lat="42.85658" lon="0.26726">
        <ele>1527.4</ele>
        <time>2022-02-09T08:02:08Z</time>
      </trkpt>
      <trkpt lat="42.85659" lon="0.26725">
        <ele>1527.4</ele>
        <time>2022-02-09T08:02:09Z</time>
      </trkpt>
      <trkpt lat="42.85659" lon="0.26724">
        <ele>1528.5</ele>
        <time>2022-02-09T08:02:10Z</time>
      </trkpt>
      <trkpt lat="42.8566" lon="0.26724">
        <ele>1528.5</ele>
        <time>2022-02-09T08:02:11Z</time>
      </trkpt>
      <trkpt lat="42.8566" lon="0.26723">
        <ele>1528.5</ele>
        <time>2022-02-09T08:02:12Z</time>
      </trkpt>
      <trkpt lat="42.85661" lon="0.26723">
        <ele>1528.9</ele>
        <time>2022-02-09T08:02:13Z</time>
      </trkpt>
      <trkpt lat="42.85662" lon="0.26722">
        <ele>1528.9</ele>
        <time>2022-02-09T08:02:14Z</time>
      </trkpt>
      <trkpt lat="42.85662" lon="0.26721">
        <ele>1530</ele>
        <time>2022-02-09T08:02:15Z</time>
      </trkpt>
      <trkpt lat="42.85663" lon="0.26721">
        <ele>1530</ele>
        <time>2022-02-09T08:02:16Z</time>
      </trkpt>
      <trkpt lat="42.85663" lon="0.2672">
        <ele>1530</ele>
        <time>2022-02-09T08:02:17Z</time>
      </trkpt>
      <trkpt lat="42.85664" lon="0.26719">
        <ele>1530</ele>
        <time>2022-02-09T08:02:18Z</time>
      </trkpt>
      <trkpt lat="42.85664" lon="0.26719">
        <ele>1530.3</ele>
        <time>2022-02-09T08:02:19Z</time>
      </trkpt>
      <trkpt lat="42.85665" lon="0.26718">
        <ele>1530.3</ele>
        <time>2022-02-09T08:02:20Z</time>
      </trkpt>
      <trkpt lat="42.85665" lon="0.26718">
        <ele>1531.4</ele>
        <time>2022-02-09T08:02:21Z</time>
      </trkpt>
      <trkpt lat="42.85666" lon="0.26717">
        <ele>1531.4</ele>
        <time>2022-02-09T08:02:22Z</time>
      </trkpt>
      <trkpt lat="42.85667" lon="0.26717">
        <ele>1531.4</ele>
        <time>2022-02-09T08:02:23Z</time>
      </trkpt>
      <trkpt lat="42.85667" lon="0.26717">
        <ele>1531.4</ele>
        <time>2022-02-09T08:02:24Z</time>
      </trkpt>
      <trkpt lat="42.85668" lon="0.26717">
        <ele>1531.4</ele>
        <time>2022-02-09T08:02:25Z</time>
      </trkpt>
      <trkpt lat="42.85669" lon="0.26716">
        <ele>1532.6</ele>
        <time>2022-02-09T08:02:26Z</time>
      </trkpt>
      <trkpt lat="42.8567" lon="0.26716">
        <ele>1532.6</ele>
        <time>2022-02-09T08:02:27Z</time>
      </trkpt>
      <trkpt lat="42.8567" lon="0.26716">
        <ele>1532.6</ele>
        <time>2022-02-09T08:02:28Z</time>
      </trkpt>
      <trkpt lat="42.85671" lon="0.26716">
        <ele>1532.6</ele>
        <time>2022-02-09T08:02:29Z</time>
      </trkpt>
      <trkpt lat="42.85671" lon="0.26716">
        <ele>1532.6</ele>
        <time>2022-02-09T08:02:30Z</time>
      </trkpt>
      <trkpt lat="42.85672" lon="0.26715">
        <ele>1533.8</ele>
        <time>2022-02-09T08:02:31Z</time>
      </trkpt>
      <trkpt lat="42.85672" lon="0.26715">
        <ele>1533.8</ele>
        <time>2022-02-09T08:02:32Z</time>
      </trkpt>
      <trkpt lat="42.85673" lon="0.26715">
        <ele>1533.8</ele>
        <time>2022-02-09T08:02:33Z</time>
      </trkpt>
      <trkpt lat="42.85673" lon="0.26716">
        <ele>1533.8</ele>
        <time>2022-02-09T08:02:34Z</time>
      </trkpt>
      <trkpt lat="42.85674" lon="0.26716">
        <ele>1533.8</ele>
        <time>2022-02-09T08:02:35Z</time>
      </trkpt>
      <trkpt lat="42.85675" lon="0.26716">
        <ele>1533.8</ele>
        <time>2022-02-09T08:02:36Z</time>
      </trkpt>
      <trkpt lat="42.85675" lon="0.26717">
        <ele>1534.9</ele>
        <time>2022-02-09T08:02:37Z</time>
      </trkpt>
      <trkpt lat="42.85676" lon="0.26717">
        <ele>1534.9</ele>
        <time>2022-02-09T08:02:38Z</time>
      </trkpt>
      <trkpt lat="42.85676" lon="0.26717">
        <ele>1534.9</ele>
        <time>2022-02-09T08:02:39Z</time>
      </trkpt>
      <trkpt lat="42.85677" lon="0.26717">
        <ele>1534.9</ele>
        <time>2022-02-09T08:02:40Z</time>
      </trkpt>
      <trkpt lat="42.85677" lon="0.26717">
        <ele>1534.9</ele>
        <time>2022-02-09T08:02:41Z</time>
      </trkpt>
      <trkpt lat="42.85678" lon="0.26716">
        <ele>1534.9</ele>
        <time>2022-02-09T08:02:42Z</time>
      </trkpt>
      <trkpt lat="42.85678" lon="0.26716">
        <ele>1536</ele>
        <time>2022-02-09T08:02:43Z</time>
      </trkpt>
      <trkpt lat="42.85678" lon="0.26715">
        <ele>1536</ele>
        <time>2022-02-09T08:02:44Z</time>
      </trkpt>
      <trkpt lat="42.85679" lon="0.26714">
        <ele>1536.2</ele>
        <time>2022-02-09T08:02:45Z</time>
      </trkpt>
      <trkpt lat="42.85679" lon="0.26714">
        <ele>1536.2</ele>
        <time>2022-02-09T08:02:46Z</time>
      </trkpt>
      <trkpt lat="42.8568" lon="0.26713">
        <ele>1536.2</ele>
        <time>2022-02-09T08:02:47Z</time>
      </trkpt>
      <trkpt lat="42.8568" lon="0.26712">
        <ele>1536.2</ele>
        <time>2022-02-09T08:02:48Z</time>
      </trkpt>
      <trkpt lat="42.85681" lon="0.26712">
        <ele>1536.2</ele>
        <time>2022-02-09T08:02:49Z</time>
      </trkpt>
      <trkpt lat="42.85681" lon="0.26711">
        <ele>1537.2</ele>
        <time>2022-02-09T08:02:50Z</time>
      </trkpt>
      <trkpt lat="42.85681" lon="0.2671">
        <ele>1537.4</ele>
        <time>2022-02-09T08:02:51Z</time>
      </trkpt>
      <trkpt lat="42.85682" lon="0.2671">
        <ele>1537.4</ele>
        <time>2022-02-09T08:02:52Z</time>
      </trkpt>
      <trkpt lat="42.85682" lon="0.26709">
        <ele>1537.4</ele>
        <time>2022-02-09T08:02:53Z</time>
      </trkpt>
      <trkpt lat="42.85683" lon="0.26708">
        <ele>1537.4</ele>
        <time>2022-02-09T08:02:54Z</time>
      </trkpt>
      <trkpt lat="42.85683" lon="0.26708">
        <ele>1537.4</ele>
        <time>2022-02-09T08:02:55Z</time>
      </trkpt>
      <trkpt lat="42.85684" lon="0.26707">
        <ele>1537.4</ele>
        <time>2022-02-09T08:02:56Z</time>
      </trkpt>
      <trkpt lat="42.85684" lon="0.26707">
        <ele>1538.4</ele>
        <time>2022-02-09T08:02:57Z</time>
      </trkpt>
      <trkpt lat="42.85685" lon="0.26706">
        <ele>1538.6</ele>
        <time>2022-02-09T08:02:58Z</time>
      </trkpt>
      <trkpt lat="42.85686" lon="0.26706">
        <ele>1538.6</ele>
        <time>2022-02-09T08:02:59Z</time>
      </trkpt>
      <trkpt lat="42.85686" lon="0.26706">
        <ele>1538.6</ele>
        <time>2022-02-09T08:03:00Z</time>
      </trkpt>
      <trkpt lat="42.85687" lon="0.26706">
        <ele>1538.6</ele>
        <time>2022-02-09T08:03:01Z</time>
      </trkpt>
      <trkpt lat="42.85687" lon="0.26705">
        <ele>1539.6</ele>
        <time>2022-02-09T08:03:02Z</time>
      </trkpt>
      <trkpt lat="42.85688" lon="0.26705">
        <ele>1539.6</ele>
        <time>2022-02-09T08:03:03Z</time>
      </trkpt>
      <trkpt lat="42.85689" lon="0.26705">
        <ele>1539.6</ele>
        <time>2022-02-09T08:03:04Z</time>
      </trkpt>
      <trkpt lat="42.85689" lon="0.26705">
        <ele>1539.6</ele>
        <time>2022-02-09T08:03:05Z</time>
      </trkpt>
      <trkpt lat="42.8569" lon="0.26705">
        <ele>1539.6</ele>
        <time>2022-02-09T08:03:06Z</time>
      </trkpt>
      <trkpt lat="42.85691" lon="0.26705">
        <ele>1540.8</ele>
        <time>2022-02-09T08:03:07Z</time>
      </trkpt>
      <trkpt lat="42.85691" lon="0.26704">
        <ele>1540.8</ele>
        <time>2022-02-09T08:03:08Z</time>
      </trkpt>
      <trkpt lat="42.85692" lon="0.26704">
        <ele>1540.8</ele>
        <time>2022-02-09T08:03:09Z</time>
      </trkpt>
      <trkpt lat="42.85693" lon="0.26704">
        <ele>1540.8</ele>
        <time>2022-02-09T08:03:10Z</time>
      </trkpt>
      <trkpt lat="42.85693" lon="0.26704">
        <ele>1540.8</ele>
        <time>2022-02-09T08:03:11Z</time>
      </trkpt>
      <trkpt lat="42.85694" lon="0.26703">
        <ele>1542</ele>
        <time>2022-02-09T08:03:12Z</time>
      </trkpt>
      <trkpt lat="42.85694" lon="0.26703">
        <ele>1542</ele>
        <time>2022-02-09T08:03:13Z</time>
      </trkpt>
      <trkpt lat="42.85695" lon="0.26703">
        <ele>1542</ele>
        <time>2022-02-09T08:03:14Z</time>
      </trkpt>
      <trkpt lat="42.85695" lon="0.26702">
        <ele>1542.2</ele>
        <time>2022-02-09T08:03:15Z</time>
      </trkpt>
      <trkpt lat="42.85696" lon="0.26701">
        <ele>1542.2</ele>
        <time>2022-02-09T08:03:16Z</time>
      </trkpt>
      <trkpt lat="42.85696" lon="0.26701">
        <ele>1542.2</ele>
        <time>2022-02-09T08:03:17Z</time>
      </trkpt>
      <trkpt lat="42.85696" lon="0.267">
        <ele>1542.2</ele>
        <time>2022-02-09T08:03:18Z</time>
      </trkpt>
      <trkpt lat="42.85697" lon="0.26699">
        <ele>1543.5</ele>
        <time>2022-02-09T08:03:19Z</time>
      </trkpt>
      <trkpt lat="42.85697" lon="0.26699">
        <ele>1543.5</ele>
        <time>2022-02-09T08:03:20Z</time>
      </trkpt>
      <trkpt lat="42.85697" lon="0.26698">
        <ele>1543.7</ele>
        <time>2022-02-09T08:03:21Z</time>
      </trkpt>
      <trkpt lat="42.85697" lon="0.26697">
        <ele>1543.7</ele>
        <time>2022-02-09T08:03:22Z</time>
      </trkpt>
      <trkpt lat="42.85697" lon="0.26696">
        <ele>1543.7</ele>
        <time>2022-02-09T08:03:23Z</time>
      </trkpt>
      <trkpt lat="42.85697" lon="0.26695">
        <ele>1543.7</ele>
        <time>2022-02-09T08:03:24Z</time>
      </trkpt>
      <trkpt lat="42.85697" lon="0.26694">
        <ele>1543.7</ele>
        <time>2022-02-09T08:03:25Z</time>
      </trkpt>
      <trkpt lat="42.85697" lon="0.26693">
        <ele>1543.9</ele>
        <time>2022-02-09T08:03:26Z</time>
      </trkpt>
      <trkpt lat="42.85697" lon="0.26693">
        <ele>1543.9</ele>
        <time>2022-02-09T08:03:27Z</time>
      </trkpt>
      <trkpt lat="42.85698" lon="0.26692">
        <ele>1543.9</ele>
        <time>2022-02-09T08:03:28Z</time>
      </trkpt>
      <trkpt lat="42.85698" lon="0.26691">
        <ele>1543.9</ele>
        <time>2022-02-09T08:03:29Z</time>
      </trkpt>
      <trkpt lat="42.85698" lon="0.2669">
        <ele>1543.9</ele>
        <time>2022-02-09T08:03:30Z</time>
      </trkpt>
      <trkpt lat="42.85698" lon="0.26689">
        <ele>1543.9</ele>
        <time>2022-02-09T08:03:31Z</time>
      </trkpt>
      <trkpt lat="42.85698" lon="0.26689">
        <ele>1544.1</ele>
        <time>2022-02-09T08:03:32Z</time>
      </trkpt>
      <trkpt lat="42.85699" lon="0.26688">
        <ele>1544.1</ele>
        <time>2022-02-09T08:03:33Z</time>
      </trkpt>
      <trkpt lat="42.85699" lon="0.26688">
        <ele>1544.1</ele>
        <time>2022-02-09T08:03:34Z</time>
      </trkpt>
      <trkpt lat="42.857" lon="0.26688">
        <ele>1544.1</ele>
        <time>2022-02-09T08:03:35Z</time>
      </trkpt>
      <trkpt lat="42.857" lon="0.26687">
        <ele>1545.4</ele>
        <time>2022-02-09T08:03:36Z</time>
      </trkpt>
      <trkpt lat="42.857" lon="0.26687">
        <ele>1545.4</ele>
        <time>2022-02-09T08:03:37Z</time>
      </trkpt>
      <trkpt lat="42.85701" lon="0.26687">
        <ele>1545.4</ele>
        <time>2022-02-09T08:03:38Z</time>
      </trkpt>
      <trkpt lat="42.85701" lon="0.26686">
        <ele>1545.4</ele>
        <time>2022-02-09T08:03:39Z</time>
      </trkpt>
      <trkpt lat="42.85702" lon="0.26686">
        <ele>1545.4</ele>
        <time>2022-02-09T08:03:40Z</time>
      </trkpt>
      <trkpt lat="42.85703" lon="0.26685">
        <ele>1545.4</ele>
        <time>2022-02-09T08:03:41Z</time>
      </trkpt>
      <trkpt lat="42.85703" lon="0.26685">
        <ele>1546.8</ele>
        <time>2022-02-09T08:03:42Z</time>
      </trkpt>
      <trkpt lat="42.85703" lon="0.26684">
        <ele>1546.8</ele>
        <time>2022-02-09T08:03:43Z</time>
      </trkpt>
      <trkpt lat="42.85704" lon="0.26683">
        <ele>1546.8</ele>
        <time>2022-02-09T08:03:44Z</time>
      </trkpt>
      <trkpt lat="42.85704" lon="0.26682">
        <ele>1546.8</ele>
        <time>2022-02-09T08:03:45Z</time>
      </trkpt>
      <trkpt lat="42.85704" lon="0.26682">
        <ele>1546.8</ele>
        <time>2022-02-09T08:03:46Z</time>
      </trkpt>
      <trkpt lat="42.85704" lon="0.26681">
        <ele>1546.8</ele>
        <time>2022-02-09T08:03:47Z</time>
      </trkpt>
      <trkpt lat="42.85704" lon="0.2668">
        <ele>1547</ele>
        <time>2022-02-09T08:03:48Z</time>
      </trkpt>
      <trkpt lat="42.85704" lon="0.26679">
        <ele>1547</ele>
        <time>2022-02-09T08:03:49Z</time>
      </trkpt>
      <trkpt lat="42.85704" lon="0.26678">
        <ele>1547</ele>
        <time>2022-02-09T08:03:50Z</time>
      </trkpt>
      <trkpt lat="42.85705" lon="0.26677">
        <ele>1547</ele>
        <time>2022-02-09T08:03:51Z</time>
      </trkpt>
      <trkpt lat="42.85705" lon="0.26676">
        <ele>1547</ele>
        <time>2022-02-09T08:03:52Z</time>
      </trkpt>
      <trkpt lat="42.85705" lon="0.26676">
        <ele>1547.2</ele>
        <time>2022-02-09T08:03:53Z</time>
      </trkpt>
      <trkpt lat="42.85706" lon="0.26675">
        <ele>1547.2</ele>
        <time>2022-02-09T08:03:54Z</time>
      </trkpt>
      <trkpt lat="42.85707" lon="0.26675">
        <ele>1548.3</ele>
        <time>2022-02-09T08:03:55Z</time>
      </trkpt>
      <trkpt lat="42.85707" lon="0.26674">
        <ele>1548.3</ele>
        <time>2022-02-09T08:03:56Z</time>
      </trkpt>
      <trkpt lat="42.85707" lon="0.26674">
        <ele>1548.3</ele>
        <time>2022-02-09T08:03:57Z</time>
      </trkpt>
      <trkpt lat="42.85708" lon="0.26673">
        <ele>1548.3</ele>
        <time>2022-02-09T08:03:58Z</time>
      </trkpt>
      <trkpt lat="42.85709" lon="0.26673">
        <ele>1548.3</ele>
        <time>2022-02-09T08:03:59Z</time>
      </trkpt>
      <trkpt lat="42.85709" lon="0.26672">
        <ele>1549.4</ele>
        <time>2022-02-09T08:04:00Z</time>
      </trkpt>
      <trkpt lat="42.8571" lon="0.26672">
        <ele>1549.6</ele>
        <time>2022-02-09T08:04:01Z</time>
      </trkpt>
      <trkpt lat="42.8571" lon="0.26671">
        <ele>1549.6</ele>
        <time>2022-02-09T08:04:02Z</time>
      </trkpt>
      <trkpt lat="42.85711" lon="0.26671">
        <ele>1549.6</ele>
        <time>2022-02-09T08:04:03Z</time>
      </trkpt>
      <trkpt lat="42.85711" lon="0.26671">
        <ele>1549.6</ele>
        <time>2022-02-09T08:04:04Z</time>
      </trkpt>
      <trkpt lat="42.85711" lon="0.2667">
        <ele>1549.6</ele>
        <time>2022-02-09T08:04:05Z</time>
      </trkpt>
      <trkpt lat="42.85712" lon="0.2667">
        <ele>1549.6</ele>
        <time>2022-02-09T08:04:06Z</time>
      </trkpt>
      <trkpt lat="42.85713" lon="0.2667">
        <ele>1550.7</ele>
        <time>2022-02-09T08:04:07Z</time>
      </trkpt>
      <trkpt lat="42.85713" lon="0.26669">
        <ele>1550.7</ele>
        <time>2022-02-09T08:04:08Z</time>
      </trkpt>
      <trkpt lat="42.85714" lon="0.26669">
        <ele>1550.7</ele>
        <time>2022-02-09T08:04:09Z</time>
      </trkpt>
      <trkpt lat="42.85714" lon="0.26669">
        <ele>1550.7</ele>
        <time>2022-02-09T08:04:10Z</time>
      </trkpt>
      <trkpt lat="42.85715" lon="0.26668">
        <ele>1550.7</ele>
        <time>2022-02-09T08:04:11Z</time>
      </trkpt>
      <trkpt lat="42.85715" lon="0.26668">
        <ele>1550.7</ele>
        <time>2022-02-09T08:04:12Z</time>
      </trkpt>
      <trkpt lat="42.85715" lon="0.26668">
        <ele>1550.9</ele>
        <time>2022-02-09T08:04:13Z</time>
      </trkpt>
      <trkpt lat="42.85716" lon="0.26667">
        <ele>1552.1</ele>
        <time>2022-02-09T08:04:14Z</time>
      </trkpt>
      <trkpt lat="42.85716" lon="0.26667">
        <ele>1552.1</ele>
        <time>2022-02-09T08:04:15Z</time>
      </trkpt>
      <trkpt lat="42.85717" lon="0.26667">
        <ele>1552.1</ele>
        <time>2022-02-09T08:04:16Z</time>
      </trkpt>
      <trkpt lat="42.85717" lon="0.26667">
        <ele>1552.1</ele>
        <time>2022-02-09T08:04:17Z</time>
      </trkpt>
      <trkpt lat="42.85718" lon="0.26667">
        <ele>1552.1</ele>
        <time>2022-02-09T08:04:18Z</time>
      </trkpt>
      <trkpt lat="42.85719" lon="0.26667">
        <ele>1552.1</ele>
        <time>2022-02-09T08:04:19Z</time>
      </trkpt>
      <trkpt lat="42.85719" lon="0.26667">
        <ele>1553.4</ele>
        <time>2022-02-09T08:04:20Z</time>
      </trkpt>
      <trkpt lat="42.8572" lon="0.26667">
        <ele>1553.4</ele>
        <time>2022-02-09T08:04:21Z</time>
      </trkpt>
      <trkpt lat="42.8572" lon="0.26667">
        <ele>1553.4</ele>
        <time>2022-02-09T08:04:22Z</time>
      </trkpt>
      <trkpt lat="42.85721" lon="0.26667">
        <ele>1553.4</ele>
        <time>2022-02-09T08:04:23Z</time>
      </trkpt>
      <trkpt lat="42.85722" lon="0.26667">
        <ele>1554.8</ele>
        <time>2022-02-09T08:04:24Z</time>
      </trkpt>
      <trkpt lat="42.85723" lon="0.26667">
        <ele>1554.8</ele>
        <time>2022-02-09T08:04:25Z</time>
      </trkpt>
      <trkpt lat="42.85723" lon="0.26666">
        <ele>1554.8</ele>
        <time>2022-02-09T08:04:26Z</time>
      </trkpt>
      <trkpt lat="42.85723" lon="0.26666">
        <ele>1554.8</ele>
        <time>2022-02-09T08:04:27Z</time>
      </trkpt>
      <trkpt lat="42.85724" lon="0.26666">
        <ele>1554.8</ele>
        <time>2022-02-09T08:04:28Z</time>
      </trkpt>
      <trkpt lat="42.85725" lon="0.26665">
        <ele>1554.8</ele>
        <time>2022-02-09T08:04:29Z</time>
      </trkpt>
      <trkpt lat="42.85725" lon="0.26665">
        <ele>1556.2</ele>
        <time>2022-02-09T08:04:30Z</time>
      </trkpt>
      <trkpt lat="42.85726" lon="0.26665">
        <ele>1556.2</ele>
        <time>2022-02-09T08:04:31Z</time>
      </trkpt>
      <trkpt lat="42.85727" lon="0.26664">
        <ele>1556.2</ele>
        <time>2022-02-09T08:04:32Z</time>
      </trkpt>
      <trkpt lat="42.85727" lon="0.26664">
        <ele>1556.2</ele>
        <time>2022-02-09T08:04:33Z</time>
      </trkpt>
      <trkpt lat="42.85728" lon="0.26664">
        <ele>1556.2</ele>
        <time>2022-02-09T08:04:34Z</time>
      </trkpt>
      <trkpt lat="42.85728" lon="0.26663">
        <ele>1557.7</ele>
        <time>2022-02-09T08:04:35Z</time>
      </trkpt>
      <trkpt lat="42.85729" lon="0.26663">
        <ele>1557.7</ele>
        <time>2022-02-09T08:04:36Z</time>
      </trkpt>
      <trkpt lat="42.8573" lon="0.26662">
        <ele>1557.7</ele>
        <time>2022-02-09T08:04:37Z</time>
      </trkpt>
      <trkpt lat="42.8573" lon="0.26662">
        <ele>1557.8</ele>
        <time>2022-02-09T08:04:38Z</time>
      </trkpt>
      <trkpt lat="42.85731" lon="0.26661">
        <ele>1557.9</ele>
        <time>2022-02-09T08:04:39Z</time>
      </trkpt>
      <trkpt lat="42.85731" lon="0.26661">
        <ele>1558</ele>
        <time>2022-02-09T08:04:40Z</time>
      </trkpt>
      <trkpt lat="42.85732" lon="0.2666">
        <ele>1558.1</ele>
        <time>2022-02-09T08:04:41Z</time>
      </trkpt>
      <trkpt lat="42.85732" lon="0.26659">
        <ele>1558.2</ele>
        <time>2022-02-09T08:04:42Z</time>
      </trkpt>
      <trkpt lat="42.85732" lon="0.26659">
        <ele>1558.3</ele>
        <time>2022-02-09T08:04:43Z</time>
      </trkpt>
      <trkpt lat="42.85733" lon="0.26658">
        <ele>1558.4</ele>
        <time>2022-02-09T08:04:44Z</time>
      </trkpt>
      <trkpt lat="42.85733" lon="0.26657">
        <ele>1558.5</ele>
        <time>2022-02-09T08:04:45Z</time>
      </trkpt>
      <trkpt lat="42.85734" lon="0.26657">
        <ele>1558.6</ele>
        <time>2022-02-09T08:04:46Z</time>
      </trkpt>
      <trkpt lat="42.85735" lon="0.26656">
        <ele>1558.7</ele>
        <time>2022-02-09T08:04:47Z</time>
      </trkpt>
      <trkpt lat="42.85735" lon="0.26655">
        <ele>1558.8</ele>
        <time>2022-02-09T08:04:48Z</time>
      </trkpt>
      <trkpt lat="42.85736" lon="0.26654">
        <ele>1558.9</ele>
        <time>2022-02-09T08:04:49Z</time>
      </trkpt>
      <trkpt lat="42.85736" lon="0.26653">
        <ele>1559.1</ele>
        <time>2022-02-09T08:04:50Z</time>
      </trkpt>
      <trkpt lat="42.85737" lon="0.26652">
        <ele>1559.2</ele>
        <time>2022-02-09T08:04:51Z</time>
      </trkpt>
      <trkpt lat="42.85737" lon="0.26651">
        <ele>1559.3</ele>
        <time>2022-02-09T08:04:52Z</time>
      </trkpt>
      <trkpt lat="42.85737" lon="0.2665">
        <ele>1559.4</ele>
        <time>2022-02-09T08:04:53Z</time>
      </trkpt>
      <trkpt lat="42.85738" lon="0.26649">
        <ele>1559.5</ele>
        <time>2022-02-09T08:04:54Z</time>
      </trkpt>
      <trkpt lat="42.85738" lon="0.26648">
        <ele>1559.7</ele>
        <time>2022-02-09T08:04:55Z</time>
      </trkpt>
      <trkpt lat="42.85739" lon="0.26648">
        <ele>1559.8</ele>
        <time>2022-02-09T08:04:56Z</time>
      </trkpt>
      <trkpt lat="42.85739" lon="0.26647">
        <ele>1559.9</ele>
        <time>2022-02-09T08:04:57Z</time>
      </trkpt>
      <trkpt lat="42.8574" lon="0.26645">
        <ele>1560.1</ele>
        <time>2022-02-09T08:04:58Z</time>
      </trkpt>
      <trkpt lat="42.8574" lon="0.26644">
        <ele>1560.2</ele>
        <time>2022-02-09T08:04:59Z</time>
      </trkpt>
      <trkpt lat="42.8574" lon="0.26643">
        <ele>1560.4</ele>
        <time>2022-02-09T08:05:00Z</time>
      </trkpt>
      <trkpt lat="42.85741" lon="0.26642">
        <ele>1560.5</ele>
        <time>2022-02-09T08:05:01Z</time>
      </trkpt>
      <trkpt lat="42.85741" lon="0.26641">
        <ele>1560.7</ele>
        <time>2022-02-09T08:05:02Z</time>
      </trkpt>
      <trkpt lat="42.85741" lon="0.2664">
        <ele>1560.8</ele>
        <time>2022-02-09T08:05:03Z</time>
      </trkpt>
      <trkpt lat="42.85741" lon="0.26639">
        <ele>1560.9</ele>
        <time>2022-02-09T08:05:04Z</time>
      </trkpt>
      <trkpt lat="42.85741" lon="0.26638">
        <ele>1561.1</ele>
        <time>2022-02-09T08:05:05Z</time>
      </trkpt>
      <trkpt lat="42.85742" lon="0.26637">
        <ele>1561.2</ele>
        <time>2022-02-09T08:05:06Z</time>
      </trkpt>
      <trkpt lat="42.85742" lon="0.26636">
        <ele>1561.3</ele>
        <time>2022-02-09T08:05:07Z</time>
      </trkpt>
      <trkpt lat="42.85742" lon="0.26635">
        <ele>1561.5</ele>
        <time>2022-02-09T08:05:08Z</time>
      </trkpt>
      <trkpt lat="42.85742" lon="0.26634">
        <ele>1561.6</ele>
        <time>2022-02-09T08:05:09Z</time>
      </trkpt>
      <trkpt lat="42.85742" lon="0.26633">
        <ele>1561.8</ele>
        <time>2022-02-09T08:05:10Z</time>
      </trkpt>
      <trkpt lat="42.85742" lon="0.26632">
        <ele>1562</ele>
        <time>2022-02-09T08:05:11Z</time>
      </trkpt>
      <trkpt lat="42.85743" lon="0.26631">
        <ele>1562.1</ele>
        <time>2022-02-09T08:05:12Z</time>
      </trkpt>
      <trkpt lat="42.85743" lon="0.2663">
        <ele>1562.3</ele>
        <time>2022-02-09T08:05:13Z</time>
      </trkpt>
      <trkpt lat="42.85743" lon="0.26629">
        <ele>1562.4</ele>
        <time>2022-02-09T08:05:14Z</time>
      </trkpt>
      <trkpt lat="42.85743" lon="0.26628">
        <ele>1562.6</ele>
        <time>2022-02-09T08:05:15Z</time>
      </trkpt>
      <trkpt lat="42.85743" lon="0.26628">
        <ele>1562.7</ele>
        <time>2022-02-09T08:05:16Z</time>
      </trkpt>
      <trkpt lat="42.85743" lon="0.26627">
        <ele>1562.7</ele>
        <time>2022-02-09T08:05:17Z</time>
      </trkpt>
      <trkpt lat="42.85743" lon="0.26627">
        <ele>1562.7</ele>
        <time>2022-02-09T08:05:18Z</time>
      </trkpt>
      <trkpt lat="42.85743" lon="0.26627">
        <ele>1562.7</ele>
        <time>2022-02-09T08:05:19Z</time>
      </trkpt>
      <trkpt lat="42.85743" lon="0.26627">
        <ele>1562.7</ele>
        <time>2022-02-09T08:05:20Z</time>
      </trkpt>
      <trkpt lat="42.85743" lon="0.26627">
        <ele>1562.7</ele>
        <time>2022-02-09T08:05:21Z</time>
      </trkpt>
      <trkpt lat="42.85743" lon="0.26627">
        <ele>1562.7</ele>
        <time>2022-02-09T08:05:22Z</time>
      </trkpt>
      <trkpt lat="42.85743" lon="0.26627">
        <ele>1562.7</ele>
        <time>2022-02-09T08:05:23Z</time>
      </trkpt>
      <trkpt lat="42.85743" lon="0.26627">
        <ele>1562.7</ele>
        <time>2022-02-09T08:05:24Z</time>
      </trkpt>
      <trkpt lat="42.85743" lon="0.26627">
        <ele>1562.7</ele>
        <time>2022-02-09T08:05:25Z</time>
      </trkpt>
      <trkpt lat="42.85743" lon="0.26627">
        <ele>1562.7</ele>
        <time>2022-02-09T08:05:26Z</time>
      </trkpt>
      <trkpt lat="42.85743" lon="0.26627">
        <ele>1562.7</ele>
        <time>2022-02-09T08:05:27Z</time>
      </trkpt>
      <trkpt lat="42.85743" lon="0.26627">
        <ele>1562.7</ele>
        <time>2022-02-09T08:05:28Z</time>
      </trkpt>
      <trkpt lat="42.85743" lon="0.26627">
        <ele>1562.7</ele>
        <time>2022-02-09T08:05:29Z</time>
      </trkpt>
      <trkpt lat="42.85743" lon="0.26627">
        <ele>1562.7</ele>
        <time>2022-02-09T08:05:30Z</time>
      </trkpt>
      <trkpt lat="42.85743" lon="0.26627">
        <ele>1562.7</ele>
        <time>2022-02-09T08:05:31Z</time>
      </trkpt>
      <trkpt lat="42.85743" lon="0.26627">
        <ele>1562.7</ele>
        <time>2022-02-09T08:05:32Z</time>
      </trkpt>
      <trkpt lat="42.85743" lon="0.26627">
        <ele>1562.7</ele>
        <time>2022-02-09T08:05:33Z</time>
      </trkpt>
      <trkpt lat="42.85743" lon="0.26627">
        <ele>1562.7</ele>
        <time>2022-02-09T08:05:34Z</time>
      </trkpt>
      <trkpt lat="42.85743" lon="0.26627">
        <ele>1562.7</ele>
        <time>2022-02-09T08:05:35Z</time>
      </trkpt>
      <trkpt lat="42.85743" lon="0.26627">
        <ele>1562.7</ele>
        <time>2022-02-09T08:05:36Z</time>
      </trkpt>
      <trkpt lat="42.85743" lon="0.26627">
        <ele>1562.7</ele>
        <time>2022-02-09T08:05:37Z</time>
      </trkpt>
      <trkpt lat="42.85743" lon="0.26627">
        <ele>1562.7</ele>
        <time>2022-02-09T08:05:38Z</time>
      </trkpt>
      <trkpt lat="42.85743" lon="0.26627">
        <ele>1562.7</ele>
        <time>2022-02-09T08:05:39Z</time>
      </trkpt>
      <trkpt lat="42.85743" lon="0.26627">
        <ele>1562.7</ele>
        <time>2022-02-09T08:05:40Z</time>
      </trkpt>
      <trkpt lat="42.85743" lon="0.26627">
        <ele>1562.7</ele>
        <time>2022-02-09T08:05:41Z</time>
      </trkpt>
      <trkpt lat="42.85743" lon="0.26627">
        <ele>1562.7</ele>
        <time>2022-02-09T08:05:42Z</time>
      </trkpt>
      <trkpt lat="42.85743" lon="0.26627">
        <ele>1562.7</ele>
        <time>2022-02-09T08:05:43Z</time>
      </trkpt>
      <trkpt lat="42.85743" lon="0.26627">
        <ele>1562.7</ele>
        <time>2022-02-09T08:05:44Z</time>
      </trkpt>
      <trkpt lat="42.85743" lon="0.26627">
        <ele>1562.7</ele>
        <time>2022-02-09T08:05:45Z</time>
      </trkpt>
      <trkpt lat="42.85743" lon="0.26627">
        <ele>1562.7</ele>
        <time>2022-02-09T08:05:46Z</time>
      </trkpt>
      <trkpt lat="42.85743" lon="0.26627">
        <ele>1562.7</ele>
        <time>2022-02-09T08:05:47Z</time>
      </trkpt>
      <trkpt lat="42.85743" lon="0.26627">
        <ele>1562.7</ele>
        <time>2022-02-09T08:05:48Z</time>
      </trkpt>
      <trkpt lat="42.85743" lon="0.26627">
        <ele>1562.7</ele>
        <time>2022-02-09T08:05:49Z</time>
      </trkpt>
      <trkpt lat="42.85743" lon="0.26627">
        <ele>1562.7</ele>
        <time>2022-02-09T08:05:50Z</time>
      </trkpt>
      <trkpt lat="42.85743" lon="0.26627">
        <ele>1562.7</ele>
        <time>2022-02-09T08:05:51Z</time>
      </trkpt>
      <trkpt lat="42.85743" lon="0.26627">
        <ele>1562.7</ele>
        <time>2022-02-09T08:05:52Z</time>
      </trkpt>
      <trkpt lat="42.85743" lon="0.26627">
        <ele>1562.7</ele>
        <time>2022-02-09T08:05:53Z</time>
      </trkpt>
      <trkpt lat="42.85743" lon="0.26627">
        <ele>1562.7</ele>
        <time>2022-02-09T08:05:54Z</time>
      </trkpt>
      <trkpt lat="42.85743" lon="0.26627">
        <ele>1562.7</ele>
        <time>2022-02-09T08:05:55Z</time>
      </trkpt>
      <trkpt lat="42.85743" lon="0.26627">
        <ele>1562.7</ele>
        <time>2022-02-09T08:05:56Z</time>
      </trkpt>
      <trkpt lat="42.85743" lon="0.26627">
        <ele>1562.7</ele>
        <time>2022-02-09T08:05:57Z</time>
      </trkpt>
      <trkpt lat="42.85743" lon="0.26627">
        <ele>1562.7</ele>
        <time>2022-02-09T08:05:58Z</time>
      </trkpt>
      <trkpt lat="42.85743" lon="0.26627">
        <ele>1562.7</ele>
        <time>2022-02-09T08:05:59Z</time>
      </trkpt>
      <trkpt lat="42.85743" lon="0.26627">
        <ele>1562.7</ele>
        <time>2022-02-09T08:06:00Z</time>
      </trkpt>
      <trkpt lat="42.85743" lon="0.26627">
        <ele>1562.7</ele>
        <time>2022-02-09T08:06:01Z</time>
      </trkpt>
      <trkpt lat="42.85743" lon="0.26627">
        <ele>1562.7</ele>
        <time>2022-02-09T08:06:02Z</time>
      </trkpt>
      <trkpt lat="42.85743" lon="0.26627">
        <ele>1562.7</ele>
        <time>2022-02-09T08:06:03Z</time>
      </trkpt>
      <trkpt lat="42.85743" lon="0.26627">
        <ele>1562.7</ele>
        <time>2022-02-09T08:06:04Z</time>
      </trkpt>
      <trkpt lat="42.85743" lon="0.26627">
        <ele>1562.7</ele>
        <time>2022-02-09T08:06:05Z</time>
      </trkpt>
      <trkpt lat="42.85743" lon="0.26627">
        <ele>1562.7</ele>
        <time>2022-02-09T08:06:06Z</time>
      </trkpt>
      <trkpt lat="42.85743" lon="0.26627">
        <ele>1562.7</ele>
        <time>2022-02-09T08:06:07Z</time>
      </trkpt>
      <trkpt lat="42.85743" lon="0.26627">
        <ele>1562.7</ele>
        <time>2022-02-09T08:06:08Z</time>
      </trkpt>
      <trkpt lat="42.85743" lon="0.26627">
        <ele>1562.7</ele>
        <time>2022-02-09T08:06:09Z</time>
      </trkpt>
      <trkpt lat="42.85743" lon="0.26627">
        <ele>1562.7</ele>
        <time>2022-02-09T08:06:10Z</time>
      </trkpt>
      <trkpt lat="42.85743" lon="0.26627">
        <ele>1562.7</ele>
        <time>2022-02-09T08:06:11Z</time>
      </trkpt>
      <trkpt lat="42.85743" lon="0.26627">
        <ele>1562.7</ele>
        <time>2022-02-09T08:06:12Z</time>
      </trkpt>
      <trkpt lat="42.85743" lon="0.26627">
        <ele>1562.7</ele>
        <time>2022-02-09T08:06:13Z</time>
      </trkpt>
      <trkpt lat="42.85743" lon="0.26627">
        <ele>1562.7</ele>
        <time>2022-02-09T08:06:14Z</time>
      </trkpt>
      <trkpt lat="42.85743" lon="0.26627">
        <ele>1562.7</ele>
        <time>2022-02-09T08:06:15Z</time>
      </trkpt>
      <trkpt lat="42.85743" lon="0.26627">
        <ele>1562.7</ele>
        <time>2022-02-09T08:06:16Z</time>
      </trkpt>
      <trkpt lat="42.85743" lon="0.26627">
        <ele>1562.7</ele>
        <time>2022-02-09T08:06:17Z</time>
      </trkpt>
      <trkpt lat="42.85743" lon="0.26627">
        <ele>1562.7</ele>
        <time>2022-02-09T08:06:18Z</time>
      </trkpt>
      <trkpt lat="42.85743" lon="0.26627">
        <ele>1562.7</ele>
        <time>2022-02-09T08:06:19Z</time>
      </trkpt>
      <trkpt lat="42.85743" lon="0.26627">
        <ele>1562.7</ele>
        <time>2022-02-09T08:06:20Z</time>
      </trkpt>
      <trkpt lat="42.85743" lon="0.26627">
        <ele>1562.7</ele>
        <time>2022-02-09T08:06:21Z</time>
      </trkpt>
      <trkpt lat="42.85743" lon="0.26627">
        <ele>1562.7</ele>
        <time>2022-02-09T08:06:22Z</time>
      </trkpt>
      <trkpt lat="42.85743" lon="0.26627">
        <ele>1562.7</ele>
        <time>2022-02-09T08:06:23Z</time>
      </trkpt>
      <trkpt lat="42.85743" lon="0.26627">
        <ele>1562.7</ele>
        <time>2022-02-09T08:06:24Z</time>
      </trkpt>
      <trkpt lat="42.85743" lon="0.26627">
        <ele>1562.7</ele>
        <time>2022-02-09T08:06:25Z</time>
      </trkpt>
      <trkpt lat="42.85743" lon="0.26627">
        <ele>1562.7</ele>
        <time>2022-02-09T08:06:26Z</time>
      </trkpt>
      <trkpt lat="42.85743" lon="0.26627">
        <ele>1562.7</ele>
        <time>2022-02-09T08:06:27Z</time>
      </trkpt>
      <trkpt lat="42.85743" lon="0.26627">
        <ele>1562.7</ele>
        <time>2022-02-09T08:06:28Z</time>
      </trkpt>
      <trkpt lat="42.85743" lon="0.26627">
        <ele>1562.7</ele>
        <time>2022-02-09T08:06:29Z</time>
      </trkpt>
      <trkpt lat="42.85743" lon="0.26627">
        <ele>1562.7</ele>
        <time>2022-02-09T08:06:30Z</time>
      </trkpt>
      <trkpt lat="42.85743" lon="0.26627">
        <ele>1562.7</ele>
        <time>2022-02-09T08:06:31Z</time>
      </trkpt>
      <trkpt lat="42.85743" lon="0.26627">
        <ele>1562.7</ele>
        <time>2022-02-09T08:06:32Z</time>
      </trkpt>
      <trkpt lat="42.85743" lon="0.26627">
        <ele>1562.7</ele>
        <time>2022-02-09T08:06:33Z</time>
      </trkpt>
      <trkpt lat="42.85743" lon="0.26627">
        <ele>1562.7</ele>
        <time>2022-02-09T08:06:34Z</time>
      </trkpt>
      <trkpt lat="42.85743" lon="0.26627">
        <ele>1562.7</ele>
        <time>2022-02-09T08:06:35Z</time>
      </trkpt>
      <trkpt lat="42.85743" lon="0.26627">
        <ele>1562.7</ele>
        <time>2022-02-09T08:06:36Z</time>
      </trkpt>
      <trkpt lat="42.85743" lon="0.26627">
        <ele>1562.7</ele>
        <time>2022-02-09T08:06:37Z</time>
      </trkpt>
      <trkpt lat="42.85743" lon="0.26627">
        <ele>1562.7</ele>
        <time>2022-02-09T08:06:38Z</time>
      </trkpt>
      <trkpt lat="42.85743" lon="0.26627">
        <ele>1562.7</ele>
        <time>2022-02-09T08:06:39Z</time>
      </trkpt>
      <trkpt lat="42.85743" lon="0.26627">
        <ele>1562.7</ele>
        <time>2022-02-09T08:06:40Z</time>
      </trkpt>
      <trkpt lat="42.85743" lon="0.26627">
        <ele>1562.7</ele>
        <time>2022-02-09T08:06:41Z</time>
      </trkpt>
      <trkpt lat="42.85743" lon="0.26627">
        <ele>1562.7</ele>
        <time>2022-02-09T08:06:42Z</time>
      </trkpt>
      <trkpt lat="42.85743" lon="0.26627">
        <ele>1562.7</ele>
        <time>2022-02-09T08:06:43Z</time>
      </trkpt>
      <trkpt lat="42.85743" lon="0.26627">
        <ele>1562.7</ele>
        <time>2022-02-09T08:06:44Z</time>
      </trkpt>
      <trkpt lat="42.85743" lon="0.26627">
        <ele>1562.7</ele>
        <time>2022-02-09T08:06:45Z</time>
      </trkpt>
      <trkpt lat="42.85743" lon="0.26627">
        <ele>1562.7</ele>
        <time>2022-02-09T08:06:46Z</time>
      </trkpt>
      <trkpt lat="42.85743" lon="0.26627">
        <ele>1562.7</ele>
        <time>2022-02-09T08:06:47Z</time>
      </trkpt>
      <trkpt lat="42.85743" lon="0.26627">
        <ele>1562.7</ele>
        <time>2022-02-09T08:06:48Z</time>
      </trkpt>
      <trkpt lat="42.85743" lon="0.26627">
        <ele>1562.7</ele>
        <time>2022-02-09T08:06:49Z</time>
      </trkpt>
      <trkpt lat="42.85743" lon="0.26627">
        <ele>1562.7</ele>
        <time>2022-02-09T08:06:50Z</time>
      </trkpt>
      <trkpt lat="42.85743" lon="0.26627">
        <ele>1562.7</ele>
        <time>2022-02-09T08:06:51Z</time>
      </trkpt>
      <trkpt lat="42.85743" lon="0.26627">
        <ele>1562.7</ele>
        <time>2022-02-09T08:06:52Z</time>
      </trkpt>
      <trkpt lat="42.85743" lon="0.26627">
        <ele>1562.7</ele>
        <time>2022-02-09T08:06:53Z</time>
      </trkpt>
      <trkpt lat="42.85743" lon="0.26627">
        <ele>1562.7</ele>
        <time>2022-02-09T08:06:54Z</time>
      </trkpt>
      <trkpt lat="42.85743" lon="0.26627">
        <ele>1562.7</ele>
        <time>2022-02-09T08:06:55Z</time>
      </trkpt>
      <trkpt lat="42.85743" lon="0.26627">
        <ele>1562.7</ele>
        <time>2022-02-09T08:06:56Z</time>
      </trkpt>
      <trkpt lat="42.85743" lon="0.26627">
        <ele>1562.7</ele>
        <time>2022-02-09T08:06:57Z</time>
      </trkpt>
      <trkpt lat="42.85743" lon="0.26627">
        <ele>1562.7</ele>
        <time>2022-02-09T08:06:58Z</time>
      </trkpt>
      <trkpt lat="42.85743" lon="0.26627">
        <ele>1562.7</ele>
        <time>2022-02-09T08:06:59Z</time>
      </trkpt>
      <trkpt lat="42.85743" lon="0.26627">
        <ele>1562.7</ele>
        <time>2022-02-09T08:07:00Z</time>
      </trkpt>
      <trkpt lat="42.85743" lon="0.26627">
        <ele>1562.7</ele>
        <time>2022-02-09T08:07:01Z</time>
      </trkpt>
      <trkpt lat="42.85743" lon="0.26627">
        <ele>1562.7</ele>
        <time>2022-02-09T08:07:02Z</time>
      </trkpt>
      <trkpt lat="42.85743" lon="0.26627">
        <ele>1562.7</ele>
        <time>2022-02-09T08:07:03Z</time>
      </trkpt>
      <trkpt lat="42.85743" lon="0.26627">
        <ele>1562.7</ele>
        <time>2022-02-09T08:07:04Z</time>
      </trkpt>
      <trkpt lat="42.85743" lon="0.26627">
        <ele>1562.7</ele>
        <time>2022-02-09T08:07:05Z</time>
      </trkpt>
      <trkpt lat="42.85743" lon="0.26627">
        <ele>1562.7</ele>
        <time>2022-02-09T08:07:06Z</time>
      </trkpt>
      <trkpt lat="42.85743" lon="0.26627">
        <ele>1562.7</ele>
        <time>2022-02-09T08:07:07Z</time>
      </trkpt>
      <trkpt lat="42.85743" lon="0.26627">
        <ele>1562.7</ele>
        <time>2022-02-09T08:07:08Z</time>
      </trkpt>
      <trkpt lat="42.85743" lon="0.26627">
        <ele>1562.7</ele>
        <time>2022-02-09T08:07:09Z</time>
      </trkpt>
      <trkpt lat="42.85743" lon="0.26627">
        <ele>1562.7</ele>
        <time>2022-02-09T08:07:10Z</time>
      </trkpt>
      <trkpt lat="42.85743" lon="0.26627">
        <ele>1562.7</ele>
        <time>2022-02-09T08:07:11Z</time>
      </trkpt>
      <trkpt lat="42.85743" lon="0.26627">
        <ele>1562.7</ele>
        <time>2022-02-09T08:07:12Z</time>
      </trkpt>
      <trkpt lat="42.85743" lon="0.26627">
        <ele>1562.7</ele>
        <time>2022-02-09T08:07:13Z</time>
      </trkpt>
      <trkpt lat="42.85743" lon="0.26627">
        <ele>1562.7</ele>
        <time>2022-02-09T08:07:14Z</time>
      </trkpt>
      <trkpt lat="42.85743" lon="0.26627">
        <ele>1562.7</ele>
        <time>2022-02-09T08:07:15Z</time>
      </trkpt>
      <trkpt lat="42.85743" lon="0.26627">
        <ele>1562.7</ele>
        <time>2022-02-09T08:07:16Z</time>
      </trkpt>
      <trkpt lat="42.85743" lon="0.26627">
        <ele>1562.7</ele>
        <time>2022-02-09T08:07:17Z</time>
      </trkpt>
      <trkpt lat="42.85743" lon="0.26627">
        <ele>1562.7</ele>
        <time>2022-02-09T08:07:18Z</time>
      </trkpt>
      <trkpt lat="42.85743" lon="0.26627">
        <ele>1562.7</ele>
        <time>2022-02-09T08:07:19Z</time>
      </trkpt>
      <trkpt lat="42.85743" lon="0.26627">
        <ele>1562.7</ele>
        <time>2022-02-09T08:07:20Z</time>
      </trkpt>
      <trkpt lat="42.85743" lon="0.26627">
        <ele>1562.7</ele>
        <time>2022-02-09T08:07:21Z</time>
      </trkpt>
      <trkpt lat="42.85743" lon="0.26627">
        <ele>1562.7</ele>
        <time>2022-02-09T08:07:22Z</time>
      </trkpt>
      <trkpt lat="42.85743" lon="0.26627">
        <ele>1562.7</ele>
        <time>2022-02-09T08:07:23Z</time>
      </trkpt>
      <trkpt lat="42.85743" lon="0.26627">
        <ele>1562.7</ele>
        <time>2022-02-09T08:07:24Z</time>
      </trkpt>
      <trkpt lat="42.85743" lon="0.26627">
        <ele>1562.7</ele>
        <time>2022-02-09T08:07:25Z</time>
      </trkpt>
      <trkpt lat="42.85743" lon="0.26627">
        <ele>1562.7</ele>
        <time>2022-02-09T08:07:26Z</time>
      </trkpt>
      <trkpt lat="42.85743" lon="0.26627">
        <ele>1562.7</ele>
        <time>2022-02-09T08:07:27Z</time>
      </trkpt>
      <trkpt lat="42.85743" lon="0.26627">
        <ele>1562.7</ele>
        <time>2022-02-09T08:07:28Z</time>
      </trkpt>
      <trkpt lat="42.85743" lon="0.26627">
        <ele>1562.7</ele>
        <time>2022-02-09T08:07:29Z</time>
      </trkpt>
      <trkpt lat="42.85743" lon="0.26627">
        <ele>1562.7</ele>
        <time>2022-02-09T08:07:30Z</time>
      </trkpt>
      <trkpt lat="42.85743" lon="0.26627">
        <ele>1562.7</ele>
        <time>2022-02-09T08:07:31Z</time>
      </trkpt>
      <trkpt lat="42.85743" lon="0.26627">
        <ele>1562.8</ele>
        <time>2022-02-09T08:07:32Z</time>
      </trkpt>
      <trkpt lat="42.85743" lon="0.26627">
        <ele>1562.9</ele>
        <time>2022-02-09T08:07:33Z</time>
      </trkpt>
      <trkpt lat="42.85743" lon="0.26626">
        <ele>1562.9</ele>
        <time>2022-02-09T08:07:34Z</time>
      </trkpt>
      <trkpt lat="42.85743" lon="0.26626">
        <ele>1563</ele>
        <time>2022-02-09T08:07:35Z</time>
      </trkpt>
      <trkpt lat="42.85743" lon="0.26626">
        <ele>1563</ele>
        <time>2022-02-09T08:07:36Z</time>
      </trkpt>
      <trkpt lat="42.85743" lon="0.26626">
        <ele>1563</ele>
        <time>2022-02-09T08:07:37Z</time>
      </trkpt>
      <trkpt lat="42.85743" lon="0.26626">
        <ele>1563</ele>
        <time>2022-02-09T08:07:38Z</time>
      </trkpt>
      <trkpt lat="42.85743" lon="0.26626">
        <ele>1563</ele>
        <time>2022-02-09T08:07:39Z</time>
      </trkpt>
      <trkpt lat="42.85743" lon="0.26626">
        <ele>1563</ele>
        <time>2022-02-09T08:07:40Z</time>
      </trkpt>
      <trkpt lat="42.85743" lon="0.26626">
        <ele>1563</ele>
        <time>2022-02-09T08:07:41Z</time>
      </trkpt>
      <trkpt lat="42.85743" lon="0.26626">
        <ele>1563</ele>
        <time>2022-02-09T08:07:42Z</time>
      </trkpt>
      <trkpt lat="42.85743" lon="0.26626">
        <ele>1563</ele>
        <time>2022-02-09T08:07:43Z</time>
      </trkpt>
      <trkpt lat="42.85743" lon="0.26626">
        <ele>1563</ele>
        <time>2022-02-09T08:07:44Z</time>
      </trkpt>
      <trkpt lat="42.85743" lon="0.26626">
        <ele>1563</ele>
        <time>2022-02-09T08:07:45Z</time>
      </trkpt>
      <trkpt lat="42.85743" lon="0.26626">
        <ele>1563</ele>
        <time>2022-02-09T08:07:46Z</time>
      </trkpt>
      <trkpt lat="42.85743" lon="0.26626">
        <ele>1563</ele>
        <time>2022-02-09T08:07:47Z</time>
      </trkpt>
      <trkpt lat="42.85743" lon="0.26626">
        <ele>1563</ele>
        <time>2022-02-09T08:07:48Z</time>
      </trkpt>
      <trkpt lat="42.85743" lon="0.26626">
        <ele>1563</ele>
        <time>2022-02-09T08:07:49Z</time>
      </trkpt>
      <trkpt lat="42.85743" lon="0.26626">
        <ele>1563</ele>
        <time>2022-02-09T08:07:50Z</time>
      </trkpt>
      <trkpt lat="42.85743" lon="0.26626">
        <ele>1563</ele>
        <time>2022-02-09T08:07:51Z</time>
      </trkpt>
      <trkpt lat="42.85743" lon="0.26626">
        <ele>1563</ele>
        <time>2022-02-09T08:07:52Z</time>
      </trkpt>
      <trkpt lat="42.85743" lon="0.26626">
        <ele>1563</ele>
        <time>2022-02-09T08:07:53Z</time>
      </trkpt>
      <trkpt lat="42.85743" lon="0.26626">
        <ele>1563</ele>
        <time>2022-02-09T08:07:54Z</time>
      </trkpt>
      <trkpt lat="42.85743" lon="0.26626">
        <ele>1563</ele>
        <time>2022-02-09T08:07:55Z</time>
      </trkpt>
      <trkpt lat="42.85743" lon="0.26626">
        <ele>1563</ele>
        <time>2022-02-09T08:07:56Z</time>
      </trkpt>
      <trkpt lat="42.85743" lon="0.26626">
        <ele>1563</ele>
        <time>2022-02-09T08:07:57Z</time>
      </trkpt>
      <trkpt lat="42.85743" lon="0.26626">
        <ele>1563</ele>
        <time>2022-02-09T08:07:58Z</time>
      </trkpt>
      <trkpt lat="42.85743" lon="0.26626">
        <ele>1563</ele>
        <time>2022-02-09T08:07:59Z</time>
      </trkpt>
      <trkpt lat="42.85743" lon="0.26626">
        <ele>1563</ele>
        <time>2022-02-09T08:08:00Z</time>
      </trkpt>
      <trkpt lat="42.85743" lon="0.26626">
        <ele>1563</ele>
        <time>2022-02-09T08:08:01Z</time>
      </trkpt>
      <trkpt lat="42.85743" lon="0.26626">
        <ele>1563</ele>
        <time>2022-02-09T08:08:02Z</time>
      </trkpt>
      <trkpt lat="42.85743" lon="0.26626">
        <ele>1563</ele>
        <time>2022-02-09T08:08:03Z</time>
      </trkpt>
      <trkpt lat="42.85743" lon="0.26626">
        <ele>1563</ele>
        <time>2022-02-09T08:08:04Z</time>
      </trkpt>
      <trkpt lat="42.85743" lon="0.26626">
        <ele>1563</ele>
        <time>2022-02-09T08:08:05Z</time>
      </trkpt>
      <trkpt lat="42.85743" lon="0.26626">
        <ele>1563</ele>
        <time>2022-02-09T08:08:06Z</time>
      </trkpt>
      <trkpt lat="42.85743" lon="0.26626">
        <ele>1563</ele>
        <time>2022-02-09T08:08:07Z</time>
      </trkpt>
      <trkpt lat="42.85743" lon="0.26626">
        <ele>1563</ele>
        <time>2022-02-09T08:08:08Z</time>
      </trkpt>
      <trkpt lat="42.85743" lon="0.26626">
        <ele>1563</ele>
        <time>2022-02-09T08:08:09Z</time>
      </trkpt>
      <trkpt lat="42.85743" lon="0.26626">
        <ele>1563</ele>
        <time>2022-02-09T08:08:10Z</time>
      </trkpt>
      <trkpt lat="42.85743" lon="0.26626">
        <ele>1563</ele>
        <time>2022-02-09T08:08:11Z</time>
      </trkpt>
      <trkpt lat="42.85743" lon="0.26626">
        <ele>1563</ele>
        <time>2022-02-09T08:08:12Z</time>
      </trkpt>
      <trkpt lat="42.85743" lon="0.26626">
        <ele>1563</ele>
        <time>2022-02-09T08:08:13Z</time>
      </trkpt>
      <trkpt lat="42.85743" lon="0.26626">
        <ele>1563</ele>
        <time>2022-02-09T08:08:14Z</time>
      </trkpt>
      <trkpt lat="42.85743" lon="0.26626">
        <ele>1563</ele>
        <time>2022-02-09T08:08:15Z</time>
      </trkpt>
      <trkpt lat="42.85743" lon="0.26626">
        <ele>1563</ele>
        <time>2022-02-09T08:08:16Z</time>
      </trkpt>
      <trkpt lat="42.85743" lon="0.26626">
        <ele>1563</ele>
        <time>2022-02-09T08:08:17Z</time>
      </trkpt>
      <trkpt lat="42.85743" lon="0.26626">
        <ele>1563</ele>
        <time>2022-02-09T08:08:18Z</time>
      </trkpt>
      <trkpt lat="42.85743" lon="0.26626">
        <ele>1563</ele>
        <time>2022-02-09T08:08:19Z</time>
      </trkpt>
      <trkpt lat="42.85743" lon="0.26626">
        <ele>1563</ele>
        <time>2022-02-09T08:08:20Z</time>
      </trkpt>
      <trkpt lat="42.85743" lon="0.26626">
        <ele>1563</ele>
        <time>2022-02-09T08:08:21Z</time>
      </trkpt>
      <trkpt lat="42.85743" lon="0.26626">
        <ele>1563</ele>
        <time>2022-02-09T08:08:22Z</time>
      </trkpt>
      <trkpt lat="42.85743" lon="0.26626">
        <ele>1563</ele>
        <time>2022-02-09T08:08:23Z</time>
      </trkpt>
      <trkpt lat="42.85743" lon="0.26626">
        <ele>1563</ele>
        <time>2022-02-09T08:08:24Z</time>
      </trkpt>
      <trkpt lat="42.85743" lon="0.26626">
        <ele>1563</ele>
        <time>2022-02-09T08:08:25Z</time>
      </trkpt>
      <trkpt lat="42.85743" lon="0.26626">
        <ele>1563</ele>
        <time>2022-02-09T08:08:26Z</time>
      </trkpt>
      <trkpt lat="42.85743" lon="0.26626">
        <ele>1563</ele>
        <time>2022-02-09T08:08:27Z</time>
      </trkpt>
      <trkpt lat="42.85743" lon="0.26626">
        <ele>1563</ele>
        <time>2022-02-09T08:08:28Z</time>
      </trkpt>
      <trkpt lat="42.85743" lon="0.26626">
        <ele>1563</ele>
        <time>2022-02-09T08:08:29Z</time>
      </trkpt>
      <trkpt lat="42.85743" lon="0.26626">
        <ele>1563</ele>
        <time>2022-02-09T08:08:30Z</time>
      </trkpt>
      <trkpt lat="42.85743" lon="0.26626">
        <ele>1563</ele>
        <time>2022-02-09T08:08:31Z</time>
      </trkpt>
      <trkpt lat="42.85743" lon="0.26626">
        <ele>1563</ele>
        <time>2022-02-09T08:08:32Z</time>
      </trkpt>
      <trkpt lat="42.85743" lon="0.26626">
        <ele>1563</ele>
        <time>2022-02-09T08:08:33Z</time>
      </trkpt>
      <trkpt lat="42.85743" lon="0.26626">
        <ele>1563</ele>
        <time>2022-02-09T08:08:34Z</time>
      </trkpt>
      <trkpt lat="42.85743" lon="0.26626">
        <ele>1563</ele>
        <time>2022-02-09T08:08:35Z</time>
      </trkpt>
      <trkpt lat="42.85743" lon="0.26626">
        <ele>1563</ele>
        <time>2022-02-09T08:08:36Z</time>
      </trkpt>
      <trkpt lat="42.85743" lon="0.26626">
        <ele>1563</ele>
        <time>2022-02-09T08:08:37Z</time>
      </trkpt>
      <trkpt lat="42.85743" lon="0.26626">
        <ele>1563</ele>
        <time>2022-02-09T08:08:38Z</time>
      </trkpt>
      <trkpt lat="42.85743" lon="0.26626">
        <ele>1563</ele>
        <time>2022-02-09T08:08:39Z</time>
      </trkpt>
      <trkpt lat="42.85743" lon="0.26626">
        <ele>1563</ele>
        <time>2022-02-09T08:08:40Z</time>
      </trkpt>
      <trkpt lat="42.85743" lon="0.26626">
        <ele>1563</ele>
        <time>2022-02-09T08:08:41Z</time>
      </trkpt>
      <trkpt lat="42.85743" lon="0.26626">
        <ele>1563</ele>
        <time>2022-02-09T08:08:42Z</time>
      </trkpt>
      <trkpt lat="42.85743" lon="0.26626">
        <ele>1563</ele>
        <time>2022-02-09T08:08:43Z</time>
      </trkpt>
      <trkpt lat="42.85743" lon="0.26626">
        <ele>1563</ele>
        <time>2022-02-09T08:08:44Z</time>
      </trkpt>
      <trkpt lat="42.85743" lon="0.26626">
        <ele>1563</ele>
        <time>2022-02-09T08:08:45Z</time>
      </trkpt>
      <trkpt lat="42.85743" lon="0.26626">
        <ele>1563</ele>
        <time>2022-02-09T08:08:46Z</time>
      </trkpt>
      <trkpt lat="42.85743" lon="0.26625">
        <ele>1563.1</ele>
        <time>2022-02-09T08:08:47Z</time>
      </trkpt>
      <trkpt lat="42.85743" lon="0.26625">
        <ele>1563.3</ele>
        <time>2022-02-09T08:08:48Z</time>
      </trkpt>
      <trkpt lat="42.85743" lon="0.26624">
        <ele>1563.4</ele>
        <time>2022-02-09T08:08:49Z</time>
      </trkpt>
      <trkpt lat="42.85743" lon="0.26623">
        <ele>1563.6</ele>
        <time>2022-02-09T08:08:50Z</time>
      </trkpt>
      <trkpt lat="42.85743" lon="0.26622">
        <ele>1563.7</ele>
        <time>2022-02-09T08:08:51Z</time>
      </trkpt>
      <trkpt lat="42.85743" lon="0.26621">
        <ele>1563.9</ele>
        <time>2022-02-09T08:08:52Z</time>
      </trkpt>
      <trkpt lat="42.85743" lon="0.2662">
        <ele>1564.1</ele>
        <time>2022-02-09T08:08:53Z</time>
      </trkpt>
      <trkpt lat="42.85743" lon="0.26618">
        <ele>1564.3</ele>
        <time>2022-02-09T08:08:54Z</time>
      </trkpt>
      <trkpt lat="42.85743" lon="0.26617">
        <ele>1564.4</ele>
        <time>2022-02-09T08:08:55Z</time>
      </trkpt>
      <trkpt lat="42.85743" lon="0.26616">
        <ele>1564.6</ele>
        <time>2022-02-09T08:08:56Z</time>
      </trkpt>
      <trkpt lat="42.85743" lon="0.26615">
        <ele>1564.7</ele>
        <time>2022-02-09T08:08:57Z</time>
      </trkpt>
      <trkpt lat="42.85743" lon="0.26613">
        <ele>1564.8</ele>
        <time>2022-02-09T08:08:58Z</time>
      </trkpt>
      <trkpt lat="42.85743" lon="0.26612">
        <ele>1565</ele>
        <time>2022-02-09T08:08:59Z</time>
      </trkpt>
      <trkpt lat="42.85743" lon="0.26611">
        <ele>1565.1</ele>
        <time>2022-02-09T08:09:00Z</time>
      </trkpt>
      <trkpt lat="42.85744" lon="0.2661">
        <ele>1565.3</ele>
        <time>2022-02-09T08:09:01Z</time>
      </trkpt>
      <trkpt lat="42.85744" lon="0.26608">
        <ele>1565.4</ele>
        <time>2022-02-09T08:09:02Z</time>
      </trkpt>
      <trkpt lat="42.85744" lon="0.26607">
        <ele>1565.6</ele>
        <time>2022-02-09T08:09:03Z</time>
      </trkpt>
      <trkpt lat="42.85744" lon="0.26606">
        <ele>1565.7</ele>
        <time>2022-02-09T08:09:04Z</time>
      </trkpt>
      <trkpt lat="42.85744" lon="0.26604">
        <ele>1565.9</ele>
        <time>2022-02-09T08:09:05Z</time>
      </trkpt>
      <trkpt lat="42.85744" lon="0.26603">
        <ele>1566</ele>
        <time>2022-02-09T08:09:06Z</time>
      </trkpt>
      <trkpt lat="42.85744" lon="0.26602">
        <ele>1566.2</ele>
        <time>2022-02-09T08:09:07Z</time>
      </trkpt>
      <trkpt lat="42.85745" lon="0.266">
        <ele>1566.4</ele>
        <time>2022-02-09T08:09:08Z</time>
      </trkpt>
      <trkpt lat="42.85745" lon="0.26599">
        <ele>1566.5</ele>
        <time>2022-02-09T08:09:09Z</time>
      </trkpt>
      <trkpt lat="42.85745" lon="0.26598">
        <ele>1566.7</ele>
        <time>2022-02-09T08:09:10Z</time>
      </trkpt>
      <trkpt lat="42.85745" lon="0.26597">
        <ele>1566.9</ele>
        <time>2022-02-09T08:09:11Z</time>
      </trkpt>
      <trkpt lat="42.85745" lon="0.26596">
        <ele>1567</ele>
        <time>2022-02-09T08:09:12Z</time>
      </trkpt>
      <trkpt lat="42.85745" lon="0.26595">
        <ele>1567.1</ele>
        <time>2022-02-09T08:09:13Z</time>
      </trkpt>
      <trkpt lat="42.85746" lon="0.26594">
        <ele>1567.3</ele>
        <time>2022-02-09T08:09:14Z</time>
      </trkpt>
      <trkpt lat="42.85746" lon="0.26593">
        <ele>1567.4</ele>
        <time>2022-02-09T08:09:15Z</time>
      </trkpt>
      <trkpt lat="42.85746" lon="0.26592">
        <ele>1567.5</ele>
        <time>2022-02-09T08:09:16Z</time>
      </trkpt>
      <trkpt lat="42.85746" lon="0.26591">
        <ele>1567.7</ele>
        <time>2022-02-09T08:09:17Z</time>
      </trkpt>
      <trkpt lat="42.85746" lon="0.2659">
        <ele>1567.8</ele>
        <time>2022-02-09T08:09:18Z</time>
      </trkpt>
      <trkpt lat="42.85747" lon="0.26589">
        <ele>1568</ele>
        <time>2022-02-09T08:09:19Z</time>
      </trkpt>
      <trkpt lat="42.85747" lon="0.26588">
        <ele>1568.2</ele>
        <time>2022-02-09T08:09:20Z</time>
      </trkpt>
      <trkpt lat="42.85747" lon="0.26587">
        <ele>1568.4</ele>
        <time>2022-02-09T08:09:21Z</time>
      </trkpt>
      <trkpt lat="42.85747" lon="0.26586">
        <ele>1568.6</ele>
        <time>2022-02-09T08:09:22Z</time>
      </trkpt>
      <trkpt lat="42.85748" lon="0.26584">
        <ele>1568.8</ele>
        <time>2022-02-09T08:09:23Z</time>
      </trkpt>
      <trkpt lat="42.85748" lon="0.26583">
        <ele>1568.9</ele>
        <time>2022-02-09T08:09:24Z</time>
      </trkpt>
      <trkpt lat="42.85748" lon="0.26582">
        <ele>1569.1</ele>
        <time>2022-02-09T08:09:25Z</time>
      </trkpt>
      <trkpt lat="42.85748" lon="0.26581">
        <ele>1569.3</ele>
        <time>2022-02-09T08:09:26Z</time>
      </trkpt>
      <trkpt lat="42.85748" lon="0.2658">
        <ele>1569.4</ele>
        <time>2022-02-09T08:09:27Z</time>
      </trkpt>
      <trkpt lat="42.85748" lon="0.2658">
        <ele>1569.6</ele>
        <time>2022-02-09T08:09:28Z</time>
      </trkpt>
      <trkpt lat="42.85749" lon="0.26579">
        <ele>1569.7</ele>
        <time>2022-02-09T08:09:29Z</time>
      </trkpt>
      <trkpt lat="42.85749" lon="0.26578">
        <ele>1569.9</ele>
        <time>2022-02-09T08:09:30Z</time>
      </trkpt>
      <trkpt lat="42.85749" lon="0.26577">
        <ele>1570</ele>
        <time>2022-02-09T08:09:31Z</time>
      </trkpt>
      <trkpt lat="42.85749" lon="0.26576">
        <ele>1570.2</ele>
        <time>2022-02-09T08:09:32Z</time>
      </trkpt>
      <trkpt lat="42.85749" lon="0.26575">
        <ele>1570.4</ele>
        <time>2022-02-09T08:09:33Z</time>
      </trkpt>
      <trkpt lat="42.85749" lon="0.26574">
        <ele>1570.5</ele>
        <time>2022-02-09T08:09:34Z</time>
      </trkpt>
      <trkpt lat="42.8575" lon="0.26573">
        <ele>1570.7</ele>
        <time>2022-02-09T08:09:35Z</time>
      </trkpt>
      <trkpt lat="42.8575" lon="0.26572">
        <ele>1570.9</ele>
        <time>2022-02-09T08:09:36Z</time>
      </trkpt>
      <trkpt lat="42.8575" lon="0.26571">
        <ele>1571</ele>
        <time>2022-02-09T08:09:37Z</time>
      </trkpt>
      <trkpt lat="42.8575" lon="0.2657">
        <ele>1571.2</ele>
        <time>2022-02-09T08:09:38Z</time>
      </trkpt>
      <trkpt lat="42.8575" lon="0.26569">
        <ele>1571.4</ele>
        <time>2022-02-09T08:09:39Z</time>
      </trkpt>
      <trkpt lat="42.8575" lon="0.26568">
        <ele>1571.6</ele>
        <time>2022-02-09T08:09:40Z</time>
      </trkpt>
      <trkpt lat="42.85751" lon="0.26567">
        <ele>1571.8</ele>
        <time>2022-02-09T08:09:41Z</time>
      </trkpt>
      <trkpt lat="42.85751" lon="0.26566">
        <ele>1571.9</ele>
        <time>2022-02-09T08:09:42Z</time>
      </trkpt>
      <trkpt lat="42.85751" lon="0.26565">
        <ele>1572.1</ele>
        <time>2022-02-09T08:09:43Z</time>
      </trkpt>
      <trkpt lat="42.85751" lon="0.26564">
        <ele>1572.3</ele>
        <time>2022-02-09T08:09:44Z</time>
      </trkpt>
      <trkpt lat="42.85751" lon="0.26563">
        <ele>1572.5</ele>
        <time>2022-02-09T08:09:45Z</time>
      </trkpt>
      <trkpt lat="42.85751" lon="0.26561">
        <ele>1572.7</ele>
        <time>2022-02-09T08:09:46Z</time>
      </trkpt>
      <trkpt lat="42.85751" lon="0.2656">
        <ele>1572.9</ele>
        <time>2022-02-09T08:09:47Z</time>
      </trkpt>
      <trkpt lat="42.85751" lon="0.26559">
        <ele>1573.1</ele>
        <time>2022-02-09T08:09:48Z</time>
      </trkpt>
      <trkpt lat="42.85751" lon="0.26558">
        <ele>1573.3</ele>
        <time>2022-02-09T08:09:49Z</time>
      </trkpt>
      <trkpt lat="42.85751" lon="0.26557">
        <ele>1573.4</ele>
        <time>2022-02-09T08:09:50Z</time>
      </trkpt>
      <trkpt lat="42.85752" lon="0.26556">
        <ele>1573.5</ele>
        <time>2022-02-09T08:09:51Z</time>
      </trkpt>
      <trkpt lat="42.85752" lon="0.26556">
        <ele>1573.7</ele>
        <time>2022-02-09T08:09:52Z</time>
      </trkpt>
      <trkpt lat="42.85753" lon="0.26555">
        <ele>1573.8</ele>
        <time>2022-02-09T08:09:53Z</time>
      </trkpt>
      <trkpt lat="42.85753" lon="0.26554">
        <ele>1573.9</ele>
        <time>2022-02-09T08:09:54Z</time>
      </trkpt>
      <trkpt lat="42.85753" lon="0.26553">
        <ele>1574.1</ele>
        <time>2022-02-09T08:09:55Z</time>
      </trkpt>
      <trkpt lat="42.85754" lon="0.26553">
        <ele>1574.1</ele>
        <time>2022-02-09T08:09:56Z</time>
      </trkpt>
      <trkpt lat="42.85754" lon="0.26552">
        <ele>1574.2</ele>
        <time>2022-02-09T08:09:57Z</time>
      </trkpt>
      <trkpt lat="42.85754" lon="0.26551">
        <ele>1574.3</ele>
        <time>2022-02-09T08:09:58Z</time>
      </trkpt>
      <trkpt lat="42.85754" lon="0.2655">
        <ele>1574.4</ele>
        <time>2022-02-09T08:09:59Z</time>
      </trkpt>
      <trkpt lat="42.85753" lon="0.26549">
        <ele>1574.6</ele>
        <time>2022-02-09T08:10:00Z</time>
      </trkpt>
      <trkpt lat="42.85753" lon="0.26548">
        <ele>1574.7</ele>
        <time>2022-02-09T08:10:01Z</time>
      </trkpt>
      <trkpt lat="42.85753" lon="0.26546">
        <ele>1574.8</ele>
        <time>2022-02-09T08:10:02Z</time>
      </trkpt>
      <trkpt lat="42.85754" lon="0.26545">
        <ele>1575</ele>
        <time>2022-02-09T08:10:03Z</time>
      </trkpt>
      <trkpt lat="42.85754" lon="0.26544">
        <ele>1575.1</ele>
        <time>2022-02-09T08:10:04Z</time>
      </trkpt>
      <trkpt lat="42.85754" lon="0.26542">
        <ele>1575.2</ele>
        <time>2022-02-09T08:10:05Z</time>
      </trkpt>
      <trkpt lat="42.85754" lon="0.26541">
        <ele>1575.4</ele>
        <time>2022-02-09T08:10:06Z</time>
      </trkpt>
      <trkpt lat="42.85754" lon="0.26539">
        <ele>1575.5</ele>
        <time>2022-02-09T08:10:07Z</time>
      </trkpt>
      <trkpt lat="42.85754" lon="0.26538">
        <ele>1575.6</ele>
        <time>2022-02-09T08:10:08Z</time>
      </trkpt>
      <trkpt lat="42.85755" lon="0.26537">
        <ele>1575.8</ele>
        <time>2022-02-09T08:10:09Z</time>
      </trkpt>
      <trkpt lat="42.85755" lon="0.26536">
        <ele>1575.9</ele>
        <time>2022-02-09T08:10:10Z</time>
      </trkpt>
      <trkpt lat="42.85755" lon="0.26535">
        <ele>1576</ele>
        <time>2022-02-09T08:10:11Z</time>
      </trkpt>
      <trkpt lat="42.85755" lon="0.26534">
        <ele>1576.1</ele>
        <time>2022-02-09T08:10:12Z</time>
      </trkpt>
      <trkpt lat="42.85755" lon="0.26533">
        <ele>1576.2</ele>
        <time>2022-02-09T08:10:13Z</time>
      </trkpt>
      <trkpt lat="42.85755" lon="0.26532">
        <ele>1576.3</ele>
        <time>2022-02-09T08:10:14Z</time>
      </trkpt>
      <trkpt lat="42.85755" lon="0.26531">
        <ele>1576.4</ele>
        <time>2022-02-09T08:10:15Z</time>
      </trkpt>
      <trkpt lat="42.85755" lon="0.2653">
        <ele>1576.5</ele>
        <time>2022-02-09T08:10:16Z</time>
      </trkpt>
      <trkpt lat="42.85755" lon="0.26529">
        <ele>1576.7</ele>
        <time>2022-02-09T08:10:17Z</time>
      </trkpt>
      <trkpt lat="42.85755" lon="0.26528">
        <ele>1576.8</ele>
        <time>2022-02-09T08:10:18Z</time>
      </trkpt>
      <trkpt lat="42.85755" lon="0.26527">
        <ele>1577</ele>
        <time>2022-02-09T08:10:19Z</time>
      </trkpt>
      <trkpt lat="42.85756" lon="0.26525">
        <ele>1577.2</ele>
        <time>2022-02-09T08:10:20Z</time>
      </trkpt>
      <trkpt lat="42.85756" lon="0.26524">
        <ele>1577.4</ele>
        <time>2022-02-09T08:10:21Z</time>
      </trkpt>
      <trkpt lat="42.85757" lon="0.26522">
        <ele>1577.6</ele>
        <time>2022-02-09T08:10:22Z</time>
      </trkpt>
      <trkpt lat="42.85757" lon="0.2652">
        <ele>1577.8</ele>
        <time>2022-02-09T08:10:23Z</time>
      </trkpt>
      <trkpt lat="42.85757" lon="0.26519">
        <ele>1578</ele>
        <time>2022-02-09T08:10:24Z</time>
      </trkpt>
      <trkpt lat="42.85758" lon="0.26518">
        <ele>1578.2</ele>
        <time>2022-02-09T08:10:25Z</time>
      </trkpt>
      <trkpt lat="42.85758" lon="0.26517">
        <ele>1578.3</ele>
        <time>2022-02-09T08:10:26Z</time>
      </trkpt>
      <trkpt lat="42.85758" lon="0.26516">
        <ele>1578.3</ele>
        <time>2022-02-09T08:10:27Z</time>
      </trkpt>
      <trkpt lat="42.85758" lon="0.26516">
        <ele>1578.4</ele>
        <time>2022-02-09T08:10:28Z</time>
      </trkpt>
      <trkpt lat="42.85759" lon="0.26515">
        <ele>1578.5</ele>
        <time>2022-02-09T08:10:29Z</time>
      </trkpt>
      <trkpt lat="42.85759" lon="0.26514">
        <ele>1578.7</ele>
        <time>2022-02-09T08:10:30Z</time>
      </trkpt>
      <trkpt lat="42.85759" lon="0.26513">
        <ele>1578.8</ele>
        <time>2022-02-09T08:10:31Z</time>
      </trkpt>
      <trkpt lat="42.85759" lon="0.26512">
        <ele>1578.9</ele>
        <time>2022-02-09T08:10:32Z</time>
      </trkpt>
      <trkpt lat="42.85759" lon="0.26511">
        <ele>1579</ele>
        <time>2022-02-09T08:10:33Z</time>
      </trkpt>
      <trkpt lat="42.85759" lon="0.26509">
        <ele>1579.3</ele>
        <time>2022-02-09T08:10:34Z</time>
      </trkpt>
      <trkpt lat="42.85758" lon="0.26508">
        <ele>1579.5</ele>
        <time>2022-02-09T08:10:35Z</time>
      </trkpt>
      <trkpt lat="42.85758" lon="0.26506">
        <ele>1579.6</ele>
        <time>2022-02-09T08:10:36Z</time>
      </trkpt>
      <trkpt lat="42.85759" lon="0.26504">
        <ele>1579.8</ele>
        <time>2022-02-09T08:10:37Z</time>
      </trkpt>
      <trkpt lat="42.85759" lon="0.26503">
        <ele>1579.9</ele>
        <time>2022-02-09T08:10:38Z</time>
      </trkpt>
      <trkpt lat="42.85759" lon="0.26502">
        <ele>1580.1</ele>
        <time>2022-02-09T08:10:39Z</time>
      </trkpt>
      <trkpt lat="42.85759" lon="0.265">
        <ele>1580.3</ele>
        <time>2022-02-09T08:10:40Z</time>
      </trkpt>
      <trkpt lat="42.85759" lon="0.26499">
        <ele>1580.4</ele>
        <time>2022-02-09T08:10:41Z</time>
      </trkpt>
      <trkpt lat="42.85759" lon="0.26498">
        <ele>1580.5</ele>
        <time>2022-02-09T08:10:42Z</time>
      </trkpt>
      <trkpt lat="42.85759" lon="0.26497">
        <ele>1580.7</ele>
        <time>2022-02-09T08:10:43Z</time>
      </trkpt>
      <trkpt lat="42.85759" lon="0.26496">
        <ele>1580.8</ele>
        <time>2022-02-09T08:10:44Z</time>
      </trkpt>
      <trkpt lat="42.85759" lon="0.26495">
        <ele>1580.9</ele>
        <time>2022-02-09T08:10:45Z</time>
      </trkpt>
      <trkpt lat="42.85759" lon="0.26493">
        <ele>1581</ele>
        <time>2022-02-09T08:10:46Z</time>
      </trkpt>
      <trkpt lat="42.85759" lon="0.26492">
        <ele>1581.2</ele>
        <time>2022-02-09T08:10:47Z</time>
      </trkpt>
      <trkpt lat="42.8576" lon="0.26491">
        <ele>1581.3</ele>
        <time>2022-02-09T08:10:48Z</time>
      </trkpt>
      <trkpt lat="42.8576" lon="0.2649">
        <ele>1581.5</ele>
        <time>2022-02-09T08:10:49Z</time>
      </trkpt>
      <trkpt lat="42.8576" lon="0.26488">
        <ele>1581.6</ele>
        <time>2022-02-09T08:10:50Z</time>
      </trkpt>
      <trkpt lat="42.85761" lon="0.26487">
        <ele>1581.8</ele>
        <time>2022-02-09T08:10:51Z</time>
      </trkpt>
      <trkpt lat="42.85761" lon="0.26486">
        <ele>1581.9</ele>
        <time>2022-02-09T08:10:52Z</time>
      </trkpt>
      <trkpt lat="42.85762" lon="0.26485">
        <ele>1582.1</ele>
        <time>2022-02-09T08:10:53Z</time>
      </trkpt>
      <trkpt lat="42.85762" lon="0.26484">
        <ele>1582.2</ele>
        <time>2022-02-09T08:10:54Z</time>
      </trkpt>
      <trkpt lat="42.85762" lon="0.26483">
        <ele>1582.4</ele>
        <time>2022-02-09T08:10:55Z</time>
      </trkpt>
      <trkpt lat="42.85762" lon="0.26481">
        <ele>1582.6</ele>
        <time>2022-02-09T08:10:56Z</time>
      </trkpt>
      <trkpt lat="42.85763" lon="0.2648">
        <ele>1582.8</ele>
        <time>2022-02-09T08:10:57Z</time>
      </trkpt>
      <trkpt lat="42.85763" lon="0.26479">
        <ele>1582.9</ele>
        <time>2022-02-09T08:10:58Z</time>
      </trkpt>
      <trkpt lat="42.85763" lon="0.26478">
        <ele>1583</ele>
        <time>2022-02-09T08:10:59Z</time>
      </trkpt>
      <trkpt lat="42.85763" lon="0.26477">
        <ele>1583.2</ele>
        <time>2022-02-09T08:11:00Z</time>
      </trkpt>
      <trkpt lat="42.85763" lon="0.26476">
        <ele>1583.3</ele>
        <time>2022-02-09T08:11:01Z</time>
      </trkpt>
      <trkpt lat="42.85763" lon="0.26475">
        <ele>1583.5</ele>
        <time>2022-02-09T08:11:02Z</time>
      </trkpt>
      <trkpt lat="42.85763" lon="0.26473">
        <ele>1583.7</ele>
        <time>2022-02-09T08:11:03Z</time>
      </trkpt>
      <trkpt lat="42.85764" lon="0.26472">
        <ele>1583.8</ele>
        <time>2022-02-09T08:11:04Z</time>
      </trkpt>
      <trkpt lat="42.85764" lon="0.26471">
        <ele>1584</ele>
        <time>2022-02-09T08:11:05Z</time>
      </trkpt>
      <trkpt lat="42.85764" lon="0.2647">
        <ele>1584.2</ele>
        <time>2022-02-09T08:11:06Z</time>
      </trkpt>
      <trkpt lat="42.85764" lon="0.26468">
        <ele>1584.4</ele>
        <time>2022-02-09T08:11:07Z</time>
      </trkpt>
      <trkpt lat="42.85765" lon="0.26467">
        <ele>1584.6</ele>
        <time>2022-02-09T08:11:08Z</time>
      </trkpt>
      <trkpt lat="42.85765" lon="0.26466">
        <ele>1584.7</ele>
        <time>2022-02-09T08:11:09Z</time>
      </trkpt>
      <trkpt lat="42.85765" lon="0.26466">
        <ele>1584.8</ele>
        <time>2022-02-09T08:11:10Z</time>
      </trkpt>
      <trkpt lat="42.85766" lon="0.26465">
        <ele>1585</ele>
        <time>2022-02-09T08:11:11Z</time>
      </trkpt>
      <trkpt lat="42.85766" lon="0.26464">
        <ele>1585.1</ele>
        <time>2022-02-09T08:11:12Z</time>
      </trkpt>
      <trkpt lat="42.85766" lon="0.26463">
        <ele>1585.2</ele>
        <time>2022-02-09T08:11:13Z</time>
      </trkpt>
      <trkpt lat="42.85766" lon="0.26463">
        <ele>1585.3</ele>
        <time>2022-02-09T08:11:14Z</time>
      </trkpt>
      <trkpt lat="42.85765" lon="0.26462">
        <ele>1585.4</ele>
        <time>2022-02-09T08:11:15Z</time>
      </trkpt>
      <trkpt lat="42.85765" lon="0.26461">
        <ele>1585.6</ele>
        <time>2022-02-09T08:11:16Z</time>
      </trkpt>
      <trkpt lat="42.85765" lon="0.2646">
        <ele>1585.7</ele>
        <time>2022-02-09T08:11:17Z</time>
      </trkpt>
      <trkpt lat="42.85765" lon="0.26459">
        <ele>1585.8</ele>
        <time>2022-02-09T08:11:18Z</time>
      </trkpt>
      <trkpt lat="42.85765" lon="0.26458">
        <ele>1585.9</ele>
        <time>2022-02-09T08:11:19Z</time>
      </trkpt>
      <trkpt lat="42.85765" lon="0.26457">
        <ele>1586.1</ele>
        <time>2022-02-09T08:11:20Z</time>
      </trkpt>
      <trkpt lat="42.85765" lon="0.26456">
        <ele>1586.2</ele>
        <time>2022-02-09T08:11:21Z</time>
      </trkpt>
      <trkpt lat="42.85766" lon="0.26455">
        <ele>1586.4</ele>
        <time>2022-02-09T08:11:22Z</time>
      </trkpt>
      <trkpt lat="42.85766" lon="0.26454">
        <ele>1586.5</ele>
        <time>2022-02-09T08:11:23Z</time>
      </trkpt>
      <trkpt lat="42.85766" lon="0.26453">
        <ele>1586.6</ele>
        <time>2022-02-09T08:11:24Z</time>
      </trkpt>
      <trkpt lat="42.85766" lon="0.26452">
        <ele>1586.8</ele>
        <time>2022-02-09T08:11:25Z</time>
      </trkpt>
      <trkpt lat="42.85766" lon="0.26451">
        <ele>1587</ele>
        <time>2022-02-09T08:11:26Z</time>
      </trkpt>
      <trkpt lat="42.85766" lon="0.2645">
        <ele>1587.1</ele>
        <time>2022-02-09T08:11:27Z</time>
      </trkpt>
      <trkpt lat="42.85766" lon="0.26448">
        <ele>1587.3</ele>
        <time>2022-02-09T08:11:28Z</time>
      </trkpt>
      <trkpt lat="42.85766" lon="0.26447">
        <ele>1587.5</ele>
        <time>2022-02-09T08:11:29Z</time>
      </trkpt>
      <trkpt lat="42.85766" lon="0.26446">
        <ele>1587.6</ele>
        <time>2022-02-09T08:11:30Z</time>
      </trkpt>
      <trkpt lat="42.85766" lon="0.26444">
        <ele>1587.8</ele>
        <time>2022-02-09T08:11:31Z</time>
      </trkpt>
      <trkpt lat="42.85767" lon="0.26443">
        <ele>1588</ele>
        <time>2022-02-09T08:11:32Z</time>
      </trkpt>
      <trkpt lat="42.85767" lon="0.26442">
        <ele>1588.1</ele>
        <time>2022-02-09T08:11:33Z</time>
      </trkpt>
      <trkpt lat="42.85766" lon="0.2644">
        <ele>1588.3</ele>
        <time>2022-02-09T08:11:34Z</time>
      </trkpt>
      <trkpt lat="42.85766" lon="0.26439">
        <ele>1588.4</ele>
        <time>2022-02-09T08:11:35Z</time>
      </trkpt>
      <trkpt lat="42.85766" lon="0.26438">
        <ele>1588.6</ele>
        <time>2022-02-09T08:11:36Z</time>
      </trkpt>
      <trkpt lat="42.85766" lon="0.26436">
        <ele>1588.8</ele>
        <time>2022-02-09T08:11:37Z</time>
      </trkpt>
      <trkpt lat="42.85767" lon="0.26435">
        <ele>1588.9</ele>
        <time>2022-02-09T08:11:38Z</time>
      </trkpt>
      <trkpt lat="42.85767" lon="0.26435">
        <ele>1589</ele>
        <time>2022-02-09T08:11:39Z</time>
      </trkpt>
      <trkpt lat="42.85767" lon="0.26434">
        <ele>1589.1</ele>
        <time>2022-02-09T08:11:40Z</time>
      </trkpt>
      <trkpt lat="42.85766" lon="0.26433">
        <ele>1589.2</ele>
        <time>2022-02-09T08:11:41Z</time>
      </trkpt>
      <trkpt lat="42.85767" lon="0.26432">
        <ele>1589.3</ele>
        <time>2022-02-09T08:11:42Z</time>
      </trkpt>
      <trkpt lat="42.85767" lon="0.26431">
        <ele>1589.5</ele>
        <time>2022-02-09T08:11:43Z</time>
      </trkpt>
      <trkpt lat="42.85767" lon="0.26429">
        <ele>1589.6</ele>
        <time>2022-02-09T08:11:44Z</time>
      </trkpt>
      <trkpt lat="42.85767" lon="0.26428">
        <ele>1589.7</ele>
        <time>2022-02-09T08:11:45Z</time>
      </trkpt>
      <trkpt lat="42.85767" lon="0.26427">
        <ele>1589.9</ele>
        <time>2022-02-09T08:11:46Z</time>
      </trkpt>
      <trkpt lat="42.85767" lon="0.26426">
        <ele>1590</ele>
        <time>2022-02-09T08:11:47Z</time>
      </trkpt>
      <trkpt lat="42.85767" lon="0.26425">
        <ele>1590.2</ele>
        <time>2022-02-09T08:11:48Z</time>
      </trkpt>
      <trkpt lat="42.85767" lon="0.26423">
        <ele>1590.4</ele>
        <time>2022-02-09T08:11:49Z</time>
      </trkpt>
      <trkpt lat="42.85767" lon="0.26422">
        <ele>1590.5</ele>
        <time>2022-02-09T08:11:50Z</time>
      </trkpt>
      <trkpt lat="42.85767" lon="0.26421">
        <ele>1590.7</ele>
        <time>2022-02-09T08:11:51Z</time>
      </trkpt>
      <trkpt lat="42.85767" lon="0.26419">
        <ele>1590.9</ele>
        <time>2022-02-09T08:11:52Z</time>
      </trkpt>
      <trkpt lat="42.85767" lon="0.26418">
        <ele>1591.1</ele>
        <time>2022-02-09T08:11:53Z</time>
      </trkpt>
      <trkpt lat="42.85768" lon="0.26416">
        <ele>1591.3</ele>
        <time>2022-02-09T08:11:54Z</time>
      </trkpt>
      <trkpt lat="42.85768" lon="0.26415">
        <ele>1591.5</ele>
        <time>2022-02-09T08:11:55Z</time>
      </trkpt>
      <trkpt lat="42.85768" lon="0.26414">
        <ele>1591.7</ele>
        <time>2022-02-09T08:11:56Z</time>
      </trkpt>
      <trkpt lat="42.85768" lon="0.26412">
        <ele>1592</ele>
        <time>2022-02-09T08:11:57Z</time>
      </trkpt>
      <trkpt lat="42.85769" lon="0.2641">
        <ele>1592.2</ele>
        <time>2022-02-09T08:11:58Z</time>
      </trkpt>
      <trkpt lat="42.85769" lon="0.26409">
        <ele>1592.4</ele>
        <time>2022-02-09T08:11:59Z</time>
      </trkpt>
      <trkpt lat="42.85769" lon="0.26407">
        <ele>1592.7</ele>
        <time>2022-02-09T08:12:00Z</time>
      </trkpt>
      <trkpt lat="42.85769" lon="0.26406">
        <ele>1592.9</ele>
        <time>2022-02-09T08:12:01Z</time>
      </trkpt>
      <trkpt lat="42.8577" lon="0.26404">
        <ele>1593.2</ele>
        <time>2022-02-09T08:12:02Z</time>
      </trkpt>
      <trkpt lat="42.8577" lon="0.26403">
        <ele>1593.4</ele>
        <time>2022-02-09T08:12:03Z</time>
      </trkpt>
      <trkpt lat="42.85771" lon="0.26402">
        <ele>1593.6</ele>
        <time>2022-02-09T08:12:04Z</time>
      </trkpt>
      <trkpt lat="42.85772" lon="0.26402">
        <ele>1593.8</ele>
        <time>2022-02-09T08:12:05Z</time>
      </trkpt>
      <trkpt lat="42.85772" lon="0.26401">
        <ele>1594</ele>
        <time>2022-02-09T08:12:06Z</time>
      </trkpt>
      <trkpt lat="42.85772" lon="0.264">
        <ele>1594.1</ele>
        <time>2022-02-09T08:12:07Z</time>
      </trkpt>
      <trkpt lat="42.85773" lon="0.26399">
        <ele>1594.2</ele>
        <time>2022-02-09T08:12:08Z</time>
      </trkpt>
      <trkpt lat="42.85773" lon="0.26398">
        <ele>1594.4</ele>
        <time>2022-02-09T08:12:09Z</time>
      </trkpt>
      <trkpt lat="42.85774" lon="0.26397">
        <ele>1594.7</ele>
        <time>2022-02-09T08:12:10Z</time>
      </trkpt>
      <trkpt lat="42.85774" lon="0.26396">
        <ele>1594.9</ele>
        <time>2022-02-09T08:12:11Z</time>
      </trkpt>
      <trkpt lat="42.85775" lon="0.26395">
        <ele>1595.1</ele>
        <time>2022-02-09T08:12:12Z</time>
      </trkpt>
      <trkpt lat="42.85775" lon="0.26394">
        <ele>1595.2</ele>
        <time>2022-02-09T08:12:13Z</time>
      </trkpt>
      <trkpt lat="42.85776" lon="0.26393">
        <ele>1595.5</ele>
        <time>2022-02-09T08:12:14Z</time>
      </trkpt>
      <trkpt lat="42.85776" lon="0.26391">
        <ele>1595.7</ele>
        <time>2022-02-09T08:12:15Z</time>
      </trkpt>
      <trkpt lat="42.85776" lon="0.2639">
        <ele>1596</ele>
        <time>2022-02-09T08:12:16Z</time>
      </trkpt>
      <trkpt lat="42.85776" lon="0.26389">
        <ele>1596.2</ele>
        <time>2022-02-09T08:12:17Z</time>
      </trkpt>
      <trkpt lat="42.85776" lon="0.26387">
        <ele>1596.4</ele>
        <time>2022-02-09T08:12:18Z</time>
      </trkpt>
      <trkpt lat="42.85776" lon="0.26386">
        <ele>1596.6</ele>
        <time>2022-02-09T08:12:19Z</time>
      </trkpt>
      <trkpt lat="42.85776" lon="0.26386">
        <ele>1596.7</ele>
        <time>2022-02-09T08:12:20Z</time>
      </trkpt>
      <trkpt lat="42.85776" lon="0.26385">
        <ele>1596.8</ele>
        <time>2022-02-09T08:12:21Z</time>
      </trkpt>
      <trkpt lat="42.85777" lon="0.26384">
        <ele>1597</ele>
        <time>2022-02-09T08:12:22Z</time>
      </trkpt>
      <trkpt lat="42.85777" lon="0.26383">
        <ele>1597.2</ele>
        <time>2022-02-09T08:12:23Z</time>
      </trkpt>
      <trkpt lat="42.85778" lon="0.26383">
        <ele>1597.4</ele>
        <time>2022-02-09T08:12:24Z</time>
      </trkpt>
      <trkpt lat="42.85778" lon="0.26382">
        <ele>1597.6</ele>
        <time>2022-02-09T08:12:25Z</time>
      </trkpt>
      <trkpt lat="42.85778" lon="0.2638">
        <ele>1597.8</ele>
        <time>2022-02-09T08:12:26Z</time>
      </trkpt>
      <trkpt lat="42.85779" lon="0.26379">
        <ele>1598.1</ele>
        <time>2022-02-09T08:12:27Z</time>
      </trkpt>
      <trkpt lat="42.8578" lon="0.26378">
        <ele>1598.3</ele>
        <time>2022-02-09T08:12:28Z</time>
      </trkpt>
      <trkpt lat="42.8578" lon="0.26377">
        <ele>1598.7</ele>
        <time>2022-02-09T08:12:29Z</time>
      </trkpt>
      <trkpt lat="42.85781" lon="0.26376">
        <ele>1599</ele>
        <time>2022-02-09T08:12:30Z</time>
      </trkpt>
      <trkpt lat="42.85782" lon="0.26375">
        <ele>1599.3</ele>
        <time>2022-02-09T08:12:31Z</time>
      </trkpt>
      <trkpt lat="42.85783" lon="0.26375">
        <ele>1599.5</ele>
        <time>2022-02-09T08:12:32Z</time>
      </trkpt>
      <trkpt lat="42.85783" lon="0.26374">
        <ele>1599.7</ele>
        <time>2022-02-09T08:12:33Z</time>
      </trkpt>
      <trkpt lat="42.85784" lon="0.26373">
        <ele>1599.9</ele>
        <time>2022-02-09T08:12:34Z</time>
      </trkpt>
      <trkpt lat="42.85784" lon="0.26372">
        <ele>1600.1</ele>
        <time>2022-02-09T08:12:35Z</time>
      </trkpt>
      <trkpt lat="42.85784" lon="0.26371">
        <ele>1600.3</ele>
        <time>2022-02-09T08:12:36Z</time>
      </trkpt>
      <trkpt lat="42.85785" lon="0.2637">
        <ele>1600.5</ele>
        <time>2022-02-09T08:12:37Z</time>
      </trkpt>
      <trkpt lat="42.85785" lon="0.26369">
        <ele>1600.7</ele>
        <time>2022-02-09T08:12:38Z</time>
      </trkpt>
      <trkpt lat="42.85785" lon="0.26368">
        <ele>1600.9</ele>
        <time>2022-02-09T08:12:39Z</time>
      </trkpt>
      <trkpt lat="42.85786" lon="0.26367">
        <ele>1601.2</ele>
        <time>2022-02-09T08:12:40Z</time>
      </trkpt>
      <trkpt lat="42.85786" lon="0.26366">
        <ele>1601.4</ele>
        <time>2022-02-09T08:12:41Z</time>
      </trkpt>
      <trkpt lat="42.85787" lon="0.26365">
        <ele>1601.6</ele>
        <time>2022-02-09T08:12:42Z</time>
      </trkpt>
      <trkpt lat="42.85788" lon="0.26364">
        <ele>1601.9</ele>
        <time>2022-02-09T08:12:43Z</time>
      </trkpt>
      <trkpt lat="42.85788" lon="0.26363">
        <ele>1602.1</ele>
        <time>2022-02-09T08:12:44Z</time>
      </trkpt>
      <trkpt lat="42.85788" lon="0.26362">
        <ele>1602.3</ele>
        <time>2022-02-09T08:12:45Z</time>
      </trkpt>
      <trkpt lat="42.85788" lon="0.26361">
        <ele>1602.4</ele>
        <time>2022-02-09T08:12:46Z</time>
      </trkpt>
      <trkpt lat="42.85789" lon="0.2636">
        <ele>1602.6</ele>
        <time>2022-02-09T08:12:47Z</time>
      </trkpt>
      <trkpt lat="42.85789" lon="0.26359">
        <ele>1602.8</ele>
        <time>2022-02-09T08:12:48Z</time>
      </trkpt>
      <trkpt lat="42.8579" lon="0.26358">
        <ele>1603</ele>
        <time>2022-02-09T08:12:49Z</time>
      </trkpt>
      <trkpt lat="42.8579" lon="0.26358">
        <ele>1603.1</ele>
        <time>2022-02-09T08:12:50Z</time>
      </trkpt>
      <trkpt lat="42.8579" lon="0.26357">
        <ele>1603.2</ele>
        <time>2022-02-09T08:12:51Z</time>
      </trkpt>
      <trkpt lat="42.85791" lon="0.26356">
        <ele>1603.4</ele>
        <time>2022-02-09T08:12:52Z</time>
      </trkpt>
      <trkpt lat="42.85791" lon="0.26356">
        <ele>1603.5</ele>
        <time>2022-02-09T08:12:53Z</time>
      </trkpt>
      <trkpt lat="42.85792" lon="0.26355">
        <ele>1603.7</ele>
        <time>2022-02-09T08:12:54Z</time>
      </trkpt>
      <trkpt lat="42.85792" lon="0.26353">
        <ele>1603.9</ele>
        <time>2022-02-09T08:12:55Z</time>
      </trkpt>
      <trkpt lat="42.85792" lon="0.26352">
        <ele>1604.2</ele>
        <time>2022-02-09T08:12:56Z</time>
      </trkpt>
      <trkpt lat="42.85792" lon="0.26351">
        <ele>1604.4</ele>
        <time>2022-02-09T08:12:57Z</time>
      </trkpt>
      <trkpt lat="42.85792" lon="0.26349">
        <ele>1604.6</ele>
        <time>2022-02-09T08:12:58Z</time>
      </trkpt>
      <trkpt lat="42.85793" lon="0.26348">
        <ele>1604.8</ele>
        <time>2022-02-09T08:12:59Z</time>
      </trkpt>
      <trkpt lat="42.85793" lon="0.26347">
        <ele>1605</ele>
        <time>2022-02-09T08:13:00Z</time>
      </trkpt>
      <trkpt lat="42.85793" lon="0.26346">
        <ele>1605.2</ele>
        <time>2022-02-09T08:13:01Z</time>
      </trkpt>
      <trkpt lat="42.85793" lon="0.26345">
        <ele>1605.4</ele>
        <time>2022-02-09T08:13:02Z</time>
      </trkpt>
      <trkpt lat="42.85793" lon="0.26344">
        <ele>1605.6</ele>
        <time>2022-02-09T08:13:03Z</time>
      </trkpt>
      <trkpt lat="42.85793" lon="0.26343">
        <ele>1605.7</ele>
        <time>2022-02-09T08:13:04Z</time>
      </trkpt>
      <trkpt lat="42.85794" lon="0.26342">
        <ele>1605.9</ele>
        <time>2022-02-09T08:13:05Z</time>
      </trkpt>
      <trkpt lat="42.85794" lon="0.26341">
        <ele>1606.1</ele>
        <time>2022-02-09T08:13:06Z</time>
      </trkpt>
      <trkpt lat="42.85795" lon="0.2634">
        <ele>1606.3</ele>
        <time>2022-02-09T08:13:07Z</time>
      </trkpt>
      <trkpt lat="42.85795" lon="0.2634">
        <ele>1606.4</ele>
        <time>2022-02-09T08:13:08Z</time>
      </trkpt>
      <trkpt lat="42.85795" lon="0.26338">
        <ele>1606.6</ele>
        <time>2022-02-09T08:13:09Z</time>
      </trkpt>
      <trkpt lat="42.85795" lon="0.26337">
        <ele>1606.8</ele>
        <time>2022-02-09T08:13:10Z</time>
      </trkpt>
      <trkpt lat="42.85795" lon="0.26336">
        <ele>1607</ele>
        <time>2022-02-09T08:13:11Z</time>
      </trkpt>
      <trkpt lat="42.85795" lon="0.26335">
        <ele>1607.2</ele>
        <time>2022-02-09T08:13:12Z</time>
      </trkpt>
      <trkpt lat="42.85795" lon="0.26334">
        <ele>1607.4</ele>
        <time>2022-02-09T08:13:13Z</time>
      </trkpt>
      <trkpt lat="42.85796" lon="0.26333">
        <ele>1607.5</ele>
        <time>2022-02-09T08:13:14Z</time>
      </trkpt>
      <trkpt lat="42.85796" lon="0.26332">
        <ele>1607.7</ele>
        <time>2022-02-09T08:13:15Z</time>
      </trkpt>
      <trkpt lat="42.85797" lon="0.26331">
        <ele>1607.8</ele>
        <time>2022-02-09T08:13:16Z</time>
      </trkpt>
      <trkpt lat="42.85797" lon="0.26331">
        <ele>1608</ele>
        <time>2022-02-09T08:13:17Z</time>
      </trkpt>
      <trkpt lat="42.85798" lon="0.2633">
        <ele>1608.2</ele>
        <time>2022-02-09T08:13:18Z</time>
      </trkpt>
      <trkpt lat="42.85798" lon="0.26329">
        <ele>1608.3</ele>
        <time>2022-02-09T08:13:19Z</time>
      </trkpt>
      <trkpt lat="42.85799" lon="0.26329">
        <ele>1608.5</ele>
        <time>2022-02-09T08:13:20Z</time>
      </trkpt>
      <trkpt lat="42.85799" lon="0.26328">
        <ele>1608.7</ele>
        <time>2022-02-09T08:13:21Z</time>
      </trkpt>
      <trkpt lat="42.858" lon="0.26328">
        <ele>1608.8</ele>
        <time>2022-02-09T08:13:22Z</time>
      </trkpt>
      <trkpt lat="42.858" lon="0.26327">
        <ele>1608.9</ele>
        <time>2022-02-09T08:13:23Z</time>
      </trkpt>
      <trkpt lat="42.858" lon="0.26326">
        <ele>1609.1</ele>
        <time>2022-02-09T08:13:24Z</time>
      </trkpt>
      <trkpt lat="42.858" lon="0.26325">
        <ele>1609.3</ele>
        <time>2022-02-09T08:13:25Z</time>
      </trkpt>
      <trkpt lat="42.85801" lon="0.26324">
        <ele>1609.4</ele>
        <time>2022-02-09T08:13:26Z</time>
      </trkpt>
      <trkpt lat="42.85801" lon="0.26323">
        <ele>1609.5</ele>
        <time>2022-02-09T08:13:27Z</time>
      </trkpt>
      <trkpt lat="42.85801" lon="0.26322">
        <ele>1609.7</ele>
        <time>2022-02-09T08:13:28Z</time>
      </trkpt>
      <trkpt lat="42.85802" lon="0.26321">
        <ele>1609.8</ele>
        <time>2022-02-09T08:13:29Z</time>
      </trkpt>
      <trkpt lat="42.85802" lon="0.26321">
        <ele>1609.9</ele>
        <time>2022-02-09T08:13:30Z</time>
      </trkpt>
      <trkpt lat="42.85802" lon="0.2632">
        <ele>1610</ele>
        <time>2022-02-09T08:13:31Z</time>
      </trkpt>
      <trkpt lat="42.85802" lon="0.26319">
        <ele>1610.1</ele>
        <time>2022-02-09T08:13:32Z</time>
      </trkpt>
      <trkpt lat="42.85803" lon="0.26319">
        <ele>1610.2</ele>
        <time>2022-02-09T08:13:33Z</time>
      </trkpt>
      <trkpt lat="42.85803" lon="0.26318">
        <ele>1610.4</ele>
        <time>2022-02-09T08:13:34Z</time>
      </trkpt>
      <trkpt lat="42.85803" lon="0.26317">
        <ele>1610.5</ele>
        <time>2022-02-09T08:13:35Z</time>
      </trkpt>
      <trkpt lat="42.85803" lon="0.26316">
        <ele>1610.6</ele>
        <time>2022-02-09T08:13:36Z</time>
      </trkpt>
      <trkpt lat="42.85804" lon="0.26315">
        <ele>1610.7</ele>
        <time>2022-02-09T08:13:37Z</time>
      </trkpt>
      <trkpt lat="42.85804" lon="0.26314">
        <ele>1610.8</ele>
        <time>2022-02-09T08:13:38Z</time>
      </trkpt>
      <trkpt lat="42.85804" lon="0.26313">
        <ele>1610.9</ele>
        <time>2022-02-09T08:13:39Z</time>
      </trkpt>
      <trkpt lat="42.85805" lon="0.26312">
        <ele>1611</ele>
        <time>2022-02-09T08:13:40Z</time>
      </trkpt>
      <trkpt lat="42.85805" lon="0.26311">
        <ele>1611.1</ele>
        <time>2022-02-09T08:13:41Z</time>
      </trkpt>
      <trkpt lat="42.85806" lon="0.26311">
        <ele>1611.2</ele>
        <time>2022-02-09T08:13:42Z</time>
      </trkpt>
      <trkpt lat="42.85806" lon="0.2631">
        <ele>1611.2</ele>
        <time>2022-02-09T08:13:43Z</time>
      </trkpt>
      <trkpt lat="42.85806" lon="0.2631">
        <ele>1611.3</ele>
        <time>2022-02-09T08:13:44Z</time>
      </trkpt>
      <trkpt lat="42.85807" lon="0.2631">
        <ele>1611.3</ele>
        <time>2022-02-09T08:13:45Z</time>
      </trkpt>
      <trkpt lat="42.85807" lon="0.26309">
        <ele>1611.4</ele>
        <time>2022-02-09T08:13:46Z</time>
      </trkpt>
      <trkpt lat="42.85807" lon="0.26309">
        <ele>1611.4</ele>
        <time>2022-02-09T08:13:47Z</time>
      </trkpt>
      <trkpt lat="42.85808" lon="0.26308">
        <ele>1611.5</ele>
        <time>2022-02-09T08:13:48Z</time>
      </trkpt>
      <trkpt lat="42.85808" lon="0.26308">
        <ele>1611.5</ele>
        <time>2022-02-09T08:13:49Z</time>
      </trkpt>
      <trkpt lat="42.85808" lon="0.26307">
        <ele>1611.5</ele>
        <time>2022-02-09T08:13:50Z</time>
      </trkpt>
      <trkpt lat="42.85808" lon="0.26306">
        <ele>1611.6</ele>
        <time>2022-02-09T08:13:51Z</time>
      </trkpt>
      <trkpt lat="42.85808" lon="0.26305">
        <ele>1611.6</ele>
        <time>2022-02-09T08:13:52Z</time>
      </trkpt>
      <trkpt lat="42.85808" lon="0.26304">
        <ele>1611.6</ele>
        <time>2022-02-09T08:13:53Z</time>
      </trkpt>
      <trkpt lat="42.85809" lon="0.26303">
        <ele>1611.7</ele>
        <time>2022-02-09T08:13:54Z</time>
      </trkpt>
      <trkpt lat="42.85809" lon="0.26303">
        <ele>1611.7</ele>
        <time>2022-02-09T08:13:55Z</time>
      </trkpt>
      <trkpt lat="42.85809" lon="0.26302">
        <ele>1611.7</ele>
        <time>2022-02-09T08:13:56Z</time>
      </trkpt>
      <trkpt lat="42.85809" lon="0.26301">
        <ele>1611.7</ele>
        <time>2022-02-09T08:13:57Z</time>
      </trkpt>
      <trkpt lat="42.85809" lon="0.263">
        <ele>1611.7</ele>
        <time>2022-02-09T08:13:58Z</time>
      </trkpt>
      <trkpt lat="42.85809" lon="0.263">
        <ele>1611.7</ele>
        <time>2022-02-09T08:13:59Z</time>
      </trkpt>
      <trkpt lat="42.85808" lon="0.26299">
        <ele>1611.7</ele>
        <time>2022-02-09T08:14:00Z</time>
      </trkpt>
      <trkpt lat="42.85808" lon="0.26297">
        <ele>1611.7</ele>
        <time>2022-02-09T08:14:01Z</time>
      </trkpt>
      <trkpt lat="42.85808" lon="0.26296">
        <ele>1611.7</ele>
        <time>2022-02-09T08:14:02Z</time>
      </trkpt>
      <trkpt lat="42.85807" lon="0.26295">
        <ele>1611.7</ele>
        <time>2022-02-09T08:14:03Z</time>
      </trkpt>
      <trkpt lat="42.85807" lon="0.26294">
        <ele>1611.7</ele>
        <time>2022-02-09T08:14:04Z</time>
      </trkpt>
      <trkpt lat="42.85807" lon="0.26293">
        <ele>1611.6</ele>
        <time>2022-02-09T08:14:05Z</time>
      </trkpt>
      <trkpt lat="42.85807" lon="0.26292">
        <ele>1611.6</ele>
        <time>2022-02-09T08:14:06Z</time>
      </trkpt>
      <trkpt lat="42.85807" lon="0.26291">
        <ele>1611.6</ele>
        <time>2022-02-09T08:14:07Z</time>
      </trkpt>
      <trkpt lat="42.85807" lon="0.2629">
        <ele>1611.6</ele>
        <time>2022-02-09T08:14:08Z</time>
      </trkpt>
      <trkpt lat="42.85808" lon="0.26289">
        <ele>1611.6</ele>
        <time>2022-02-09T08:14:09Z</time>
      </trkpt>
      <trkpt lat="42.85808" lon="0.26288">
        <ele>1611.5</ele>
        <time>2022-02-09T08:14:10Z</time>
      </trkpt>
      <trkpt lat="42.85807" lon="0.26287">
        <ele>1611.5</ele>
        <time>2022-02-09T08:14:11Z</time>
      </trkpt>
      <trkpt lat="42.85808" lon="0.26286">
        <ele>1611.4</ele>
        <time>2022-02-09T08:14:12Z</time>
      </trkpt>
      <trkpt lat="42.85808" lon="0.26285">
        <ele>1611.4</ele>
        <time>2022-02-09T08:14:13Z</time>
      </trkpt>
      <trkpt lat="42.85808" lon="0.26284">
        <ele>1611.4</ele>
        <time>2022-02-09T08:14:14Z</time>
      </trkpt>
      <trkpt lat="42.85808" lon="0.26283">
        <ele>1611.3</ele>
        <time>2022-02-09T08:14:15Z</time>
      </trkpt>
      <trkpt lat="42.85809" lon="0.26281">
        <ele>1611.3</ele>
        <time>2022-02-09T08:14:16Z</time>
      </trkpt>
      <trkpt lat="42.85809" lon="0.2628">
        <ele>1611.2</ele>
        <time>2022-02-09T08:14:17Z</time>
      </trkpt>
      <trkpt lat="42.85809" lon="0.2628">
        <ele>1611.2</ele>
        <time>2022-02-09T08:14:18Z</time>
      </trkpt>
      <trkpt lat="42.85809" lon="0.26279">
        <ele>1611.2</ele>
        <time>2022-02-09T08:14:19Z</time>
      </trkpt>
      <trkpt lat="42.85809" lon="0.26278">
        <ele>1611.2</ele>
        <time>2022-02-09T08:14:20Z</time>
      </trkpt>
      <trkpt lat="42.85809" lon="0.26277">
        <ele>1611.1</ele>
        <time>2022-02-09T08:14:21Z</time>
      </trkpt>
      <trkpt lat="42.85809" lon="0.26277">
        <ele>1611.1</ele>
        <time>2022-02-09T08:14:22Z</time>
      </trkpt>
      <trkpt lat="42.85809" lon="0.26276">
        <ele>1611.1</ele>
        <time>2022-02-09T08:14:23Z</time>
      </trkpt>
      <trkpt lat="42.85809" lon="0.26276">
        <ele>1611.1</ele>
        <time>2022-02-09T08:14:24Z</time>
      </trkpt>
      <trkpt lat="42.8581" lon="0.26275">
        <ele>1611.1</ele>
        <time>2022-02-09T08:14:25Z</time>
      </trkpt>
      <trkpt lat="42.85811" lon="0.26274">
        <ele>1611</ele>
        <time>2022-02-09T08:14:26Z</time>
      </trkpt>
      <trkpt lat="42.85811" lon="0.26273">
        <ele>1611</ele>
        <time>2022-02-09T08:14:27Z</time>
      </trkpt>
      <trkpt lat="42.85811" lon="0.26272">
        <ele>1611</ele>
        <time>2022-02-09T08:14:28Z</time>
      </trkpt>
      <trkpt lat="42.85811" lon="0.26272">
        <ele>1610.9</ele>
        <time>2022-02-09T08:14:29Z</time>
      </trkpt>
      <trkpt lat="42.85811" lon="0.26271">
        <ele>1610.9</ele>
        <time>2022-02-09T08:14:30Z</time>
      </trkpt>
      <trkpt lat="42.85812" lon="0.2627">
        <ele>1610.9</ele>
        <time>2022-02-09T08:14:31Z</time>
      </trkpt>
      <trkpt lat="42.85812" lon="0.26268">
        <ele>1610.9</ele>
        <time>2022-02-09T08:14:32Z</time>
      </trkpt>
      <trkpt lat="42.85812" lon="0.26267">
        <ele>1610.8</ele>
        <time>2022-02-09T08:14:33Z</time>
      </trkpt>
      <trkpt lat="42.85812" lon="0.26266">
        <ele>1610.8</ele>
        <time>2022-02-09T08:14:34Z</time>
      </trkpt>
      <trkpt lat="42.85812" lon="0.26265">
        <ele>1610.8</ele>
        <time>2022-02-09T08:14:35Z</time>
      </trkpt>
      <trkpt lat="42.85812" lon="0.26263">
        <ele>1610.8</ele>
        <time>2022-02-09T08:14:36Z</time>
      </trkpt>
      <trkpt lat="42.85812" lon="0.26261">
        <ele>1610.8</ele>
        <time>2022-02-09T08:14:37Z</time>
      </trkpt>
      <trkpt lat="42.85812" lon="0.26259">
        <ele>1610.8</ele>
        <time>2022-02-09T08:14:38Z</time>
      </trkpt>
      <trkpt lat="42.85812" lon="0.26258">
        <ele>1610.8</ele>
        <time>2022-02-09T08:14:39Z</time>
      </trkpt>
      <trkpt lat="42.85812" lon="0.26256">
        <ele>1610.8</ele>
        <time>2022-02-09T08:14:40Z</time>
      </trkpt>
      <trkpt lat="42.85811" lon="0.26255">
        <ele>1610.8</ele>
        <time>2022-02-09T08:14:41Z</time>
      </trkpt>
      <trkpt lat="42.85811" lon="0.26254">
        <ele>1610.8</ele>
        <time>2022-02-09T08:14:42Z</time>
      </trkpt>
      <trkpt lat="42.85811" lon="0.26252">
        <ele>1610.8</ele>
        <time>2022-02-09T08:14:43Z</time>
      </trkpt>
      <trkpt lat="42.85811" lon="0.26251">
        <ele>1610.9</ele>
        <time>2022-02-09T08:14:44Z</time>
      </trkpt>
      <trkpt lat="42.85811" lon="0.26249">
        <ele>1610.9</ele>
        <time>2022-02-09T08:14:45Z</time>
      </trkpt>
      <trkpt lat="42.85811" lon="0.26248">
        <ele>1610.9</ele>
        <time>2022-02-09T08:14:46Z</time>
      </trkpt>
      <trkpt lat="42.85811" lon="0.26247">
        <ele>1611</ele>
        <time>2022-02-09T08:14:47Z</time>
      </trkpt>
      <trkpt lat="42.85811" lon="0.26246">
        <ele>1611</ele>
        <time>2022-02-09T08:14:48Z</time>
      </trkpt>
      <trkpt lat="42.85811" lon="0.26244">
        <ele>1611.1</ele>
        <time>2022-02-09T08:14:49Z</time>
      </trkpt>
      <trkpt lat="42.85811" lon="0.26243">
        <ele>1611.1</ele>
        <time>2022-02-09T08:14:50Z</time>
      </trkpt>
      <trkpt lat="42.85811" lon="0.26242">
        <ele>1611.1</ele>
        <time>2022-02-09T08:14:51Z</time>
      </trkpt>
      <trkpt lat="42.85811" lon="0.26241">
        <ele>1611.2</ele>
        <time>2022-02-09T08:14:52Z</time>
      </trkpt>
      <trkpt lat="42.8581" lon="0.2624">
        <ele>1611.2</ele>
        <time>2022-02-09T08:14:53Z</time>
      </trkpt>
      <trkpt lat="42.8581" lon="0.26239">
        <ele>1611.3</ele>
        <time>2022-02-09T08:14:54Z</time>
      </trkpt>
      <trkpt lat="42.8581" lon="0.26238">
        <ele>1611.3</ele>
        <time>2022-02-09T08:14:55Z</time>
      </trkpt>
      <trkpt lat="42.85811" lon="0.26238">
        <ele>1611.3</ele>
        <time>2022-02-09T08:14:56Z</time>
      </trkpt>
      <trkpt lat="42.85811" lon="0.26237">
        <ele>1611.3</ele>
        <time>2022-02-09T08:14:57Z</time>
      </trkpt>
      <trkpt lat="42.85811" lon="0.26236">
        <ele>1611.4</ele>
        <time>2022-02-09T08:14:58Z</time>
      </trkpt>
      <trkpt lat="42.85811" lon="0.26235">
        <ele>1611.4</ele>
        <time>2022-02-09T08:14:59Z</time>
      </trkpt>
      <trkpt lat="42.85811" lon="0.26234">
        <ele>1611.4</ele>
        <time>2022-02-09T08:15:00Z</time>
      </trkpt>
      <trkpt lat="42.85811" lon="0.26233">
        <ele>1611.5</ele>
        <time>2022-02-09T08:15:01Z</time>
      </trkpt>
      <trkpt lat="42.85811" lon="0.26232">
        <ele>1611.5</ele>
        <time>2022-02-09T08:15:02Z</time>
      </trkpt>
      <trkpt lat="42.85811" lon="0.26231">
        <ele>1611.6</ele>
        <time>2022-02-09T08:15:03Z</time>
      </trkpt>
      <trkpt lat="42.85811" lon="0.2623">
        <ele>1611.6</ele>
        <time>2022-02-09T08:15:04Z</time>
      </trkpt>
      <trkpt lat="42.85811" lon="0.26229">
        <ele>1611.6</ele>
        <time>2022-02-09T08:15:05Z</time>
      </trkpt>
      <trkpt lat="42.85811" lon="0.26228">
        <ele>1611.7</ele>
        <time>2022-02-09T08:15:06Z</time>
      </trkpt>
      <trkpt lat="42.85811" lon="0.26227">
        <ele>1611.7</ele>
        <time>2022-02-09T08:15:07Z</time>
      </trkpt>
      <trkpt lat="42.85812" lon="0.26227">
        <ele>1611.7</ele>
        <time>2022-02-09T08:15:08Z</time>
      </trkpt>
      <trkpt lat="42.85812" lon="0.26226">
        <ele>1611.8</ele>
        <time>2022-02-09T08:15:09Z</time>
      </trkpt>
      <trkpt lat="42.85812" lon="0.26225">
        <ele>1611.8</ele>
        <time>2022-02-09T08:15:10Z</time>
      </trkpt>
      <trkpt lat="42.85812" lon="0.26224">
        <ele>1611.8</ele>
        <time>2022-02-09T08:15:11Z</time>
      </trkpt>
      <trkpt lat="42.85812" lon="0.26223">
        <ele>1611.9</ele>
        <time>2022-02-09T08:15:12Z</time>
      </trkpt>
      <trkpt lat="42.85812" lon="0.26221">
        <ele>1611.9</ele>
        <time>2022-02-09T08:15:13Z</time>
      </trkpt>
      <trkpt lat="42.85811" lon="0.2622">
        <ele>1612</ele>
        <time>2022-02-09T08:15:14Z</time>
      </trkpt>
      <trkpt lat="42.85812" lon="0.26219">
        <ele>1612</ele>
        <time>2022-02-09T08:15:15Z</time>
      </trkpt>
      <trkpt lat="42.85812" lon="0.26218">
        <ele>1612.1</ele>
        <time>2022-02-09T08:15:16Z</time>
      </trkpt>
      <trkpt lat="42.85812" lon="0.26217">
        <ele>1612.2</ele>
        <time>2022-02-09T08:15:17Z</time>
      </trkpt>
      <trkpt lat="42.85813" lon="0.26216">
        <ele>1612.2</ele>
        <time>2022-02-09T08:15:18Z</time>
      </trkpt>
      <trkpt lat="42.85813" lon="0.26215">
        <ele>1612.3</ele>
        <time>2022-02-09T08:15:19Z</time>
      </trkpt>
      <trkpt lat="42.85813" lon="0.26214">
        <ele>1612.3</ele>
        <time>2022-02-09T08:15:20Z</time>
      </trkpt>
      <trkpt lat="42.85813" lon="0.26213">
        <ele>1612.4</ele>
        <time>2022-02-09T08:15:21Z</time>
      </trkpt>
      <trkpt lat="42.85813" lon="0.26211">
        <ele>1612.4</ele>
        <time>2022-02-09T08:15:22Z</time>
      </trkpt>
      <trkpt lat="42.85813" lon="0.2621">
        <ele>1612.5</ele>
        <time>2022-02-09T08:15:23Z</time>
      </trkpt>
      <trkpt lat="42.85813" lon="0.26209">
        <ele>1612.6</ele>
        <time>2022-02-09T08:15:24Z</time>
      </trkpt>
      <trkpt lat="42.85813" lon="0.26208">
        <ele>1612.6</ele>
        <time>2022-02-09T08:15:25Z</time>
      </trkpt>
      <trkpt lat="42.85813" lon="0.26207">
        <ele>1612.7</ele>
        <time>2022-02-09T08:15:26Z</time>
      </trkpt>
      <trkpt lat="42.85813" lon="0.26207">
        <ele>1612.7</ele>
        <time>2022-02-09T08:15:27Z</time>
      </trkpt>
      <trkpt lat="42.85813" lon="0.26206">
        <ele>1612.8</ele>
        <time>2022-02-09T08:15:28Z</time>
      </trkpt>
      <trkpt lat="42.85813" lon="0.26205">
        <ele>1612.8</ele>
        <time>2022-02-09T08:15:29Z</time>
      </trkpt>
      <trkpt lat="42.85813" lon="0.26204">
        <ele>1612.9</ele>
        <time>2022-02-09T08:15:30Z</time>
      </trkpt>
      <trkpt lat="42.85814" lon="0.26203">
        <ele>1612.9</ele>
        <time>2022-02-09T08:15:31Z</time>
      </trkpt>
      <trkpt lat="42.85814" lon="0.26203">
        <ele>1612.9</ele>
        <time>2022-02-09T08:15:32Z</time>
      </trkpt>
      <trkpt lat="42.85814" lon="0.26202">
        <ele>1613</ele>
        <time>2022-02-09T08:15:33Z</time>
      </trkpt>
      <trkpt lat="42.85814" lon="0.26201">
        <ele>1613</ele>
        <time>2022-02-09T08:15:34Z</time>
      </trkpt>
      <trkpt lat="42.85814" lon="0.26201">
        <ele>1613.1</ele>
        <time>2022-02-09T08:15:35Z</time>
      </trkpt>
      <trkpt lat="42.85814" lon="0.262">
        <ele>1613.1</ele>
        <time>2022-02-09T08:15:36Z</time>
      </trkpt>
      <trkpt lat="42.85814" lon="0.26199">
        <ele>1613.2</ele>
        <time>2022-02-09T08:15:37Z</time>
      </trkpt>
      <trkpt lat="42.85815" lon="0.26198">
        <ele>1613.3</ele>
        <time>2022-02-09T08:15:38Z</time>
      </trkpt>
      <trkpt lat="42.85815" lon="0.26197">
        <ele>1613.3</ele>
        <time>2022-02-09T08:15:39Z</time>
      </trkpt>
      <trkpt lat="42.85815" lon="0.26196">
        <ele>1613.4</ele>
        <time>2022-02-09T08:15:40Z</time>
      </trkpt>
      <trkpt lat="42.85815" lon="0.26196">
        <ele>1613.5</ele>
        <time>2022-02-09T08:15:41Z</time>
      </trkpt>
      <trkpt lat="42.85816" lon="0.26195">
        <ele>1613.5</ele>
        <time>2022-02-09T08:15:42Z</time>
      </trkpt>
      <trkpt lat="42.85816" lon="0.26195">
        <ele>1613.5</ele>
        <time>2022-02-09T08:15:43Z</time>
      </trkpt>
      <trkpt lat="42.85816" lon="0.26195">
        <ele>1613.6</ele>
        <time>2022-02-09T08:15:44Z</time>
      </trkpt>
      <trkpt lat="42.85816" lon="0.26195">
        <ele>1613.6</ele>
        <time>2022-02-09T08:15:45Z</time>
      </trkpt>
      <trkpt lat="42.85816" lon="0.26195">
        <ele>1613.6</ele>
        <time>2022-02-09T08:15:46Z</time>
      </trkpt>
      <trkpt lat="42.85816" lon="0.26195">
        <ele>1613.6</ele>
        <time>2022-02-09T08:15:47Z</time>
      </trkpt>
      <trkpt lat="42.85816" lon="0.26195">
        <ele>1613.6</ele>
        <time>2022-02-09T08:15:48Z</time>
      </trkpt>
      <trkpt lat="42.85816" lon="0.26195">
        <ele>1613.6</ele>
        <time>2022-02-09T08:15:49Z</time>
      </trkpt>
      <trkpt lat="42.85816" lon="0.26195">
        <ele>1613.6</ele>
        <time>2022-02-09T08:15:50Z</time>
      </trkpt>
      <trkpt lat="42.85816" lon="0.26195">
        <ele>1613.6</ele>
        <time>2022-02-09T08:15:51Z</time>
      </trkpt>
      <trkpt lat="42.85816" lon="0.26195">
        <ele>1613.6</ele>
        <time>2022-02-09T08:15:52Z</time>
      </trkpt>
      <trkpt lat="42.85817" lon="0.26194">
        <ele>1613.6</ele>
        <time>2022-02-09T08:15:53Z</time>
      </trkpt>
      <trkpt lat="42.85817" lon="0.26194">
        <ele>1613.7</ele>
        <time>2022-02-09T08:15:54Z</time>
      </trkpt>
      <trkpt lat="42.85818" lon="0.26193">
        <ele>1613.8</ele>
        <time>2022-02-09T08:15:55Z</time>
      </trkpt>
      <trkpt lat="42.85818" lon="0.26193">
        <ele>1613.8</ele>
        <time>2022-02-09T08:15:56Z</time>
      </trkpt>
      <trkpt lat="42.85818" lon="0.26192">
        <ele>1613.9</ele>
        <time>2022-02-09T08:15:57Z</time>
      </trkpt>
      <trkpt lat="42.85818" lon="0.26192">
        <ele>1613.9</ele>
        <time>2022-02-09T08:15:58Z</time>
      </trkpt>
      <trkpt lat="42.85819" lon="0.26191">
        <ele>1614</ele>
        <time>2022-02-09T08:15:59Z</time>
      </trkpt>
      <trkpt lat="42.85819" lon="0.2619">
        <ele>1614.1</ele>
        <time>2022-02-09T08:16:00Z</time>
      </trkpt>
      <trkpt lat="42.85819" lon="0.26189">
        <ele>1614.2</ele>
        <time>2022-02-09T08:16:01Z</time>
      </trkpt>
      <trkpt lat="42.8582" lon="0.26188">
        <ele>1614.3</ele>
        <time>2022-02-09T08:16:02Z</time>
      </trkpt>
      <trkpt lat="42.8582" lon="0.26187">
        <ele>1614.5</ele>
        <time>2022-02-09T08:16:03Z</time>
      </trkpt>
      <trkpt lat="42.8582" lon="0.26186">
        <ele>1614.6</ele>
        <time>2022-02-09T08:16:04Z</time>
      </trkpt>
      <trkpt lat="42.8582" lon="0.26184">
        <ele>1614.8</ele>
        <time>2022-02-09T08:16:05Z</time>
      </trkpt>
      <trkpt lat="42.85821" lon="0.26183">
        <ele>1614.9</ele>
        <time>2022-02-09T08:16:06Z</time>
      </trkpt>
      <trkpt lat="42.85821" lon="0.26183">
        <ele>1615.1</ele>
        <time>2022-02-09T08:16:07Z</time>
      </trkpt>
      <trkpt lat="42.85822" lon="0.26182">
        <ele>1615.2</ele>
        <time>2022-02-09T08:16:08Z</time>
      </trkpt>
      <trkpt lat="42.85822" lon="0.26181">
        <ele>1615.3</ele>
        <time>2022-02-09T08:16:09Z</time>
      </trkpt>
      <trkpt lat="42.85823" lon="0.26181">
        <ele>1615.4</ele>
        <time>2022-02-09T08:16:10Z</time>
      </trkpt>
      <trkpt lat="42.85823" lon="0.2618">
        <ele>1615.5</ele>
        <time>2022-02-09T08:16:11Z</time>
      </trkpt>
      <trkpt lat="42.85824" lon="0.2618">
        <ele>1615.6</ele>
        <time>2022-02-09T08:16:12Z</time>
      </trkpt>
      <trkpt lat="42.85825" lon="0.2618">
        <ele>1615.7</ele>
        <time>2022-02-09T08:16:13Z</time>
      </trkpt>
      <trkpt lat="42.85826" lon="0.2618">
        <ele>1615.8</ele>
        <time>2022-02-09T08:16:14Z</time>
      </trkpt>
      <trkpt lat="42.85826" lon="0.26179">
        <ele>1615.9</ele>
        <time>2022-02-09T08:16:15Z</time>
      </trkpt>
      <trkpt lat="42.85826" lon="0.26178">
        <ele>1616.1</ele>
        <time>2022-02-09T08:16:16Z</time>
      </trkpt>
      <trkpt lat="42.85827" lon="0.26177">
        <ele>1616.2</ele>
        <time>2022-02-09T08:16:17Z</time>
      </trkpt>
      <trkpt lat="42.85827" lon="0.26176">
        <ele>1616.3</ele>
        <time>2022-02-09T08:16:18Z</time>
      </trkpt>
      <trkpt lat="42.85827" lon="0.26175">
        <ele>1616.4</ele>
        <time>2022-02-09T08:16:19Z</time>
      </trkpt>
      <trkpt lat="42.85827" lon="0.26175">
        <ele>1616.4</ele>
        <time>2022-02-09T08:16:20Z</time>
      </trkpt>
      <trkpt lat="42.85828" lon="0.26174">
        <ele>1616.5</ele>
        <time>2022-02-09T08:16:21Z</time>
      </trkpt>
      <trkpt lat="42.85828" lon="0.26174">
        <ele>1616.6</ele>
        <time>2022-02-09T08:16:22Z</time>
      </trkpt>
      <trkpt lat="42.85829" lon="0.26173">
        <ele>1616.7</ele>
        <time>2022-02-09T08:16:23Z</time>
      </trkpt>
      <trkpt lat="42.85829" lon="0.26172">
        <ele>1616.8</ele>
        <time>2022-02-09T08:16:24Z</time>
      </trkpt>
      <trkpt lat="42.85829" lon="0.26171">
        <ele>1616.9</ele>
        <time>2022-02-09T08:16:25Z</time>
      </trkpt>
      <trkpt lat="42.85829" lon="0.2617">
        <ele>1617</ele>
        <time>2022-02-09T08:16:26Z</time>
      </trkpt>
      <trkpt lat="42.85829" lon="0.26169">
        <ele>1617.1</ele>
        <time>2022-02-09T08:16:27Z</time>
      </trkpt>
      <trkpt lat="42.8583" lon="0.26168">
        <ele>1617.2</ele>
        <time>2022-02-09T08:16:28Z</time>
      </trkpt>
      <trkpt lat="42.85831" lon="0.26167">
        <ele>1617.3</ele>
        <time>2022-02-09T08:16:29Z</time>
      </trkpt>
      <trkpt lat="42.85831" lon="0.26167">
        <ele>1617.4</ele>
        <time>2022-02-09T08:16:30Z</time>
      </trkpt>
      <trkpt lat="42.85831" lon="0.26166">
        <ele>1617.5</ele>
        <time>2022-02-09T08:16:31Z</time>
      </trkpt>
      <trkpt lat="42.85831" lon="0.26165">
        <ele>1617.6</ele>
        <time>2022-02-09T08:16:32Z</time>
      </trkpt>
      <trkpt lat="42.85832" lon="0.26165">
        <ele>1617.6</ele>
        <time>2022-02-09T08:16:33Z</time>
      </trkpt>
      <trkpt lat="42.85832" lon="0.26164">
        <ele>1617.7</ele>
        <time>2022-02-09T08:16:34Z</time>
      </trkpt>
      <trkpt lat="42.85832" lon="0.26163">
        <ele>1617.8</ele>
        <time>2022-02-09T08:16:35Z</time>
      </trkpt>
      <trkpt lat="42.85833" lon="0.26163">
        <ele>1617.9</ele>
        <time>2022-02-09T08:16:36Z</time>
      </trkpt>
      <trkpt lat="42.85833" lon="0.26162">
        <ele>1617.9</ele>
        <time>2022-02-09T08:16:37Z</time>
      </trkpt>
      <trkpt lat="42.85833" lon="0.26161">
        <ele>1618</ele>
        <time>2022-02-09T08:16:38Z</time>
      </trkpt>
      <trkpt lat="42.85834" lon="0.2616">
        <ele>1618.1</ele>
        <time>2022-02-09T08:16:39Z</time>
      </trkpt>
      <trkpt lat="42.85834" lon="0.2616">
        <ele>1618.2</ele>
        <time>2022-02-09T08:16:40Z</time>
      </trkpt>
      <trkpt lat="42.85835" lon="0.26159">
        <ele>1618.3</ele>
        <time>2022-02-09T08:16:41Z</time>
      </trkpt>
      <trkpt lat="42.85835" lon="0.26158">
        <ele>1618.4</ele>
        <time>2022-02-09T08:16:42Z</time>
      </trkpt>
      <trkpt lat="42.85835" lon="0.26157">
        <ele>1618.5</ele>
        <time>2022-02-09T08:16:43Z</time>
      </trkpt>
      <trkpt lat="42.85835" lon="0.26156">
        <ele>1618.6</ele>
        <time>2022-02-09T08:16:44Z</time>
      </trkpt>
      <trkpt lat="42.85835" lon="0.26154">
        <ele>1618.7</ele>
        <time>2022-02-09T08:16:45Z</time>
      </trkpt>
      <trkpt lat="42.85835" lon="0.26153">
        <ele>1618.8</ele>
        <time>2022-02-09T08:16:46Z</time>
      </trkpt>
      <trkpt lat="42.85835" lon="0.26152">
        <ele>1618.9</ele>
        <time>2022-02-09T08:16:47Z</time>
      </trkpt>
      <trkpt lat="42.85835" lon="0.26151">
        <ele>1619</ele>
        <time>2022-02-09T08:16:48Z</time>
      </trkpt>
      <trkpt lat="42.85835" lon="0.2615">
        <ele>1619.1</ele>
        <time>2022-02-09T08:16:49Z</time>
      </trkpt>
      <trkpt lat="42.85836" lon="0.26149">
        <ele>1619.2</ele>
        <time>2022-02-09T08:16:50Z</time>
      </trkpt>
      <trkpt lat="42.85836" lon="0.26148">
        <ele>1619.3</ele>
        <time>2022-02-09T08:16:51Z</time>
      </trkpt>
      <trkpt lat="42.85837" lon="0.26147">
        <ele>1619.4</ele>
        <time>2022-02-09T08:16:52Z</time>
      </trkpt>
      <trkpt lat="42.85837" lon="0.26146">
        <ele>1619.5</ele>
        <time>2022-02-09T08:16:53Z</time>
      </trkpt>
      <trkpt lat="42.85837" lon="0.26146">
        <ele>1619.6</ele>
        <time>2022-02-09T08:16:54Z</time>
      </trkpt>
      <trkpt lat="42.85838" lon="0.26145">
        <ele>1619.7</ele>
        <time>2022-02-09T08:16:55Z</time>
      </trkpt>
      <trkpt lat="42.85838" lon="0.26144">
        <ele>1619.7</ele>
        <time>2022-02-09T08:16:56Z</time>
      </trkpt>
      <trkpt lat="42.85838" lon="0.26143">
        <ele>1619.8</ele>
        <time>2022-02-09T08:16:57Z</time>
      </trkpt>
      <trkpt lat="42.85838" lon="0.26142">
        <ele>1619.9</ele>
        <time>2022-02-09T08:16:58Z</time>
      </trkpt>
      <trkpt lat="42.85839" lon="0.26141">
        <ele>1620</ele>
        <time>2022-02-09T08:16:59Z</time>
      </trkpt>
      <trkpt lat="42.85839" lon="0.26141">
        <ele>1620</ele>
        <time>2022-02-09T08:17:00Z</time>
      </trkpt>
      <trkpt lat="42.8584" lon="0.26141">
        <ele>1620.1</ele>
        <time>2022-02-09T08:17:01Z</time>
      </trkpt>
      <trkpt lat="42.8584" lon="0.26141">
        <ele>1620.1</ele>
        <time>2022-02-09T08:17:02Z</time>
      </trkpt>
      <trkpt lat="42.8584" lon="0.2614">
        <ele>1620.1</ele>
        <time>2022-02-09T08:17:03Z</time>
      </trkpt>
      <trkpt lat="42.8584" lon="0.2614">
        <ele>1620.2</ele>
        <time>2022-02-09T08:17:04Z</time>
      </trkpt>
      <trkpt lat="42.85841" lon="0.2614">
        <ele>1620.2</ele>
        <time>2022-02-09T08:17:05Z</time>
      </trkpt>
      <trkpt lat="42.85841" lon="0.26139">
        <ele>1620.3</ele>
        <time>2022-02-09T08:17:06Z</time>
      </trkpt>
      <trkpt lat="42.85841" lon="0.26138">
        <ele>1620.3</ele>
        <time>2022-02-09T08:17:07Z</time>
      </trkpt>
      <trkpt lat="42.85841" lon="0.26137">
        <ele>1620.4</ele>
        <time>2022-02-09T08:17:08Z</time>
      </trkpt>
      <trkpt lat="42.85841" lon="0.26136">
        <ele>1620.5</ele>
        <time>2022-02-09T08:17:09Z</time>
      </trkpt>
      <trkpt lat="42.85841" lon="0.26135">
        <ele>1620.5</ele>
        <time>2022-02-09T08:17:10Z</time>
      </trkpt>
      <trkpt lat="42.85841" lon="0.26134">
        <ele>1620.6</ele>
        <time>2022-02-09T08:17:11Z</time>
      </trkpt>
      <trkpt lat="42.85841" lon="0.26133">
        <ele>1620.7</ele>
        <time>2022-02-09T08:17:12Z</time>
      </trkpt>
      <trkpt lat="42.85841" lon="0.26132">
        <ele>1620.8</ele>
        <time>2022-02-09T08:17:13Z</time>
      </trkpt>
      <trkpt lat="42.85842" lon="0.26131">
        <ele>1620.8</ele>
        <time>2022-02-09T08:17:14Z</time>
      </trkpt>
      <trkpt lat="42.85842" lon="0.2613">
        <ele>1620.9</ele>
        <time>2022-02-09T08:17:15Z</time>
      </trkpt>
      <trkpt lat="42.85842" lon="0.26129">
        <ele>1620.9</ele>
        <time>2022-02-09T08:17:16Z</time>
      </trkpt>
      <trkpt lat="42.85842" lon="0.26128">
        <ele>1621</ele>
        <time>2022-02-09T08:17:17Z</time>
      </trkpt>
      <trkpt lat="42.85843" lon="0.26127">
        <ele>1621</ele>
        <time>2022-02-09T08:17:18Z</time>
      </trkpt>
      <trkpt lat="42.85843" lon="0.26126">
        <ele>1621.1</ele>
        <time>2022-02-09T08:17:19Z</time>
      </trkpt>
      <trkpt lat="42.85843" lon="0.26125">
        <ele>1621.2</ele>
        <time>2022-02-09T08:17:20Z</time>
      </trkpt>
      <trkpt lat="42.85844" lon="0.26124">
        <ele>1621.2</ele>
        <time>2022-02-09T08:17:21Z</time>
      </trkpt>
      <trkpt lat="42.85844" lon="0.26123">
        <ele>1621.3</ele>
        <time>2022-02-09T08:17:22Z</time>
      </trkpt>
      <trkpt lat="42.85845" lon="0.26122">
        <ele>1621.3</ele>
        <time>2022-02-09T08:17:23Z</time>
      </trkpt>
      <trkpt lat="42.85845" lon="0.26121">
        <ele>1621.4</ele>
        <time>2022-02-09T08:17:24Z</time>
      </trkpt>
      <trkpt lat="42.85845" lon="0.2612">
        <ele>1621.4</ele>
        <time>2022-02-09T08:17:25Z</time>
      </trkpt>
      <trkpt lat="42.85846" lon="0.2612">
        <ele>1621.5</ele>
        <time>2022-02-09T08:17:26Z</time>
      </trkpt>
      <trkpt lat="42.85846" lon="0.26119">
        <ele>1621.5</ele>
        <time>2022-02-09T08:17:27Z</time>
      </trkpt>
      <trkpt lat="42.85847" lon="0.26118">
        <ele>1621.5</ele>
        <time>2022-02-09T08:17:28Z</time>
      </trkpt>
      <trkpt lat="42.85847" lon="0.26117">
        <ele>1621.6</ele>
        <time>2022-02-09T08:17:29Z</time>
      </trkpt>
      <trkpt lat="42.85848" lon="0.26116">
        <ele>1621.6</ele>
        <time>2022-02-09T08:17:30Z</time>
      </trkpt>
      <trkpt lat="42.85848" lon="0.26115">
        <ele>1621.7</ele>
        <time>2022-02-09T08:17:31Z</time>
      </trkpt>
      <trkpt lat="42.85849" lon="0.26114">
        <ele>1621.7</ele>
        <time>2022-02-09T08:17:32Z</time>
      </trkpt>
      <trkpt lat="42.85849" lon="0.26113">
        <ele>1621.8</ele>
        <time>2022-02-09T08:17:33Z</time>
      </trkpt>
      <trkpt lat="42.8585" lon="0.26113">
        <ele>1621.8</ele>
        <time>2022-02-09T08:17:34Z</time>
      </trkpt>
      <trkpt lat="42.8585" lon="0.26112">
        <ele>1621.9</ele>
        <time>2022-02-09T08:17:35Z</time>
      </trkpt>
      <trkpt lat="42.8585" lon="0.26111">
        <ele>1621.9</ele>
        <time>2022-02-09T08:17:36Z</time>
      </trkpt>
      <trkpt lat="42.85851" lon="0.2611">
        <ele>1622</ele>
        <time>2022-02-09T08:17:37Z</time>
      </trkpt>
      <trkpt lat="42.85851" lon="0.26109">
        <ele>1622</ele>
        <time>2022-02-09T08:17:38Z</time>
      </trkpt>
      <trkpt lat="42.85852" lon="0.26108">
        <ele>1622.1</ele>
        <time>2022-02-09T08:17:39Z</time>
      </trkpt>
      <trkpt lat="42.85852" lon="0.26107">
        <ele>1622.2</ele>
        <time>2022-02-09T08:17:40Z</time>
      </trkpt>
      <trkpt lat="42.85852" lon="0.26106">
        <ele>1622.2</ele>
        <time>2022-02-09T08:17:41Z</time>
      </trkpt>
      <trkpt lat="42.85853" lon="0.26105">
        <ele>1622.3</ele>
        <time>2022-02-09T08:17:42Z</time>
      </trkpt>
      <trkpt lat="42.85853" lon="0.26104">
        <ele>1622.3</ele>
        <time>2022-02-09T08:17:43Z</time>
      </trkpt>
      <trkpt lat="42.85854" lon="0.26103">
        <ele>1622.4</ele>
        <time>2022-02-09T08:17:44Z</time>
      </trkpt>
      <trkpt lat="42.85854" lon="0.26102">
        <ele>1622.5</ele>
        <time>2022-02-09T08:17:45Z</time>
      </trkpt>
      <trkpt lat="42.85854" lon="0.26101">
        <ele>1622.5</ele>
        <time>2022-02-09T08:17:46Z</time>
      </trkpt>
      <trkpt lat="42.85855" lon="0.261">
        <ele>1622.6</ele>
        <time>2022-02-09T08:17:47Z</time>
      </trkpt>
      <trkpt lat="42.85855" lon="0.26099">
        <ele>1622.6</ele>
        <time>2022-02-09T08:17:48Z</time>
      </trkpt>
      <trkpt lat="42.85856" lon="0.26098">
        <ele>1622.7</ele>
        <time>2022-02-09T08:17:49Z</time>
      </trkpt>
      <trkpt lat="42.85856" lon="0.26097">
        <ele>1622.8</ele>
        <time>2022-02-09T08:17:50Z</time>
      </trkpt>
      <trkpt lat="42.85856" lon="0.26096">
        <ele>1622.8</ele>
        <time>2022-02-09T08:17:51Z</time>
      </trkpt>
      <trkpt lat="42.85856" lon="0.26095">
        <ele>1622.9</ele>
        <time>2022-02-09T08:17:52Z</time>
      </trkpt>
      <trkpt lat="42.85857" lon="0.26094">
        <ele>1623</ele>
        <time>2022-02-09T08:17:53Z</time>
      </trkpt>
      <trkpt lat="42.85857" lon="0.26092">
        <ele>1623</ele>
        <time>2022-02-09T08:17:54Z</time>
      </trkpt>
      <trkpt lat="42.85858" lon="0.26091">
        <ele>1623.1</ele>
        <time>2022-02-09T08:17:55Z</time>
      </trkpt>
      <trkpt lat="42.85858" lon="0.26091">
        <ele>1623.2</ele>
        <time>2022-02-09T08:17:56Z</time>
      </trkpt>
      <trkpt lat="42.85859" lon="0.2609">
        <ele>1623.2</ele>
        <time>2022-02-09T08:17:57Z</time>
      </trkpt>
      <trkpt lat="42.85859" lon="0.26089">
        <ele>1623.3</ele>
        <time>2022-02-09T08:17:58Z</time>
      </trkpt>
      <trkpt lat="42.85859" lon="0.26088">
        <ele>1623.3</ele>
        <time>2022-02-09T08:17:59Z</time>
      </trkpt>
      <trkpt lat="42.8586" lon="0.26088">
        <ele>1623.4</ele>
        <time>2022-02-09T08:18:00Z</time>
      </trkpt>
      <trkpt lat="42.85861" lon="0.26087">
        <ele>1623.4</ele>
        <time>2022-02-09T08:18:01Z</time>
      </trkpt>
      <trkpt lat="42.85861" lon="0.26086">
        <ele>1623.5</ele>
        <time>2022-02-09T08:18:02Z</time>
      </trkpt>
      <trkpt lat="42.85861" lon="0.26085">
        <ele>1623.5</ele>
        <time>2022-02-09T08:18:03Z</time>
      </trkpt>
      <trkpt lat="42.85861" lon="0.26084">
        <ele>1623.5</ele>
        <time>2022-02-09T08:18:04Z</time>
      </trkpt>
      <trkpt lat="42.85861" lon="0.26083">
        <ele>1623.6</ele>
        <time>2022-02-09T08:18:05Z</time>
      </trkpt>
      <trkpt lat="42.85861" lon="0.26081">
        <ele>1623.6</ele>
        <time>2022-02-09T08:18:06Z</time>
      </trkpt>
      <trkpt lat="42.85861" lon="0.2608">
        <ele>1623.7</ele>
        <time>2022-02-09T08:18:07Z</time>
      </trkpt>
      <trkpt lat="42.85861" lon="0.26079">
        <ele>1623.7</ele>
        <time>2022-02-09T08:18:08Z</time>
      </trkpt>
      <trkpt lat="42.85861" lon="0.26078">
        <ele>1623.7</ele>
        <time>2022-02-09T08:18:09Z</time>
      </trkpt>
      <trkpt lat="42.85862" lon="0.26076">
        <ele>1623.8</ele>
        <time>2022-02-09T08:18:10Z</time>
      </trkpt>
      <trkpt lat="42.85862" lon="0.26075">
        <ele>1623.8</ele>
        <time>2022-02-09T08:18:11Z</time>
      </trkpt>
      <trkpt lat="42.85862" lon="0.26074">
        <ele>1623.9</ele>
        <time>2022-02-09T08:18:12Z</time>
      </trkpt>
      <trkpt lat="42.85863" lon="0.26073">
        <ele>1623.9</ele>
        <time>2022-02-09T08:18:13Z</time>
      </trkpt>
      <trkpt lat="42.85863" lon="0.26072">
        <ele>1623.9</ele>
        <time>2022-02-09T08:18:14Z</time>
      </trkpt>
      <trkpt lat="42.85863" lon="0.26072">
        <ele>1623.9</ele>
        <time>2022-02-09T08:18:15Z</time>
      </trkpt>
      <trkpt lat="42.85864" lon="0.26071">
        <ele>1624</ele>
        <time>2022-02-09T08:18:16Z</time>
      </trkpt>
      <trkpt lat="42.85864" lon="0.26071">
        <ele>1624</ele>
        <time>2022-02-09T08:18:17Z</time>
      </trkpt>
      <trkpt lat="42.85865" lon="0.2607">
        <ele>1624</ele>
        <time>2022-02-09T08:18:18Z</time>
      </trkpt>
      <trkpt lat="42.85865" lon="0.2607">
        <ele>1624.1</ele>
        <time>2022-02-09T08:18:19Z</time>
      </trkpt>
      <trkpt lat="42.85865" lon="0.26069">
        <ele>1624.1</ele>
        <time>2022-02-09T08:18:20Z</time>
      </trkpt>
      <trkpt lat="42.85865" lon="0.26068">
        <ele>1624.1</ele>
        <time>2022-02-09T08:18:21Z</time>
      </trkpt>
      <trkpt lat="42.85865" lon="0.26068">
        <ele>1624.1</ele>
        <time>2022-02-09T08:18:22Z</time>
      </trkpt>
      <trkpt lat="42.85865" lon="0.26067">
        <ele>1624.2</ele>
        <time>2022-02-09T08:18:23Z</time>
      </trkpt>
      <trkpt lat="42.85865" lon="0.26067">
        <ele>1624.2</ele>
        <time>2022-02-09T08:18:24Z</time>
      </trkpt>
      <trkpt lat="42.85866" lon="0.26066">
        <ele>1624.2</ele>
        <time>2022-02-09T08:18:25Z</time>
      </trkpt>
      <trkpt lat="42.85866" lon="0.26065">
        <ele>1624.3</ele>
        <time>2022-02-09T08:18:26Z</time>
      </trkpt>
      <trkpt lat="42.85866" lon="0.26065">
        <ele>1624.3</ele>
        <time>2022-02-09T08:18:27Z</time>
      </trkpt>
      <trkpt lat="42.85867" lon="0.26064">
        <ele>1624.4</ele>
        <time>2022-02-09T08:18:28Z</time>
      </trkpt>
      <trkpt lat="42.85868" lon="0.26063">
        <ele>1624.5</ele>
        <time>2022-02-09T08:18:29Z</time>
      </trkpt>
      <trkpt lat="42.85868" lon="0.26062">
        <ele>1624.6</ele>
        <time>2022-02-09T08:18:30Z</time>
      </trkpt>
      <trkpt lat="42.85869" lon="0.26062">
        <ele>1624.7</ele>
        <time>2022-02-09T08:18:31Z</time>
      </trkpt>
      <trkpt lat="42.8587" lon="0.26061">
        <ele>1624.8</ele>
        <time>2022-02-09T08:18:32Z</time>
      </trkpt>
      <trkpt lat="42.8587" lon="0.2606">
        <ele>1624.9</ele>
        <time>2022-02-09T08:18:33Z</time>
      </trkpt>
      <trkpt lat="42.85871" lon="0.2606">
        <ele>1625</ele>
        <time>2022-02-09T08:18:34Z</time>
      </trkpt>
      <trkpt lat="42.85871" lon="0.26059">
        <ele>1625</ele>
        <time>2022-02-09T08:18:35Z</time>
      </trkpt>
      <trkpt lat="42.85871" lon="0.26059">
        <ele>1625.1</ele>
        <time>2022-02-09T08:18:36Z</time>
      </trkpt>
      <trkpt lat="42.85871" lon="0.26058">
        <ele>1625.1</ele>
        <time>2022-02-09T08:18:37Z</time>
      </trkpt>
      <trkpt lat="42.85872" lon="0.26058">
        <ele>1625.2</ele>
        <time>2022-02-09T08:18:38Z</time>
      </trkpt>
      <trkpt lat="42.85872" lon="0.26058">
        <ele>1625.2</ele>
        <time>2022-02-09T08:18:39Z</time>
      </trkpt>
      <trkpt lat="42.85872" lon="0.26057">
        <ele>1625.3</ele>
        <time>2022-02-09T08:18:40Z</time>
      </trkpt>
      <trkpt lat="42.85872" lon="0.26057">
        <ele>1625.4</ele>
        <time>2022-02-09T08:18:41Z</time>
      </trkpt>
      <trkpt lat="42.85873" lon="0.26056">
        <ele>1625.5</ele>
        <time>2022-02-09T08:18:42Z</time>
      </trkpt>
      <trkpt lat="42.85873" lon="0.26056">
        <ele>1625.6</ele>
        <time>2022-02-09T08:18:43Z</time>
      </trkpt>
      <trkpt lat="42.85874" lon="0.26055">
        <ele>1625.7</ele>
        <time>2022-02-09T08:18:44Z</time>
      </trkpt>
      <trkpt lat="42.85874" lon="0.26054">
        <ele>1625.8</ele>
        <time>2022-02-09T08:18:45Z</time>
      </trkpt>
      <trkpt lat="42.85874" lon="0.26054">
        <ele>1625.9</ele>
        <time>2022-02-09T08:18:46Z</time>
      </trkpt>
      <trkpt lat="42.85874" lon="0.26053">
        <ele>1625.9</ele>
        <time>2022-02-09T08:18:47Z</time>
      </trkpt>
      <trkpt lat="42.85875" lon="0.26052">
        <ele>1626</ele>
        <time>2022-02-09T08:18:48Z</time>
      </trkpt>
      <trkpt lat="42.85875" lon="0.26052">
        <ele>1626.1</ele>
        <time>2022-02-09T08:18:49Z</time>
      </trkpt>
      <trkpt lat="42.85876" lon="0.26051">
        <ele>1626.2</ele>
        <time>2022-02-09T08:18:50Z</time>
      </trkpt>
      <trkpt lat="42.85876" lon="0.26051">
        <ele>1626.3</ele>
        <time>2022-02-09T08:18:51Z</time>
      </trkpt>
      <trkpt lat="42.85876" lon="0.26051">
        <ele>1626.4</ele>
        <time>2022-02-09T08:18:52Z</time>
      </trkpt>
      <trkpt lat="42.85877" lon="0.2605">
        <ele>1626.5</ele>
        <time>2022-02-09T08:18:53Z</time>
      </trkpt>
      <trkpt lat="42.85877" lon="0.2605">
        <ele>1626.5</ele>
        <time>2022-02-09T08:18:54Z</time>
      </trkpt>
      <trkpt lat="42.85877" lon="0.2605">
        <ele>1626.6</ele>
        <time>2022-02-09T08:18:55Z</time>
      </trkpt>
      <trkpt lat="42.85877" lon="0.2605">
        <ele>1626.6</ele>
        <time>2022-02-09T08:18:56Z</time>
      </trkpt>
      <trkpt lat="42.85877" lon="0.2605">
        <ele>1626.6</ele>
        <time>2022-02-09T08:18:57Z</time>
      </trkpt>
      <trkpt lat="42.85877" lon="0.2605">
        <ele>1626.6</ele>
        <time>2022-02-09T08:18:58Z</time>
      </trkpt>
      <trkpt lat="42.85877" lon="0.2605">
        <ele>1626.6</ele>
        <time>2022-02-09T08:18:59Z</time>
      </trkpt>
      <trkpt lat="42.85877" lon="0.2605">
        <ele>1626.6</ele>
        <time>2022-02-09T08:19:00Z</time>
      </trkpt>
      <trkpt lat="42.85877" lon="0.2605">
        <ele>1626.6</ele>
        <time>2022-02-09T08:19:01Z</time>
      </trkpt>
      <trkpt lat="42.85877" lon="0.2605">
        <ele>1626.6</ele>
        <time>2022-02-09T08:19:02Z</time>
      </trkpt>
      <trkpt lat="42.85877" lon="0.2605">
        <ele>1626.6</ele>
        <time>2022-02-09T08:19:03Z</time>
      </trkpt>
      <trkpt lat="42.85877" lon="0.2605">
        <ele>1626.6</ele>
        <time>2022-02-09T08:19:04Z</time>
      </trkpt>
      <trkpt lat="42.85877" lon="0.2605">
        <ele>1626.6</ele>
        <time>2022-02-09T08:19:05Z</time>
      </trkpt>
      <trkpt lat="42.85877" lon="0.2605">
        <ele>1626.6</ele>
        <time>2022-02-09T08:19:06Z</time>
      </trkpt>
      <trkpt lat="42.85877" lon="0.2605">
        <ele>1626.6</ele>
        <time>2022-02-09T08:19:07Z</time>
      </trkpt>
      <trkpt lat="42.85877" lon="0.2605">
        <ele>1626.6</ele>
        <time>2022-02-09T08:19:08Z</time>
      </trkpt>
      <trkpt lat="42.85877" lon="0.2605">
        <ele>1626.6</ele>
        <time>2022-02-09T08:19:09Z</time>
      </trkpt>
      <trkpt lat="42.85877" lon="0.2605">
        <ele>1626.6</ele>
        <time>2022-02-09T08:19:10Z</time>
      </trkpt>
      <trkpt lat="42.85877" lon="0.2605">
        <ele>1626.6</ele>
        <time>2022-02-09T08:19:11Z</time>
      </trkpt>
      <trkpt lat="42.85878" lon="0.26049">
        <ele>1626.7</ele>
        <time>2022-02-09T08:19:12Z</time>
      </trkpt>
      <trkpt lat="42.85878" lon="0.26049">
        <ele>1626.8</ele>
        <time>2022-02-09T08:19:13Z</time>
      </trkpt>
      <trkpt lat="42.85878" lon="0.26049">
        <ele>1626.8</ele>
        <time>2022-02-09T08:19:14Z</time>
      </trkpt>
      <trkpt lat="42.85878" lon="0.26049">
        <ele>1626.8</ele>
        <time>2022-02-09T08:19:15Z</time>
      </trkpt>
      <trkpt lat="42.85878" lon="0.26049">
        <ele>1626.8</ele>
        <time>2022-02-09T08:19:16Z</time>
      </trkpt>
      <trkpt lat="42.85878" lon="0.26049">
        <ele>1626.8</ele>
        <time>2022-02-09T08:19:17Z</time>
      </trkpt>
      <trkpt lat="42.85878" lon="0.26049">
        <ele>1626.8</ele>
        <time>2022-02-09T08:19:18Z</time>
      </trkpt>
      <trkpt lat="42.85878" lon="0.26049">
        <ele>1626.8</ele>
        <time>2022-02-09T08:19:19Z</time>
      </trkpt>
      <trkpt lat="42.85878" lon="0.26049">
        <ele>1626.8</ele>
        <time>2022-02-09T08:19:20Z</time>
      </trkpt>
      <trkpt lat="42.85878" lon="0.26049">
        <ele>1626.8</ele>
        <time>2022-02-09T08:19:21Z</time>
      </trkpt>
      <trkpt lat="42.85878" lon="0.26049">
        <ele>1626.8</ele>
        <time>2022-02-09T08:19:22Z</time>
      </trkpt>
      <trkpt lat="42.85878" lon="0.26049">
        <ele>1626.8</ele>
        <time>2022-02-09T08:19:23Z</time>
      </trkpt>
      <trkpt lat="42.85878" lon="0.26049">
        <ele>1626.8</ele>
        <time>2022-02-09T08:19:24Z</time>
      </trkpt>
      <trkpt lat="42.85878" lon="0.26049">
        <ele>1626.8</ele>
        <time>2022-02-09T08:19:25Z</time>
      </trkpt>
      <trkpt lat="42.85878" lon="0.26049">
        <ele>1626.8</ele>
        <time>2022-02-09T08:19:26Z</time>
      </trkpt>
      <trkpt lat="42.85878" lon="0.26049">
        <ele>1626.8</ele>
        <time>2022-02-09T08:19:27Z</time>
      </trkpt>
      <trkpt lat="42.85878" lon="0.26049">
        <ele>1626.8</ele>
        <time>2022-02-09T08:19:28Z</time>
      </trkpt>
      <trkpt lat="42.85878" lon="0.26049">
        <ele>1626.8</ele>
        <time>2022-02-09T08:19:29Z</time>
      </trkpt>
      <trkpt lat="42.85878" lon="0.26049">
        <ele>1626.8</ele>
        <time>2022-02-09T08:19:30Z</time>
      </trkpt>
      <trkpt lat="42.85878" lon="0.26049">
        <ele>1626.8</ele>
        <time>2022-02-09T08:19:31Z</time>
      </trkpt>
      <trkpt lat="42.85878" lon="0.26049">
        <ele>1626.8</ele>
        <time>2022-02-09T08:19:32Z</time>
      </trkpt>
      <trkpt lat="42.85878" lon="0.26049">
        <ele>1626.8</ele>
        <time>2022-02-09T08:19:33Z</time>
      </trkpt>
      <trkpt lat="42.85878" lon="0.26049">
        <ele>1626.8</ele>
        <time>2022-02-09T08:19:34Z</time>
      </trkpt>
      <trkpt lat="42.85878" lon="0.26049">
        <ele>1626.8</ele>
        <time>2022-02-09T08:19:35Z</time>
      </trkpt>
      <trkpt lat="42.85878" lon="0.26049">
        <ele>1626.8</ele>
        <time>2022-02-09T08:19:36Z</time>
      </trkpt>
      <trkpt lat="42.85878" lon="0.26049">
        <ele>1626.8</ele>
        <time>2022-02-09T08:19:37Z</time>
      </trkpt>
      <trkpt lat="42.85878" lon="0.26049">
        <ele>1626.8</ele>
        <time>2022-02-09T08:19:38Z</time>
      </trkpt>
      <trkpt lat="42.85878" lon="0.26049">
        <ele>1626.8</ele>
        <time>2022-02-09T08:19:39Z</time>
      </trkpt>
      <trkpt lat="42.85878" lon="0.26049">
        <ele>1626.8</ele>
        <time>2022-02-09T08:19:40Z</time>
      </trkpt>
      <trkpt lat="42.85878" lon="0.26049">
        <ele>1626.8</ele>
        <time>2022-02-09T08:19:41Z</time>
      </trkpt>
      <trkpt lat="42.85878" lon="0.26049">
        <ele>1626.8</ele>
        <time>2022-02-09T08:19:42Z</time>
      </trkpt>
      <trkpt lat="42.85878" lon="0.26049">
        <ele>1626.8</ele>
        <time>2022-02-09T08:19:43Z</time>
      </trkpt>
      <trkpt lat="42.85878" lon="0.26049">
        <ele>1626.8</ele>
        <time>2022-02-09T08:19:44Z</time>
      </trkpt>
      <trkpt lat="42.85878" lon="0.26049">
        <ele>1626.8</ele>
        <time>2022-02-09T08:19:45Z</time>
      </trkpt>
      <trkpt lat="42.85878" lon="0.26049">
        <ele>1626.8</ele>
        <time>2022-02-09T08:19:46Z</time>
      </trkpt>
      <trkpt lat="42.85878" lon="0.26049">
        <ele>1626.8</ele>
        <time>2022-02-09T08:19:47Z</time>
      </trkpt>
      <trkpt lat="42.85878" lon="0.26049">
        <ele>1626.8</ele>
        <time>2022-02-09T08:19:48Z</time>
      </trkpt>
      <trkpt lat="42.85878" lon="0.26049">
        <ele>1626.8</ele>
        <time>2022-02-09T08:19:49Z</time>
      </trkpt>
      <trkpt lat="42.85878" lon="0.26049">
        <ele>1626.8</ele>
        <time>2022-02-09T08:19:50Z</time>
      </trkpt>
      <trkpt lat="42.85878" lon="0.26049">
        <ele>1626.8</ele>
        <time>2022-02-09T08:19:51Z</time>
      </trkpt>
      <trkpt lat="42.85878" lon="0.26049">
        <ele>1626.8</ele>
        <time>2022-02-09T08:19:52Z</time>
      </trkpt>
      <trkpt lat="42.85878" lon="0.26049">
        <ele>1626.8</ele>
        <time>2022-02-09T08:19:53Z</time>
      </trkpt>
      <trkpt lat="42.85878" lon="0.26049">
        <ele>1626.8</ele>
        <time>2022-02-09T08:19:54Z</time>
      </trkpt>
      <trkpt lat="42.85878" lon="0.26049">
        <ele>1626.8</ele>
        <time>2022-02-09T08:19:55Z</time>
      </trkpt>
      <trkpt lat="42.85878" lon="0.26049">
        <ele>1626.8</ele>
        <time>2022-02-09T08:19:56Z</time>
      </trkpt>
      <trkpt lat="42.85878" lon="0.26049">
        <ele>1626.8</ele>
        <time>2022-02-09T08:19:57Z</time>
      </trkpt>
      <trkpt lat="42.85878" lon="0.26049">
        <ele>1626.8</ele>
        <time>2022-02-09T08:19:58Z</time>
      </trkpt>
      <trkpt lat="42.85878" lon="0.26049">
        <ele>1626.8</ele>
        <time>2022-02-09T08:19:59Z</time>
      </trkpt>
      <trkpt lat="42.85878" lon="0.26049">
        <ele>1626.8</ele>
        <time>2022-02-09T08:20:00Z</time>
      </trkpt>
      <trkpt lat="42.85878" lon="0.26049">
        <ele>1626.8</ele>
        <time>2022-02-09T08:20:01Z</time>
      </trkpt>
      <trkpt lat="42.85878" lon="0.26049">
        <ele>1626.8</ele>
        <time>2022-02-09T08:20:02Z</time>
      </trkpt>
      <trkpt lat="42.85878" lon="0.26049">
        <ele>1626.8</ele>
        <time>2022-02-09T08:20:03Z</time>
      </trkpt>
      <trkpt lat="42.85878" lon="0.26049">
        <ele>1626.8</ele>
        <time>2022-02-09T08:20:04Z</time>
      </trkpt>
      <trkpt lat="42.85878" lon="0.26049">
        <ele>1626.8</ele>
        <time>2022-02-09T08:20:05Z</time>
      </trkpt>
      <trkpt lat="42.85878" lon="0.26049">
        <ele>1626.8</ele>
        <time>2022-02-09T08:20:06Z</time>
      </trkpt>
      <trkpt lat="42.85878" lon="0.26049">
        <ele>1626.8</ele>
        <time>2022-02-09T08:20:07Z</time>
      </trkpt>
      <trkpt lat="42.85878" lon="0.26049">
        <ele>1626.8</ele>
        <time>2022-02-09T08:20:08Z</time>
      </trkpt>
      <trkpt lat="42.85878" lon="0.26049">
        <ele>1626.8</ele>
        <time>2022-02-09T08:20:09Z</time>
      </trkpt>
      <trkpt lat="42.85878" lon="0.26049">
        <ele>1626.8</ele>
        <time>2022-02-09T08:20:10Z</time>
      </trkpt>
      <trkpt lat="42.85878" lon="0.26049">
        <ele>1626.7</ele>
        <time>2022-02-09T08:20:11Z</time>
      </trkpt>
      <trkpt lat="42.85878" lon="0.26049">
        <ele>1626.7</ele>
        <time>2022-02-09T08:20:12Z</time>
      </trkpt>
      <trkpt lat="42.85878" lon="0.26049">
        <ele>1626.7</ele>
        <time>2022-02-09T08:20:13Z</time>
      </trkpt>
      <trkpt lat="42.85878" lon="0.26049">
        <ele>1626.7</ele>
        <time>2022-02-09T08:20:14Z</time>
      </trkpt>
      <trkpt lat="42.85878" lon="0.26049">
        <ele>1626.7</ele>
        <time>2022-02-09T08:20:15Z</time>
      </trkpt>
      <trkpt lat="42.85878" lon="0.26049">
        <ele>1626.7</ele>
        <time>2022-02-09T08:20:16Z</time>
      </trkpt>
      <trkpt lat="42.85878" lon="0.26049">
        <ele>1626.7</ele>
        <time>2022-02-09T08:20:17Z</time>
      </trkpt>
      <trkpt lat="42.85878" lon="0.26049">
        <ele>1626.7</ele>
        <time>2022-02-09T08:20:18Z</time>
      </trkpt>
      <trkpt lat="42.85878" lon="0.26049">
        <ele>1626.7</ele>
        <time>2022-02-09T08:20:19Z</time>
      </trkpt>
      <trkpt lat="42.85878" lon="0.26049">
        <ele>1626.7</ele>
        <time>2022-02-09T08:20:20Z</time>
      </trkpt>
      <trkpt lat="42.85878" lon="0.26049">
        <ele>1626.7</ele>
        <time>2022-02-09T08:20:21Z</time>
      </trkpt>
      <trkpt lat="42.85878" lon="0.26049">
        <ele>1626.6</ele>
        <time>2022-02-09T08:20:22Z</time>
      </trkpt>
      <trkpt lat="42.85878" lon="0.26049">
        <ele>1626.6</ele>
        <time>2022-02-09T08:20:23Z</time>
      </trkpt>
      <trkpt lat="42.85878" lon="0.26049">
        <ele>1626.6</ele>
        <time>2022-02-09T08:20:24Z</time>
      </trkpt>
      <trkpt lat="42.85878" lon="0.26049">
        <ele>1626.6</ele>
        <time>2022-02-09T08:20:25Z</time>
      </trkpt>
      <trkpt lat="42.85878" lon="0.26049">
        <ele>1626.6</ele>
        <time>2022-02-09T08:20:26Z</time>
      </trkpt>
      <trkpt lat="42.85878" lon="0.26049">
        <ele>1626.6</ele>
        <time>2022-02-09T08:20:27Z</time>
      </trkpt>
      <trkpt lat="42.85878" lon="0.26049">
        <ele>1626.6</ele>
        <time>2022-02-09T08:20:28Z</time>
      </trkpt>
      <trkpt lat="42.85878" lon="0.26049">
        <ele>1626.6</ele>
        <time>2022-02-09T08:20:29Z</time>
      </trkpt>
      <trkpt lat="42.85878" lon="0.26049">
        <ele>1626.6</ele>
        <time>2022-02-09T08:20:30Z</time>
      </trkpt>
      <trkpt lat="42.85878" lon="0.26049">
        <ele>1626.6</ele>
        <time>2022-02-09T08:20:31Z</time>
      </trkpt>
      <trkpt lat="42.85878" lon="0.26049">
        <ele>1626.6</ele>
        <time>2022-02-09T08:20:32Z</time>
      </trkpt>
      <trkpt lat="42.85878" lon="0.26049">
        <ele>1626.5</ele>
        <time>2022-02-09T08:20:33Z</time>
      </trkpt>
      <trkpt lat="42.85878" lon="0.26049">
        <ele>1626.5</ele>
        <time>2022-02-09T08:20:34Z</time>
      </trkpt>
      <trkpt lat="42.85878" lon="0.26049">
        <ele>1626.5</ele>
        <time>2022-02-09T08:20:35Z</time>
      </trkpt>
      <trkpt lat="42.85878" lon="0.26049">
        <ele>1626.5</ele>
        <time>2022-02-09T08:20:36Z</time>
      </trkpt>
      <trkpt lat="42.85878" lon="0.26049">
        <ele>1626.5</ele>
        <time>2022-02-09T08:20:37Z</time>
      </trkpt>
      <trkpt lat="42.85878" lon="0.26049">
        <ele>1626.5</ele>
        <time>2022-02-09T08:20:38Z</time>
      </trkpt>
      <trkpt lat="42.85878" lon="0.26049">
        <ele>1626.5</ele>
        <time>2022-02-09T08:20:39Z</time>
      </trkpt>
      <trkpt lat="42.85878" lon="0.26049">
        <ele>1626.5</ele>
        <time>2022-02-09T08:20:40Z</time>
      </trkpt>
      <trkpt lat="42.85878" lon="0.26049">
        <ele>1626.5</ele>
        <time>2022-02-09T08:20:41Z</time>
      </trkpt>
      <trkpt lat="42.85878" lon="0.26049">
        <ele>1626.5</ele>
        <time>2022-02-09T08:20:42Z</time>
      </trkpt>
      <trkpt lat="42.85878" lon="0.26049">
        <ele>1626.5</ele>
        <time>2022-02-09T08:20:43Z</time>
      </trkpt>
      <trkpt lat="42.85878" lon="0.26049">
        <ele>1626.4</ele>
        <time>2022-02-09T08:20:44Z</time>
      </trkpt>
      <trkpt lat="42.85878" lon="0.26049">
        <ele>1626.4</ele>
        <time>2022-02-09T08:20:45Z</time>
      </trkpt>
      <trkpt lat="42.85878" lon="0.26049">
        <ele>1626.4</ele>
        <time>2022-02-09T08:20:46Z</time>
      </trkpt>
      <trkpt lat="42.85878" lon="0.26049">
        <ele>1626.4</ele>
        <time>2022-02-09T08:20:47Z</time>
      </trkpt>
      <trkpt lat="42.85878" lon="0.26049">
        <ele>1626.4</ele>
        <time>2022-02-09T08:20:48Z</time>
      </trkpt>
      <trkpt lat="42.85878" lon="0.26049">
        <ele>1626.4</ele>
        <time>2022-02-09T08:20:49Z</time>
      </trkpt>
      <trkpt lat="42.85878" lon="0.26049">
        <ele>1626.4</ele>
        <time>2022-02-09T08:20:50Z</time>
      </trkpt>
      <trkpt lat="42.85878" lon="0.26049">
        <ele>1626.4</ele>
        <time>2022-02-09T08:20:51Z</time>
      </trkpt>
      <trkpt lat="42.85878" lon="0.26049">
        <ele>1626.4</ele>
        <time>2022-02-09T08:20:52Z</time>
      </trkpt>
      <trkpt lat="42.85878" lon="0.26049">
        <ele>1626.4</ele>
        <time>2022-02-09T08:20:53Z</time>
      </trkpt>
      <trkpt lat="42.85878" lon="0.26049">
        <ele>1626.4</ele>
        <time>2022-02-09T08:20:54Z</time>
      </trkpt>
      <trkpt lat="42.85878" lon="0.26049">
        <ele>1626.4</ele>
        <time>2022-02-09T08:20:55Z</time>
      </trkpt>
      <trkpt lat="42.85878" lon="0.26049">
        <ele>1626.3</ele>
        <time>2022-02-09T08:20:56Z</time>
      </trkpt>
      <trkpt lat="42.85878" lon="0.26049">
        <ele>1626.3</ele>
        <time>2022-02-09T08:20:57Z</time>
      </trkpt>
      <trkpt lat="42.85878" lon="0.26049">
        <ele>1626.3</ele>
        <time>2022-02-09T08:20:58Z</time>
      </trkpt>
      <trkpt lat="42.85878" lon="0.26049">
        <ele>1626.3</ele>
        <time>2022-02-09T08:20:59Z</time>
      </trkpt>
      <trkpt lat="42.85878" lon="0.26049">
        <ele>1626.3</ele>
        <time>2022-02-09T08:21:00Z</time>
      </trkpt>
      <trkpt lat="42.85878" lon="0.26049">
        <ele>1626.3</ele>
        <time>2022-02-09T08:21:01Z</time>
      </trkpt>
      <trkpt lat="42.85878" lon="0.26049">
        <ele>1626.3</ele>
        <time>2022-02-09T08:21:02Z</time>
      </trkpt>
      <trkpt lat="42.85878" lon="0.26049">
        <ele>1626.3</ele>
        <time>2022-02-09T08:21:03Z</time>
      </trkpt>
      <trkpt lat="42.85878" lon="0.26049">
        <ele>1626.3</ele>
        <time>2022-02-09T08:21:04Z</time>
      </trkpt>
      <trkpt lat="42.85878" lon="0.26049">
        <ele>1626.3</ele>
        <time>2022-02-09T08:21:05Z</time>
      </trkpt>
      <trkpt lat="42.85878" lon="0.26049">
        <ele>1626.3</ele>
        <time>2022-02-09T08:21:06Z</time>
      </trkpt>
      <trkpt lat="42.85878" lon="0.26049">
        <ele>1626.2</ele>
        <time>2022-02-09T08:21:07Z</time>
      </trkpt>
      <trkpt lat="42.85878" lon="0.26049">
        <ele>1626.2</ele>
        <time>2022-02-09T08:21:08Z</time>
      </trkpt>
      <trkpt lat="42.85878" lon="0.26049">
        <ele>1626.2</ele>
        <time>2022-02-09T08:21:09Z</time>
      </trkpt>
      <trkpt lat="42.85878" lon="0.26049">
        <ele>1626.2</ele>
        <time>2022-02-09T08:21:10Z</time>
      </trkpt>
      <trkpt lat="42.85878" lon="0.26049">
        <ele>1626.2</ele>
        <time>2022-02-09T08:21:11Z</time>
      </trkpt>
      <trkpt lat="42.85878" lon="0.26049">
        <ele>1626.2</ele>
        <time>2022-02-09T08:21:12Z</time>
      </trkpt>
      <trkpt lat="42.85878" lon="0.26049">
        <ele>1626.2</ele>
        <time>2022-02-09T08:21:13Z</time>
      </trkpt>
      <trkpt lat="42.85878" lon="0.26049">
        <ele>1626.2</ele>
        <time>2022-02-09T08:21:14Z</time>
      </trkpt>
      <trkpt lat="42.85878" lon="0.26049">
        <ele>1626.2</ele>
        <time>2022-02-09T08:21:15Z</time>
      </trkpt>
      <trkpt lat="42.85878" lon="0.26049">
        <ele>1626.2</ele>
        <time>2022-02-09T08:21:16Z</time>
      </trkpt>
      <trkpt lat="42.85878" lon="0.26049">
        <ele>1626.2</ele>
        <time>2022-02-09T08:21:17Z</time>
      </trkpt>
      <trkpt lat="42.85878" lon="0.26049">
        <ele>1626.1</ele>
        <time>2022-02-09T08:21:18Z</time>
      </trkpt>
      <trkpt lat="42.85878" lon="0.26049">
        <ele>1626.1</ele>
        <time>2022-02-09T08:21:19Z</time>
      </trkpt>
      <trkpt lat="42.85878" lon="0.26049">
        <ele>1626.1</ele>
        <time>2022-02-09T08:21:20Z</time>
      </trkpt>
      <trkpt lat="42.85878" lon="0.26049">
        <ele>1626.1</ele>
        <time>2022-02-09T08:21:21Z</time>
      </trkpt>
      <trkpt lat="42.85878" lon="0.26049">
        <ele>1626.1</ele>
        <time>2022-02-09T08:21:22Z</time>
      </trkpt>
      <trkpt lat="42.85878" lon="0.26049">
        <ele>1626.1</ele>
        <time>2022-02-09T08:21:23Z</time>
      </trkpt>
      <trkpt lat="42.85878" lon="0.26049">
        <ele>1626.1</ele>
        <time>2022-02-09T08:21:24Z</time>
      </trkpt>
      <trkpt lat="42.85878" lon="0.26049">
        <ele>1626.1</ele>
        <time>2022-02-09T08:21:25Z</time>
      </trkpt>
      <trkpt lat="42.85878" lon="0.26049">
        <ele>1626.1</ele>
        <time>2022-02-09T08:21:26Z</time>
      </trkpt>
      <trkpt lat="42.85878" lon="0.26049">
        <ele>1626.1</ele>
        <time>2022-02-09T08:21:27Z</time>
      </trkpt>
      <trkpt lat="42.85878" lon="0.26049">
        <ele>1626.1</ele>
        <time>2022-02-09T08:21:28Z</time>
      </trkpt>
      <trkpt lat="42.85878" lon="0.26049">
        <ele>1626</ele>
        <time>2022-02-09T08:21:29Z</time>
      </trkpt>
      <trkpt lat="42.85878" lon="0.26049">
        <ele>1626</ele>
        <time>2022-02-09T08:21:30Z</time>
      </trkpt>
      <trkpt lat="42.85878" lon="0.26049">
        <ele>1626</ele>
        <time>2022-02-09T08:21:31Z</time>
      </trkpt>
      <trkpt lat="42.85878" lon="0.26049">
        <ele>1626</ele>
        <time>2022-02-09T08:21:32Z</time>
      </trkpt>
      <trkpt lat="42.85878" lon="0.26049">
        <ele>1626</ele>
        <time>2022-02-09T08:21:33Z</time>
      </trkpt>
      <trkpt lat="42.85878" lon="0.26049">
        <ele>1626</ele>
        <time>2022-02-09T08:21:34Z</time>
      </trkpt>
      <trkpt lat="42.85878" lon="0.26049">
        <ele>1626</ele>
        <time>2022-02-09T08:21:35Z</time>
      </trkpt>
      <trkpt lat="42.85878" lon="0.26049">
        <ele>1626</ele>
        <time>2022-02-09T08:21:36Z</time>
      </trkpt>
      <trkpt lat="42.85878" lon="0.26049">
        <ele>1626</ele>
        <time>2022-02-09T08:21:37Z</time>
      </trkpt>
      <trkpt lat="42.85878" lon="0.26049">
        <ele>1626</ele>
        <time>2022-02-09T08:21:38Z</time>
      </trkpt>
      <trkpt lat="42.85878" lon="0.26049">
        <ele>1626</ele>
        <time>2022-02-09T08:21:39Z</time>
      </trkpt>
      <trkpt lat="42.85878" lon="0.26049">
        <ele>1625.9</ele>
        <time>2022-02-09T08:21:40Z</time>
      </trkpt>
      <trkpt lat="42.85878" lon="0.26049">
        <ele>1625.9</ele>
        <time>2022-02-09T08:21:41Z</time>
      </trkpt>
      <trkpt lat="42.85878" lon="0.26049">
        <ele>1625.9</ele>
        <time>2022-02-09T08:21:42Z</time>
      </trkpt>
      <trkpt lat="42.85878" lon="0.26049">
        <ele>1625.9</ele>
        <time>2022-02-09T08:21:43Z</time>
      </trkpt>
      <trkpt lat="42.85878" lon="0.26049">
        <ele>1625.9</ele>
        <time>2022-02-09T08:21:44Z</time>
      </trkpt>
      <trkpt lat="42.85878" lon="0.26049">
        <ele>1625.9</ele>
        <time>2022-02-09T08:21:45Z</time>
      </trkpt>
      <trkpt lat="42.85878" lon="0.26049">
        <ele>1625.9</ele>
        <time>2022-02-09T08:21:46Z</time>
      </trkpt>
      <trkpt lat="42.85878" lon="0.26049">
        <ele>1625.9</ele>
        <time>2022-02-09T08:21:47Z</time>
      </trkpt>
      <trkpt lat="42.85878" lon="0.26049">
        <ele>1625.9</ele>
        <time>2022-02-09T08:21:48Z</time>
      </trkpt>
      <trkpt lat="42.85878" lon="0.26049">
        <ele>1625.9</ele>
        <time>2022-02-09T08:21:49Z</time>
      </trkpt>
      <trkpt lat="42.85878" lon="0.26049">
        <ele>1625.9</ele>
        <time>2022-02-09T08:21:50Z</time>
      </trkpt>
      <trkpt lat="42.85878" lon="0.26049">
        <ele>1625.9</ele>
        <time>2022-02-09T08:21:51Z</time>
      </trkpt>
      <trkpt lat="42.85878" lon="0.26049">
        <ele>1625.9</ele>
        <time>2022-02-09T08:21:52Z</time>
      </trkpt>
      <trkpt lat="42.85878" lon="0.26049">
        <ele>1625.9</ele>
        <time>2022-02-09T08:21:53Z</time>
      </trkpt>
      <trkpt lat="42.85878" lon="0.26049">
        <ele>1625.9</ele>
        <time>2022-02-09T08:21:54Z</time>
      </trkpt>
      <trkpt lat="42.85878" lon="0.26049">
        <ele>1625.9</ele>
        <time>2022-02-09T08:21:55Z</time>
      </trkpt>
      <trkpt lat="42.85878" lon="0.26049">
        <ele>1625.9</ele>
        <time>2022-02-09T08:21:56Z</time>
      </trkpt>
      <trkpt lat="42.85878" lon="0.26049">
        <ele>1625.9</ele>
        <time>2022-02-09T08:21:57Z</time>
      </trkpt>
      <trkpt lat="42.85878" lon="0.26049">
        <ele>1625.9</ele>
        <time>2022-02-09T08:21:58Z</time>
      </trkpt>
      <trkpt lat="42.85878" lon="0.26049">
        <ele>1625.9</ele>
        <time>2022-02-09T08:21:59Z</time>
      </trkpt>
      <trkpt lat="42.85878" lon="0.26049">
        <ele>1625.9</ele>
        <time>2022-02-09T08:22:00Z</time>
      </trkpt>
      <trkpt lat="42.85878" lon="0.26049">
        <ele>1625.9</ele>
        <time>2022-02-09T08:22:01Z</time>
      </trkpt>
      <trkpt lat="42.85878" lon="0.26049">
        <ele>1625.9</ele>
        <time>2022-02-09T08:22:02Z</time>
      </trkpt>
      <trkpt lat="42.85878" lon="0.26049">
        <ele>1625.9</ele>
        <time>2022-02-09T08:22:03Z</time>
      </trkpt>
      <trkpt lat="42.85878" lon="0.26049">
        <ele>1625.9</ele>
        <time>2022-02-09T08:22:04Z</time>
      </trkpt>
      <trkpt lat="42.85878" lon="0.26049">
        <ele>1625.9</ele>
        <time>2022-02-09T08:22:05Z</time>
      </trkpt>
      <trkpt lat="42.85878" lon="0.26049">
        <ele>1625.9</ele>
        <time>2022-02-09T08:22:06Z</time>
      </trkpt>
      <trkpt lat="42.85878" lon="0.26049">
        <ele>1625.9</ele>
        <time>2022-02-09T08:22:07Z</time>
      </trkpt>
      <trkpt lat="42.85878" lon="0.26049">
        <ele>1625.9</ele>
        <time>2022-02-09T08:22:08Z</time>
      </trkpt>
      <trkpt lat="42.85878" lon="0.26049">
        <ele>1625.9</ele>
        <time>2022-02-09T08:22:09Z</time>
      </trkpt>
      <trkpt lat="42.85878" lon="0.26049">
        <ele>1625.9</ele>
        <time>2022-02-09T08:22:10Z</time>
      </trkpt>
      <trkpt lat="42.85878" lon="0.26049">
        <ele>1625.9</ele>
        <time>2022-02-09T08:22:11Z</time>
      </trkpt>
      <trkpt lat="42.85878" lon="0.26049">
        <ele>1625.9</ele>
        <time>2022-02-09T08:22:12Z</time>
      </trkpt>
      <trkpt lat="42.85878" lon="0.26049">
        <ele>1625.9</ele>
        <time>2022-02-09T08:22:13Z</time>
      </trkpt>
      <trkpt lat="42.85878" lon="0.26049">
        <ele>1625.9</ele>
        <time>2022-02-09T08:22:14Z</time>
      </trkpt>
      <trkpt lat="42.85878" lon="0.26049">
        <ele>1625.9</ele>
        <time>2022-02-09T08:22:15Z</time>
      </trkpt>
      <trkpt lat="42.85878" lon="0.26049">
        <ele>1625.9</ele>
        <time>2022-02-09T08:22:16Z</time>
      </trkpt>
      <trkpt lat="42.85878" lon="0.26049">
        <ele>1625.9</ele>
        <time>2022-02-09T08:22:17Z</time>
      </trkpt>
      <trkpt lat="42.85878" lon="0.26049">
        <ele>1625.9</ele>
        <time>2022-02-09T08:22:18Z</time>
      </trkpt>
      <trkpt lat="42.85878" lon="0.26049">
        <ele>1625.9</ele>
        <time>2022-02-09T08:22:19Z</time>
      </trkpt>
      <trkpt lat="42.85878" lon="0.26049">
        <ele>1625.9</ele>
        <time>2022-02-09T08:22:20Z</time>
      </trkpt>
      <trkpt lat="42.85878" lon="0.26049">
        <ele>1625.9</ele>
        <time>2022-02-09T08:22:21Z</time>
      </trkpt>
      <trkpt lat="42.85878" lon="0.26049">
        <ele>1625.9</ele>
        <time>2022-02-09T08:22:22Z</time>
      </trkpt>
      <trkpt lat="42.85878" lon="0.26049">
        <ele>1625.9</ele>
        <time>2022-02-09T08:22:23Z</time>
      </trkpt>
      <trkpt lat="42.85878" lon="0.26049">
        <ele>1625.9</ele>
        <time>2022-02-09T08:22:24Z</time>
      </trkpt>
      <trkpt lat="42.85878" lon="0.26049">
        <ele>1625.9</ele>
        <time>2022-02-09T08:22:25Z</time>
      </trkpt>
      <trkpt lat="42.85878" lon="0.26049">
        <ele>1625.9</ele>
        <time>2022-02-09T08:22:26Z</time>
      </trkpt>
      <trkpt lat="42.85878" lon="0.26049">
        <ele>1625.9</ele>
        <time>2022-02-09T08:22:27Z</time>
      </trkpt>
      <trkpt lat="42.85878" lon="0.26049">
        <ele>1625.9</ele>
        <time>2022-02-09T08:22:28Z</time>
      </trkpt>
      <trkpt lat="42.85878" lon="0.26049">
        <ele>1625.9</ele>
        <time>2022-02-09T08:22:29Z</time>
      </trkpt>
      <trkpt lat="42.85878" lon="0.26049">
        <ele>1625.9</ele>
        <time>2022-02-09T08:22:30Z</time>
      </trkpt>
      <trkpt lat="42.85878" lon="0.26049">
        <ele>1625.9</ele>
        <time>2022-02-09T08:22:31Z</time>
      </trkpt>
      <trkpt lat="42.85878" lon="0.26049">
        <ele>1625.9</ele>
        <time>2022-02-09T08:22:32Z</time>
      </trkpt>
      <trkpt lat="42.85878" lon="0.26049">
        <ele>1625.9</ele>
        <time>2022-02-09T08:22:33Z</time>
      </trkpt>
      <trkpt lat="42.85878" lon="0.26049">
        <ele>1625.9</ele>
        <time>2022-02-09T08:22:34Z</time>
      </trkpt>
      <trkpt lat="42.85878" lon="0.26049">
        <ele>1625.9</ele>
        <time>2022-02-09T08:22:35Z</time>
      </trkpt>
      <trkpt lat="42.85878" lon="0.26049">
        <ele>1625.9</ele>
        <time>2022-02-09T08:22:36Z</time>
      </trkpt>
      <trkpt lat="42.85878" lon="0.26049">
        <ele>1625.9</ele>
        <time>2022-02-09T08:22:37Z</time>
      </trkpt>
      <trkpt lat="42.85878" lon="0.26049">
        <ele>1625.9</ele>
        <time>2022-02-09T08:22:38Z</time>
      </trkpt>
      <trkpt lat="42.85878" lon="0.26049">
        <ele>1625.9</ele>
        <time>2022-02-09T08:22:39Z</time>
      </trkpt>
      <trkpt lat="42.85878" lon="0.26049">
        <ele>1625.9</ele>
        <time>2022-02-09T08:22:40Z</time>
      </trkpt>
      <trkpt lat="42.85878" lon="0.26049">
        <ele>1625.9</ele>
        <time>2022-02-09T08:22:41Z</time>
      </trkpt>
      <trkpt lat="42.85878" lon="0.26049">
        <ele>1625.9</ele>
        <time>2022-02-09T08:22:42Z</time>
      </trkpt>
      <trkpt lat="42.85878" lon="0.26049">
        <ele>1625.9</ele>
        <time>2022-02-09T08:22:43Z</time>
      </trkpt>
      <trkpt lat="42.85878" lon="0.26049">
        <ele>1625.9</ele>
        <time>2022-02-09T08:22:44Z</time>
      </trkpt>
      <trkpt lat="42.85878" lon="0.26049">
        <ele>1625.9</ele>
        <time>2022-02-09T08:22:45Z</time>
      </trkpt>
      <trkpt lat="42.85878" lon="0.26049">
        <ele>1625.9</ele>
        <time>2022-02-09T08:22:46Z</time>
      </trkpt>
      <trkpt lat="42.85878" lon="0.26049">
        <ele>1625.9</ele>
        <time>2022-02-09T08:22:47Z</time>
      </trkpt>
      <trkpt lat="42.85878" lon="0.26049">
        <ele>1625.9</ele>
        <time>2022-02-09T08:22:48Z</time>
      </trkpt>
      <trkpt lat="42.85878" lon="0.26049">
        <ele>1625.9</ele>
        <time>2022-02-09T08:22:49Z</time>
      </trkpt>
      <trkpt lat="42.85878" lon="0.26049">
        <ele>1625.9</ele>
        <time>2022-02-09T08:22:50Z</time>
      </trkpt>
      <trkpt lat="42.85878" lon="0.26049">
        <ele>1625.9</ele>
        <time>2022-02-09T08:22:51Z</time>
      </trkpt>
      <trkpt lat="42.85878" lon="0.26049">
        <ele>1625.9</ele>
        <time>2022-02-09T08:22:52Z</time>
      </trkpt>
      <trkpt lat="42.85878" lon="0.26049">
        <ele>1625.9</ele>
        <time>2022-02-09T08:22:53Z</time>
      </trkpt>
      <trkpt lat="42.85878" lon="0.26049">
        <ele>1625.9</ele>
        <time>2022-02-09T08:22:54Z</time>
      </trkpt>
      <trkpt lat="42.85878" lon="0.26049">
        <ele>1625.9</ele>
        <time>2022-02-09T08:22:55Z</time>
      </trkpt>
      <trkpt lat="42.85878" lon="0.26049">
        <ele>1625.9</ele>
        <time>2022-02-09T08:22:56Z</time>
      </trkpt>
      <trkpt lat="42.85878" lon="0.26049">
        <ele>1625.9</ele>
        <time>2022-02-09T08:22:57Z</time>
      </trkpt>
      <trkpt lat="42.85878" lon="0.26049">
        <ele>1625.9</ele>
        <time>2022-02-09T08:22:58Z</time>
      </trkpt>
      <trkpt lat="42.85878" lon="0.26049">
        <ele>1625.9</ele>
        <time>2022-02-09T08:22:59Z</time>
      </trkpt>
      <trkpt lat="42.85878" lon="0.26049">
        <ele>1625.9</ele>
        <time>2022-02-09T08:23:00Z</time>
      </trkpt>
      <trkpt lat="42.85878" lon="0.26049">
        <ele>1625.9</ele>
        <time>2022-02-09T08:23:01Z</time>
      </trkpt>
      <trkpt lat="42.85878" lon="0.26049">
        <ele>1625.9</ele>
        <time>2022-02-09T08:23:02Z</time>
      </trkpt>
      <trkpt lat="42.85878" lon="0.26049">
        <ele>1625.9</ele>
        <time>2022-02-09T08:23:03Z</time>
      </trkpt>
      <trkpt lat="42.85878" lon="0.26049">
        <ele>1625.9</ele>
        <time>2022-02-09T08:23:04Z</time>
      </trkpt>
      <trkpt lat="42.85878" lon="0.26049">
        <ele>1625.9</ele>
        <time>2022-02-09T08:23:05Z</time>
      </trkpt>
      <trkpt lat="42.85878" lon="0.26049">
        <ele>1625.9</ele>
        <time>2022-02-09T08:23:06Z</time>
      </trkpt>
      <trkpt lat="42.85878" lon="0.26049">
        <ele>1625.9</ele>
        <time>2022-02-09T08:23:07Z</time>
      </trkpt>
      <trkpt lat="42.85878" lon="0.26049">
        <ele>1625.9</ele>
        <time>2022-02-09T08:23:08Z</time>
      </trkpt>
      <trkpt lat="42.85878" lon="0.26049">
        <ele>1625.9</ele>
        <time>2022-02-09T08:23:09Z</time>
      </trkpt>
      <trkpt lat="42.85878" lon="0.26049">
        <ele>1625.9</ele>
        <time>2022-02-09T08:23:10Z</time>
      </trkpt>
      <trkpt lat="42.85878" lon="0.26049">
        <ele>1625.9</ele>
        <time>2022-02-09T08:23:11Z</time>
      </trkpt>
      <trkpt lat="42.85878" lon="0.26049">
        <ele>1625.9</ele>
        <time>2022-02-09T08:23:12Z</time>
      </trkpt>
      <trkpt lat="42.85878" lon="0.26049">
        <ele>1625.9</ele>
        <time>2022-02-09T08:23:13Z</time>
      </trkpt>
      <trkpt lat="42.85878" lon="0.26049">
        <ele>1625.9</ele>
        <time>2022-02-09T08:23:14Z</time>
      </trkpt>
      <trkpt lat="42.85878" lon="0.26049">
        <ele>1625.9</ele>
        <time>2022-02-09T08:23:15Z</time>
      </trkpt>
      <trkpt lat="42.85878" lon="0.26049">
        <ele>1625.9</ele>
        <time>2022-02-09T08:23:16Z</time>
      </trkpt>
      <trkpt lat="42.85878" lon="0.26049">
        <ele>1625.9</ele>
        <time>2022-02-09T08:23:17Z</time>
      </trkpt>
      <trkpt lat="42.85878" lon="0.26049">
        <ele>1625.9</ele>
        <time>2022-02-09T08:23:18Z</time>
      </trkpt>
      <trkpt lat="42.85878" lon="0.26049">
        <ele>1625.9</ele>
        <time>2022-02-09T08:23:19Z</time>
      </trkpt>
      <trkpt lat="42.85878" lon="0.26049">
        <ele>1625.9</ele>
        <time>2022-02-09T08:23:20Z</time>
      </trkpt>
      <trkpt lat="42.85878" lon="0.26049">
        <ele>1625.9</ele>
        <time>2022-02-09T08:23:21Z</time>
      </trkpt>
      <trkpt lat="42.85878" lon="0.26049">
        <ele>1625.9</ele>
        <time>2022-02-09T08:23:22Z</time>
      </trkpt>
      <trkpt lat="42.85878" lon="0.26049">
        <ele>1625.9</ele>
        <time>2022-02-09T08:23:23Z</time>
      </trkpt>
      <trkpt lat="42.85878" lon="0.26049">
        <ele>1625.9</ele>
        <time>2022-02-09T08:23:24Z</time>
      </trkpt>
      <trkpt lat="42.85878" lon="0.26049">
        <ele>1625.9</ele>
        <time>2022-02-09T08:23:25Z</time>
      </trkpt>
      <trkpt lat="42.85878" lon="0.26049">
        <ele>1625.9</ele>
        <time>2022-02-09T08:23:26Z</time>
      </trkpt>
      <trkpt lat="42.85878" lon="0.26049">
        <ele>1625.9</ele>
        <time>2022-02-09T08:23:27Z</time>
      </trkpt>
      <trkpt lat="42.85878" lon="0.26049">
        <ele>1625.9</ele>
        <time>2022-02-09T08:23:28Z</time>
      </trkpt>
      <trkpt lat="42.85878" lon="0.26049">
        <ele>1625.9</ele>
        <time>2022-02-09T08:23:29Z</time>
      </trkpt>
      <trkpt lat="42.85878" lon="0.26049">
        <ele>1625.9</ele>
        <time>2022-02-09T08:23:30Z</time>
      </trkpt>
      <trkpt lat="42.85878" lon="0.26049">
        <ele>1625.9</ele>
        <time>2022-02-09T08:23:31Z</time>
      </trkpt>
      <trkpt lat="42.85878" lon="0.26049">
        <ele>1625.9</ele>
        <time>2022-02-09T08:23:32Z</time>
      </trkpt>
      <trkpt lat="42.85878" lon="0.26049">
        <ele>1625.9</ele>
        <time>2022-02-09T08:23:33Z</time>
      </trkpt>
      <trkpt lat="42.85878" lon="0.26049">
        <ele>1625.9</ele>
        <time>2022-02-09T08:23:34Z</time>
      </trkpt>
      <trkpt lat="42.85878" lon="0.26049">
        <ele>1625.9</ele>
        <time>2022-02-09T08:23:35Z</time>
      </trkpt>
      <trkpt lat="42.85878" lon="0.26049">
        <ele>1625.9</ele>
        <time>2022-02-09T08:23:36Z</time>
      </trkpt>
      <trkpt lat="42.85878" lon="0.26049">
        <ele>1625.9</ele>
        <time>2022-02-09T08:23:37Z</time>
      </trkpt>
      <trkpt lat="42.85878" lon="0.26049">
        <ele>1625.9</ele>
        <time>2022-02-09T08:23:38Z</time>
      </trkpt>
      <trkpt lat="42.85878" lon="0.26049">
        <ele>1625.9</ele>
        <time>2022-02-09T08:23:39Z</time>
      </trkpt>
      <trkpt lat="42.85878" lon="0.26049">
        <ele>1625.9</ele>
        <time>2022-02-09T08:23:40Z</time>
      </trkpt>
      <trkpt lat="42.85878" lon="0.26049">
        <ele>1625.9</ele>
        <time>2022-02-09T08:23:41Z</time>
      </trkpt>
      <trkpt lat="42.85878" lon="0.26049">
        <ele>1625.9</ele>
        <time>2022-02-09T08:23:42Z</time>
      </trkpt>
      <trkpt lat="42.85878" lon="0.26049">
        <ele>1625.9</ele>
        <time>2022-02-09T08:23:43Z</time>
      </trkpt>
      <trkpt lat="42.85878" lon="0.26049">
        <ele>1625.9</ele>
        <time>2022-02-09T08:23:44Z</time>
      </trkpt>
      <trkpt lat="42.85878" lon="0.26049">
        <ele>1625.9</ele>
        <time>2022-02-09T08:23:45Z</time>
      </trkpt>
      <trkpt lat="42.85878" lon="0.26049">
        <ele>1625.9</ele>
        <time>2022-02-09T08:23:46Z</time>
      </trkpt>
      <trkpt lat="42.85878" lon="0.26049">
        <ele>1625.9</ele>
        <time>2022-02-09T08:23:47Z</time>
      </trkpt>
      <trkpt lat="42.85878" lon="0.26049">
        <ele>1625.9</ele>
        <time>2022-02-09T08:23:48Z</time>
      </trkpt>
      <trkpt lat="42.85878" lon="0.26049">
        <ele>1625.9</ele>
        <time>2022-02-09T08:23:49Z</time>
      </trkpt>
      <trkpt lat="42.85878" lon="0.26049">
        <ele>1625.9</ele>
        <time>2022-02-09T08:23:50Z</time>
      </trkpt>
      <trkpt lat="42.85878" lon="0.26049">
        <ele>1625.9</ele>
        <time>2022-02-09T08:23:51Z</time>
      </trkpt>
      <trkpt lat="42.85878" lon="0.26049">
        <ele>1625.9</ele>
        <time>2022-02-09T08:23:52Z</time>
      </trkpt>
      <trkpt lat="42.85878" lon="0.26049">
        <ele>1625.9</ele>
        <time>2022-02-09T08:23:53Z</time>
      </trkpt>
      <trkpt lat="42.85878" lon="0.26049">
        <ele>1625.9</ele>
        <time>2022-02-09T08:23:54Z</time>
      </trkpt>
      <trkpt lat="42.85878" lon="0.26049">
        <ele>1625.9</ele>
        <time>2022-02-09T08:23:55Z</time>
      </trkpt>
      <trkpt lat="42.85878" lon="0.26049">
        <ele>1625.9</ele>
        <time>2022-02-09T08:23:56Z</time>
      </trkpt>
      <trkpt lat="42.85878" lon="0.26049">
        <ele>1625.9</ele>
        <time>2022-02-09T08:23:57Z</time>
      </trkpt>
      <trkpt lat="42.85878" lon="0.26049">
        <ele>1625.9</ele>
        <time>2022-02-09T08:23:58Z</time>
      </trkpt>
      <trkpt lat="42.85878" lon="0.26049">
        <ele>1625.9</ele>
        <time>2022-02-09T08:23:59Z</time>
      </trkpt>
      <trkpt lat="42.85878" lon="0.26049">
        <ele>1625.9</ele>
        <time>2022-02-09T08:24:00Z</time>
      </trkpt>
      <trkpt lat="42.85878" lon="0.26049">
        <ele>1625.9</ele>
        <time>2022-02-09T08:24:01Z</time>
      </trkpt>
      <trkpt lat="42.85878" lon="0.26049">
        <ele>1625.9</ele>
        <time>2022-02-09T08:24:02Z</time>
      </trkpt>
      <trkpt lat="42.85878" lon="0.26049">
        <ele>1625.9</ele>
        <time>2022-02-09T08:24:03Z</time>
      </trkpt>
      <trkpt lat="42.85878" lon="0.26049">
        <ele>1625.9</ele>
        <time>2022-02-09T08:24:04Z</time>
      </trkpt>
      <trkpt lat="42.85878" lon="0.26049">
        <ele>1625.9</ele>
        <time>2022-02-09T08:24:05Z</time>
      </trkpt>
      <trkpt lat="42.85878" lon="0.26049">
        <ele>1625.9</ele>
        <time>2022-02-09T08:24:06Z</time>
      </trkpt>
      <trkpt lat="42.85878" lon="0.26049">
        <ele>1625.9</ele>
        <time>2022-02-09T08:24:07Z</time>
      </trkpt>
      <trkpt lat="42.85878" lon="0.26049">
        <ele>1625.9</ele>
        <time>2022-02-09T08:24:08Z</time>
      </trkpt>
      <trkpt lat="42.85878" lon="0.26049">
        <ele>1625.9</ele>
        <time>2022-02-09T08:24:09Z</time>
      </trkpt>
      <trkpt lat="42.85878" lon="0.26049">
        <ele>1625.9</ele>
        <time>2022-02-09T08:24:10Z</time>
      </trkpt>
      <trkpt lat="42.85878" lon="0.26049">
        <ele>1625.9</ele>
        <time>2022-02-09T08:24:11Z</time>
      </trkpt>
      <trkpt lat="42.85878" lon="0.26049">
        <ele>1625.9</ele>
        <time>2022-02-09T08:24:12Z</time>
      </trkpt>
      <trkpt lat="42.85878" lon="0.26049">
        <ele>1625.9</ele>
        <time>2022-02-09T08:24:13Z</time>
      </trkpt>
      <trkpt lat="42.85878" lon="0.26049">
        <ele>1625.9</ele>
        <time>2022-02-09T08:24:14Z</time>
      </trkpt>
      <trkpt lat="42.85878" lon="0.26049">
        <ele>1625.9</ele>
        <time>2022-02-09T08:24:15Z</time>
      </trkpt>
      <trkpt lat="42.85878" lon="0.26049">
        <ele>1625.9</ele>
        <time>2022-02-09T08:24:16Z</time>
      </trkpt>
      <trkpt lat="42.85878" lon="0.26049">
        <ele>1625.9</ele>
        <time>2022-02-09T08:24:17Z</time>
      </trkpt>
      <trkpt lat="42.85878" lon="0.26049">
        <ele>1625.9</ele>
        <time>2022-02-09T08:24:18Z</time>
      </trkpt>
      <trkpt lat="42.85878" lon="0.26049">
        <ele>1625.9</ele>
        <time>2022-02-09T08:24:19Z</time>
      </trkpt>
      <trkpt lat="42.85878" lon="0.26049">
        <ele>1625.9</ele>
        <time>2022-02-09T08:24:20Z</time>
      </trkpt>
      <trkpt lat="42.85878" lon="0.26049">
        <ele>1625.9</ele>
        <time>2022-02-09T08:24:21Z</time>
      </trkpt>
      <trkpt lat="42.85878" lon="0.26049">
        <ele>1625.9</ele>
        <time>2022-02-09T08:24:22Z</time>
      </trkpt>
      <trkpt lat="42.85878" lon="0.26049">
        <ele>1625.9</ele>
        <time>2022-02-09T08:24:23Z</time>
      </trkpt>
      <trkpt lat="42.85878" lon="0.26049">
        <ele>1625.9</ele>
        <time>2022-02-09T08:24:24Z</time>
      </trkpt>
      <trkpt lat="42.85878" lon="0.26049">
        <ele>1625.9</ele>
        <time>2022-02-09T08:24:25Z</time>
      </trkpt>
      <trkpt lat="42.85878" lon="0.26049">
        <ele>1625.9</ele>
        <time>2022-02-09T08:24:26Z</time>
      </trkpt>
      <trkpt lat="42.85878" lon="0.26049">
        <ele>1625.9</ele>
        <time>2022-02-09T08:24:27Z</time>
      </trkpt>
      <trkpt lat="42.85878" lon="0.26049">
        <ele>1625.9</ele>
        <time>2022-02-09T08:24:28Z</time>
      </trkpt>
      <trkpt lat="42.85878" lon="0.26049">
        <ele>1625.9</ele>
        <time>2022-02-09T08:24:29Z</time>
      </trkpt>
      <trkpt lat="42.85878" lon="0.26049">
        <ele>1625.9</ele>
        <time>2022-02-09T08:24:30Z</time>
      </trkpt>
      <trkpt lat="42.85878" lon="0.26049">
        <ele>1625.9</ele>
        <time>2022-02-09T08:24:31Z</time>
      </trkpt>
      <trkpt lat="42.85878" lon="0.26049">
        <ele>1625.9</ele>
        <time>2022-02-09T08:24:32Z</time>
      </trkpt>
      <trkpt lat="42.85878" lon="0.26049">
        <ele>1625.9</ele>
        <time>2022-02-09T08:24:33Z</time>
      </trkpt>
      <trkpt lat="42.85878" lon="0.26049">
        <ele>1625.9</ele>
        <time>2022-02-09T08:24:34Z</time>
      </trkpt>
      <trkpt lat="42.85878" lon="0.26049">
        <ele>1625.9</ele>
        <time>2022-02-09T08:24:35Z</time>
      </trkpt>
      <trkpt lat="42.85878" lon="0.26049">
        <ele>1625.9</ele>
        <time>2022-02-09T08:24:36Z</time>
      </trkpt>
      <trkpt lat="42.85878" lon="0.26049">
        <ele>1625.9</ele>
        <time>2022-02-09T08:24:37Z</time>
      </trkpt>
      <trkpt lat="42.85878" lon="0.26049">
        <ele>1625.9</ele>
        <time>2022-02-09T08:24:38Z</time>
      </trkpt>
      <trkpt lat="42.85878" lon="0.26049">
        <ele>1625.9</ele>
        <time>2022-02-09T08:24:39Z</time>
      </trkpt>
      <trkpt lat="42.85878" lon="0.26049">
        <ele>1625.9</ele>
        <time>2022-02-09T08:24:40Z</time>
      </trkpt>
      <trkpt lat="42.85878" lon="0.26049">
        <ele>1625.9</ele>
        <time>2022-02-09T08:24:41Z</time>
      </trkpt>
      <trkpt lat="42.85878" lon="0.26049">
        <ele>1625.9</ele>
        <time>2022-02-09T08:24:42Z</time>
      </trkpt>
      <trkpt lat="42.85878" lon="0.26049">
        <ele>1625.9</ele>
        <time>2022-02-09T08:24:43Z</time>
      </trkpt>
      <trkpt lat="42.85878" lon="0.26049">
        <ele>1625.9</ele>
        <time>2022-02-09T08:24:44Z</time>
      </trkpt>
      <trkpt lat="42.85878" lon="0.26049">
        <ele>1625.9</ele>
        <time>2022-02-09T08:24:45Z</time>
      </trkpt>
      <trkpt lat="42.85878" lon="0.26049">
        <ele>1625.9</ele>
        <time>2022-02-09T08:24:46Z</time>
      </trkpt>
      <trkpt lat="42.85878" lon="0.26049">
        <ele>1625.9</ele>
        <time>2022-02-09T08:24:47Z</time>
      </trkpt>
      <trkpt lat="42.85878" lon="0.26049">
        <ele>1625.9</ele>
        <time>2022-02-09T08:24:48Z</time>
      </trkpt>
      <trkpt lat="42.85878" lon="0.26049">
        <ele>1625.9</ele>
        <time>2022-02-09T08:24:49Z</time>
      </trkpt>
      <trkpt lat="42.85878" lon="0.26049">
        <ele>1625.9</ele>
        <time>2022-02-09T08:24:50Z</time>
      </trkpt>
      <trkpt lat="42.85878" lon="0.26049">
        <ele>1625.9</ele>
        <time>2022-02-09T08:24:51Z</time>
      </trkpt>
      <trkpt lat="42.85878" lon="0.26049">
        <ele>1625.9</ele>
        <time>2022-02-09T08:24:52Z</time>
      </trkpt>
      <trkpt lat="42.85878" lon="0.26049">
        <ele>1625.9</ele>
        <time>2022-02-09T08:24:53Z</time>
      </trkpt>
      <trkpt lat="42.85878" lon="0.26049">
        <ele>1625.9</ele>
        <time>2022-02-09T08:24:54Z</time>
      </trkpt>
      <trkpt lat="42.85878" lon="0.26049">
        <ele>1625.9</ele>
        <time>2022-02-09T08:24:55Z</time>
      </trkpt>
      <trkpt lat="42.85878" lon="0.26049">
        <ele>1625.9</ele>
        <time>2022-02-09T08:24:56Z</time>
      </trkpt>
      <trkpt lat="42.85878" lon="0.26049">
        <ele>1625.9</ele>
        <time>2022-02-09T08:24:57Z</time>
      </trkpt>
      <trkpt lat="42.85878" lon="0.26049">
        <ele>1625.9</ele>
        <time>2022-02-09T08:24:58Z</time>
      </trkpt>
      <trkpt lat="42.85878" lon="0.26049">
        <ele>1625.9</ele>
        <time>2022-02-09T08:24:59Z</time>
      </trkpt>
      <trkpt lat="42.85878" lon="0.26049">
        <ele>1625.9</ele>
        <time>2022-02-09T08:25:00Z</time>
      </trkpt>
      <trkpt lat="42.85878" lon="0.26049">
        <ele>1625.9</ele>
        <time>2022-02-09T08:25:01Z</time>
      </trkpt>
      <trkpt lat="42.85878" lon="0.26049">
        <ele>1625.9</ele>
        <time>2022-02-09T08:25:02Z</time>
      </trkpt>
      <trkpt lat="42.85878" lon="0.26049">
        <ele>1625.9</ele>
        <time>2022-02-09T08:25:03Z</time>
      </trkpt>
      <trkpt lat="42.85878" lon="0.26049">
        <ele>1625.9</ele>
        <time>2022-02-09T08:25:04Z</time>
      </trkpt>
      <trkpt lat="42.85878" lon="0.26049">
        <ele>1625.9</ele>
        <time>2022-02-09T08:25:05Z</time>
      </trkpt>
      <trkpt lat="42.85878" lon="0.26049">
        <ele>1625.9</ele>
        <time>2022-02-09T08:25:06Z</time>
      </trkpt>
      <trkpt lat="42.85878" lon="0.26049">
        <ele>1625.9</ele>
        <time>2022-02-09T08:25:07Z</time>
      </trkpt>
      <trkpt lat="42.85878" lon="0.26049">
        <ele>1625.9</ele>
        <time>2022-02-09T08:25:08Z</time>
      </trkpt>
      <trkpt lat="42.85878" lon="0.26049">
        <ele>1625.9</ele>
        <time>2022-02-09T08:25:09Z</time>
      </trkpt>
      <trkpt lat="42.85878" lon="0.26049">
        <ele>1625.9</ele>
        <time>2022-02-09T08:25:10Z</time>
      </trkpt>
      <trkpt lat="42.85878" lon="0.26049">
        <ele>1625.9</ele>
        <time>2022-02-09T08:25:11Z</time>
      </trkpt>
      <trkpt lat="42.85878" lon="0.26049">
        <ele>1625.9</ele>
        <time>2022-02-09T08:25:12Z</time>
      </trkpt>
      <trkpt lat="42.85878" lon="0.26049">
        <ele>1625.9</ele>
        <time>2022-02-09T08:25:13Z</time>
      </trkpt>
      <trkpt lat="42.85878" lon="0.26049">
        <ele>1625.9</ele>
        <time>2022-02-09T08:25:14Z</time>
      </trkpt>
      <trkpt lat="42.85878" lon="0.26049">
        <ele>1625.9</ele>
        <time>2022-02-09T08:25:15Z</time>
      </trkpt>
      <trkpt lat="42.85878" lon="0.26049">
        <ele>1625.9</ele>
        <time>2022-02-09T08:25:16Z</time>
      </trkpt>
      <trkpt lat="42.85878" lon="0.26049">
        <ele>1625.9</ele>
        <time>2022-02-09T08:25:17Z</time>
      </trkpt>
      <trkpt lat="42.85878" lon="0.26049">
        <ele>1625.9</ele>
        <time>2022-02-09T08:25:18Z</time>
      </trkpt>
      <trkpt lat="42.85878" lon="0.26049">
        <ele>1625.9</ele>
        <time>2022-02-09T08:25:19Z</time>
      </trkpt>
      <trkpt lat="42.85878" lon="0.26049">
        <ele>1625.9</ele>
        <time>2022-02-09T08:25:20Z</time>
      </trkpt>
      <trkpt lat="42.85878" lon="0.26049">
        <ele>1625.9</ele>
        <time>2022-02-09T08:25:21Z</time>
      </trkpt>
      <trkpt lat="42.85878" lon="0.26049">
        <ele>1625.9</ele>
        <time>2022-02-09T08:25:22Z</time>
      </trkpt>
      <trkpt lat="42.85878" lon="0.26049">
        <ele>1625.9</ele>
        <time>2022-02-09T08:25:23Z</time>
      </trkpt>
      <trkpt lat="42.85878" lon="0.26049">
        <ele>1625.9</ele>
        <time>2022-02-09T08:25:24Z</time>
      </trkpt>
      <trkpt lat="42.85878" lon="0.26049">
        <ele>1625.9</ele>
        <time>2022-02-09T08:25:25Z</time>
      </trkpt>
      <trkpt lat="42.85878" lon="0.26049">
        <ele>1625.9</ele>
        <time>2022-02-09T08:25:26Z</time>
      </trkpt>
      <trkpt lat="42.85878" lon="0.26049">
        <ele>1625.9</ele>
        <time>2022-02-09T08:25:27Z</time>
      </trkpt>
      <trkpt lat="42.85878" lon="0.26049">
        <ele>1625.9</ele>
        <time>2022-02-09T08:25:28Z</time>
      </trkpt>
      <trkpt lat="42.85878" lon="0.26049">
        <ele>1625.9</ele>
        <time>2022-02-09T08:25:29Z</time>
      </trkpt>
      <trkpt lat="42.85878" lon="0.26049">
        <ele>1625.9</ele>
        <time>2022-02-09T08:25:30Z</time>
      </trkpt>
      <trkpt lat="42.85878" lon="0.26049">
        <ele>1625.9</ele>
        <time>2022-02-09T08:25:31Z</time>
      </trkpt>
      <trkpt lat="42.85878" lon="0.26049">
        <ele>1625.9</ele>
        <time>2022-02-09T08:25:32Z</time>
      </trkpt>
      <trkpt lat="42.85878" lon="0.26049">
        <ele>1625.9</ele>
        <time>2022-02-09T08:25:33Z</time>
      </trkpt>
      <trkpt lat="42.85878" lon="0.26049">
        <ele>1625.9</ele>
        <time>2022-02-09T08:25:34Z</time>
      </trkpt>
      <trkpt lat="42.85878" lon="0.26049">
        <ele>1625.9</ele>
        <time>2022-02-09T08:25:35Z</time>
      </trkpt>
      <trkpt lat="42.85878" lon="0.26049">
        <ele>1625.9</ele>
        <time>2022-02-09T08:25:36Z</time>
      </trkpt>
      <trkpt lat="42.85878" lon="0.26049">
        <ele>1625.9</ele>
        <time>2022-02-09T08:25:37Z</time>
      </trkpt>
      <trkpt lat="42.85878" lon="0.26049">
        <ele>1625.9</ele>
        <time>2022-02-09T08:25:38Z</time>
      </trkpt>
      <trkpt lat="42.85878" lon="0.26049">
        <ele>1625.9</ele>
        <time>2022-02-09T08:25:39Z</time>
      </trkpt>
      <trkpt lat="42.85878" lon="0.26049">
        <ele>1625.9</ele>
        <time>2022-02-09T08:25:40Z</time>
      </trkpt>
      <trkpt lat="42.85878" lon="0.26049">
        <ele>1625.9</ele>
        <time>2022-02-09T08:25:41Z</time>
      </trkpt>
      <trkpt lat="42.85878" lon="0.26049">
        <ele>1625.9</ele>
        <time>2022-02-09T08:25:42Z</time>
      </trkpt>
      <trkpt lat="42.85878" lon="0.26049">
        <ele>1625.9</ele>
        <time>2022-02-09T08:25:43Z</time>
      </trkpt>
      <trkpt lat="42.85878" lon="0.26049">
        <ele>1625.9</ele>
        <time>2022-02-09T08:25:44Z</time>
      </trkpt>
      <trkpt lat="42.85878" lon="0.26049">
        <ele>1625.9</ele>
        <time>2022-02-09T08:25:45Z</time>
      </trkpt>
      <trkpt lat="42.85878" lon="0.26049">
        <ele>1625.9</ele>
        <time>2022-02-09T08:25:46Z</time>
      </trkpt>
      <trkpt lat="42.85878" lon="0.26049">
        <ele>1625.9</ele>
        <time>2022-02-09T08:25:47Z</time>
      </trkpt>
      <trkpt lat="42.85878" lon="0.26049">
        <ele>1625.9</ele>
        <time>2022-02-09T08:25:48Z</time>
      </trkpt>
      <trkpt lat="42.85878" lon="0.26049">
        <ele>1625.9</ele>
        <time>2022-02-09T08:25:49Z</time>
      </trkpt>
      <trkpt lat="42.85878" lon="0.26049">
        <ele>1625.9</ele>
        <time>2022-02-09T08:25:50Z</time>
      </trkpt>
      <trkpt lat="42.85878" lon="0.26049">
        <ele>1625.9</ele>
        <time>2022-02-09T08:25:51Z</time>
      </trkpt>
      <trkpt lat="42.85878" lon="0.26049">
        <ele>1625.9</ele>
        <time>2022-02-09T08:25:52Z</time>
      </trkpt>
      <trkpt lat="42.85878" lon="0.26049">
        <ele>1625.9</ele>
        <time>2022-02-09T08:25:53Z</time>
      </trkpt>
      <trkpt lat="42.85878" lon="0.26049">
        <ele>1625.9</ele>
        <time>2022-02-09T08:25:54Z</time>
      </trkpt>
      <trkpt lat="42.85878" lon="0.26049">
        <ele>1625.9</ele>
        <time>2022-02-09T08:25:55Z</time>
      </trkpt>
      <trkpt lat="42.85878" lon="0.26049">
        <ele>1625.9</ele>
        <time>2022-02-09T08:25:56Z</time>
      </trkpt>
      <trkpt lat="42.85878" lon="0.26049">
        <ele>1625.9</ele>
        <time>2022-02-09T08:25:57Z</time>
      </trkpt>
      <trkpt lat="42.85878" lon="0.26049">
        <ele>1625.9</ele>
        <time>2022-02-09T08:25:58Z</time>
      </trkpt>
      <trkpt lat="42.85878" lon="0.26049">
        <ele>1625.9</ele>
        <time>2022-02-09T08:25:59Z</time>
      </trkpt>
      <trkpt lat="42.85878" lon="0.26049">
        <ele>1625.9</ele>
        <time>2022-02-09T08:26:00Z</time>
      </trkpt>
      <trkpt lat="42.85878" lon="0.26049">
        <ele>1625.9</ele>
        <time>2022-02-09T08:26:01Z</time>
      </trkpt>
      <trkpt lat="42.85878" lon="0.26049">
        <ele>1625.9</ele>
        <time>2022-02-09T08:26:02Z</time>
      </trkpt>
      <trkpt lat="42.85878" lon="0.26049">
        <ele>1625.9</ele>
        <time>2022-02-09T08:26:03Z</time>
      </trkpt>
      <trkpt lat="42.85878" lon="0.26049">
        <ele>1625.9</ele>
        <time>2022-02-09T08:26:04Z</time>
      </trkpt>
      <trkpt lat="42.85878" lon="0.26049">
        <ele>1625.9</ele>
        <time>2022-02-09T08:26:05Z</time>
      </trkpt>
      <trkpt lat="42.85878" lon="0.26049">
        <ele>1625.9</ele>
        <time>2022-02-09T08:26:06Z</time>
      </trkpt>
      <trkpt lat="42.85878" lon="0.26049">
        <ele>1625.9</ele>
        <time>2022-02-09T08:26:07Z</time>
      </trkpt>
      <trkpt lat="42.85878" lon="0.26049">
        <ele>1625.9</ele>
        <time>2022-02-09T08:26:08Z</time>
      </trkpt>
      <trkpt lat="42.85878" lon="0.26049">
        <ele>1625.9</ele>
        <time>2022-02-09T08:26:09Z</time>
      </trkpt>
      <trkpt lat="42.85878" lon="0.26049">
        <ele>1625.9</ele>
        <time>2022-02-09T08:26:10Z</time>
      </trkpt>
      <trkpt lat="42.85878" lon="0.26049">
        <ele>1625.9</ele>
        <time>2022-02-09T08:26:11Z</time>
      </trkpt>
      <trkpt lat="42.85878" lon="0.26049">
        <ele>1625.9</ele>
        <time>2022-02-09T08:26:12Z</time>
      </trkpt>
      <trkpt lat="42.85878" lon="0.26049">
        <ele>1625.9</ele>
        <time>2022-02-09T08:26:13Z</time>
      </trkpt>
      <trkpt lat="42.85878" lon="0.26049">
        <ele>1625.9</ele>
        <time>2022-02-09T08:26:14Z</time>
      </trkpt>
      <trkpt lat="42.85878" lon="0.26049">
        <ele>1625.9</ele>
        <time>2022-02-09T08:26:15Z</time>
      </trkpt>
      <trkpt lat="42.85878" lon="0.26049">
        <ele>1625.9</ele>
        <time>2022-02-09T08:26:16Z</time>
      </trkpt>
      <trkpt lat="42.85878" lon="0.26049">
        <ele>1625.9</ele>
        <time>2022-02-09T08:26:17Z</time>
      </trkpt>
      <trkpt lat="42.85878" lon="0.26049">
        <ele>1625.9</ele>
        <time>2022-02-09T08:26:18Z</time>
      </trkpt>
      <trkpt lat="42.85878" lon="0.26049">
        <ele>1625.9</ele>
        <time>2022-02-09T08:26:19Z</time>
      </trkpt>
      <trkpt lat="42.85878" lon="0.26049">
        <ele>1625.9</ele>
        <time>2022-02-09T08:26:20Z</time>
      </trkpt>
      <trkpt lat="42.85878" lon="0.26049">
        <ele>1625.9</ele>
        <time>2022-02-09T08:26:21Z</time>
      </trkpt>
      <trkpt lat="42.85878" lon="0.26049">
        <ele>1625.9</ele>
        <time>2022-02-09T08:26:22Z</time>
      </trkpt>
      <trkpt lat="42.85878" lon="0.26049">
        <ele>1625.9</ele>
        <time>2022-02-09T08:26:23Z</time>
      </trkpt>
      <trkpt lat="42.85878" lon="0.26049">
        <ele>1625.9</ele>
        <time>2022-02-09T08:26:24Z</time>
      </trkpt>
      <trkpt lat="42.85878" lon="0.26049">
        <ele>1625.9</ele>
        <time>2022-02-09T08:26:25Z</time>
      </trkpt>
      <trkpt lat="42.85878" lon="0.26049">
        <ele>1625.9</ele>
        <time>2022-02-09T08:26:26Z</time>
      </trkpt>
      <trkpt lat="42.85878" lon="0.26049">
        <ele>1625.9</ele>
        <time>2022-02-09T08:26:27Z</time>
      </trkpt>
      <trkpt lat="42.85878" lon="0.26049">
        <ele>1625.9</ele>
        <time>2022-02-09T08:26:28Z</time>
      </trkpt>
      <trkpt lat="42.85878" lon="0.26049">
        <ele>1625.9</ele>
        <time>2022-02-09T08:26:29Z</time>
      </trkpt>
      <trkpt lat="42.85878" lon="0.26049">
        <ele>1625.9</ele>
        <time>2022-02-09T08:26:30Z</time>
      </trkpt>
      <trkpt lat="42.85878" lon="0.26049">
        <ele>1625.9</ele>
        <time>2022-02-09T08:26:31Z</time>
      </trkpt>
      <trkpt lat="42.85878" lon="0.26049">
        <ele>1625.9</ele>
        <time>2022-02-09T08:26:32Z</time>
      </trkpt>
      <trkpt lat="42.85878" lon="0.26049">
        <ele>1625.9</ele>
        <time>2022-02-09T08:26:33Z</time>
      </trkpt>
      <trkpt lat="42.85878" lon="0.26049">
        <ele>1625.9</ele>
        <time>2022-02-09T08:26:34Z</time>
      </trkpt>
      <trkpt lat="42.85878" lon="0.26049">
        <ele>1625.9</ele>
        <time>2022-02-09T08:26:35Z</time>
      </trkpt>
      <trkpt lat="42.85878" lon="0.26049">
        <ele>1625.9</ele>
        <time>2022-02-09T08:26:36Z</time>
      </trkpt>
      <trkpt lat="42.85878" lon="0.26049">
        <ele>1625.9</ele>
        <time>2022-02-09T08:26:37Z</time>
      </trkpt>
      <trkpt lat="42.85878" lon="0.26049">
        <ele>1625.9</ele>
        <time>2022-02-09T08:26:38Z</time>
      </trkpt>
      <trkpt lat="42.85878" lon="0.26049">
        <ele>1625.9</ele>
        <time>2022-02-09T08:26:39Z</time>
      </trkpt>
      <trkpt lat="42.85878" lon="0.26049">
        <ele>1625.9</ele>
        <time>2022-02-09T08:26:40Z</time>
      </trkpt>
      <trkpt lat="42.85878" lon="0.26049">
        <ele>1625.9</ele>
        <time>2022-02-09T08:26:41Z</time>
      </trkpt>
      <trkpt lat="42.85878" lon="0.26049">
        <ele>1625.9</ele>
        <time>2022-02-09T08:26:42Z</time>
      </trkpt>
      <trkpt lat="42.85878" lon="0.26049">
        <ele>1625.9</ele>
        <time>2022-02-09T08:26:43Z</time>
      </trkpt>
      <trkpt lat="42.85878" lon="0.26049">
        <ele>1625.9</ele>
        <time>2022-02-09T08:26:44Z</time>
      </trkpt>
      <trkpt lat="42.85878" lon="0.26049">
        <ele>1625.9</ele>
        <time>2022-02-09T08:26:45Z</time>
      </trkpt>
      <trkpt lat="42.85878" lon="0.26049">
        <ele>1625.9</ele>
        <time>2022-02-09T08:26:46Z</time>
      </trkpt>
      <trkpt lat="42.85878" lon="0.26049">
        <ele>1625.9</ele>
        <time>2022-02-09T08:26:47Z</time>
      </trkpt>
      <trkpt lat="42.85878" lon="0.26049">
        <ele>1625.9</ele>
        <time>2022-02-09T08:26:48Z</time>
      </trkpt>
      <trkpt lat="42.85878" lon="0.26049">
        <ele>1625.9</ele>
        <time>2022-02-09T08:26:49Z</time>
      </trkpt>
      <trkpt lat="42.85878" lon="0.26049">
        <ele>1625.9</ele>
        <time>2022-02-09T08:26:50Z</time>
      </trkpt>
      <trkpt lat="42.85878" lon="0.26049">
        <ele>1625.9</ele>
        <time>2022-02-09T08:26:51Z</time>
      </trkpt>
      <trkpt lat="42.85878" lon="0.26049">
        <ele>1625.9</ele>
        <time>2022-02-09T08:26:52Z</time>
      </trkpt>
      <trkpt lat="42.85878" lon="0.26049">
        <ele>1625.9</ele>
        <time>2022-02-09T08:26:53Z</time>
      </trkpt>
      <trkpt lat="42.85878" lon="0.26049">
        <ele>1625.9</ele>
        <time>2022-02-09T08:26:54Z</time>
      </trkpt>
      <trkpt lat="42.85878" lon="0.26049">
        <ele>1625.9</ele>
        <time>2022-02-09T08:26:55Z</time>
      </trkpt>
      <trkpt lat="42.85878" lon="0.26049">
        <ele>1625.9</ele>
        <time>2022-02-09T08:26:56Z</time>
      </trkpt>
      <trkpt lat="42.85878" lon="0.26049">
        <ele>1625.9</ele>
        <time>2022-02-09T08:26:57Z</time>
      </trkpt>
      <trkpt lat="42.85878" lon="0.26049">
        <ele>1625.9</ele>
        <time>2022-02-09T08:26:58Z</time>
      </trkpt>
      <trkpt lat="42.85878" lon="0.26049">
        <ele>1625.9</ele>
        <time>2022-02-09T08:26:59Z</time>
      </trkpt>
      <trkpt lat="42.85878" lon="0.26049">
        <ele>1625.9</ele>
        <time>2022-02-09T08:27:00Z</time>
      </trkpt>
      <trkpt lat="42.85878" lon="0.26049">
        <ele>1625.9</ele>
        <time>2022-02-09T08:27:01Z</time>
      </trkpt>
      <trkpt lat="42.85878" lon="0.26049">
        <ele>1625.9</ele>
        <time>2022-02-09T08:27:02Z</time>
      </trkpt>
      <trkpt lat="42.85878" lon="0.26049">
        <ele>1625.9</ele>
        <time>2022-02-09T08:27:03Z</time>
      </trkpt>
      <trkpt lat="42.85878" lon="0.26049">
        <ele>1625.9</ele>
        <time>2022-02-09T08:27:04Z</time>
      </trkpt>
      <trkpt lat="42.85878" lon="0.26049">
        <ele>1625.9</ele>
        <time>2022-02-09T08:27:05Z</time>
      </trkpt>
      <trkpt lat="42.85878" lon="0.26049">
        <ele>1625.9</ele>
        <time>2022-02-09T08:27:06Z</time>
      </trkpt>
      <trkpt lat="42.85878" lon="0.26049">
        <ele>1625.9</ele>
        <time>2022-02-09T08:27:07Z</time>
      </trkpt>
      <trkpt lat="42.85878" lon="0.26049">
        <ele>1625.9</ele>
        <time>2022-02-09T08:27:08Z</time>
      </trkpt>
      <trkpt lat="42.85878" lon="0.26049">
        <ele>1625.9</ele>
        <time>2022-02-09T08:27:09Z</time>
      </trkpt>
      <trkpt lat="42.85878" lon="0.26049">
        <ele>1625.9</ele>
        <time>2022-02-09T08:27:10Z</time>
      </trkpt>
      <trkpt lat="42.85878" lon="0.26049">
        <ele>1625.9</ele>
        <time>2022-02-09T08:27:11Z</time>
      </trkpt>
      <trkpt lat="42.85878" lon="0.26049">
        <ele>1625.9</ele>
        <time>2022-02-09T08:27:12Z</time>
      </trkpt>
      <trkpt lat="42.85878" lon="0.26049">
        <ele>1625.9</ele>
        <time>2022-02-09T08:27:13Z</time>
      </trkpt>
      <trkpt lat="42.85878" lon="0.26049">
        <ele>1625.9</ele>
        <time>2022-02-09T08:27:14Z</time>
      </trkpt>
      <trkpt lat="42.85878" lon="0.26049">
        <ele>1625.9</ele>
        <time>2022-02-09T08:27:15Z</time>
      </trkpt>
      <trkpt lat="42.85878" lon="0.26049">
        <ele>1625.9</ele>
        <time>2022-02-09T08:27:16Z</time>
      </trkpt>
      <trkpt lat="42.85878" lon="0.26049">
        <ele>1625.9</ele>
        <time>2022-02-09T08:27:17Z</time>
      </trkpt>
      <trkpt lat="42.85878" lon="0.26049">
        <ele>1625.9</ele>
        <time>2022-02-09T08:27:18Z</time>
      </trkpt>
      <trkpt lat="42.85878" lon="0.26049">
        <ele>1625.9</ele>
        <time>2022-02-09T08:27:19Z</time>
      </trkpt>
      <trkpt lat="42.85878" lon="0.26049">
        <ele>1625.9</ele>
        <time>2022-02-09T08:27:20Z</time>
      </trkpt>
      <trkpt lat="42.85878" lon="0.26049">
        <ele>1625.9</ele>
        <time>2022-02-09T08:27:21Z</time>
      </trkpt>
      <trkpt lat="42.85878" lon="0.26049">
        <ele>1625.9</ele>
        <time>2022-02-09T08:27:22Z</time>
      </trkpt>
      <trkpt lat="42.85878" lon="0.26049">
        <ele>1625.9</ele>
        <time>2022-02-09T08:27:23Z</time>
      </trkpt>
      <trkpt lat="42.85878" lon="0.26049">
        <ele>1625.9</ele>
        <time>2022-02-09T08:27:24Z</time>
      </trkpt>
      <trkpt lat="42.85878" lon="0.26049">
        <ele>1625.9</ele>
        <time>2022-02-09T08:27:25Z</time>
      </trkpt>
      <trkpt lat="42.85878" lon="0.26049">
        <ele>1625.9</ele>
        <time>2022-02-09T08:27:26Z</time>
      </trkpt>
      <trkpt lat="42.85878" lon="0.26049">
        <ele>1625.9</ele>
        <time>2022-02-09T08:27:27Z</time>
      </trkpt>
      <trkpt lat="42.85878" lon="0.26049">
        <ele>1625.9</ele>
        <time>2022-02-09T08:27:28Z</time>
      </trkpt>
      <trkpt lat="42.85878" lon="0.26049">
        <ele>1625.9</ele>
        <time>2022-02-09T08:27:29Z</time>
      </trkpt>
      <trkpt lat="42.85878" lon="0.26049">
        <ele>1625.9</ele>
        <time>2022-02-09T08:27:30Z</time>
      </trkpt>
      <trkpt lat="42.85878" lon="0.26049">
        <ele>1625.9</ele>
        <time>2022-02-09T08:27:31Z</time>
      </trkpt>
      <trkpt lat="42.85878" lon="0.26049">
        <ele>1625.9</ele>
        <time>2022-02-09T08:27:32Z</time>
      </trkpt>
      <trkpt lat="42.85878" lon="0.26049">
        <ele>1625.9</ele>
        <time>2022-02-09T08:27:33Z</time>
      </trkpt>
      <trkpt lat="42.85878" lon="0.26049">
        <ele>1625.9</ele>
        <time>2022-02-09T08:27:34Z</time>
      </trkpt>
      <trkpt lat="42.85878" lon="0.26049">
        <ele>1625.9</ele>
        <time>2022-02-09T08:27:35Z</time>
      </trkpt>
      <trkpt lat="42.85878" lon="0.26049">
        <ele>1625.9</ele>
        <time>2022-02-09T08:27:36Z</time>
      </trkpt>
      <trkpt lat="42.85878" lon="0.26049">
        <ele>1625.9</ele>
        <time>2022-02-09T08:27:37Z</time>
      </trkpt>
      <trkpt lat="42.85878" lon="0.26049">
        <ele>1625.9</ele>
        <time>2022-02-09T08:27:38Z</time>
      </trkpt>
      <trkpt lat="42.85878" lon="0.26049">
        <ele>1625.9</ele>
        <time>2022-02-09T08:27:39Z</time>
      </trkpt>
      <trkpt lat="42.85878" lon="0.26049">
        <ele>1625.9</ele>
        <time>2022-02-09T08:27:40Z</time>
      </trkpt>
      <trkpt lat="42.85878" lon="0.26049">
        <ele>1625.9</ele>
        <time>2022-02-09T08:27:41Z</time>
      </trkpt>
      <trkpt lat="42.85878" lon="0.26049">
        <ele>1625.9</ele>
        <time>2022-02-09T08:27:42Z</time>
      </trkpt>
      <trkpt lat="42.85878" lon="0.26049">
        <ele>1625.9</ele>
        <time>2022-02-09T08:27:43Z</time>
      </trkpt>
      <trkpt lat="42.85878" lon="0.26049">
        <ele>1625.9</ele>
        <time>2022-02-09T08:27:44Z</time>
      </trkpt>
      <trkpt lat="42.85878" lon="0.26049">
        <ele>1625.9</ele>
        <time>2022-02-09T08:27:45Z</time>
      </trkpt>
      <trkpt lat="42.85878" lon="0.26049">
        <ele>1625.9</ele>
        <time>2022-02-09T08:27:46Z</time>
      </trkpt>
      <trkpt lat="42.85878" lon="0.26049">
        <ele>1625.9</ele>
        <time>2022-02-09T08:27:47Z</time>
      </trkpt>
      <trkpt lat="42.85878" lon="0.26049">
        <ele>1625.9</ele>
        <time>2022-02-09T08:27:48Z</time>
      </trkpt>
      <trkpt lat="42.85878" lon="0.26049">
        <ele>1625.9</ele>
        <time>2022-02-09T08:27:49Z</time>
      </trkpt>
      <trkpt lat="42.85878" lon="0.26049">
        <ele>1625.9</ele>
        <time>2022-02-09T08:27:50Z</time>
      </trkpt>
      <trkpt lat="42.85878" lon="0.26049">
        <ele>1625.9</ele>
        <time>2022-02-09T08:27:51Z</time>
      </trkpt>
      <trkpt lat="42.85878" lon="0.26049">
        <ele>1625.9</ele>
        <time>2022-02-09T08:27:52Z</time>
      </trkpt>
      <trkpt lat="42.85878" lon="0.26049">
        <ele>1625.9</ele>
        <time>2022-02-09T08:27:53Z</time>
      </trkpt>
      <trkpt lat="42.85878" lon="0.26049">
        <ele>1625.9</ele>
        <time>2022-02-09T08:27:54Z</time>
      </trkpt>
      <trkpt lat="42.85878" lon="0.26049">
        <ele>1625.9</ele>
        <time>2022-02-09T08:27:55Z</time>
      </trkpt>
      <trkpt lat="42.85878" lon="0.26049">
        <ele>1625.9</ele>
        <time>2022-02-09T08:27:56Z</time>
      </trkpt>
      <trkpt lat="42.85878" lon="0.26049">
        <ele>1625.9</ele>
        <time>2022-02-09T08:27:57Z</time>
      </trkpt>
      <trkpt lat="42.85878" lon="0.26049">
        <ele>1625.9</ele>
        <time>2022-02-09T08:27:58Z</time>
      </trkpt>
      <trkpt lat="42.85878" lon="0.26049">
        <ele>1625.9</ele>
        <time>2022-02-09T08:27:59Z</time>
      </trkpt>
      <trkpt lat="42.85878" lon="0.26049">
        <ele>1625.9</ele>
        <time>2022-02-09T08:28:00Z</time>
      </trkpt>
      <trkpt lat="42.85878" lon="0.26049">
        <ele>1625.9</ele>
        <time>2022-02-09T08:28:01Z</time>
      </trkpt>
      <trkpt lat="42.85878" lon="0.26049">
        <ele>1625.9</ele>
        <time>2022-02-09T08:28:02Z</time>
      </trkpt>
      <trkpt lat="42.85878" lon="0.26049">
        <ele>1625.9</ele>
        <time>2022-02-09T08:28:03Z</time>
      </trkpt>
      <trkpt lat="42.85878" lon="0.26049">
        <ele>1625.9</ele>
        <time>2022-02-09T08:28:04Z</time>
      </trkpt>
      <trkpt lat="42.85878" lon="0.26049">
        <ele>1625.9</ele>
        <time>2022-02-09T08:28:05Z</time>
      </trkpt>
      <trkpt lat="42.85878" lon="0.26049">
        <ele>1625.9</ele>
        <time>2022-02-09T08:28:06Z</time>
      </trkpt>
      <trkpt lat="42.85878" lon="0.26049">
        <ele>1625.9</ele>
        <time>2022-02-09T08:28:07Z</time>
      </trkpt>
      <trkpt lat="42.85878" lon="0.26049">
        <ele>1625.9</ele>
        <time>2022-02-09T08:28:08Z</time>
      </trkpt>
      <trkpt lat="42.85878" lon="0.26047">
        <ele>1626.1</ele>
        <time>2022-02-09T08:28:09Z</time>
      </trkpt>
      <trkpt lat="42.85877" lon="0.26044">
        <ele>1626.5</ele>
        <time>2022-02-09T08:28:10Z</time>
      </trkpt>
      <trkpt lat="42.85877" lon="0.26044">
        <ele>1626.6</ele>
        <time>2022-02-09T08:28:11Z</time>
      </trkpt>
      <trkpt lat="42.85877" lon="0.26044">
        <ele>1626.6</ele>
        <time>2022-02-09T08:28:12Z</time>
      </trkpt>
      <trkpt lat="42.85877" lon="0.26044">
        <ele>1626.6</ele>
        <time>2022-02-09T08:28:13Z</time>
      </trkpt>
      <trkpt lat="42.85877" lon="0.26044">
        <ele>1626.7</ele>
        <time>2022-02-09T08:28:14Z</time>
      </trkpt>
      <trkpt lat="42.85877" lon="0.26042">
        <ele>1626.8</ele>
        <time>2022-02-09T08:28:15Z</time>
      </trkpt>
      <trkpt lat="42.85877" lon="0.26042">
        <ele>1626.9</ele>
        <time>2022-02-09T08:28:16Z</time>
      </trkpt>
      <trkpt lat="42.85877" lon="0.26041">
        <ele>1627</ele>
        <time>2022-02-09T08:28:17Z</time>
      </trkpt>
      <trkpt lat="42.85877" lon="0.26041">
        <ele>1627</ele>
        <time>2022-02-09T08:28:18Z</time>
      </trkpt>
      <trkpt lat="42.85878" lon="0.2604">
        <ele>1627.2</ele>
        <time>2022-02-09T08:28:19Z</time>
      </trkpt>
      <trkpt lat="42.85878" lon="0.2604">
        <ele>1627.3</ele>
        <time>2022-02-09T08:28:20Z</time>
      </trkpt>
      <trkpt lat="42.85879" lon="0.26039">
        <ele>1627.5</ele>
        <time>2022-02-09T08:28:21Z</time>
      </trkpt>
      <trkpt lat="42.8588" lon="0.26038">
        <ele>1627.7</ele>
        <time>2022-02-09T08:28:22Z</time>
      </trkpt>
      <trkpt lat="42.85881" lon="0.26038">
        <ele>1627.8</ele>
        <time>2022-02-09T08:28:23Z</time>
      </trkpt>
      <trkpt lat="42.85881" lon="0.26037">
        <ele>1628</ele>
        <time>2022-02-09T08:28:24Z</time>
      </trkpt>
      <trkpt lat="42.85882" lon="0.26036">
        <ele>1628.2</ele>
        <time>2022-02-09T08:28:25Z</time>
      </trkpt>
      <trkpt lat="42.85883" lon="0.26035">
        <ele>1628.4</ele>
        <time>2022-02-09T08:28:26Z</time>
      </trkpt>
      <trkpt lat="42.85884" lon="0.26034">
        <ele>1628.6</ele>
        <time>2022-02-09T08:28:27Z</time>
      </trkpt>
      <trkpt lat="42.85884" lon="0.26033">
        <ele>1628.8</ele>
        <time>2022-02-09T08:28:28Z</time>
      </trkpt>
      <trkpt lat="42.85885" lon="0.26032">
        <ele>1629</ele>
        <time>2022-02-09T08:28:29Z</time>
      </trkpt>
      <trkpt lat="42.85885" lon="0.26031">
        <ele>1629.1</ele>
        <time>2022-02-09T08:28:30Z</time>
      </trkpt>
      <trkpt lat="42.85886" lon="0.2603">
        <ele>1629.3</ele>
        <time>2022-02-09T08:28:31Z</time>
      </trkpt>
      <trkpt lat="42.85886" lon="0.2603">
        <ele>1629.4</ele>
        <time>2022-02-09T08:28:32Z</time>
      </trkpt>
      <trkpt lat="42.85887" lon="0.26029">
        <ele>1629.5</ele>
        <time>2022-02-09T08:28:33Z</time>
      </trkpt>
      <trkpt lat="42.85887" lon="0.26028">
        <ele>1629.7</ele>
        <time>2022-02-09T08:28:34Z</time>
      </trkpt>
      <trkpt lat="42.85887" lon="0.26028">
        <ele>1629.7</ele>
        <time>2022-02-09T08:28:35Z</time>
      </trkpt>
      <trkpt lat="42.85888" lon="0.26027">
        <ele>1629.8</ele>
        <time>2022-02-09T08:28:36Z</time>
      </trkpt>
      <trkpt lat="42.85888" lon="0.26026">
        <ele>1630</ele>
        <time>2022-02-09T08:28:37Z</time>
      </trkpt>
      <trkpt lat="42.85888" lon="0.26025">
        <ele>1630.2</ele>
        <time>2022-02-09T08:28:38Z</time>
      </trkpt>
      <trkpt lat="42.85889" lon="0.26024">
        <ele>1630.4</ele>
        <time>2022-02-09T08:28:39Z</time>
      </trkpt>
      <trkpt lat="42.85889" lon="0.26022">
        <ele>1630.6</ele>
        <time>2022-02-09T08:28:40Z</time>
      </trkpt>
      <trkpt lat="42.85889" lon="0.26021">
        <ele>1630.8</ele>
        <time>2022-02-09T08:28:41Z</time>
      </trkpt>
      <trkpt lat="42.85889" lon="0.2602">
        <ele>1630.9</ele>
        <time>2022-02-09T08:28:42Z</time>
      </trkpt>
      <trkpt lat="42.85888" lon="0.26019">
        <ele>1631.1</ele>
        <time>2022-02-09T08:28:43Z</time>
      </trkpt>
      <trkpt lat="42.85888" lon="0.26018">
        <ele>1631.2</ele>
        <time>2022-02-09T08:28:44Z</time>
      </trkpt>
      <trkpt lat="42.85888" lon="0.26017">
        <ele>1631.3</ele>
        <time>2022-02-09T08:28:45Z</time>
      </trkpt>
      <trkpt lat="42.85887" lon="0.26016">
        <ele>1631.5</ele>
        <time>2022-02-09T08:28:46Z</time>
      </trkpt>
      <trkpt lat="42.85887" lon="0.26015">
        <ele>1631.7</ele>
        <time>2022-02-09T08:28:47Z</time>
      </trkpt>
      <trkpt lat="42.85887" lon="0.26013">
        <ele>1631.8</ele>
        <time>2022-02-09T08:28:48Z</time>
      </trkpt>
      <trkpt lat="42.85887" lon="0.26012">
        <ele>1632</ele>
        <time>2022-02-09T08:28:49Z</time>
      </trkpt>
      <trkpt lat="42.85886" lon="0.2601">
        <ele>1632.2</ele>
        <time>2022-02-09T08:28:50Z</time>
      </trkpt>
      <trkpt lat="42.85886" lon="0.26009">
        <ele>1632.4</ele>
        <time>2022-02-09T08:28:51Z</time>
      </trkpt>
      <trkpt lat="42.85885" lon="0.26008">
        <ele>1632.6</ele>
        <time>2022-02-09T08:28:52Z</time>
      </trkpt>
      <trkpt lat="42.85885" lon="0.26006">
        <ele>1632.8</ele>
        <time>2022-02-09T08:28:53Z</time>
      </trkpt>
      <trkpt lat="42.85884" lon="0.26005">
        <ele>1633</ele>
        <time>2022-02-09T08:28:54Z</time>
      </trkpt>
      <trkpt lat="42.85884" lon="0.26004">
        <ele>1633.2</ele>
        <time>2022-02-09T08:28:55Z</time>
      </trkpt>
      <trkpt lat="42.85884" lon="0.26003">
        <ele>1633.3</ele>
        <time>2022-02-09T08:28:56Z</time>
      </trkpt>
      <trkpt lat="42.85884" lon="0.26001">
        <ele>1633.5</ele>
        <time>2022-02-09T08:28:57Z</time>
      </trkpt>
      <trkpt lat="42.85884" lon="0.26">
        <ele>1633.6</ele>
        <time>2022-02-09T08:28:58Z</time>
      </trkpt>
      <trkpt lat="42.85884" lon="0.25999">
        <ele>1633.8</ele>
        <time>2022-02-09T08:28:59Z</time>
      </trkpt>
      <trkpt lat="42.85885" lon="0.25998">
        <ele>1634</ele>
        <time>2022-02-09T08:29:00Z</time>
      </trkpt>
      <trkpt lat="42.85885" lon="0.25997">
        <ele>1634.2</ele>
        <time>2022-02-09T08:29:01Z</time>
      </trkpt>
      <trkpt lat="42.85885" lon="0.25995">
        <ele>1634.3</ele>
        <time>2022-02-09T08:29:02Z</time>
      </trkpt>
      <trkpt lat="42.85885" lon="0.25994">
        <ele>1634.5</ele>
        <time>2022-02-09T08:29:03Z</time>
      </trkpt>
      <trkpt lat="42.85885" lon="0.25993">
        <ele>1634.7</ele>
        <time>2022-02-09T08:29:04Z</time>
      </trkpt>
      <trkpt lat="42.85885" lon="0.25992">
        <ele>1634.9</ele>
        <time>2022-02-09T08:29:05Z</time>
      </trkpt>
      <trkpt lat="42.85885" lon="0.25991">
        <ele>1635</ele>
        <time>2022-02-09T08:29:06Z</time>
      </trkpt>
      <trkpt lat="42.85885" lon="0.2599">
        <ele>1635.2</ele>
        <time>2022-02-09T08:29:07Z</time>
      </trkpt>
      <trkpt lat="42.85885" lon="0.25989">
        <ele>1635.4</ele>
        <time>2022-02-09T08:29:08Z</time>
      </trkpt>
      <trkpt lat="42.85886" lon="0.25987">
        <ele>1635.6</ele>
        <time>2022-02-09T08:29:09Z</time>
      </trkpt>
      <trkpt lat="42.85886" lon="0.25986">
        <ele>1635.8</ele>
        <time>2022-02-09T08:29:10Z</time>
      </trkpt>
      <trkpt lat="42.85886" lon="0.25984">
        <ele>1636</ele>
        <time>2022-02-09T08:29:11Z</time>
      </trkpt>
      <trkpt lat="42.85886" lon="0.25983">
        <ele>1636.2</ele>
        <time>2022-02-09T08:29:12Z</time>
      </trkpt>
      <trkpt lat="42.85886" lon="0.25982">
        <ele>1636.4</ele>
        <time>2022-02-09T08:29:13Z</time>
      </trkpt>
      <trkpt lat="42.85886" lon="0.2598">
        <ele>1636.6</ele>
        <time>2022-02-09T08:29:14Z</time>
      </trkpt>
      <trkpt lat="42.85886" lon="0.25979">
        <ele>1636.8</ele>
        <time>2022-02-09T08:29:15Z</time>
      </trkpt>
      <trkpt lat="42.85886" lon="0.25978">
        <ele>1637</ele>
        <time>2022-02-09T08:29:16Z</time>
      </trkpt>
      <trkpt lat="42.85887" lon="0.25977">
        <ele>1637.2</ele>
        <time>2022-02-09T08:29:17Z</time>
      </trkpt>
      <trkpt lat="42.85887" lon="0.25976">
        <ele>1637.3</ele>
        <time>2022-02-09T08:29:18Z</time>
      </trkpt>
      <trkpt lat="42.85887" lon="0.25975">
        <ele>1637.5</ele>
        <time>2022-02-09T08:29:19Z</time>
      </trkpt>
      <trkpt lat="42.85887" lon="0.25973">
        <ele>1637.8</ele>
        <time>2022-02-09T08:29:20Z</time>
      </trkpt>
      <trkpt lat="42.85887" lon="0.25972">
        <ele>1638.2</ele>
        <time>2022-02-09T08:29:21Z</time>
      </trkpt>
      <trkpt lat="42.85887" lon="0.2597">
        <ele>1638.2</ele>
        <time>2022-02-09T08:29:22Z</time>
      </trkpt>
      <trkpt lat="42.85887" lon="0.25969">
        <ele>1638.2</ele>
        <time>2022-02-09T08:29:23Z</time>
      </trkpt>
      <trkpt lat="42.85887" lon="0.25968">
        <ele>1638.8</ele>
        <time>2022-02-09T08:29:24Z</time>
      </trkpt>
      <trkpt lat="42.85887" lon="0.25967">
        <ele>1638.8</ele>
        <time>2022-02-09T08:29:25Z</time>
      </trkpt>
      <trkpt lat="42.85887" lon="0.25966">
        <ele>1638.8</ele>
        <time>2022-02-09T08:29:26Z</time>
      </trkpt>
      <trkpt lat="42.85887" lon="0.25965">
        <ele>1638.8</ele>
        <time>2022-02-09T08:29:27Z</time>
      </trkpt>
      <trkpt lat="42.85887" lon="0.25964">
        <ele>1639.3</ele>
        <time>2022-02-09T08:29:28Z</time>
      </trkpt>
      <trkpt lat="42.85887" lon="0.25963">
        <ele>1639.3</ele>
        <time>2022-02-09T08:29:29Z</time>
      </trkpt>
      <trkpt lat="42.85887" lon="0.25961">
        <ele>1639.3</ele>
        <time>2022-02-09T08:29:30Z</time>
      </trkpt>
      <trkpt lat="42.85887" lon="0.2596">
        <ele>1639.3</ele>
        <time>2022-02-09T08:29:31Z</time>
      </trkpt>
      <trkpt lat="42.85887" lon="0.25959">
        <ele>1639.8</ele>
        <time>2022-02-09T08:29:32Z</time>
      </trkpt>
      <trkpt lat="42.85887" lon="0.25958">
        <ele>1639.8</ele>
        <time>2022-02-09T08:29:33Z</time>
      </trkpt>
      <trkpt lat="42.85887" lon="0.25956">
        <ele>1639.8</ele>
        <time>2022-02-09T08:29:34Z</time>
      </trkpt>
      <trkpt lat="42.85887" lon="0.25955">
        <ele>1640.4</ele>
        <time>2022-02-09T08:29:35Z</time>
      </trkpt>
      <trkpt lat="42.85887" lon="0.25954">
        <ele>1640.4</ele>
        <time>2022-02-09T08:29:36Z</time>
      </trkpt>
      <trkpt lat="42.85887" lon="0.25953">
        <ele>1640.4</ele>
        <time>2022-02-09T08:29:37Z</time>
      </trkpt>
      <trkpt lat="42.85887" lon="0.25952">
        <ele>1640.4</ele>
        <time>2022-02-09T08:29:38Z</time>
      </trkpt>
      <trkpt lat="42.85887" lon="0.25951">
        <ele>1640.9</ele>
        <time>2022-02-09T08:29:39Z</time>
      </trkpt>
      <trkpt lat="42.85887" lon="0.25949">
        <ele>1640.9</ele>
        <time>2022-02-09T08:29:40Z</time>
      </trkpt>
      <trkpt lat="42.85887" lon="0.25948">
        <ele>1640.9</ele>
        <time>2022-02-09T08:29:41Z</time>
      </trkpt>
      <trkpt lat="42.85887" lon="0.25947">
        <ele>1640.9</ele>
        <time>2022-02-09T08:29:42Z</time>
      </trkpt>
      <trkpt lat="42.85887" lon="0.25945">
        <ele>1641.6</ele>
        <time>2022-02-09T08:29:43Z</time>
      </trkpt>
      <trkpt lat="42.85887" lon="0.25944">
        <ele>1641.6</ele>
        <time>2022-02-09T08:29:44Z</time>
      </trkpt>
      <trkpt lat="42.85886" lon="0.25943">
        <ele>1641.6</ele>
        <time>2022-02-09T08:29:45Z</time>
      </trkpt>
      <trkpt lat="42.85886" lon="0.25942">
        <ele>1642.2</ele>
        <time>2022-02-09T08:29:46Z</time>
      </trkpt>
      <trkpt lat="42.85886" lon="0.2594">
        <ele>1642.2</ele>
        <time>2022-02-09T08:29:47Z</time>
      </trkpt>
      <trkpt lat="42.85886" lon="0.25939">
        <ele>1642.2</ele>
        <time>2022-02-09T08:29:48Z</time>
      </trkpt>
      <trkpt lat="42.85885" lon="0.25937">
        <ele>1643</ele>
        <time>2022-02-09T08:29:49Z</time>
      </trkpt>
      <trkpt lat="42.85885" lon="0.25936">
        <ele>1643</ele>
        <time>2022-02-09T08:29:50Z</time>
      </trkpt>
      <trkpt lat="42.85885" lon="0.25934">
        <ele>1643</ele>
        <time>2022-02-09T08:29:51Z</time>
      </trkpt>
      <trkpt lat="42.85885" lon="0.25933">
        <ele>1643.8</ele>
        <time>2022-02-09T08:29:52Z</time>
      </trkpt>
      <trkpt lat="42.85885" lon="0.25932">
        <ele>1643.8</ele>
        <time>2022-02-09T08:29:53Z</time>
      </trkpt>
      <trkpt lat="42.85885" lon="0.25931">
        <ele>1643.8</ele>
        <time>2022-02-09T08:29:54Z</time>
      </trkpt>
      <trkpt lat="42.85885" lon="0.25931">
        <ele>1643.8</ele>
        <time>2022-02-09T08:29:55Z</time>
      </trkpt>
      <trkpt lat="42.85885" lon="0.2593">
        <ele>1643.8</ele>
        <time>2022-02-09T08:29:56Z</time>
      </trkpt>
      <trkpt lat="42.85885" lon="0.2593">
        <ele>1643.8</ele>
        <time>2022-02-09T08:29:57Z</time>
      </trkpt>
      <trkpt lat="42.85885" lon="0.25929">
        <ele>1644.6</ele>
        <time>2022-02-09T08:29:58Z</time>
      </trkpt>
      <trkpt lat="42.85885" lon="0.25929">
        <ele>1644.6</ele>
        <time>2022-02-09T08:29:59Z</time>
      </trkpt>
      <trkpt lat="42.85885" lon="0.25929">
        <ele>1644.6</ele>
        <time>2022-02-09T08:30:00Z</time>
      </trkpt>
      <trkpt lat="42.85885" lon="0.25929">
        <ele>1644.6</ele>
        <time>2022-02-09T08:30:01Z</time>
      </trkpt>
      <trkpt lat="42.85885" lon="0.25929">
        <ele>1644.6</ele>
        <time>2022-02-09T08:30:02Z</time>
      </trkpt>
      <trkpt lat="42.85885" lon="0.25929">
        <ele>1644.6</ele>
        <time>2022-02-09T08:30:03Z</time>
      </trkpt>
      <trkpt lat="42.85885" lon="0.25929">
        <ele>1644.6</ele>
        <time>2022-02-09T08:30:04Z</time>
      </trkpt>
      <trkpt lat="42.85885" lon="0.25929">
        <ele>1644.6</ele>
        <time>2022-02-09T08:30:05Z</time>
      </trkpt>
      <trkpt lat="42.85885" lon="0.25928">
        <ele>1644.6</ele>
        <time>2022-02-09T08:30:06Z</time>
      </trkpt>
      <trkpt lat="42.85885" lon="0.25927">
        <ele>1644.6</ele>
        <time>2022-02-09T08:30:07Z</time>
      </trkpt>
      <trkpt lat="42.85885" lon="0.25926">
        <ele>1644.6</ele>
        <time>2022-02-09T08:30:08Z</time>
      </trkpt>
      <trkpt lat="42.85885" lon="0.25924">
        <ele>1645.5</ele>
        <time>2022-02-09T08:30:09Z</time>
      </trkpt>
      <trkpt lat="42.85885" lon="0.25923">
        <ele>1645.5</ele>
        <time>2022-02-09T08:30:10Z</time>
      </trkpt>
      <trkpt lat="42.85885" lon="0.25921">
        <ele>1645.5</ele>
        <time>2022-02-09T08:30:11Z</time>
      </trkpt>
      <trkpt lat="42.85885" lon="0.2592">
        <ele>1646.4</ele>
        <time>2022-02-09T08:30:12Z</time>
      </trkpt>
      <trkpt lat="42.85885" lon="0.25919">
        <ele>1646.4</ele>
        <time>2022-02-09T08:30:13Z</time>
      </trkpt>
      <trkpt lat="42.85885" lon="0.25917">
        <ele>1646.4</ele>
        <time>2022-02-09T08:30:14Z</time>
      </trkpt>
      <trkpt lat="42.85884" lon="0.25915">
        <ele>1647.3</ele>
        <time>2022-02-09T08:30:15Z</time>
      </trkpt>
      <trkpt lat="42.85884" lon="0.25913">
        <ele>1647.3</ele>
        <time>2022-02-09T08:30:16Z</time>
      </trkpt>
      <trkpt lat="42.85884" lon="0.25912">
        <ele>1648.2</ele>
        <time>2022-02-09T08:30:17Z</time>
      </trkpt>
      <trkpt lat="42.85884" lon="0.2591">
        <ele>1648.2</ele>
        <time>2022-02-09T08:30:18Z</time>
      </trkpt>
      <trkpt lat="42.85883" lon="0.25909">
        <ele>1648.2</ele>
        <time>2022-02-09T08:30:19Z</time>
      </trkpt>
      <trkpt lat="42.85883" lon="0.25907">
        <ele>1649.1</ele>
        <time>2022-02-09T08:30:20Z</time>
      </trkpt>
      <trkpt lat="42.85883" lon="0.25906">
        <ele>1649.1</ele>
        <time>2022-02-09T08:30:21Z</time>
      </trkpt>
      <trkpt lat="42.85883" lon="0.25904">
        <ele>1650</ele>
        <time>2022-02-09T08:30:22Z</time>
      </trkpt>
      <trkpt lat="42.85883" lon="0.25902">
        <ele>1650</ele>
        <time>2022-02-09T08:30:23Z</time>
      </trkpt>
      <trkpt lat="42.85883" lon="0.259">
        <ele>1650</ele>
        <time>2022-02-09T08:30:24Z</time>
      </trkpt>
      <trkpt lat="42.85883" lon="0.25898">
        <ele>1650.9</ele>
        <time>2022-02-09T08:30:25Z</time>
      </trkpt>
      <trkpt lat="42.85883" lon="0.25896">
        <ele>1650.9</ele>
        <time>2022-02-09T08:30:26Z</time>
      </trkpt>
      <trkpt lat="42.85883" lon="0.25895">
        <ele>1651.9</ele>
        <time>2022-02-09T08:30:27Z</time>
      </trkpt>
      <trkpt lat="42.85883" lon="0.25893">
        <ele>1651.9</ele>
        <time>2022-02-09T08:30:28Z</time>
      </trkpt>
      <trkpt lat="42.85883" lon="0.25891">
        <ele>1651.9</ele>
        <time>2022-02-09T08:30:29Z</time>
      </trkpt>
      <trkpt lat="42.85883" lon="0.2589">
        <ele>1652.9</ele>
        <time>2022-02-09T08:30:30Z</time>
      </trkpt>
      <trkpt lat="42.85883" lon="0.25888">
        <ele>1652.9</ele>
        <time>2022-02-09T08:30:31Z</time>
      </trkpt>
      <trkpt lat="42.85883" lon="0.25887">
        <ele>1652.9</ele>
        <time>2022-02-09T08:30:32Z</time>
      </trkpt>
      <trkpt lat="42.85883" lon="0.25886">
        <ele>1653.9</ele>
        <time>2022-02-09T08:30:33Z</time>
      </trkpt>
      <trkpt lat="42.85883" lon="0.25884">
        <ele>1653.9</ele>
        <time>2022-02-09T08:30:34Z</time>
      </trkpt>
      <trkpt lat="42.85883" lon="0.25883">
        <ele>1653.9</ele>
        <time>2022-02-09T08:30:35Z</time>
      </trkpt>
      <trkpt lat="42.85884" lon="0.25882">
        <ele>1655</ele>
        <time>2022-02-09T08:30:36Z</time>
      </trkpt>
      <trkpt lat="42.85884" lon="0.25881">
        <ele>1655</ele>
        <time>2022-02-09T08:30:37Z</time>
      </trkpt>
      <trkpt lat="42.85884" lon="0.2588">
        <ele>1655</ele>
        <time>2022-02-09T08:30:38Z</time>
      </trkpt>
      <trkpt lat="42.85885" lon="0.25879">
        <ele>1655</ele>
        <time>2022-02-09T08:30:39Z</time>
      </trkpt>
      <trkpt lat="42.85885" lon="0.25878">
        <ele>1656.1</ele>
        <time>2022-02-09T08:30:40Z</time>
      </trkpt>
      <trkpt lat="42.85885" lon="0.25877">
        <ele>1655.8</ele>
        <time>2022-02-09T08:30:41Z</time>
      </trkpt>
      <trkpt lat="42.85886" lon="0.25875">
        <ele>1655.8</ele>
        <time>2022-02-09T08:30:42Z</time>
      </trkpt>
      <trkpt lat="42.85886" lon="0.25874">
        <ele>1655.8</ele>
        <time>2022-02-09T08:30:43Z</time>
      </trkpt>
      <trkpt lat="42.85887" lon="0.25873">
        <ele>1656.8</ele>
        <time>2022-02-09T08:30:44Z</time>
      </trkpt>
      <trkpt lat="42.85887" lon="0.25872">
        <ele>1656.8</ele>
        <time>2022-02-09T08:30:45Z</time>
      </trkpt>
      <trkpt lat="42.85888" lon="0.25872">
        <ele>1656.8</ele>
        <time>2022-02-09T08:30:46Z</time>
      </trkpt>
      <trkpt lat="42.85888" lon="0.25871">
        <ele>1656.8</ele>
        <time>2022-02-09T08:30:47Z</time>
      </trkpt>
      <trkpt lat="42.85889" lon="0.2587">
        <ele>1656.6</ele>
        <time>2022-02-09T08:30:48Z</time>
      </trkpt>
      <trkpt lat="42.85889" lon="0.25869">
        <ele>1657.7</ele>
        <time>2022-02-09T08:30:49Z</time>
      </trkpt>
      <trkpt lat="42.8589" lon="0.25869">
        <ele>1657.7</ele>
        <time>2022-02-09T08:30:50Z</time>
      </trkpt>
      <trkpt lat="42.8589" lon="0.25868">
        <ele>1657.7</ele>
        <time>2022-02-09T08:30:51Z</time>
      </trkpt>
      <trkpt lat="42.85891" lon="0.25867">
        <ele>1657.7</ele>
        <time>2022-02-09T08:30:52Z</time>
      </trkpt>
      <trkpt lat="42.85891" lon="0.25866">
        <ele>1657.7</ele>
        <time>2022-02-09T08:30:53Z</time>
      </trkpt>
      <trkpt lat="42.85891" lon="0.25865">
        <ele>1658.7</ele>
        <time>2022-02-09T08:30:54Z</time>
      </trkpt>
      <trkpt lat="42.85892" lon="0.25864">
        <ele>1658.7</ele>
        <time>2022-02-09T08:30:55Z</time>
      </trkpt>
      <trkpt lat="42.85892" lon="0.25863">
        <ele>1658.6</ele>
        <time>2022-02-09T08:30:56Z</time>
      </trkpt>
      <trkpt lat="42.85892" lon="0.25861">
        <ele>1658.6</ele>
        <time>2022-02-09T08:30:57Z</time>
      </trkpt>
      <trkpt lat="42.85892" lon="0.2586">
        <ele>1659.7</ele>
        <time>2022-02-09T08:30:58Z</time>
      </trkpt>
      <trkpt lat="42.85891" lon="0.25859">
        <ele>1659.7</ele>
        <time>2022-02-09T08:30:59Z</time>
      </trkpt>
      <trkpt lat="42.85891" lon="0.25858">
        <ele>1659.7</ele>
        <time>2022-02-09T08:31:00Z</time>
      </trkpt>
      <trkpt lat="42.8589" lon="0.25857">
        <ele>1659.7</ele>
        <time>2022-02-09T08:31:01Z</time>
      </trkpt>
      <trkpt lat="42.8589" lon="0.25856">
        <ele>1660.7</ele>
        <time>2022-02-09T08:31:02Z</time>
      </trkpt>
      <trkpt lat="42.8589" lon="0.25855">
        <ele>1660.7</ele>
        <time>2022-02-09T08:31:03Z</time>
      </trkpt>
      <trkpt lat="42.8589" lon="0.25855">
        <ele>1660.7</ele>
        <time>2022-02-09T08:31:04Z</time>
      </trkpt>
      <trkpt lat="42.85889" lon="0.25854">
        <ele>1660.7</ele>
        <time>2022-02-09T08:31:05Z</time>
      </trkpt>
      <trkpt lat="42.85889" lon="0.25853">
        <ele>1660.7</ele>
        <time>2022-02-09T08:31:06Z</time>
      </trkpt>
      <trkpt lat="42.85889" lon="0.25852">
        <ele>1661.7</ele>
        <time>2022-02-09T08:31:07Z</time>
      </trkpt>
      <trkpt lat="42.85888" lon="0.25851">
        <ele>1661.9</ele>
        <time>2022-02-09T08:31:08Z</time>
      </trkpt>
      <trkpt lat="42.85888" lon="0.2585">
        <ele>1661.9</ele>
        <time>2022-02-09T08:31:09Z</time>
      </trkpt>
      <trkpt lat="42.85887" lon="0.2585">
        <ele>1661.9</ele>
        <time>2022-02-09T08:31:10Z</time>
      </trkpt>
      <trkpt lat="42.85887" lon="0.25849">
        <ele>1661.9</ele>
        <time>2022-02-09T08:31:11Z</time>
      </trkpt>
      <trkpt lat="42.85887" lon="0.25848">
        <ele>1662.9</ele>
        <time>2022-02-09T08:31:12Z</time>
      </trkpt>
      <trkpt lat="42.85886" lon="0.25847">
        <ele>1662.9</ele>
        <time>2022-02-09T08:31:13Z</time>
      </trkpt>
      <trkpt lat="42.85886" lon="0.25846">
        <ele>1662.9</ele>
        <time>2022-02-09T08:31:14Z</time>
      </trkpt>
      <trkpt lat="42.85886" lon="0.25845">
        <ele>1662.9</ele>
        <time>2022-02-09T08:31:15Z</time>
      </trkpt>
      <trkpt lat="42.85886" lon="0.25844">
        <ele>1662.9</ele>
        <time>2022-02-09T08:31:16Z</time>
      </trkpt>
      <trkpt lat="42.85885" lon="0.25843">
        <ele>1664.3</ele>
        <time>2022-02-09T08:31:17Z</time>
      </trkpt>
      <trkpt lat="42.85885" lon="0.25843">
        <ele>1664.3</ele>
        <time>2022-02-09T08:31:18Z</time>
      </trkpt>
      <trkpt lat="42.85884" lon="0.25842">
        <ele>1664.3</ele>
        <time>2022-02-09T08:31:19Z</time>
      </trkpt>
      <trkpt lat="42.85884" lon="0.25841">
        <ele>1664.3</ele>
        <time>2022-02-09T08:31:20Z</time>
      </trkpt>
      <trkpt lat="42.85884" lon="0.2584">
        <ele>1664.3</ele>
        <time>2022-02-09T08:31:21Z</time>
      </trkpt>
      <trkpt lat="42.85884" lon="0.25839">
        <ele>1665.4</ele>
        <time>2022-02-09T08:31:22Z</time>
      </trkpt>
      <trkpt lat="42.85884" lon="0.25838">
        <ele>1665.4</ele>
        <time>2022-02-09T08:31:23Z</time>
      </trkpt>
      <trkpt lat="42.85885" lon="0.25838">
        <ele>1665.4</ele>
        <time>2022-02-09T08:31:24Z</time>
      </trkpt>
      <trkpt lat="42.85885" lon="0.25837">
        <ele>1665.4</ele>
        <time>2022-02-09T08:31:25Z</time>
      </trkpt>
      <trkpt lat="42.85885" lon="0.25836">
        <ele>1665.4</ele>
        <time>2022-02-09T08:31:26Z</time>
      </trkpt>
      <trkpt lat="42.85885" lon="0.25835">
        <ele>1666.6</ele>
        <time>2022-02-09T08:31:27Z</time>
      </trkpt>
      <trkpt lat="42.85885" lon="0.25834">
        <ele>1666.6</ele>
        <time>2022-02-09T08:31:28Z</time>
      </trkpt>
      <trkpt lat="42.85885" lon="0.25833">
        <ele>1666.6</ele>
        <time>2022-02-09T08:31:29Z</time>
      </trkpt>
      <trkpt lat="42.85885" lon="0.25831">
        <ele>1666.6</ele>
        <time>2022-02-09T08:31:30Z</time>
      </trkpt>
      <trkpt lat="42.85885" lon="0.2583">
        <ele>1667.7</ele>
        <time>2022-02-09T08:31:31Z</time>
      </trkpt>
      <trkpt lat="42.85885" lon="0.25829">
        <ele>1667.7</ele>
        <time>2022-02-09T08:31:32Z</time>
      </trkpt>
      <trkpt lat="42.85885" lon="0.25828">
        <ele>1667.7</ele>
        <time>2022-02-09T08:31:33Z</time>
      </trkpt>
      <trkpt lat="42.85885" lon="0.25827">
        <ele>1667.7</ele>
        <time>2022-02-09T08:31:34Z</time>
      </trkpt>
      <trkpt lat="42.85885" lon="0.25827">
        <ele>1667.7</ele>
        <time>2022-02-09T08:31:35Z</time>
      </trkpt>
      <trkpt lat="42.85885" lon="0.25827">
        <ele>1667.7</ele>
        <time>2022-02-09T08:31:36Z</time>
      </trkpt>
      <trkpt lat="42.85885" lon="0.25827">
        <ele>1667.7</ele>
        <time>2022-02-09T08:31:37Z</time>
      </trkpt>
      <trkpt lat="42.85885" lon="0.25827">
        <ele>1667.7</ele>
        <time>2022-02-09T08:31:38Z</time>
      </trkpt>
      <trkpt lat="42.85885" lon="0.25827">
        <ele>1667.7</ele>
        <time>2022-02-09T08:31:39Z</time>
      </trkpt>
      <trkpt lat="42.85885" lon="0.25827">
        <ele>1667.7</ele>
        <time>2022-02-09T08:31:40Z</time>
      </trkpt>
      <trkpt lat="42.85885" lon="0.25826">
        <ele>1668.8</ele>
        <time>2022-02-09T08:31:41Z</time>
      </trkpt>
      <trkpt lat="42.85885" lon="0.25825">
        <ele>1668.8</ele>
        <time>2022-02-09T08:31:42Z</time>
      </trkpt>
      <trkpt lat="42.85885" lon="0.25824">
        <ele>1668.8</ele>
        <time>2022-02-09T08:31:43Z</time>
      </trkpt>
      <trkpt lat="42.85885" lon="0.25824">
        <ele>1668.8</ele>
        <time>2022-02-09T08:31:44Z</time>
      </trkpt>
      <trkpt lat="42.85885" lon="0.25823">
        <ele>1668.5</ele>
        <time>2022-02-09T08:31:45Z</time>
      </trkpt>
      <trkpt lat="42.85886" lon="0.25822">
        <ele>1669.5</ele>
        <time>2022-02-09T08:31:46Z</time>
      </trkpt>
      <trkpt lat="42.85886" lon="0.25822">
        <ele>1669.5</ele>
        <time>2022-02-09T08:31:47Z</time>
      </trkpt>
      <trkpt lat="42.85886" lon="0.25821">
        <ele>1669.5</ele>
        <time>2022-02-09T08:31:48Z</time>
      </trkpt>
      <trkpt lat="42.85887" lon="0.2582">
        <ele>1669.5</ele>
        <time>2022-02-09T08:31:49Z</time>
      </trkpt>
      <trkpt lat="42.85887" lon="0.25819">
        <ele>1669.5</ele>
        <time>2022-02-09T08:31:50Z</time>
      </trkpt>
      <trkpt lat="42.85887" lon="0.25819">
        <ele>1669.5</ele>
        <time>2022-02-09T08:31:51Z</time>
      </trkpt>
      <trkpt lat="42.85887" lon="0.25818">
        <ele>1670.5</ele>
        <time>2022-02-09T08:31:52Z</time>
      </trkpt>
      <trkpt lat="42.85886" lon="0.25817">
        <ele>1670.5</ele>
        <time>2022-02-09T08:31:53Z</time>
      </trkpt>
      <trkpt lat="42.85886" lon="0.25816">
        <ele>1670.5</ele>
        <time>2022-02-09T08:31:54Z</time>
      </trkpt>
      <trkpt lat="42.85886" lon="0.25816">
        <ele>1670.5</ele>
        <time>2022-02-09T08:31:55Z</time>
      </trkpt>
      <trkpt lat="42.85886" lon="0.25815">
        <ele>1670.5</ele>
        <time>2022-02-09T08:31:56Z</time>
      </trkpt>
      <trkpt lat="42.85886" lon="0.25814">
        <ele>1670.5</ele>
        <time>2022-02-09T08:31:57Z</time>
      </trkpt>
      <trkpt lat="42.85885" lon="0.25814">
        <ele>1672</ele>
        <time>2022-02-09T08:31:58Z</time>
      </trkpt>
      <trkpt lat="42.85885" lon="0.25813">
        <ele>1672</ele>
        <time>2022-02-09T08:31:59Z</time>
      </trkpt>
      <trkpt lat="42.85884" lon="0.25812">
        <ele>1672</ele>
        <time>2022-02-09T08:32:00Z</time>
      </trkpt>
      <trkpt lat="42.85884" lon="0.25811">
        <ele>1672</ele>
        <time>2022-02-09T08:32:01Z</time>
      </trkpt>
      <trkpt lat="42.85884" lon="0.25811">
        <ele>1672</ele>
        <time>2022-02-09T08:32:02Z</time>
      </trkpt>
      <trkpt lat="42.85883" lon="0.2581">
        <ele>1672</ele>
        <time>2022-02-09T08:32:03Z</time>
      </trkpt>
      <trkpt lat="42.85883" lon="0.25809">
        <ele>1673.1</ele>
        <time>2022-02-09T08:32:04Z</time>
      </trkpt>
      <trkpt lat="42.85882" lon="0.25808">
        <ele>1673.1</ele>
        <time>2022-02-09T08:32:05Z</time>
      </trkpt>
      <trkpt lat="42.85882" lon="0.25808">
        <ele>1673.6</ele>
        <time>2022-02-09T08:32:06Z</time>
      </trkpt>
      <trkpt lat="42.85881" lon="0.25807">
        <ele>1673.6</ele>
        <time>2022-02-09T08:32:07Z</time>
      </trkpt>
      <trkpt lat="42.85881" lon="0.25806">
        <ele>1673.6</ele>
        <time>2022-02-09T08:32:08Z</time>
      </trkpt>
      <trkpt lat="42.85881" lon="0.25805">
        <ele>1673.6</ele>
        <time>2022-02-09T08:32:09Z</time>
      </trkpt>
      <trkpt lat="42.85881" lon="0.25804">
        <ele>1674.8</ele>
        <time>2022-02-09T08:32:10Z</time>
      </trkpt>
      <trkpt lat="42.8588" lon="0.25804">
        <ele>1674.8</ele>
        <time>2022-02-09T08:32:11Z</time>
      </trkpt>
      <trkpt lat="42.8588" lon="0.25803">
        <ele>1674.8</ele>
        <time>2022-02-09T08:32:12Z</time>
      </trkpt>
      <trkpt lat="42.8588" lon="0.25802">
        <ele>1674.8</ele>
        <time>2022-02-09T08:32:13Z</time>
      </trkpt>
      <trkpt lat="42.8588" lon="0.25801">
        <ele>1674.8</ele>
        <time>2022-02-09T08:32:14Z</time>
      </trkpt>
      <trkpt lat="42.85879" lon="0.258">
        <ele>1676</ele>
        <time>2022-02-09T08:32:15Z</time>
      </trkpt>
      <trkpt lat="42.85879" lon="0.258">
        <ele>1676</ele>
        <time>2022-02-09T08:32:16Z</time>
      </trkpt>
      <trkpt lat="42.85879" lon="0.25799">
        <ele>1676</ele>
        <time>2022-02-09T08:32:17Z</time>
      </trkpt>
      <trkpt lat="42.85879" lon="0.25798">
        <ele>1676</ele>
        <time>2022-02-09T08:32:18Z</time>
      </trkpt>
      <trkpt lat="42.8588" lon="0.25797">
        <ele>1676</ele>
        <time>2022-02-09T08:32:19Z</time>
      </trkpt>
      <trkpt lat="42.8588" lon="0.25797">
        <ele>1676</ele>
        <time>2022-02-09T08:32:20Z</time>
      </trkpt>
      <trkpt lat="42.8588" lon="0.25796">
        <ele>1677.3</ele>
        <time>2022-02-09T08:32:21Z</time>
      </trkpt>
      <trkpt lat="42.8588" lon="0.25796">
        <ele>1677.3</ele>
        <time>2022-02-09T08:32:22Z</time>
      </trkpt>
      <trkpt lat="42.85881" lon="0.25795">
        <ele>1677.3</ele>
        <time>2022-02-09T08:32:23Z</time>
      </trkpt>
      <trkpt lat="42.85881" lon="0.25795">
        <ele>1677.3</ele>
        <time>2022-02-09T08:32:24Z</time>
      </trkpt>
      <trkpt lat="42.85882" lon="0.25795">
        <ele>1677.3</ele>
        <time>2022-02-09T08:32:25Z</time>
      </trkpt>
      <trkpt lat="42.85883" lon="0.25795">
        <ele>1676.7</ele>
        <time>2022-02-09T08:32:26Z</time>
      </trkpt>
      <trkpt lat="42.85883" lon="0.25794">
        <ele>1676.7</ele>
        <time>2022-02-09T08:32:27Z</time>
      </trkpt>
      <trkpt lat="42.85884" lon="0.25794">
        <ele>1676.7</ele>
        <time>2022-02-09T08:32:28Z</time>
      </trkpt>
      <trkpt lat="42.85884" lon="0.25794">
        <ele>1676.7</ele>
        <time>2022-02-09T08:32:29Z</time>
      </trkpt>
      <trkpt lat="42.85884" lon="0.25793">
        <ele>1676.7</ele>
        <time>2022-02-09T08:32:30Z</time>
      </trkpt>
      <trkpt lat="42.85885" lon="0.25793">
        <ele>1676.7</ele>
        <time>2022-02-09T08:32:31Z</time>
      </trkpt>
      <trkpt lat="42.85885" lon="0.25793">
        <ele>1676.7</ele>
        <time>2022-02-09T08:32:32Z</time>
      </trkpt>
      <trkpt lat="42.85885" lon="0.25793">
        <ele>1676.7</ele>
        <time>2022-02-09T08:32:33Z</time>
      </trkpt>
      <trkpt lat="42.85886" lon="0.25793">
        <ele>1676.3</ele>
        <time>2022-02-09T08:32:34Z</time>
      </trkpt>
      <trkpt lat="42.85886" lon="0.25793">
        <ele>1676.3</ele>
        <time>2022-02-09T08:32:35Z</time>
      </trkpt>
      <trkpt lat="42.85886" lon="0.25793">
        <ele>1676.3</ele>
        <time>2022-02-09T08:32:36Z</time>
      </trkpt>
      <trkpt lat="42.85886" lon="0.25793">
        <ele>1676.3</ele>
        <time>2022-02-09T08:32:37Z</time>
      </trkpt>
      <trkpt lat="42.85887" lon="0.25793">
        <ele>1676.3</ele>
        <time>2022-02-09T08:32:38Z</time>
      </trkpt>
      <trkpt lat="42.85888" lon="0.25793">
        <ele>1676.3</ele>
        <time>2022-02-09T08:32:39Z</time>
      </trkpt>
      <trkpt lat="42.85888" lon="0.25793">
        <ele>1676.3</ele>
        <time>2022-02-09T08:32:40Z</time>
      </trkpt>
      <trkpt lat="42.85889" lon="0.25793">
        <ele>1675.9</ele>
        <time>2022-02-09T08:32:41Z</time>
      </trkpt>
      <trkpt lat="42.85889" lon="0.25793">
        <ele>1675.9</ele>
        <time>2022-02-09T08:32:42Z</time>
      </trkpt>
      <trkpt lat="42.8589" lon="0.25793">
        <ele>1675.9</ele>
        <time>2022-02-09T08:32:43Z</time>
      </trkpt>
      <trkpt lat="42.8589" lon="0.25792">
        <ele>1677.1</ele>
        <time>2022-02-09T08:32:44Z</time>
      </trkpt>
      <trkpt lat="42.85889" lon="0.25792">
        <ele>1677.1</ele>
        <time>2022-02-09T08:32:45Z</time>
      </trkpt>
      <trkpt lat="42.85889" lon="0.25791">
        <ele>1677.1</ele>
        <time>2022-02-09T08:32:46Z</time>
      </trkpt>
      <trkpt lat="42.85889" lon="0.2579">
        <ele>1677.1</ele>
        <time>2022-02-09T08:32:47Z</time>
      </trkpt>
      <trkpt lat="42.85889" lon="0.2579">
        <ele>1677.1</ele>
        <time>2022-02-09T08:32:48Z</time>
      </trkpt>
      <trkpt lat="42.85889" lon="0.2579">
        <ele>1677.1</ele>
        <time>2022-02-09T08:32:49Z</time>
      </trkpt>
      <trkpt lat="42.85889" lon="0.25789">
        <ele>1677.1</ele>
        <time>2022-02-09T08:32:50Z</time>
      </trkpt>
      <trkpt lat="42.85889" lon="0.25788">
        <ele>1678.3</ele>
        <time>2022-02-09T08:32:51Z</time>
      </trkpt>
      <trkpt lat="42.85889" lon="0.25787">
        <ele>1678.3</ele>
        <time>2022-02-09T08:32:52Z</time>
      </trkpt>
      <trkpt lat="42.85889" lon="0.25786">
        <ele>1678.3</ele>
        <time>2022-02-09T08:32:53Z</time>
      </trkpt>
      <trkpt lat="42.85889" lon="0.25785">
        <ele>1678.3</ele>
        <time>2022-02-09T08:32:54Z</time>
      </trkpt>
      <trkpt lat="42.85889" lon="0.25784">
        <ele>1678.3</ele>
        <time>2022-02-09T08:32:55Z</time>
      </trkpt>
      <trkpt lat="42.85889" lon="0.25784">
        <ele>1679.5</ele>
        <time>2022-02-09T08:32:56Z</time>
      </trkpt>
      <trkpt lat="42.85889" lon="0.25783">
        <ele>1679.5</ele>
        <time>2022-02-09T08:32:57Z</time>
      </trkpt>
      <trkpt lat="42.85889" lon="0.25782">
        <ele>1679.5</ele>
        <time>2022-02-09T08:32:58Z</time>
      </trkpt>
      <trkpt lat="42.85889" lon="0.25781">
        <ele>1679.5</ele>
        <time>2022-02-09T08:32:59Z</time>
      </trkpt>
      <trkpt lat="42.85889" lon="0.2578">
        <ele>1679.5</ele>
        <time>2022-02-09T08:33:00Z</time>
      </trkpt>
      <trkpt lat="42.85889" lon="0.25779">
        <ele>1680.7</ele>
        <time>2022-02-09T08:33:01Z</time>
      </trkpt>
      <trkpt lat="42.85889" lon="0.25778">
        <ele>1680.7</ele>
        <time>2022-02-09T08:33:02Z</time>
      </trkpt>
      <trkpt lat="42.85889" lon="0.25777">
        <ele>1680.7</ele>
        <time>2022-02-09T08:33:03Z</time>
      </trkpt>
      <trkpt lat="42.85889" lon="0.25776">
        <ele>1680.7</ele>
        <time>2022-02-09T08:33:04Z</time>
      </trkpt>
      <trkpt lat="42.85889" lon="0.25775">
        <ele>1680.7</ele>
        <time>2022-02-09T08:33:05Z</time>
      </trkpt>
      <trkpt lat="42.85889" lon="0.25774">
        <ele>1681.8</ele>
        <time>2022-02-09T08:33:06Z</time>
      </trkpt>
      <trkpt lat="42.85889" lon="0.25773">
        <ele>1681.8</ele>
        <time>2022-02-09T08:33:07Z</time>
      </trkpt>
      <trkpt lat="42.85889" lon="0.25773">
        <ele>1681.8</ele>
        <time>2022-02-09T08:33:08Z</time>
      </trkpt>
      <trkpt lat="42.85889" lon="0.25772">
        <ele>1681.8</ele>
        <time>2022-02-09T08:33:09Z</time>
      </trkpt>
      <trkpt lat="42.85889" lon="0.25771">
        <ele>1681.8</ele>
        <time>2022-02-09T08:33:10Z</time>
      </trkpt>
      <trkpt lat="42.85889" lon="0.2577">
        <ele>1682.9</ele>
        <time>2022-02-09T08:33:11Z</time>
      </trkpt>
      <trkpt lat="42.85889" lon="0.25769">
        <ele>1682.9</ele>
        <time>2022-02-09T08:33:12Z</time>
      </trkpt>
      <trkpt lat="42.85889" lon="0.25769">
        <ele>1682.9</ele>
        <time>2022-02-09T08:33:13Z</time>
      </trkpt>
      <trkpt lat="42.85888" lon="0.25768">
        <ele>1683.3</ele>
        <time>2022-02-09T08:33:14Z</time>
      </trkpt>
      <trkpt lat="42.85887" lon="0.25768">
        <ele>1683.3</ele>
        <time>2022-02-09T08:33:15Z</time>
      </trkpt>
      <trkpt lat="42.85887" lon="0.25767">
        <ele>1683.3</ele>
        <time>2022-02-09T08:33:16Z</time>
      </trkpt>
      <trkpt lat="42.85886" lon="0.25767">
        <ele>1683.3</ele>
        <time>2022-02-09T08:33:17Z</time>
      </trkpt>
      <trkpt lat="42.85886" lon="0.25767">
        <ele>1683.3</ele>
        <time>2022-02-09T08:33:18Z</time>
      </trkpt>
      <trkpt lat="42.85885" lon="0.25766">
        <ele>1684.9</ele>
        <time>2022-02-09T08:33:19Z</time>
      </trkpt>
      <trkpt lat="42.85885" lon="0.25766">
        <ele>1684.9</ele>
        <time>2022-02-09T08:33:20Z</time>
      </trkpt>
      <trkpt lat="42.85884" lon="0.25765">
        <ele>1684.9</ele>
        <time>2022-02-09T08:33:21Z</time>
      </trkpt>
      <trkpt lat="42.85883" lon="0.25765">
        <ele>1684.9</ele>
        <time>2022-02-09T08:33:22Z</time>
      </trkpt>
      <trkpt lat="42.85883" lon="0.25764">
        <ele>1684.9</ele>
        <time>2022-02-09T08:33:23Z</time>
      </trkpt>
      <trkpt lat="42.85882" lon="0.25763">
        <ele>1685.5</ele>
        <time>2022-02-09T08:33:24Z</time>
      </trkpt>
      <trkpt lat="42.85882" lon="0.25763">
        <ele>1685.5</ele>
        <time>2022-02-09T08:33:25Z</time>
      </trkpt>
      <trkpt lat="42.85881" lon="0.25762">
        <ele>1685.5</ele>
        <time>2022-02-09T08:33:26Z</time>
      </trkpt>
      <trkpt lat="42.8588" lon="0.25762">
        <ele>1686.6</ele>
        <time>2022-02-09T08:33:27Z</time>
      </trkpt>
      <trkpt lat="42.85879" lon="0.25762">
        <ele>1686.6</ele>
        <time>2022-02-09T08:33:28Z</time>
      </trkpt>
      <trkpt lat="42.85879" lon="0.25761">
        <ele>1687.2</ele>
        <time>2022-02-09T08:33:29Z</time>
      </trkpt>
      <trkpt lat="42.85878" lon="0.2576">
        <ele>1687.2</ele>
        <time>2022-02-09T08:33:30Z</time>
      </trkpt>
      <trkpt lat="42.85878" lon="0.25759">
        <ele>1687.2</ele>
        <time>2022-02-09T08:33:31Z</time>
      </trkpt>
      <trkpt lat="42.85878" lon="0.25758">
        <ele>1687.2</ele>
        <time>2022-02-09T08:33:32Z</time>
      </trkpt>
      <trkpt lat="42.85878" lon="0.25758">
        <ele>1688.2</ele>
        <time>2022-02-09T08:33:33Z</time>
      </trkpt>
      <trkpt lat="42.85878" lon="0.25757">
        <ele>1688.2</ele>
        <time>2022-02-09T08:33:34Z</time>
      </trkpt>
      <trkpt lat="42.85878" lon="0.25756">
        <ele>1688.2</ele>
        <time>2022-02-09T08:33:35Z</time>
      </trkpt>
      <trkpt lat="42.85879" lon="0.25755">
        <ele>1688.2</ele>
        <time>2022-02-09T08:33:36Z</time>
      </trkpt>
      <trkpt lat="42.85879" lon="0.25754">
        <ele>1688.2</ele>
        <time>2022-02-09T08:33:37Z</time>
      </trkpt>
      <trkpt lat="42.85879" lon="0.25754">
        <ele>1687.7</ele>
        <time>2022-02-09T08:33:38Z</time>
      </trkpt>
      <trkpt lat="42.8588" lon="0.25753">
        <ele>1688.8</ele>
        <time>2022-02-09T08:33:39Z</time>
      </trkpt>
      <trkpt lat="42.8588" lon="0.25753">
        <ele>1688.8</ele>
        <time>2022-02-09T08:33:40Z</time>
      </trkpt>
      <trkpt lat="42.85881" lon="0.25753">
        <ele>1688.8</ele>
        <time>2022-02-09T08:33:41Z</time>
      </trkpt>
      <trkpt lat="42.85882" lon="0.25752">
        <ele>1688.8</ele>
        <time>2022-02-09T08:33:42Z</time>
      </trkpt>
      <trkpt lat="42.85883" lon="0.25752">
        <ele>1688.2</ele>
        <time>2022-02-09T08:33:43Z</time>
      </trkpt>
      <trkpt lat="42.85883" lon="0.25752">
        <ele>1688.2</ele>
        <time>2022-02-09T08:33:44Z</time>
      </trkpt>
      <trkpt lat="42.85884" lon="0.25751">
        <ele>1688.2</ele>
        <time>2022-02-09T08:33:45Z</time>
      </trkpt>
      <trkpt lat="42.85884" lon="0.25751">
        <ele>1688.2</ele>
        <time>2022-02-09T08:33:46Z</time>
      </trkpt>
      <trkpt lat="42.85885" lon="0.25751">
        <ele>1688.2</ele>
        <time>2022-02-09T08:33:47Z</time>
      </trkpt>
      <trkpt lat="42.85885" lon="0.25751">
        <ele>1687.7</ele>
        <time>2022-02-09T08:33:48Z</time>
      </trkpt>
      <trkpt lat="42.85886" lon="0.25751">
        <ele>1687.7</ele>
        <time>2022-02-09T08:33:49Z</time>
      </trkpt>
      <trkpt lat="42.85886" lon="0.25751">
        <ele>1687.7</ele>
        <time>2022-02-09T08:33:50Z</time>
      </trkpt>
      <trkpt lat="42.85887" lon="0.25751">
        <ele>1687.7</ele>
        <time>2022-02-09T08:33:51Z</time>
      </trkpt>
      <trkpt lat="42.85887" lon="0.25751">
        <ele>1687.7</ele>
        <time>2022-02-09T08:33:52Z</time>
      </trkpt>
      <trkpt lat="42.85888" lon="0.25752">
        <ele>1687.7</ele>
        <time>2022-02-09T08:33:53Z</time>
      </trkpt>
      <trkpt lat="42.85889" lon="0.25752">
        <ele>1687.3</ele>
        <time>2022-02-09T08:33:54Z</time>
      </trkpt>
      <trkpt lat="42.85889" lon="0.25752">
        <ele>1687.3</ele>
        <time>2022-02-09T08:33:55Z</time>
      </trkpt>
      <trkpt lat="42.8589" lon="0.25752">
        <ele>1687.3</ele>
        <time>2022-02-09T08:33:56Z</time>
      </trkpt>
      <trkpt lat="42.85891" lon="0.25752">
        <ele>1687.3</ele>
        <time>2022-02-09T08:33:57Z</time>
      </trkpt>
      <trkpt lat="42.85892" lon="0.25752">
        <ele>1687.3</ele>
        <time>2022-02-09T08:33:58Z</time>
      </trkpt>
      <trkpt lat="42.85892" lon="0.25752">
        <ele>1687</ele>
        <time>2022-02-09T08:33:59Z</time>
      </trkpt>
      <trkpt lat="42.85893" lon="0.25752">
        <ele>1687</ele>
        <time>2022-02-09T08:34:00Z</time>
      </trkpt>
      <trkpt lat="42.85894" lon="0.25753">
        <ele>1687</ele>
        <time>2022-02-09T08:34:01Z</time>
      </trkpt>
      <trkpt lat="42.85895" lon="0.25753">
        <ele>1687</ele>
        <time>2022-02-09T08:34:02Z</time>
      </trkpt>
      <trkpt lat="42.85895" lon="0.25753">
        <ele>1686.9</ele>
        <time>2022-02-09T08:34:03Z</time>
      </trkpt>
      <trkpt lat="42.85896" lon="0.25753">
        <ele>1686.9</ele>
        <time>2022-02-09T08:34:04Z</time>
      </trkpt>
      <trkpt lat="42.85897" lon="0.25754">
        <ele>1685.7</ele>
        <time>2022-02-09T08:34:05Z</time>
      </trkpt>
      <trkpt lat="42.85897" lon="0.25754">
        <ele>1685.7</ele>
        <time>2022-02-09T08:34:06Z</time>
      </trkpt>
      <trkpt lat="42.85898" lon="0.25754">
        <ele>1685.7</ele>
        <time>2022-02-09T08:34:07Z</time>
      </trkpt>
      <trkpt lat="42.85899" lon="0.25754">
        <ele>1685.7</ele>
        <time>2022-02-09T08:34:08Z</time>
      </trkpt>
      <trkpt lat="42.85899" lon="0.25754">
        <ele>1685.7</ele>
        <time>2022-02-09T08:34:09Z</time>
      </trkpt>
      <trkpt lat="42.859" lon="0.25754">
        <ele>1685.7</ele>
        <time>2022-02-09T08:34:10Z</time>
      </trkpt>
      <trkpt lat="42.859" lon="0.25754">
        <ele>1685.7</ele>
        <time>2022-02-09T08:34:11Z</time>
      </trkpt>
      <trkpt lat="42.85901" lon="0.25754">
        <ele>1685.7</ele>
        <time>2022-02-09T08:34:12Z</time>
      </trkpt>
      <trkpt lat="42.85901" lon="0.25754">
        <ele>1685.7</ele>
        <time>2022-02-09T08:34:13Z</time>
      </trkpt>
      <trkpt lat="42.85901" lon="0.25755">
        <ele>1685.7</ele>
        <time>2022-02-09T08:34:14Z</time>
      </trkpt>
      <trkpt lat="42.85901" lon="0.25755">
        <ele>1685.8</ele>
        <time>2022-02-09T08:34:15Z</time>
      </trkpt>
      <trkpt lat="42.85901" lon="0.25755">
        <ele>1685.8</ele>
        <time>2022-02-09T08:34:16Z</time>
      </trkpt>
      <trkpt lat="42.85901" lon="0.25755">
        <ele>1685.8</ele>
        <time>2022-02-09T08:34:17Z</time>
      </trkpt>
      <trkpt lat="42.85901" lon="0.25755">
        <ele>1685.8</ele>
        <time>2022-02-09T08:34:18Z</time>
      </trkpt>
      <trkpt lat="42.85901" lon="0.25755">
        <ele>1685.8</ele>
        <time>2022-02-09T08:34:19Z</time>
      </trkpt>
      <trkpt lat="42.85901" lon="0.25755">
        <ele>1685.8</ele>
        <time>2022-02-09T08:34:20Z</time>
      </trkpt>
      <trkpt lat="42.85901" lon="0.25755">
        <ele>1685.8</ele>
        <time>2022-02-09T08:34:21Z</time>
      </trkpt>
      <trkpt lat="42.85901" lon="0.25755">
        <ele>1685.8</ele>
        <time>2022-02-09T08:34:22Z</time>
      </trkpt>
      <trkpt lat="42.85901" lon="0.25755">
        <ele>1685.8</ele>
        <time>2022-02-09T08:34:23Z</time>
      </trkpt>
      <trkpt lat="42.85901" lon="0.25755">
        <ele>1685.8</ele>
        <time>2022-02-09T08:34:24Z</time>
      </trkpt>
      <trkpt lat="42.85901" lon="0.25754">
        <ele>1685.7</ele>
        <time>2022-02-09T08:34:25Z</time>
      </trkpt>
      <trkpt lat="42.859" lon="0.25753">
        <ele>1686.9</ele>
        <time>2022-02-09T08:34:26Z</time>
      </trkpt>
      <trkpt lat="42.859" lon="0.25752">
        <ele>1686.9</ele>
        <time>2022-02-09T08:34:27Z</time>
      </trkpt>
      <trkpt lat="42.859" lon="0.25752">
        <ele>1686.9</ele>
        <time>2022-02-09T08:34:28Z</time>
      </trkpt>
      <trkpt lat="42.85899" lon="0.25751">
        <ele>1686.9</ele>
        <time>2022-02-09T08:34:29Z</time>
      </trkpt>
      <trkpt lat="42.85899" lon="0.2575">
        <ele>1686.9</ele>
        <time>2022-02-09T08:34:30Z</time>
      </trkpt>
      <trkpt lat="42.85898" lon="0.25749">
        <ele>1688.1</ele>
        <time>2022-02-09T08:34:31Z</time>
      </trkpt>
      <trkpt lat="42.85898" lon="0.25748">
        <ele>1688.1</ele>
        <time>2022-02-09T08:34:32Z</time>
      </trkpt>
      <trkpt lat="42.85898" lon="0.25747">
        <ele>1688.1</ele>
        <time>2022-02-09T08:34:33Z</time>
      </trkpt>
      <trkpt lat="42.85898" lon="0.25746">
        <ele>1688.1</ele>
        <time>2022-02-09T08:34:34Z</time>
      </trkpt>
      <trkpt lat="42.85897" lon="0.25745">
        <ele>1688.1</ele>
        <time>2022-02-09T08:34:35Z</time>
      </trkpt>
      <trkpt lat="42.85897" lon="0.25744">
        <ele>1689.3</ele>
        <time>2022-02-09T08:34:36Z</time>
      </trkpt>
      <trkpt lat="42.85896" lon="0.25743">
        <ele>1689.3</ele>
        <time>2022-02-09T08:34:37Z</time>
      </trkpt>
      <trkpt lat="42.85896" lon="0.25743">
        <ele>1689.3</ele>
        <time>2022-02-09T08:34:38Z</time>
      </trkpt>
      <trkpt lat="42.85895" lon="0.25742">
        <ele>1689.3</ele>
        <time>2022-02-09T08:34:39Z</time>
      </trkpt>
      <trkpt lat="42.85895" lon="0.25741">
        <ele>1689.3</ele>
        <time>2022-02-09T08:34:40Z</time>
      </trkpt>
      <trkpt lat="42.85895" lon="0.2574">
        <ele>1690.5</ele>
        <time>2022-02-09T08:34:41Z</time>
      </trkpt>
      <trkpt lat="42.85894" lon="0.25739">
        <ele>1690.5</ele>
        <time>2022-02-09T08:34:42Z</time>
      </trkpt>
      <trkpt lat="42.85894" lon="0.25738">
        <ele>1690.5</ele>
        <time>2022-02-09T08:34:43Z</time>
      </trkpt>
      <trkpt lat="42.85894" lon="0.25737">
        <ele>1690.5</ele>
        <time>2022-02-09T08:34:44Z</time>
      </trkpt>
      <trkpt lat="42.85893" lon="0.25736">
        <ele>1690.5</ele>
        <time>2022-02-09T08:34:45Z</time>
      </trkpt>
      <trkpt lat="42.85893" lon="0.25736">
        <ele>1691.6</ele>
        <time>2022-02-09T08:34:46Z</time>
      </trkpt>
      <trkpt lat="42.85892" lon="0.25735">
        <ele>1691.6</ele>
        <time>2022-02-09T08:34:47Z</time>
      </trkpt>
      <trkpt lat="42.85892" lon="0.25734">
        <ele>1691.6</ele>
        <time>2022-02-09T08:34:48Z</time>
      </trkpt>
      <trkpt lat="42.85891" lon="0.25733">
        <ele>1691.8</ele>
        <time>2022-02-09T08:34:49Z</time>
      </trkpt>
      <trkpt lat="42.85891" lon="0.25732">
        <ele>1691.8</ele>
        <time>2022-02-09T08:34:50Z</time>
      </trkpt>
      <trkpt lat="42.85891" lon="0.25731">
        <ele>1692.9</ele>
        <time>2022-02-09T08:34:51Z</time>
      </trkpt>
      <trkpt lat="42.8589" lon="0.25731">
        <ele>1692.9</ele>
        <time>2022-02-09T08:34:52Z</time>
      </trkpt>
      <trkpt lat="42.8589" lon="0.2573">
        <ele>1692.9</ele>
        <time>2022-02-09T08:34:53Z</time>
      </trkpt>
      <trkpt lat="42.8589" lon="0.25729">
        <ele>1692.9</ele>
        <time>2022-02-09T08:34:54Z</time>
      </trkpt>
      <trkpt lat="42.85889" lon="0.25728">
        <ele>1693.9</ele>
        <time>2022-02-09T08:34:55Z</time>
      </trkpt>
      <trkpt lat="42.85889" lon="0.25727">
        <ele>1693.9</ele>
        <time>2022-02-09T08:34:56Z</time>
      </trkpt>
      <trkpt lat="42.85889" lon="0.25726">
        <ele>1693.9</ele>
        <time>2022-02-09T08:34:57Z</time>
      </trkpt>
      <trkpt lat="42.85888" lon="0.25725">
        <ele>1694.2</ele>
        <time>2022-02-09T08:34:58Z</time>
      </trkpt>
      <trkpt lat="42.85888" lon="0.25723">
        <ele>1695.2</ele>
        <time>2022-02-09T08:34:59Z</time>
      </trkpt>
      <trkpt lat="42.85887" lon="0.25723">
        <ele>1695.2</ele>
        <time>2022-02-09T08:35:00Z</time>
      </trkpt>
      <trkpt lat="42.85887" lon="0.25722">
        <ele>1695.2</ele>
        <time>2022-02-09T08:35:01Z</time>
      </trkpt>
      <trkpt lat="42.85886" lon="0.25721">
        <ele>1695.2</ele>
        <time>2022-02-09T08:35:02Z</time>
      </trkpt>
      <trkpt lat="42.85886" lon="0.25719">
        <ele>1695.2</ele>
        <time>2022-02-09T08:35:03Z</time>
      </trkpt>
      <trkpt lat="42.85886" lon="0.25718">
        <ele>1696.2</ele>
        <time>2022-02-09T08:35:04Z</time>
      </trkpt>
      <trkpt lat="42.85886" lon="0.25718">
        <ele>1696.2</ele>
        <time>2022-02-09T08:35:05Z</time>
      </trkpt>
      <trkpt lat="42.85886" lon="0.25717">
        <ele>1696.2</ele>
        <time>2022-02-09T08:35:06Z</time>
      </trkpt>
      <trkpt lat="42.85886" lon="0.25716">
        <ele>1696.2</ele>
        <time>2022-02-09T08:35:07Z</time>
      </trkpt>
      <trkpt lat="42.85885" lon="0.25715">
        <ele>1697.5</ele>
        <time>2022-02-09T08:35:08Z</time>
      </trkpt>
      <trkpt lat="42.85885" lon="0.25714">
        <ele>1697.5</ele>
        <time>2022-02-09T08:35:09Z</time>
      </trkpt>
      <trkpt lat="42.85885" lon="0.25713">
        <ele>1697.5</ele>
        <time>2022-02-09T08:35:10Z</time>
      </trkpt>
      <trkpt lat="42.85885" lon="0.25712">
        <ele>1697.5</ele>
        <time>2022-02-09T08:35:11Z</time>
      </trkpt>
      <trkpt lat="42.85884" lon="0.25711">
        <ele>1697.5</ele>
        <time>2022-02-09T08:35:12Z</time>
      </trkpt>
      <trkpt lat="42.85884" lon="0.2571">
        <ele>1698.5</ele>
        <time>2022-02-09T08:35:13Z</time>
      </trkpt>
      <trkpt lat="42.85884" lon="0.25709">
        <ele>1698.5</ele>
        <time>2022-02-09T08:35:14Z</time>
      </trkpt>
      <trkpt lat="42.85884" lon="0.25708">
        <ele>1698.5</ele>
        <time>2022-02-09T08:35:15Z</time>
      </trkpt>
      <trkpt lat="42.85883" lon="0.25707">
        <ele>1698.5</ele>
        <time>2022-02-09T08:35:16Z</time>
      </trkpt>
      <trkpt lat="42.85883" lon="0.25706">
        <ele>1699.6</ele>
        <time>2022-02-09T08:35:17Z</time>
      </trkpt>
      <trkpt lat="42.85882" lon="0.25705">
        <ele>1699.6</ele>
        <time>2022-02-09T08:35:18Z</time>
      </trkpt>
      <trkpt lat="42.85882" lon="0.25704">
        <ele>1699.8</ele>
        <time>2022-02-09T08:35:19Z</time>
      </trkpt>
      <trkpt lat="42.85882" lon="0.25703">
        <ele>1699.8</ele>
        <time>2022-02-09T08:35:20Z</time>
      </trkpt>
      <trkpt lat="42.85881" lon="0.25702">
        <ele>1699.8</ele>
        <time>2022-02-09T08:35:21Z</time>
      </trkpt>
      <trkpt lat="42.85881" lon="0.25701">
        <ele>1700.9</ele>
        <time>2022-02-09T08:35:22Z</time>
      </trkpt>
      <trkpt lat="42.85881" lon="0.257">
        <ele>1700.9</ele>
        <time>2022-02-09T08:35:23Z</time>
      </trkpt>
      <trkpt lat="42.85881" lon="0.25699">
        <ele>1700.9</ele>
        <time>2022-02-09T08:35:24Z</time>
      </trkpt>
      <trkpt lat="42.85881" lon="0.25699">
        <ele>1700.9</ele>
        <time>2022-02-09T08:35:25Z</time>
      </trkpt>
      <trkpt lat="42.85882" lon="0.25698">
        <ele>1700.9</ele>
        <time>2022-02-09T08:35:26Z</time>
      </trkpt>
      <trkpt lat="42.85882" lon="0.25698">
        <ele>1701.7</ele>
        <time>2022-02-09T08:35:27Z</time>
      </trkpt>
      <trkpt lat="42.85883" lon="0.25698">
        <ele>1701.7</ele>
        <time>2022-02-09T08:35:28Z</time>
      </trkpt>
      <trkpt lat="42.85884" lon="0.25697">
        <ele>1701.7</ele>
        <time>2022-02-09T08:35:29Z</time>
      </trkpt>
      <trkpt lat="42.85884" lon="0.25697">
        <ele>1701.7</ele>
        <time>2022-02-09T08:35:30Z</time>
      </trkpt>
      <trkpt lat="42.85885" lon="0.25697">
        <ele>1701.7</ele>
        <time>2022-02-09T08:35:31Z</time>
      </trkpt>
      <trkpt lat="42.85886" lon="0.25697">
        <ele>1701.7</ele>
        <time>2022-02-09T08:35:32Z</time>
      </trkpt>
      <trkpt lat="42.85887" lon="0.25697">
        <ele>1701.7</ele>
        <time>2022-02-09T08:35:33Z</time>
      </trkpt>
      <trkpt lat="42.85887" lon="0.25697">
        <ele>1701.7</ele>
        <time>2022-02-09T08:35:34Z</time>
      </trkpt>
      <trkpt lat="42.85888" lon="0.25697">
        <ele>1701.7</ele>
        <time>2022-02-09T08:35:35Z</time>
      </trkpt>
      <trkpt lat="42.85888" lon="0.25696">
        <ele>1701.7</ele>
        <time>2022-02-09T08:35:36Z</time>
      </trkpt>
      <trkpt lat="42.85888" lon="0.25695">
        <ele>1701.7</ele>
        <time>2022-02-09T08:35:37Z</time>
      </trkpt>
      <trkpt lat="42.85889" lon="0.25694">
        <ele>1701.7</ele>
        <time>2022-02-09T08:35:38Z</time>
      </trkpt>
      <trkpt lat="42.85888" lon="0.25693">
        <ele>1702.7</ele>
        <time>2022-02-09T08:35:39Z</time>
      </trkpt>
      <trkpt lat="42.85888" lon="0.25693">
        <ele>1702.7</ele>
        <time>2022-02-09T08:35:40Z</time>
      </trkpt>
      <trkpt lat="42.85888" lon="0.25692">
        <ele>1702.7</ele>
        <time>2022-02-09T08:35:41Z</time>
      </trkpt>
      <trkpt lat="42.85888" lon="0.25691">
        <ele>1702.7</ele>
        <time>2022-02-09T08:35:42Z</time>
      </trkpt>
      <trkpt lat="42.85887" lon="0.2569">
        <ele>1702.7</ele>
        <time>2022-02-09T08:35:43Z</time>
      </trkpt>
      <trkpt lat="42.85887" lon="0.25689">
        <ele>1703.7</ele>
        <time>2022-02-09T08:35:44Z</time>
      </trkpt>
      <trkpt lat="42.85887" lon="0.25688">
        <ele>1703.7</ele>
        <time>2022-02-09T08:35:45Z</time>
      </trkpt>
      <trkpt lat="42.85887" lon="0.25687">
        <ele>1703.7</ele>
        <time>2022-02-09T08:35:46Z</time>
      </trkpt>
      <trkpt lat="42.85886" lon="0.25686">
        <ele>1703.7</ele>
        <time>2022-02-09T08:35:47Z</time>
      </trkpt>
      <trkpt lat="42.85886" lon="0.25686">
        <ele>1703.7</ele>
        <time>2022-02-09T08:35:48Z</time>
      </trkpt>
      <trkpt lat="42.85886" lon="0.25685">
        <ele>1704.7</ele>
        <time>2022-02-09T08:35:49Z</time>
      </trkpt>
      <trkpt lat="42.85886" lon="0.25684">
        <ele>1704.7</ele>
        <time>2022-02-09T08:35:50Z</time>
      </trkpt>
      <trkpt lat="42.85886" lon="0.25683">
        <ele>1704.7</ele>
        <time>2022-02-09T08:35:51Z</time>
      </trkpt>
      <trkpt lat="42.85885" lon="0.25682">
        <ele>1704.7</ele>
        <time>2022-02-09T08:35:52Z</time>
      </trkpt>
      <trkpt lat="42.85885" lon="0.25681">
        <ele>1704.7</ele>
        <time>2022-02-09T08:35:53Z</time>
      </trkpt>
      <trkpt lat="42.85884" lon="0.2568">
        <ele>1705.6</ele>
        <time>2022-02-09T08:35:54Z</time>
      </trkpt>
      <trkpt lat="42.85884" lon="0.25679">
        <ele>1705.6</ele>
        <time>2022-02-09T08:35:55Z</time>
      </trkpt>
      <trkpt lat="42.85884" lon="0.25679">
        <ele>1705.6</ele>
        <time>2022-02-09T08:35:56Z</time>
      </trkpt>
      <trkpt lat="42.85883" lon="0.25678">
        <ele>1705.6</ele>
        <time>2022-02-09T08:35:57Z</time>
      </trkpt>
      <trkpt lat="42.85883" lon="0.25677">
        <ele>1705.6</ele>
        <time>2022-02-09T08:35:58Z</time>
      </trkpt>
      <trkpt lat="42.85883" lon="0.25676">
        <ele>1706.5</ele>
        <time>2022-02-09T08:35:59Z</time>
      </trkpt>
      <trkpt lat="42.85882" lon="0.25675">
        <ele>1706.5</ele>
        <time>2022-02-09T08:36:00Z</time>
      </trkpt>
      <trkpt lat="42.85882" lon="0.25675">
        <ele>1706.6</ele>
        <time>2022-02-09T08:36:01Z</time>
      </trkpt>
      <trkpt lat="42.85882" lon="0.25674">
        <ele>1706.6</ele>
        <time>2022-02-09T08:36:02Z</time>
      </trkpt>
      <trkpt lat="42.85882" lon="0.25673">
        <ele>1706.6</ele>
        <time>2022-02-09T08:36:03Z</time>
      </trkpt>
      <trkpt lat="42.85881" lon="0.25673">
        <ele>1706.6</ele>
        <time>2022-02-09T08:36:04Z</time>
      </trkpt>
      <trkpt lat="42.85881" lon="0.25672">
        <ele>1707.6</ele>
        <time>2022-02-09T08:36:05Z</time>
      </trkpt>
      <trkpt lat="42.85881" lon="0.25671">
        <ele>1707.6</ele>
        <time>2022-02-09T08:36:06Z</time>
      </trkpt>
      <trkpt lat="42.85881" lon="0.2567">
        <ele>1707.6</ele>
        <time>2022-02-09T08:36:07Z</time>
      </trkpt>
      <trkpt lat="42.8588" lon="0.25669">
        <ele>1707.6</ele>
        <time>2022-02-09T08:36:08Z</time>
      </trkpt>
      <trkpt lat="42.8588" lon="0.25669">
        <ele>1707.6</ele>
        <time>2022-02-09T08:36:09Z</time>
      </trkpt>
      <trkpt lat="42.8588" lon="0.25668">
        <ele>1707.6</ele>
        <time>2022-02-09T08:36:10Z</time>
      </trkpt>
      <trkpt lat="42.85879" lon="0.25667">
        <ele>1708.6</ele>
        <time>2022-02-09T08:36:11Z</time>
      </trkpt>
      <trkpt lat="42.85879" lon="0.25666">
        <ele>1708.7</ele>
        <time>2022-02-09T08:36:12Z</time>
      </trkpt>
      <trkpt lat="42.85879" lon="0.25665">
        <ele>1708.7</ele>
        <time>2022-02-09T08:36:13Z</time>
      </trkpt>
      <trkpt lat="42.85878" lon="0.25664">
        <ele>1708.7</ele>
        <time>2022-02-09T08:36:14Z</time>
      </trkpt>
      <trkpt lat="42.85878" lon="0.25663">
        <ele>1709.7</ele>
        <time>2022-02-09T08:36:15Z</time>
      </trkpt>
      <trkpt lat="42.85878" lon="0.25662">
        <ele>1709.7</ele>
        <time>2022-02-09T08:36:16Z</time>
      </trkpt>
      <trkpt lat="42.85878" lon="0.25661">
        <ele>1709.7</ele>
        <time>2022-02-09T08:36:17Z</time>
      </trkpt>
      <trkpt lat="42.85877" lon="0.2566">
        <ele>1709.7</ele>
        <time>2022-02-09T08:36:18Z</time>
      </trkpt>
      <trkpt lat="42.85877" lon="0.25659">
        <ele>1709.7</ele>
        <time>2022-02-09T08:36:19Z</time>
      </trkpt>
      <trkpt lat="42.85876" lon="0.25658">
        <ele>1710.7</ele>
        <time>2022-02-09T08:36:20Z</time>
      </trkpt>
      <trkpt lat="42.85876" lon="0.25657">
        <ele>1710.8</ele>
        <time>2022-02-09T08:36:21Z</time>
      </trkpt>
      <trkpt lat="42.85875" lon="0.25657">
        <ele>1710.8</ele>
        <time>2022-02-09T08:36:22Z</time>
      </trkpt>
      <trkpt lat="42.85874" lon="0.25656">
        <ele>1710.8</ele>
        <time>2022-02-09T08:36:23Z</time>
      </trkpt>
      <trkpt lat="42.85874" lon="0.25655">
        <ele>1710.8</ele>
        <time>2022-02-09T08:36:24Z</time>
      </trkpt>
      <trkpt lat="42.85874" lon="0.25654">
        <ele>1711.8</ele>
        <time>2022-02-09T08:36:25Z</time>
      </trkpt>
      <trkpt lat="42.85873" lon="0.25654">
        <ele>1711.8</ele>
        <time>2022-02-09T08:36:26Z</time>
      </trkpt>
      <trkpt lat="42.85873" lon="0.25653">
        <ele>1711.8</ele>
        <time>2022-02-09T08:36:27Z</time>
      </trkpt>
      <trkpt lat="42.85873" lon="0.25652">
        <ele>1711.8</ele>
        <time>2022-02-09T08:36:28Z</time>
      </trkpt>
      <trkpt lat="42.85873" lon="0.25652">
        <ele>1712</ele>
        <time>2022-02-09T08:36:29Z</time>
      </trkpt>
      <trkpt lat="42.85872" lon="0.25651">
        <ele>1712</ele>
        <time>2022-02-09T08:36:30Z</time>
      </trkpt>
      <trkpt lat="42.85872" lon="0.2565">
        <ele>1712.9</ele>
        <time>2022-02-09T08:36:31Z</time>
      </trkpt>
      <trkpt lat="42.85872" lon="0.25649">
        <ele>1712.9</ele>
        <time>2022-02-09T08:36:32Z</time>
      </trkpt>
      <trkpt lat="42.85871" lon="0.25648">
        <ele>1712.9</ele>
        <time>2022-02-09T08:36:33Z</time>
      </trkpt>
      <trkpt lat="42.85871" lon="0.25648">
        <ele>1712.9</ele>
        <time>2022-02-09T08:36:34Z</time>
      </trkpt>
      <trkpt lat="42.85871" lon="0.25647">
        <ele>1712.9</ele>
        <time>2022-02-09T08:36:35Z</time>
      </trkpt>
      <trkpt lat="42.8587" lon="0.25646">
        <ele>1713.8</ele>
        <time>2022-02-09T08:36:36Z</time>
      </trkpt>
      <trkpt lat="42.8587" lon="0.25646">
        <ele>1713.8</ele>
        <time>2022-02-09T08:36:37Z</time>
      </trkpt>
      <trkpt lat="42.8587" lon="0.25645">
        <ele>1713.8</ele>
        <time>2022-02-09T08:36:38Z</time>
      </trkpt>
      <trkpt lat="42.85869" lon="0.25644">
        <ele>1713.9</ele>
        <time>2022-02-09T08:36:39Z</time>
      </trkpt>
      <trkpt lat="42.85869" lon="0.25643">
        <ele>1713.9</ele>
        <time>2022-02-09T08:36:40Z</time>
      </trkpt>
      <trkpt lat="42.85869" lon="0.25642">
        <ele>1713.9</ele>
        <time>2022-02-09T08:36:41Z</time>
      </trkpt>
      <trkpt lat="42.85869" lon="0.25642">
        <ele>1714.8</ele>
        <time>2022-02-09T08:36:42Z</time>
      </trkpt>
      <trkpt lat="42.85869" lon="0.25641">
        <ele>1714.8</ele>
        <time>2022-02-09T08:36:43Z</time>
      </trkpt>
      <trkpt lat="42.8587" lon="0.2564">
        <ele>1714.6</ele>
        <time>2022-02-09T08:36:44Z</time>
      </trkpt>
      <trkpt lat="42.8587" lon="0.2564">
        <ele>1714.6</ele>
        <time>2022-02-09T08:36:45Z</time>
      </trkpt>
      <trkpt lat="42.85871" lon="0.2564">
        <ele>1714.6</ele>
        <time>2022-02-09T08:36:46Z</time>
      </trkpt>
      <trkpt lat="42.85872" lon="0.2564">
        <ele>1714.6</ele>
        <time>2022-02-09T08:36:47Z</time>
      </trkpt>
      <trkpt lat="42.85872" lon="0.2564">
        <ele>1714.6</ele>
        <time>2022-02-09T08:36:48Z</time>
      </trkpt>
      <trkpt lat="42.85873" lon="0.2564">
        <ele>1714.6</ele>
        <time>2022-02-09T08:36:49Z</time>
      </trkpt>
      <trkpt lat="42.85874" lon="0.2564">
        <ele>1714.6</ele>
        <time>2022-02-09T08:36:50Z</time>
      </trkpt>
      <trkpt lat="42.85874" lon="0.2564">
        <ele>1714.6</ele>
        <time>2022-02-09T08:36:51Z</time>
      </trkpt>
      <trkpt lat="42.85875" lon="0.2564">
        <ele>1714.6</ele>
        <time>2022-02-09T08:36:52Z</time>
      </trkpt>
      <trkpt lat="42.85875" lon="0.25639">
        <ele>1714.6</ele>
        <time>2022-02-09T08:36:53Z</time>
      </trkpt>
      <trkpt lat="42.85876" lon="0.25639">
        <ele>1714.6</ele>
        <time>2022-02-09T08:36:54Z</time>
      </trkpt>
      <trkpt lat="42.85876" lon="0.25638">
        <ele>1714.6</ele>
        <time>2022-02-09T08:36:55Z</time>
      </trkpt>
      <trkpt lat="42.85876" lon="0.25638">
        <ele>1714.6</ele>
        <time>2022-02-09T08:36:56Z</time>
      </trkpt>
      <trkpt lat="42.85877" lon="0.25637">
        <ele>1715.5</ele>
        <time>2022-02-09T08:36:57Z</time>
      </trkpt>
      <trkpt lat="42.85877" lon="0.25636">
        <ele>1715.5</ele>
        <time>2022-02-09T08:36:58Z</time>
      </trkpt>
      <trkpt lat="42.85877" lon="0.25635">
        <ele>1715.5</ele>
        <time>2022-02-09T08:36:59Z</time>
      </trkpt>
      <trkpt lat="42.85877" lon="0.25634">
        <ele>1715.5</ele>
        <time>2022-02-09T08:37:00Z</time>
      </trkpt>
      <trkpt lat="42.85877" lon="0.25633">
        <ele>1715.5</ele>
        <time>2022-02-09T08:37:01Z</time>
      </trkpt>
      <trkpt lat="42.85877" lon="0.25632">
        <ele>1716.3</ele>
        <time>2022-02-09T08:37:02Z</time>
      </trkpt>
      <trkpt lat="42.85877" lon="0.25631">
        <ele>1716.3</ele>
        <time>2022-02-09T08:37:03Z</time>
      </trkpt>
      <trkpt lat="42.85876" lon="0.2563">
        <ele>1716.3</ele>
        <time>2022-02-09T08:37:04Z</time>
      </trkpt>
      <trkpt lat="42.85876" lon="0.25629">
        <ele>1716.3</ele>
        <time>2022-02-09T08:37:05Z</time>
      </trkpt>
      <trkpt lat="42.85876" lon="0.25628">
        <ele>1717.1</ele>
        <time>2022-02-09T08:37:06Z</time>
      </trkpt>
      <trkpt lat="42.85875" lon="0.25628">
        <ele>1717.1</ele>
        <time>2022-02-09T08:37:07Z</time>
      </trkpt>
      <trkpt lat="42.85875" lon="0.25627">
        <ele>1717.1</ele>
        <time>2022-02-09T08:37:08Z</time>
      </trkpt>
      <trkpt lat="42.85875" lon="0.25626">
        <ele>1717.1</ele>
        <time>2022-02-09T08:37:09Z</time>
      </trkpt>
      <trkpt lat="42.85875" lon="0.25625">
        <ele>1717.1</ele>
        <time>2022-02-09T08:37:10Z</time>
      </trkpt>
      <trkpt lat="42.85874" lon="0.25625">
        <ele>1718.1</ele>
        <time>2022-02-09T08:37:11Z</time>
      </trkpt>
      <trkpt lat="42.85874" lon="0.25624">
        <ele>1718.1</ele>
        <time>2022-02-09T08:37:12Z</time>
      </trkpt>
      <trkpt lat="42.85874" lon="0.25623">
        <ele>1718.1</ele>
        <time>2022-02-09T08:37:13Z</time>
      </trkpt>
      <trkpt lat="42.85873" lon="0.25623">
        <ele>1718.1</ele>
        <time>2022-02-09T08:37:14Z</time>
      </trkpt>
      <trkpt lat="42.85872" lon="0.25622">
        <ele>1718</ele>
        <time>2022-02-09T08:37:15Z</time>
      </trkpt>
      <trkpt lat="42.85872" lon="0.25621">
        <ele>1718</ele>
        <time>2022-02-09T08:37:16Z</time>
      </trkpt>
      <trkpt lat="42.85871" lon="0.25621">
        <ele>1718</ele>
        <time>2022-02-09T08:37:17Z</time>
      </trkpt>
      <trkpt lat="42.8587" lon="0.2562">
        <ele>1718.9</ele>
        <time>2022-02-09T08:37:18Z</time>
      </trkpt>
      <trkpt lat="42.8587" lon="0.2562">
        <ele>1718.9</ele>
        <time>2022-02-09T08:37:19Z</time>
      </trkpt>
      <trkpt lat="42.85869" lon="0.25619">
        <ele>1719</ele>
        <time>2022-02-09T08:37:20Z</time>
      </trkpt>
      <trkpt lat="42.85868" lon="0.25619">
        <ele>1719</ele>
        <time>2022-02-09T08:37:21Z</time>
      </trkpt>
      <trkpt lat="42.85867" lon="0.25618">
        <ele>1719</ele>
        <time>2022-02-09T08:37:22Z</time>
      </trkpt>
      <trkpt lat="42.85866" lon="0.25618">
        <ele>1719</ele>
        <time>2022-02-09T08:37:23Z</time>
      </trkpt>
      <trkpt lat="42.85866" lon="0.25618">
        <ele>1719</ele>
        <time>2022-02-09T08:37:24Z</time>
      </trkpt>
      <trkpt lat="42.85865" lon="0.25618">
        <ele>1719</ele>
        <time>2022-02-09T08:37:25Z</time>
      </trkpt>
      <trkpt lat="42.85864" lon="0.25618">
        <ele>1719</ele>
        <time>2022-02-09T08:37:26Z</time>
      </trkpt>
      <trkpt lat="42.85863" lon="0.25618">
        <ele>1719.2</ele>
        <time>2022-02-09T08:37:27Z</time>
      </trkpt>
      <trkpt lat="42.85862" lon="0.25617">
        <ele>1719.2</ele>
        <time>2022-02-09T08:37:28Z</time>
      </trkpt>
      <trkpt lat="42.85862" lon="0.25617">
        <ele>1719.2</ele>
        <time>2022-02-09T08:37:29Z</time>
      </trkpt>
      <trkpt lat="42.85861" lon="0.25616">
        <ele>1719.2</ele>
        <time>2022-02-09T08:37:30Z</time>
      </trkpt>
      <trkpt lat="42.8586" lon="0.25616">
        <ele>1720.4</ele>
        <time>2022-02-09T08:37:31Z</time>
      </trkpt>
      <trkpt lat="42.8586" lon="0.25615">
        <ele>1720.4</ele>
        <time>2022-02-09T08:37:32Z</time>
      </trkpt>
      <trkpt lat="42.85859" lon="0.25615">
        <ele>1720.4</ele>
        <time>2022-02-09T08:37:33Z</time>
      </trkpt>
      <trkpt lat="42.85858" lon="0.25615">
        <ele>1720.4</ele>
        <time>2022-02-09T08:37:34Z</time>
      </trkpt>
      <trkpt lat="42.85857" lon="0.25615">
        <ele>1720.4</ele>
        <time>2022-02-09T08:37:35Z</time>
      </trkpt>
      <trkpt lat="42.85857" lon="0.25616">
        <ele>1720.7</ele>
        <time>2022-02-09T08:37:36Z</time>
      </trkpt>
      <trkpt lat="42.85856" lon="0.25616">
        <ele>1720.7</ele>
        <time>2022-02-09T08:37:37Z</time>
      </trkpt>
      <trkpt lat="42.85856" lon="0.25616">
        <ele>1719.7</ele>
        <time>2022-02-09T08:37:38Z</time>
      </trkpt>
      <trkpt lat="42.85855" lon="0.25616">
        <ele>1719.7</ele>
        <time>2022-02-09T08:37:39Z</time>
      </trkpt>
      <trkpt lat="42.85854" lon="0.25616">
        <ele>1719.7</ele>
        <time>2022-02-09T08:37:40Z</time>
      </trkpt>
      <trkpt lat="42.85854" lon="0.25616">
        <ele>1720</ele>
        <time>2022-02-09T08:37:41Z</time>
      </trkpt>
      <trkpt lat="42.85853" lon="0.25616">
        <ele>1720.9</ele>
        <time>2022-02-09T08:37:42Z</time>
      </trkpt>
      <trkpt lat="42.85853" lon="0.25615">
        <ele>1720.9</ele>
        <time>2022-02-09T08:37:43Z</time>
      </trkpt>
      <trkpt lat="42.85853" lon="0.25614">
        <ele>1720.9</ele>
        <time>2022-02-09T08:37:44Z</time>
      </trkpt>
      <trkpt lat="42.85852" lon="0.25614">
        <ele>1720.9</ele>
        <time>2022-02-09T08:37:45Z</time>
      </trkpt>
      <trkpt lat="42.85852" lon="0.25613">
        <ele>1720.9</ele>
        <time>2022-02-09T08:37:46Z</time>
      </trkpt>
      <trkpt lat="42.85852" lon="0.25612">
        <ele>1720.9</ele>
        <time>2022-02-09T08:37:47Z</time>
      </trkpt>
      <trkpt lat="42.85852" lon="0.25611">
        <ele>1721.9</ele>
        <time>2022-02-09T08:37:48Z</time>
      </trkpt>
      <trkpt lat="42.85853" lon="0.25611">
        <ele>1721.9</ele>
        <time>2022-02-09T08:37:49Z</time>
      </trkpt>
      <trkpt lat="42.85853" lon="0.2561">
        <ele>1721.9</ele>
        <time>2022-02-09T08:37:50Z</time>
      </trkpt>
      <trkpt lat="42.85853" lon="0.25609">
        <ele>1721.9</ele>
        <time>2022-02-09T08:37:51Z</time>
      </trkpt>
      <trkpt lat="42.85853" lon="0.25608">
        <ele>1721.9</ele>
        <time>2022-02-09T08:37:52Z</time>
      </trkpt>
      <trkpt lat="42.85853" lon="0.25607">
        <ele>1723</ele>
        <time>2022-02-09T08:37:53Z</time>
      </trkpt>
      <trkpt lat="42.85853" lon="0.25606">
        <ele>1723</ele>
        <time>2022-02-09T08:37:54Z</time>
      </trkpt>
      <trkpt lat="42.85853" lon="0.25605">
        <ele>1723</ele>
        <time>2022-02-09T08:37:55Z</time>
      </trkpt>
      <trkpt lat="42.85854" lon="0.25605">
        <ele>1723</ele>
        <time>2022-02-09T08:37:56Z</time>
      </trkpt>
      <trkpt lat="42.85854" lon="0.25605">
        <ele>1723</ele>
        <time>2022-02-09T08:37:57Z</time>
      </trkpt>
      <trkpt lat="42.85854" lon="0.25605">
        <ele>1723</ele>
        <time>2022-02-09T08:37:58Z</time>
      </trkpt>
      <trkpt lat="42.85854" lon="0.25605">
        <ele>1723</ele>
        <time>2022-02-09T08:37:59Z</time>
      </trkpt>
      <trkpt lat="42.85854" lon="0.25605">
        <ele>1723</ele>
        <time>2022-02-09T08:38:00Z</time>
      </trkpt>
      <trkpt lat="42.85854" lon="0.25605">
        <ele>1723</ele>
        <time>2022-02-09T08:38:01Z</time>
      </trkpt>
      <trkpt lat="42.85854" lon="0.25605">
        <ele>1723</ele>
        <time>2022-02-09T08:38:02Z</time>
      </trkpt>
      <trkpt lat="42.85854" lon="0.25605">
        <ele>1723</ele>
        <time>2022-02-09T08:38:03Z</time>
      </trkpt>
      <trkpt lat="42.85854" lon="0.25605">
        <ele>1723</ele>
        <time>2022-02-09T08:38:04Z</time>
      </trkpt>
      <trkpt lat="42.85854" lon="0.25605">
        <ele>1723</ele>
        <time>2022-02-09T08:38:05Z</time>
      </trkpt>
      <trkpt lat="42.85854" lon="0.25605">
        <ele>1723</ele>
        <time>2022-02-09T08:38:06Z</time>
      </trkpt>
      <trkpt lat="42.85854" lon="0.25605">
        <ele>1723</ele>
        <time>2022-02-09T08:38:07Z</time>
      </trkpt>
      <trkpt lat="42.85854" lon="0.25605">
        <ele>1723</ele>
        <time>2022-02-09T08:38:08Z</time>
      </trkpt>
      <trkpt lat="42.85854" lon="0.25605">
        <ele>1723</ele>
        <time>2022-02-09T08:38:09Z</time>
      </trkpt>
      <trkpt lat="42.85854" lon="0.25605">
        <ele>1723</ele>
        <time>2022-02-09T08:38:10Z</time>
      </trkpt>
      <trkpt lat="42.85854" lon="0.25605">
        <ele>1723</ele>
        <time>2022-02-09T08:38:11Z</time>
      </trkpt>
      <trkpt lat="42.85854" lon="0.25605">
        <ele>1723</ele>
        <time>2022-02-09T08:38:12Z</time>
      </trkpt>
      <trkpt lat="42.85854" lon="0.25605">
        <ele>1723</ele>
        <time>2022-02-09T08:38:13Z</time>
      </trkpt>
      <trkpt lat="42.85854" lon="0.25605">
        <ele>1723</ele>
        <time>2022-02-09T08:38:14Z</time>
      </trkpt>
      <trkpt lat="42.85854" lon="0.25605">
        <ele>1723</ele>
        <time>2022-02-09T08:38:15Z</time>
      </trkpt>
      <trkpt lat="42.85854" lon="0.25605">
        <ele>1723</ele>
        <time>2022-02-09T08:38:16Z</time>
      </trkpt>
      <trkpt lat="42.85854" lon="0.25605">
        <ele>1723</ele>
        <time>2022-02-09T08:38:17Z</time>
      </trkpt>
      <trkpt lat="42.85854" lon="0.25605">
        <ele>1723</ele>
        <time>2022-02-09T08:38:18Z</time>
      </trkpt>
      <trkpt lat="42.85854" lon="0.25605">
        <ele>1723</ele>
        <time>2022-02-09T08:38:19Z</time>
      </trkpt>
      <trkpt lat="42.85854" lon="0.25605">
        <ele>1723</ele>
        <time>2022-02-09T08:38:20Z</time>
      </trkpt>
      <trkpt lat="42.85854" lon="0.25605">
        <ele>1723</ele>
        <time>2022-02-09T08:38:21Z</time>
      </trkpt>
      <trkpt lat="42.85854" lon="0.25605">
        <ele>1723</ele>
        <time>2022-02-09T08:38:22Z</time>
      </trkpt>
      <trkpt lat="42.85854" lon="0.25605">
        <ele>1723</ele>
        <time>2022-02-09T08:38:23Z</time>
      </trkpt>
      <trkpt lat="42.85854" lon="0.25605">
        <ele>1723</ele>
        <time>2022-02-09T08:38:24Z</time>
      </trkpt>
      <trkpt lat="42.85854" lon="0.25605">
        <ele>1723</ele>
        <time>2022-02-09T08:38:25Z</time>
      </trkpt>
      <trkpt lat="42.85854" lon="0.25605">
        <ele>1723</ele>
        <time>2022-02-09T08:38:26Z</time>
      </trkpt>
      <trkpt lat="42.85854" lon="0.25605">
        <ele>1723</ele>
        <time>2022-02-09T08:38:27Z</time>
      </trkpt>
      <trkpt lat="42.85854" lon="0.25605">
        <ele>1723</ele>
        <time>2022-02-09T08:38:28Z</time>
      </trkpt>
      <trkpt lat="42.85854" lon="0.25605">
        <ele>1723</ele>
        <time>2022-02-09T08:38:29Z</time>
      </trkpt>
      <trkpt lat="42.85854" lon="0.25605">
        <ele>1723</ele>
        <time>2022-02-09T08:38:30Z</time>
      </trkpt>
      <trkpt lat="42.85854" lon="0.25605">
        <ele>1723</ele>
        <time>2022-02-09T08:38:31Z</time>
      </trkpt>
      <trkpt lat="42.85854" lon="0.25605">
        <ele>1723</ele>
        <time>2022-02-09T08:38:32Z</time>
      </trkpt>
      <trkpt lat="42.85854" lon="0.25605">
        <ele>1723</ele>
        <time>2022-02-09T08:38:33Z</time>
      </trkpt>
      <trkpt lat="42.85854" lon="0.25605">
        <ele>1723</ele>
        <time>2022-02-09T08:38:34Z</time>
      </trkpt>
      <trkpt lat="42.85854" lon="0.25605">
        <ele>1723</ele>
        <time>2022-02-09T08:38:35Z</time>
      </trkpt>
      <trkpt lat="42.85854" lon="0.25605">
        <ele>1723</ele>
        <time>2022-02-09T08:38:36Z</time>
      </trkpt>
      <trkpt lat="42.85854" lon="0.25605">
        <ele>1723</ele>
        <time>2022-02-09T08:38:37Z</time>
      </trkpt>
      <trkpt lat="42.85854" lon="0.25605">
        <ele>1723</ele>
        <time>2022-02-09T08:38:38Z</time>
      </trkpt>
      <trkpt lat="42.85854" lon="0.25605">
        <ele>1723</ele>
        <time>2022-02-09T08:38:39Z</time>
      </trkpt>
      <trkpt lat="42.85854" lon="0.25605">
        <ele>1723</ele>
        <time>2022-02-09T08:38:40Z</time>
      </trkpt>
      <trkpt lat="42.85854" lon="0.25605">
        <ele>1723</ele>
        <time>2022-02-09T08:38:41Z</time>
      </trkpt>
      <trkpt lat="42.85854" lon="0.25605">
        <ele>1723</ele>
        <time>2022-02-09T08:38:42Z</time>
      </trkpt>
      <trkpt lat="42.85854" lon="0.25605">
        <ele>1723</ele>
        <time>2022-02-09T08:38:43Z</time>
      </trkpt>
      <trkpt lat="42.85854" lon="0.25605">
        <ele>1723</ele>
        <time>2022-02-09T08:38:44Z</time>
      </trkpt>
      <trkpt lat="42.85854" lon="0.25605">
        <ele>1723</ele>
        <time>2022-02-09T08:38:45Z</time>
      </trkpt>
      <trkpt lat="42.85854" lon="0.25605">
        <ele>1723</ele>
        <time>2022-02-09T08:38:46Z</time>
      </trkpt>
      <trkpt lat="42.85854" lon="0.25605">
        <ele>1723</ele>
        <time>2022-02-09T08:38:47Z</time>
      </trkpt>
      <trkpt lat="42.85854" lon="0.25605">
        <ele>1723</ele>
        <time>2022-02-09T08:38:48Z</time>
      </trkpt>
      <trkpt lat="42.85854" lon="0.25605">
        <ele>1723</ele>
        <time>2022-02-09T08:38:49Z</time>
      </trkpt>
      <trkpt lat="42.85854" lon="0.25605">
        <ele>1723</ele>
        <time>2022-02-09T08:38:50Z</time>
      </trkpt>
      <trkpt lat="42.85854" lon="0.25605">
        <ele>1723</ele>
        <time>2022-02-09T08:38:51Z</time>
      </trkpt>
      <trkpt lat="42.85854" lon="0.25605">
        <ele>1723</ele>
        <time>2022-02-09T08:38:52Z</time>
      </trkpt>
      <trkpt lat="42.85854" lon="0.25605">
        <ele>1723</ele>
        <time>2022-02-09T08:38:53Z</time>
      </trkpt>
      <trkpt lat="42.85854" lon="0.25605">
        <ele>1723</ele>
        <time>2022-02-09T08:38:54Z</time>
      </trkpt>
      <trkpt lat="42.85854" lon="0.25605">
        <ele>1723</ele>
        <time>2022-02-09T08:38:55Z</time>
      </trkpt>
      <trkpt lat="42.85854" lon="0.25605">
        <ele>1723</ele>
        <time>2022-02-09T08:38:56Z</time>
      </trkpt>
      <trkpt lat="42.85854" lon="0.25605">
        <ele>1723</ele>
        <time>2022-02-09T08:38:57Z</time>
      </trkpt>
      <trkpt lat="42.85854" lon="0.25605">
        <ele>1723</ele>
        <time>2022-02-09T08:38:58Z</time>
      </trkpt>
      <trkpt lat="42.85854" lon="0.25605">
        <ele>1723</ele>
        <time>2022-02-09T08:38:59Z</time>
      </trkpt>
      <trkpt lat="42.85854" lon="0.25605">
        <ele>1723</ele>
        <time>2022-02-09T08:39:00Z</time>
      </trkpt>
      <trkpt lat="42.85854" lon="0.25605">
        <ele>1723</ele>
        <time>2022-02-09T08:39:01Z</time>
      </trkpt>
      <trkpt lat="42.85854" lon="0.25605">
        <ele>1723</ele>
        <time>2022-02-09T08:39:02Z</time>
      </trkpt>
      <trkpt lat="42.85854" lon="0.25605">
        <ele>1723</ele>
        <time>2022-02-09T08:39:03Z</time>
      </trkpt>
      <trkpt lat="42.85854" lon="0.25605">
        <ele>1723</ele>
        <time>2022-02-09T08:39:04Z</time>
      </trkpt>
      <trkpt lat="42.85854" lon="0.25605">
        <ele>1723</ele>
        <time>2022-02-09T08:39:05Z</time>
      </trkpt>
      <trkpt lat="42.85854" lon="0.25605">
        <ele>1723</ele>
        <time>2022-02-09T08:39:06Z</time>
      </trkpt>
      <trkpt lat="42.85854" lon="0.25605">
        <ele>1723</ele>
        <time>2022-02-09T08:39:07Z</time>
      </trkpt>
      <trkpt lat="42.85853" lon="0.25606">
        <ele>1723</ele>
        <time>2022-02-09T08:39:08Z</time>
      </trkpt>
      <trkpt lat="42.85851" lon="0.25607">
        <ele>1723.3</ele>
        <time>2022-02-09T08:39:09Z</time>
      </trkpt>
      <trkpt lat="42.85849" lon="0.25607">
        <ele>1723.3</ele>
        <time>2022-02-09T08:39:10Z</time>
      </trkpt>
      <trkpt lat="42.85847" lon="0.25608">
        <ele>1722.6</ele>
        <time>2022-02-09T08:39:11Z</time>
      </trkpt>
      <trkpt lat="42.85848" lon="0.25608">
        <ele>1723.3</ele>
        <time>2022-02-09T08:39:12Z</time>
      </trkpt>
      <trkpt lat="42.85847" lon="0.25607">
        <ele>1723.6</ele>
        <time>2022-02-09T08:39:13Z</time>
      </trkpt>
      <trkpt lat="42.85847" lon="0.25606">
        <ele>1723.6</ele>
        <time>2022-02-09T08:39:14Z</time>
      </trkpt>
      <trkpt lat="42.85848" lon="0.25605">
        <ele>1723.3</ele>
        <time>2022-02-09T08:39:15Z</time>
      </trkpt>
      <trkpt lat="42.85849" lon="0.25605">
        <ele>1723.3</ele>
        <time>2022-02-09T08:39:16Z</time>
      </trkpt>
      <trkpt lat="42.85849" lon="0.25606">
        <ele>1723.3</ele>
        <time>2022-02-09T08:39:17Z</time>
      </trkpt>
      <trkpt lat="42.8585" lon="0.25606">
        <ele>1723.3</ele>
        <time>2022-02-09T08:39:18Z</time>
      </trkpt>
      <trkpt lat="42.8585" lon="0.25605">
        <ele>1723.3</ele>
        <time>2022-02-09T08:39:19Z</time>
      </trkpt>
      <trkpt lat="42.85851" lon="0.25605">
        <ele>1723</ele>
        <time>2022-02-09T08:39:20Z</time>
      </trkpt>
      <trkpt lat="42.85852" lon="0.25604">
        <ele>1723</ele>
        <time>2022-02-09T08:39:21Z</time>
      </trkpt>
      <trkpt lat="42.85852" lon="0.25605">
        <ele>1723</ele>
        <time>2022-02-09T08:39:22Z</time>
      </trkpt>
      <trkpt lat="42.85852" lon="0.25605">
        <ele>1723</ele>
        <time>2022-02-09T08:39:23Z</time>
      </trkpt>
      <trkpt lat="42.85853" lon="0.25605">
        <ele>1723</ele>
        <time>2022-02-09T08:39:24Z</time>
      </trkpt>
      <trkpt lat="42.85853" lon="0.25606">
        <ele>1723</ele>
        <time>2022-02-09T08:39:25Z</time>
      </trkpt>
      <trkpt lat="42.85854" lon="0.25606">
        <ele>1723</ele>
        <time>2022-02-09T08:39:26Z</time>
      </trkpt>
      <trkpt lat="42.85854" lon="0.25606">
        <ele>1722.7</ele>
        <time>2022-02-09T08:39:27Z</time>
      </trkpt>
      <trkpt lat="42.85854" lon="0.25606">
        <ele>1722.7</ele>
        <time>2022-02-09T08:39:28Z</time>
      </trkpt>
      <trkpt lat="42.85855" lon="0.25607">
        <ele>1722.7</ele>
        <time>2022-02-09T08:39:29Z</time>
      </trkpt>
      <trkpt lat="42.85855" lon="0.25607">
        <ele>1722.7</ele>
        <time>2022-02-09T08:39:30Z</time>
      </trkpt>
      <trkpt lat="42.85855" lon="0.25607">
        <ele>1722.7</ele>
        <time>2022-02-09T08:39:31Z</time>
      </trkpt>
      <trkpt lat="42.85855" lon="0.25606">
        <ele>1722.7</ele>
        <time>2022-02-09T08:39:32Z</time>
      </trkpt>
      <trkpt lat="42.85855" lon="0.25606">
        <ele>1722.7</ele>
        <time>2022-02-09T08:39:33Z</time>
      </trkpt>
      <trkpt lat="42.85856" lon="0.25606">
        <ele>1722.7</ele>
        <time>2022-02-09T08:39:34Z</time>
      </trkpt>
      <trkpt lat="42.85856" lon="0.25606">
        <ele>1722.7</ele>
        <time>2022-02-09T08:39:35Z</time>
      </trkpt>
      <trkpt lat="42.85856" lon="0.25606">
        <ele>1722.7</ele>
        <time>2022-02-09T08:39:36Z</time>
      </trkpt>
      <trkpt lat="42.85856" lon="0.25606">
        <ele>1722.7</ele>
        <time>2022-02-09T08:39:37Z</time>
      </trkpt>
      <trkpt lat="42.85856" lon="0.25606">
        <ele>1722.7</ele>
        <time>2022-02-09T08:39:38Z</time>
      </trkpt>
      <trkpt lat="42.85856" lon="0.25606">
        <ele>1722.7</ele>
        <time>2022-02-09T08:39:39Z</time>
      </trkpt>
      <trkpt lat="42.85856" lon="0.25606">
        <ele>1722.7</ele>
        <time>2022-02-09T08:39:40Z</time>
      </trkpt>
      <trkpt lat="42.85856" lon="0.25606">
        <ele>1722.7</ele>
        <time>2022-02-09T08:39:41Z</time>
      </trkpt>
      <trkpt lat="42.85855" lon="0.25606">
        <ele>1722.7</ele>
        <time>2022-02-09T08:39:42Z</time>
      </trkpt>
      <trkpt lat="42.85855" lon="0.25606">
        <ele>1722.7</ele>
        <time>2022-02-09T08:39:43Z</time>
      </trkpt>
      <trkpt lat="42.85856" lon="0.25607">
        <ele>1722.7</ele>
        <time>2022-02-09T08:39:44Z</time>
      </trkpt>
      <trkpt lat="42.85856" lon="0.25607">
        <ele>1722.7</ele>
        <time>2022-02-09T08:39:45Z</time>
      </trkpt>
      <trkpt lat="42.85856" lon="0.25607">
        <ele>1722.7</ele>
        <time>2022-02-09T08:39:46Z</time>
      </trkpt>
      <trkpt lat="42.85856" lon="0.25607">
        <ele>1722.7</ele>
        <time>2022-02-09T08:39:47Z</time>
      </trkpt>
      <trkpt lat="42.85856" lon="0.25607">
        <ele>1722.7</ele>
        <time>2022-02-09T08:39:48Z</time>
      </trkpt>
      <trkpt lat="42.85856" lon="0.25607">
        <ele>1722.7</ele>
        <time>2022-02-09T08:39:49Z</time>
      </trkpt>
      <trkpt lat="42.85856" lon="0.25607">
        <ele>1722.7</ele>
        <time>2022-02-09T08:39:50Z</time>
      </trkpt>
      <trkpt lat="42.85856" lon="0.25607">
        <ele>1722.7</ele>
        <time>2022-02-09T08:39:51Z</time>
      </trkpt>
      <trkpt lat="42.85856" lon="0.25607">
        <ele>1722.7</ele>
        <time>2022-02-09T08:39:52Z</time>
      </trkpt>
      <trkpt lat="42.85856" lon="0.25607">
        <ele>1722.7</ele>
        <time>2022-02-09T08:39:53Z</time>
      </trkpt>
      <trkpt lat="42.85856" lon="0.25607">
        <ele>1722.7</ele>
        <time>2022-02-09T08:39:54Z</time>
      </trkpt>
      <trkpt lat="42.85856" lon="0.25607">
        <ele>1722.7</ele>
        <time>2022-02-09T08:39:55Z</time>
      </trkpt>
      <trkpt lat="42.85856" lon="0.25607">
        <ele>1722.7</ele>
        <time>2022-02-09T08:39:56Z</time>
      </trkpt>
      <trkpt lat="42.85856" lon="0.25607">
        <ele>1722.7</ele>
        <time>2022-02-09T08:39:57Z</time>
      </trkpt>
      <trkpt lat="42.85856" lon="0.25607">
        <ele>1722.7</ele>
        <time>2022-02-09T08:39:58Z</time>
      </trkpt>
      <trkpt lat="42.85856" lon="0.25607">
        <ele>1722.7</ele>
        <time>2022-02-09T08:39:59Z</time>
      </trkpt>
      <trkpt lat="42.85856" lon="0.25607">
        <ele>1722.7</ele>
        <time>2022-02-09T08:40:00Z</time>
      </trkpt>
      <trkpt lat="42.85856" lon="0.25607">
        <ele>1722.7</ele>
        <time>2022-02-09T08:40:01Z</time>
      </trkpt>
      <trkpt lat="42.85856" lon="0.25607">
        <ele>1722.7</ele>
        <time>2022-02-09T08:40:02Z</time>
      </trkpt>
      <trkpt lat="42.85856" lon="0.25607">
        <ele>1722.7</ele>
        <time>2022-02-09T08:40:03Z</time>
      </trkpt>
      <trkpt lat="42.85856" lon="0.25607">
        <ele>1722.7</ele>
        <time>2022-02-09T08:40:04Z</time>
      </trkpt>
      <trkpt lat="42.85856" lon="0.25607">
        <ele>1722.7</ele>
        <time>2022-02-09T08:40:05Z</time>
      </trkpt>
      <trkpt lat="42.85856" lon="0.25607">
        <ele>1722.7</ele>
        <time>2022-02-09T08:40:06Z</time>
      </trkpt>
      <trkpt lat="42.85856" lon="0.25607">
        <ele>1722.7</ele>
        <time>2022-02-09T08:40:07Z</time>
      </trkpt>
      <trkpt lat="42.85856" lon="0.25607">
        <ele>1722.7</ele>
        <time>2022-02-09T08:40:08Z</time>
      </trkpt>
      <trkpt lat="42.85856" lon="0.25607">
        <ele>1722.7</ele>
        <time>2022-02-09T08:40:09Z</time>
      </trkpt>
      <trkpt lat="42.85856" lon="0.25607">
        <ele>1722.7</ele>
        <time>2022-02-09T08:40:10Z</time>
      </trkpt>
      <trkpt lat="42.85856" lon="0.25607">
        <ele>1722.7</ele>
        <time>2022-02-09T08:40:11Z</time>
      </trkpt>
      <trkpt lat="42.85856" lon="0.25607">
        <ele>1722.7</ele>
        <time>2022-02-09T08:40:12Z</time>
      </trkpt>
      <trkpt lat="42.85856" lon="0.25607">
        <ele>1722.7</ele>
        <time>2022-02-09T08:40:13Z</time>
      </trkpt>
      <trkpt lat="42.85856" lon="0.25607">
        <ele>1722.7</ele>
        <time>2022-02-09T08:40:14Z</time>
      </trkpt>
      <trkpt lat="42.85856" lon="0.25607">
        <ele>1722.7</ele>
        <time>2022-02-09T08:40:15Z</time>
      </trkpt>
      <trkpt lat="42.85856" lon="0.25607">
        <ele>1722.7</ele>
        <time>2022-02-09T08:40:16Z</time>
      </trkpt>
      <trkpt lat="42.85857" lon="0.25607">
        <ele>1722.7</ele>
        <time>2022-02-09T08:40:17Z</time>
      </trkpt>
      <trkpt lat="42.85857" lon="0.25607">
        <ele>1722.7</ele>
        <time>2022-02-09T08:40:18Z</time>
      </trkpt>
      <trkpt lat="42.85857" lon="0.25607">
        <ele>1722.7</ele>
        <time>2022-02-09T08:40:19Z</time>
      </trkpt>
      <trkpt lat="42.85857" lon="0.25607">
        <ele>1722.7</ele>
        <time>2022-02-09T08:40:20Z</time>
      </trkpt>
      <trkpt lat="42.85857" lon="0.25607">
        <ele>1722.7</ele>
        <time>2022-02-09T08:40:21Z</time>
      </trkpt>
      <trkpt lat="42.85857" lon="0.25607">
        <ele>1722.7</ele>
        <time>2022-02-09T08:40:22Z</time>
      </trkpt>
      <trkpt lat="42.85857" lon="0.25607">
        <ele>1722.6</ele>
        <time>2022-02-09T08:40:23Z</time>
      </trkpt>
      <trkpt lat="42.85857" lon="0.25607">
        <ele>1722.5</ele>
        <time>2022-02-09T08:40:24Z</time>
      </trkpt>
      <trkpt lat="42.85857" lon="0.25607">
        <ele>1722.5</ele>
        <time>2022-02-09T08:40:25Z</time>
      </trkpt>
      <trkpt lat="42.85857" lon="0.25607">
        <ele>1722.4</ele>
        <time>2022-02-09T08:40:26Z</time>
      </trkpt>
      <trkpt lat="42.85857" lon="0.25607">
        <ele>1722.3</ele>
        <time>2022-02-09T08:40:27Z</time>
      </trkpt>
      <trkpt lat="42.85857" lon="0.25607">
        <ele>1722.2</ele>
        <time>2022-02-09T08:40:28Z</time>
      </trkpt>
      <trkpt lat="42.85857" lon="0.25607">
        <ele>1722.1</ele>
        <time>2022-02-09T08:40:29Z</time>
      </trkpt>
      <trkpt lat="42.85857" lon="0.25607">
        <ele>1722</ele>
        <time>2022-02-09T08:40:30Z</time>
      </trkpt>
      <trkpt lat="42.85857" lon="0.25607">
        <ele>1722</ele>
        <time>2022-02-09T08:40:31Z</time>
      </trkpt>
      <trkpt lat="42.85857" lon="0.25607">
        <ele>1721.9</ele>
        <time>2022-02-09T08:40:32Z</time>
      </trkpt>
      <trkpt lat="42.85857" lon="0.25607">
        <ele>1721.6</ele>
        <time>2022-02-09T08:40:33Z</time>
      </trkpt>
      <trkpt lat="42.85858" lon="0.25607">
        <ele>1721.5</ele>
        <time>2022-02-09T08:40:34Z</time>
      </trkpt>
      <trkpt lat="42.85858" lon="0.25607">
        <ele>1721.4</ele>
        <time>2022-02-09T08:40:35Z</time>
      </trkpt>
      <trkpt lat="42.85859" lon="0.25607">
        <ele>1721.3</ele>
        <time>2022-02-09T08:40:36Z</time>
      </trkpt>
      <trkpt lat="42.85859" lon="0.25607">
        <ele>1721.3</ele>
        <time>2022-02-09T08:40:37Z</time>
      </trkpt>
      <trkpt lat="42.8586" lon="0.25607">
        <ele>1721.2</ele>
        <time>2022-02-09T08:40:38Z</time>
      </trkpt>
      <trkpt lat="42.8586" lon="0.25607">
        <ele>1720.9</ele>
        <time>2022-02-09T08:40:39Z</time>
      </trkpt>
      <trkpt lat="42.85861" lon="0.25607">
        <ele>1720.8</ele>
        <time>2022-02-09T08:40:40Z</time>
      </trkpt>
      <trkpt lat="42.85861" lon="0.25607">
        <ele>1720.7</ele>
        <time>2022-02-09T08:40:41Z</time>
      </trkpt>
      <trkpt lat="42.85861" lon="0.25607">
        <ele>1720.6</ele>
        <time>2022-02-09T08:40:42Z</time>
      </trkpt>
      <trkpt lat="42.85861" lon="0.25607">
        <ele>1720.6</ele>
        <time>2022-02-09T08:40:43Z</time>
      </trkpt>
      <trkpt lat="42.85862" lon="0.25607">
        <ele>1720.5</ele>
        <time>2022-02-09T08:40:44Z</time>
      </trkpt>
      <trkpt lat="42.85862" lon="0.25607">
        <ele>1720.4</ele>
        <time>2022-02-09T08:40:45Z</time>
      </trkpt>
      <trkpt lat="42.85863" lon="0.25607">
        <ele>1720.3</ele>
        <time>2022-02-09T08:40:46Z</time>
      </trkpt>
      <trkpt lat="42.85863" lon="0.25606">
        <ele>1720.2</ele>
        <time>2022-02-09T08:40:47Z</time>
      </trkpt>
      <trkpt lat="42.85863" lon="0.25606">
        <ele>1720</ele>
        <time>2022-02-09T08:40:48Z</time>
      </trkpt>
      <trkpt lat="42.85864" lon="0.25606">
        <ele>1719.9</ele>
        <time>2022-02-09T08:40:49Z</time>
      </trkpt>
      <trkpt lat="42.85864" lon="0.25606">
        <ele>1719.8</ele>
        <time>2022-02-09T08:40:50Z</time>
      </trkpt>
      <trkpt lat="42.85865" lon="0.25606">
        <ele>1719.7</ele>
        <time>2022-02-09T08:40:51Z</time>
      </trkpt>
      <trkpt lat="42.85865" lon="0.25605">
        <ele>1719.6</ele>
        <time>2022-02-09T08:40:52Z</time>
      </trkpt>
      <trkpt lat="42.85866" lon="0.25605">
        <ele>1719.6</ele>
        <time>2022-02-09T08:40:53Z</time>
      </trkpt>
      <trkpt lat="42.85867" lon="0.25605">
        <ele>1719.4</ele>
        <time>2022-02-09T08:40:54Z</time>
      </trkpt>
      <trkpt lat="42.85867" lon="0.25605">
        <ele>1719.4</ele>
        <time>2022-02-09T08:40:55Z</time>
      </trkpt>
      <trkpt lat="42.85868" lon="0.25605">
        <ele>1719.3</ele>
        <time>2022-02-09T08:40:56Z</time>
      </trkpt>
      <trkpt lat="42.85868" lon="0.25605">
        <ele>1719.2</ele>
        <time>2022-02-09T08:40:57Z</time>
      </trkpt>
      <trkpt lat="42.85869" lon="0.25605">
        <ele>1719.1</ele>
        <time>2022-02-09T08:40:58Z</time>
      </trkpt>
      <trkpt lat="42.8587" lon="0.25605">
        <ele>1719.1</ele>
        <time>2022-02-09T08:40:59Z</time>
      </trkpt>
      <trkpt lat="42.85871" lon="0.25605">
        <ele>1719</ele>
        <time>2022-02-09T08:41:00Z</time>
      </trkpt>
      <trkpt lat="42.85872" lon="0.25605">
        <ele>1718.9</ele>
        <time>2022-02-09T08:41:01Z</time>
      </trkpt>
      <trkpt lat="42.85872" lon="0.25606">
        <ele>1718.8</ele>
        <time>2022-02-09T08:41:02Z</time>
      </trkpt>
      <trkpt lat="42.85873" lon="0.25606">
        <ele>1718.9</ele>
        <time>2022-02-09T08:41:03Z</time>
      </trkpt>
      <trkpt lat="42.85874" lon="0.25606">
        <ele>1718.8</ele>
        <time>2022-02-09T08:41:04Z</time>
      </trkpt>
      <trkpt lat="42.85874" lon="0.25606">
        <ele>1718.7</ele>
        <time>2022-02-09T08:41:05Z</time>
      </trkpt>
      <trkpt lat="42.85875" lon="0.25606">
        <ele>1718.6</ele>
        <time>2022-02-09T08:41:06Z</time>
      </trkpt>
      <trkpt lat="42.85876" lon="0.25606">
        <ele>1718.6</ele>
        <time>2022-02-09T08:41:07Z</time>
      </trkpt>
      <trkpt lat="42.85876" lon="0.25606">
        <ele>1718.7</ele>
        <time>2022-02-09T08:41:08Z</time>
      </trkpt>
      <trkpt lat="42.85877" lon="0.25606">
        <ele>1718.6</ele>
        <time>2022-02-09T08:41:09Z</time>
      </trkpt>
      <trkpt lat="42.85877" lon="0.25606">
        <ele>1718.5</ele>
        <time>2022-02-09T08:41:10Z</time>
      </trkpt>
      <trkpt lat="42.85878" lon="0.25606">
        <ele>1718.4</ele>
        <time>2022-02-09T08:41:11Z</time>
      </trkpt>
      <trkpt lat="42.85878" lon="0.25606">
        <ele>1718.4</ele>
        <time>2022-02-09T08:41:12Z</time>
      </trkpt>
      <trkpt lat="42.85879" lon="0.25606">
        <ele>1718.3</ele>
        <time>2022-02-09T08:41:13Z</time>
      </trkpt>
      <trkpt lat="42.85879" lon="0.25606">
        <ele>1718.5</ele>
        <time>2022-02-09T08:41:14Z</time>
      </trkpt>
      <trkpt lat="42.8588" lon="0.25606">
        <ele>1718.4</ele>
        <time>2022-02-09T08:41:15Z</time>
      </trkpt>
      <trkpt lat="42.8588" lon="0.25606">
        <ele>1718.3</ele>
        <time>2022-02-09T08:41:16Z</time>
      </trkpt>
      <trkpt lat="42.85881" lon="0.25606">
        <ele>1718.2</ele>
        <time>2022-02-09T08:41:17Z</time>
      </trkpt>
      <trkpt lat="42.85881" lon="0.25606">
        <ele>1718.2</ele>
        <time>2022-02-09T08:41:18Z</time>
      </trkpt>
      <trkpt lat="42.85882" lon="0.25605">
        <ele>1718.1</ele>
        <time>2022-02-09T08:41:19Z</time>
      </trkpt>
      <trkpt lat="42.85883" lon="0.25605">
        <ele>1718.3</ele>
        <time>2022-02-09T08:41:20Z</time>
      </trkpt>
      <trkpt lat="42.85883" lon="0.25605">
        <ele>1718.3</ele>
        <time>2022-02-09T08:41:21Z</time>
      </trkpt>
      <trkpt lat="42.85883" lon="0.25604">
        <ele>1718.2</ele>
        <time>2022-02-09T08:41:22Z</time>
      </trkpt>
      <trkpt lat="42.85884" lon="0.25604">
        <ele>1718.1</ele>
        <time>2022-02-09T08:41:23Z</time>
      </trkpt>
      <trkpt lat="42.85884" lon="0.25603">
        <ele>1718</ele>
        <time>2022-02-09T08:41:24Z</time>
      </trkpt>
      <trkpt lat="42.85884" lon="0.25603">
        <ele>1719.1</ele>
        <time>2022-02-09T08:41:25Z</time>
      </trkpt>
      <trkpt lat="42.85885" lon="0.25603">
        <ele>1719</ele>
        <time>2022-02-09T08:41:26Z</time>
      </trkpt>
      <trkpt lat="42.85885" lon="0.25602">
        <ele>1718.9</ele>
        <time>2022-02-09T08:41:27Z</time>
      </trkpt>
      <trkpt lat="42.85885" lon="0.25602">
        <ele>1718.8</ele>
        <time>2022-02-09T08:41:28Z</time>
      </trkpt>
      <trkpt lat="42.85886" lon="0.25602">
        <ele>1719.2</ele>
        <time>2022-02-09T08:41:29Z</time>
      </trkpt>
      <trkpt lat="42.85886" lon="0.25602">
        <ele>1719.1</ele>
        <time>2022-02-09T08:41:30Z</time>
      </trkpt>
      <trkpt lat="42.85887" lon="0.25601">
        <ele>1719</ele>
        <time>2022-02-09T08:41:31Z</time>
      </trkpt>
      <trkpt lat="42.85887" lon="0.25601">
        <ele>1719</ele>
        <time>2022-02-09T08:41:32Z</time>
      </trkpt>
      <trkpt lat="42.85887" lon="0.256">
        <ele>1718.9</ele>
        <time>2022-02-09T08:41:33Z</time>
      </trkpt>
      <trkpt lat="42.85888" lon="0.256">
        <ele>1718.8</ele>
        <time>2022-02-09T08:41:34Z</time>
      </trkpt>
      <trkpt lat="42.85888" lon="0.256">
        <ele>1718.7</ele>
        <time>2022-02-09T08:41:35Z</time>
      </trkpt>
      <trkpt lat="42.85888" lon="0.25599">
        <ele>1718.6</ele>
        <time>2022-02-09T08:41:36Z</time>
      </trkpt>
      <trkpt lat="42.85889" lon="0.25599">
        <ele>1720.2</ele>
        <time>2022-02-09T08:41:37Z</time>
      </trkpt>
      <trkpt lat="42.85889" lon="0.25599">
        <ele>1720.1</ele>
        <time>2022-02-09T08:41:38Z</time>
      </trkpt>
      <trkpt lat="42.8589" lon="0.25598">
        <ele>1720</ele>
        <time>2022-02-09T08:41:39Z</time>
      </trkpt>
      <trkpt lat="42.8589" lon="0.25598">
        <ele>1719.9</ele>
        <time>2022-02-09T08:41:40Z</time>
      </trkpt>
      <trkpt lat="42.8589" lon="0.25598">
        <ele>1719.8</ele>
        <time>2022-02-09T08:41:41Z</time>
      </trkpt>
      <trkpt lat="42.85891" lon="0.25598">
        <ele>1719.8</ele>
        <time>2022-02-09T08:41:42Z</time>
      </trkpt>
      <trkpt lat="42.85891" lon="0.25598">
        <ele>1719.7</ele>
        <time>2022-02-09T08:41:43Z</time>
      </trkpt>
      <trkpt lat="42.85891" lon="0.25598">
        <ele>1719.6</ele>
        <time>2022-02-09T08:41:44Z</time>
      </trkpt>
      <trkpt lat="42.85891" lon="0.25598">
        <ele>1719.5</ele>
        <time>2022-02-09T08:41:45Z</time>
      </trkpt>
      <trkpt lat="42.85891" lon="0.25598">
        <ele>1719.4</ele>
        <time>2022-02-09T08:41:46Z</time>
      </trkpt>
      <trkpt lat="42.85892" lon="0.25598">
        <ele>1719.3</ele>
        <time>2022-02-09T08:41:47Z</time>
      </trkpt>
      <trkpt lat="42.85892" lon="0.25597">
        <ele>1719.8</ele>
        <time>2022-02-09T08:41:48Z</time>
      </trkpt>
      <trkpt lat="42.85893" lon="0.25597">
        <ele>1719.8</ele>
        <time>2022-02-09T08:41:49Z</time>
      </trkpt>
      <trkpt lat="42.85893" lon="0.25597">
        <ele>1719.7</ele>
        <time>2022-02-09T08:41:50Z</time>
      </trkpt>
      <trkpt lat="42.85894" lon="0.25597">
        <ele>1719.6</ele>
        <time>2022-02-09T08:41:51Z</time>
      </trkpt>
      <trkpt lat="42.85894" lon="0.25597">
        <ele>1719.5</ele>
        <time>2022-02-09T08:41:52Z</time>
      </trkpt>
      <trkpt lat="42.85895" lon="0.25597">
        <ele>1720</ele>
        <time>2022-02-09T08:41:53Z</time>
      </trkpt>
      <trkpt lat="42.85896" lon="0.25597">
        <ele>1720</ele>
        <time>2022-02-09T08:41:54Z</time>
      </trkpt>
      <trkpt lat="42.85896" lon="0.25597">
        <ele>1719.9</ele>
        <time>2022-02-09T08:41:55Z</time>
      </trkpt>
      <trkpt lat="42.85897" lon="0.25597">
        <ele>1719.8</ele>
        <time>2022-02-09T08:41:56Z</time>
      </trkpt>
      <trkpt lat="42.85897" lon="0.25597">
        <ele>1719.7</ele>
        <time>2022-02-09T08:41:57Z</time>
      </trkpt>
      <trkpt lat="42.85898" lon="0.25597">
        <ele>1720.2</ele>
        <time>2022-02-09T08:41:58Z</time>
      </trkpt>
      <trkpt lat="42.85899" lon="0.25597">
        <ele>1720.1</ele>
        <time>2022-02-09T08:41:59Z</time>
      </trkpt>
      <trkpt lat="42.85899" lon="0.25597">
        <ele>1720.1</ele>
        <time>2022-02-09T08:42:00Z</time>
      </trkpt>
      <trkpt lat="42.859" lon="0.25597">
        <ele>1720</ele>
        <time>2022-02-09T08:42:01Z</time>
      </trkpt>
      <trkpt lat="42.859" lon="0.25597">
        <ele>1719.9</ele>
        <time>2022-02-09T08:42:02Z</time>
      </trkpt>
      <trkpt lat="42.85901" lon="0.25597">
        <ele>1719.9</ele>
        <time>2022-02-09T08:42:03Z</time>
      </trkpt>
      <trkpt lat="42.85901" lon="0.25597">
        <ele>1720.6</ele>
        <time>2022-02-09T08:42:04Z</time>
      </trkpt>
      <trkpt lat="42.85902" lon="0.25598">
        <ele>1720.8</ele>
        <time>2022-02-09T08:42:05Z</time>
      </trkpt>
      <trkpt lat="42.85902" lon="0.25598">
        <ele>1720.8</ele>
        <time>2022-02-09T08:42:06Z</time>
      </trkpt>
      <trkpt lat="42.85902" lon="0.25598">
        <ele>1720.8</ele>
        <time>2022-02-09T08:42:07Z</time>
      </trkpt>
      <trkpt lat="42.85902" lon="0.25598">
        <ele>1720.8</ele>
        <time>2022-02-09T08:42:08Z</time>
      </trkpt>
      <trkpt lat="42.85902" lon="0.25598">
        <ele>1720.8</ele>
        <time>2022-02-09T08:42:09Z</time>
      </trkpt>
      <trkpt lat="42.85902" lon="0.25598">
        <ele>1720.8</ele>
        <time>2022-02-09T08:42:10Z</time>
      </trkpt>
      <trkpt lat="42.85902" lon="0.25598">
        <ele>1720.8</ele>
        <time>2022-02-09T08:42:11Z</time>
      </trkpt>
      <trkpt lat="42.85902" lon="0.25596">
        <ele>1721.1</ele>
        <time>2022-02-09T08:42:12Z</time>
      </trkpt>
      <trkpt lat="42.85902" lon="0.25594">
        <ele>1721.6</ele>
        <time>2022-02-09T08:42:13Z</time>
      </trkpt>
      <trkpt lat="42.85902" lon="0.25594">
        <ele>1721.9</ele>
        <time>2022-02-09T08:42:14Z</time>
      </trkpt>
      <trkpt lat="42.85901" lon="0.25593">
        <ele>1722.1</ele>
        <time>2022-02-09T08:42:15Z</time>
      </trkpt>
      <trkpt lat="42.85901" lon="0.25592">
        <ele>1722.3</ele>
        <time>2022-02-09T08:42:16Z</time>
      </trkpt>
      <trkpt lat="42.859" lon="0.25591">
        <ele>1722.6</ele>
        <time>2022-02-09T08:42:17Z</time>
      </trkpt>
      <trkpt lat="42.859" lon="0.2559">
        <ele>1722.8</ele>
        <time>2022-02-09T08:42:18Z</time>
      </trkpt>
      <trkpt lat="42.859" lon="0.25589">
        <ele>1723</ele>
        <time>2022-02-09T08:42:19Z</time>
      </trkpt>
      <trkpt lat="42.859" lon="0.25589">
        <ele>1723.2</ele>
        <time>2022-02-09T08:42:20Z</time>
      </trkpt>
      <trkpt lat="42.85899" lon="0.25588">
        <ele>1723.4</ele>
        <time>2022-02-09T08:42:21Z</time>
      </trkpt>
      <trkpt lat="42.85899" lon="0.25587">
        <ele>1723.7</ele>
        <time>2022-02-09T08:42:22Z</time>
      </trkpt>
      <trkpt lat="42.85898" lon="0.25586">
        <ele>1723.9</ele>
        <time>2022-02-09T08:42:23Z</time>
      </trkpt>
      <trkpt lat="42.85898" lon="0.25585">
        <ele>1724.2</ele>
        <time>2022-02-09T08:42:24Z</time>
      </trkpt>
      <trkpt lat="42.85898" lon="0.25584">
        <ele>1724.4</ele>
        <time>2022-02-09T08:42:25Z</time>
      </trkpt>
      <trkpt lat="42.85897" lon="0.25583">
        <ele>1724.8</ele>
        <time>2022-02-09T08:42:26Z</time>
      </trkpt>
      <trkpt lat="42.85897" lon="0.25583">
        <ele>1725</ele>
        <time>2022-02-09T08:42:27Z</time>
      </trkpt>
      <trkpt lat="42.85896" lon="0.25582">
        <ele>1725.2</ele>
        <time>2022-02-09T08:42:28Z</time>
      </trkpt>
      <trkpt lat="42.85895" lon="0.25582">
        <ele>1725.4</ele>
        <time>2022-02-09T08:42:29Z</time>
      </trkpt>
      <trkpt lat="42.85895" lon="0.25581">
        <ele>1725.6</ele>
        <time>2022-02-09T08:42:30Z</time>
      </trkpt>
      <trkpt lat="42.85895" lon="0.2558">
        <ele>1725.8</ele>
        <time>2022-02-09T08:42:31Z</time>
      </trkpt>
      <trkpt lat="42.85894" lon="0.2558">
        <ele>1726</ele>
        <time>2022-02-09T08:42:32Z</time>
      </trkpt>
      <trkpt lat="42.85894" lon="0.2558">
        <ele>1726.2</ele>
        <time>2022-02-09T08:42:33Z</time>
      </trkpt>
      <trkpt lat="42.85893" lon="0.25579">
        <ele>1726.3</ele>
        <time>2022-02-09T08:42:34Z</time>
      </trkpt>
      <trkpt lat="42.85893" lon="0.25579">
        <ele>1726.6</ele>
        <time>2022-02-09T08:42:35Z</time>
      </trkpt>
      <trkpt lat="42.85892" lon="0.25578">
        <ele>1726.7</ele>
        <time>2022-02-09T08:42:36Z</time>
      </trkpt>
      <trkpt lat="42.85892" lon="0.25578">
        <ele>1726.9</ele>
        <time>2022-02-09T08:42:37Z</time>
      </trkpt>
      <trkpt lat="42.85891" lon="0.25578">
        <ele>1727.1</ele>
        <time>2022-02-09T08:42:38Z</time>
      </trkpt>
      <trkpt lat="42.85891" lon="0.25577">
        <ele>1727.3</ele>
        <time>2022-02-09T08:42:39Z</time>
      </trkpt>
      <trkpt lat="42.8589" lon="0.25577">
        <ele>1727.5</ele>
        <time>2022-02-09T08:42:40Z</time>
      </trkpt>
      <trkpt lat="42.8589" lon="0.25577">
        <ele>1727.7</ele>
        <time>2022-02-09T08:42:41Z</time>
      </trkpt>
      <trkpt lat="42.85889" lon="0.25577">
        <ele>1727.9</ele>
        <time>2022-02-09T08:42:42Z</time>
      </trkpt>
      <trkpt lat="42.85888" lon="0.25576">
        <ele>1728.1</ele>
        <time>2022-02-09T08:42:43Z</time>
      </trkpt>
      <trkpt lat="42.85888" lon="0.25576">
        <ele>1728.3</ele>
        <time>2022-02-09T08:42:44Z</time>
      </trkpt>
      <trkpt lat="42.85887" lon="0.25576">
        <ele>1728.5</ele>
        <time>2022-02-09T08:42:45Z</time>
      </trkpt>
      <trkpt lat="42.85887" lon="0.25576">
        <ele>1728.8</ele>
        <time>2022-02-09T08:42:46Z</time>
      </trkpt>
      <trkpt lat="42.85886" lon="0.25575">
        <ele>1729.1</ele>
        <time>2022-02-09T08:42:47Z</time>
      </trkpt>
      <trkpt lat="42.85885" lon="0.25575">
        <ele>1729.3</ele>
        <time>2022-02-09T08:42:48Z</time>
      </trkpt>
      <trkpt lat="42.85885" lon="0.25574">
        <ele>1729.5</ele>
        <time>2022-02-09T08:42:49Z</time>
      </trkpt>
      <trkpt lat="42.85884" lon="0.25574">
        <ele>1729.7</ele>
        <time>2022-02-09T08:42:50Z</time>
      </trkpt>
      <trkpt lat="42.85884" lon="0.25574">
        <ele>1729.9</ele>
        <time>2022-02-09T08:42:51Z</time>
      </trkpt>
      <trkpt lat="42.85883" lon="0.25573">
        <ele>1730.1</ele>
        <time>2022-02-09T08:42:52Z</time>
      </trkpt>
      <trkpt lat="42.85882" lon="0.25573">
        <ele>1730.3</ele>
        <time>2022-02-09T08:42:53Z</time>
      </trkpt>
      <trkpt lat="42.85882" lon="0.25573">
        <ele>1730.5</ele>
        <time>2022-02-09T08:42:54Z</time>
      </trkpt>
      <trkpt lat="42.85881" lon="0.25573">
        <ele>1730.7</ele>
        <time>2022-02-09T08:42:55Z</time>
      </trkpt>
      <trkpt lat="42.85881" lon="0.25572">
        <ele>1730.9</ele>
        <time>2022-02-09T08:42:56Z</time>
      </trkpt>
      <trkpt lat="42.8588" lon="0.25572">
        <ele>1731.1</ele>
        <time>2022-02-09T08:42:57Z</time>
      </trkpt>
      <trkpt lat="42.85879" lon="0.25572">
        <ele>1731.4</ele>
        <time>2022-02-09T08:42:58Z</time>
      </trkpt>
      <trkpt lat="42.85879" lon="0.25571">
        <ele>1731.6</ele>
        <time>2022-02-09T08:42:59Z</time>
      </trkpt>
      <trkpt lat="42.85878" lon="0.25571">
        <ele>1731.8</ele>
        <time>2022-02-09T08:43:00Z</time>
      </trkpt>
      <trkpt lat="42.85878" lon="0.25571">
        <ele>1731.9</ele>
        <time>2022-02-09T08:43:01Z</time>
      </trkpt>
      <trkpt lat="42.85877" lon="0.2557">
        <ele>1732.2</ele>
        <time>2022-02-09T08:43:02Z</time>
      </trkpt>
      <trkpt lat="42.85877" lon="0.2557">
        <ele>1732.3</ele>
        <time>2022-02-09T08:43:03Z</time>
      </trkpt>
      <trkpt lat="42.85876" lon="0.25569">
        <ele>1732.6</ele>
        <time>2022-02-09T08:43:04Z</time>
      </trkpt>
      <trkpt lat="42.85876" lon="0.25569">
        <ele>1732.8</ele>
        <time>2022-02-09T08:43:05Z</time>
      </trkpt>
      <trkpt lat="42.85875" lon="0.25568">
        <ele>1732.9</ele>
        <time>2022-02-09T08:43:06Z</time>
      </trkpt>
      <trkpt lat="42.85875" lon="0.25568">
        <ele>1733.1</ele>
        <time>2022-02-09T08:43:07Z</time>
      </trkpt>
      <trkpt lat="42.85874" lon="0.25568">
        <ele>1733.3</ele>
        <time>2022-02-09T08:43:08Z</time>
      </trkpt>
      <trkpt lat="42.85874" lon="0.25567">
        <ele>1733.5</ele>
        <time>2022-02-09T08:43:09Z</time>
      </trkpt>
      <trkpt lat="42.85873" lon="0.25567">
        <ele>1733.7</ele>
        <time>2022-02-09T08:43:10Z</time>
      </trkpt>
      <trkpt lat="42.85873" lon="0.25567">
        <ele>1733.9</ele>
        <time>2022-02-09T08:43:11Z</time>
      </trkpt>
      <trkpt lat="42.85872" lon="0.25566">
        <ele>1734.1</ele>
        <time>2022-02-09T08:43:12Z</time>
      </trkpt>
      <trkpt lat="42.85871" lon="0.25566">
        <ele>1734.4</ele>
        <time>2022-02-09T08:43:13Z</time>
      </trkpt>
      <trkpt lat="42.8587" lon="0.25565">
        <ele>1734.7</ele>
        <time>2022-02-09T08:43:14Z</time>
      </trkpt>
      <trkpt lat="42.8587" lon="0.25564">
        <ele>1734.9</ele>
        <time>2022-02-09T08:43:15Z</time>
      </trkpt>
      <trkpt lat="42.85869" lon="0.25564">
        <ele>1735.1</ele>
        <time>2022-02-09T08:43:16Z</time>
      </trkpt>
      <trkpt lat="42.85869" lon="0.25563">
        <ele>1735.4</ele>
        <time>2022-02-09T08:43:17Z</time>
      </trkpt>
      <trkpt lat="42.85868" lon="0.25563">
        <ele>1735.6</ele>
        <time>2022-02-09T08:43:18Z</time>
      </trkpt>
      <trkpt lat="42.85867" lon="0.25562">
        <ele>1735.9</ele>
        <time>2022-02-09T08:43:19Z</time>
      </trkpt>
      <trkpt lat="42.85866" lon="0.25561">
        <ele>1736.2</ele>
        <time>2022-02-09T08:43:20Z</time>
      </trkpt>
      <trkpt lat="42.85866" lon="0.2556">
        <ele>1736.4</ele>
        <time>2022-02-09T08:43:21Z</time>
      </trkpt>
      <trkpt lat="42.85865" lon="0.2556">
        <ele>1736.7</ele>
        <time>2022-02-09T08:43:22Z</time>
      </trkpt>
      <trkpt lat="42.85865" lon="0.25559">
        <ele>1736.9</ele>
        <time>2022-02-09T08:43:23Z</time>
      </trkpt>
      <trkpt lat="42.85864" lon="0.25558">
        <ele>1737.2</ele>
        <time>2022-02-09T08:43:24Z</time>
      </trkpt>
      <trkpt lat="42.85864" lon="0.25557">
        <ele>1737.4</ele>
        <time>2022-02-09T08:43:25Z</time>
      </trkpt>
      <trkpt lat="42.85863" lon="0.25556">
        <ele>1737.7</ele>
        <time>2022-02-09T08:43:26Z</time>
      </trkpt>
      <trkpt lat="42.85862" lon="0.25556">
        <ele>1737.9</ele>
        <time>2022-02-09T08:43:27Z</time>
      </trkpt>
      <trkpt lat="42.85862" lon="0.25555">
        <ele>1738.2</ele>
        <time>2022-02-09T08:43:28Z</time>
      </trkpt>
      <trkpt lat="42.85861" lon="0.25554">
        <ele>1738.4</ele>
        <time>2022-02-09T08:43:29Z</time>
      </trkpt>
      <trkpt lat="42.85861" lon="0.25553">
        <ele>1738.6</ele>
        <time>2022-02-09T08:43:30Z</time>
      </trkpt>
      <trkpt lat="42.8586" lon="0.25553">
        <ele>1738.8</ele>
        <time>2022-02-09T08:43:31Z</time>
      </trkpt>
      <trkpt lat="42.85859" lon="0.25552">
        <ele>1739.1</ele>
        <time>2022-02-09T08:43:32Z</time>
      </trkpt>
      <trkpt lat="42.85858" lon="0.25552">
        <ele>1739.3</ele>
        <time>2022-02-09T08:43:33Z</time>
      </trkpt>
      <trkpt lat="42.85858" lon="0.25552">
        <ele>1739.5</ele>
        <time>2022-02-09T08:43:34Z</time>
      </trkpt>
      <trkpt lat="42.85857" lon="0.25551">
        <ele>1739.7</ele>
        <time>2022-02-09T08:43:35Z</time>
      </trkpt>
      <trkpt lat="42.85857" lon="0.25551">
        <ele>1739.9</ele>
        <time>2022-02-09T08:43:36Z</time>
      </trkpt>
      <trkpt lat="42.85856" lon="0.25551">
        <ele>1740.1</ele>
        <time>2022-02-09T08:43:37Z</time>
      </trkpt>
      <trkpt lat="42.85856" lon="0.2555">
        <ele>1740.2</ele>
        <time>2022-02-09T08:43:38Z</time>
      </trkpt>
      <trkpt lat="42.85855" lon="0.2555">
        <ele>1740.4</ele>
        <time>2022-02-09T08:43:39Z</time>
      </trkpt>
      <trkpt lat="42.85855" lon="0.25549">
        <ele>1740.5</ele>
        <time>2022-02-09T08:43:40Z</time>
      </trkpt>
      <trkpt lat="42.85855" lon="0.25549">
        <ele>1740.6</ele>
        <time>2022-02-09T08:43:41Z</time>
      </trkpt>
      <trkpt lat="42.85854" lon="0.25549">
        <ele>1740.8</ele>
        <time>2022-02-09T08:43:42Z</time>
      </trkpt>
      <trkpt lat="42.85854" lon="0.25548">
        <ele>1740.9</ele>
        <time>2022-02-09T08:43:43Z</time>
      </trkpt>
      <trkpt lat="42.85853" lon="0.25548">
        <ele>1741.1</ele>
        <time>2022-02-09T08:43:44Z</time>
      </trkpt>
      <trkpt lat="42.85853" lon="0.25547">
        <ele>1741.3</ele>
        <time>2022-02-09T08:43:45Z</time>
      </trkpt>
      <trkpt lat="42.85853" lon="0.25547">
        <ele>1741.4</ele>
        <time>2022-02-09T08:43:46Z</time>
      </trkpt>
      <trkpt lat="42.85852" lon="0.25546">
        <ele>1741.6</ele>
        <time>2022-02-09T08:43:47Z</time>
      </trkpt>
      <trkpt lat="42.85852" lon="0.25546">
        <ele>1741.8</ele>
        <time>2022-02-09T08:43:48Z</time>
      </trkpt>
      <trkpt lat="42.85851" lon="0.25545">
        <ele>1741.9</ele>
        <time>2022-02-09T08:43:49Z</time>
      </trkpt>
      <trkpt lat="42.85851" lon="0.25545">
        <ele>1742.1</ele>
        <time>2022-02-09T08:43:50Z</time>
      </trkpt>
      <trkpt lat="42.8585" lon="0.25544">
        <ele>1742.3</ele>
        <time>2022-02-09T08:43:51Z</time>
      </trkpt>
      <trkpt lat="42.85849" lon="0.25544">
        <ele>1742.5</ele>
        <time>2022-02-09T08:43:52Z</time>
      </trkpt>
      <trkpt lat="42.85849" lon="0.25544">
        <ele>1742.7</ele>
        <time>2022-02-09T08:43:53Z</time>
      </trkpt>
      <trkpt lat="42.85848" lon="0.25543">
        <ele>1743</ele>
        <time>2022-02-09T08:43:54Z</time>
      </trkpt>
      <trkpt lat="42.85847" lon="0.25543">
        <ele>1743.2</ele>
        <time>2022-02-09T08:43:55Z</time>
      </trkpt>
      <trkpt lat="42.85847" lon="0.25543">
        <ele>1743.4</ele>
        <time>2022-02-09T08:43:56Z</time>
      </trkpt>
      <trkpt lat="42.85846" lon="0.25542">
        <ele>1743.8</ele>
        <time>2022-02-09T08:43:57Z</time>
      </trkpt>
      <trkpt lat="42.85845" lon="0.25542">
        <ele>1744</ele>
        <time>2022-02-09T08:43:58Z</time>
      </trkpt>
      <trkpt lat="42.85845" lon="0.25542">
        <ele>1744.1</ele>
        <time>2022-02-09T08:43:59Z</time>
      </trkpt>
      <trkpt lat="42.85844" lon="0.25542">
        <ele>1744.3</ele>
        <time>2022-02-09T08:44:00Z</time>
      </trkpt>
      <trkpt lat="42.85843" lon="0.25541">
        <ele>1744.5</ele>
        <time>2022-02-09T08:44:01Z</time>
      </trkpt>
      <trkpt lat="42.85842" lon="0.25541">
        <ele>1744.6</ele>
        <time>2022-02-09T08:44:02Z</time>
      </trkpt>
      <trkpt lat="42.85841" lon="0.25541">
        <ele>1744.8</ele>
        <time>2022-02-09T08:44:03Z</time>
      </trkpt>
      <trkpt lat="42.85841" lon="0.2554">
        <ele>1745</ele>
        <time>2022-02-09T08:44:04Z</time>
      </trkpt>
      <trkpt lat="42.8584" lon="0.2554">
        <ele>1745.2</ele>
        <time>2022-02-09T08:44:05Z</time>
      </trkpt>
      <trkpt lat="42.85839" lon="0.2554">
        <ele>1745.3</ele>
        <time>2022-02-09T08:44:06Z</time>
      </trkpt>
      <trkpt lat="42.85838" lon="0.2554">
        <ele>1745.5</ele>
        <time>2022-02-09T08:44:07Z</time>
      </trkpt>
      <trkpt lat="42.85838" lon="0.25539">
        <ele>1745.7</ele>
        <time>2022-02-09T08:44:08Z</time>
      </trkpt>
      <trkpt lat="42.85837" lon="0.25539">
        <ele>1745.8</ele>
        <time>2022-02-09T08:44:09Z</time>
      </trkpt>
      <trkpt lat="42.85836" lon="0.25539">
        <ele>1746</ele>
        <time>2022-02-09T08:44:10Z</time>
      </trkpt>
      <trkpt lat="42.85836" lon="0.25539">
        <ele>1746.2</ele>
        <time>2022-02-09T08:44:11Z</time>
      </trkpt>
      <trkpt lat="42.85835" lon="0.25538">
        <ele>1746.2</ele>
        <time>2022-02-09T08:44:12Z</time>
      </trkpt>
      <trkpt lat="42.85835" lon="0.25538">
        <ele>1746.3</ele>
        <time>2022-02-09T08:44:13Z</time>
      </trkpt>
      <trkpt lat="42.85835" lon="0.25537">
        <ele>1746.4</ele>
        <time>2022-02-09T08:44:14Z</time>
      </trkpt>
      <trkpt lat="42.85836" lon="0.25536">
        <ele>1746.6</ele>
        <time>2022-02-09T08:44:15Z</time>
      </trkpt>
      <trkpt lat="42.85836" lon="0.25536">
        <ele>1746.7</ele>
        <time>2022-02-09T08:44:16Z</time>
      </trkpt>
      <trkpt lat="42.85837" lon="0.25536">
        <ele>1746.8</ele>
        <time>2022-02-09T08:44:17Z</time>
      </trkpt>
      <trkpt lat="42.85837" lon="0.25536">
        <ele>1746.9</ele>
        <time>2022-02-09T08:44:18Z</time>
      </trkpt>
      <trkpt lat="42.85838" lon="0.25536">
        <ele>1747</ele>
        <time>2022-02-09T08:44:19Z</time>
      </trkpt>
      <trkpt lat="42.85838" lon="0.25536">
        <ele>1747.1</ele>
        <time>2022-02-09T08:44:20Z</time>
      </trkpt>
      <trkpt lat="42.85839" lon="0.25536">
        <ele>1747.3</ele>
        <time>2022-02-09T08:44:21Z</time>
      </trkpt>
      <trkpt lat="42.85839" lon="0.25537">
        <ele>1747.4</ele>
        <time>2022-02-09T08:44:22Z</time>
      </trkpt>
      <trkpt lat="42.85839" lon="0.25537">
        <ele>1747.5</ele>
        <time>2022-02-09T08:44:23Z</time>
      </trkpt>
      <trkpt lat="42.8584" lon="0.25537">
        <ele>1747.6</ele>
        <time>2022-02-09T08:44:24Z</time>
      </trkpt>
      <trkpt lat="42.8584" lon="0.25537">
        <ele>1747.7</ele>
        <time>2022-02-09T08:44:25Z</time>
      </trkpt>
      <trkpt lat="42.8584" lon="0.25538">
        <ele>1747.8</ele>
        <time>2022-02-09T08:44:26Z</time>
      </trkpt>
      <trkpt lat="42.85841" lon="0.25539">
        <ele>1748</ele>
        <time>2022-02-09T08:44:27Z</time>
      </trkpt>
      <trkpt lat="42.85841" lon="0.2554">
        <ele>1748.2</ele>
        <time>2022-02-09T08:44:28Z</time>
      </trkpt>
      <trkpt lat="42.85841" lon="0.2554">
        <ele>1748.2</ele>
        <time>2022-02-09T08:44:29Z</time>
      </trkpt>
      <trkpt lat="42.85841" lon="0.2554">
        <ele>1748.3</ele>
        <time>2022-02-09T08:44:30Z</time>
      </trkpt>
      <trkpt lat="42.85841" lon="0.25541">
        <ele>1748.4</ele>
        <time>2022-02-09T08:44:31Z</time>
      </trkpt>
      <trkpt lat="42.85842" lon="0.25541">
        <ele>1748.4</ele>
        <time>2022-02-09T08:44:32Z</time>
      </trkpt>
      <trkpt lat="42.85842" lon="0.25541">
        <ele>1748.5</ele>
        <time>2022-02-09T08:44:33Z</time>
      </trkpt>
      <trkpt lat="42.85842" lon="0.25541">
        <ele>1748.6</ele>
        <time>2022-02-09T08:44:34Z</time>
      </trkpt>
      <trkpt lat="42.85842" lon="0.25541">
        <ele>1748.6</ele>
        <time>2022-02-09T08:44:35Z</time>
      </trkpt>
      <trkpt lat="42.85842" lon="0.25541">
        <ele>1748.6</ele>
        <time>2022-02-09T08:44:36Z</time>
      </trkpt>
      <trkpt lat="42.85842" lon="0.25541">
        <ele>1748.6</ele>
        <time>2022-02-09T08:44:37Z</time>
      </trkpt>
      <trkpt lat="42.85842" lon="0.25541">
        <ele>1748.6</ele>
        <time>2022-02-09T08:44:38Z</time>
      </trkpt>
      <trkpt lat="42.85842" lon="0.25541">
        <ele>1748.6</ele>
        <time>2022-02-09T08:44:39Z</time>
      </trkpt>
      <trkpt lat="42.85842" lon="0.25541">
        <ele>1748.6</ele>
        <time>2022-02-09T08:44:40Z</time>
      </trkpt>
      <trkpt lat="42.85842" lon="0.25541">
        <ele>1748.6</ele>
        <time>2022-02-09T08:44:41Z</time>
      </trkpt>
      <trkpt lat="42.85842" lon="0.25541">
        <ele>1748.6</ele>
        <time>2022-02-09T08:44:42Z</time>
      </trkpt>
      <trkpt lat="42.85842" lon="0.25541">
        <ele>1748.6</ele>
        <time>2022-02-09T08:44:43Z</time>
      </trkpt>
      <trkpt lat="42.85842" lon="0.25539">
        <ele>1748.9</ele>
        <time>2022-02-09T08:44:44Z</time>
      </trkpt>
      <trkpt lat="42.85842" lon="0.25537">
        <ele>1749.4</ele>
        <time>2022-02-09T08:44:45Z</time>
      </trkpt>
      <trkpt lat="42.85841" lon="0.25536">
        <ele>1749.5</ele>
        <time>2022-02-09T08:44:46Z</time>
      </trkpt>
      <trkpt lat="42.85841" lon="0.25535">
        <ele>1749.7</ele>
        <time>2022-02-09T08:44:47Z</time>
      </trkpt>
      <trkpt lat="42.8584" lon="0.25535">
        <ele>1749.8</ele>
        <time>2022-02-09T08:44:48Z</time>
      </trkpt>
      <trkpt lat="42.8584" lon="0.25534">
        <ele>1750</ele>
        <time>2022-02-09T08:44:49Z</time>
      </trkpt>
      <trkpt lat="42.8584" lon="0.25534">
        <ele>1750.1</ele>
        <time>2022-02-09T08:44:50Z</time>
      </trkpt>
      <trkpt lat="42.8584" lon="0.25533">
        <ele>1750.2</ele>
        <time>2022-02-09T08:44:51Z</time>
      </trkpt>
      <trkpt lat="42.8584" lon="0.25533">
        <ele>1750.2</ele>
        <time>2022-02-09T08:44:52Z</time>
      </trkpt>
      <trkpt lat="42.8584" lon="0.25533">
        <ele>1750.2</ele>
        <time>2022-02-09T08:44:53Z</time>
      </trkpt>
      <trkpt lat="42.8584" lon="0.25533">
        <ele>1750.2</ele>
        <time>2022-02-09T08:44:54Z</time>
      </trkpt>
      <trkpt lat="42.85839" lon="0.25532">
        <ele>1750.3</ele>
        <time>2022-02-09T08:44:55Z</time>
      </trkpt>
      <trkpt lat="42.85839" lon="0.25531">
        <ele>1750.6</ele>
        <time>2022-02-09T08:44:56Z</time>
      </trkpt>
      <trkpt lat="42.85838" lon="0.2553">
        <ele>1750.8</ele>
        <time>2022-02-09T08:44:57Z</time>
      </trkpt>
      <trkpt lat="42.85837" lon="0.2553">
        <ele>1751</ele>
        <time>2022-02-09T08:44:58Z</time>
      </trkpt>
      <trkpt lat="42.85837" lon="0.25529">
        <ele>1751.2</ele>
        <time>2022-02-09T08:44:59Z</time>
      </trkpt>
      <trkpt lat="42.85837" lon="0.25528">
        <ele>1751.3</ele>
        <time>2022-02-09T08:45:00Z</time>
      </trkpt>
      <trkpt lat="42.85836" lon="0.25528">
        <ele>1751.5</ele>
        <time>2022-02-09T08:45:01Z</time>
      </trkpt>
      <trkpt lat="42.85836" lon="0.25527">
        <ele>1751.6</ele>
        <time>2022-02-09T08:45:02Z</time>
      </trkpt>
      <trkpt lat="42.85836" lon="0.25526">
        <ele>1751.7</ele>
        <time>2022-02-09T08:45:03Z</time>
      </trkpt>
      <trkpt lat="42.85836" lon="0.25526">
        <ele>1751.8</ele>
        <time>2022-02-09T08:45:04Z</time>
      </trkpt>
      <trkpt lat="42.85836" lon="0.25525">
        <ele>1751.9</ele>
        <time>2022-02-09T08:45:05Z</time>
      </trkpt>
      <trkpt lat="42.85837" lon="0.25525">
        <ele>1752</ele>
        <time>2022-02-09T08:45:06Z</time>
      </trkpt>
      <trkpt lat="42.85838" lon="0.25524">
        <ele>1752.2</ele>
        <time>2022-02-09T08:45:07Z</time>
      </trkpt>
      <trkpt lat="42.85838" lon="0.25524">
        <ele>1752.4</ele>
        <time>2022-02-09T08:45:08Z</time>
      </trkpt>
      <trkpt lat="42.85839" lon="0.25523">
        <ele>1752.6</ele>
        <time>2022-02-09T08:45:09Z</time>
      </trkpt>
      <trkpt lat="42.8584" lon="0.25523">
        <ele>1752.8</ele>
        <time>2022-02-09T08:45:10Z</time>
      </trkpt>
      <trkpt lat="42.8584" lon="0.25523">
        <ele>1752.9</ele>
        <time>2022-02-09T08:45:11Z</time>
      </trkpt>
      <trkpt lat="42.85841" lon="0.25523">
        <ele>1753</ele>
        <time>2022-02-09T08:45:12Z</time>
      </trkpt>
      <trkpt lat="42.85841" lon="0.25523">
        <ele>1753.1</ele>
        <time>2022-02-09T08:45:13Z</time>
      </trkpt>
      <trkpt lat="42.85841" lon="0.25523">
        <ele>1753.1</ele>
        <time>2022-02-09T08:45:14Z</time>
      </trkpt>
      <trkpt lat="42.85841" lon="0.25522">
        <ele>1753.2</ele>
        <time>2022-02-09T08:45:15Z</time>
      </trkpt>
      <trkpt lat="42.85841" lon="0.25522">
        <ele>1753.3</ele>
        <time>2022-02-09T08:45:16Z</time>
      </trkpt>
      <trkpt lat="42.85841" lon="0.25521">
        <ele>1753.4</ele>
        <time>2022-02-09T08:45:17Z</time>
      </trkpt>
      <trkpt lat="42.85841" lon="0.25521">
        <ele>1753.6</ele>
        <time>2022-02-09T08:45:18Z</time>
      </trkpt>
      <trkpt lat="42.8584" lon="0.2552">
        <ele>1753.7</ele>
        <time>2022-02-09T08:45:19Z</time>
      </trkpt>
      <trkpt lat="42.8584" lon="0.2552">
        <ele>1753.8</ele>
        <time>2022-02-09T08:45:20Z</time>
      </trkpt>
      <trkpt lat="42.85839" lon="0.2552">
        <ele>1754</ele>
        <time>2022-02-09T08:45:21Z</time>
      </trkpt>
      <trkpt lat="42.85838" lon="0.25519">
        <ele>1754.2</ele>
        <time>2022-02-09T08:45:22Z</time>
      </trkpt>
      <trkpt lat="42.85837" lon="0.25519">
        <ele>1754.3</ele>
        <time>2022-02-09T08:45:23Z</time>
      </trkpt>
      <trkpt lat="42.85837" lon="0.25518">
        <ele>1754.5</ele>
        <time>2022-02-09T08:45:24Z</time>
      </trkpt>
      <trkpt lat="42.85836" lon="0.25518">
        <ele>1754.6</ele>
        <time>2022-02-09T08:45:25Z</time>
      </trkpt>
      <trkpt lat="42.85836" lon="0.25517">
        <ele>1754.8</ele>
        <time>2022-02-09T08:45:26Z</time>
      </trkpt>
      <trkpt lat="42.85835" lon="0.25517">
        <ele>1754.9</ele>
        <time>2022-02-09T08:45:27Z</time>
      </trkpt>
      <trkpt lat="42.85834" lon="0.25517">
        <ele>1755.1</ele>
        <time>2022-02-09T08:45:28Z</time>
      </trkpt>
      <trkpt lat="42.85834" lon="0.25516">
        <ele>1755.2</ele>
        <time>2022-02-09T08:45:29Z</time>
      </trkpt>
      <trkpt lat="42.85833" lon="0.25516">
        <ele>1755.3</ele>
        <time>2022-02-09T08:45:30Z</time>
      </trkpt>
      <trkpt lat="42.85832" lon="0.25515">
        <ele>1755.5</ele>
        <time>2022-02-09T08:45:31Z</time>
      </trkpt>
      <trkpt lat="42.85832" lon="0.25515">
        <ele>1755.7</ele>
        <time>2022-02-09T08:45:32Z</time>
      </trkpt>
      <trkpt lat="42.85831" lon="0.25514">
        <ele>1755.8</ele>
        <time>2022-02-09T08:45:33Z</time>
      </trkpt>
      <trkpt lat="42.8583" lon="0.25514">
        <ele>1755.9</ele>
        <time>2022-02-09T08:45:34Z</time>
      </trkpt>
      <trkpt lat="42.8583" lon="0.25513">
        <ele>1756.1</ele>
        <time>2022-02-09T08:45:35Z</time>
      </trkpt>
      <trkpt lat="42.85829" lon="0.25513">
        <ele>1756.2</ele>
        <time>2022-02-09T08:45:36Z</time>
      </trkpt>
      <trkpt lat="42.85829" lon="0.25513">
        <ele>1756.3</ele>
        <time>2022-02-09T08:45:37Z</time>
      </trkpt>
      <trkpt lat="42.85828" lon="0.25513">
        <ele>1756.5</ele>
        <time>2022-02-09T08:45:38Z</time>
      </trkpt>
      <trkpt lat="42.85827" lon="0.25512">
        <ele>1756.7</ele>
        <time>2022-02-09T08:45:39Z</time>
      </trkpt>
      <trkpt lat="42.85826" lon="0.25512">
        <ele>1756.8</ele>
        <time>2022-02-09T08:45:40Z</time>
      </trkpt>
      <trkpt lat="42.85826" lon="0.25512">
        <ele>1757</ele>
        <time>2022-02-09T08:45:41Z</time>
      </trkpt>
      <trkpt lat="42.85825" lon="0.25511">
        <ele>1757.1</ele>
        <time>2022-02-09T08:45:42Z</time>
      </trkpt>
      <trkpt lat="42.85824" lon="0.25511">
        <ele>1757.3</ele>
        <time>2022-02-09T08:45:43Z</time>
      </trkpt>
      <trkpt lat="42.85823" lon="0.25511">
        <ele>1757.5</ele>
        <time>2022-02-09T08:45:44Z</time>
      </trkpt>
      <trkpt lat="42.85822" lon="0.2551">
        <ele>1757.7</ele>
        <time>2022-02-09T08:45:45Z</time>
      </trkpt>
      <trkpt lat="42.85822" lon="0.2551">
        <ele>1757.8</ele>
        <time>2022-02-09T08:45:46Z</time>
      </trkpt>
      <trkpt lat="42.85821" lon="0.25509">
        <ele>1758</ele>
        <time>2022-02-09T08:45:47Z</time>
      </trkpt>
      <trkpt lat="42.8582" lon="0.25509">
        <ele>1758.1</ele>
        <time>2022-02-09T08:45:48Z</time>
      </trkpt>
      <trkpt lat="42.8582" lon="0.25508">
        <ele>1758.2</ele>
        <time>2022-02-09T08:45:49Z</time>
      </trkpt>
      <trkpt lat="42.8582" lon="0.25508">
        <ele>1758.3</ele>
        <time>2022-02-09T08:45:50Z</time>
      </trkpt>
      <trkpt lat="42.85821" lon="0.25507">
        <ele>1758.4</ele>
        <time>2022-02-09T08:45:51Z</time>
      </trkpt>
      <trkpt lat="42.85821" lon="0.25506">
        <ele>1758.6</ele>
        <time>2022-02-09T08:45:52Z</time>
      </trkpt>
      <trkpt lat="42.85821" lon="0.25506">
        <ele>1758.7</ele>
        <time>2022-02-09T08:45:53Z</time>
      </trkpt>
      <trkpt lat="42.85821" lon="0.25505">
        <ele>1758.8</ele>
        <time>2022-02-09T08:45:54Z</time>
      </trkpt>
      <trkpt lat="42.85822" lon="0.25504">
        <ele>1758.9</ele>
        <time>2022-02-09T08:45:55Z</time>
      </trkpt>
      <trkpt lat="42.85822" lon="0.25504">
        <ele>1759</ele>
        <time>2022-02-09T08:45:56Z</time>
      </trkpt>
      <trkpt lat="42.85823" lon="0.25503">
        <ele>1759.2</ele>
        <time>2022-02-09T08:45:57Z</time>
      </trkpt>
      <trkpt lat="42.85823" lon="0.25502">
        <ele>1759.3</ele>
        <time>2022-02-09T08:45:58Z</time>
      </trkpt>
      <trkpt lat="42.85823" lon="0.25502">
        <ele>1759.4</ele>
        <time>2022-02-09T08:45:59Z</time>
      </trkpt>
      <trkpt lat="42.85824" lon="0.25501">
        <ele>1759.5</ele>
        <time>2022-02-09T08:46:00Z</time>
      </trkpt>
      <trkpt lat="42.85824" lon="0.255">
        <ele>1759.6</ele>
        <time>2022-02-09T08:46:01Z</time>
      </trkpt>
      <trkpt lat="42.85825" lon="0.255">
        <ele>1759.8</ele>
        <time>2022-02-09T08:46:02Z</time>
      </trkpt>
      <trkpt lat="42.85825" lon="0.25499">
        <ele>1759.9</ele>
        <time>2022-02-09T08:46:03Z</time>
      </trkpt>
      <trkpt lat="42.85825" lon="0.25499">
        <ele>1760</ele>
        <time>2022-02-09T08:46:04Z</time>
      </trkpt>
      <trkpt lat="42.85826" lon="0.25499">
        <ele>1760</ele>
        <time>2022-02-09T08:46:05Z</time>
      </trkpt>
      <trkpt lat="42.85826" lon="0.25498">
        <ele>1760.1</ele>
        <time>2022-02-09T08:46:06Z</time>
      </trkpt>
      <trkpt lat="42.85826" lon="0.25498">
        <ele>1760.3</ele>
        <time>2022-02-09T08:46:07Z</time>
      </trkpt>
      <trkpt lat="42.85827" lon="0.25497">
        <ele>1760.3</ele>
        <time>2022-02-09T08:46:08Z</time>
      </trkpt>
      <trkpt lat="42.85826" lon="0.25497">
        <ele>1760.4</ele>
        <time>2022-02-09T08:46:09Z</time>
      </trkpt>
      <trkpt lat="42.85826" lon="0.25496">
        <ele>1760.5</ele>
        <time>2022-02-09T08:46:10Z</time>
      </trkpt>
      <trkpt lat="42.85826" lon="0.25496">
        <ele>1760.6</ele>
        <time>2022-02-09T08:46:11Z</time>
      </trkpt>
      <trkpt lat="42.85825" lon="0.25495">
        <ele>1760.7</ele>
        <time>2022-02-09T08:46:12Z</time>
      </trkpt>
      <trkpt lat="42.85824" lon="0.25495">
        <ele>1760.9</ele>
        <time>2022-02-09T08:46:13Z</time>
      </trkpt>
      <trkpt lat="42.85824" lon="0.25495">
        <ele>1761</ele>
        <time>2022-02-09T08:46:14Z</time>
      </trkpt>
      <trkpt lat="42.85823" lon="0.25495">
        <ele>1761.2</ele>
        <time>2022-02-09T08:46:15Z</time>
      </trkpt>
      <trkpt lat="42.85822" lon="0.25495">
        <ele>1761.4</ele>
        <time>2022-02-09T08:46:16Z</time>
      </trkpt>
      <trkpt lat="42.85821" lon="0.25495">
        <ele>1761.5</ele>
        <time>2022-02-09T08:46:17Z</time>
      </trkpt>
      <trkpt lat="42.8582" lon="0.25495">
        <ele>1761.7</ele>
        <time>2022-02-09T08:46:18Z</time>
      </trkpt>
      <trkpt lat="42.8582" lon="0.25495">
        <ele>1761.8</ele>
        <time>2022-02-09T08:46:19Z</time>
      </trkpt>
      <trkpt lat="42.85819" lon="0.25495">
        <ele>1761.9</ele>
        <time>2022-02-09T08:46:20Z</time>
      </trkpt>
      <trkpt lat="42.85818" lon="0.25495">
        <ele>1762</ele>
        <time>2022-02-09T08:46:21Z</time>
      </trkpt>
      <trkpt lat="42.85817" lon="0.25495">
        <ele>1762.2</ele>
        <time>2022-02-09T08:46:22Z</time>
      </trkpt>
      <trkpt lat="42.85817" lon="0.25494">
        <ele>1762.4</ele>
        <time>2022-02-09T08:46:23Z</time>
      </trkpt>
      <trkpt lat="42.85816" lon="0.25494">
        <ele>1762.5</ele>
        <time>2022-02-09T08:46:24Z</time>
      </trkpt>
      <trkpt lat="42.85815" lon="0.25494">
        <ele>1762.7</ele>
        <time>2022-02-09T08:46:25Z</time>
      </trkpt>
      <trkpt lat="42.85814" lon="0.25494">
        <ele>1762.8</ele>
        <time>2022-02-09T08:46:26Z</time>
      </trkpt>
      <trkpt lat="42.85813" lon="0.25493">
        <ele>1763</ele>
        <time>2022-02-09T08:46:27Z</time>
      </trkpt>
      <trkpt lat="42.85812" lon="0.25493">
        <ele>1763.1</ele>
        <time>2022-02-09T08:46:28Z</time>
      </trkpt>
      <trkpt lat="42.85812" lon="0.25492">
        <ele>1763.3</ele>
        <time>2022-02-09T08:46:29Z</time>
      </trkpt>
      <trkpt lat="42.85811" lon="0.25492">
        <ele>1763.4</ele>
        <time>2022-02-09T08:46:30Z</time>
      </trkpt>
      <trkpt lat="42.85811" lon="0.25492">
        <ele>1763.5</ele>
        <time>2022-02-09T08:46:31Z</time>
      </trkpt>
      <trkpt lat="42.8581" lon="0.25491">
        <ele>1763.7</ele>
        <time>2022-02-09T08:46:32Z</time>
      </trkpt>
      <trkpt lat="42.8581" lon="0.2549">
        <ele>1763.8</ele>
        <time>2022-02-09T08:46:33Z</time>
      </trkpt>
      <trkpt lat="42.85809" lon="0.2549">
        <ele>1763.9</ele>
        <time>2022-02-09T08:46:34Z</time>
      </trkpt>
      <trkpt lat="42.85808" lon="0.25489">
        <ele>1764.1</ele>
        <time>2022-02-09T08:46:35Z</time>
      </trkpt>
      <trkpt lat="42.85808" lon="0.25488">
        <ele>1764.2</ele>
        <time>2022-02-09T08:46:36Z</time>
      </trkpt>
      <trkpt lat="42.85807" lon="0.25488">
        <ele>1764.3</ele>
        <time>2022-02-09T08:46:37Z</time>
      </trkpt>
      <trkpt lat="42.85807" lon="0.25488">
        <ele>1764.5</ele>
        <time>2022-02-09T08:46:38Z</time>
      </trkpt>
      <trkpt lat="42.85806" lon="0.25487">
        <ele>1764.6</ele>
        <time>2022-02-09T08:46:39Z</time>
      </trkpt>
      <trkpt lat="42.85806" lon="0.25487">
        <ele>1764.6</ele>
        <time>2022-02-09T08:46:40Z</time>
      </trkpt>
      <trkpt lat="42.85805" lon="0.25486">
        <ele>1764.7</ele>
        <time>2022-02-09T08:46:41Z</time>
      </trkpt>
      <trkpt lat="42.85805" lon="0.25486">
        <ele>1764.9</ele>
        <time>2022-02-09T08:46:42Z</time>
      </trkpt>
      <trkpt lat="42.85804" lon="0.25485">
        <ele>1765</ele>
        <time>2022-02-09T08:46:43Z</time>
      </trkpt>
      <trkpt lat="42.85804" lon="0.25485">
        <ele>1765.1</ele>
        <time>2022-02-09T08:46:44Z</time>
      </trkpt>
      <trkpt lat="42.85804" lon="0.25484">
        <ele>1765.2</ele>
        <time>2022-02-09T08:46:45Z</time>
      </trkpt>
      <trkpt lat="42.85803" lon="0.25484">
        <ele>1765.2</ele>
        <time>2022-02-09T08:46:46Z</time>
      </trkpt>
      <trkpt lat="42.85803" lon="0.25483">
        <ele>1765.4</ele>
        <time>2022-02-09T08:46:47Z</time>
      </trkpt>
      <trkpt lat="42.85803" lon="0.25482">
        <ele>1765.5</ele>
        <time>2022-02-09T08:46:48Z</time>
      </trkpt>
      <trkpt lat="42.85802" lon="0.25482">
        <ele>1765.6</ele>
        <time>2022-02-09T08:46:49Z</time>
      </trkpt>
      <trkpt lat="42.85802" lon="0.25482">
        <ele>1765.7</ele>
        <time>2022-02-09T08:46:50Z</time>
      </trkpt>
      <trkpt lat="42.85802" lon="0.25481">
        <ele>1765.7</ele>
        <time>2022-02-09T08:46:51Z</time>
      </trkpt>
      <trkpt lat="42.85801" lon="0.25481">
        <ele>1765.8</ele>
        <time>2022-02-09T08:46:52Z</time>
      </trkpt>
      <trkpt lat="42.85801" lon="0.2548">
        <ele>1765.9</ele>
        <time>2022-02-09T08:46:53Z</time>
      </trkpt>
      <trkpt lat="42.85801" lon="0.2548">
        <ele>1766</ele>
        <time>2022-02-09T08:46:54Z</time>
      </trkpt>
      <trkpt lat="42.858" lon="0.25479">
        <ele>1766.1</ele>
        <time>2022-02-09T08:46:55Z</time>
      </trkpt>
      <trkpt lat="42.858" lon="0.25479">
        <ele>1766.2</ele>
        <time>2022-02-09T08:46:56Z</time>
      </trkpt>
      <trkpt lat="42.85799" lon="0.25478">
        <ele>1766.3</ele>
        <time>2022-02-09T08:46:57Z</time>
      </trkpt>
      <trkpt lat="42.85799" lon="0.25478">
        <ele>1766.5</ele>
        <time>2022-02-09T08:46:58Z</time>
      </trkpt>
      <trkpt lat="42.85798" lon="0.25477">
        <ele>1766.6</ele>
        <time>2022-02-09T08:46:59Z</time>
      </trkpt>
      <trkpt lat="42.85798" lon="0.25477">
        <ele>1766.7</ele>
        <time>2022-02-09T08:47:00Z</time>
      </trkpt>
      <trkpt lat="42.85797" lon="0.25476">
        <ele>1766.8</ele>
        <time>2022-02-09T08:47:01Z</time>
      </trkpt>
      <trkpt lat="42.85797" lon="0.25475">
        <ele>1766.9</ele>
        <time>2022-02-09T08:47:02Z</time>
      </trkpt>
      <trkpt lat="42.85798" lon="0.25474">
        <ele>1767.1</ele>
        <time>2022-02-09T08:47:03Z</time>
      </trkpt>
      <trkpt lat="42.85798" lon="0.25473">
        <ele>1767.2</ele>
        <time>2022-02-09T08:47:04Z</time>
      </trkpt>
      <trkpt lat="42.85798" lon="0.25472">
        <ele>1767.3</ele>
        <time>2022-02-09T08:47:05Z</time>
      </trkpt>
      <trkpt lat="42.85798" lon="0.25471">
        <ele>1767.4</ele>
        <time>2022-02-09T08:47:06Z</time>
      </trkpt>
      <trkpt lat="42.85798" lon="0.2547">
        <ele>1767.6</ele>
        <time>2022-02-09T08:47:07Z</time>
      </trkpt>
      <trkpt lat="42.85798" lon="0.25469">
        <ele>1767.7</ele>
        <time>2022-02-09T08:47:08Z</time>
      </trkpt>
      <trkpt lat="42.85798" lon="0.25468">
        <ele>1767.8</ele>
        <time>2022-02-09T08:47:09Z</time>
      </trkpt>
      <trkpt lat="42.85798" lon="0.25468">
        <ele>1767.9</ele>
        <time>2022-02-09T08:47:10Z</time>
      </trkpt>
      <trkpt lat="42.85798" lon="0.25467">
        <ele>1768.1</ele>
        <time>2022-02-09T08:47:11Z</time>
      </trkpt>
      <trkpt lat="42.85798" lon="0.25466">
        <ele>1768.2</ele>
        <time>2022-02-09T08:47:12Z</time>
      </trkpt>
      <trkpt lat="42.85798" lon="0.25465">
        <ele>1768.3</ele>
        <time>2022-02-09T08:47:13Z</time>
      </trkpt>
      <trkpt lat="42.85798" lon="0.25464">
        <ele>1768.5</ele>
        <time>2022-02-09T08:47:14Z</time>
      </trkpt>
      <trkpt lat="42.85798" lon="0.25463">
        <ele>1768.6</ele>
        <time>2022-02-09T08:47:15Z</time>
      </trkpt>
      <trkpt lat="42.85797" lon="0.25462">
        <ele>1768.8</ele>
        <time>2022-02-09T08:47:16Z</time>
      </trkpt>
      <trkpt lat="42.85796" lon="0.25461">
        <ele>1769</ele>
        <time>2022-02-09T08:47:17Z</time>
      </trkpt>
      <trkpt lat="42.85796" lon="0.2546">
        <ele>1769.1</ele>
        <time>2022-02-09T08:47:18Z</time>
      </trkpt>
      <trkpt lat="42.85795" lon="0.2546">
        <ele>1769.2</ele>
        <time>2022-02-09T08:47:19Z</time>
      </trkpt>
      <trkpt lat="42.85795" lon="0.25459">
        <ele>1769.4</ele>
        <time>2022-02-09T08:47:20Z</time>
      </trkpt>
      <trkpt lat="42.85794" lon="0.25458">
        <ele>1769.5</ele>
        <time>2022-02-09T08:47:21Z</time>
      </trkpt>
      <trkpt lat="42.85794" lon="0.25458">
        <ele>1769.6</ele>
        <time>2022-02-09T08:47:22Z</time>
      </trkpt>
      <trkpt lat="42.85793" lon="0.25457">
        <ele>1769.7</ele>
        <time>2022-02-09T08:47:23Z</time>
      </trkpt>
      <trkpt lat="42.85793" lon="0.25456">
        <ele>1769.8</ele>
        <time>2022-02-09T08:47:24Z</time>
      </trkpt>
      <trkpt lat="42.85792" lon="0.25456">
        <ele>1770</ele>
        <time>2022-02-09T08:47:25Z</time>
      </trkpt>
      <trkpt lat="42.85792" lon="0.25455">
        <ele>1770</ele>
        <time>2022-02-09T08:47:26Z</time>
      </trkpt>
      <trkpt lat="42.85792" lon="0.25454">
        <ele>1770.2</ele>
        <time>2022-02-09T08:47:27Z</time>
      </trkpt>
      <trkpt lat="42.85791" lon="0.25454">
        <ele>1770.3</ele>
        <time>2022-02-09T08:47:28Z</time>
      </trkpt>
      <trkpt lat="42.85791" lon="0.25453">
        <ele>1770.4</ele>
        <time>2022-02-09T08:47:29Z</time>
      </trkpt>
      <trkpt lat="42.85791" lon="0.25453">
        <ele>1770.4</ele>
        <time>2022-02-09T08:47:30Z</time>
      </trkpt>
      <trkpt lat="42.8579" lon="0.25452">
        <ele>1770.6</ele>
        <time>2022-02-09T08:47:31Z</time>
      </trkpt>
      <trkpt lat="42.8579" lon="0.25452">
        <ele>1770.7</ele>
        <time>2022-02-09T08:47:32Z</time>
      </trkpt>
      <trkpt lat="42.85789" lon="0.25451">
        <ele>1770.7</ele>
        <time>2022-02-09T08:47:33Z</time>
      </trkpt>
      <trkpt lat="42.85789" lon="0.25451">
        <ele>1770.8</ele>
        <time>2022-02-09T08:47:34Z</time>
      </trkpt>
      <trkpt lat="42.85789" lon="0.25451">
        <ele>1770.9</ele>
        <time>2022-02-09T08:47:35Z</time>
      </trkpt>
      <trkpt lat="42.85788" lon="0.2545">
        <ele>1771</ele>
        <time>2022-02-09T08:47:36Z</time>
      </trkpt>
      <trkpt lat="42.85788" lon="0.2545">
        <ele>1771.1</ele>
        <time>2022-02-09T08:47:37Z</time>
      </trkpt>
      <trkpt lat="42.85787" lon="0.2545">
        <ele>1771.2</ele>
        <time>2022-02-09T08:47:38Z</time>
      </trkpt>
      <trkpt lat="42.85787" lon="0.25449">
        <ele>1771.2</ele>
        <time>2022-02-09T08:47:39Z</time>
      </trkpt>
      <trkpt lat="42.85787" lon="0.25449">
        <ele>1771.3</ele>
        <time>2022-02-09T08:47:40Z</time>
      </trkpt>
      <trkpt lat="42.85786" lon="0.25449">
        <ele>1771.4</ele>
        <time>2022-02-09T08:47:41Z</time>
      </trkpt>
      <trkpt lat="42.85786" lon="0.25448">
        <ele>1771.5</ele>
        <time>2022-02-09T08:47:42Z</time>
      </trkpt>
      <trkpt lat="42.85785" lon="0.25448">
        <ele>1771.6</ele>
        <time>2022-02-09T08:47:43Z</time>
      </trkpt>
      <trkpt lat="42.85785" lon="0.25447">
        <ele>1771.7</ele>
        <time>2022-02-09T08:47:44Z</time>
      </trkpt>
      <trkpt lat="42.85784" lon="0.25447">
        <ele>1771.8</ele>
        <time>2022-02-09T08:47:45Z</time>
      </trkpt>
      <trkpt lat="42.85784" lon="0.25446">
        <ele>1771.9</ele>
        <time>2022-02-09T08:47:46Z</time>
      </trkpt>
      <trkpt lat="42.85783" lon="0.25445">
        <ele>1772.1</ele>
        <time>2022-02-09T08:47:47Z</time>
      </trkpt>
      <trkpt lat="42.85783" lon="0.25444">
        <ele>1772.2</ele>
        <time>2022-02-09T08:47:48Z</time>
      </trkpt>
      <trkpt lat="42.85782" lon="0.25444">
        <ele>1772.3</ele>
        <time>2022-02-09T08:47:49Z</time>
      </trkpt>
      <trkpt lat="42.85782" lon="0.25443">
        <ele>1772.4</ele>
        <time>2022-02-09T08:47:50Z</time>
      </trkpt>
      <trkpt lat="42.85782" lon="0.25442">
        <ele>1772.5</ele>
        <time>2022-02-09T08:47:51Z</time>
      </trkpt>
      <trkpt lat="42.85781" lon="0.25441">
        <ele>1772.6</ele>
        <time>2022-02-09T08:47:52Z</time>
      </trkpt>
      <trkpt lat="42.85781" lon="0.2544">
        <ele>1772.7</ele>
        <time>2022-02-09T08:47:53Z</time>
      </trkpt>
      <trkpt lat="42.85781" lon="0.25439">
        <ele>1772.8</ele>
        <time>2022-02-09T08:47:54Z</time>
      </trkpt>
      <trkpt lat="42.8578" lon="0.25439">
        <ele>1773</ele>
        <time>2022-02-09T08:47:55Z</time>
      </trkpt>
      <trkpt lat="42.8578" lon="0.25438">
        <ele>1773.1</ele>
        <time>2022-02-09T08:47:56Z</time>
      </trkpt>
      <trkpt lat="42.85779" lon="0.25437">
        <ele>1773.2</ele>
        <time>2022-02-09T08:47:57Z</time>
      </trkpt>
      <trkpt lat="42.85779" lon="0.25436">
        <ele>1773.3</ele>
        <time>2022-02-09T08:47:58Z</time>
      </trkpt>
      <trkpt lat="42.85779" lon="0.25436">
        <ele>1773.4</ele>
        <time>2022-02-09T08:47:59Z</time>
      </trkpt>
      <trkpt lat="42.85778" lon="0.25435">
        <ele>1773.5</ele>
        <time>2022-02-09T08:48:00Z</time>
      </trkpt>
      <trkpt lat="42.85777" lon="0.25435">
        <ele>1773.6</ele>
        <time>2022-02-09T08:48:01Z</time>
      </trkpt>
      <trkpt lat="42.85777" lon="0.25434">
        <ele>1773.7</ele>
        <time>2022-02-09T08:48:02Z</time>
      </trkpt>
      <trkpt lat="42.85776" lon="0.25433">
        <ele>1773.9</ele>
        <time>2022-02-09T08:48:03Z</time>
      </trkpt>
      <trkpt lat="42.85775" lon="0.25433">
        <ele>1774.1</ele>
        <time>2022-02-09T08:48:04Z</time>
      </trkpt>
      <trkpt lat="42.85774" lon="0.25432">
        <ele>1774.2</ele>
        <time>2022-02-09T08:48:05Z</time>
      </trkpt>
      <trkpt lat="42.85773" lon="0.25431">
        <ele>1774.3</ele>
        <time>2022-02-09T08:48:06Z</time>
      </trkpt>
      <trkpt lat="42.85773" lon="0.25431">
        <ele>1774.4</ele>
        <time>2022-02-09T08:48:07Z</time>
      </trkpt>
      <trkpt lat="42.85772" lon="0.2543">
        <ele>1774.5</ele>
        <time>2022-02-09T08:48:08Z</time>
      </trkpt>
      <trkpt lat="42.85772" lon="0.25429">
        <ele>1774.7</ele>
        <time>2022-02-09T08:48:09Z</time>
      </trkpt>
      <trkpt lat="42.85771" lon="0.25429">
        <ele>1774.8</ele>
        <time>2022-02-09T08:48:10Z</time>
      </trkpt>
      <trkpt lat="42.85771" lon="0.25428">
        <ele>1774.9</ele>
        <time>2022-02-09T08:48:11Z</time>
      </trkpt>
      <trkpt lat="42.85771" lon="0.25427">
        <ele>1775</ele>
        <time>2022-02-09T08:48:12Z</time>
      </trkpt>
      <trkpt lat="42.8577" lon="0.25426">
        <ele>1775.1</ele>
        <time>2022-02-09T08:48:13Z</time>
      </trkpt>
      <trkpt lat="42.8577" lon="0.25426">
        <ele>1775.2</ele>
        <time>2022-02-09T08:48:14Z</time>
      </trkpt>
      <trkpt lat="42.8577" lon="0.25425">
        <ele>1775.3</ele>
        <time>2022-02-09T08:48:15Z</time>
      </trkpt>
      <trkpt lat="42.8577" lon="0.25424">
        <ele>1775.4</ele>
        <time>2022-02-09T08:48:16Z</time>
      </trkpt>
      <trkpt lat="42.85769" lon="0.25423">
        <ele>1775.5</ele>
        <time>2022-02-09T08:48:17Z</time>
      </trkpt>
      <trkpt lat="42.85769" lon="0.25422">
        <ele>1775.7</ele>
        <time>2022-02-09T08:48:18Z</time>
      </trkpt>
      <trkpt lat="42.85768" lon="0.25421">
        <ele>1775.8</ele>
        <time>2022-02-09T08:48:19Z</time>
      </trkpt>
      <trkpt lat="42.85768" lon="0.25421">
        <ele>1775.9</ele>
        <time>2022-02-09T08:48:20Z</time>
      </trkpt>
      <trkpt lat="42.85767" lon="0.2542">
        <ele>1776.1</ele>
        <time>2022-02-09T08:48:21Z</time>
      </trkpt>
      <trkpt lat="42.85767" lon="0.25419">
        <ele>1776.1</ele>
        <time>2022-02-09T08:48:22Z</time>
      </trkpt>
      <trkpt lat="42.85767" lon="0.25419">
        <ele>1776.2</ele>
        <time>2022-02-09T08:48:23Z</time>
      </trkpt>
      <trkpt lat="42.85767" lon="0.25419">
        <ele>1776.2</ele>
        <time>2022-02-09T08:48:24Z</time>
      </trkpt>
      <trkpt lat="42.85767" lon="0.25419">
        <ele>1776.2</ele>
        <time>2022-02-09T08:48:25Z</time>
      </trkpt>
      <trkpt lat="42.85767" lon="0.25419">
        <ele>1776.2</ele>
        <time>2022-02-09T08:48:26Z</time>
      </trkpt>
      <trkpt lat="42.85767" lon="0.25419">
        <ele>1776.2</ele>
        <time>2022-02-09T08:48:27Z</time>
      </trkpt>
      <trkpt lat="42.85767" lon="0.25419">
        <ele>1776.2</ele>
        <time>2022-02-09T08:48:28Z</time>
      </trkpt>
      <trkpt lat="42.85767" lon="0.25419">
        <ele>1776.2</ele>
        <time>2022-02-09T08:48:29Z</time>
      </trkpt>
      <trkpt lat="42.85767" lon="0.25419">
        <ele>1776.2</ele>
        <time>2022-02-09T08:48:30Z</time>
      </trkpt>
      <trkpt lat="42.85767" lon="0.25419">
        <ele>1776.2</ele>
        <time>2022-02-09T08:48:31Z</time>
      </trkpt>
      <trkpt lat="42.85767" lon="0.25419">
        <ele>1776.2</ele>
        <time>2022-02-09T08:48:32Z</time>
      </trkpt>
      <trkpt lat="42.85767" lon="0.25419">
        <ele>1776.2</ele>
        <time>2022-02-09T08:48:33Z</time>
      </trkpt>
      <trkpt lat="42.85767" lon="0.25419">
        <ele>1776.2</ele>
        <time>2022-02-09T08:48:34Z</time>
      </trkpt>
      <trkpt lat="42.85767" lon="0.25419">
        <ele>1776.2</ele>
        <time>2022-02-09T08:48:35Z</time>
      </trkpt>
      <trkpt lat="42.85767" lon="0.25419">
        <ele>1776.2</ele>
        <time>2022-02-09T08:48:36Z</time>
      </trkpt>
      <trkpt lat="42.85767" lon="0.25419">
        <ele>1776.2</ele>
        <time>2022-02-09T08:48:37Z</time>
      </trkpt>
      <trkpt lat="42.85767" lon="0.25419">
        <ele>1776.2</ele>
        <time>2022-02-09T08:48:38Z</time>
      </trkpt>
      <trkpt lat="42.85767" lon="0.25419">
        <ele>1776.2</ele>
        <time>2022-02-09T08:48:39Z</time>
      </trkpt>
      <trkpt lat="42.85767" lon="0.25419">
        <ele>1776.2</ele>
        <time>2022-02-09T08:48:40Z</time>
      </trkpt>
      <trkpt lat="42.85767" lon="0.25419">
        <ele>1776.2</ele>
        <time>2022-02-09T08:48:41Z</time>
      </trkpt>
      <trkpt lat="42.85767" lon="0.25419">
        <ele>1776.2</ele>
        <time>2022-02-09T08:48:42Z</time>
      </trkpt>
      <trkpt lat="42.85767" lon="0.25419">
        <ele>1776.2</ele>
        <time>2022-02-09T08:48:43Z</time>
      </trkpt>
      <trkpt lat="42.85767" lon="0.25419">
        <ele>1776.2</ele>
        <time>2022-02-09T08:48:44Z</time>
      </trkpt>
      <trkpt lat="42.85767" lon="0.25419">
        <ele>1776.2</ele>
        <time>2022-02-09T08:48:45Z</time>
      </trkpt>
      <trkpt lat="42.85767" lon="0.25419">
        <ele>1776.2</ele>
        <time>2022-02-09T08:48:46Z</time>
      </trkpt>
      <trkpt lat="42.85767" lon="0.25419">
        <ele>1776.2</ele>
        <time>2022-02-09T08:48:47Z</time>
      </trkpt>
      <trkpt lat="42.85767" lon="0.25419">
        <ele>1776.2</ele>
        <time>2022-02-09T08:48:48Z</time>
      </trkpt>
      <trkpt lat="42.85767" lon="0.25419">
        <ele>1776.2</ele>
        <time>2022-02-09T08:48:49Z</time>
      </trkpt>
      <trkpt lat="42.85767" lon="0.25419">
        <ele>1776.2</ele>
        <time>2022-02-09T08:48:50Z</time>
      </trkpt>
      <trkpt lat="42.85767" lon="0.25419">
        <ele>1776.2</ele>
        <time>2022-02-09T08:48:51Z</time>
      </trkpt>
      <trkpt lat="42.85767" lon="0.25419">
        <ele>1776.2</ele>
        <time>2022-02-09T08:48:52Z</time>
      </trkpt>
      <trkpt lat="42.85767" lon="0.25419">
        <ele>1776.2</ele>
        <time>2022-02-09T08:48:53Z</time>
      </trkpt>
      <trkpt lat="42.85767" lon="0.25419">
        <ele>1776.2</ele>
        <time>2022-02-09T08:48:54Z</time>
      </trkpt>
      <trkpt lat="42.85767" lon="0.25419">
        <ele>1776.2</ele>
        <time>2022-02-09T08:48:55Z</time>
      </trkpt>
      <trkpt lat="42.85767" lon="0.25419">
        <ele>1776.2</ele>
        <time>2022-02-09T08:48:56Z</time>
      </trkpt>
      <trkpt lat="42.85767" lon="0.25419">
        <ele>1776.2</ele>
        <time>2022-02-09T08:48:57Z</time>
      </trkpt>
      <trkpt lat="42.85767" lon="0.25419">
        <ele>1776.2</ele>
        <time>2022-02-09T08:48:58Z</time>
      </trkpt>
      <trkpt lat="42.85767" lon="0.25419">
        <ele>1776.2</ele>
        <time>2022-02-09T08:48:59Z</time>
      </trkpt>
      <trkpt lat="42.85767" lon="0.25419">
        <ele>1776.2</ele>
        <time>2022-02-09T08:49:00Z</time>
      </trkpt>
      <trkpt lat="42.85767" lon="0.25419">
        <ele>1776.2</ele>
        <time>2022-02-09T08:49:01Z</time>
      </trkpt>
      <trkpt lat="42.85767" lon="0.25419">
        <ele>1776.2</ele>
        <time>2022-02-09T08:49:02Z</time>
      </trkpt>
      <trkpt lat="42.85767" lon="0.25419">
        <ele>1776.2</ele>
        <time>2022-02-09T08:49:03Z</time>
      </trkpt>
      <trkpt lat="42.85767" lon="0.25419">
        <ele>1776.2</ele>
        <time>2022-02-09T08:49:04Z</time>
      </trkpt>
      <trkpt lat="42.85767" lon="0.25419">
        <ele>1776.2</ele>
        <time>2022-02-09T08:49:05Z</time>
      </trkpt>
      <trkpt lat="42.85767" lon="0.25419">
        <ele>1776.2</ele>
        <time>2022-02-09T08:49:06Z</time>
      </trkpt>
      <trkpt lat="42.85767" lon="0.25419">
        <ele>1776.2</ele>
        <time>2022-02-09T08:49:07Z</time>
      </trkpt>
      <trkpt lat="42.85767" lon="0.25419">
        <ele>1776.2</ele>
        <time>2022-02-09T08:49:08Z</time>
      </trkpt>
      <trkpt lat="42.85767" lon="0.25419">
        <ele>1776.2</ele>
        <time>2022-02-09T08:49:09Z</time>
      </trkpt>
      <trkpt lat="42.85767" lon="0.25419">
        <ele>1776.2</ele>
        <time>2022-02-09T08:49:10Z</time>
      </trkpt>
      <trkpt lat="42.85767" lon="0.25419">
        <ele>1776.2</ele>
        <time>2022-02-09T08:49:11Z</time>
      </trkpt>
      <trkpt lat="42.85767" lon="0.25419">
        <ele>1776.2</ele>
        <time>2022-02-09T08:49:12Z</time>
      </trkpt>
      <trkpt lat="42.85767" lon="0.25419">
        <ele>1776.2</ele>
        <time>2022-02-09T08:49:13Z</time>
      </trkpt>
      <trkpt lat="42.85767" lon="0.25419">
        <ele>1776.2</ele>
        <time>2022-02-09T08:49:14Z</time>
      </trkpt>
      <trkpt lat="42.85767" lon="0.25419">
        <ele>1776.2</ele>
        <time>2022-02-09T08:49:15Z</time>
      </trkpt>
      <trkpt lat="42.85767" lon="0.25419">
        <ele>1776.2</ele>
        <time>2022-02-09T08:49:16Z</time>
      </trkpt>
      <trkpt lat="42.85767" lon="0.25419">
        <ele>1776.2</ele>
        <time>2022-02-09T08:49:17Z</time>
      </trkpt>
      <trkpt lat="42.85767" lon="0.25419">
        <ele>1776.2</ele>
        <time>2022-02-09T08:49:18Z</time>
      </trkpt>
      <trkpt lat="42.85767" lon="0.25419">
        <ele>1776.2</ele>
        <time>2022-02-09T08:49:19Z</time>
      </trkpt>
      <trkpt lat="42.85767" lon="0.25419">
        <ele>1776.2</ele>
        <time>2022-02-09T08:49:20Z</time>
      </trkpt>
      <trkpt lat="42.85767" lon="0.25419">
        <ele>1776.2</ele>
        <time>2022-02-09T08:49:21Z</time>
      </trkpt>
      <trkpt lat="42.85767" lon="0.25419">
        <ele>1776.2</ele>
        <time>2022-02-09T08:49:22Z</time>
      </trkpt>
      <trkpt lat="42.85767" lon="0.25419">
        <ele>1776.2</ele>
        <time>2022-02-09T08:49:23Z</time>
      </trkpt>
      <trkpt lat="42.85767" lon="0.25419">
        <ele>1776.2</ele>
        <time>2022-02-09T08:49:24Z</time>
      </trkpt>
      <trkpt lat="42.85767" lon="0.25419">
        <ele>1776.2</ele>
        <time>2022-02-09T08:49:25Z</time>
      </trkpt>
      <trkpt lat="42.85767" lon="0.25419">
        <ele>1776.2</ele>
        <time>2022-02-09T08:49:26Z</time>
      </trkpt>
      <trkpt lat="42.85767" lon="0.25419">
        <ele>1776.2</ele>
        <time>2022-02-09T08:49:27Z</time>
      </trkpt>
      <trkpt lat="42.85767" lon="0.25419">
        <ele>1776.2</ele>
        <time>2022-02-09T08:49:28Z</time>
      </trkpt>
      <trkpt lat="42.85767" lon="0.25419">
        <ele>1776.2</ele>
        <time>2022-02-09T08:49:29Z</time>
      </trkpt>
      <trkpt lat="42.85767" lon="0.25419">
        <ele>1776.2</ele>
        <time>2022-02-09T08:49:30Z</time>
      </trkpt>
      <trkpt lat="42.85767" lon="0.25419">
        <ele>1776.2</ele>
        <time>2022-02-09T08:49:31Z</time>
      </trkpt>
      <trkpt lat="42.85767" lon="0.25419">
        <ele>1776.2</ele>
        <time>2022-02-09T08:49:32Z</time>
      </trkpt>
      <trkpt lat="42.85767" lon="0.25419">
        <ele>1776.2</ele>
        <time>2022-02-09T08:49:33Z</time>
      </trkpt>
      <trkpt lat="42.85767" lon="0.25419">
        <ele>1776.2</ele>
        <time>2022-02-09T08:49:34Z</time>
      </trkpt>
      <trkpt lat="42.85767" lon="0.25419">
        <ele>1776.2</ele>
        <time>2022-02-09T08:49:35Z</time>
      </trkpt>
      <trkpt lat="42.85767" lon="0.25419">
        <ele>1776.2</ele>
        <time>2022-02-09T08:49:36Z</time>
      </trkpt>
      <trkpt lat="42.85767" lon="0.25419">
        <ele>1776.2</ele>
        <time>2022-02-09T08:49:37Z</time>
      </trkpt>
      <trkpt lat="42.85767" lon="0.25419">
        <ele>1776.2</ele>
        <time>2022-02-09T08:49:38Z</time>
      </trkpt>
      <trkpt lat="42.85767" lon="0.25419">
        <ele>1776.2</ele>
        <time>2022-02-09T08:49:39Z</time>
      </trkpt>
      <trkpt lat="42.85767" lon="0.25419">
        <ele>1776.2</ele>
        <time>2022-02-09T08:49:40Z</time>
      </trkpt>
      <trkpt lat="42.85767" lon="0.25419">
        <ele>1776.2</ele>
        <time>2022-02-09T08:49:41Z</time>
      </trkpt>
      <trkpt lat="42.85767" lon="0.25419">
        <ele>1776.2</ele>
        <time>2022-02-09T08:49:42Z</time>
      </trkpt>
      <trkpt lat="42.85767" lon="0.25419">
        <ele>1776.2</ele>
        <time>2022-02-09T08:49:43Z</time>
      </trkpt>
      <trkpt lat="42.85767" lon="0.25419">
        <ele>1776.2</ele>
        <time>2022-02-09T08:49:44Z</time>
      </trkpt>
      <trkpt lat="42.85767" lon="0.25419">
        <ele>1776.2</ele>
        <time>2022-02-09T08:49:45Z</time>
      </trkpt>
      <trkpt lat="42.85767" lon="0.25419">
        <ele>1776.2</ele>
        <time>2022-02-09T08:49:46Z</time>
      </trkpt>
      <trkpt lat="42.85767" lon="0.25419">
        <ele>1776.2</ele>
        <time>2022-02-09T08:49:47Z</time>
      </trkpt>
      <trkpt lat="42.85767" lon="0.25419">
        <ele>1776.2</ele>
        <time>2022-02-09T08:49:48Z</time>
      </trkpt>
      <trkpt lat="42.85767" lon="0.25419">
        <ele>1776.2</ele>
        <time>2022-02-09T08:49:49Z</time>
      </trkpt>
      <trkpt lat="42.85767" lon="0.25419">
        <ele>1776.2</ele>
        <time>2022-02-09T08:49:50Z</time>
      </trkpt>
      <trkpt lat="42.85767" lon="0.25419">
        <ele>1776.2</ele>
        <time>2022-02-09T08:49:51Z</time>
      </trkpt>
      <trkpt lat="42.85767" lon="0.25419">
        <ele>1776.2</ele>
        <time>2022-02-09T08:49:52Z</time>
      </trkpt>
      <trkpt lat="42.85767" lon="0.25419">
        <ele>1776.2</ele>
        <time>2022-02-09T08:49:53Z</time>
      </trkpt>
      <trkpt lat="42.85767" lon="0.25419">
        <ele>1776.2</ele>
        <time>2022-02-09T08:49:54Z</time>
      </trkpt>
      <trkpt lat="42.85767" lon="0.25419">
        <ele>1776.2</ele>
        <time>2022-02-09T08:49:55Z</time>
      </trkpt>
      <trkpt lat="42.85767" lon="0.25419">
        <ele>1776.2</ele>
        <time>2022-02-09T08:49:56Z</time>
      </trkpt>
      <trkpt lat="42.85767" lon="0.25419">
        <ele>1776.2</ele>
        <time>2022-02-09T08:49:57Z</time>
      </trkpt>
      <trkpt lat="42.85767" lon="0.25419">
        <ele>1776.2</ele>
        <time>2022-02-09T08:49:58Z</time>
      </trkpt>
      <trkpt lat="42.85767" lon="0.25419">
        <ele>1776.2</ele>
        <time>2022-02-09T08:49:59Z</time>
      </trkpt>
      <trkpt lat="42.85767" lon="0.25419">
        <ele>1776.2</ele>
        <time>2022-02-09T08:50:00Z</time>
      </trkpt>
      <trkpt lat="42.85767" lon="0.25419">
        <ele>1776.2</ele>
        <time>2022-02-09T08:50:01Z</time>
      </trkpt>
      <trkpt lat="42.85767" lon="0.25419">
        <ele>1776.2</ele>
        <time>2022-02-09T08:50:02Z</time>
      </trkpt>
      <trkpt lat="42.85767" lon="0.25419">
        <ele>1776.2</ele>
        <time>2022-02-09T08:50:03Z</time>
      </trkpt>
      <trkpt lat="42.85767" lon="0.25419">
        <ele>1776.2</ele>
        <time>2022-02-09T08:50:04Z</time>
      </trkpt>
      <trkpt lat="42.85767" lon="0.25419">
        <ele>1776.2</ele>
        <time>2022-02-09T08:50:05Z</time>
      </trkpt>
      <trkpt lat="42.85767" lon="0.25419">
        <ele>1776.2</ele>
        <time>2022-02-09T08:50:06Z</time>
      </trkpt>
      <trkpt lat="42.85767" lon="0.25419">
        <ele>1776.2</ele>
        <time>2022-02-09T08:50:07Z</time>
      </trkpt>
      <trkpt lat="42.85767" lon="0.25419">
        <ele>1776.2</ele>
        <time>2022-02-09T08:50:08Z</time>
      </trkpt>
      <trkpt lat="42.85767" lon="0.25419">
        <ele>1776.2</ele>
        <time>2022-02-09T08:50:09Z</time>
      </trkpt>
      <trkpt lat="42.85767" lon="0.25419">
        <ele>1776.2</ele>
        <time>2022-02-09T08:50:10Z</time>
      </trkpt>
      <trkpt lat="42.85767" lon="0.25419">
        <ele>1776.2</ele>
        <time>2022-02-09T08:50:11Z</time>
      </trkpt>
      <trkpt lat="42.85767" lon="0.25419">
        <ele>1776.2</ele>
        <time>2022-02-09T08:50:12Z</time>
      </trkpt>
      <trkpt lat="42.85767" lon="0.25419">
        <ele>1776.2</ele>
        <time>2022-02-09T08:50:13Z</time>
      </trkpt>
      <trkpt lat="42.85767" lon="0.25419">
        <ele>1776.2</ele>
        <time>2022-02-09T08:50:14Z</time>
      </trkpt>
      <trkpt lat="42.85767" lon="0.25419">
        <ele>1776.2</ele>
        <time>2022-02-09T08:50:15Z</time>
      </trkpt>
      <trkpt lat="42.85767" lon="0.25419">
        <ele>1776.2</ele>
        <time>2022-02-09T08:50:16Z</time>
      </trkpt>
      <trkpt lat="42.85767" lon="0.25419">
        <ele>1776.2</ele>
        <time>2022-02-09T08:50:17Z</time>
      </trkpt>
      <trkpt lat="42.85767" lon="0.25419">
        <ele>1776.2</ele>
        <time>2022-02-09T08:50:18Z</time>
      </trkpt>
      <trkpt lat="42.85767" lon="0.25419">
        <ele>1776.2</ele>
        <time>2022-02-09T08:50:19Z</time>
      </trkpt>
      <trkpt lat="42.85767" lon="0.25419">
        <ele>1776.2</ele>
        <time>2022-02-09T08:50:20Z</time>
      </trkpt>
      <trkpt lat="42.85767" lon="0.25419">
        <ele>1776.2</ele>
        <time>2022-02-09T08:50:21Z</time>
      </trkpt>
      <trkpt lat="42.85767" lon="0.25419">
        <ele>1776.2</ele>
        <time>2022-02-09T08:50:22Z</time>
      </trkpt>
      <trkpt lat="42.85767" lon="0.25419">
        <ele>1776.2</ele>
        <time>2022-02-09T08:50:23Z</time>
      </trkpt>
      <trkpt lat="42.85767" lon="0.25419">
        <ele>1776.2</ele>
        <time>2022-02-09T08:50:24Z</time>
      </trkpt>
      <trkpt lat="42.85767" lon="0.25419">
        <ele>1776.2</ele>
        <time>2022-02-09T08:50:25Z</time>
      </trkpt>
      <trkpt lat="42.85767" lon="0.25419">
        <ele>1776.2</ele>
        <time>2022-02-09T08:50:26Z</time>
      </trkpt>
      <trkpt lat="42.85767" lon="0.25419">
        <ele>1776.2</ele>
        <time>2022-02-09T08:50:27Z</time>
      </trkpt>
      <trkpt lat="42.85767" lon="0.25419">
        <ele>1776.2</ele>
        <time>2022-02-09T08:50:28Z</time>
      </trkpt>
      <trkpt lat="42.85767" lon="0.25419">
        <ele>1776.2</ele>
        <time>2022-02-09T08:50:29Z</time>
      </trkpt>
      <trkpt lat="42.85767" lon="0.25419">
        <ele>1776.2</ele>
        <time>2022-02-09T08:50:30Z</time>
      </trkpt>
      <trkpt lat="42.85767" lon="0.25419">
        <ele>1776.2</ele>
        <time>2022-02-09T08:50:31Z</time>
      </trkpt>
      <trkpt lat="42.85767" lon="0.25419">
        <ele>1776.2</ele>
        <time>2022-02-09T08:50:32Z</time>
      </trkpt>
      <trkpt lat="42.85767" lon="0.25419">
        <ele>1776.2</ele>
        <time>2022-02-09T08:50:33Z</time>
      </trkpt>
      <trkpt lat="42.85767" lon="0.25419">
        <ele>1776.2</ele>
        <time>2022-02-09T08:50:34Z</time>
      </trkpt>
      <trkpt lat="42.85767" lon="0.25419">
        <ele>1776.2</ele>
        <time>2022-02-09T08:50:35Z</time>
      </trkpt>
      <trkpt lat="42.85767" lon="0.25419">
        <ele>1776.2</ele>
        <time>2022-02-09T08:50:36Z</time>
      </trkpt>
      <trkpt lat="42.85767" lon="0.25419">
        <ele>1776.2</ele>
        <time>2022-02-09T08:50:37Z</time>
      </trkpt>
      <trkpt lat="42.85767" lon="0.25419">
        <ele>1776.2</ele>
        <time>2022-02-09T08:50:38Z</time>
      </trkpt>
      <trkpt lat="42.85767" lon="0.25419">
        <ele>1776.2</ele>
        <time>2022-02-09T08:50:39Z</time>
      </trkpt>
      <trkpt lat="42.85767" lon="0.25419">
        <ele>1776.2</ele>
        <time>2022-02-09T08:50:40Z</time>
      </trkpt>
      <trkpt lat="42.85767" lon="0.25419">
        <ele>1776.2</ele>
        <time>2022-02-09T08:50:41Z</time>
      </trkpt>
      <trkpt lat="42.85767" lon="0.25419">
        <ele>1776.2</ele>
        <time>2022-02-09T08:50:42Z</time>
      </trkpt>
      <trkpt lat="42.85767" lon="0.25419">
        <ele>1776.2</ele>
        <time>2022-02-09T08:50:43Z</time>
      </trkpt>
      <trkpt lat="42.85767" lon="0.25419">
        <ele>1776.2</ele>
        <time>2022-02-09T08:50:44Z</time>
      </trkpt>
      <trkpt lat="42.85767" lon="0.25419">
        <ele>1776.2</ele>
        <time>2022-02-09T08:50:45Z</time>
      </trkpt>
      <trkpt lat="42.85767" lon="0.25419">
        <ele>1776.2</ele>
        <time>2022-02-09T08:50:46Z</time>
      </trkpt>
      <trkpt lat="42.85767" lon="0.25419">
        <ele>1776.2</ele>
        <time>2022-02-09T08:50:47Z</time>
      </trkpt>
      <trkpt lat="42.85767" lon="0.25419">
        <ele>1776.2</ele>
        <time>2022-02-09T08:50:48Z</time>
      </trkpt>
      <trkpt lat="42.85767" lon="0.25419">
        <ele>1776.2</ele>
        <time>2022-02-09T08:50:49Z</time>
      </trkpt>
      <trkpt lat="42.85767" lon="0.25419">
        <ele>1776.2</ele>
        <time>2022-02-09T08:50:50Z</time>
      </trkpt>
      <trkpt lat="42.85767" lon="0.25419">
        <ele>1776.2</ele>
        <time>2022-02-09T08:50:51Z</time>
      </trkpt>
      <trkpt lat="42.85767" lon="0.25419">
        <ele>1776.2</ele>
        <time>2022-02-09T08:50:52Z</time>
      </trkpt>
      <trkpt lat="42.85767" lon="0.25419">
        <ele>1776.2</ele>
        <time>2022-02-09T08:50:53Z</time>
      </trkpt>
      <trkpt lat="42.85767" lon="0.25419">
        <ele>1776.2</ele>
        <time>2022-02-09T08:50:54Z</time>
      </trkpt>
      <trkpt lat="42.85767" lon="0.25419">
        <ele>1776.2</ele>
        <time>2022-02-09T08:50:55Z</time>
      </trkpt>
      <trkpt lat="42.85767" lon="0.25419">
        <ele>1776.2</ele>
        <time>2022-02-09T08:50:56Z</time>
      </trkpt>
      <trkpt lat="42.85767" lon="0.25419">
        <ele>1776.2</ele>
        <time>2022-02-09T08:50:57Z</time>
      </trkpt>
      <trkpt lat="42.85767" lon="0.25419">
        <ele>1776.2</ele>
        <time>2022-02-09T08:50:58Z</time>
      </trkpt>
      <trkpt lat="42.85767" lon="0.25419">
        <ele>1776.2</ele>
        <time>2022-02-09T08:50:59Z</time>
      </trkpt>
      <trkpt lat="42.85767" lon="0.25419">
        <ele>1776.2</ele>
        <time>2022-02-09T08:51:00Z</time>
      </trkpt>
      <trkpt lat="42.85767" lon="0.25419">
        <ele>1776.2</ele>
        <time>2022-02-09T08:51:01Z</time>
      </trkpt>
      <trkpt lat="42.85767" lon="0.25419">
        <ele>1776.2</ele>
        <time>2022-02-09T08:51:02Z</time>
      </trkpt>
      <trkpt lat="42.85767" lon="0.25419">
        <ele>1776.2</ele>
        <time>2022-02-09T08:51:03Z</time>
      </trkpt>
      <trkpt lat="42.85767" lon="0.25419">
        <ele>1776.2</ele>
        <time>2022-02-09T08:51:04Z</time>
      </trkpt>
      <trkpt lat="42.85767" lon="0.25419">
        <ele>1776.2</ele>
        <time>2022-02-09T08:51:05Z</time>
      </trkpt>
      <trkpt lat="42.85767" lon="0.25419">
        <ele>1776.2</ele>
        <time>2022-02-09T08:51:06Z</time>
      </trkpt>
      <trkpt lat="42.85767" lon="0.25419">
        <ele>1776.2</ele>
        <time>2022-02-09T08:51:07Z</time>
      </trkpt>
      <trkpt lat="42.85767" lon="0.25419">
        <ele>1776.2</ele>
        <time>2022-02-09T08:51:08Z</time>
      </trkpt>
      <trkpt lat="42.85767" lon="0.25419">
        <ele>1776.2</ele>
        <time>2022-02-09T08:51:09Z</time>
      </trkpt>
      <trkpt lat="42.85767" lon="0.25419">
        <ele>1776.2</ele>
        <time>2022-02-09T08:51:10Z</time>
      </trkpt>
      <trkpt lat="42.85767" lon="0.25419">
        <ele>1776.2</ele>
        <time>2022-02-09T08:51:11Z</time>
      </trkpt>
      <trkpt lat="42.85767" lon="0.25419">
        <ele>1776.2</ele>
        <time>2022-02-09T08:51:12Z</time>
      </trkpt>
      <trkpt lat="42.85767" lon="0.25419">
        <ele>1776.2</ele>
        <time>2022-02-09T08:51:13Z</time>
      </trkpt>
      <trkpt lat="42.85767" lon="0.25419">
        <ele>1776.2</ele>
        <time>2022-02-09T08:51:14Z</time>
      </trkpt>
      <trkpt lat="42.85767" lon="0.25419">
        <ele>1776.2</ele>
        <time>2022-02-09T08:51:15Z</time>
      </trkpt>
      <trkpt lat="42.85767" lon="0.25419">
        <ele>1776.2</ele>
        <time>2022-02-09T08:51:16Z</time>
      </trkpt>
      <trkpt lat="42.85767" lon="0.25419">
        <ele>1776.2</ele>
        <time>2022-02-09T08:51:17Z</time>
      </trkpt>
      <trkpt lat="42.85767" lon="0.25419">
        <ele>1776.2</ele>
        <time>2022-02-09T08:51:18Z</time>
      </trkpt>
      <trkpt lat="42.85767" lon="0.25419">
        <ele>1776.2</ele>
        <time>2022-02-09T08:51:19Z</time>
      </trkpt>
      <trkpt lat="42.85767" lon="0.25419">
        <ele>1776.2</ele>
        <time>2022-02-09T08:51:20Z</time>
      </trkpt>
      <trkpt lat="42.85767" lon="0.25419">
        <ele>1776.2</ele>
        <time>2022-02-09T08:51:21Z</time>
      </trkpt>
      <trkpt lat="42.85767" lon="0.25419">
        <ele>1776.2</ele>
        <time>2022-02-09T08:51:22Z</time>
      </trkpt>
      <trkpt lat="42.85767" lon="0.25419">
        <ele>1776.2</ele>
        <time>2022-02-09T08:51:23Z</time>
      </trkpt>
      <trkpt lat="42.85767" lon="0.25419">
        <ele>1776.2</ele>
        <time>2022-02-09T08:51:24Z</time>
      </trkpt>
      <trkpt lat="42.85767" lon="0.25419">
        <ele>1776.2</ele>
        <time>2022-02-09T08:51:25Z</time>
      </trkpt>
      <trkpt lat="42.85767" lon="0.25419">
        <ele>1776.2</ele>
        <time>2022-02-09T08:51:26Z</time>
      </trkpt>
      <trkpt lat="42.85767" lon="0.25419">
        <ele>1776.2</ele>
        <time>2022-02-09T08:51:27Z</time>
      </trkpt>
      <trkpt lat="42.85767" lon="0.25419">
        <ele>1776.2</ele>
        <time>2022-02-09T08:51:28Z</time>
      </trkpt>
      <trkpt lat="42.85767" lon="0.25419">
        <ele>1776.2</ele>
        <time>2022-02-09T08:51:29Z</time>
      </trkpt>
      <trkpt lat="42.85767" lon="0.25419">
        <ele>1776.2</ele>
        <time>2022-02-09T08:51:30Z</time>
      </trkpt>
      <trkpt lat="42.85767" lon="0.25419">
        <ele>1776.2</ele>
        <time>2022-02-09T08:51:31Z</time>
      </trkpt>
      <trkpt lat="42.85767" lon="0.25419">
        <ele>1776.2</ele>
        <time>2022-02-09T08:51:32Z</time>
      </trkpt>
      <trkpt lat="42.85767" lon="0.25419">
        <ele>1776.2</ele>
        <time>2022-02-09T08:51:33Z</time>
      </trkpt>
      <trkpt lat="42.85767" lon="0.25419">
        <ele>1776.2</ele>
        <time>2022-02-09T08:51:34Z</time>
      </trkpt>
      <trkpt lat="42.85767" lon="0.25419">
        <ele>1776.2</ele>
        <time>2022-02-09T08:51:35Z</time>
      </trkpt>
      <trkpt lat="42.85767" lon="0.25419">
        <ele>1776.2</ele>
        <time>2022-02-09T08:51:36Z</time>
      </trkpt>
      <trkpt lat="42.85767" lon="0.25419">
        <ele>1776.2</ele>
        <time>2022-02-09T08:51:37Z</time>
      </trkpt>
      <trkpt lat="42.85767" lon="0.25419">
        <ele>1776.2</ele>
        <time>2022-02-09T08:51:38Z</time>
      </trkpt>
      <trkpt lat="42.85767" lon="0.25419">
        <ele>1776.2</ele>
        <time>2022-02-09T08:51:39Z</time>
      </trkpt>
      <trkpt lat="42.85769" lon="0.25418">
        <ele>1776.5</ele>
        <time>2022-02-09T08:51:40Z</time>
      </trkpt>
      <trkpt lat="42.85771" lon="0.25415">
        <ele>1777</ele>
        <time>2022-02-09T08:51:41Z</time>
      </trkpt>
      <trkpt lat="42.8577" lon="0.25414">
        <ele>1777.1</ele>
        <time>2022-02-09T08:51:42Z</time>
      </trkpt>
      <trkpt lat="42.8577" lon="0.25413">
        <ele>1777.3</ele>
        <time>2022-02-09T08:51:43Z</time>
      </trkpt>
      <trkpt lat="42.8577" lon="0.25412">
        <ele>1777.4</ele>
        <time>2022-02-09T08:51:44Z</time>
      </trkpt>
      <trkpt lat="42.8577" lon="0.25411">
        <ele>1777.5</ele>
        <time>2022-02-09T08:51:45Z</time>
      </trkpt>
      <trkpt lat="42.8577" lon="0.2541">
        <ele>1777.7</ele>
        <time>2022-02-09T08:51:46Z</time>
      </trkpt>
      <trkpt lat="42.85769" lon="0.25409">
        <ele>1777.8</ele>
        <time>2022-02-09T08:51:47Z</time>
      </trkpt>
      <trkpt lat="42.85768" lon="0.25408">
        <ele>1778</ele>
        <time>2022-02-09T08:51:48Z</time>
      </trkpt>
      <trkpt lat="42.85768" lon="0.25408">
        <ele>1778.1</ele>
        <time>2022-02-09T08:51:49Z</time>
      </trkpt>
      <trkpt lat="42.85768" lon="0.25407">
        <ele>1778.2</ele>
        <time>2022-02-09T08:51:50Z</time>
      </trkpt>
      <trkpt lat="42.85767" lon="0.25406">
        <ele>1778.4</ele>
        <time>2022-02-09T08:51:51Z</time>
      </trkpt>
      <trkpt lat="42.85767" lon="0.25405">
        <ele>1778.5</ele>
        <time>2022-02-09T08:51:52Z</time>
      </trkpt>
      <trkpt lat="42.85767" lon="0.25404">
        <ele>1778.6</ele>
        <time>2022-02-09T08:51:53Z</time>
      </trkpt>
      <trkpt lat="42.85766" lon="0.25403">
        <ele>1778.8</ele>
        <time>2022-02-09T08:51:54Z</time>
      </trkpt>
      <trkpt lat="42.85766" lon="0.25402">
        <ele>1778.9</ele>
        <time>2022-02-09T08:51:55Z</time>
      </trkpt>
      <trkpt lat="42.85765" lon="0.25401">
        <ele>1779.1</ele>
        <time>2022-02-09T08:51:56Z</time>
      </trkpt>
      <trkpt lat="42.85765" lon="0.25401">
        <ele>1779.3</ele>
        <time>2022-02-09T08:51:57Z</time>
      </trkpt>
      <trkpt lat="42.85764" lon="0.254">
        <ele>1779.4</ele>
        <time>2022-02-09T08:51:58Z</time>
      </trkpt>
      <trkpt lat="42.85764" lon="0.25399">
        <ele>1779.6</ele>
        <time>2022-02-09T08:51:59Z</time>
      </trkpt>
      <trkpt lat="42.85763" lon="0.25398">
        <ele>1779.7</ele>
        <time>2022-02-09T08:52:00Z</time>
      </trkpt>
      <trkpt lat="42.85763" lon="0.25397">
        <ele>1779.9</ele>
        <time>2022-02-09T08:52:01Z</time>
      </trkpt>
      <trkpt lat="42.85763" lon="0.25396">
        <ele>1780</ele>
        <time>2022-02-09T08:52:02Z</time>
      </trkpt>
      <trkpt lat="42.85763" lon="0.25395">
        <ele>1780.1</ele>
        <time>2022-02-09T08:52:03Z</time>
      </trkpt>
      <trkpt lat="42.85762" lon="0.25395">
        <ele>1780.2</ele>
        <time>2022-02-09T08:52:04Z</time>
      </trkpt>
      <trkpt lat="42.85762" lon="0.25394">
        <ele>1780.4</ele>
        <time>2022-02-09T08:52:05Z</time>
      </trkpt>
      <trkpt lat="42.85762" lon="0.25393">
        <ele>1780.5</ele>
        <time>2022-02-09T08:52:06Z</time>
      </trkpt>
      <trkpt lat="42.85762" lon="0.25392">
        <ele>1780.6</ele>
        <time>2022-02-09T08:52:07Z</time>
      </trkpt>
      <trkpt lat="42.85761" lon="0.25391">
        <ele>1780.8</ele>
        <time>2022-02-09T08:52:08Z</time>
      </trkpt>
      <trkpt lat="42.85761" lon="0.25391">
        <ele>1780.9</ele>
        <time>2022-02-09T08:52:09Z</time>
      </trkpt>
      <trkpt lat="42.8576" lon="0.2539">
        <ele>1781</ele>
        <time>2022-02-09T08:52:10Z</time>
      </trkpt>
      <trkpt lat="42.8576" lon="0.25389">
        <ele>1781.1</ele>
        <time>2022-02-09T08:52:11Z</time>
      </trkpt>
      <trkpt lat="42.8576" lon="0.25388">
        <ele>1781.3</ele>
        <time>2022-02-09T08:52:12Z</time>
      </trkpt>
      <trkpt lat="42.85759" lon="0.25388">
        <ele>1781.4</ele>
        <time>2022-02-09T08:52:13Z</time>
      </trkpt>
      <trkpt lat="42.85759" lon="0.25387">
        <ele>1781.5</ele>
        <time>2022-02-09T08:52:14Z</time>
      </trkpt>
      <trkpt lat="42.85758" lon="0.25386">
        <ele>1781.7</ele>
        <time>2022-02-09T08:52:15Z</time>
      </trkpt>
      <trkpt lat="42.85758" lon="0.25385">
        <ele>1781.8</ele>
        <time>2022-02-09T08:52:16Z</time>
      </trkpt>
      <trkpt lat="42.85758" lon="0.25384">
        <ele>1782</ele>
        <time>2022-02-09T08:52:17Z</time>
      </trkpt>
      <trkpt lat="42.85757" lon="0.25383">
        <ele>1782.1</ele>
        <time>2022-02-09T08:52:18Z</time>
      </trkpt>
      <trkpt lat="42.85757" lon="0.25382">
        <ele>1782.3</ele>
        <time>2022-02-09T08:52:19Z</time>
      </trkpt>
      <trkpt lat="42.85756" lon="0.25382">
        <ele>1782.4</ele>
        <time>2022-02-09T08:52:20Z</time>
      </trkpt>
      <trkpt lat="42.85756" lon="0.25381">
        <ele>1782.6</ele>
        <time>2022-02-09T08:52:21Z</time>
      </trkpt>
      <trkpt lat="42.85756" lon="0.2538">
        <ele>1782.7</ele>
        <time>2022-02-09T08:52:22Z</time>
      </trkpt>
      <trkpt lat="42.85755" lon="0.25379">
        <ele>1782.8</ele>
        <time>2022-02-09T08:52:23Z</time>
      </trkpt>
      <trkpt lat="42.85755" lon="0.25378">
        <ele>1782.9</ele>
        <time>2022-02-09T08:52:24Z</time>
      </trkpt>
      <trkpt lat="42.85755" lon="0.25377">
        <ele>1783.1</ele>
        <time>2022-02-09T08:52:25Z</time>
      </trkpt>
      <trkpt lat="42.85755" lon="0.25376">
        <ele>1783.2</ele>
        <time>2022-02-09T08:52:26Z</time>
      </trkpt>
      <trkpt lat="42.85754" lon="0.25376">
        <ele>1783.3</ele>
        <time>2022-02-09T08:52:27Z</time>
      </trkpt>
      <trkpt lat="42.85754" lon="0.25375">
        <ele>1783.4</ele>
        <time>2022-02-09T08:52:28Z</time>
      </trkpt>
      <trkpt lat="42.85754" lon="0.25374">
        <ele>1783.6</ele>
        <time>2022-02-09T08:52:29Z</time>
      </trkpt>
      <trkpt lat="42.85754" lon="0.25373">
        <ele>1783.7</ele>
        <time>2022-02-09T08:52:30Z</time>
      </trkpt>
      <trkpt lat="42.85753" lon="0.25372">
        <ele>1783.8</ele>
        <time>2022-02-09T08:52:31Z</time>
      </trkpt>
      <trkpt lat="42.85753" lon="0.25371">
        <ele>1784</ele>
        <time>2022-02-09T08:52:32Z</time>
      </trkpt>
      <trkpt lat="42.85753" lon="0.25371">
        <ele>1784.1</ele>
        <time>2022-02-09T08:52:33Z</time>
      </trkpt>
      <trkpt lat="42.85752" lon="0.2537">
        <ele>1784.2</ele>
        <time>2022-02-09T08:52:34Z</time>
      </trkpt>
      <trkpt lat="42.85752" lon="0.25369">
        <ele>1784.3</ele>
        <time>2022-02-09T08:52:35Z</time>
      </trkpt>
      <trkpt lat="42.85752" lon="0.25369">
        <ele>1784.4</ele>
        <time>2022-02-09T08:52:36Z</time>
      </trkpt>
      <trkpt lat="42.85752" lon="0.25368">
        <ele>1784.5</ele>
        <time>2022-02-09T08:52:37Z</time>
      </trkpt>
      <trkpt lat="42.85751" lon="0.25367">
        <ele>1784.6</ele>
        <time>2022-02-09T08:52:38Z</time>
      </trkpt>
      <trkpt lat="42.85751" lon="0.25366">
        <ele>1784.8</ele>
        <time>2022-02-09T08:52:39Z</time>
      </trkpt>
      <trkpt lat="42.85751" lon="0.25365">
        <ele>1784.9</ele>
        <time>2022-02-09T08:52:40Z</time>
      </trkpt>
      <trkpt lat="42.85751" lon="0.25365">
        <ele>1785</ele>
        <time>2022-02-09T08:52:41Z</time>
      </trkpt>
      <trkpt lat="42.85751" lon="0.25364">
        <ele>1785</ele>
        <time>2022-02-09T08:52:42Z</time>
      </trkpt>
      <trkpt lat="42.85751" lon="0.25363">
        <ele>1785.2</ele>
        <time>2022-02-09T08:52:43Z</time>
      </trkpt>
      <trkpt lat="42.8575" lon="0.25363">
        <ele>1785.3</ele>
        <time>2022-02-09T08:52:44Z</time>
      </trkpt>
      <trkpt lat="42.8575" lon="0.25362">
        <ele>1785.4</ele>
        <time>2022-02-09T08:52:45Z</time>
      </trkpt>
      <trkpt lat="42.8575" lon="0.25361">
        <ele>1785.5</ele>
        <time>2022-02-09T08:52:46Z</time>
      </trkpt>
      <trkpt lat="42.8575" lon="0.2536">
        <ele>1785.6</ele>
        <time>2022-02-09T08:52:47Z</time>
      </trkpt>
      <trkpt lat="42.8575" lon="0.25359">
        <ele>1785.7</ele>
        <time>2022-02-09T08:52:48Z</time>
      </trkpt>
      <trkpt lat="42.8575" lon="0.25358">
        <ele>1785.9</ele>
        <time>2022-02-09T08:52:49Z</time>
      </trkpt>
      <trkpt lat="42.8575" lon="0.25358">
        <ele>1786</ele>
        <time>2022-02-09T08:52:50Z</time>
      </trkpt>
      <trkpt lat="42.85749" lon="0.25357">
        <ele>1786.1</ele>
        <time>2022-02-09T08:52:51Z</time>
      </trkpt>
      <trkpt lat="42.85749" lon="0.25356">
        <ele>1786.2</ele>
        <time>2022-02-09T08:52:52Z</time>
      </trkpt>
      <trkpt lat="42.85749" lon="0.25355">
        <ele>1786.4</ele>
        <time>2022-02-09T08:52:53Z</time>
      </trkpt>
      <trkpt lat="42.85749" lon="0.25354">
        <ele>1786.5</ele>
        <time>2022-02-09T08:52:54Z</time>
      </trkpt>
      <trkpt lat="42.85748" lon="0.25353">
        <ele>1786.6</ele>
        <time>2022-02-09T08:52:55Z</time>
      </trkpt>
      <trkpt lat="42.85748" lon="0.25352">
        <ele>1786.7</ele>
        <time>2022-02-09T08:52:56Z</time>
      </trkpt>
      <trkpt lat="42.85748" lon="0.25351">
        <ele>1786.9</ele>
        <time>2022-02-09T08:52:57Z</time>
      </trkpt>
      <trkpt lat="42.85748" lon="0.2535">
        <ele>1787</ele>
        <time>2022-02-09T08:52:58Z</time>
      </trkpt>
      <trkpt lat="42.85747" lon="0.25349">
        <ele>1787.1</ele>
        <time>2022-02-09T08:52:59Z</time>
      </trkpt>
      <trkpt lat="42.85747" lon="0.25348">
        <ele>1787.3</ele>
        <time>2022-02-09T08:53:00Z</time>
      </trkpt>
      <trkpt lat="42.85747" lon="0.25347">
        <ele>1787.4</ele>
        <time>2022-02-09T08:53:01Z</time>
      </trkpt>
      <trkpt lat="42.85747" lon="0.25346">
        <ele>1787.5</ele>
        <time>2022-02-09T08:53:02Z</time>
      </trkpt>
      <trkpt lat="42.85746" lon="0.25346">
        <ele>1787.6</ele>
        <time>2022-02-09T08:53:03Z</time>
      </trkpt>
      <trkpt lat="42.85746" lon="0.25345">
        <ele>1787.7</ele>
        <time>2022-02-09T08:53:04Z</time>
      </trkpt>
      <trkpt lat="42.85746" lon="0.25344">
        <ele>1787.9</ele>
        <time>2022-02-09T08:53:05Z</time>
      </trkpt>
      <trkpt lat="42.85745" lon="0.25343">
        <ele>1788</ele>
        <time>2022-02-09T08:53:06Z</time>
      </trkpt>
      <trkpt lat="42.85745" lon="0.25342">
        <ele>1788.1</ele>
        <time>2022-02-09T08:53:07Z</time>
      </trkpt>
      <trkpt lat="42.85745" lon="0.25341">
        <ele>1788.2</ele>
        <time>2022-02-09T08:53:08Z</time>
      </trkpt>
      <trkpt lat="42.85744" lon="0.25341">
        <ele>1788.3</ele>
        <time>2022-02-09T08:53:09Z</time>
      </trkpt>
      <trkpt lat="42.85744" lon="0.2534">
        <ele>1788.4</ele>
        <time>2022-02-09T08:53:10Z</time>
      </trkpt>
      <trkpt lat="42.85743" lon="0.25339">
        <ele>1788.6</ele>
        <time>2022-02-09T08:53:11Z</time>
      </trkpt>
      <trkpt lat="42.85742" lon="0.25338">
        <ele>1788.7</ele>
        <time>2022-02-09T08:53:12Z</time>
      </trkpt>
      <trkpt lat="42.85742" lon="0.25337">
        <ele>1788.9</ele>
        <time>2022-02-09T08:53:13Z</time>
      </trkpt>
      <trkpt lat="42.85741" lon="0.25337">
        <ele>1789</ele>
        <time>2022-02-09T08:53:14Z</time>
      </trkpt>
      <trkpt lat="42.85741" lon="0.25336">
        <ele>1789.2</ele>
        <time>2022-02-09T08:53:15Z</time>
      </trkpt>
      <trkpt lat="42.8574" lon="0.25335">
        <ele>1789.3</ele>
        <time>2022-02-09T08:53:16Z</time>
      </trkpt>
      <trkpt lat="42.8574" lon="0.25334">
        <ele>1789.4</ele>
        <time>2022-02-09T08:53:17Z</time>
      </trkpt>
      <trkpt lat="42.8574" lon="0.25333">
        <ele>1789.5</ele>
        <time>2022-02-09T08:53:18Z</time>
      </trkpt>
      <trkpt lat="42.8574" lon="0.25332">
        <ele>1789.6</ele>
        <time>2022-02-09T08:53:19Z</time>
      </trkpt>
      <trkpt lat="42.85739" lon="0.25331">
        <ele>1789.7</ele>
        <time>2022-02-09T08:53:20Z</time>
      </trkpt>
      <trkpt lat="42.85739" lon="0.2533">
        <ele>1789.9</ele>
        <time>2022-02-09T08:53:21Z</time>
      </trkpt>
      <trkpt lat="42.85738" lon="0.25329">
        <ele>1790.1</ele>
        <time>2022-02-09T08:53:22Z</time>
      </trkpt>
      <trkpt lat="42.85738" lon="0.25328">
        <ele>1790.2</ele>
        <time>2022-02-09T08:53:23Z</time>
      </trkpt>
      <trkpt lat="42.85737" lon="0.25327">
        <ele>1790.3</ele>
        <time>2022-02-09T08:53:24Z</time>
      </trkpt>
      <trkpt lat="42.85737" lon="0.25326">
        <ele>1790.5</ele>
        <time>2022-02-09T08:53:25Z</time>
      </trkpt>
      <trkpt lat="42.85737" lon="0.25325">
        <ele>1790.6</ele>
        <time>2022-02-09T08:53:26Z</time>
      </trkpt>
      <trkpt lat="42.85737" lon="0.25324">
        <ele>1790.7</ele>
        <time>2022-02-09T08:53:27Z</time>
      </trkpt>
      <trkpt lat="42.85736" lon="0.25324">
        <ele>1790.8</ele>
        <time>2022-02-09T08:53:28Z</time>
      </trkpt>
      <trkpt lat="42.85736" lon="0.25323">
        <ele>1791</ele>
        <time>2022-02-09T08:53:29Z</time>
      </trkpt>
      <trkpt lat="42.85736" lon="0.25322">
        <ele>1791</ele>
        <time>2022-02-09T08:53:30Z</time>
      </trkpt>
      <trkpt lat="42.85736" lon="0.25321">
        <ele>1791.1</ele>
        <time>2022-02-09T08:53:31Z</time>
      </trkpt>
      <trkpt lat="42.85735" lon="0.25321">
        <ele>1791.2</ele>
        <time>2022-02-09T08:53:32Z</time>
      </trkpt>
      <trkpt lat="42.85735" lon="0.2532">
        <ele>1791.3</ele>
        <time>2022-02-09T08:53:33Z</time>
      </trkpt>
      <trkpt lat="42.85735" lon="0.25319">
        <ele>1791.4</ele>
        <time>2022-02-09T08:53:34Z</time>
      </trkpt>
      <trkpt lat="42.85735" lon="0.25319">
        <ele>1791.5</ele>
        <time>2022-02-09T08:53:35Z</time>
      </trkpt>
      <trkpt lat="42.85734" lon="0.25318">
        <ele>1791.7</ele>
        <time>2022-02-09T08:53:36Z</time>
      </trkpt>
      <trkpt lat="42.85734" lon="0.25317">
        <ele>1791.8</ele>
        <time>2022-02-09T08:53:37Z</time>
      </trkpt>
      <trkpt lat="42.85734" lon="0.25316">
        <ele>1791.9</ele>
        <time>2022-02-09T08:53:38Z</time>
      </trkpt>
      <trkpt lat="42.85733" lon="0.25315">
        <ele>1792.1</ele>
        <time>2022-02-09T08:53:39Z</time>
      </trkpt>
      <trkpt lat="42.85733" lon="0.25314">
        <ele>1792.2</ele>
        <time>2022-02-09T08:53:40Z</time>
      </trkpt>
      <trkpt lat="42.85733" lon="0.25313">
        <ele>1792.3</ele>
        <time>2022-02-09T08:53:41Z</time>
      </trkpt>
      <trkpt lat="42.85732" lon="0.25312">
        <ele>1792.4</ele>
        <time>2022-02-09T08:53:42Z</time>
      </trkpt>
      <trkpt lat="42.85732" lon="0.25311">
        <ele>1792.5</ele>
        <time>2022-02-09T08:53:43Z</time>
      </trkpt>
      <trkpt lat="42.85731" lon="0.2531">
        <ele>1792.7</ele>
        <time>2022-02-09T08:53:44Z</time>
      </trkpt>
      <trkpt lat="42.85731" lon="0.2531">
        <ele>1792.8</ele>
        <time>2022-02-09T08:53:45Z</time>
      </trkpt>
      <trkpt lat="42.8573" lon="0.25309">
        <ele>1792.9</ele>
        <time>2022-02-09T08:53:46Z</time>
      </trkpt>
      <trkpt lat="42.8573" lon="0.25308">
        <ele>1793.1</ele>
        <time>2022-02-09T08:53:47Z</time>
      </trkpt>
      <trkpt lat="42.85729" lon="0.25307">
        <ele>1793.2</ele>
        <time>2022-02-09T08:53:48Z</time>
      </trkpt>
      <trkpt lat="42.85729" lon="0.25307">
        <ele>1793.2</ele>
        <time>2022-02-09T08:53:49Z</time>
      </trkpt>
      <trkpt lat="42.85729" lon="0.25306">
        <ele>1793.3</ele>
        <time>2022-02-09T08:53:50Z</time>
      </trkpt>
      <trkpt lat="42.85728" lon="0.25305">
        <ele>1793.4</ele>
        <time>2022-02-09T08:53:51Z</time>
      </trkpt>
      <trkpt lat="42.85728" lon="0.25305">
        <ele>1793.5</ele>
        <time>2022-02-09T08:53:52Z</time>
      </trkpt>
      <trkpt lat="42.85728" lon="0.25304">
        <ele>1793.6</ele>
        <time>2022-02-09T08:53:53Z</time>
      </trkpt>
      <trkpt lat="42.85727" lon="0.25304">
        <ele>1793.7</ele>
        <time>2022-02-09T08:53:54Z</time>
      </trkpt>
      <trkpt lat="42.85727" lon="0.25303">
        <ele>1793.8</ele>
        <time>2022-02-09T08:53:55Z</time>
      </trkpt>
      <trkpt lat="42.85726" lon="0.25303">
        <ele>1793.9</ele>
        <time>2022-02-09T08:53:56Z</time>
      </trkpt>
      <trkpt lat="42.85726" lon="0.25302">
        <ele>1794</ele>
        <time>2022-02-09T08:53:57Z</time>
      </trkpt>
      <trkpt lat="42.85725" lon="0.25301">
        <ele>1794.1</ele>
        <time>2022-02-09T08:53:58Z</time>
      </trkpt>
      <trkpt lat="42.85725" lon="0.25301">
        <ele>1794.2</ele>
        <time>2022-02-09T08:53:59Z</time>
      </trkpt>
      <trkpt lat="42.85724" lon="0.253">
        <ele>1794.3</ele>
        <time>2022-02-09T08:54:00Z</time>
      </trkpt>
      <trkpt lat="42.85723" lon="0.253">
        <ele>1794.4</ele>
        <time>2022-02-09T08:54:01Z</time>
      </trkpt>
      <trkpt lat="42.85723" lon="0.25299">
        <ele>1794.5</ele>
        <time>2022-02-09T08:54:02Z</time>
      </trkpt>
      <trkpt lat="42.85722" lon="0.25299">
        <ele>1794.6</ele>
        <time>2022-02-09T08:54:03Z</time>
      </trkpt>
      <trkpt lat="42.85722" lon="0.25298">
        <ele>1794.7</ele>
        <time>2022-02-09T08:54:04Z</time>
      </trkpt>
      <trkpt lat="42.85721" lon="0.25298">
        <ele>1794.8</ele>
        <time>2022-02-09T08:54:05Z</time>
      </trkpt>
      <trkpt lat="42.85721" lon="0.25297">
        <ele>1794.9</ele>
        <time>2022-02-09T08:54:06Z</time>
      </trkpt>
      <trkpt lat="42.8572" lon="0.25296">
        <ele>1795</ele>
        <time>2022-02-09T08:54:07Z</time>
      </trkpt>
      <trkpt lat="42.8572" lon="0.25296">
        <ele>1795.1</ele>
        <time>2022-02-09T08:54:08Z</time>
      </trkpt>
      <trkpt lat="42.85719" lon="0.25295">
        <ele>1795.2</ele>
        <time>2022-02-09T08:54:09Z</time>
      </trkpt>
      <trkpt lat="42.85719" lon="0.25294">
        <ele>1795.3</ele>
        <time>2022-02-09T08:54:10Z</time>
      </trkpt>
      <trkpt lat="42.85718" lon="0.25294">
        <ele>1795.5</ele>
        <time>2022-02-09T08:54:11Z</time>
      </trkpt>
      <trkpt lat="42.85717" lon="0.25293">
        <ele>1795.6</ele>
        <time>2022-02-09T08:54:12Z</time>
      </trkpt>
      <trkpt lat="42.85716" lon="0.25292">
        <ele>1795.8</ele>
        <time>2022-02-09T08:54:13Z</time>
      </trkpt>
      <trkpt lat="42.85715" lon="0.25291">
        <ele>1796</ele>
        <time>2022-02-09T08:54:14Z</time>
      </trkpt>
      <trkpt lat="42.85715" lon="0.25291">
        <ele>1796.1</ele>
        <time>2022-02-09T08:54:15Z</time>
      </trkpt>
      <trkpt lat="42.85714" lon="0.2529">
        <ele>1796.2</ele>
        <time>2022-02-09T08:54:16Z</time>
      </trkpt>
      <trkpt lat="42.85714" lon="0.25289">
        <ele>1796.3</ele>
        <time>2022-02-09T08:54:17Z</time>
      </trkpt>
      <trkpt lat="42.85713" lon="0.25289">
        <ele>1796.4</ele>
        <time>2022-02-09T08:54:18Z</time>
      </trkpt>
      <trkpt lat="42.85713" lon="0.25288">
        <ele>1796.5</ele>
        <time>2022-02-09T08:54:19Z</time>
      </trkpt>
      <trkpt lat="42.85712" lon="0.25288">
        <ele>1796.6</ele>
        <time>2022-02-09T08:54:20Z</time>
      </trkpt>
      <trkpt lat="42.85712" lon="0.25287">
        <ele>1796.7</ele>
        <time>2022-02-09T08:54:21Z</time>
      </trkpt>
      <trkpt lat="42.85712" lon="0.25287">
        <ele>1796.7</ele>
        <time>2022-02-09T08:54:22Z</time>
      </trkpt>
      <trkpt lat="42.85711" lon="0.25286">
        <ele>1796.9</ele>
        <time>2022-02-09T08:54:23Z</time>
      </trkpt>
      <trkpt lat="42.85711" lon="0.25285">
        <ele>1797</ele>
        <time>2022-02-09T08:54:24Z</time>
      </trkpt>
      <trkpt lat="42.8571" lon="0.25284">
        <ele>1797.1</ele>
        <time>2022-02-09T08:54:25Z</time>
      </trkpt>
      <trkpt lat="42.8571" lon="0.25284">
        <ele>1797.2</ele>
        <time>2022-02-09T08:54:26Z</time>
      </trkpt>
      <trkpt lat="42.85709" lon="0.25283">
        <ele>1797.3</ele>
        <time>2022-02-09T08:54:27Z</time>
      </trkpt>
      <trkpt lat="42.85708" lon="0.25283">
        <ele>1797.5</ele>
        <time>2022-02-09T08:54:28Z</time>
      </trkpt>
      <trkpt lat="42.85708" lon="0.25282">
        <ele>1797.6</ele>
        <time>2022-02-09T08:54:29Z</time>
      </trkpt>
      <trkpt lat="42.85707" lon="0.25282">
        <ele>1797.7</ele>
        <time>2022-02-09T08:54:30Z</time>
      </trkpt>
      <trkpt lat="42.85707" lon="0.25281">
        <ele>1797.8</ele>
        <time>2022-02-09T08:54:31Z</time>
      </trkpt>
      <trkpt lat="42.85707" lon="0.25281">
        <ele>1797.9</ele>
        <time>2022-02-09T08:54:32Z</time>
      </trkpt>
      <trkpt lat="42.85707" lon="0.2528">
        <ele>1797.9</ele>
        <time>2022-02-09T08:54:33Z</time>
      </trkpt>
      <trkpt lat="42.85708" lon="0.2528">
        <ele>1798.1</ele>
        <time>2022-02-09T08:54:34Z</time>
      </trkpt>
      <trkpt lat="42.85709" lon="0.2528">
        <ele>1798.2</ele>
        <time>2022-02-09T08:54:35Z</time>
      </trkpt>
      <trkpt lat="42.8571" lon="0.2528">
        <ele>1798.4</ele>
        <time>2022-02-09T08:54:36Z</time>
      </trkpt>
      <trkpt lat="42.85712" lon="0.2528">
        <ele>1798.7</ele>
        <time>2022-02-09T08:54:37Z</time>
      </trkpt>
      <trkpt lat="42.85712" lon="0.25279">
        <ele>1798.8</ele>
        <time>2022-02-09T08:54:38Z</time>
      </trkpt>
      <trkpt lat="42.85713" lon="0.2528">
        <ele>1799</ele>
        <time>2022-02-09T08:54:39Z</time>
      </trkpt>
      <trkpt lat="42.85714" lon="0.2528">
        <ele>1799.1</ele>
        <time>2022-02-09T08:54:40Z</time>
      </trkpt>
      <trkpt lat="42.85714" lon="0.2528">
        <ele>1799.2</ele>
        <time>2022-02-09T08:54:41Z</time>
      </trkpt>
      <trkpt lat="42.85715" lon="0.25279">
        <ele>1799.3</ele>
        <time>2022-02-09T08:54:42Z</time>
      </trkpt>
      <trkpt lat="42.85715" lon="0.25279">
        <ele>1799.4</ele>
        <time>2022-02-09T08:54:43Z</time>
      </trkpt>
      <trkpt lat="42.85716" lon="0.2528">
        <ele>1799.5</ele>
        <time>2022-02-09T08:54:44Z</time>
      </trkpt>
      <trkpt lat="42.85717" lon="0.2528">
        <ele>1799.7</ele>
        <time>2022-02-09T08:54:45Z</time>
      </trkpt>
      <trkpt lat="42.85717" lon="0.2528">
        <ele>1799.8</ele>
        <time>2022-02-09T08:54:46Z</time>
      </trkpt>
      <trkpt lat="42.85718" lon="0.2528">
        <ele>1799.9</ele>
        <time>2022-02-09T08:54:47Z</time>
      </trkpt>
      <trkpt lat="42.85718" lon="0.25279">
        <ele>1800</ele>
        <time>2022-02-09T08:54:48Z</time>
      </trkpt>
      <trkpt lat="42.85719" lon="0.25279">
        <ele>1800.1</ele>
        <time>2022-02-09T08:54:49Z</time>
      </trkpt>
      <trkpt lat="42.85719" lon="0.25279">
        <ele>1800.2</ele>
        <time>2022-02-09T08:54:50Z</time>
      </trkpt>
      <trkpt lat="42.8572" lon="0.25279">
        <ele>1800.3</ele>
        <time>2022-02-09T08:54:51Z</time>
      </trkpt>
      <trkpt lat="42.8572" lon="0.25279">
        <ele>1800.4</ele>
        <time>2022-02-09T08:54:52Z</time>
      </trkpt>
      <trkpt lat="42.8572" lon="0.25278">
        <ele>1800.4</ele>
        <time>2022-02-09T08:54:53Z</time>
      </trkpt>
      <trkpt lat="42.85721" lon="0.25278">
        <ele>1800.5</ele>
        <time>2022-02-09T08:54:54Z</time>
      </trkpt>
      <trkpt lat="42.85721" lon="0.25278">
        <ele>1800.6</ele>
        <time>2022-02-09T08:54:55Z</time>
      </trkpt>
      <trkpt lat="42.85722" lon="0.25278">
        <ele>1800.7</ele>
        <time>2022-02-09T08:54:56Z</time>
      </trkpt>
      <trkpt lat="42.85722" lon="0.25278">
        <ele>1800.9</ele>
        <time>2022-02-09T08:54:57Z</time>
      </trkpt>
      <trkpt lat="42.85723" lon="0.25278">
        <ele>1801</ele>
        <time>2022-02-09T08:54:58Z</time>
      </trkpt>
      <trkpt lat="42.85723" lon="0.25278">
        <ele>1801.1</ele>
        <time>2022-02-09T08:54:59Z</time>
      </trkpt>
      <trkpt lat="42.85724" lon="0.25278">
        <ele>1801.2</ele>
        <time>2022-02-09T08:55:00Z</time>
      </trkpt>
      <trkpt lat="42.85724" lon="0.25278">
        <ele>1801.3</ele>
        <time>2022-02-09T08:55:01Z</time>
      </trkpt>
      <trkpt lat="42.85725" lon="0.25278">
        <ele>1801.4</ele>
        <time>2022-02-09T08:55:02Z</time>
      </trkpt>
      <trkpt lat="42.85725" lon="0.25278">
        <ele>1801.5</ele>
        <time>2022-02-09T08:55:03Z</time>
      </trkpt>
      <trkpt lat="42.85725" lon="0.25278">
        <ele>1801.6</ele>
        <time>2022-02-09T08:55:04Z</time>
      </trkpt>
      <trkpt lat="42.85726" lon="0.25278">
        <ele>1801.6</ele>
        <time>2022-02-09T08:55:05Z</time>
      </trkpt>
      <trkpt lat="42.85726" lon="0.25278">
        <ele>1801.7</ele>
        <time>2022-02-09T08:55:06Z</time>
      </trkpt>
      <trkpt lat="42.85726" lon="0.25278">
        <ele>1801.8</ele>
        <time>2022-02-09T08:55:07Z</time>
      </trkpt>
      <trkpt lat="42.85727" lon="0.25278">
        <ele>1801.9</ele>
        <time>2022-02-09T08:55:08Z</time>
      </trkpt>
      <trkpt lat="42.85727" lon="0.25278">
        <ele>1802.1</ele>
        <time>2022-02-09T08:55:09Z</time>
      </trkpt>
      <trkpt lat="42.85728" lon="0.25278">
        <ele>1802.3</ele>
        <time>2022-02-09T08:55:10Z</time>
      </trkpt>
      <trkpt lat="42.85729" lon="0.25278">
        <ele>1802.5</ele>
        <time>2022-02-09T08:55:11Z</time>
      </trkpt>
      <trkpt lat="42.8573" lon="0.25278">
        <ele>1802.7</ele>
        <time>2022-02-09T08:55:12Z</time>
      </trkpt>
      <trkpt lat="42.8573" lon="0.25278">
        <ele>1802.8</ele>
        <time>2022-02-09T08:55:13Z</time>
      </trkpt>
      <trkpt lat="42.85731" lon="0.25278">
        <ele>1802.9</ele>
        <time>2022-02-09T08:55:14Z</time>
      </trkpt>
      <trkpt lat="42.85731" lon="0.25278">
        <ele>1803</ele>
        <time>2022-02-09T08:55:15Z</time>
      </trkpt>
      <trkpt lat="42.85732" lon="0.25278">
        <ele>1803.1</ele>
        <time>2022-02-09T08:55:16Z</time>
      </trkpt>
      <trkpt lat="42.85732" lon="0.25278">
        <ele>1803.2</ele>
        <time>2022-02-09T08:55:17Z</time>
      </trkpt>
      <trkpt lat="42.85733" lon="0.25278">
        <ele>1803.4</ele>
        <time>2022-02-09T08:55:18Z</time>
      </trkpt>
      <trkpt lat="42.85733" lon="0.25278">
        <ele>1803.5</ele>
        <time>2022-02-09T08:55:19Z</time>
      </trkpt>
      <trkpt lat="42.85734" lon="0.25278">
        <ele>1803.6</ele>
        <time>2022-02-09T08:55:20Z</time>
      </trkpt>
      <trkpt lat="42.85734" lon="0.25277">
        <ele>1803.8</ele>
        <time>2022-02-09T08:55:21Z</time>
      </trkpt>
      <trkpt lat="42.85735" lon="0.25277">
        <ele>1803.9</ele>
        <time>2022-02-09T08:55:22Z</time>
      </trkpt>
      <trkpt lat="42.85735" lon="0.25277">
        <ele>1804</ele>
        <time>2022-02-09T08:55:23Z</time>
      </trkpt>
      <trkpt lat="42.85736" lon="0.25277">
        <ele>1804.1</ele>
        <time>2022-02-09T08:55:24Z</time>
      </trkpt>
      <trkpt lat="42.85736" lon="0.25277">
        <ele>1804.2</ele>
        <time>2022-02-09T08:55:25Z</time>
      </trkpt>
      <trkpt lat="42.85736" lon="0.25277">
        <ele>1804.3</ele>
        <time>2022-02-09T08:55:26Z</time>
      </trkpt>
      <trkpt lat="42.85737" lon="0.25277">
        <ele>1804.3</ele>
        <time>2022-02-09T08:55:27Z</time>
      </trkpt>
      <trkpt lat="42.85737" lon="0.25277">
        <ele>1804.3</ele>
        <time>2022-02-09T08:55:28Z</time>
      </trkpt>
      <trkpt lat="42.85737" lon="0.25277">
        <ele>1804.3</ele>
        <time>2022-02-09T08:55:29Z</time>
      </trkpt>
      <trkpt lat="42.85737" lon="0.25277">
        <ele>1804.4</ele>
        <time>2022-02-09T08:55:30Z</time>
      </trkpt>
      <trkpt lat="42.85738" lon="0.25278">
        <ele>1804.7</ele>
        <time>2022-02-09T08:55:31Z</time>
      </trkpt>
      <trkpt lat="42.85738" lon="0.25278">
        <ele>1804.7</ele>
        <time>2022-02-09T08:55:32Z</time>
      </trkpt>
      <trkpt lat="42.85739" lon="0.25278">
        <ele>1804.9</ele>
        <time>2022-02-09T08:55:33Z</time>
      </trkpt>
      <trkpt lat="42.85739" lon="0.25277">
        <ele>1805</ele>
        <time>2022-02-09T08:55:34Z</time>
      </trkpt>
      <trkpt lat="42.85739" lon="0.25277">
        <ele>1805</ele>
        <time>2022-02-09T08:55:35Z</time>
      </trkpt>
      <trkpt lat="42.85739" lon="0.25277">
        <ele>1805.1</ele>
        <time>2022-02-09T08:55:36Z</time>
      </trkpt>
      <trkpt lat="42.85739" lon="0.25277">
        <ele>1805.1</ele>
        <time>2022-02-09T08:55:37Z</time>
      </trkpt>
      <trkpt lat="42.85739" lon="0.25277">
        <ele>1805.1</ele>
        <time>2022-02-09T08:55:38Z</time>
      </trkpt>
      <trkpt lat="42.85739" lon="0.25277">
        <ele>1805.1</ele>
        <time>2022-02-09T08:55:39Z</time>
      </trkpt>
      <trkpt lat="42.85739" lon="0.25277">
        <ele>1805.1</ele>
        <time>2022-02-09T08:55:40Z</time>
      </trkpt>
      <trkpt lat="42.85739" lon="0.25276">
        <ele>1805.2</ele>
        <time>2022-02-09T08:55:41Z</time>
      </trkpt>
      <trkpt lat="42.85739" lon="0.25275">
        <ele>1805.4</ele>
        <time>2022-02-09T08:55:42Z</time>
      </trkpt>
      <trkpt lat="42.85738" lon="0.25274">
        <ele>1805.6</ele>
        <time>2022-02-09T08:55:43Z</time>
      </trkpt>
      <trkpt lat="42.85738" lon="0.25274">
        <ele>1805.7</ele>
        <time>2022-02-09T08:55:44Z</time>
      </trkpt>
      <trkpt lat="42.85737" lon="0.25273">
        <ele>1805.9</ele>
        <time>2022-02-09T08:55:45Z</time>
      </trkpt>
      <trkpt lat="42.85737" lon="0.25272">
        <ele>1806.1</ele>
        <time>2022-02-09T08:55:46Z</time>
      </trkpt>
      <trkpt lat="42.85737" lon="0.25272">
        <ele>1806.2</ele>
        <time>2022-02-09T08:55:47Z</time>
      </trkpt>
      <trkpt lat="42.85736" lon="0.25271">
        <ele>1806.4</ele>
        <time>2022-02-09T08:55:48Z</time>
      </trkpt>
      <trkpt lat="42.85735" lon="0.2527">
        <ele>1806.6</ele>
        <time>2022-02-09T08:55:49Z</time>
      </trkpt>
      <trkpt lat="42.85735" lon="0.2527">
        <ele>1806.7</ele>
        <time>2022-02-09T08:55:50Z</time>
      </trkpt>
      <trkpt lat="42.85735" lon="0.25269">
        <ele>1806.9</ele>
        <time>2022-02-09T08:55:51Z</time>
      </trkpt>
      <trkpt lat="42.85734" lon="0.25268">
        <ele>1807.1</ele>
        <time>2022-02-09T08:55:52Z</time>
      </trkpt>
      <trkpt lat="42.85734" lon="0.25267">
        <ele>1807.2</ele>
        <time>2022-02-09T08:55:53Z</time>
      </trkpt>
      <trkpt lat="42.85734" lon="0.25267">
        <ele>1807.4</ele>
        <time>2022-02-09T08:55:54Z</time>
      </trkpt>
      <trkpt lat="42.85734" lon="0.25266">
        <ele>1807.5</ele>
        <time>2022-02-09T08:55:55Z</time>
      </trkpt>
      <trkpt lat="42.85734" lon="0.25265">
        <ele>1807.7</ele>
        <time>2022-02-09T08:55:56Z</time>
      </trkpt>
      <trkpt lat="42.85734" lon="0.25264">
        <ele>1807.8</ele>
        <time>2022-02-09T08:55:57Z</time>
      </trkpt>
      <trkpt lat="42.85733" lon="0.25263">
        <ele>1808</ele>
        <time>2022-02-09T08:55:58Z</time>
      </trkpt>
      <trkpt lat="42.85733" lon="0.25263">
        <ele>1808.1</ele>
        <time>2022-02-09T08:55:59Z</time>
      </trkpt>
      <trkpt lat="42.85733" lon="0.25262">
        <ele>1808.3</ele>
        <time>2022-02-09T08:56:00Z</time>
      </trkpt>
      <trkpt lat="42.85732" lon="0.25262">
        <ele>1808.4</ele>
        <time>2022-02-09T08:56:01Z</time>
      </trkpt>
      <trkpt lat="42.85732" lon="0.25261">
        <ele>1808.5</ele>
        <time>2022-02-09T08:56:02Z</time>
      </trkpt>
      <trkpt lat="42.85731" lon="0.25261">
        <ele>1808.7</ele>
        <time>2022-02-09T08:56:03Z</time>
      </trkpt>
      <trkpt lat="42.8573" lon="0.2526">
        <ele>1808.9</ele>
        <time>2022-02-09T08:56:04Z</time>
      </trkpt>
      <trkpt lat="42.8573" lon="0.2526">
        <ele>1809</ele>
        <time>2022-02-09T08:56:05Z</time>
      </trkpt>
      <trkpt lat="42.85729" lon="0.2526">
        <ele>1809.2</ele>
        <time>2022-02-09T08:56:06Z</time>
      </trkpt>
      <trkpt lat="42.85729" lon="0.25259">
        <ele>1809.3</ele>
        <time>2022-02-09T08:56:07Z</time>
      </trkpt>
      <trkpt lat="42.85728" lon="0.25259">
        <ele>1809.4</ele>
        <time>2022-02-09T08:56:08Z</time>
      </trkpt>
      <trkpt lat="42.85728" lon="0.25258">
        <ele>1809.6</ele>
        <time>2022-02-09T08:56:09Z</time>
      </trkpt>
      <trkpt lat="42.85727" lon="0.25258">
        <ele>1809.7</ele>
        <time>2022-02-09T08:56:10Z</time>
      </trkpt>
      <trkpt lat="42.85727" lon="0.25258">
        <ele>1809.9</ele>
        <time>2022-02-09T08:56:11Z</time>
      </trkpt>
      <trkpt lat="42.85726" lon="0.25257">
        <ele>1810</ele>
        <time>2022-02-09T08:56:12Z</time>
      </trkpt>
      <trkpt lat="42.85726" lon="0.25258">
        <ele>1810</ele>
        <time>2022-02-09T08:56:13Z</time>
      </trkpt>
      <trkpt lat="42.85726" lon="0.25258">
        <ele>1810</ele>
        <time>2022-02-09T08:56:14Z</time>
      </trkpt>
      <trkpt lat="42.85726" lon="0.25258">
        <ele>1810</ele>
        <time>2022-02-09T08:56:15Z</time>
      </trkpt>
      <trkpt lat="42.85726" lon="0.25258">
        <ele>1810</ele>
        <time>2022-02-09T08:56:16Z</time>
      </trkpt>
      <trkpt lat="42.85726" lon="0.25258">
        <ele>1810</ele>
        <time>2022-02-09T08:56:17Z</time>
      </trkpt>
      <trkpt lat="42.85726" lon="0.25258">
        <ele>1810</ele>
        <time>2022-02-09T08:56:18Z</time>
      </trkpt>
      <trkpt lat="42.85726" lon="0.25257">
        <ele>1810.1</ele>
        <time>2022-02-09T08:56:19Z</time>
      </trkpt>
      <trkpt lat="42.85727" lon="0.25257">
        <ele>1810.2</ele>
        <time>2022-02-09T08:56:20Z</time>
      </trkpt>
      <trkpt lat="42.85727" lon="0.25257">
        <ele>1810.3</ele>
        <time>2022-02-09T08:56:21Z</time>
      </trkpt>
      <trkpt lat="42.85728" lon="0.25256">
        <ele>1810.4</ele>
        <time>2022-02-09T08:56:22Z</time>
      </trkpt>
      <trkpt lat="42.85728" lon="0.25256">
        <ele>1810.5</ele>
        <time>2022-02-09T08:56:23Z</time>
      </trkpt>
      <trkpt lat="42.85728" lon="0.25256">
        <ele>1810.6</ele>
        <time>2022-02-09T08:56:24Z</time>
      </trkpt>
      <trkpt lat="42.85729" lon="0.25256">
        <ele>1810.7</ele>
        <time>2022-02-09T08:56:25Z</time>
      </trkpt>
      <trkpt lat="42.85729" lon="0.25256">
        <ele>1810.7</ele>
        <time>2022-02-09T08:56:26Z</time>
      </trkpt>
      <trkpt lat="42.85729" lon="0.25256">
        <ele>1810.8</ele>
        <time>2022-02-09T08:56:27Z</time>
      </trkpt>
      <trkpt lat="42.85729" lon="0.25256">
        <ele>1810.8</ele>
        <time>2022-02-09T08:56:28Z</time>
      </trkpt>
      <trkpt lat="42.85729" lon="0.25256">
        <ele>1810.8</ele>
        <time>2022-02-09T08:56:29Z</time>
      </trkpt>
      <trkpt lat="42.85728" lon="0.25256">
        <ele>1810.9</ele>
        <time>2022-02-09T08:56:30Z</time>
      </trkpt>
      <trkpt lat="42.85727" lon="0.25255">
        <ele>1811.2</ele>
        <time>2022-02-09T08:56:31Z</time>
      </trkpt>
      <trkpt lat="42.85727" lon="0.25254">
        <ele>1811.3</ele>
        <time>2022-02-09T08:56:32Z</time>
      </trkpt>
      <trkpt lat="42.85726" lon="0.25254">
        <ele>1811.5</ele>
        <time>2022-02-09T08:56:33Z</time>
      </trkpt>
      <trkpt lat="42.85726" lon="0.25254">
        <ele>1811.6</ele>
        <time>2022-02-09T08:56:34Z</time>
      </trkpt>
      <trkpt lat="42.85725" lon="0.25254">
        <ele>1811.8</ele>
        <time>2022-02-09T08:56:35Z</time>
      </trkpt>
      <trkpt lat="42.85724" lon="0.25254">
        <ele>1811.9</ele>
        <time>2022-02-09T08:56:36Z</time>
      </trkpt>
      <trkpt lat="42.85724" lon="0.25253">
        <ele>1812</ele>
        <time>2022-02-09T08:56:37Z</time>
      </trkpt>
      <trkpt lat="42.85723" lon="0.25253">
        <ele>1812.1</ele>
        <time>2022-02-09T08:56:38Z</time>
      </trkpt>
      <trkpt lat="42.85723" lon="0.25253">
        <ele>1812.2</ele>
        <time>2022-02-09T08:56:39Z</time>
      </trkpt>
      <trkpt lat="42.85723" lon="0.25253">
        <ele>1812.3</ele>
        <time>2022-02-09T08:56:40Z</time>
      </trkpt>
      <trkpt lat="42.85723" lon="0.25253">
        <ele>1812.3</ele>
        <time>2022-02-09T08:56:41Z</time>
      </trkpt>
      <trkpt lat="42.85723" lon="0.25253">
        <ele>1812.3</ele>
        <time>2022-02-09T08:56:42Z</time>
      </trkpt>
      <trkpt lat="42.85723" lon="0.25253">
        <ele>1812.3</ele>
        <time>2022-02-09T08:56:43Z</time>
      </trkpt>
      <trkpt lat="42.85723" lon="0.25253">
        <ele>1812.3</ele>
        <time>2022-02-09T08:56:44Z</time>
      </trkpt>
      <trkpt lat="42.85723" lon="0.25253">
        <ele>1812.3</ele>
        <time>2022-02-09T08:56:45Z</time>
      </trkpt>
      <trkpt lat="42.85723" lon="0.25253">
        <ele>1812.3</ele>
        <time>2022-02-09T08:56:46Z</time>
      </trkpt>
      <trkpt lat="42.85723" lon="0.25253">
        <ele>1812.3</ele>
        <time>2022-02-09T08:56:47Z</time>
      </trkpt>
      <trkpt lat="42.85723" lon="0.25253">
        <ele>1812.3</ele>
        <time>2022-02-09T08:56:48Z</time>
      </trkpt>
      <trkpt lat="42.85723" lon="0.25253">
        <ele>1812.3</ele>
        <time>2022-02-09T08:56:49Z</time>
      </trkpt>
      <trkpt lat="42.85723" lon="0.25252">
        <ele>1812.3</ele>
        <time>2022-02-09T08:56:50Z</time>
      </trkpt>
      <trkpt lat="42.85722" lon="0.25252">
        <ele>1812.4</ele>
        <time>2022-02-09T08:56:51Z</time>
      </trkpt>
      <trkpt lat="42.85722" lon="0.25252">
        <ele>1812.5</ele>
        <time>2022-02-09T08:56:52Z</time>
      </trkpt>
      <trkpt lat="42.85721" lon="0.25251">
        <ele>1812.6</ele>
        <time>2022-02-09T08:56:53Z</time>
      </trkpt>
      <trkpt lat="42.85721" lon="0.25251">
        <ele>1812.8</ele>
        <time>2022-02-09T08:56:54Z</time>
      </trkpt>
      <trkpt lat="42.8572" lon="0.25251">
        <ele>1812.9</ele>
        <time>2022-02-09T08:56:55Z</time>
      </trkpt>
      <trkpt lat="42.8572" lon="0.2525">
        <ele>1813</ele>
        <time>2022-02-09T08:56:56Z</time>
      </trkpt>
      <trkpt lat="42.85719" lon="0.2525">
        <ele>1813.2</ele>
        <time>2022-02-09T08:56:57Z</time>
      </trkpt>
      <trkpt lat="42.85719" lon="0.25249">
        <ele>1813.3</ele>
        <time>2022-02-09T08:56:58Z</time>
      </trkpt>
      <trkpt lat="42.85718" lon="0.25249">
        <ele>1813.4</ele>
        <time>2022-02-09T08:56:59Z</time>
      </trkpt>
      <trkpt lat="42.85717" lon="0.25248">
        <ele>1813.5</ele>
        <time>2022-02-09T08:57:00Z</time>
      </trkpt>
      <trkpt lat="42.85717" lon="0.25248">
        <ele>1813.7</ele>
        <time>2022-02-09T08:57:01Z</time>
      </trkpt>
      <trkpt lat="42.85716" lon="0.25248">
        <ele>1813.9</ele>
        <time>2022-02-09T08:57:02Z</time>
      </trkpt>
      <trkpt lat="42.85715" lon="0.25247">
        <ele>1814</ele>
        <time>2022-02-09T08:57:03Z</time>
      </trkpt>
      <trkpt lat="42.85715" lon="0.25247">
        <ele>1814.1</ele>
        <time>2022-02-09T08:57:04Z</time>
      </trkpt>
      <trkpt lat="42.85714" lon="0.25246">
        <ele>1814.3</ele>
        <time>2022-02-09T08:57:05Z</time>
      </trkpt>
      <trkpt lat="42.85713" lon="0.25246">
        <ele>1814.4</ele>
        <time>2022-02-09T08:57:06Z</time>
      </trkpt>
      <trkpt lat="42.85713" lon="0.25246">
        <ele>1814.6</ele>
        <time>2022-02-09T08:57:07Z</time>
      </trkpt>
      <trkpt lat="42.85712" lon="0.25245">
        <ele>1814.7</ele>
        <time>2022-02-09T08:57:08Z</time>
      </trkpt>
      <trkpt lat="42.85711" lon="0.25245">
        <ele>1814.9</ele>
        <time>2022-02-09T08:57:09Z</time>
      </trkpt>
      <trkpt lat="42.8571" lon="0.25245">
        <ele>1815</ele>
        <time>2022-02-09T08:57:10Z</time>
      </trkpt>
      <trkpt lat="42.85709" lon="0.25245">
        <ele>1815.2</ele>
        <time>2022-02-09T08:57:11Z</time>
      </trkpt>
      <trkpt lat="42.85709" lon="0.25245">
        <ele>1815.3</ele>
        <time>2022-02-09T08:57:12Z</time>
      </trkpt>
      <trkpt lat="42.85708" lon="0.25245">
        <ele>1815.4</ele>
        <time>2022-02-09T08:57:13Z</time>
      </trkpt>
      <trkpt lat="42.85707" lon="0.25245">
        <ele>1815.6</ele>
        <time>2022-02-09T08:57:14Z</time>
      </trkpt>
      <trkpt lat="42.85706" lon="0.25245">
        <ele>1815.7</ele>
        <time>2022-02-09T08:57:15Z</time>
      </trkpt>
      <trkpt lat="42.85706" lon="0.25245">
        <ele>1815.8</ele>
        <time>2022-02-09T08:57:16Z</time>
      </trkpt>
      <trkpt lat="42.85705" lon="0.25244">
        <ele>1815.9</ele>
        <time>2022-02-09T08:57:17Z</time>
      </trkpt>
      <trkpt lat="42.85705" lon="0.25244">
        <ele>1816</ele>
        <time>2022-02-09T08:57:18Z</time>
      </trkpt>
      <trkpt lat="42.85704" lon="0.25244">
        <ele>1816.2</ele>
        <time>2022-02-09T08:57:19Z</time>
      </trkpt>
      <trkpt lat="42.85703" lon="0.25244">
        <ele>1816.3</ele>
        <time>2022-02-09T08:57:20Z</time>
      </trkpt>
      <trkpt lat="42.85703" lon="0.25243">
        <ele>1816.4</ele>
        <time>2022-02-09T08:57:21Z</time>
      </trkpt>
      <trkpt lat="42.85702" lon="0.25242">
        <ele>1816.5</ele>
        <time>2022-02-09T08:57:22Z</time>
      </trkpt>
      <trkpt lat="42.85702" lon="0.25242">
        <ele>1816.6</ele>
        <time>2022-02-09T08:57:23Z</time>
      </trkpt>
      <trkpt lat="42.85701" lon="0.25241">
        <ele>1816.7</ele>
        <time>2022-02-09T08:57:24Z</time>
      </trkpt>
      <trkpt lat="42.85701" lon="0.2524">
        <ele>1816.9</ele>
        <time>2022-02-09T08:57:25Z</time>
      </trkpt>
      <trkpt lat="42.85701" lon="0.25239">
        <ele>1817</ele>
        <time>2022-02-09T08:57:26Z</time>
      </trkpt>
      <trkpt lat="42.857" lon="0.25238">
        <ele>1817.1</ele>
        <time>2022-02-09T08:57:27Z</time>
      </trkpt>
      <trkpt lat="42.857" lon="0.25237">
        <ele>1817.3</ele>
        <time>2022-02-09T08:57:28Z</time>
      </trkpt>
      <trkpt lat="42.857" lon="0.25237">
        <ele>1817.4</ele>
        <time>2022-02-09T08:57:29Z</time>
      </trkpt>
      <trkpt lat="42.85699" lon="0.25236">
        <ele>1817.5</ele>
        <time>2022-02-09T08:57:30Z</time>
      </trkpt>
      <trkpt lat="42.85699" lon="0.25235">
        <ele>1817.6</ele>
        <time>2022-02-09T08:57:31Z</time>
      </trkpt>
      <trkpt lat="42.85699" lon="0.25234">
        <ele>1817.7</ele>
        <time>2022-02-09T08:57:32Z</time>
      </trkpt>
      <trkpt lat="42.85699" lon="0.25234">
        <ele>1817.8</ele>
        <time>2022-02-09T08:57:33Z</time>
      </trkpt>
      <trkpt lat="42.85698" lon="0.25233">
        <ele>1818</ele>
        <time>2022-02-09T08:57:34Z</time>
      </trkpt>
      <trkpt lat="42.85697" lon="0.25232">
        <ele>1818.2</ele>
        <time>2022-02-09T08:57:35Z</time>
      </trkpt>
      <trkpt lat="42.85696" lon="0.25231">
        <ele>1818.3</ele>
        <time>2022-02-09T08:57:36Z</time>
      </trkpt>
      <trkpt lat="42.85696" lon="0.2523">
        <ele>1818.5</ele>
        <time>2022-02-09T08:57:37Z</time>
      </trkpt>
      <trkpt lat="42.85695" lon="0.25229">
        <ele>1818.6</ele>
        <time>2022-02-09T08:57:38Z</time>
      </trkpt>
      <trkpt lat="42.85695" lon="0.25228">
        <ele>1818.7</ele>
        <time>2022-02-09T08:57:39Z</time>
      </trkpt>
      <trkpt lat="42.85694" lon="0.25228">
        <ele>1818.9</ele>
        <time>2022-02-09T08:57:40Z</time>
      </trkpt>
      <trkpt lat="42.85694" lon="0.25227">
        <ele>1819</ele>
        <time>2022-02-09T08:57:41Z</time>
      </trkpt>
      <trkpt lat="42.85694" lon="0.25226">
        <ele>1819.1</ele>
        <time>2022-02-09T08:57:42Z</time>
      </trkpt>
      <trkpt lat="42.85693" lon="0.25226">
        <ele>1819.2</ele>
        <time>2022-02-09T08:57:43Z</time>
      </trkpt>
      <trkpt lat="42.85693" lon="0.25225">
        <ele>1819.3</ele>
        <time>2022-02-09T08:57:44Z</time>
      </trkpt>
      <trkpt lat="42.85693" lon="0.25224">
        <ele>1819.4</ele>
        <time>2022-02-09T08:57:45Z</time>
      </trkpt>
      <trkpt lat="42.85692" lon="0.25224">
        <ele>1819.5</ele>
        <time>2022-02-09T08:57:46Z</time>
      </trkpt>
      <trkpt lat="42.85692" lon="0.25223">
        <ele>1819.6</ele>
        <time>2022-02-09T08:57:47Z</time>
      </trkpt>
      <trkpt lat="42.85691" lon="0.25222">
        <ele>1819.7</ele>
        <time>2022-02-09T08:57:48Z</time>
      </trkpt>
      <trkpt lat="42.8569" lon="0.25221">
        <ele>1819.9</ele>
        <time>2022-02-09T08:57:49Z</time>
      </trkpt>
      <trkpt lat="42.8569" lon="0.2522">
        <ele>1820.1</ele>
        <time>2022-02-09T08:57:50Z</time>
      </trkpt>
      <trkpt lat="42.85689" lon="0.2522">
        <ele>1820.2</ele>
        <time>2022-02-09T08:57:51Z</time>
      </trkpt>
      <trkpt lat="42.85689" lon="0.25219">
        <ele>1820.4</ele>
        <time>2022-02-09T08:57:52Z</time>
      </trkpt>
      <trkpt lat="42.85688" lon="0.25218">
        <ele>1820.5</ele>
        <time>2022-02-09T08:57:53Z</time>
      </trkpt>
      <trkpt lat="42.85688" lon="0.25217">
        <ele>1820.6</ele>
        <time>2022-02-09T08:57:54Z</time>
      </trkpt>
      <trkpt lat="42.85688" lon="0.25216">
        <ele>1820.7</ele>
        <time>2022-02-09T08:57:55Z</time>
      </trkpt>
      <trkpt lat="42.85687" lon="0.25216">
        <ele>1820.9</ele>
        <time>2022-02-09T08:57:56Z</time>
      </trkpt>
      <trkpt lat="42.85687" lon="0.25215">
        <ele>1821</ele>
        <time>2022-02-09T08:57:57Z</time>
      </trkpt>
      <trkpt lat="42.85687" lon="0.25214">
        <ele>1821.1</ele>
        <time>2022-02-09T08:57:58Z</time>
      </trkpt>
      <trkpt lat="42.85687" lon="0.25213">
        <ele>1821.2</ele>
        <time>2022-02-09T08:57:59Z</time>
      </trkpt>
      <trkpt lat="42.85687" lon="0.25213">
        <ele>1821.3</ele>
        <time>2022-02-09T08:58:00Z</time>
      </trkpt>
      <trkpt lat="42.85687" lon="0.25212">
        <ele>1821.3</ele>
        <time>2022-02-09T08:58:01Z</time>
      </trkpt>
      <trkpt lat="42.85687" lon="0.25211">
        <ele>1821.4</ele>
        <time>2022-02-09T08:58:02Z</time>
      </trkpt>
      <trkpt lat="42.85687" lon="0.2521">
        <ele>1821.6</ele>
        <time>2022-02-09T08:58:03Z</time>
      </trkpt>
      <trkpt lat="42.85686" lon="0.25209">
        <ele>1821.7</ele>
        <time>2022-02-09T08:58:04Z</time>
      </trkpt>
      <trkpt lat="42.85686" lon="0.25208">
        <ele>1821.8</ele>
        <time>2022-02-09T08:58:05Z</time>
      </trkpt>
      <trkpt lat="42.85685" lon="0.25208">
        <ele>1822</ele>
        <time>2022-02-09T08:58:06Z</time>
      </trkpt>
      <trkpt lat="42.85685" lon="0.25207">
        <ele>1822</ele>
        <time>2022-02-09T08:58:07Z</time>
      </trkpt>
      <trkpt lat="42.85685" lon="0.25206">
        <ele>1822.2</ele>
        <time>2022-02-09T08:58:08Z</time>
      </trkpt>
      <trkpt lat="42.85685" lon="0.25206">
        <ele>1822.3</ele>
        <time>2022-02-09T08:58:09Z</time>
      </trkpt>
      <trkpt lat="42.85684" lon="0.25205">
        <ele>1822.4</ele>
        <time>2022-02-09T08:58:10Z</time>
      </trkpt>
      <trkpt lat="42.85684" lon="0.25204">
        <ele>1822.5</ele>
        <time>2022-02-09T08:58:11Z</time>
      </trkpt>
      <trkpt lat="42.85684" lon="0.25203">
        <ele>1822.7</ele>
        <time>2022-02-09T08:58:12Z</time>
      </trkpt>
      <trkpt lat="42.85683" lon="0.25202">
        <ele>1822.8</ele>
        <time>2022-02-09T08:58:13Z</time>
      </trkpt>
      <trkpt lat="42.85683" lon="0.25201">
        <ele>1823</ele>
        <time>2022-02-09T08:58:14Z</time>
      </trkpt>
      <trkpt lat="42.85682" lon="0.25201">
        <ele>1823.1</ele>
        <time>2022-02-09T08:58:15Z</time>
      </trkpt>
      <trkpt lat="42.85681" lon="0.252">
        <ele>1823.2</ele>
        <time>2022-02-09T08:58:16Z</time>
      </trkpt>
      <trkpt lat="42.85681" lon="0.25199">
        <ele>1823.4</ele>
        <time>2022-02-09T08:58:17Z</time>
      </trkpt>
      <trkpt lat="42.8568" lon="0.25199">
        <ele>1823.5</ele>
        <time>2022-02-09T08:58:18Z</time>
      </trkpt>
      <trkpt lat="42.8568" lon="0.25198">
        <ele>1823.6</ele>
        <time>2022-02-09T08:58:19Z</time>
      </trkpt>
      <trkpt lat="42.8568" lon="0.25197">
        <ele>1823.7</ele>
        <time>2022-02-09T08:58:20Z</time>
      </trkpt>
      <trkpt lat="42.8568" lon="0.25197">
        <ele>1823.8</ele>
        <time>2022-02-09T08:58:21Z</time>
      </trkpt>
      <trkpt lat="42.8568" lon="0.25196">
        <ele>1823.9</ele>
        <time>2022-02-09T08:58:22Z</time>
      </trkpt>
      <trkpt lat="42.8568" lon="0.25195">
        <ele>1824</ele>
        <time>2022-02-09T08:58:23Z</time>
      </trkpt>
      <trkpt lat="42.85679" lon="0.25194">
        <ele>1824.2</ele>
        <time>2022-02-09T08:58:24Z</time>
      </trkpt>
      <trkpt lat="42.85679" lon="0.25193">
        <ele>1824.3</ele>
        <time>2022-02-09T08:58:25Z</time>
      </trkpt>
      <trkpt lat="42.85678" lon="0.25192">
        <ele>1824.4</ele>
        <time>2022-02-09T08:58:26Z</time>
      </trkpt>
      <trkpt lat="42.85678" lon="0.25192">
        <ele>1824.6</ele>
        <time>2022-02-09T08:58:27Z</time>
      </trkpt>
      <trkpt lat="42.85678" lon="0.25191">
        <ele>1824.7</ele>
        <time>2022-02-09T08:58:28Z</time>
      </trkpt>
      <trkpt lat="42.85677" lon="0.2519">
        <ele>1824.8</ele>
        <time>2022-02-09T08:58:29Z</time>
      </trkpt>
      <trkpt lat="42.85677" lon="0.2519">
        <ele>1824.9</ele>
        <time>2022-02-09T08:58:30Z</time>
      </trkpt>
      <trkpt lat="42.85676" lon="0.25189">
        <ele>1825</ele>
        <time>2022-02-09T08:58:31Z</time>
      </trkpt>
      <trkpt lat="42.85676" lon="0.25189">
        <ele>1825.1</ele>
        <time>2022-02-09T08:58:32Z</time>
      </trkpt>
      <trkpt lat="42.85676" lon="0.25188">
        <ele>1825.2</ele>
        <time>2022-02-09T08:58:33Z</time>
      </trkpt>
      <trkpt lat="42.85676" lon="0.25187">
        <ele>1825.3</ele>
        <time>2022-02-09T08:58:34Z</time>
      </trkpt>
      <trkpt lat="42.85676" lon="0.25187">
        <ele>1825.4</ele>
        <time>2022-02-09T08:58:35Z</time>
      </trkpt>
      <trkpt lat="42.85676" lon="0.25186">
        <ele>1825.5</ele>
        <time>2022-02-09T08:58:36Z</time>
      </trkpt>
      <trkpt lat="42.85675" lon="0.25185">
        <ele>1825.7</ele>
        <time>2022-02-09T08:58:37Z</time>
      </trkpt>
      <trkpt lat="42.85675" lon="0.25185">
        <ele>1825.8</ele>
        <time>2022-02-09T08:58:38Z</time>
      </trkpt>
      <trkpt lat="42.85674" lon="0.25184">
        <ele>1825.9</ele>
        <time>2022-02-09T08:58:39Z</time>
      </trkpt>
      <trkpt lat="42.85674" lon="0.25183">
        <ele>1826</ele>
        <time>2022-02-09T08:58:40Z</time>
      </trkpt>
      <trkpt lat="42.85673" lon="0.25182">
        <ele>1826.2</ele>
        <time>2022-02-09T08:58:41Z</time>
      </trkpt>
      <trkpt lat="42.85673" lon="0.25182">
        <ele>1826.3</ele>
        <time>2022-02-09T08:58:42Z</time>
      </trkpt>
      <trkpt lat="42.85673" lon="0.25181">
        <ele>1826.4</ele>
        <time>2022-02-09T08:58:43Z</time>
      </trkpt>
      <trkpt lat="42.85672" lon="0.2518">
        <ele>1826.6</ele>
        <time>2022-02-09T08:58:44Z</time>
      </trkpt>
      <trkpt lat="42.85672" lon="0.25179">
        <ele>1826.7</ele>
        <time>2022-02-09T08:58:45Z</time>
      </trkpt>
      <trkpt lat="42.85672" lon="0.25179">
        <ele>1826.8</ele>
        <time>2022-02-09T08:58:46Z</time>
      </trkpt>
      <trkpt lat="42.85671" lon="0.25178">
        <ele>1826.9</ele>
        <time>2022-02-09T08:58:47Z</time>
      </trkpt>
      <trkpt lat="42.85671" lon="0.25177">
        <ele>1827.1</ele>
        <time>2022-02-09T08:58:48Z</time>
      </trkpt>
      <trkpt lat="42.85671" lon="0.25176">
        <ele>1827.2</ele>
        <time>2022-02-09T08:58:49Z</time>
      </trkpt>
      <trkpt lat="42.8567" lon="0.25176">
        <ele>1827.3</ele>
        <time>2022-02-09T08:58:50Z</time>
      </trkpt>
      <trkpt lat="42.8567" lon="0.25175">
        <ele>1827.4</ele>
        <time>2022-02-09T08:58:51Z</time>
      </trkpt>
      <trkpt lat="42.8567" lon="0.25174">
        <ele>1827.6</ele>
        <time>2022-02-09T08:58:52Z</time>
      </trkpt>
      <trkpt lat="42.85669" lon="0.25174">
        <ele>1827.7</ele>
        <time>2022-02-09T08:58:53Z</time>
      </trkpt>
      <trkpt lat="42.85669" lon="0.25173">
        <ele>1827.8</ele>
        <time>2022-02-09T08:58:54Z</time>
      </trkpt>
      <trkpt lat="42.85669" lon="0.25172">
        <ele>1827.9</ele>
        <time>2022-02-09T08:58:55Z</time>
      </trkpt>
      <trkpt lat="42.85668" lon="0.25171">
        <ele>1828.1</ele>
        <time>2022-02-09T08:58:56Z</time>
      </trkpt>
      <trkpt lat="42.85668" lon="0.2517">
        <ele>1828.2</ele>
        <time>2022-02-09T08:58:57Z</time>
      </trkpt>
      <trkpt lat="42.85668" lon="0.25169">
        <ele>1828.4</ele>
        <time>2022-02-09T08:58:58Z</time>
      </trkpt>
      <trkpt lat="42.85668" lon="0.25168">
        <ele>1828.5</ele>
        <time>2022-02-09T08:58:59Z</time>
      </trkpt>
      <trkpt lat="42.85668" lon="0.25167">
        <ele>1828.6</ele>
        <time>2022-02-09T08:59:00Z</time>
      </trkpt>
      <trkpt lat="42.85668" lon="0.25167">
        <ele>1828.8</ele>
        <time>2022-02-09T08:59:01Z</time>
      </trkpt>
      <trkpt lat="42.85668" lon="0.25166">
        <ele>1828.9</ele>
        <time>2022-02-09T08:59:02Z</time>
      </trkpt>
      <trkpt lat="42.85667" lon="0.25164">
        <ele>1829.1</ele>
        <time>2022-02-09T08:59:03Z</time>
      </trkpt>
      <trkpt lat="42.85667" lon="0.25163">
        <ele>1829.3</ele>
        <time>2022-02-09T08:59:04Z</time>
      </trkpt>
      <trkpt lat="42.85666" lon="0.25163">
        <ele>1829.4</ele>
        <time>2022-02-09T08:59:05Z</time>
      </trkpt>
      <trkpt lat="42.85665" lon="0.25162">
        <ele>1829.6</ele>
        <time>2022-02-09T08:59:06Z</time>
      </trkpt>
      <trkpt lat="42.85665" lon="0.25161">
        <ele>1829.8</ele>
        <time>2022-02-09T08:59:07Z</time>
      </trkpt>
      <trkpt lat="42.85664" lon="0.25161">
        <ele>1829.9</ele>
        <time>2022-02-09T08:59:08Z</time>
      </trkpt>
      <trkpt lat="42.85664" lon="0.2516">
        <ele>1830</ele>
        <time>2022-02-09T08:59:09Z</time>
      </trkpt>
      <trkpt lat="42.85663" lon="0.25159">
        <ele>1830.2</ele>
        <time>2022-02-09T08:59:10Z</time>
      </trkpt>
      <trkpt lat="42.85663" lon="0.25159">
        <ele>1830.3</ele>
        <time>2022-02-09T08:59:11Z</time>
      </trkpt>
      <trkpt lat="42.85662" lon="0.25158">
        <ele>1830.5</ele>
        <time>2022-02-09T08:59:12Z</time>
      </trkpt>
      <trkpt lat="42.85661" lon="0.25158">
        <ele>1830.7</ele>
        <time>2022-02-09T08:59:13Z</time>
      </trkpt>
      <trkpt lat="42.8566" lon="0.25157">
        <ele>1830.8</ele>
        <time>2022-02-09T08:59:14Z</time>
      </trkpt>
      <trkpt lat="42.8566" lon="0.25157">
        <ele>1830.9</ele>
        <time>2022-02-09T08:59:15Z</time>
      </trkpt>
      <trkpt lat="42.8566" lon="0.25156">
        <ele>1831</ele>
        <time>2022-02-09T08:59:16Z</time>
      </trkpt>
      <trkpt lat="42.85659" lon="0.25156">
        <ele>1831.2</ele>
        <time>2022-02-09T08:59:17Z</time>
      </trkpt>
      <trkpt lat="42.85658" lon="0.25156">
        <ele>1831.3</ele>
        <time>2022-02-09T08:59:18Z</time>
      </trkpt>
      <trkpt lat="42.85657" lon="0.25155">
        <ele>1831.5</ele>
        <time>2022-02-09T08:59:19Z</time>
      </trkpt>
      <trkpt lat="42.85657" lon="0.25155">
        <ele>1831.6</ele>
        <time>2022-02-09T08:59:20Z</time>
      </trkpt>
      <trkpt lat="42.85656" lon="0.25154">
        <ele>1831.8</ele>
        <time>2022-02-09T08:59:21Z</time>
      </trkpt>
      <trkpt lat="42.85655" lon="0.25154">
        <ele>1831.9</ele>
        <time>2022-02-09T08:59:22Z</time>
      </trkpt>
      <trkpt lat="42.85655" lon="0.25153">
        <ele>1832.1</ele>
        <time>2022-02-09T08:59:23Z</time>
      </trkpt>
      <trkpt lat="42.85654" lon="0.25153">
        <ele>1832.2</ele>
        <time>2022-02-09T08:59:24Z</time>
      </trkpt>
      <trkpt lat="42.85654" lon="0.25152">
        <ele>1832.3</ele>
        <time>2022-02-09T08:59:25Z</time>
      </trkpt>
      <trkpt lat="42.85653" lon="0.25152">
        <ele>1832.4</ele>
        <time>2022-02-09T08:59:26Z</time>
      </trkpt>
      <trkpt lat="42.85653" lon="0.25151">
        <ele>1832.6</ele>
        <time>2022-02-09T08:59:27Z</time>
      </trkpt>
      <trkpt lat="42.85652" lon="0.2515">
        <ele>1832.7</ele>
        <time>2022-02-09T08:59:28Z</time>
      </trkpt>
      <trkpt lat="42.85652" lon="0.2515">
        <ele>1832.8</ele>
        <time>2022-02-09T08:59:29Z</time>
      </trkpt>
      <trkpt lat="42.85652" lon="0.25149">
        <ele>1832.9</ele>
        <time>2022-02-09T08:59:30Z</time>
      </trkpt>
      <trkpt lat="42.85651" lon="0.25148">
        <ele>1833</ele>
        <time>2022-02-09T08:59:31Z</time>
      </trkpt>
      <trkpt lat="42.85651" lon="0.25148">
        <ele>1833.1</ele>
        <time>2022-02-09T08:59:32Z</time>
      </trkpt>
      <trkpt lat="42.85651" lon="0.25147">
        <ele>1833.2</ele>
        <time>2022-02-09T08:59:33Z</time>
      </trkpt>
      <trkpt lat="42.85651" lon="0.25147">
        <ele>1833.3</ele>
        <time>2022-02-09T08:59:34Z</time>
      </trkpt>
      <trkpt lat="42.85651" lon="0.25146">
        <ele>1833.4</ele>
        <time>2022-02-09T08:59:35Z</time>
      </trkpt>
      <trkpt lat="42.85651" lon="0.25145">
        <ele>1833.5</ele>
        <time>2022-02-09T08:59:36Z</time>
      </trkpt>
      <trkpt lat="42.85651" lon="0.25144">
        <ele>1833.6</ele>
        <time>2022-02-09T08:59:37Z</time>
      </trkpt>
      <trkpt lat="42.8565" lon="0.25143">
        <ele>1833.8</ele>
        <time>2022-02-09T08:59:38Z</time>
      </trkpt>
      <trkpt lat="42.8565" lon="0.25142">
        <ele>1833.9</ele>
        <time>2022-02-09T08:59:39Z</time>
      </trkpt>
      <trkpt lat="42.8565" lon="0.25141">
        <ele>1834.1</ele>
        <time>2022-02-09T08:59:40Z</time>
      </trkpt>
      <trkpt lat="42.8565" lon="0.25141">
        <ele>1834.2</ele>
        <time>2022-02-09T08:59:41Z</time>
      </trkpt>
      <trkpt lat="42.8565" lon="0.2514">
        <ele>1834.3</ele>
        <time>2022-02-09T08:59:42Z</time>
      </trkpt>
      <trkpt lat="42.8565" lon="0.25139">
        <ele>1834.4</ele>
        <time>2022-02-09T08:59:43Z</time>
      </trkpt>
      <trkpt lat="42.8565" lon="0.25138">
        <ele>1834.5</ele>
        <time>2022-02-09T08:59:44Z</time>
      </trkpt>
      <trkpt lat="42.8565" lon="0.25137">
        <ele>1834.7</ele>
        <time>2022-02-09T08:59:45Z</time>
      </trkpt>
      <trkpt lat="42.8565" lon="0.25136">
        <ele>1834.8</ele>
        <time>2022-02-09T08:59:46Z</time>
      </trkpt>
      <trkpt lat="42.8565" lon="0.25135">
        <ele>1834.9</ele>
        <time>2022-02-09T08:59:47Z</time>
      </trkpt>
      <trkpt lat="42.85651" lon="0.25134">
        <ele>1835</ele>
        <time>2022-02-09T08:59:48Z</time>
      </trkpt>
      <trkpt lat="42.85651" lon="0.25133">
        <ele>1835.2</ele>
        <time>2022-02-09T08:59:49Z</time>
      </trkpt>
      <trkpt lat="42.85651" lon="0.25132">
        <ele>1835.3</ele>
        <time>2022-02-09T08:59:50Z</time>
      </trkpt>
      <trkpt lat="42.85651" lon="0.25131">
        <ele>1835.4</ele>
        <time>2022-02-09T08:59:51Z</time>
      </trkpt>
      <trkpt lat="42.85652" lon="0.2513">
        <ele>1835.6</ele>
        <time>2022-02-09T08:59:52Z</time>
      </trkpt>
      <trkpt lat="42.85652" lon="0.25129">
        <ele>1835.7</ele>
        <time>2022-02-09T08:59:53Z</time>
      </trkpt>
      <trkpt lat="42.85652" lon="0.25128">
        <ele>1835.8</ele>
        <time>2022-02-09T08:59:54Z</time>
      </trkpt>
      <trkpt lat="42.85652" lon="0.25127">
        <ele>1835.9</ele>
        <time>2022-02-09T08:59:55Z</time>
      </trkpt>
      <trkpt lat="42.85652" lon="0.25126">
        <ele>1836.1</ele>
        <time>2022-02-09T08:59:56Z</time>
      </trkpt>
      <trkpt lat="42.85653" lon="0.25125">
        <ele>1836.2</ele>
        <time>2022-02-09T08:59:57Z</time>
      </trkpt>
      <trkpt lat="42.85653" lon="0.25123">
        <ele>1836.3</ele>
        <time>2022-02-09T08:59:58Z</time>
      </trkpt>
      <trkpt lat="42.85653" lon="0.25122">
        <ele>1836.5</ele>
        <time>2022-02-09T08:59:59Z</time>
      </trkpt>
      <trkpt lat="42.85653" lon="0.25121">
        <ele>1836.6</ele>
        <time>2022-02-09T09:00:00Z</time>
      </trkpt>
      <trkpt lat="42.85653" lon="0.2512">
        <ele>1836.7</ele>
        <time>2022-02-09T09:00:01Z</time>
      </trkpt>
      <trkpt lat="42.85653" lon="0.25119">
        <ele>1836.8</ele>
        <time>2022-02-09T09:00:02Z</time>
      </trkpt>
      <trkpt lat="42.85653" lon="0.25118">
        <ele>1837</ele>
        <time>2022-02-09T09:00:03Z</time>
      </trkpt>
      <trkpt lat="42.85653" lon="0.25117">
        <ele>1837.1</ele>
        <time>2022-02-09T09:00:04Z</time>
      </trkpt>
      <trkpt lat="42.85653" lon="0.25116">
        <ele>1837.2</ele>
        <time>2022-02-09T09:00:05Z</time>
      </trkpt>
      <trkpt lat="42.85653" lon="0.25115">
        <ele>1837.3</ele>
        <time>2022-02-09T09:00:06Z</time>
      </trkpt>
      <trkpt lat="42.85652" lon="0.25114">
        <ele>1837.4</ele>
        <time>2022-02-09T09:00:07Z</time>
      </trkpt>
      <trkpt lat="42.85652" lon="0.25113">
        <ele>1837.5</ele>
        <time>2022-02-09T09:00:08Z</time>
      </trkpt>
      <trkpt lat="42.85652" lon="0.25112">
        <ele>1837.7</ele>
        <time>2022-02-09T09:00:09Z</time>
      </trkpt>
      <trkpt lat="42.85652" lon="0.25111">
        <ele>1837.8</ele>
        <time>2022-02-09T09:00:10Z</time>
      </trkpt>
      <trkpt lat="42.85652" lon="0.2511">
        <ele>1837.9</ele>
        <time>2022-02-09T09:00:11Z</time>
      </trkpt>
      <trkpt lat="42.85652" lon="0.25109">
        <ele>1838</ele>
        <time>2022-02-09T09:00:12Z</time>
      </trkpt>
      <trkpt lat="42.85652" lon="0.25108">
        <ele>1838.1</ele>
        <time>2022-02-09T09:00:13Z</time>
      </trkpt>
      <trkpt lat="42.85652" lon="0.25107">
        <ele>1838.3</ele>
        <time>2022-02-09T09:00:14Z</time>
      </trkpt>
      <trkpt lat="42.85652" lon="0.25106">
        <ele>1838.4</ele>
        <time>2022-02-09T09:00:15Z</time>
      </trkpt>
      <trkpt lat="42.85652" lon="0.25105">
        <ele>1838.5</ele>
        <time>2022-02-09T09:00:16Z</time>
      </trkpt>
      <trkpt lat="42.85651" lon="0.25104">
        <ele>1838.6</ele>
        <time>2022-02-09T09:00:17Z</time>
      </trkpt>
      <trkpt lat="42.85651" lon="0.25103">
        <ele>1838.8</ele>
        <time>2022-02-09T09:00:18Z</time>
      </trkpt>
      <trkpt lat="42.85651" lon="0.25101">
        <ele>1838.9</ele>
        <time>2022-02-09T09:00:19Z</time>
      </trkpt>
      <trkpt lat="42.85651" lon="0.251">
        <ele>1839</ele>
        <time>2022-02-09T09:00:20Z</time>
      </trkpt>
      <trkpt lat="42.85651" lon="0.25099">
        <ele>1839.2</ele>
        <time>2022-02-09T09:00:21Z</time>
      </trkpt>
      <trkpt lat="42.8565" lon="0.25098">
        <ele>1839.3</ele>
        <time>2022-02-09T09:00:22Z</time>
      </trkpt>
      <trkpt lat="42.8565" lon="0.25097">
        <ele>1839.4</ele>
        <time>2022-02-09T09:00:23Z</time>
      </trkpt>
      <trkpt lat="42.8565" lon="0.25096">
        <ele>1839.6</ele>
        <time>2022-02-09T09:00:24Z</time>
      </trkpt>
      <trkpt lat="42.85649" lon="0.25095">
        <ele>1839.7</ele>
        <time>2022-02-09T09:00:25Z</time>
      </trkpt>
      <trkpt lat="42.85649" lon="0.25094">
        <ele>1839.8</ele>
        <time>2022-02-09T09:00:26Z</time>
      </trkpt>
      <trkpt lat="42.85648" lon="0.25093">
        <ele>1840</ele>
        <time>2022-02-09T09:00:27Z</time>
      </trkpt>
      <trkpt lat="42.85648" lon="0.25092">
        <ele>1840.1</ele>
        <time>2022-02-09T09:00:28Z</time>
      </trkpt>
      <trkpt lat="42.85647" lon="0.25091">
        <ele>1840.3</ele>
        <time>2022-02-09T09:00:29Z</time>
      </trkpt>
      <trkpt lat="42.85646" lon="0.2509">
        <ele>1840.4</ele>
        <time>2022-02-09T09:00:30Z</time>
      </trkpt>
      <trkpt lat="42.85645" lon="0.2509">
        <ele>1840.6</ele>
        <time>2022-02-09T09:00:31Z</time>
      </trkpt>
      <trkpt lat="42.85645" lon="0.25089">
        <ele>1840.7</ele>
        <time>2022-02-09T09:00:32Z</time>
      </trkpt>
      <trkpt lat="42.85644" lon="0.25089">
        <ele>1840.9</ele>
        <time>2022-02-09T09:00:33Z</time>
      </trkpt>
      <trkpt lat="42.85643" lon="0.25089">
        <ele>1841</ele>
        <time>2022-02-09T09:00:34Z</time>
      </trkpt>
      <trkpt lat="42.85642" lon="0.25089">
        <ele>1841.2</ele>
        <time>2022-02-09T09:00:35Z</time>
      </trkpt>
      <trkpt lat="42.85641" lon="0.25089">
        <ele>1841.3</ele>
        <time>2022-02-09T09:00:36Z</time>
      </trkpt>
      <trkpt lat="42.8564" lon="0.25088">
        <ele>1841.4</ele>
        <time>2022-02-09T09:00:37Z</time>
      </trkpt>
      <trkpt lat="42.8564" lon="0.25088">
        <ele>1841.6</ele>
        <time>2022-02-09T09:00:38Z</time>
      </trkpt>
      <trkpt lat="42.85639" lon="0.25087">
        <ele>1841.7</ele>
        <time>2022-02-09T09:00:39Z</time>
      </trkpt>
      <trkpt lat="42.85638" lon="0.25087">
        <ele>1841.8</ele>
        <time>2022-02-09T09:00:40Z</time>
      </trkpt>
      <trkpt lat="42.85638" lon="0.25086">
        <ele>1841.9</ele>
        <time>2022-02-09T09:00:41Z</time>
      </trkpt>
      <trkpt lat="42.85637" lon="0.25086">
        <ele>1842</ele>
        <time>2022-02-09T09:00:42Z</time>
      </trkpt>
      <trkpt lat="42.85636" lon="0.25085">
        <ele>1842.2</ele>
        <time>2022-02-09T09:00:43Z</time>
      </trkpt>
      <trkpt lat="42.85635" lon="0.25085">
        <ele>1842.3</ele>
        <time>2022-02-09T09:00:44Z</time>
      </trkpt>
      <trkpt lat="42.85635" lon="0.25084">
        <ele>1842.4</ele>
        <time>2022-02-09T09:00:45Z</time>
      </trkpt>
      <trkpt lat="42.85634" lon="0.25083">
        <ele>1842.7</ele>
        <time>2022-02-09T09:00:46Z</time>
      </trkpt>
      <trkpt lat="42.85634" lon="0.25083">
        <ele>1842.8</ele>
        <time>2022-02-09T09:00:47Z</time>
      </trkpt>
      <trkpt lat="42.85633" lon="0.25082">
        <ele>1842.9</ele>
        <time>2022-02-09T09:00:48Z</time>
      </trkpt>
      <trkpt lat="42.85632" lon="0.25082">
        <ele>1843</ele>
        <time>2022-02-09T09:00:49Z</time>
      </trkpt>
      <trkpt lat="42.85632" lon="0.25081">
        <ele>1843.1</ele>
        <time>2022-02-09T09:00:50Z</time>
      </trkpt>
      <trkpt lat="42.85631" lon="0.25081">
        <ele>1843.2</ele>
        <time>2022-02-09T09:00:51Z</time>
      </trkpt>
      <trkpt lat="42.85631" lon="0.2508">
        <ele>1843.3</ele>
        <time>2022-02-09T09:00:52Z</time>
      </trkpt>
      <trkpt lat="42.8563" lon="0.25079">
        <ele>1843.5</ele>
        <time>2022-02-09T09:00:53Z</time>
      </trkpt>
      <trkpt lat="42.8563" lon="0.25078">
        <ele>1843.7</ele>
        <time>2022-02-09T09:00:54Z</time>
      </trkpt>
      <trkpt lat="42.8563" lon="0.25078">
        <ele>1843.8</ele>
        <time>2022-02-09T09:00:55Z</time>
      </trkpt>
      <trkpt lat="42.85629" lon="0.25077">
        <ele>1843.9</ele>
        <time>2022-02-09T09:00:56Z</time>
      </trkpt>
      <trkpt lat="42.85629" lon="0.25076">
        <ele>1844</ele>
        <time>2022-02-09T09:00:57Z</time>
      </trkpt>
      <trkpt lat="42.85629" lon="0.25075">
        <ele>1844.1</ele>
        <time>2022-02-09T09:00:58Z</time>
      </trkpt>
      <trkpt lat="42.85628" lon="0.25074">
        <ele>1844.2</ele>
        <time>2022-02-09T09:00:59Z</time>
      </trkpt>
      <trkpt lat="42.85628" lon="0.25073">
        <ele>1844.3</ele>
        <time>2022-02-09T09:01:00Z</time>
      </trkpt>
      <trkpt lat="42.85628" lon="0.25073">
        <ele>1844.5</ele>
        <time>2022-02-09T09:01:01Z</time>
      </trkpt>
      <trkpt lat="42.85627" lon="0.25072">
        <ele>1844.7</ele>
        <time>2022-02-09T09:01:02Z</time>
      </trkpt>
      <trkpt lat="42.85627" lon="0.25071">
        <ele>1844.8</ele>
        <time>2022-02-09T09:01:03Z</time>
      </trkpt>
      <trkpt lat="42.85627" lon="0.25069">
        <ele>1845</ele>
        <time>2022-02-09T09:01:04Z</time>
      </trkpt>
      <trkpt lat="42.85627" lon="0.25068">
        <ele>1845.1</ele>
        <time>2022-02-09T09:01:05Z</time>
      </trkpt>
      <trkpt lat="42.85628" lon="0.25067">
        <ele>1845.2</ele>
        <time>2022-02-09T09:01:06Z</time>
      </trkpt>
      <trkpt lat="42.85629" lon="0.25066">
        <ele>1845.4</ele>
        <time>2022-02-09T09:01:07Z</time>
      </trkpt>
      <trkpt lat="42.85629" lon="0.25065">
        <ele>1845.5</ele>
        <time>2022-02-09T09:01:08Z</time>
      </trkpt>
      <trkpt lat="42.85629" lon="0.25065">
        <ele>1845.7</ele>
        <time>2022-02-09T09:01:09Z</time>
      </trkpt>
      <trkpt lat="42.85629" lon="0.25064">
        <ele>1845.8</ele>
        <time>2022-02-09T09:01:10Z</time>
      </trkpt>
      <trkpt lat="42.8563" lon="0.25063">
        <ele>1845.9</ele>
        <time>2022-02-09T09:01:11Z</time>
      </trkpt>
      <trkpt lat="42.8563" lon="0.25062">
        <ele>1846</ele>
        <time>2022-02-09T09:01:12Z</time>
      </trkpt>
      <trkpt lat="42.8563" lon="0.25061">
        <ele>1846.1</ele>
        <time>2022-02-09T09:01:13Z</time>
      </trkpt>
      <trkpt lat="42.8563" lon="0.2506">
        <ele>1846.2</ele>
        <time>2022-02-09T09:01:14Z</time>
      </trkpt>
      <trkpt lat="42.85631" lon="0.25059">
        <ele>1846.3</ele>
        <time>2022-02-09T09:01:15Z</time>
      </trkpt>
      <trkpt lat="42.85631" lon="0.25058">
        <ele>1846.4</ele>
        <time>2022-02-09T09:01:16Z</time>
      </trkpt>
      <trkpt lat="42.85631" lon="0.25057">
        <ele>1846.6</ele>
        <time>2022-02-09T09:01:17Z</time>
      </trkpt>
      <trkpt lat="42.85631" lon="0.25056">
        <ele>1846.7</ele>
        <time>2022-02-09T09:01:18Z</time>
      </trkpt>
      <trkpt lat="42.85631" lon="0.25056">
        <ele>1846.8</ele>
        <time>2022-02-09T09:01:19Z</time>
      </trkpt>
      <trkpt lat="42.85632" lon="0.25055">
        <ele>1846.9</ele>
        <time>2022-02-09T09:01:20Z</time>
      </trkpt>
      <trkpt lat="42.85633" lon="0.25054">
        <ele>1847</ele>
        <time>2022-02-09T09:01:21Z</time>
      </trkpt>
      <trkpt lat="42.85633" lon="0.25053">
        <ele>1847.1</ele>
        <time>2022-02-09T09:01:22Z</time>
      </trkpt>
      <trkpt lat="42.85634" lon="0.25052">
        <ele>1847.2</ele>
        <time>2022-02-09T09:01:23Z</time>
      </trkpt>
      <trkpt lat="42.85634" lon="0.25052">
        <ele>1847.3</ele>
        <time>2022-02-09T09:01:24Z</time>
      </trkpt>
      <trkpt lat="42.85635" lon="0.25051">
        <ele>1847.5</ele>
        <time>2022-02-09T09:01:25Z</time>
      </trkpt>
      <trkpt lat="42.85636" lon="0.2505">
        <ele>1847.6</ele>
        <time>2022-02-09T09:01:26Z</time>
      </trkpt>
      <trkpt lat="42.85636" lon="0.25049">
        <ele>1847.7</ele>
        <time>2022-02-09T09:01:27Z</time>
      </trkpt>
      <trkpt lat="42.85637" lon="0.25048">
        <ele>1847.8</ele>
        <time>2022-02-09T09:01:28Z</time>
      </trkpt>
      <trkpt lat="42.85637" lon="0.25047">
        <ele>1847.9</ele>
        <time>2022-02-09T09:01:29Z</time>
      </trkpt>
      <trkpt lat="42.85637" lon="0.25046">
        <ele>1848</ele>
        <time>2022-02-09T09:01:30Z</time>
      </trkpt>
      <trkpt lat="42.85638" lon="0.25046">
        <ele>1848</ele>
        <time>2022-02-09T09:01:31Z</time>
      </trkpt>
      <trkpt lat="42.85638" lon="0.25045">
        <ele>1848.1</ele>
        <time>2022-02-09T09:01:32Z</time>
      </trkpt>
      <trkpt lat="42.85639" lon="0.25044">
        <ele>1848.2</ele>
        <time>2022-02-09T09:01:33Z</time>
      </trkpt>
      <trkpt lat="42.85639" lon="0.25044">
        <ele>1848.3</ele>
        <time>2022-02-09T09:01:34Z</time>
      </trkpt>
      <trkpt lat="42.8564" lon="0.25043">
        <ele>1848.4</ele>
        <time>2022-02-09T09:01:35Z</time>
      </trkpt>
      <trkpt lat="42.85641" lon="0.25043">
        <ele>1848.5</ele>
        <time>2022-02-09T09:01:36Z</time>
      </trkpt>
      <trkpt lat="42.85642" lon="0.25042">
        <ele>1848.6</ele>
        <time>2022-02-09T09:01:37Z</time>
      </trkpt>
      <trkpt lat="42.85643" lon="0.25042">
        <ele>1848.7</ele>
        <time>2022-02-09T09:01:38Z</time>
      </trkpt>
      <trkpt lat="42.85644" lon="0.25041">
        <ele>1848.8</ele>
        <time>2022-02-09T09:01:39Z</time>
      </trkpt>
      <trkpt lat="42.85644" lon="0.2504">
        <ele>1848.9</ele>
        <time>2022-02-09T09:01:40Z</time>
      </trkpt>
      <trkpt lat="42.85645" lon="0.2504">
        <ele>1849</ele>
        <time>2022-02-09T09:01:41Z</time>
      </trkpt>
      <trkpt lat="42.85646" lon="0.25039">
        <ele>1849.1</ele>
        <time>2022-02-09T09:01:42Z</time>
      </trkpt>
      <trkpt lat="42.85646" lon="0.25039">
        <ele>1849.2</ele>
        <time>2022-02-09T09:01:43Z</time>
      </trkpt>
      <trkpt lat="42.85647" lon="0.25038">
        <ele>1849.2</ele>
        <time>2022-02-09T09:01:44Z</time>
      </trkpt>
      <trkpt lat="42.85648" lon="0.25038">
        <ele>1849.3</ele>
        <time>2022-02-09T09:01:45Z</time>
      </trkpt>
      <trkpt lat="42.85649" lon="0.25037">
        <ele>1849.4</ele>
        <time>2022-02-09T09:01:46Z</time>
      </trkpt>
      <trkpt lat="42.85649" lon="0.25036">
        <ele>1849.4</ele>
        <time>2022-02-09T09:01:47Z</time>
      </trkpt>
      <trkpt lat="42.8565" lon="0.25036">
        <ele>1849.5</ele>
        <time>2022-02-09T09:01:48Z</time>
      </trkpt>
      <trkpt lat="42.8565" lon="0.25036">
        <ele>1849.5</ele>
        <time>2022-02-09T09:01:49Z</time>
      </trkpt>
      <trkpt lat="42.8565" lon="0.25036">
        <ele>1849.6</ele>
        <time>2022-02-09T09:01:50Z</time>
      </trkpt>
      <trkpt lat="42.8565" lon="0.25036">
        <ele>1849.6</ele>
        <time>2022-02-09T09:01:51Z</time>
      </trkpt>
      <trkpt lat="42.8565" lon="0.25036">
        <ele>1849.6</ele>
        <time>2022-02-09T09:01:52Z</time>
      </trkpt>
      <trkpt lat="42.8565" lon="0.25036">
        <ele>1849.6</ele>
        <time>2022-02-09T09:01:53Z</time>
      </trkpt>
      <trkpt lat="42.8565" lon="0.25036">
        <ele>1849.6</ele>
        <time>2022-02-09T09:01:54Z</time>
      </trkpt>
      <trkpt lat="42.8565" lon="0.25036">
        <ele>1849.6</ele>
        <time>2022-02-09T09:01:55Z</time>
      </trkpt>
      <trkpt lat="42.8565" lon="0.25036">
        <ele>1849.6</ele>
        <time>2022-02-09T09:01:56Z</time>
      </trkpt>
      <trkpt lat="42.8565" lon="0.25036">
        <ele>1849.6</ele>
        <time>2022-02-09T09:01:57Z</time>
      </trkpt>
      <trkpt lat="42.8565" lon="0.25036">
        <ele>1849.6</ele>
        <time>2022-02-09T09:01:58Z</time>
      </trkpt>
      <trkpt lat="42.8565" lon="0.25036">
        <ele>1849.7</ele>
        <time>2022-02-09T09:01:59Z</time>
      </trkpt>
      <trkpt lat="42.8565" lon="0.25036">
        <ele>1849.7</ele>
        <time>2022-02-09T09:02:00Z</time>
      </trkpt>
      <trkpt lat="42.8565" lon="0.25036">
        <ele>1849.7</ele>
        <time>2022-02-09T09:02:01Z</time>
      </trkpt>
      <trkpt lat="42.8565" lon="0.25036">
        <ele>1849.7</ele>
        <time>2022-02-09T09:02:02Z</time>
      </trkpt>
      <trkpt lat="42.8565" lon="0.25036">
        <ele>1849.7</ele>
        <time>2022-02-09T09:02:03Z</time>
      </trkpt>
      <trkpt lat="42.8565" lon="0.25036">
        <ele>1849.7</ele>
        <time>2022-02-09T09:02:04Z</time>
      </trkpt>
      <trkpt lat="42.8565" lon="0.25036">
        <ele>1849.7</ele>
        <time>2022-02-09T09:02:05Z</time>
      </trkpt>
      <trkpt lat="42.8565" lon="0.25036">
        <ele>1849.7</ele>
        <time>2022-02-09T09:02:06Z</time>
      </trkpt>
      <trkpt lat="42.8565" lon="0.25036">
        <ele>1849.8</ele>
        <time>2022-02-09T09:02:07Z</time>
      </trkpt>
      <trkpt lat="42.8565" lon="0.25036">
        <ele>1849.8</ele>
        <time>2022-02-09T09:02:08Z</time>
      </trkpt>
      <trkpt lat="42.8565" lon="0.25036">
        <ele>1849.8</ele>
        <time>2022-02-09T09:02:09Z</time>
      </trkpt>
      <trkpt lat="42.8565" lon="0.25036">
        <ele>1849.8</ele>
        <time>2022-02-09T09:02:10Z</time>
      </trkpt>
      <trkpt lat="42.8565" lon="0.25036">
        <ele>1849.8</ele>
        <time>2022-02-09T09:02:11Z</time>
      </trkpt>
      <trkpt lat="42.8565" lon="0.25036">
        <ele>1849.8</ele>
        <time>2022-02-09T09:02:12Z</time>
      </trkpt>
      <trkpt lat="42.8565" lon="0.25036">
        <ele>1849.8</ele>
        <time>2022-02-09T09:02:13Z</time>
      </trkpt>
      <trkpt lat="42.8565" lon="0.25036">
        <ele>1849.8</ele>
        <time>2022-02-09T09:02:14Z</time>
      </trkpt>
      <trkpt lat="42.8565" lon="0.25036">
        <ele>1849.9</ele>
        <time>2022-02-09T09:02:15Z</time>
      </trkpt>
      <trkpt lat="42.8565" lon="0.25036">
        <ele>1849.9</ele>
        <time>2022-02-09T09:02:16Z</time>
      </trkpt>
      <trkpt lat="42.8565" lon="0.25036">
        <ele>1849.9</ele>
        <time>2022-02-09T09:02:17Z</time>
      </trkpt>
      <trkpt lat="42.8565" lon="0.25036">
        <ele>1849.9</ele>
        <time>2022-02-09T09:02:18Z</time>
      </trkpt>
      <trkpt lat="42.8565" lon="0.25036">
        <ele>1849.9</ele>
        <time>2022-02-09T09:02:19Z</time>
      </trkpt>
      <trkpt lat="42.8565" lon="0.25036">
        <ele>1849.9</ele>
        <time>2022-02-09T09:02:20Z</time>
      </trkpt>
      <trkpt lat="42.8565" lon="0.25036">
        <ele>1849.9</ele>
        <time>2022-02-09T09:02:21Z</time>
      </trkpt>
      <trkpt lat="42.8565" lon="0.25036">
        <ele>1849.9</ele>
        <time>2022-02-09T09:02:22Z</time>
      </trkpt>
      <trkpt lat="42.8565" lon="0.25036">
        <ele>1849.9</ele>
        <time>2022-02-09T09:02:23Z</time>
      </trkpt>
      <trkpt lat="42.8565" lon="0.25036">
        <ele>1849.9</ele>
        <time>2022-02-09T09:02:24Z</time>
      </trkpt>
      <trkpt lat="42.8565" lon="0.25036">
        <ele>1849.9</ele>
        <time>2022-02-09T09:02:25Z</time>
      </trkpt>
      <trkpt lat="42.8565" lon="0.25036">
        <ele>1849.9</ele>
        <time>2022-02-09T09:02:26Z</time>
      </trkpt>
      <trkpt lat="42.8565" lon="0.25036">
        <ele>1849.9</ele>
        <time>2022-02-09T09:02:27Z</time>
      </trkpt>
      <trkpt lat="42.8565" lon="0.25036">
        <ele>1849.9</ele>
        <time>2022-02-09T09:02:28Z</time>
      </trkpt>
      <trkpt lat="42.8565" lon="0.25036">
        <ele>1849.9</ele>
        <time>2022-02-09T09:02:29Z</time>
      </trkpt>
      <trkpt lat="42.8565" lon="0.25036">
        <ele>1849.9</ele>
        <time>2022-02-09T09:02:30Z</time>
      </trkpt>
      <trkpt lat="42.8565" lon="0.25036">
        <ele>1849.9</ele>
        <time>2022-02-09T09:02:31Z</time>
      </trkpt>
      <trkpt lat="42.8565" lon="0.25036">
        <ele>1849.9</ele>
        <time>2022-02-09T09:02:32Z</time>
      </trkpt>
      <trkpt lat="42.8565" lon="0.25036">
        <ele>1849.9</ele>
        <time>2022-02-09T09:02:33Z</time>
      </trkpt>
      <trkpt lat="42.8565" lon="0.25036">
        <ele>1849.9</ele>
        <time>2022-02-09T09:02:34Z</time>
      </trkpt>
      <trkpt lat="42.8565" lon="0.25036">
        <ele>1849.9</ele>
        <time>2022-02-09T09:02:35Z</time>
      </trkpt>
      <trkpt lat="42.8565" lon="0.25036">
        <ele>1849.9</ele>
        <time>2022-02-09T09:02:36Z</time>
      </trkpt>
      <trkpt lat="42.8565" lon="0.25036">
        <ele>1849.9</ele>
        <time>2022-02-09T09:02:37Z</time>
      </trkpt>
      <trkpt lat="42.8565" lon="0.25036">
        <ele>1849.9</ele>
        <time>2022-02-09T09:02:38Z</time>
      </trkpt>
      <trkpt lat="42.8565" lon="0.25036">
        <ele>1849.9</ele>
        <time>2022-02-09T09:02:39Z</time>
      </trkpt>
      <trkpt lat="42.8565" lon="0.25036">
        <ele>1849.9</ele>
        <time>2022-02-09T09:02:40Z</time>
      </trkpt>
      <trkpt lat="42.8565" lon="0.25036">
        <ele>1849.9</ele>
        <time>2022-02-09T09:02:41Z</time>
      </trkpt>
      <trkpt lat="42.8565" lon="0.25036">
        <ele>1849.9</ele>
        <time>2022-02-09T09:02:42Z</time>
      </trkpt>
      <trkpt lat="42.8565" lon="0.25036">
        <ele>1849.9</ele>
        <time>2022-02-09T09:02:43Z</time>
      </trkpt>
      <trkpt lat="42.8565" lon="0.25036">
        <ele>1849.9</ele>
        <time>2022-02-09T09:02:44Z</time>
      </trkpt>
      <trkpt lat="42.8565" lon="0.25036">
        <ele>1849.9</ele>
        <time>2022-02-09T09:02:45Z</time>
      </trkpt>
      <trkpt lat="42.8565" lon="0.25036">
        <ele>1849.9</ele>
        <time>2022-02-09T09:02:46Z</time>
      </trkpt>
      <trkpt lat="42.8565" lon="0.25036">
        <ele>1849.9</ele>
        <time>2022-02-09T09:02:47Z</time>
      </trkpt>
      <trkpt lat="42.8565" lon="0.25036">
        <ele>1849.9</ele>
        <time>2022-02-09T09:02:48Z</time>
      </trkpt>
      <trkpt lat="42.8565" lon="0.25036">
        <ele>1849.9</ele>
        <time>2022-02-09T09:02:49Z</time>
      </trkpt>
      <trkpt lat="42.8565" lon="0.25036">
        <ele>1849.9</ele>
        <time>2022-02-09T09:02:50Z</time>
      </trkpt>
      <trkpt lat="42.8565" lon="0.25036">
        <ele>1849.9</ele>
        <time>2022-02-09T09:02:51Z</time>
      </trkpt>
      <trkpt lat="42.8565" lon="0.25036">
        <ele>1849.9</ele>
        <time>2022-02-09T09:02:52Z</time>
      </trkpt>
      <trkpt lat="42.8565" lon="0.25036">
        <ele>1849.9</ele>
        <time>2022-02-09T09:02:53Z</time>
      </trkpt>
      <trkpt lat="42.8565" lon="0.25036">
        <ele>1849.9</ele>
        <time>2022-02-09T09:02:54Z</time>
      </trkpt>
      <trkpt lat="42.8565" lon="0.25036">
        <ele>1849.9</ele>
        <time>2022-02-09T09:02:55Z</time>
      </trkpt>
      <trkpt lat="42.8565" lon="0.25036">
        <ele>1849.9</ele>
        <time>2022-02-09T09:02:56Z</time>
      </trkpt>
      <trkpt lat="42.8565" lon="0.25036">
        <ele>1849.9</ele>
        <time>2022-02-09T09:02:57Z</time>
      </trkpt>
      <trkpt lat="42.8565" lon="0.25036">
        <ele>1849.9</ele>
        <time>2022-02-09T09:02:58Z</time>
      </trkpt>
      <trkpt lat="42.8565" lon="0.25036">
        <ele>1849.9</ele>
        <time>2022-02-09T09:02:59Z</time>
      </trkpt>
      <trkpt lat="42.8565" lon="0.25036">
        <ele>1849.9</ele>
        <time>2022-02-09T09:03:00Z</time>
      </trkpt>
      <trkpt lat="42.8565" lon="0.25036">
        <ele>1849.9</ele>
        <time>2022-02-09T09:03:01Z</time>
      </trkpt>
      <trkpt lat="42.8565" lon="0.25036">
        <ele>1849.9</ele>
        <time>2022-02-09T09:03:02Z</time>
      </trkpt>
      <trkpt lat="42.8565" lon="0.25036">
        <ele>1849.9</ele>
        <time>2022-02-09T09:03:03Z</time>
      </trkpt>
      <trkpt lat="42.8565" lon="0.25036">
        <ele>1849.9</ele>
        <time>2022-02-09T09:03:04Z</time>
      </trkpt>
      <trkpt lat="42.8565" lon="0.25036">
        <ele>1849.9</ele>
        <time>2022-02-09T09:03:05Z</time>
      </trkpt>
      <trkpt lat="42.8565" lon="0.25036">
        <ele>1849.9</ele>
        <time>2022-02-09T09:03:06Z</time>
      </trkpt>
      <trkpt lat="42.8565" lon="0.25036">
        <ele>1849.9</ele>
        <time>2022-02-09T09:03:07Z</time>
      </trkpt>
      <trkpt lat="42.8565" lon="0.25036">
        <ele>1849.9</ele>
        <time>2022-02-09T09:03:08Z</time>
      </trkpt>
      <trkpt lat="42.8565" lon="0.25036">
        <ele>1849.9</ele>
        <time>2022-02-09T09:03:09Z</time>
      </trkpt>
      <trkpt lat="42.8565" lon="0.25036">
        <ele>1849.9</ele>
        <time>2022-02-09T09:03:10Z</time>
      </trkpt>
      <trkpt lat="42.8565" lon="0.25036">
        <ele>1849.9</ele>
        <time>2022-02-09T09:03:11Z</time>
      </trkpt>
      <trkpt lat="42.8565" lon="0.25036">
        <ele>1849.9</ele>
        <time>2022-02-09T09:03:12Z</time>
      </trkpt>
      <trkpt lat="42.8565" lon="0.25036">
        <ele>1849.9</ele>
        <time>2022-02-09T09:03:13Z</time>
      </trkpt>
      <trkpt lat="42.8565" lon="0.25036">
        <ele>1849.9</ele>
        <time>2022-02-09T09:03:14Z</time>
      </trkpt>
      <trkpt lat="42.8565" lon="0.25036">
        <ele>1849.9</ele>
        <time>2022-02-09T09:03:15Z</time>
      </trkpt>
      <trkpt lat="42.8565" lon="0.25036">
        <ele>1849.9</ele>
        <time>2022-02-09T09:03:16Z</time>
      </trkpt>
      <trkpt lat="42.8565" lon="0.25036">
        <ele>1849.9</ele>
        <time>2022-02-09T09:03:17Z</time>
      </trkpt>
      <trkpt lat="42.8565" lon="0.25036">
        <ele>1849.9</ele>
        <time>2022-02-09T09:03:18Z</time>
      </trkpt>
      <trkpt lat="42.8565" lon="0.25036">
        <ele>1849.9</ele>
        <time>2022-02-09T09:03:19Z</time>
      </trkpt>
      <trkpt lat="42.8565" lon="0.25036">
        <ele>1849.9</ele>
        <time>2022-02-09T09:03:20Z</time>
      </trkpt>
      <trkpt lat="42.8565" lon="0.25036">
        <ele>1849.9</ele>
        <time>2022-02-09T09:03:21Z</time>
      </trkpt>
      <trkpt lat="42.8565" lon="0.25036">
        <ele>1849.9</ele>
        <time>2022-02-09T09:03:22Z</time>
      </trkpt>
      <trkpt lat="42.8565" lon="0.25036">
        <ele>1849.9</ele>
        <time>2022-02-09T09:03:23Z</time>
      </trkpt>
      <trkpt lat="42.8565" lon="0.25036">
        <ele>1849.9</ele>
        <time>2022-02-09T09:03:24Z</time>
      </trkpt>
      <trkpt lat="42.8565" lon="0.25036">
        <ele>1849.9</ele>
        <time>2022-02-09T09:03:25Z</time>
      </trkpt>
      <trkpt lat="42.8565" lon="0.25036">
        <ele>1849.9</ele>
        <time>2022-02-09T09:03:26Z</time>
      </trkpt>
      <trkpt lat="42.8565" lon="0.25036">
        <ele>1849.9</ele>
        <time>2022-02-09T09:03:27Z</time>
      </trkpt>
      <trkpt lat="42.8565" lon="0.25036">
        <ele>1849.9</ele>
        <time>2022-02-09T09:03:28Z</time>
      </trkpt>
      <trkpt lat="42.8565" lon="0.25036">
        <ele>1849.9</ele>
        <time>2022-02-09T09:03:29Z</time>
      </trkpt>
      <trkpt lat="42.8565" lon="0.25036">
        <ele>1849.9</ele>
        <time>2022-02-09T09:03:30Z</time>
      </trkpt>
      <trkpt lat="42.8565" lon="0.25036">
        <ele>1849.9</ele>
        <time>2022-02-09T09:03:31Z</time>
      </trkpt>
      <trkpt lat="42.8565" lon="0.25036">
        <ele>1849.9</ele>
        <time>2022-02-09T09:03:32Z</time>
      </trkpt>
      <trkpt lat="42.8565" lon="0.25036">
        <ele>1849.9</ele>
        <time>2022-02-09T09:03:33Z</time>
      </trkpt>
      <trkpt lat="42.8565" lon="0.25036">
        <ele>1849.9</ele>
        <time>2022-02-09T09:03:34Z</time>
      </trkpt>
      <trkpt lat="42.8565" lon="0.25036">
        <ele>1849.9</ele>
        <time>2022-02-09T09:03:35Z</time>
      </trkpt>
      <trkpt lat="42.8565" lon="0.25036">
        <ele>1849.9</ele>
        <time>2022-02-09T09:03:36Z</time>
      </trkpt>
      <trkpt lat="42.8565" lon="0.25036">
        <ele>1849.9</ele>
        <time>2022-02-09T09:03:37Z</time>
      </trkpt>
      <trkpt lat="42.8565" lon="0.25036">
        <ele>1849.9</ele>
        <time>2022-02-09T09:03:38Z</time>
      </trkpt>
      <trkpt lat="42.8565" lon="0.25036">
        <ele>1849.9</ele>
        <time>2022-02-09T09:03:39Z</time>
      </trkpt>
      <trkpt lat="42.8565" lon="0.25036">
        <ele>1849.9</ele>
        <time>2022-02-09T09:03:40Z</time>
      </trkpt>
      <trkpt lat="42.8565" lon="0.25036">
        <ele>1849.9</ele>
        <time>2022-02-09T09:03:41Z</time>
      </trkpt>
      <trkpt lat="42.8565" lon="0.25036">
        <ele>1849.9</ele>
        <time>2022-02-09T09:03:42Z</time>
      </trkpt>
      <trkpt lat="42.8565" lon="0.25036">
        <ele>1849.9</ele>
        <time>2022-02-09T09:03:43Z</time>
      </trkpt>
      <trkpt lat="42.8565" lon="0.25036">
        <ele>1849.9</ele>
        <time>2022-02-09T09:03:44Z</time>
      </trkpt>
      <trkpt lat="42.8565" lon="0.25036">
        <ele>1849.9</ele>
        <time>2022-02-09T09:03:45Z</time>
      </trkpt>
      <trkpt lat="42.8565" lon="0.25036">
        <ele>1849.9</ele>
        <time>2022-02-09T09:03:46Z</time>
      </trkpt>
      <trkpt lat="42.8565" lon="0.25036">
        <ele>1849.9</ele>
        <time>2022-02-09T09:03:47Z</time>
      </trkpt>
      <trkpt lat="42.8565" lon="0.25036">
        <ele>1849.9</ele>
        <time>2022-02-09T09:03:48Z</time>
      </trkpt>
      <trkpt lat="42.8565" lon="0.25036">
        <ele>1849.9</ele>
        <time>2022-02-09T09:03:49Z</time>
      </trkpt>
      <trkpt lat="42.8565" lon="0.25036">
        <ele>1849.9</ele>
        <time>2022-02-09T09:03:50Z</time>
      </trkpt>
      <trkpt lat="42.8565" lon="0.25036">
        <ele>1849.9</ele>
        <time>2022-02-09T09:03:51Z</time>
      </trkpt>
      <trkpt lat="42.8565" lon="0.25036">
        <ele>1849.9</ele>
        <time>2022-02-09T09:03:52Z</time>
      </trkpt>
      <trkpt lat="42.8565" lon="0.25036">
        <ele>1849.9</ele>
        <time>2022-02-09T09:03:53Z</time>
      </trkpt>
      <trkpt lat="42.8565" lon="0.25036">
        <ele>1849.9</ele>
        <time>2022-02-09T09:03:54Z</time>
      </trkpt>
      <trkpt lat="42.8565" lon="0.25036">
        <ele>1849.9</ele>
        <time>2022-02-09T09:03:55Z</time>
      </trkpt>
      <trkpt lat="42.8565" lon="0.25036">
        <ele>1849.9</ele>
        <time>2022-02-09T09:03:56Z</time>
      </trkpt>
      <trkpt lat="42.8565" lon="0.25036">
        <ele>1849.9</ele>
        <time>2022-02-09T09:03:57Z</time>
      </trkpt>
      <trkpt lat="42.8565" lon="0.25036">
        <ele>1849.9</ele>
        <time>2022-02-09T09:03:58Z</time>
      </trkpt>
      <trkpt lat="42.8565" lon="0.25036">
        <ele>1849.9</ele>
        <time>2022-02-09T09:03:59Z</time>
      </trkpt>
      <trkpt lat="42.8565" lon="0.25036">
        <ele>1849.9</ele>
        <time>2022-02-09T09:04:00Z</time>
      </trkpt>
      <trkpt lat="42.8565" lon="0.25036">
        <ele>1849.9</ele>
        <time>2022-02-09T09:04:01Z</time>
      </trkpt>
      <trkpt lat="42.8565" lon="0.25036">
        <ele>1849.9</ele>
        <time>2022-02-09T09:04:02Z</time>
      </trkpt>
      <trkpt lat="42.8565" lon="0.25036">
        <ele>1849.9</ele>
        <time>2022-02-09T09:04:03Z</time>
      </trkpt>
      <trkpt lat="42.8565" lon="0.25036">
        <ele>1849.9</ele>
        <time>2022-02-09T09:04:04Z</time>
      </trkpt>
      <trkpt lat="42.8565" lon="0.25036">
        <ele>1849.9</ele>
        <time>2022-02-09T09:04:05Z</time>
      </trkpt>
      <trkpt lat="42.8565" lon="0.25036">
        <ele>1849.9</ele>
        <time>2022-02-09T09:04:06Z</time>
      </trkpt>
      <trkpt lat="42.8565" lon="0.25036">
        <ele>1849.9</ele>
        <time>2022-02-09T09:04:07Z</time>
      </trkpt>
      <trkpt lat="42.8565" lon="0.25036">
        <ele>1849.9</ele>
        <time>2022-02-09T09:04:08Z</time>
      </trkpt>
      <trkpt lat="42.8565" lon="0.25036">
        <ele>1849.9</ele>
        <time>2022-02-09T09:04:09Z</time>
      </trkpt>
      <trkpt lat="42.8565" lon="0.25036">
        <ele>1849.9</ele>
        <time>2022-02-09T09:04:10Z</time>
      </trkpt>
      <trkpt lat="42.8565" lon="0.25036">
        <ele>1849.9</ele>
        <time>2022-02-09T09:04:11Z</time>
      </trkpt>
      <trkpt lat="42.8565" lon="0.25036">
        <ele>1849.9</ele>
        <time>2022-02-09T09:04:12Z</time>
      </trkpt>
      <trkpt lat="42.8565" lon="0.25036">
        <ele>1849.9</ele>
        <time>2022-02-09T09:04:13Z</time>
      </trkpt>
      <trkpt lat="42.8565" lon="0.25036">
        <ele>1849.9</ele>
        <time>2022-02-09T09:04:14Z</time>
      </trkpt>
      <trkpt lat="42.8565" lon="0.25036">
        <ele>1849.9</ele>
        <time>2022-02-09T09:04:15Z</time>
      </trkpt>
      <trkpt lat="42.8565" lon="0.25036">
        <ele>1849.9</ele>
        <time>2022-02-09T09:04:16Z</time>
      </trkpt>
      <trkpt lat="42.8565" lon="0.25036">
        <ele>1849.9</ele>
        <time>2022-02-09T09:04:17Z</time>
      </trkpt>
      <trkpt lat="42.8565" lon="0.25036">
        <ele>1849.9</ele>
        <time>2022-02-09T09:04:18Z</time>
      </trkpt>
      <trkpt lat="42.8565" lon="0.25036">
        <ele>1849.9</ele>
        <time>2022-02-09T09:04:19Z</time>
      </trkpt>
      <trkpt lat="42.8565" lon="0.25036">
        <ele>1849.9</ele>
        <time>2022-02-09T09:04:20Z</time>
      </trkpt>
      <trkpt lat="42.8565" lon="0.25036">
        <ele>1849.9</ele>
        <time>2022-02-09T09:04:21Z</time>
      </trkpt>
      <trkpt lat="42.8565" lon="0.25036">
        <ele>1849.9</ele>
        <time>2022-02-09T09:04:22Z</time>
      </trkpt>
      <trkpt lat="42.8565" lon="0.25036">
        <ele>1849.9</ele>
        <time>2022-02-09T09:04:23Z</time>
      </trkpt>
      <trkpt lat="42.8565" lon="0.25036">
        <ele>1849.9</ele>
        <time>2022-02-09T09:04:24Z</time>
      </trkpt>
      <trkpt lat="42.8565" lon="0.25036">
        <ele>1849.9</ele>
        <time>2022-02-09T09:04:25Z</time>
      </trkpt>
      <trkpt lat="42.8565" lon="0.25036">
        <ele>1849.9</ele>
        <time>2022-02-09T09:04:26Z</time>
      </trkpt>
      <trkpt lat="42.8565" lon="0.25036">
        <ele>1849.9</ele>
        <time>2022-02-09T09:04:27Z</time>
      </trkpt>
      <trkpt lat="42.8565" lon="0.25036">
        <ele>1849.9</ele>
        <time>2022-02-09T09:04:28Z</time>
      </trkpt>
      <trkpt lat="42.8565" lon="0.25036">
        <ele>1849.9</ele>
        <time>2022-02-09T09:04:29Z</time>
      </trkpt>
      <trkpt lat="42.8565" lon="0.25036">
        <ele>1849.9</ele>
        <time>2022-02-09T09:04:30Z</time>
      </trkpt>
      <trkpt lat="42.8565" lon="0.25036">
        <ele>1849.9</ele>
        <time>2022-02-09T09:04:31Z</time>
      </trkpt>
      <trkpt lat="42.8565" lon="0.25036">
        <ele>1849.9</ele>
        <time>2022-02-09T09:04:32Z</time>
      </trkpt>
      <trkpt lat="42.8565" lon="0.25036">
        <ele>1849.9</ele>
        <time>2022-02-09T09:04:33Z</time>
      </trkpt>
      <trkpt lat="42.8565" lon="0.25036">
        <ele>1849.9</ele>
        <time>2022-02-09T09:04:34Z</time>
      </trkpt>
      <trkpt lat="42.8565" lon="0.25036">
        <ele>1849.9</ele>
        <time>2022-02-09T09:04:35Z</time>
      </trkpt>
      <trkpt lat="42.8565" lon="0.25036">
        <ele>1849.9</ele>
        <time>2022-02-09T09:04:36Z</time>
      </trkpt>
      <trkpt lat="42.8565" lon="0.25036">
        <ele>1849.9</ele>
        <time>2022-02-09T09:04:37Z</time>
      </trkpt>
      <trkpt lat="42.8565" lon="0.25036">
        <ele>1849.9</ele>
        <time>2022-02-09T09:04:38Z</time>
      </trkpt>
      <trkpt lat="42.8565" lon="0.25036">
        <ele>1849.9</ele>
        <time>2022-02-09T09:04:39Z</time>
      </trkpt>
      <trkpt lat="42.8565" lon="0.25036">
        <ele>1849.9</ele>
        <time>2022-02-09T09:04:40Z</time>
      </trkpt>
      <trkpt lat="42.8565" lon="0.25036">
        <ele>1849.9</ele>
        <time>2022-02-09T09:04:41Z</time>
      </trkpt>
      <trkpt lat="42.8565" lon="0.25036">
        <ele>1849.9</ele>
        <time>2022-02-09T09:04:42Z</time>
      </trkpt>
      <trkpt lat="42.8565" lon="0.25036">
        <ele>1849.9</ele>
        <time>2022-02-09T09:04:43Z</time>
      </trkpt>
      <trkpt lat="42.8565" lon="0.25036">
        <ele>1849.9</ele>
        <time>2022-02-09T09:04:44Z</time>
      </trkpt>
      <trkpt lat="42.8565" lon="0.25036">
        <ele>1849.9</ele>
        <time>2022-02-09T09:04:45Z</time>
      </trkpt>
      <trkpt lat="42.8565" lon="0.25036">
        <ele>1849.9</ele>
        <time>2022-02-09T09:04:46Z</time>
      </trkpt>
      <trkpt lat="42.8565" lon="0.25036">
        <ele>1849.9</ele>
        <time>2022-02-09T09:04:47Z</time>
      </trkpt>
      <trkpt lat="42.8565" lon="0.25036">
        <ele>1849.9</ele>
        <time>2022-02-09T09:04:48Z</time>
      </trkpt>
      <trkpt lat="42.8565" lon="0.25036">
        <ele>1849.9</ele>
        <time>2022-02-09T09:04:49Z</time>
      </trkpt>
      <trkpt lat="42.8565" lon="0.25036">
        <ele>1849.9</ele>
        <time>2022-02-09T09:04:50Z</time>
      </trkpt>
      <trkpt lat="42.8565" lon="0.25036">
        <ele>1849.9</ele>
        <time>2022-02-09T09:04:51Z</time>
      </trkpt>
      <trkpt lat="42.8565" lon="0.25036">
        <ele>1849.9</ele>
        <time>2022-02-09T09:04:52Z</time>
      </trkpt>
      <trkpt lat="42.8565" lon="0.25036">
        <ele>1849.9</ele>
        <time>2022-02-09T09:04:53Z</time>
      </trkpt>
      <trkpt lat="42.8565" lon="0.25036">
        <ele>1849.9</ele>
        <time>2022-02-09T09:04:54Z</time>
      </trkpt>
      <trkpt lat="42.8565" lon="0.25036">
        <ele>1849.9</ele>
        <time>2022-02-09T09:04:55Z</time>
      </trkpt>
      <trkpt lat="42.8565" lon="0.25036">
        <ele>1849.9</ele>
        <time>2022-02-09T09:04:56Z</time>
      </trkpt>
      <trkpt lat="42.8565" lon="0.25036">
        <ele>1849.9</ele>
        <time>2022-02-09T09:04:57Z</time>
      </trkpt>
      <trkpt lat="42.8565" lon="0.25036">
        <ele>1849.9</ele>
        <time>2022-02-09T09:04:58Z</time>
      </trkpt>
      <trkpt lat="42.8565" lon="0.25036">
        <ele>1849.9</ele>
        <time>2022-02-09T09:04:59Z</time>
      </trkpt>
      <trkpt lat="42.8565" lon="0.25036">
        <ele>1849.9</ele>
        <time>2022-02-09T09:05:00Z</time>
      </trkpt>
      <trkpt lat="42.8565" lon="0.25036">
        <ele>1849.9</ele>
        <time>2022-02-09T09:05:01Z</time>
      </trkpt>
      <trkpt lat="42.8565" lon="0.25036">
        <ele>1849.9</ele>
        <time>2022-02-09T09:05:02Z</time>
      </trkpt>
      <trkpt lat="42.8565" lon="0.25036">
        <ele>1849.9</ele>
        <time>2022-02-09T09:05:03Z</time>
      </trkpt>
      <trkpt lat="42.8565" lon="0.25036">
        <ele>1849.9</ele>
        <time>2022-02-09T09:05:04Z</time>
      </trkpt>
      <trkpt lat="42.8565" lon="0.25036">
        <ele>1849.9</ele>
        <time>2022-02-09T09:05:05Z</time>
      </trkpt>
      <trkpt lat="42.8565" lon="0.25036">
        <ele>1849.9</ele>
        <time>2022-02-09T09:05:06Z</time>
      </trkpt>
      <trkpt lat="42.8565" lon="0.25036">
        <ele>1849.9</ele>
        <time>2022-02-09T09:05:07Z</time>
      </trkpt>
      <trkpt lat="42.8565" lon="0.25036">
        <ele>1849.9</ele>
        <time>2022-02-09T09:05:08Z</time>
      </trkpt>
      <trkpt lat="42.8565" lon="0.25036">
        <ele>1849.9</ele>
        <time>2022-02-09T09:05:09Z</time>
      </trkpt>
      <trkpt lat="42.8565" lon="0.25036">
        <ele>1849.9</ele>
        <time>2022-02-09T09:05:10Z</time>
      </trkpt>
      <trkpt lat="42.8565" lon="0.25036">
        <ele>1849.9</ele>
        <time>2022-02-09T09:05:11Z</time>
      </trkpt>
      <trkpt lat="42.8565" lon="0.25036">
        <ele>1849.9</ele>
        <time>2022-02-09T09:05:12Z</time>
      </trkpt>
      <trkpt lat="42.8565" lon="0.25036">
        <ele>1849.9</ele>
        <time>2022-02-09T09:05:13Z</time>
      </trkpt>
      <trkpt lat="42.8565" lon="0.25036">
        <ele>1849.9</ele>
        <time>2022-02-09T09:05:14Z</time>
      </trkpt>
      <trkpt lat="42.8565" lon="0.25036">
        <ele>1849.9</ele>
        <time>2022-02-09T09:05:15Z</time>
      </trkpt>
      <trkpt lat="42.8565" lon="0.25036">
        <ele>1849.9</ele>
        <time>2022-02-09T09:05:16Z</time>
      </trkpt>
      <trkpt lat="42.8565" lon="0.25036">
        <ele>1849.9</ele>
        <time>2022-02-09T09:05:17Z</time>
      </trkpt>
      <trkpt lat="42.8565" lon="0.25036">
        <ele>1849.9</ele>
        <time>2022-02-09T09:05:18Z</time>
      </trkpt>
      <trkpt lat="42.8565" lon="0.25036">
        <ele>1849.9</ele>
        <time>2022-02-09T09:05:19Z</time>
      </trkpt>
      <trkpt lat="42.8565" lon="0.25036">
        <ele>1849.9</ele>
        <time>2022-02-09T09:05:20Z</time>
      </trkpt>
      <trkpt lat="42.8565" lon="0.25036">
        <ele>1849.9</ele>
        <time>2022-02-09T09:05:21Z</time>
      </trkpt>
      <trkpt lat="42.8565" lon="0.25036">
        <ele>1849.9</ele>
        <time>2022-02-09T09:05:22Z</time>
      </trkpt>
      <trkpt lat="42.8565" lon="0.25036">
        <ele>1849.9</ele>
        <time>2022-02-09T09:05:23Z</time>
      </trkpt>
      <trkpt lat="42.8565" lon="0.25036">
        <ele>1849.9</ele>
        <time>2022-02-09T09:05:24Z</time>
      </trkpt>
      <trkpt lat="42.8565" lon="0.25036">
        <ele>1849.9</ele>
        <time>2022-02-09T09:05:25Z</time>
      </trkpt>
      <trkpt lat="42.8565" lon="0.25036">
        <ele>1849.9</ele>
        <time>2022-02-09T09:05:26Z</time>
      </trkpt>
      <trkpt lat="42.8565" lon="0.25036">
        <ele>1849.9</ele>
        <time>2022-02-09T09:05:27Z</time>
      </trkpt>
      <trkpt lat="42.8565" lon="0.25036">
        <ele>1849.9</ele>
        <time>2022-02-09T09:05:28Z</time>
      </trkpt>
      <trkpt lat="42.8565" lon="0.25036">
        <ele>1849.9</ele>
        <time>2022-02-09T09:05:29Z</time>
      </trkpt>
      <trkpt lat="42.8565" lon="0.25036">
        <ele>1849.9</ele>
        <time>2022-02-09T09:05:30Z</time>
      </trkpt>
      <trkpt lat="42.8565" lon="0.25036">
        <ele>1849.9</ele>
        <time>2022-02-09T09:05:31Z</time>
      </trkpt>
      <trkpt lat="42.8565" lon="0.25036">
        <ele>1849.9</ele>
        <time>2022-02-09T09:05:32Z</time>
      </trkpt>
      <trkpt lat="42.8565" lon="0.25036">
        <ele>1849.9</ele>
        <time>2022-02-09T09:05:33Z</time>
      </trkpt>
      <trkpt lat="42.8565" lon="0.25036">
        <ele>1849.9</ele>
        <time>2022-02-09T09:05:34Z</time>
      </trkpt>
      <trkpt lat="42.8565" lon="0.25036">
        <ele>1849.9</ele>
        <time>2022-02-09T09:05:35Z</time>
      </trkpt>
      <trkpt lat="42.8565" lon="0.25036">
        <ele>1849.9</ele>
        <time>2022-02-09T09:05:36Z</time>
      </trkpt>
      <trkpt lat="42.8565" lon="0.25036">
        <ele>1849.9</ele>
        <time>2022-02-09T09:05:37Z</time>
      </trkpt>
      <trkpt lat="42.8565" lon="0.25036">
        <ele>1849.9</ele>
        <time>2022-02-09T09:05:38Z</time>
      </trkpt>
      <trkpt lat="42.8565" lon="0.25036">
        <ele>1849.9</ele>
        <time>2022-02-09T09:05:39Z</time>
      </trkpt>
      <trkpt lat="42.8565" lon="0.25036">
        <ele>1849.9</ele>
        <time>2022-02-09T09:05:40Z</time>
      </trkpt>
      <trkpt lat="42.8565" lon="0.25036">
        <ele>1849.9</ele>
        <time>2022-02-09T09:05:41Z</time>
      </trkpt>
      <trkpt lat="42.8565" lon="0.25036">
        <ele>1849.9</ele>
        <time>2022-02-09T09:05:42Z</time>
      </trkpt>
      <trkpt lat="42.8565" lon="0.25036">
        <ele>1849.9</ele>
        <time>2022-02-09T09:05:43Z</time>
      </trkpt>
      <trkpt lat="42.8565" lon="0.25036">
        <ele>1849.9</ele>
        <time>2022-02-09T09:05:44Z</time>
      </trkpt>
      <trkpt lat="42.8565" lon="0.25036">
        <ele>1849.9</ele>
        <time>2022-02-09T09:05:45Z</time>
      </trkpt>
      <trkpt lat="42.8565" lon="0.25036">
        <ele>1849.9</ele>
        <time>2022-02-09T09:05:46Z</time>
      </trkpt>
      <trkpt lat="42.8565" lon="0.25036">
        <ele>1849.9</ele>
        <time>2022-02-09T09:05:47Z</time>
      </trkpt>
      <trkpt lat="42.8565" lon="0.25036">
        <ele>1849.9</ele>
        <time>2022-02-09T09:05:48Z</time>
      </trkpt>
      <trkpt lat="42.8565" lon="0.25036">
        <ele>1849.9</ele>
        <time>2022-02-09T09:05:49Z</time>
      </trkpt>
      <trkpt lat="42.8565" lon="0.25036">
        <ele>1849.9</ele>
        <time>2022-02-09T09:05:50Z</time>
      </trkpt>
      <trkpt lat="42.8565" lon="0.25036">
        <ele>1849.9</ele>
        <time>2022-02-09T09:05:51Z</time>
      </trkpt>
      <trkpt lat="42.8565" lon="0.25036">
        <ele>1849.9</ele>
        <time>2022-02-09T09:05:52Z</time>
      </trkpt>
      <trkpt lat="42.8565" lon="0.25036">
        <ele>1849.9</ele>
        <time>2022-02-09T09:05:53Z</time>
      </trkpt>
      <trkpt lat="42.8565" lon="0.25036">
        <ele>1849.9</ele>
        <time>2022-02-09T09:05:54Z</time>
      </trkpt>
      <trkpt lat="42.8565" lon="0.25036">
        <ele>1849.9</ele>
        <time>2022-02-09T09:05:55Z</time>
      </trkpt>
      <trkpt lat="42.8565" lon="0.25036">
        <ele>1849.9</ele>
        <time>2022-02-09T09:05:56Z</time>
      </trkpt>
      <trkpt lat="42.8565" lon="0.25036">
        <ele>1849.9</ele>
        <time>2022-02-09T09:05:57Z</time>
      </trkpt>
      <trkpt lat="42.8565" lon="0.25036">
        <ele>1849.9</ele>
        <time>2022-02-09T09:05:58Z</time>
      </trkpt>
      <trkpt lat="42.8565" lon="0.25036">
        <ele>1849.9</ele>
        <time>2022-02-09T09:05:59Z</time>
      </trkpt>
      <trkpt lat="42.8565" lon="0.25036">
        <ele>1849.9</ele>
        <time>2022-02-09T09:06:00Z</time>
      </trkpt>
      <trkpt lat="42.8565" lon="0.25036">
        <ele>1849.9</ele>
        <time>2022-02-09T09:06:01Z</time>
      </trkpt>
      <trkpt lat="42.8565" lon="0.25036">
        <ele>1849.9</ele>
        <time>2022-02-09T09:06:02Z</time>
      </trkpt>
      <trkpt lat="42.8565" lon="0.25036">
        <ele>1849.9</ele>
        <time>2022-02-09T09:06:03Z</time>
      </trkpt>
      <trkpt lat="42.8565" lon="0.25036">
        <ele>1849.9</ele>
        <time>2022-02-09T09:06:04Z</time>
      </trkpt>
      <trkpt lat="42.8565" lon="0.25036">
        <ele>1849.9</ele>
        <time>2022-02-09T09:06:05Z</time>
      </trkpt>
      <trkpt lat="42.8565" lon="0.25036">
        <ele>1849.9</ele>
        <time>2022-02-09T09:06:06Z</time>
      </trkpt>
      <trkpt lat="42.8565" lon="0.25036">
        <ele>1849.9</ele>
        <time>2022-02-09T09:06:07Z</time>
      </trkpt>
      <trkpt lat="42.8565" lon="0.25036">
        <ele>1849.9</ele>
        <time>2022-02-09T09:06:08Z</time>
      </trkpt>
      <trkpt lat="42.8565" lon="0.25036">
        <ele>1849.9</ele>
        <time>2022-02-09T09:06:09Z</time>
      </trkpt>
      <trkpt lat="42.8565" lon="0.25036">
        <ele>1849.9</ele>
        <time>2022-02-09T09:06:10Z</time>
      </trkpt>
      <trkpt lat="42.8565" lon="0.25036">
        <ele>1849.9</ele>
        <time>2022-02-09T09:06:11Z</time>
      </trkpt>
      <trkpt lat="42.8565" lon="0.25036">
        <ele>1849.9</ele>
        <time>2022-02-09T09:06:12Z</time>
      </trkpt>
      <trkpt lat="42.8565" lon="0.25036">
        <ele>1849.9</ele>
        <time>2022-02-09T09:06:13Z</time>
      </trkpt>
      <trkpt lat="42.8565" lon="0.25036">
        <ele>1849.9</ele>
        <time>2022-02-09T09:06:14Z</time>
      </trkpt>
      <trkpt lat="42.8565" lon="0.25036">
        <ele>1849.9</ele>
        <time>2022-02-09T09:06:15Z</time>
      </trkpt>
      <trkpt lat="42.8565" lon="0.25036">
        <ele>1849.9</ele>
        <time>2022-02-09T09:06:16Z</time>
      </trkpt>
      <trkpt lat="42.8565" lon="0.25036">
        <ele>1849.9</ele>
        <time>2022-02-09T09:06:17Z</time>
      </trkpt>
      <trkpt lat="42.8565" lon="0.25036">
        <ele>1849.9</ele>
        <time>2022-02-09T09:06:18Z</time>
      </trkpt>
      <trkpt lat="42.8565" lon="0.25036">
        <ele>1849.9</ele>
        <time>2022-02-09T09:06:19Z</time>
      </trkpt>
      <trkpt lat="42.8565" lon="0.25036">
        <ele>1849.9</ele>
        <time>2022-02-09T09:06:20Z</time>
      </trkpt>
      <trkpt lat="42.8565" lon="0.25036">
        <ele>1849.9</ele>
        <time>2022-02-09T09:06:21Z</time>
      </trkpt>
      <trkpt lat="42.8565" lon="0.25036">
        <ele>1849.9</ele>
        <time>2022-02-09T09:06:22Z</time>
      </trkpt>
      <trkpt lat="42.8565" lon="0.25036">
        <ele>1849.9</ele>
        <time>2022-02-09T09:06:23Z</time>
      </trkpt>
      <trkpt lat="42.8565" lon="0.25036">
        <ele>1849.9</ele>
        <time>2022-02-09T09:06:24Z</time>
      </trkpt>
      <trkpt lat="42.8565" lon="0.25036">
        <ele>1849.9</ele>
        <time>2022-02-09T09:06:25Z</time>
      </trkpt>
      <trkpt lat="42.8565" lon="0.25036">
        <ele>1849.9</ele>
        <time>2022-02-09T09:06:26Z</time>
      </trkpt>
      <trkpt lat="42.8565" lon="0.25036">
        <ele>1849.9</ele>
        <time>2022-02-09T09:06:27Z</time>
      </trkpt>
      <trkpt lat="42.8565" lon="0.25036">
        <ele>1849.9</ele>
        <time>2022-02-09T09:06:28Z</time>
      </trkpt>
      <trkpt lat="42.8565" lon="0.25036">
        <ele>1849.9</ele>
        <time>2022-02-09T09:06:29Z</time>
      </trkpt>
      <trkpt lat="42.8565" lon="0.25036">
        <ele>1849.9</ele>
        <time>2022-02-09T09:06:30Z</time>
      </trkpt>
      <trkpt lat="42.8565" lon="0.25036">
        <ele>1849.9</ele>
        <time>2022-02-09T09:06:31Z</time>
      </trkpt>
      <trkpt lat="42.8565" lon="0.25036">
        <ele>1849.9</ele>
        <time>2022-02-09T09:06:32Z</time>
      </trkpt>
      <trkpt lat="42.8565" lon="0.25036">
        <ele>1849.9</ele>
        <time>2022-02-09T09:06:33Z</time>
      </trkpt>
      <trkpt lat="42.8565" lon="0.25036">
        <ele>1849.9</ele>
        <time>2022-02-09T09:06:34Z</time>
      </trkpt>
      <trkpt lat="42.8565" lon="0.25036">
        <ele>1849.9</ele>
        <time>2022-02-09T09:06:35Z</time>
      </trkpt>
      <trkpt lat="42.8565" lon="0.25036">
        <ele>1849.9</ele>
        <time>2022-02-09T09:06:36Z</time>
      </trkpt>
      <trkpt lat="42.8565" lon="0.25036">
        <ele>1849.9</ele>
        <time>2022-02-09T09:06:37Z</time>
      </trkpt>
      <trkpt lat="42.8565" lon="0.25036">
        <ele>1849.9</ele>
        <time>2022-02-09T09:06:38Z</time>
      </trkpt>
      <trkpt lat="42.8565" lon="0.25036">
        <ele>1849.9</ele>
        <time>2022-02-09T09:06:39Z</time>
      </trkpt>
      <trkpt lat="42.8565" lon="0.25036">
        <ele>1849.9</ele>
        <time>2022-02-09T09:06:40Z</time>
      </trkpt>
      <trkpt lat="42.8565" lon="0.25036">
        <ele>1849.9</ele>
        <time>2022-02-09T09:06:41Z</time>
      </trkpt>
      <trkpt lat="42.8565" lon="0.25036">
        <ele>1849.9</ele>
        <time>2022-02-09T09:06:42Z</time>
      </trkpt>
      <trkpt lat="42.8565" lon="0.25036">
        <ele>1849.9</ele>
        <time>2022-02-09T09:06:43Z</time>
      </trkpt>
      <trkpt lat="42.8565" lon="0.25036">
        <ele>1849.9</ele>
        <time>2022-02-09T09:06:44Z</time>
      </trkpt>
      <trkpt lat="42.8565" lon="0.25036">
        <ele>1849.9</ele>
        <time>2022-02-09T09:06:45Z</time>
      </trkpt>
      <trkpt lat="42.8565" lon="0.25036">
        <ele>1849.9</ele>
        <time>2022-02-09T09:06:46Z</time>
      </trkpt>
      <trkpt lat="42.8565" lon="0.25036">
        <ele>1849.9</ele>
        <time>2022-02-09T09:06:47Z</time>
      </trkpt>
      <trkpt lat="42.8565" lon="0.25036">
        <ele>1849.9</ele>
        <time>2022-02-09T09:06:48Z</time>
      </trkpt>
      <trkpt lat="42.8565" lon="0.25036">
        <ele>1849.9</ele>
        <time>2022-02-09T09:06:49Z</time>
      </trkpt>
      <trkpt lat="42.8565" lon="0.25036">
        <ele>1849.9</ele>
        <time>2022-02-09T09:06:50Z</time>
      </trkpt>
      <trkpt lat="42.8565" lon="0.25036">
        <ele>1849.9</ele>
        <time>2022-02-09T09:06:51Z</time>
      </trkpt>
      <trkpt lat="42.8565" lon="0.25036">
        <ele>1849.9</ele>
        <time>2022-02-09T09:06:52Z</time>
      </trkpt>
      <trkpt lat="42.8565" lon="0.25036">
        <ele>1849.9</ele>
        <time>2022-02-09T09:06:53Z</time>
      </trkpt>
      <trkpt lat="42.8565" lon="0.25036">
        <ele>1849.9</ele>
        <time>2022-02-09T09:06:54Z</time>
      </trkpt>
      <trkpt lat="42.8565" lon="0.25036">
        <ele>1849.9</ele>
        <time>2022-02-09T09:06:55Z</time>
      </trkpt>
      <trkpt lat="42.8565" lon="0.25036">
        <ele>1849.9</ele>
        <time>2022-02-09T09:06:56Z</time>
      </trkpt>
      <trkpt lat="42.8565" lon="0.25036">
        <ele>1849.9</ele>
        <time>2022-02-09T09:06:57Z</time>
      </trkpt>
      <trkpt lat="42.8565" lon="0.25036">
        <ele>1849.9</ele>
        <time>2022-02-09T09:06:58Z</time>
      </trkpt>
      <trkpt lat="42.8565" lon="0.25036">
        <ele>1849.9</ele>
        <time>2022-02-09T09:06:59Z</time>
      </trkpt>
      <trkpt lat="42.8565" lon="0.25036">
        <ele>1849.9</ele>
        <time>2022-02-09T09:07:00Z</time>
      </trkpt>
      <trkpt lat="42.8565" lon="0.25036">
        <ele>1849.9</ele>
        <time>2022-02-09T09:07:01Z</time>
      </trkpt>
      <trkpt lat="42.8565" lon="0.25036">
        <ele>1849.9</ele>
        <time>2022-02-09T09:07:02Z</time>
      </trkpt>
      <trkpt lat="42.8565" lon="0.25036">
        <ele>1849.9</ele>
        <time>2022-02-09T09:07:03Z</time>
      </trkpt>
      <trkpt lat="42.8565" lon="0.25036">
        <ele>1849.9</ele>
        <time>2022-02-09T09:07:04Z</time>
      </trkpt>
      <trkpt lat="42.8565" lon="0.25036">
        <ele>1849.9</ele>
        <time>2022-02-09T09:07:05Z</time>
      </trkpt>
      <trkpt lat="42.8565" lon="0.25036">
        <ele>1849.9</ele>
        <time>2022-02-09T09:07:06Z</time>
      </trkpt>
      <trkpt lat="42.8565" lon="0.25036">
        <ele>1849.9</ele>
        <time>2022-02-09T09:07:07Z</time>
      </trkpt>
      <trkpt lat="42.8565" lon="0.25036">
        <ele>1849.9</ele>
        <time>2022-02-09T09:07:08Z</time>
      </trkpt>
      <trkpt lat="42.8565" lon="0.25036">
        <ele>1849.9</ele>
        <time>2022-02-09T09:07:09Z</time>
      </trkpt>
      <trkpt lat="42.8565" lon="0.25036">
        <ele>1849.9</ele>
        <time>2022-02-09T09:07:10Z</time>
      </trkpt>
      <trkpt lat="42.8565" lon="0.25036">
        <ele>1849.9</ele>
        <time>2022-02-09T09:07:11Z</time>
      </trkpt>
      <trkpt lat="42.8565" lon="0.25036">
        <ele>1849.9</ele>
        <time>2022-02-09T09:07:12Z</time>
      </trkpt>
      <trkpt lat="42.8565" lon="0.25036">
        <ele>1849.9</ele>
        <time>2022-02-09T09:07:13Z</time>
      </trkpt>
      <trkpt lat="42.8565" lon="0.25036">
        <ele>1849.9</ele>
        <time>2022-02-09T09:07:14Z</time>
      </trkpt>
      <trkpt lat="42.8565" lon="0.25036">
        <ele>1849.9</ele>
        <time>2022-02-09T09:07:15Z</time>
      </trkpt>
      <trkpt lat="42.8565" lon="0.25036">
        <ele>1849.9</ele>
        <time>2022-02-09T09:07:16Z</time>
      </trkpt>
      <trkpt lat="42.8565" lon="0.25036">
        <ele>1849.9</ele>
        <time>2022-02-09T09:07:17Z</time>
      </trkpt>
      <trkpt lat="42.8565" lon="0.25036">
        <ele>1849.9</ele>
        <time>2022-02-09T09:07:18Z</time>
      </trkpt>
      <trkpt lat="42.8565" lon="0.25036">
        <ele>1849.9</ele>
        <time>2022-02-09T09:07:19Z</time>
      </trkpt>
      <trkpt lat="42.8565" lon="0.25036">
        <ele>1849.9</ele>
        <time>2022-02-09T09:07:20Z</time>
      </trkpt>
      <trkpt lat="42.8565" lon="0.25036">
        <ele>1849.9</ele>
        <time>2022-02-09T09:07:21Z</time>
      </trkpt>
      <trkpt lat="42.8565" lon="0.25036">
        <ele>1849.9</ele>
        <time>2022-02-09T09:07:22Z</time>
      </trkpt>
      <trkpt lat="42.8565" lon="0.25036">
        <ele>1849.9</ele>
        <time>2022-02-09T09:07:23Z</time>
      </trkpt>
      <trkpt lat="42.8565" lon="0.25036">
        <ele>1849.9</ele>
        <time>2022-02-09T09:07:24Z</time>
      </trkpt>
      <trkpt lat="42.8565" lon="0.25036">
        <ele>1849.9</ele>
        <time>2022-02-09T09:07:25Z</time>
      </trkpt>
      <trkpt lat="42.8565" lon="0.25036">
        <ele>1849.9</ele>
        <time>2022-02-09T09:07:26Z</time>
      </trkpt>
      <trkpt lat="42.8565" lon="0.25036">
        <ele>1849.9</ele>
        <time>2022-02-09T09:07:27Z</time>
      </trkpt>
      <trkpt lat="42.8565" lon="0.25036">
        <ele>1849.9</ele>
        <time>2022-02-09T09:07:28Z</time>
      </trkpt>
      <trkpt lat="42.8565" lon="0.25036">
        <ele>1849.9</ele>
        <time>2022-02-09T09:07:29Z</time>
      </trkpt>
      <trkpt lat="42.8565" lon="0.25036">
        <ele>1849.9</ele>
        <time>2022-02-09T09:07:30Z</time>
      </trkpt>
      <trkpt lat="42.8565" lon="0.25036">
        <ele>1849.9</ele>
        <time>2022-02-09T09:07:31Z</time>
      </trkpt>
      <trkpt lat="42.8565" lon="0.25036">
        <ele>1849.9</ele>
        <time>2022-02-09T09:07:32Z</time>
      </trkpt>
      <trkpt lat="42.8565" lon="0.25036">
        <ele>1849.9</ele>
        <time>2022-02-09T09:07:33Z</time>
      </trkpt>
      <trkpt lat="42.8565" lon="0.25036">
        <ele>1849.9</ele>
        <time>2022-02-09T09:07:34Z</time>
      </trkpt>
      <trkpt lat="42.8565" lon="0.25036">
        <ele>1849.9</ele>
        <time>2022-02-09T09:07:35Z</time>
      </trkpt>
      <trkpt lat="42.8565" lon="0.25036">
        <ele>1849.9</ele>
        <time>2022-02-09T09:07:36Z</time>
      </trkpt>
      <trkpt lat="42.8565" lon="0.25036">
        <ele>1849.9</ele>
        <time>2022-02-09T09:07:37Z</time>
      </trkpt>
      <trkpt lat="42.8565" lon="0.25036">
        <ele>1849.9</ele>
        <time>2022-02-09T09:07:38Z</time>
      </trkpt>
      <trkpt lat="42.8565" lon="0.25036">
        <ele>1849.9</ele>
        <time>2022-02-09T09:07:39Z</time>
      </trkpt>
      <trkpt lat="42.8565" lon="0.25036">
        <ele>1849.9</ele>
        <time>2022-02-09T09:07:40Z</time>
      </trkpt>
      <trkpt lat="42.8565" lon="0.25036">
        <ele>1849.9</ele>
        <time>2022-02-09T09:07:41Z</time>
      </trkpt>
      <trkpt lat="42.8565" lon="0.25036">
        <ele>1849.9</ele>
        <time>2022-02-09T09:07:42Z</time>
      </trkpt>
      <trkpt lat="42.8565" lon="0.25036">
        <ele>1849.9</ele>
        <time>2022-02-09T09:07:43Z</time>
      </trkpt>
      <trkpt lat="42.8565" lon="0.25036">
        <ele>1849.9</ele>
        <time>2022-02-09T09:07:44Z</time>
      </trkpt>
      <trkpt lat="42.8565" lon="0.25036">
        <ele>1849.9</ele>
        <time>2022-02-09T09:07:45Z</time>
      </trkpt>
      <trkpt lat="42.8565" lon="0.25036">
        <ele>1849.9</ele>
        <time>2022-02-09T09:07:46Z</time>
      </trkpt>
      <trkpt lat="42.8565" lon="0.25036">
        <ele>1849.9</ele>
        <time>2022-02-09T09:07:47Z</time>
      </trkpt>
      <trkpt lat="42.8565" lon="0.25036">
        <ele>1849.9</ele>
        <time>2022-02-09T09:07:48Z</time>
      </trkpt>
      <trkpt lat="42.8565" lon="0.25036">
        <ele>1849.9</ele>
        <time>2022-02-09T09:07:49Z</time>
      </trkpt>
      <trkpt lat="42.8565" lon="0.25036">
        <ele>1849.9</ele>
        <time>2022-02-09T09:07:50Z</time>
      </trkpt>
      <trkpt lat="42.8565" lon="0.25036">
        <ele>1849.9</ele>
        <time>2022-02-09T09:07:51Z</time>
      </trkpt>
      <trkpt lat="42.8565" lon="0.25036">
        <ele>1849.9</ele>
        <time>2022-02-09T09:07:52Z</time>
      </trkpt>
      <trkpt lat="42.8565" lon="0.25036">
        <ele>1849.9</ele>
        <time>2022-02-09T09:07:53Z</time>
      </trkpt>
      <trkpt lat="42.8565" lon="0.25036">
        <ele>1849.9</ele>
        <time>2022-02-09T09:07:54Z</time>
      </trkpt>
      <trkpt lat="42.8565" lon="0.25036">
        <ele>1849.9</ele>
        <time>2022-02-09T09:07:55Z</time>
      </trkpt>
      <trkpt lat="42.8565" lon="0.25036">
        <ele>1849.9</ele>
        <time>2022-02-09T09:07:56Z</time>
      </trkpt>
      <trkpt lat="42.8565" lon="0.25036">
        <ele>1849.9</ele>
        <time>2022-02-09T09:07:57Z</time>
      </trkpt>
      <trkpt lat="42.8565" lon="0.25036">
        <ele>1849.9</ele>
        <time>2022-02-09T09:07:58Z</time>
      </trkpt>
      <trkpt lat="42.8565" lon="0.25036">
        <ele>1849.9</ele>
        <time>2022-02-09T09:07:59Z</time>
      </trkpt>
      <trkpt lat="42.8565" lon="0.25036">
        <ele>1849.9</ele>
        <time>2022-02-09T09:08:00Z</time>
      </trkpt>
      <trkpt lat="42.8565" lon="0.25036">
        <ele>1849.9</ele>
        <time>2022-02-09T09:08:01Z</time>
      </trkpt>
      <trkpt lat="42.8565" lon="0.25036">
        <ele>1849.9</ele>
        <time>2022-02-09T09:08:02Z</time>
      </trkpt>
      <trkpt lat="42.8565" lon="0.25036">
        <ele>1849.9</ele>
        <time>2022-02-09T09:08:03Z</time>
      </trkpt>
      <trkpt lat="42.8565" lon="0.25036">
        <ele>1849.9</ele>
        <time>2022-02-09T09:08:04Z</time>
      </trkpt>
      <trkpt lat="42.8565" lon="0.25036">
        <ele>1849.9</ele>
        <time>2022-02-09T09:08:05Z</time>
      </trkpt>
      <trkpt lat="42.8565" lon="0.25036">
        <ele>1849.9</ele>
        <time>2022-02-09T09:08:06Z</time>
      </trkpt>
      <trkpt lat="42.8565" lon="0.25036">
        <ele>1849.9</ele>
        <time>2022-02-09T09:08:07Z</time>
      </trkpt>
      <trkpt lat="42.8565" lon="0.25036">
        <ele>1849.9</ele>
        <time>2022-02-09T09:08:08Z</time>
      </trkpt>
      <trkpt lat="42.8565" lon="0.25036">
        <ele>1849.9</ele>
        <time>2022-02-09T09:08:09Z</time>
      </trkpt>
      <trkpt lat="42.8565" lon="0.25036">
        <ele>1849.9</ele>
        <time>2022-02-09T09:08:10Z</time>
      </trkpt>
      <trkpt lat="42.8565" lon="0.25036">
        <ele>1849.9</ele>
        <time>2022-02-09T09:08:11Z</time>
      </trkpt>
      <trkpt lat="42.8565" lon="0.25036">
        <ele>1849.9</ele>
        <time>2022-02-09T09:08:12Z</time>
      </trkpt>
      <trkpt lat="42.8565" lon="0.25036">
        <ele>1849.9</ele>
        <time>2022-02-09T09:08:13Z</time>
      </trkpt>
      <trkpt lat="42.8565" lon="0.25036">
        <ele>1849.9</ele>
        <time>2022-02-09T09:08:14Z</time>
      </trkpt>
      <trkpt lat="42.8565" lon="0.25036">
        <ele>1849.9</ele>
        <time>2022-02-09T09:08:15Z</time>
      </trkpt>
      <trkpt lat="42.8565" lon="0.25036">
        <ele>1849.9</ele>
        <time>2022-02-09T09:08:16Z</time>
      </trkpt>
      <trkpt lat="42.8565" lon="0.25036">
        <ele>1849.9</ele>
        <time>2022-02-09T09:08:17Z</time>
      </trkpt>
      <trkpt lat="42.8565" lon="0.25036">
        <ele>1849.9</ele>
        <time>2022-02-09T09:08:18Z</time>
      </trkpt>
      <trkpt lat="42.8565" lon="0.25036">
        <ele>1849.9</ele>
        <time>2022-02-09T09:08:19Z</time>
      </trkpt>
      <trkpt lat="42.8565" lon="0.25036">
        <ele>1849.9</ele>
        <time>2022-02-09T09:08:20Z</time>
      </trkpt>
      <trkpt lat="42.8565" lon="0.25036">
        <ele>1849.9</ele>
        <time>2022-02-09T09:08:21Z</time>
      </trkpt>
      <trkpt lat="42.8565" lon="0.25036">
        <ele>1849.9</ele>
        <time>2022-02-09T09:08:22Z</time>
      </trkpt>
      <trkpt lat="42.8565" lon="0.25036">
        <ele>1849.9</ele>
        <time>2022-02-09T09:08:23Z</time>
      </trkpt>
      <trkpt lat="42.8565" lon="0.25036">
        <ele>1849.9</ele>
        <time>2022-02-09T09:08:24Z</time>
      </trkpt>
      <trkpt lat="42.8565" lon="0.25036">
        <ele>1849.9</ele>
        <time>2022-02-09T09:08:25Z</time>
      </trkpt>
      <trkpt lat="42.8565" lon="0.25036">
        <ele>1849.9</ele>
        <time>2022-02-09T09:08:26Z</time>
      </trkpt>
      <trkpt lat="42.8565" lon="0.25036">
        <ele>1849.9</ele>
        <time>2022-02-09T09:08:27Z</time>
      </trkpt>
      <trkpt lat="42.8565" lon="0.25036">
        <ele>1849.9</ele>
        <time>2022-02-09T09:08:28Z</time>
      </trkpt>
      <trkpt lat="42.8565" lon="0.25036">
        <ele>1849.9</ele>
        <time>2022-02-09T09:08:29Z</time>
      </trkpt>
      <trkpt lat="42.8565" lon="0.25036">
        <ele>1849.9</ele>
        <time>2022-02-09T09:08:30Z</time>
      </trkpt>
      <trkpt lat="42.8565" lon="0.25036">
        <ele>1849.9</ele>
        <time>2022-02-09T09:08:31Z</time>
      </trkpt>
      <trkpt lat="42.8565" lon="0.25036">
        <ele>1849.9</ele>
        <time>2022-02-09T09:08:32Z</time>
      </trkpt>
      <trkpt lat="42.8565" lon="0.25036">
        <ele>1849.9</ele>
        <time>2022-02-09T09:08:33Z</time>
      </trkpt>
      <trkpt lat="42.8565" lon="0.25036">
        <ele>1849.9</ele>
        <time>2022-02-09T09:08:34Z</time>
      </trkpt>
      <trkpt lat="42.8565" lon="0.25036">
        <ele>1849.9</ele>
        <time>2022-02-09T09:08:35Z</time>
      </trkpt>
      <trkpt lat="42.8565" lon="0.25036">
        <ele>1849.9</ele>
        <time>2022-02-09T09:08:36Z</time>
      </trkpt>
      <trkpt lat="42.8565" lon="0.25036">
        <ele>1849.9</ele>
        <time>2022-02-09T09:08:37Z</time>
      </trkpt>
      <trkpt lat="42.8565" lon="0.25036">
        <ele>1849.9</ele>
        <time>2022-02-09T09:08:38Z</time>
      </trkpt>
      <trkpt lat="42.8565" lon="0.25036">
        <ele>1849.9</ele>
        <time>2022-02-09T09:08:39Z</time>
      </trkpt>
      <trkpt lat="42.8565" lon="0.25036">
        <ele>1849.9</ele>
        <time>2022-02-09T09:08:40Z</time>
      </trkpt>
      <trkpt lat="42.8565" lon="0.25036">
        <ele>1849.9</ele>
        <time>2022-02-09T09:08:41Z</time>
      </trkpt>
      <trkpt lat="42.8565" lon="0.25036">
        <ele>1849.9</ele>
        <time>2022-02-09T09:08:42Z</time>
      </trkpt>
      <trkpt lat="42.8565" lon="0.25036">
        <ele>1849.9</ele>
        <time>2022-02-09T09:08:43Z</time>
      </trkpt>
      <trkpt lat="42.8565" lon="0.25036">
        <ele>1849.9</ele>
        <time>2022-02-09T09:08:44Z</time>
      </trkpt>
      <trkpt lat="42.8565" lon="0.25036">
        <ele>1849.9</ele>
        <time>2022-02-09T09:08:45Z</time>
      </trkpt>
      <trkpt lat="42.8565" lon="0.25036">
        <ele>1849.9</ele>
        <time>2022-02-09T09:08:46Z</time>
      </trkpt>
      <trkpt lat="42.8565" lon="0.25036">
        <ele>1849.9</ele>
        <time>2022-02-09T09:08:47Z</time>
      </trkpt>
      <trkpt lat="42.8565" lon="0.25036">
        <ele>1849.9</ele>
        <time>2022-02-09T09:08:48Z</time>
      </trkpt>
      <trkpt lat="42.8565" lon="0.25036">
        <ele>1849.9</ele>
        <time>2022-02-09T09:08:49Z</time>
      </trkpt>
      <trkpt lat="42.8565" lon="0.25036">
        <ele>1849.9</ele>
        <time>2022-02-09T09:08:50Z</time>
      </trkpt>
      <trkpt lat="42.8565" lon="0.25036">
        <ele>1849.9</ele>
        <time>2022-02-09T09:08:51Z</time>
      </trkpt>
      <trkpt lat="42.8565" lon="0.25036">
        <ele>1849.9</ele>
        <time>2022-02-09T09:08:52Z</time>
      </trkpt>
      <trkpt lat="42.8565" lon="0.25036">
        <ele>1849.9</ele>
        <time>2022-02-09T09:08:53Z</time>
      </trkpt>
      <trkpt lat="42.8565" lon="0.25036">
        <ele>1849.9</ele>
        <time>2022-02-09T09:08:54Z</time>
      </trkpt>
      <trkpt lat="42.8565" lon="0.25036">
        <ele>1849.9</ele>
        <time>2022-02-09T09:08:55Z</time>
      </trkpt>
      <trkpt lat="42.8565" lon="0.25036">
        <ele>1849.9</ele>
        <time>2022-02-09T09:08:56Z</time>
      </trkpt>
      <trkpt lat="42.8565" lon="0.25036">
        <ele>1849.9</ele>
        <time>2022-02-09T09:08:57Z</time>
      </trkpt>
      <trkpt lat="42.8565" lon="0.25036">
        <ele>1849.9</ele>
        <time>2022-02-09T09:08:58Z</time>
      </trkpt>
      <trkpt lat="42.8565" lon="0.25036">
        <ele>1849.9</ele>
        <time>2022-02-09T09:08:59Z</time>
      </trkpt>
      <trkpt lat="42.8565" lon="0.25036">
        <ele>1849.9</ele>
        <time>2022-02-09T09:09:00Z</time>
      </trkpt>
      <trkpt lat="42.8565" lon="0.25036">
        <ele>1849.9</ele>
        <time>2022-02-09T09:09:01Z</time>
      </trkpt>
      <trkpt lat="42.8565" lon="0.25036">
        <ele>1849.9</ele>
        <time>2022-02-09T09:09:02Z</time>
      </trkpt>
      <trkpt lat="42.8565" lon="0.25036">
        <ele>1849.9</ele>
        <time>2022-02-09T09:09:03Z</time>
      </trkpt>
      <trkpt lat="42.8565" lon="0.25036">
        <ele>1849.9</ele>
        <time>2022-02-09T09:09:04Z</time>
      </trkpt>
      <trkpt lat="42.8565" lon="0.25036">
        <ele>1849.9</ele>
        <time>2022-02-09T09:09:05Z</time>
      </trkpt>
      <trkpt lat="42.8565" lon="0.25036">
        <ele>1849.9</ele>
        <time>2022-02-09T09:09:06Z</time>
      </trkpt>
      <trkpt lat="42.8565" lon="0.25036">
        <ele>1849.9</ele>
        <time>2022-02-09T09:09:07Z</time>
      </trkpt>
      <trkpt lat="42.8565" lon="0.25036">
        <ele>1849.9</ele>
        <time>2022-02-09T09:09:08Z</time>
      </trkpt>
      <trkpt lat="42.8565" lon="0.25036">
        <ele>1849.9</ele>
        <time>2022-02-09T09:09:09Z</time>
      </trkpt>
      <trkpt lat="42.8565" lon="0.25036">
        <ele>1849.9</ele>
        <time>2022-02-09T09:09:10Z</time>
      </trkpt>
      <trkpt lat="42.8565" lon="0.25036">
        <ele>1849.9</ele>
        <time>2022-02-09T09:09:11Z</time>
      </trkpt>
      <trkpt lat="42.8565" lon="0.25036">
        <ele>1849.9</ele>
        <time>2022-02-09T09:09:12Z</time>
      </trkpt>
      <trkpt lat="42.8565" lon="0.25036">
        <ele>1849.9</ele>
        <time>2022-02-09T09:09:13Z</time>
      </trkpt>
      <trkpt lat="42.8565" lon="0.25036">
        <ele>1849.9</ele>
        <time>2022-02-09T09:09:14Z</time>
      </trkpt>
      <trkpt lat="42.8565" lon="0.25036">
        <ele>1849.9</ele>
        <time>2022-02-09T09:09:15Z</time>
      </trkpt>
      <trkpt lat="42.8565" lon="0.25036">
        <ele>1849.9</ele>
        <time>2022-02-09T09:09:16Z</time>
      </trkpt>
      <trkpt lat="42.8565" lon="0.25036">
        <ele>1849.9</ele>
        <time>2022-02-09T09:09:17Z</time>
      </trkpt>
      <trkpt lat="42.8565" lon="0.25036">
        <ele>1849.9</ele>
        <time>2022-02-09T09:09:18Z</time>
      </trkpt>
      <trkpt lat="42.8565" lon="0.25036">
        <ele>1849.9</ele>
        <time>2022-02-09T09:09:19Z</time>
      </trkpt>
      <trkpt lat="42.8565" lon="0.25036">
        <ele>1849.9</ele>
        <time>2022-02-09T09:09:20Z</time>
      </trkpt>
      <trkpt lat="42.8565" lon="0.25036">
        <ele>1849.9</ele>
        <time>2022-02-09T09:09:21Z</time>
      </trkpt>
      <trkpt lat="42.8565" lon="0.25036">
        <ele>1849.9</ele>
        <time>2022-02-09T09:09:22Z</time>
      </trkpt>
      <trkpt lat="42.8565" lon="0.25036">
        <ele>1849.9</ele>
        <time>2022-02-09T09:09:23Z</time>
      </trkpt>
      <trkpt lat="42.8565" lon="0.25036">
        <ele>1849.9</ele>
        <time>2022-02-09T09:09:24Z</time>
      </trkpt>
      <trkpt lat="42.8565" lon="0.25036">
        <ele>1849.9</ele>
        <time>2022-02-09T09:09:25Z</time>
      </trkpt>
      <trkpt lat="42.8565" lon="0.25036">
        <ele>1849.9</ele>
        <time>2022-02-09T09:09:26Z</time>
      </trkpt>
      <trkpt lat="42.8565" lon="0.25036">
        <ele>1849.9</ele>
        <time>2022-02-09T09:09:27Z</time>
      </trkpt>
      <trkpt lat="42.8565" lon="0.25036">
        <ele>1849.9</ele>
        <time>2022-02-09T09:09:28Z</time>
      </trkpt>
      <trkpt lat="42.8565" lon="0.25036">
        <ele>1849.9</ele>
        <time>2022-02-09T09:09:29Z</time>
      </trkpt>
      <trkpt lat="42.8565" lon="0.25036">
        <ele>1849.9</ele>
        <time>2022-02-09T09:09:30Z</time>
      </trkpt>
      <trkpt lat="42.8565" lon="0.25036">
        <ele>1849.9</ele>
        <time>2022-02-09T09:09:31Z</time>
      </trkpt>
      <trkpt lat="42.8565" lon="0.25036">
        <ele>1849.9</ele>
        <time>2022-02-09T09:09:32Z</time>
      </trkpt>
      <trkpt lat="42.8565" lon="0.25036">
        <ele>1849.9</ele>
        <time>2022-02-09T09:09:33Z</time>
      </trkpt>
      <trkpt lat="42.8565" lon="0.25036">
        <ele>1849.9</ele>
        <time>2022-02-09T09:09:34Z</time>
      </trkpt>
      <trkpt lat="42.8565" lon="0.25036">
        <ele>1849.9</ele>
        <time>2022-02-09T09:09:35Z</time>
      </trkpt>
      <trkpt lat="42.8565" lon="0.25036">
        <ele>1849.9</ele>
        <time>2022-02-09T09:09:36Z</time>
      </trkpt>
      <trkpt lat="42.8565" lon="0.25036">
        <ele>1849.9</ele>
        <time>2022-02-09T09:09:37Z</time>
      </trkpt>
      <trkpt lat="42.8565" lon="0.25036">
        <ele>1849.9</ele>
        <time>2022-02-09T09:09:38Z</time>
      </trkpt>
      <trkpt lat="42.8565" lon="0.25036">
        <ele>1849.9</ele>
        <time>2022-02-09T09:09:39Z</time>
      </trkpt>
      <trkpt lat="42.8565" lon="0.25036">
        <ele>1849.9</ele>
        <time>2022-02-09T09:09:40Z</time>
      </trkpt>
      <trkpt lat="42.8565" lon="0.25036">
        <ele>1849.9</ele>
        <time>2022-02-09T09:09:41Z</time>
      </trkpt>
      <trkpt lat="42.8565" lon="0.25036">
        <ele>1849.9</ele>
        <time>2022-02-09T09:09:42Z</time>
      </trkpt>
      <trkpt lat="42.8565" lon="0.25036">
        <ele>1849.9</ele>
        <time>2022-02-09T09:09:43Z</time>
      </trkpt>
      <trkpt lat="42.8565" lon="0.25036">
        <ele>1849.9</ele>
        <time>2022-02-09T09:09:44Z</time>
      </trkpt>
      <trkpt lat="42.8565" lon="0.25036">
        <ele>1849.9</ele>
        <time>2022-02-09T09:09:45Z</time>
      </trkpt>
      <trkpt lat="42.8565" lon="0.25036">
        <ele>1849.9</ele>
        <time>2022-02-09T09:09:46Z</time>
      </trkpt>
      <trkpt lat="42.8565" lon="0.25036">
        <ele>1849.9</ele>
        <time>2022-02-09T09:09:47Z</time>
      </trkpt>
      <trkpt lat="42.8565" lon="0.25036">
        <ele>1849.9</ele>
        <time>2022-02-09T09:09:48Z</time>
      </trkpt>
      <trkpt lat="42.8565" lon="0.25036">
        <ele>1849.9</ele>
        <time>2022-02-09T09:09:49Z</time>
      </trkpt>
      <trkpt lat="42.8565" lon="0.25036">
        <ele>1849.9</ele>
        <time>2022-02-09T09:09:50Z</time>
      </trkpt>
      <trkpt lat="42.8565" lon="0.25036">
        <ele>1849.9</ele>
        <time>2022-02-09T09:09:51Z</time>
      </trkpt>
      <trkpt lat="42.8565" lon="0.25036">
        <ele>1849.9</ele>
        <time>2022-02-09T09:09:52Z</time>
      </trkpt>
      <trkpt lat="42.8565" lon="0.25036">
        <ele>1849.9</ele>
        <time>2022-02-09T09:09:53Z</time>
      </trkpt>
      <trkpt lat="42.8565" lon="0.25036">
        <ele>1849.9</ele>
        <time>2022-02-09T09:09:54Z</time>
      </trkpt>
      <trkpt lat="42.8565" lon="0.25036">
        <ele>1849.9</ele>
        <time>2022-02-09T09:09:55Z</time>
      </trkpt>
      <trkpt lat="42.8565" lon="0.25036">
        <ele>1849.9</ele>
        <time>2022-02-09T09:09:56Z</time>
      </trkpt>
      <trkpt lat="42.8565" lon="0.25036">
        <ele>1849.9</ele>
        <time>2022-02-09T09:09:57Z</time>
      </trkpt>
      <trkpt lat="42.8565" lon="0.25036">
        <ele>1849.9</ele>
        <time>2022-02-09T09:09:58Z</time>
      </trkpt>
      <trkpt lat="42.8565" lon="0.25036">
        <ele>1849.9</ele>
        <time>2022-02-09T09:09:59Z</time>
      </trkpt>
      <trkpt lat="42.8565" lon="0.25036">
        <ele>1849.9</ele>
        <time>2022-02-09T09:10:00Z</time>
      </trkpt>
      <trkpt lat="42.8565" lon="0.25036">
        <ele>1849.9</ele>
        <time>2022-02-09T09:10:01Z</time>
      </trkpt>
      <trkpt lat="42.8565" lon="0.25036">
        <ele>1849.9</ele>
        <time>2022-02-09T09:10:02Z</time>
      </trkpt>
      <trkpt lat="42.8565" lon="0.25036">
        <ele>1849.9</ele>
        <time>2022-02-09T09:10:03Z</time>
      </trkpt>
      <trkpt lat="42.8565" lon="0.25036">
        <ele>1849.9</ele>
        <time>2022-02-09T09:10:04Z</time>
      </trkpt>
      <trkpt lat="42.8565" lon="0.25036">
        <ele>1849.9</ele>
        <time>2022-02-09T09:10:05Z</time>
      </trkpt>
      <trkpt lat="42.8565" lon="0.25036">
        <ele>1849.9</ele>
        <time>2022-02-09T09:10:06Z</time>
      </trkpt>
      <trkpt lat="42.8565" lon="0.25036">
        <ele>1849.9</ele>
        <time>2022-02-09T09:10:07Z</time>
      </trkpt>
      <trkpt lat="42.8565" lon="0.25036">
        <ele>1849.9</ele>
        <time>2022-02-09T09:10:08Z</time>
      </trkpt>
      <trkpt lat="42.8565" lon="0.25036">
        <ele>1849.9</ele>
        <time>2022-02-09T09:10:09Z</time>
      </trkpt>
      <trkpt lat="42.8565" lon="0.25036">
        <ele>1849.9</ele>
        <time>2022-02-09T09:10:10Z</time>
      </trkpt>
      <trkpt lat="42.8565" lon="0.25036">
        <ele>1849.9</ele>
        <time>2022-02-09T09:10:11Z</time>
      </trkpt>
      <trkpt lat="42.8565" lon="0.25036">
        <ele>1849.9</ele>
        <time>2022-02-09T09:10:12Z</time>
      </trkpt>
      <trkpt lat="42.8565" lon="0.25036">
        <ele>1849.9</ele>
        <time>2022-02-09T09:10:13Z</time>
      </trkpt>
      <trkpt lat="42.8565" lon="0.25036">
        <ele>1849.9</ele>
        <time>2022-02-09T09:10:14Z</time>
      </trkpt>
      <trkpt lat="42.8565" lon="0.25036">
        <ele>1849.9</ele>
        <time>2022-02-09T09:10:15Z</time>
      </trkpt>
      <trkpt lat="42.8565" lon="0.25036">
        <ele>1849.9</ele>
        <time>2022-02-09T09:10:16Z</time>
      </trkpt>
      <trkpt lat="42.8565" lon="0.25036">
        <ele>1849.9</ele>
        <time>2022-02-09T09:10:17Z</time>
      </trkpt>
      <trkpt lat="42.8565" lon="0.25036">
        <ele>1849.9</ele>
        <time>2022-02-09T09:10:18Z</time>
      </trkpt>
      <trkpt lat="42.8565" lon="0.25036">
        <ele>1849.9</ele>
        <time>2022-02-09T09:10:19Z</time>
      </trkpt>
      <trkpt lat="42.8565" lon="0.25036">
        <ele>1849.9</ele>
        <time>2022-02-09T09:10:20Z</time>
      </trkpt>
      <trkpt lat="42.8565" lon="0.25036">
        <ele>1849.9</ele>
        <time>2022-02-09T09:10:21Z</time>
      </trkpt>
      <trkpt lat="42.8565" lon="0.25036">
        <ele>1849.9</ele>
        <time>2022-02-09T09:10:22Z</time>
      </trkpt>
      <trkpt lat="42.8565" lon="0.25036">
        <ele>1849.9</ele>
        <time>2022-02-09T09:10:23Z</time>
      </trkpt>
      <trkpt lat="42.8565" lon="0.25036">
        <ele>1849.9</ele>
        <time>2022-02-09T09:10:24Z</time>
      </trkpt>
      <trkpt lat="42.8565" lon="0.25036">
        <ele>1849.9</ele>
        <time>2022-02-09T09:10:25Z</time>
      </trkpt>
      <trkpt lat="42.8565" lon="0.25036">
        <ele>1849.9</ele>
        <time>2022-02-09T09:10:26Z</time>
      </trkpt>
      <trkpt lat="42.8565" lon="0.25036">
        <ele>1849.9</ele>
        <time>2022-02-09T09:10:27Z</time>
      </trkpt>
      <trkpt lat="42.8565" lon="0.25036">
        <ele>1849.9</ele>
        <time>2022-02-09T09:10:28Z</time>
      </trkpt>
      <trkpt lat="42.8565" lon="0.25036">
        <ele>1849.9</ele>
        <time>2022-02-09T09:10:29Z</time>
      </trkpt>
      <trkpt lat="42.8565" lon="0.25036">
        <ele>1849.9</ele>
        <time>2022-02-09T09:10:30Z</time>
      </trkpt>
      <trkpt lat="42.8565" lon="0.25036">
        <ele>1849.9</ele>
        <time>2022-02-09T09:10:31Z</time>
      </trkpt>
      <trkpt lat="42.8565" lon="0.25036">
        <ele>1849.9</ele>
        <time>2022-02-09T09:10:32Z</time>
      </trkpt>
      <trkpt lat="42.8565" lon="0.25036">
        <ele>1849.9</ele>
        <time>2022-02-09T09:10:33Z</time>
      </trkpt>
      <trkpt lat="42.8565" lon="0.25036">
        <ele>1849.9</ele>
        <time>2022-02-09T09:10:34Z</time>
      </trkpt>
      <trkpt lat="42.8565" lon="0.25036">
        <ele>1849.9</ele>
        <time>2022-02-09T09:10:35Z</time>
      </trkpt>
      <trkpt lat="42.8565" lon="0.25036">
        <ele>1849.9</ele>
        <time>2022-02-09T09:10:36Z</time>
      </trkpt>
      <trkpt lat="42.8565" lon="0.25036">
        <ele>1849.9</ele>
        <time>2022-02-09T09:10:37Z</time>
      </trkpt>
      <trkpt lat="42.8565" lon="0.25036">
        <ele>1849.9</ele>
        <time>2022-02-09T09:10:38Z</time>
      </trkpt>
      <trkpt lat="42.8565" lon="0.25036">
        <ele>1849.9</ele>
        <time>2022-02-09T09:10:39Z</time>
      </trkpt>
      <trkpt lat="42.8565" lon="0.25036">
        <ele>1849.9</ele>
        <time>2022-02-09T09:10:40Z</time>
      </trkpt>
      <trkpt lat="42.8565" lon="0.25036">
        <ele>1849.9</ele>
        <time>2022-02-09T09:10:41Z</time>
      </trkpt>
      <trkpt lat="42.8565" lon="0.25036">
        <ele>1849.9</ele>
        <time>2022-02-09T09:10:42Z</time>
      </trkpt>
      <trkpt lat="42.8565" lon="0.25036">
        <ele>1849.9</ele>
        <time>2022-02-09T09:10:43Z</time>
      </trkpt>
      <trkpt lat="42.8565" lon="0.25036">
        <ele>1849.9</ele>
        <time>2022-02-09T09:10:44Z</time>
      </trkpt>
      <trkpt lat="42.8565" lon="0.25036">
        <ele>1849.9</ele>
        <time>2022-02-09T09:10:45Z</time>
      </trkpt>
      <trkpt lat="42.8565" lon="0.25036">
        <ele>1849.9</ele>
        <time>2022-02-09T09:10:46Z</time>
      </trkpt>
      <trkpt lat="42.8565" lon="0.25036">
        <ele>1849.9</ele>
        <time>2022-02-09T09:10:47Z</time>
      </trkpt>
      <trkpt lat="42.8565" lon="0.25036">
        <ele>1849.9</ele>
        <time>2022-02-09T09:10:48Z</time>
      </trkpt>
      <trkpt lat="42.8565" lon="0.25036">
        <ele>1849.9</ele>
        <time>2022-02-09T09:10:49Z</time>
      </trkpt>
      <trkpt lat="42.8565" lon="0.25036">
        <ele>1849.9</ele>
        <time>2022-02-09T09:10:50Z</time>
      </trkpt>
      <trkpt lat="42.8565" lon="0.25036">
        <ele>1849.9</ele>
        <time>2022-02-09T09:10:51Z</time>
      </trkpt>
      <trkpt lat="42.8565" lon="0.25036">
        <ele>1849.9</ele>
        <time>2022-02-09T09:10:52Z</time>
      </trkpt>
      <trkpt lat="42.8565" lon="0.25036">
        <ele>1849.9</ele>
        <time>2022-02-09T09:10:53Z</time>
      </trkpt>
      <trkpt lat="42.8565" lon="0.25036">
        <ele>1849.9</ele>
        <time>2022-02-09T09:10:54Z</time>
      </trkpt>
      <trkpt lat="42.8565" lon="0.25036">
        <ele>1849.9</ele>
        <time>2022-02-09T09:10:55Z</time>
      </trkpt>
      <trkpt lat="42.8565" lon="0.25036">
        <ele>1849.9</ele>
        <time>2022-02-09T09:10:56Z</time>
      </trkpt>
      <trkpt lat="42.8565" lon="0.25036">
        <ele>1849.9</ele>
        <time>2022-02-09T09:10:57Z</time>
      </trkpt>
      <trkpt lat="42.8565" lon="0.25036">
        <ele>1849.9</ele>
        <time>2022-02-09T09:10:58Z</time>
      </trkpt>
      <trkpt lat="42.8565" lon="0.25036">
        <ele>1849.9</ele>
        <time>2022-02-09T09:10:59Z</time>
      </trkpt>
      <trkpt lat="42.8565" lon="0.25036">
        <ele>1849.9</ele>
        <time>2022-02-09T09:11:00Z</time>
      </trkpt>
      <trkpt lat="42.8565" lon="0.25036">
        <ele>1849.9</ele>
        <time>2022-02-09T09:11:01Z</time>
      </trkpt>
      <trkpt lat="42.8565" lon="0.25036">
        <ele>1849.9</ele>
        <time>2022-02-09T09:11:02Z</time>
      </trkpt>
      <trkpt lat="42.8565" lon="0.25036">
        <ele>1849.9</ele>
        <time>2022-02-09T09:11:03Z</time>
      </trkpt>
      <trkpt lat="42.8565" lon="0.25036">
        <ele>1849.9</ele>
        <time>2022-02-09T09:11:04Z</time>
      </trkpt>
      <trkpt lat="42.8565" lon="0.25036">
        <ele>1849.9</ele>
        <time>2022-02-09T09:11:05Z</time>
      </trkpt>
      <trkpt lat="42.8565" lon="0.25036">
        <ele>1849.9</ele>
        <time>2022-02-09T09:11:06Z</time>
      </trkpt>
      <trkpt lat="42.8565" lon="0.25036">
        <ele>1849.9</ele>
        <time>2022-02-09T09:11:07Z</time>
      </trkpt>
      <trkpt lat="42.8565" lon="0.25036">
        <ele>1849.9</ele>
        <time>2022-02-09T09:11:08Z</time>
      </trkpt>
      <trkpt lat="42.8565" lon="0.25036">
        <ele>1849.9</ele>
        <time>2022-02-09T09:11:09Z</time>
      </trkpt>
      <trkpt lat="42.8565" lon="0.25036">
        <ele>1849.9</ele>
        <time>2022-02-09T09:11:10Z</time>
      </trkpt>
      <trkpt lat="42.8565" lon="0.25036">
        <ele>1849.9</ele>
        <time>2022-02-09T09:11:11Z</time>
      </trkpt>
      <trkpt lat="42.8565" lon="0.25036">
        <ele>1849.9</ele>
        <time>2022-02-09T09:11:12Z</time>
      </trkpt>
      <trkpt lat="42.8565" lon="0.25036">
        <ele>1849.9</ele>
        <time>2022-02-09T09:11:13Z</time>
      </trkpt>
      <trkpt lat="42.8565" lon="0.25036">
        <ele>1849.9</ele>
        <time>2022-02-09T09:11:14Z</time>
      </trkpt>
      <trkpt lat="42.8565" lon="0.25036">
        <ele>1849.9</ele>
        <time>2022-02-09T09:11:15Z</time>
      </trkpt>
      <trkpt lat="42.8565" lon="0.25036">
        <ele>1849.9</ele>
        <time>2022-02-09T09:11:16Z</time>
      </trkpt>
      <trkpt lat="42.8565" lon="0.25036">
        <ele>1849.9</ele>
        <time>2022-02-09T09:11:17Z</time>
      </trkpt>
      <trkpt lat="42.8565" lon="0.25036">
        <ele>1849.9</ele>
        <time>2022-02-09T09:11:18Z</time>
      </trkpt>
      <trkpt lat="42.8565" lon="0.25036">
        <ele>1849.9</ele>
        <time>2022-02-09T09:11:19Z</time>
      </trkpt>
      <trkpt lat="42.8565" lon="0.25036">
        <ele>1849.9</ele>
        <time>2022-02-09T09:11:20Z</time>
      </trkpt>
      <trkpt lat="42.8565" lon="0.25036">
        <ele>1849.9</ele>
        <time>2022-02-09T09:11:21Z</time>
      </trkpt>
      <trkpt lat="42.8565" lon="0.25036">
        <ele>1849.9</ele>
        <time>2022-02-09T09:11:22Z</time>
      </trkpt>
      <trkpt lat="42.8565" lon="0.25036">
        <ele>1849.9</ele>
        <time>2022-02-09T09:11:23Z</time>
      </trkpt>
      <trkpt lat="42.8565" lon="0.25036">
        <ele>1849.9</ele>
        <time>2022-02-09T09:11:24Z</time>
      </trkpt>
      <trkpt lat="42.8565" lon="0.25036">
        <ele>1849.9</ele>
        <time>2022-02-09T09:11:25Z</time>
      </trkpt>
      <trkpt lat="42.8565" lon="0.25036">
        <ele>1849.9</ele>
        <time>2022-02-09T09:11:26Z</time>
      </trkpt>
      <trkpt lat="42.8565" lon="0.25036">
        <ele>1849.9</ele>
        <time>2022-02-09T09:11:27Z</time>
      </trkpt>
      <trkpt lat="42.8565" lon="0.25036">
        <ele>1849.9</ele>
        <time>2022-02-09T09:11:28Z</time>
      </trkpt>
      <trkpt lat="42.8565" lon="0.25036">
        <ele>1849.9</ele>
        <time>2022-02-09T09:11:29Z</time>
      </trkpt>
      <trkpt lat="42.8565" lon="0.25036">
        <ele>1849.9</ele>
        <time>2022-02-09T09:11:30Z</time>
      </trkpt>
      <trkpt lat="42.8565" lon="0.25036">
        <ele>1849.9</ele>
        <time>2022-02-09T09:11:31Z</time>
      </trkpt>
      <trkpt lat="42.8565" lon="0.25036">
        <ele>1849.9</ele>
        <time>2022-02-09T09:11:32Z</time>
      </trkpt>
      <trkpt lat="42.8565" lon="0.25036">
        <ele>1849.9</ele>
        <time>2022-02-09T09:11:33Z</time>
      </trkpt>
      <trkpt lat="42.8565" lon="0.25036">
        <ele>1849.9</ele>
        <time>2022-02-09T09:11:34Z</time>
      </trkpt>
      <trkpt lat="42.8565" lon="0.25036">
        <ele>1849.9</ele>
        <time>2022-02-09T09:11:35Z</time>
      </trkpt>
      <trkpt lat="42.8565" lon="0.25036">
        <ele>1849.9</ele>
        <time>2022-02-09T09:11:36Z</time>
      </trkpt>
      <trkpt lat="42.8565" lon="0.25036">
        <ele>1849.9</ele>
        <time>2022-02-09T09:11:37Z</time>
      </trkpt>
      <trkpt lat="42.8565" lon="0.25036">
        <ele>1849.9</ele>
        <time>2022-02-09T09:11:38Z</time>
      </trkpt>
      <trkpt lat="42.8565" lon="0.25036">
        <ele>1849.9</ele>
        <time>2022-02-09T09:11:39Z</time>
      </trkpt>
      <trkpt lat="42.8565" lon="0.25036">
        <ele>1849.9</ele>
        <time>2022-02-09T09:11:40Z</time>
      </trkpt>
      <trkpt lat="42.8565" lon="0.25036">
        <ele>1849.9</ele>
        <time>2022-02-09T09:11:41Z</time>
      </trkpt>
      <trkpt lat="42.8565" lon="0.25036">
        <ele>1849.9</ele>
        <time>2022-02-09T09:11:42Z</time>
      </trkpt>
      <trkpt lat="42.8565" lon="0.25036">
        <ele>1849.9</ele>
        <time>2022-02-09T09:11:43Z</time>
      </trkpt>
      <trkpt lat="42.8565" lon="0.25036">
        <ele>1849.9</ele>
        <time>2022-02-09T09:11:44Z</time>
      </trkpt>
      <trkpt lat="42.8565" lon="0.25036">
        <ele>1849.9</ele>
        <time>2022-02-09T09:11:45Z</time>
      </trkpt>
      <trkpt lat="42.8565" lon="0.25036">
        <ele>1849.9</ele>
        <time>2022-02-09T09:11:46Z</time>
      </trkpt>
      <trkpt lat="42.8565" lon="0.25036">
        <ele>1849.9</ele>
        <time>2022-02-09T09:11:47Z</time>
      </trkpt>
      <trkpt lat="42.8565" lon="0.25036">
        <ele>1849.9</ele>
        <time>2022-02-09T09:11:48Z</time>
      </trkpt>
      <trkpt lat="42.8565" lon="0.25036">
        <ele>1849.9</ele>
        <time>2022-02-09T09:11:49Z</time>
      </trkpt>
      <trkpt lat="42.8565" lon="0.25036">
        <ele>1849.9</ele>
        <time>2022-02-09T09:11:50Z</time>
      </trkpt>
      <trkpt lat="42.8565" lon="0.25036">
        <ele>1849.9</ele>
        <time>2022-02-09T09:11:51Z</time>
      </trkpt>
      <trkpt lat="42.8565" lon="0.25036">
        <ele>1849.9</ele>
        <time>2022-02-09T09:11:52Z</time>
      </trkpt>
      <trkpt lat="42.8565" lon="0.25036">
        <ele>1849.9</ele>
        <time>2022-02-09T09:11:53Z</time>
      </trkpt>
      <trkpt lat="42.8565" lon="0.25036">
        <ele>1849.9</ele>
        <time>2022-02-09T09:11:54Z</time>
      </trkpt>
      <trkpt lat="42.8565" lon="0.25036">
        <ele>1849.9</ele>
        <time>2022-02-09T09:11:55Z</time>
      </trkpt>
      <trkpt lat="42.8565" lon="0.25036">
        <ele>1849.9</ele>
        <time>2022-02-09T09:11:56Z</time>
      </trkpt>
      <trkpt lat="42.8565" lon="0.25036">
        <ele>1849.9</ele>
        <time>2022-02-09T09:11:57Z</time>
      </trkpt>
      <trkpt lat="42.8565" lon="0.25036">
        <ele>1849.9</ele>
        <time>2022-02-09T09:11:58Z</time>
      </trkpt>
      <trkpt lat="42.8565" lon="0.25036">
        <ele>1849.9</ele>
        <time>2022-02-09T09:11:59Z</time>
      </trkpt>
      <trkpt lat="42.8565" lon="0.25036">
        <ele>1849.9</ele>
        <time>2022-02-09T09:12:00Z</time>
      </trkpt>
      <trkpt lat="42.8565" lon="0.25036">
        <ele>1849.9</ele>
        <time>2022-02-09T09:12:01Z</time>
      </trkpt>
      <trkpt lat="42.8565" lon="0.25036">
        <ele>1849.9</ele>
        <time>2022-02-09T09:12:02Z</time>
      </trkpt>
      <trkpt lat="42.8565" lon="0.25036">
        <ele>1849.9</ele>
        <time>2022-02-09T09:12:03Z</time>
      </trkpt>
      <trkpt lat="42.8565" lon="0.25036">
        <ele>1849.9</ele>
        <time>2022-02-09T09:12:04Z</time>
      </trkpt>
      <trkpt lat="42.8565" lon="0.25036">
        <ele>1849.9</ele>
        <time>2022-02-09T09:12:05Z</time>
      </trkpt>
      <trkpt lat="42.8565" lon="0.25036">
        <ele>1849.9</ele>
        <time>2022-02-09T09:12:06Z</time>
      </trkpt>
      <trkpt lat="42.8565" lon="0.25036">
        <ele>1849.9</ele>
        <time>2022-02-09T09:12:07Z</time>
      </trkpt>
      <trkpt lat="42.8565" lon="0.25036">
        <ele>1849.9</ele>
        <time>2022-02-09T09:12:08Z</time>
      </trkpt>
      <trkpt lat="42.8565" lon="0.25036">
        <ele>1849.9</ele>
        <time>2022-02-09T09:12:09Z</time>
      </trkpt>
      <trkpt lat="42.8565" lon="0.25036">
        <ele>1849.9</ele>
        <time>2022-02-09T09:12:10Z</time>
      </trkpt>
      <trkpt lat="42.8565" lon="0.25036">
        <ele>1849.9</ele>
        <time>2022-02-09T09:12:11Z</time>
      </trkpt>
      <trkpt lat="42.8565" lon="0.25036">
        <ele>1849.9</ele>
        <time>2022-02-09T09:12:12Z</time>
      </trkpt>
      <trkpt lat="42.8565" lon="0.25036">
        <ele>1849.9</ele>
        <time>2022-02-09T09:12:13Z</time>
      </trkpt>
      <trkpt lat="42.8565" lon="0.25036">
        <ele>1849.9</ele>
        <time>2022-02-09T09:12:14Z</time>
      </trkpt>
      <trkpt lat="42.8565" lon="0.25036">
        <ele>1849.9</ele>
        <time>2022-02-09T09:12:15Z</time>
      </trkpt>
      <trkpt lat="42.8565" lon="0.25036">
        <ele>1849.9</ele>
        <time>2022-02-09T09:12:16Z</time>
      </trkpt>
      <trkpt lat="42.8565" lon="0.25036">
        <ele>1849.9</ele>
        <time>2022-02-09T09:12:17Z</time>
      </trkpt>
      <trkpt lat="42.8565" lon="0.25036">
        <ele>1849.9</ele>
        <time>2022-02-09T09:12:18Z</time>
      </trkpt>
      <trkpt lat="42.8565" lon="0.25036">
        <ele>1849.9</ele>
        <time>2022-02-09T09:12:19Z</time>
      </trkpt>
      <trkpt lat="42.8565" lon="0.25036">
        <ele>1849.9</ele>
        <time>2022-02-09T09:12:20Z</time>
      </trkpt>
      <trkpt lat="42.8565" lon="0.25036">
        <ele>1849.9</ele>
        <time>2022-02-09T09:12:21Z</time>
      </trkpt>
      <trkpt lat="42.8565" lon="0.25036">
        <ele>1849.9</ele>
        <time>2022-02-09T09:12:22Z</time>
      </trkpt>
      <trkpt lat="42.8565" lon="0.25036">
        <ele>1849.9</ele>
        <time>2022-02-09T09:12:23Z</time>
      </trkpt>
      <trkpt lat="42.8565" lon="0.25036">
        <ele>1849.9</ele>
        <time>2022-02-09T09:12:24Z</time>
      </trkpt>
      <trkpt lat="42.8565" lon="0.25036">
        <ele>1849.9</ele>
        <time>2022-02-09T09:12:25Z</time>
      </trkpt>
      <trkpt lat="42.8565" lon="0.25036">
        <ele>1849.9</ele>
        <time>2022-02-09T09:12:26Z</time>
      </trkpt>
      <trkpt lat="42.8565" lon="0.25036">
        <ele>1849.9</ele>
        <time>2022-02-09T09:12:27Z</time>
      </trkpt>
      <trkpt lat="42.8565" lon="0.25036">
        <ele>1849.9</ele>
        <time>2022-02-09T09:12:28Z</time>
      </trkpt>
      <trkpt lat="42.8565" lon="0.25036">
        <ele>1849.9</ele>
        <time>2022-02-09T09:12:29Z</time>
      </trkpt>
      <trkpt lat="42.8565" lon="0.25036">
        <ele>1849.9</ele>
        <time>2022-02-09T09:12:30Z</time>
      </trkpt>
      <trkpt lat="42.8565" lon="0.25036">
        <ele>1849.9</ele>
        <time>2022-02-09T09:12:31Z</time>
      </trkpt>
      <trkpt lat="42.8565" lon="0.25036">
        <ele>1849.9</ele>
        <time>2022-02-09T09:12:32Z</time>
      </trkpt>
      <trkpt lat="42.8565" lon="0.25036">
        <ele>1849.9</ele>
        <time>2022-02-09T09:12:33Z</time>
      </trkpt>
      <trkpt lat="42.8565" lon="0.25036">
        <ele>1849.9</ele>
        <time>2022-02-09T09:12:34Z</time>
      </trkpt>
      <trkpt lat="42.8565" lon="0.25036">
        <ele>1849.9</ele>
        <time>2022-02-09T09:12:35Z</time>
      </trkpt>
      <trkpt lat="42.8565" lon="0.25036">
        <ele>1849.9</ele>
        <time>2022-02-09T09:12:36Z</time>
      </trkpt>
      <trkpt lat="42.8565" lon="0.25036">
        <ele>1849.9</ele>
        <time>2022-02-09T09:12:37Z</time>
      </trkpt>
      <trkpt lat="42.8565" lon="0.25036">
        <ele>1849.9</ele>
        <time>2022-02-09T09:12:38Z</time>
      </trkpt>
      <trkpt lat="42.8565" lon="0.25036">
        <ele>1849.9</ele>
        <time>2022-02-09T09:12:39Z</time>
      </trkpt>
      <trkpt lat="42.8565" lon="0.25036">
        <ele>1849.9</ele>
        <time>2022-02-09T09:12:40Z</time>
      </trkpt>
      <trkpt lat="42.8565" lon="0.25036">
        <ele>1849.9</ele>
        <time>2022-02-09T09:12:41Z</time>
      </trkpt>
      <trkpt lat="42.8565" lon="0.25036">
        <ele>1849.9</ele>
        <time>2022-02-09T09:12:42Z</time>
      </trkpt>
      <trkpt lat="42.8565" lon="0.25036">
        <ele>1849.9</ele>
        <time>2022-02-09T09:12:43Z</time>
      </trkpt>
      <trkpt lat="42.8565" lon="0.25036">
        <ele>1849.9</ele>
        <time>2022-02-09T09:12:44Z</time>
      </trkpt>
      <trkpt lat="42.8565" lon="0.25036">
        <ele>1849.9</ele>
        <time>2022-02-09T09:12:45Z</time>
      </trkpt>
      <trkpt lat="42.8565" lon="0.25036">
        <ele>1849.9</ele>
        <time>2022-02-09T09:12:46Z</time>
      </trkpt>
      <trkpt lat="42.8565" lon="0.25036">
        <ele>1849.9</ele>
        <time>2022-02-09T09:12:47Z</time>
      </trkpt>
      <trkpt lat="42.8565" lon="0.25036">
        <ele>1849.9</ele>
        <time>2022-02-09T09:12:48Z</time>
      </trkpt>
      <trkpt lat="42.8565" lon="0.25036">
        <ele>1849.9</ele>
        <time>2022-02-09T09:12:49Z</time>
      </trkpt>
      <trkpt lat="42.8565" lon="0.25036">
        <ele>1849.9</ele>
        <time>2022-02-09T09:12:50Z</time>
      </trkpt>
      <trkpt lat="42.8565" lon="0.25036">
        <ele>1849.9</ele>
        <time>2022-02-09T09:12:51Z</time>
      </trkpt>
      <trkpt lat="42.8565" lon="0.25036">
        <ele>1849.9</ele>
        <time>2022-02-09T09:12:52Z</time>
      </trkpt>
      <trkpt lat="42.8565" lon="0.25036">
        <ele>1849.9</ele>
        <time>2022-02-09T09:12:53Z</time>
      </trkpt>
      <trkpt lat="42.8565" lon="0.25036">
        <ele>1849.9</ele>
        <time>2022-02-09T09:12:54Z</time>
      </trkpt>
      <trkpt lat="42.8565" lon="0.25036">
        <ele>1849.9</ele>
        <time>2022-02-09T09:12:55Z</time>
      </trkpt>
      <trkpt lat="42.8565" lon="0.25036">
        <ele>1849.9</ele>
        <time>2022-02-09T09:12:56Z</time>
      </trkpt>
      <trkpt lat="42.8565" lon="0.25036">
        <ele>1849.9</ele>
        <time>2022-02-09T09:12:57Z</time>
      </trkpt>
      <trkpt lat="42.8565" lon="0.25036">
        <ele>1849.9</ele>
        <time>2022-02-09T09:12:58Z</time>
      </trkpt>
      <trkpt lat="42.8565" lon="0.25036">
        <ele>1849.9</ele>
        <time>2022-02-09T09:12:59Z</time>
      </trkpt>
      <trkpt lat="42.8565" lon="0.25036">
        <ele>1849.9</ele>
        <time>2022-02-09T09:13:00Z</time>
      </trkpt>
      <trkpt lat="42.8565" lon="0.25036">
        <ele>1849.9</ele>
        <time>2022-02-09T09:13:01Z</time>
      </trkpt>
      <trkpt lat="42.8565" lon="0.25036">
        <ele>1849.9</ele>
        <time>2022-02-09T09:13:02Z</time>
      </trkpt>
      <trkpt lat="42.8565" lon="0.25036">
        <ele>1849.9</ele>
        <time>2022-02-09T09:13:03Z</time>
      </trkpt>
      <trkpt lat="42.8565" lon="0.25036">
        <ele>1849.9</ele>
        <time>2022-02-09T09:13:04Z</time>
      </trkpt>
      <trkpt lat="42.8565" lon="0.25035">
        <ele>1849.9</ele>
        <time>2022-02-09T09:13:05Z</time>
      </trkpt>
      <trkpt lat="42.8565" lon="0.25033">
        <ele>1850</ele>
        <time>2022-02-09T09:13:06Z</time>
      </trkpt>
      <trkpt lat="42.85651" lon="0.25033">
        <ele>1850.1</ele>
        <time>2022-02-09T09:13:07Z</time>
      </trkpt>
      <trkpt lat="42.85651" lon="0.25032">
        <ele>1850.1</ele>
        <time>2022-02-09T09:13:08Z</time>
      </trkpt>
      <trkpt lat="42.85651" lon="0.25032">
        <ele>1850.1</ele>
        <time>2022-02-09T09:13:09Z</time>
      </trkpt>
      <trkpt lat="42.85651" lon="0.25031">
        <ele>1850.2</ele>
        <time>2022-02-09T09:13:10Z</time>
      </trkpt>
      <trkpt lat="42.85652" lon="0.2503">
        <ele>1850.2</ele>
        <time>2022-02-09T09:13:11Z</time>
      </trkpt>
      <trkpt lat="42.85652" lon="0.25029">
        <ele>1850.3</ele>
        <time>2022-02-09T09:13:12Z</time>
      </trkpt>
      <trkpt lat="42.85652" lon="0.25028">
        <ele>1850.3</ele>
        <time>2022-02-09T09:13:13Z</time>
      </trkpt>
      <trkpt lat="42.85653" lon="0.25027">
        <ele>1850.4</ele>
        <time>2022-02-09T09:13:14Z</time>
      </trkpt>
      <trkpt lat="42.85653" lon="0.25026">
        <ele>1850.5</ele>
        <time>2022-02-09T09:13:15Z</time>
      </trkpt>
      <trkpt lat="42.85654" lon="0.25024">
        <ele>1850.5</ele>
        <time>2022-02-09T09:13:16Z</time>
      </trkpt>
      <trkpt lat="42.85654" lon="0.25022">
        <ele>1850.6</ele>
        <time>2022-02-09T09:13:17Z</time>
      </trkpt>
      <trkpt lat="42.85655" lon="0.2502">
        <ele>1850.7</ele>
        <time>2022-02-09T09:13:18Z</time>
      </trkpt>
      <trkpt lat="42.85655" lon="0.25019">
        <ele>1850.8</ele>
        <time>2022-02-09T09:13:19Z</time>
      </trkpt>
      <trkpt lat="42.85655" lon="0.25017">
        <ele>1850.9</ele>
        <time>2022-02-09T09:13:20Z</time>
      </trkpt>
      <trkpt lat="42.85655" lon="0.25016">
        <ele>1850.9</ele>
        <time>2022-02-09T09:13:21Z</time>
      </trkpt>
      <trkpt lat="42.85655" lon="0.25014">
        <ele>1851</ele>
        <time>2022-02-09T09:13:22Z</time>
      </trkpt>
      <trkpt lat="42.85655" lon="0.25013">
        <ele>1851.1</ele>
        <time>2022-02-09T09:13:23Z</time>
      </trkpt>
      <trkpt lat="42.85655" lon="0.25011">
        <ele>1851.1</ele>
        <time>2022-02-09T09:13:24Z</time>
      </trkpt>
      <trkpt lat="42.85655" lon="0.2501">
        <ele>1851.2</ele>
        <time>2022-02-09T09:13:25Z</time>
      </trkpt>
      <trkpt lat="42.85655" lon="0.25008">
        <ele>1851.2</ele>
        <time>2022-02-09T09:13:26Z</time>
      </trkpt>
      <trkpt lat="42.85655" lon="0.25007">
        <ele>1851.3</ele>
        <time>2022-02-09T09:13:27Z</time>
      </trkpt>
      <trkpt lat="42.85655" lon="0.25006">
        <ele>1851.4</ele>
        <time>2022-02-09T09:13:28Z</time>
      </trkpt>
      <trkpt lat="42.85655" lon="0.25004">
        <ele>1851.4</ele>
        <time>2022-02-09T09:13:29Z</time>
      </trkpt>
      <trkpt lat="42.85656" lon="0.25003">
        <ele>1851.5</ele>
        <time>2022-02-09T09:13:30Z</time>
      </trkpt>
      <trkpt lat="42.85656" lon="0.25001">
        <ele>1851.6</ele>
        <time>2022-02-09T09:13:31Z</time>
      </trkpt>
      <trkpt lat="42.85656" lon="0.24999">
        <ele>1851.6</ele>
        <time>2022-02-09T09:13:32Z</time>
      </trkpt>
      <trkpt lat="42.85656" lon="0.24997">
        <ele>1851.7</ele>
        <time>2022-02-09T09:13:33Z</time>
      </trkpt>
      <trkpt lat="42.85657" lon="0.24996">
        <ele>1851.8</ele>
        <time>2022-02-09T09:13:34Z</time>
      </trkpt>
      <trkpt lat="42.85657" lon="0.24994">
        <ele>1851.8</ele>
        <time>2022-02-09T09:13:35Z</time>
      </trkpt>
      <trkpt lat="42.85657" lon="0.24992">
        <ele>1851.9</ele>
        <time>2022-02-09T09:13:36Z</time>
      </trkpt>
      <trkpt lat="42.85657" lon="0.24991">
        <ele>1852</ele>
        <time>2022-02-09T09:13:37Z</time>
      </trkpt>
      <trkpt lat="42.85657" lon="0.24989">
        <ele>1852</ele>
        <time>2022-02-09T09:13:38Z</time>
      </trkpt>
      <trkpt lat="42.85657" lon="0.24988">
        <ele>1852.1</ele>
        <time>2022-02-09T09:13:39Z</time>
      </trkpt>
      <trkpt lat="42.85657" lon="0.24986">
        <ele>1852.1</ele>
        <time>2022-02-09T09:13:40Z</time>
      </trkpt>
      <trkpt lat="42.85657" lon="0.24985">
        <ele>1852.2</ele>
        <time>2022-02-09T09:13:41Z</time>
      </trkpt>
      <trkpt lat="42.85657" lon="0.24984">
        <ele>1852.2</ele>
        <time>2022-02-09T09:13:42Z</time>
      </trkpt>
      <trkpt lat="42.85657" lon="0.24982">
        <ele>1852.2</ele>
        <time>2022-02-09T09:13:43Z</time>
      </trkpt>
      <trkpt lat="42.85657" lon="0.24981">
        <ele>1852.3</ele>
        <time>2022-02-09T09:13:44Z</time>
      </trkpt>
      <trkpt lat="42.85657" lon="0.24979">
        <ele>1852.3</ele>
        <time>2022-02-09T09:13:45Z</time>
      </trkpt>
      <trkpt lat="42.85657" lon="0.24978">
        <ele>1852.3</ele>
        <time>2022-02-09T09:13:46Z</time>
      </trkpt>
      <trkpt lat="42.85657" lon="0.24977">
        <ele>1852.4</ele>
        <time>2022-02-09T09:13:47Z</time>
      </trkpt>
      <trkpt lat="42.85657" lon="0.24975">
        <ele>1852.4</ele>
        <time>2022-02-09T09:13:48Z</time>
      </trkpt>
      <trkpt lat="42.85657" lon="0.24974">
        <ele>1852.4</ele>
        <time>2022-02-09T09:13:49Z</time>
      </trkpt>
      <trkpt lat="42.85657" lon="0.24973">
        <ele>1852.4</ele>
        <time>2022-02-09T09:13:50Z</time>
      </trkpt>
      <trkpt lat="42.85657" lon="0.24972">
        <ele>1852.5</ele>
        <time>2022-02-09T09:13:51Z</time>
      </trkpt>
      <trkpt lat="42.85657" lon="0.24971">
        <ele>1852.5</ele>
        <time>2022-02-09T09:13:52Z</time>
      </trkpt>
      <trkpt lat="42.85656" lon="0.2497">
        <ele>1852.5</ele>
        <time>2022-02-09T09:13:53Z</time>
      </trkpt>
      <trkpt lat="42.85656" lon="0.24969">
        <ele>1852.5</ele>
        <time>2022-02-09T09:13:54Z</time>
      </trkpt>
      <trkpt lat="42.85656" lon="0.24968">
        <ele>1852.5</ele>
        <time>2022-02-09T09:13:55Z</time>
      </trkpt>
      <trkpt lat="42.85656" lon="0.24967">
        <ele>1852.5</ele>
        <time>2022-02-09T09:13:56Z</time>
      </trkpt>
      <trkpt lat="42.85656" lon="0.24966">
        <ele>1852.5</ele>
        <time>2022-02-09T09:13:57Z</time>
      </trkpt>
      <trkpt lat="42.85656" lon="0.24965">
        <ele>1852.5</ele>
        <time>2022-02-09T09:13:58Z</time>
      </trkpt>
      <trkpt lat="42.85655" lon="0.24964">
        <ele>1852.6</ele>
        <time>2022-02-09T09:13:59Z</time>
      </trkpt>
      <trkpt lat="42.85655" lon="0.24963">
        <ele>1852.6</ele>
        <time>2022-02-09T09:14:00Z</time>
      </trkpt>
      <trkpt lat="42.85655" lon="0.24962">
        <ele>1852.6</ele>
        <time>2022-02-09T09:14:01Z</time>
      </trkpt>
      <trkpt lat="42.85655" lon="0.24961">
        <ele>1852.6</ele>
        <time>2022-02-09T09:14:02Z</time>
      </trkpt>
      <trkpt lat="42.85655" lon="0.24961">
        <ele>1852.6</ele>
        <time>2022-02-09T09:14:03Z</time>
      </trkpt>
      <trkpt lat="42.85656" lon="0.2496">
        <ele>1852.6</ele>
        <time>2022-02-09T09:14:04Z</time>
      </trkpt>
      <trkpt lat="42.85656" lon="0.2496">
        <ele>1852.6</ele>
        <time>2022-02-09T09:14:05Z</time>
      </trkpt>
      <trkpt lat="42.85656" lon="0.2496">
        <ele>1852.6</ele>
        <time>2022-02-09T09:14:06Z</time>
      </trkpt>
      <trkpt lat="42.85656" lon="0.2496">
        <ele>1852.6</ele>
        <time>2022-02-09T09:14:07Z</time>
      </trkpt>
      <trkpt lat="42.85656" lon="0.2496">
        <ele>1852.6</ele>
        <time>2022-02-09T09:14:08Z</time>
      </trkpt>
      <trkpt lat="42.85656" lon="0.2496">
        <ele>1852.6</ele>
        <time>2022-02-09T09:14:09Z</time>
      </trkpt>
      <trkpt lat="42.85656" lon="0.2496">
        <ele>1852.6</ele>
        <time>2022-02-09T09:14:10Z</time>
      </trkpt>
      <trkpt lat="42.85656" lon="0.2496">
        <ele>1852.6</ele>
        <time>2022-02-09T09:14:11Z</time>
      </trkpt>
      <trkpt lat="42.85656" lon="0.2496">
        <ele>1852.6</ele>
        <time>2022-02-09T09:14:12Z</time>
      </trkpt>
      <trkpt lat="42.85656" lon="0.2496">
        <ele>1852.6</ele>
        <time>2022-02-09T09:14:13Z</time>
      </trkpt>
      <trkpt lat="42.85656" lon="0.2496">
        <ele>1852.6</ele>
        <time>2022-02-09T09:14:14Z</time>
      </trkpt>
      <trkpt lat="42.85656" lon="0.2496">
        <ele>1852.6</ele>
        <time>2022-02-09T09:14:15Z</time>
      </trkpt>
      <trkpt lat="42.85656" lon="0.2496">
        <ele>1852.6</ele>
        <time>2022-02-09T09:14:16Z</time>
      </trkpt>
      <trkpt lat="42.85656" lon="0.2496">
        <ele>1852.6</ele>
        <time>2022-02-09T09:14:17Z</time>
      </trkpt>
      <trkpt lat="42.85656" lon="0.2496">
        <ele>1852.6</ele>
        <time>2022-02-09T09:14:18Z</time>
      </trkpt>
      <trkpt lat="42.85656" lon="0.2496">
        <ele>1852.6</ele>
        <time>2022-02-09T09:14:19Z</time>
      </trkpt>
      <trkpt lat="42.85656" lon="0.2496">
        <ele>1852.6</ele>
        <time>2022-02-09T09:14:20Z</time>
      </trkpt>
      <trkpt lat="42.85656" lon="0.2496">
        <ele>1852.6</ele>
        <time>2022-02-09T09:14:21Z</time>
      </trkpt>
      <trkpt lat="42.85656" lon="0.2496">
        <ele>1852.6</ele>
        <time>2022-02-09T09:14:22Z</time>
      </trkpt>
      <trkpt lat="42.85656" lon="0.2496">
        <ele>1852.6</ele>
        <time>2022-02-09T09:14:23Z</time>
      </trkpt>
      <trkpt lat="42.85656" lon="0.2496">
        <ele>1852.6</ele>
        <time>2022-02-09T09:14:24Z</time>
      </trkpt>
      <trkpt lat="42.85655" lon="0.2496">
        <ele>1852.6</ele>
        <time>2022-02-09T09:14:25Z</time>
      </trkpt>
      <trkpt lat="42.85655" lon="0.24959">
        <ele>1852.6</ele>
        <time>2022-02-09T09:14:26Z</time>
      </trkpt>
      <trkpt lat="42.85655" lon="0.24958">
        <ele>1852.6</ele>
        <time>2022-02-09T09:14:27Z</time>
      </trkpt>
      <trkpt lat="42.85655" lon="0.24956">
        <ele>1852.6</ele>
        <time>2022-02-09T09:14:28Z</time>
      </trkpt>
      <trkpt lat="42.85655" lon="0.24955">
        <ele>1852.6</ele>
        <time>2022-02-09T09:14:29Z</time>
      </trkpt>
      <trkpt lat="42.85655" lon="0.24955">
        <ele>1852.6</ele>
        <time>2022-02-09T09:14:30Z</time>
      </trkpt>
      <trkpt lat="42.85655" lon="0.24954">
        <ele>1852.6</ele>
        <time>2022-02-09T09:14:31Z</time>
      </trkpt>
      <trkpt lat="42.85655" lon="0.24953">
        <ele>1852.6</ele>
        <time>2022-02-09T09:14:32Z</time>
      </trkpt>
      <trkpt lat="42.85656" lon="0.24952">
        <ele>1852.6</ele>
        <time>2022-02-09T09:14:33Z</time>
      </trkpt>
      <trkpt lat="42.85655" lon="0.24951">
        <ele>1852.6</ele>
        <time>2022-02-09T09:14:34Z</time>
      </trkpt>
      <trkpt lat="42.85655" lon="0.2495">
        <ele>1852.7</ele>
        <time>2022-02-09T09:14:35Z</time>
      </trkpt>
      <trkpt lat="42.85655" lon="0.24949">
        <ele>1852.7</ele>
        <time>2022-02-09T09:14:36Z</time>
      </trkpt>
      <trkpt lat="42.85655" lon="0.24948">
        <ele>1852.7</ele>
        <time>2022-02-09T09:14:37Z</time>
      </trkpt>
      <trkpt lat="42.85655" lon="0.24947">
        <ele>1852.7</ele>
        <time>2022-02-09T09:14:38Z</time>
      </trkpt>
      <trkpt lat="42.85656" lon="0.24946">
        <ele>1852.7</ele>
        <time>2022-02-09T09:14:39Z</time>
      </trkpt>
      <trkpt lat="42.85656" lon="0.24945">
        <ele>1852.7</ele>
        <time>2022-02-09T09:14:40Z</time>
      </trkpt>
      <trkpt lat="42.85656" lon="0.24944">
        <ele>1852.7</ele>
        <time>2022-02-09T09:14:41Z</time>
      </trkpt>
      <trkpt lat="42.85657" lon="0.24943">
        <ele>1852.7</ele>
        <time>2022-02-09T09:14:42Z</time>
      </trkpt>
      <trkpt lat="42.85657" lon="0.24942">
        <ele>1852.8</ele>
        <time>2022-02-09T09:14:43Z</time>
      </trkpt>
      <trkpt lat="42.85657" lon="0.24941">
        <ele>1852.8</ele>
        <time>2022-02-09T09:14:44Z</time>
      </trkpt>
      <trkpt lat="42.85658" lon="0.24939">
        <ele>1852.8</ele>
        <time>2022-02-09T09:14:45Z</time>
      </trkpt>
      <trkpt lat="42.85658" lon="0.24938">
        <ele>1852.9</ele>
        <time>2022-02-09T09:14:46Z</time>
      </trkpt>
      <trkpt lat="42.85659" lon="0.24936">
        <ele>1852.9</ele>
        <time>2022-02-09T09:14:47Z</time>
      </trkpt>
      <trkpt lat="42.85659" lon="0.24934">
        <ele>1852.9</ele>
        <time>2022-02-09T09:14:48Z</time>
      </trkpt>
      <trkpt lat="42.85659" lon="0.24933">
        <ele>1853</ele>
        <time>2022-02-09T09:14:49Z</time>
      </trkpt>
      <trkpt lat="42.85659" lon="0.24932">
        <ele>1853</ele>
        <time>2022-02-09T09:14:50Z</time>
      </trkpt>
      <trkpt lat="42.85659" lon="0.2493">
        <ele>1853.1</ele>
        <time>2022-02-09T09:14:51Z</time>
      </trkpt>
      <trkpt lat="42.85659" lon="0.24929">
        <ele>1853.1</ele>
        <time>2022-02-09T09:14:52Z</time>
      </trkpt>
      <trkpt lat="42.8566" lon="0.24928">
        <ele>1853.2</ele>
        <time>2022-02-09T09:14:53Z</time>
      </trkpt>
      <trkpt lat="42.8566" lon="0.24926">
        <ele>1853.2</ele>
        <time>2022-02-09T09:14:54Z</time>
      </trkpt>
      <trkpt lat="42.8566" lon="0.24925">
        <ele>1853.2</ele>
        <time>2022-02-09T09:14:55Z</time>
      </trkpt>
      <trkpt lat="42.8566" lon="0.24924">
        <ele>1853.3</ele>
        <time>2022-02-09T09:14:56Z</time>
      </trkpt>
      <trkpt lat="42.85661" lon="0.24923">
        <ele>1853.3</ele>
        <time>2022-02-09T09:14:57Z</time>
      </trkpt>
      <trkpt lat="42.85661" lon="0.24922">
        <ele>1853.4</ele>
        <time>2022-02-09T09:14:58Z</time>
      </trkpt>
      <trkpt lat="42.85661" lon="0.24922">
        <ele>1853.4</ele>
        <time>2022-02-09T09:14:59Z</time>
      </trkpt>
      <trkpt lat="42.85661" lon="0.24921">
        <ele>1853.4</ele>
        <time>2022-02-09T09:15:00Z</time>
      </trkpt>
      <trkpt lat="42.85661" lon="0.2492">
        <ele>1853.5</ele>
        <time>2022-02-09T09:15:01Z</time>
      </trkpt>
      <trkpt lat="42.85661" lon="0.24918">
        <ele>1853.5</ele>
        <time>2022-02-09T09:15:02Z</time>
      </trkpt>
      <trkpt lat="42.85661" lon="0.24917">
        <ele>1853.6</ele>
        <time>2022-02-09T09:15:03Z</time>
      </trkpt>
      <trkpt lat="42.85661" lon="0.24916">
        <ele>1853.6</ele>
        <time>2022-02-09T09:15:04Z</time>
      </trkpt>
      <trkpt lat="42.85662" lon="0.24915">
        <ele>1853.7</ele>
        <time>2022-02-09T09:15:05Z</time>
      </trkpt>
      <trkpt lat="42.85662" lon="0.24914">
        <ele>1853.7</ele>
        <time>2022-02-09T09:15:06Z</time>
      </trkpt>
      <trkpt lat="42.85662" lon="0.24912">
        <ele>1853.8</ele>
        <time>2022-02-09T09:15:07Z</time>
      </trkpt>
      <trkpt lat="42.85662" lon="0.24911">
        <ele>1853.9</ele>
        <time>2022-02-09T09:15:08Z</time>
      </trkpt>
      <trkpt lat="42.85662" lon="0.24909">
        <ele>1854</ele>
        <time>2022-02-09T09:15:09Z</time>
      </trkpt>
      <trkpt lat="42.85663" lon="0.24908">
        <ele>1854</ele>
        <time>2022-02-09T09:15:10Z</time>
      </trkpt>
      <trkpt lat="42.85663" lon="0.24906">
        <ele>1854.1</ele>
        <time>2022-02-09T09:15:11Z</time>
      </trkpt>
      <trkpt lat="42.85663" lon="0.24905">
        <ele>1854.2</ele>
        <time>2022-02-09T09:15:12Z</time>
      </trkpt>
      <trkpt lat="42.85663" lon="0.24903">
        <ele>1854.3</ele>
        <time>2022-02-09T09:15:13Z</time>
      </trkpt>
      <trkpt lat="42.85663" lon="0.24902">
        <ele>1854.3</ele>
        <time>2022-02-09T09:15:14Z</time>
      </trkpt>
      <trkpt lat="42.85663" lon="0.249">
        <ele>1854.4</ele>
        <time>2022-02-09T09:15:15Z</time>
      </trkpt>
      <trkpt lat="42.85663" lon="0.24899">
        <ele>1854.5</ele>
        <time>2022-02-09T09:15:16Z</time>
      </trkpt>
      <trkpt lat="42.85663" lon="0.24898">
        <ele>1854.6</ele>
        <time>2022-02-09T09:15:17Z</time>
      </trkpt>
      <trkpt lat="42.85663" lon="0.24896">
        <ele>1854.6</ele>
        <time>2022-02-09T09:15:18Z</time>
      </trkpt>
      <trkpt lat="42.85664" lon="0.24895">
        <ele>1854.7</ele>
        <time>2022-02-09T09:15:19Z</time>
      </trkpt>
      <trkpt lat="42.85664" lon="0.24894">
        <ele>1854.8</ele>
        <time>2022-02-09T09:15:20Z</time>
      </trkpt>
      <trkpt lat="42.85664" lon="0.24893">
        <ele>1854.9</ele>
        <time>2022-02-09T09:15:21Z</time>
      </trkpt>
      <trkpt lat="42.85664" lon="0.24892">
        <ele>1854.9</ele>
        <time>2022-02-09T09:15:22Z</time>
      </trkpt>
      <trkpt lat="42.85664" lon="0.2489">
        <ele>1855</ele>
        <time>2022-02-09T09:15:23Z</time>
      </trkpt>
      <trkpt lat="42.85664" lon="0.24889">
        <ele>1855.1</ele>
        <time>2022-02-09T09:15:24Z</time>
      </trkpt>
      <trkpt lat="42.85665" lon="0.24888">
        <ele>1855.2</ele>
        <time>2022-02-09T09:15:25Z</time>
      </trkpt>
      <trkpt lat="42.85665" lon="0.24887">
        <ele>1855.3</ele>
        <time>2022-02-09T09:15:26Z</time>
      </trkpt>
      <trkpt lat="42.85665" lon="0.24886">
        <ele>1855.4</ele>
        <time>2022-02-09T09:15:27Z</time>
      </trkpt>
      <trkpt lat="42.85666" lon="0.24885">
        <ele>1855.4</ele>
        <time>2022-02-09T09:15:28Z</time>
      </trkpt>
      <trkpt lat="42.85666" lon="0.24883">
        <ele>1855.5</ele>
        <time>2022-02-09T09:15:29Z</time>
      </trkpt>
      <trkpt lat="42.85666" lon="0.24882">
        <ele>1855.6</ele>
        <time>2022-02-09T09:15:30Z</time>
      </trkpt>
      <trkpt lat="42.85666" lon="0.24881">
        <ele>1855.7</ele>
        <time>2022-02-09T09:15:31Z</time>
      </trkpt>
      <trkpt lat="42.85666" lon="0.2488">
        <ele>1855.8</ele>
        <time>2022-02-09T09:15:32Z</time>
      </trkpt>
      <trkpt lat="42.85667" lon="0.24879">
        <ele>1855.9</ele>
        <time>2022-02-09T09:15:33Z</time>
      </trkpt>
      <trkpt lat="42.85666" lon="0.24877">
        <ele>1856</ele>
        <time>2022-02-09T09:15:34Z</time>
      </trkpt>
      <trkpt lat="42.85666" lon="0.24876">
        <ele>1856.1</ele>
        <time>2022-02-09T09:15:35Z</time>
      </trkpt>
      <trkpt lat="42.85666" lon="0.24875">
        <ele>1856.2</ele>
        <time>2022-02-09T09:15:36Z</time>
      </trkpt>
      <trkpt lat="42.85666" lon="0.24874">
        <ele>1856.3</ele>
        <time>2022-02-09T09:15:37Z</time>
      </trkpt>
      <trkpt lat="42.85666" lon="0.24873">
        <ele>1856.3</ele>
        <time>2022-02-09T09:15:38Z</time>
      </trkpt>
      <trkpt lat="42.85666" lon="0.24872">
        <ele>1856.4</ele>
        <time>2022-02-09T09:15:39Z</time>
      </trkpt>
      <trkpt lat="42.85666" lon="0.2487">
        <ele>1856.5</ele>
        <time>2022-02-09T09:15:40Z</time>
      </trkpt>
      <trkpt lat="42.85665" lon="0.24869">
        <ele>1856.6</ele>
        <time>2022-02-09T09:15:41Z</time>
      </trkpt>
      <trkpt lat="42.85665" lon="0.24868">
        <ele>1856.7</ele>
        <time>2022-02-09T09:15:42Z</time>
      </trkpt>
      <trkpt lat="42.85665" lon="0.24867">
        <ele>1856.8</ele>
        <time>2022-02-09T09:15:43Z</time>
      </trkpt>
      <trkpt lat="42.85665" lon="0.24866">
        <ele>1856.8</ele>
        <time>2022-02-09T09:15:44Z</time>
      </trkpt>
      <trkpt lat="42.85665" lon="0.24865">
        <ele>1856.9</ele>
        <time>2022-02-09T09:15:45Z</time>
      </trkpt>
      <trkpt lat="42.85665" lon="0.24864">
        <ele>1857</ele>
        <time>2022-02-09T09:15:46Z</time>
      </trkpt>
      <trkpt lat="42.85664" lon="0.24863">
        <ele>1857.1</ele>
        <time>2022-02-09T09:15:47Z</time>
      </trkpt>
      <trkpt lat="42.85664" lon="0.24862">
        <ele>1857.2</ele>
        <time>2022-02-09T09:15:48Z</time>
      </trkpt>
      <trkpt lat="42.85663" lon="0.24861">
        <ele>1857.3</ele>
        <time>2022-02-09T09:15:49Z</time>
      </trkpt>
      <trkpt lat="42.85663" lon="0.2486">
        <ele>1857.3</ele>
        <time>2022-02-09T09:15:50Z</time>
      </trkpt>
      <trkpt lat="42.85663" lon="0.24859">
        <ele>1857.4</ele>
        <time>2022-02-09T09:15:51Z</time>
      </trkpt>
      <trkpt lat="42.85662" lon="0.24858">
        <ele>1857.5</ele>
        <time>2022-02-09T09:15:52Z</time>
      </trkpt>
      <trkpt lat="42.85662" lon="0.24857">
        <ele>1857.6</ele>
        <time>2022-02-09T09:15:53Z</time>
      </trkpt>
      <trkpt lat="42.85661" lon="0.24856">
        <ele>1857.7</ele>
        <time>2022-02-09T09:15:54Z</time>
      </trkpt>
      <trkpt lat="42.85661" lon="0.24855">
        <ele>1857.7</ele>
        <time>2022-02-09T09:15:55Z</time>
      </trkpt>
      <trkpt lat="42.85661" lon="0.24854">
        <ele>1857.8</ele>
        <time>2022-02-09T09:15:56Z</time>
      </trkpt>
      <trkpt lat="42.85661" lon="0.24853">
        <ele>1857.9</ele>
        <time>2022-02-09T09:15:57Z</time>
      </trkpt>
      <trkpt lat="42.85661" lon="0.24852">
        <ele>1857.9</ele>
        <time>2022-02-09T09:15:58Z</time>
      </trkpt>
      <trkpt lat="42.8566" lon="0.24851">
        <ele>1858</ele>
        <time>2022-02-09T09:15:59Z</time>
      </trkpt>
      <trkpt lat="42.8566" lon="0.2485">
        <ele>1858.1</ele>
        <time>2022-02-09T09:16:00Z</time>
      </trkpt>
      <trkpt lat="42.8566" lon="0.24849">
        <ele>1858.2</ele>
        <time>2022-02-09T09:16:01Z</time>
      </trkpt>
      <trkpt lat="42.85659" lon="0.24848">
        <ele>1858.2</ele>
        <time>2022-02-09T09:16:02Z</time>
      </trkpt>
      <trkpt lat="42.85659" lon="0.24847">
        <ele>1858.3</ele>
        <time>2022-02-09T09:16:03Z</time>
      </trkpt>
      <trkpt lat="42.85659" lon="0.24846">
        <ele>1858.4</ele>
        <time>2022-02-09T09:16:04Z</time>
      </trkpt>
      <trkpt lat="42.85658" lon="0.24845">
        <ele>1858.4</ele>
        <time>2022-02-09T09:16:05Z</time>
      </trkpt>
      <trkpt lat="42.85657" lon="0.24844">
        <ele>1858.5</ele>
        <time>2022-02-09T09:16:06Z</time>
      </trkpt>
      <trkpt lat="42.85657" lon="0.24842">
        <ele>1858.6</ele>
        <time>2022-02-09T09:16:07Z</time>
      </trkpt>
      <trkpt lat="42.85657" lon="0.24841">
        <ele>1858.6</ele>
        <time>2022-02-09T09:16:08Z</time>
      </trkpt>
      <trkpt lat="42.85656" lon="0.2484">
        <ele>1858.7</ele>
        <time>2022-02-09T09:16:09Z</time>
      </trkpt>
      <trkpt lat="42.85656" lon="0.24839">
        <ele>1858.8</ele>
        <time>2022-02-09T09:16:10Z</time>
      </trkpt>
      <trkpt lat="42.85655" lon="0.24838">
        <ele>1858.8</ele>
        <time>2022-02-09T09:16:11Z</time>
      </trkpt>
      <trkpt lat="42.85655" lon="0.24837">
        <ele>1858.9</ele>
        <time>2022-02-09T09:16:12Z</time>
      </trkpt>
      <trkpt lat="42.85655" lon="0.24835">
        <ele>1859</ele>
        <time>2022-02-09T09:16:13Z</time>
      </trkpt>
      <trkpt lat="42.85654" lon="0.24834">
        <ele>1859</ele>
        <time>2022-02-09T09:16:14Z</time>
      </trkpt>
      <trkpt lat="42.85653" lon="0.24833">
        <ele>1859.1</ele>
        <time>2022-02-09T09:16:15Z</time>
      </trkpt>
      <trkpt lat="42.85653" lon="0.24831">
        <ele>1859.2</ele>
        <time>2022-02-09T09:16:16Z</time>
      </trkpt>
      <trkpt lat="42.85652" lon="0.2483">
        <ele>1859.3</ele>
        <time>2022-02-09T09:16:17Z</time>
      </trkpt>
      <trkpt lat="42.85652" lon="0.24828">
        <ele>1859.3</ele>
        <time>2022-02-09T09:16:18Z</time>
      </trkpt>
      <trkpt lat="42.85651" lon="0.24826">
        <ele>1859.4</ele>
        <time>2022-02-09T09:16:19Z</time>
      </trkpt>
      <trkpt lat="42.8565" lon="0.24825">
        <ele>1859.5</ele>
        <time>2022-02-09T09:16:20Z</time>
      </trkpt>
      <trkpt lat="42.8565" lon="0.24823">
        <ele>1859.6</ele>
        <time>2022-02-09T09:16:21Z</time>
      </trkpt>
      <trkpt lat="42.85649" lon="0.24822">
        <ele>1859.6</ele>
        <time>2022-02-09T09:16:22Z</time>
      </trkpt>
      <trkpt lat="42.85649" lon="0.24821">
        <ele>1859.7</ele>
        <time>2022-02-09T09:16:23Z</time>
      </trkpt>
      <trkpt lat="42.85648" lon="0.24819">
        <ele>1859.7</ele>
        <time>2022-02-09T09:16:24Z</time>
      </trkpt>
      <trkpt lat="42.85647" lon="0.24818">
        <ele>1859.8</ele>
        <time>2022-02-09T09:16:25Z</time>
      </trkpt>
      <trkpt lat="42.85647" lon="0.24816">
        <ele>1859.8</ele>
        <time>2022-02-09T09:16:26Z</time>
      </trkpt>
      <trkpt lat="42.85647" lon="0.24815">
        <ele>1859.9</ele>
        <time>2022-02-09T09:16:27Z</time>
      </trkpt>
      <trkpt lat="42.85646" lon="0.24814">
        <ele>1859.9</ele>
        <time>2022-02-09T09:16:28Z</time>
      </trkpt>
      <trkpt lat="42.85645" lon="0.24813">
        <ele>1860</ele>
        <time>2022-02-09T09:16:29Z</time>
      </trkpt>
      <trkpt lat="42.85645" lon="0.24812">
        <ele>1860</ele>
        <time>2022-02-09T09:16:30Z</time>
      </trkpt>
      <trkpt lat="42.85644" lon="0.24811">
        <ele>1860</ele>
        <time>2022-02-09T09:16:31Z</time>
      </trkpt>
      <trkpt lat="42.85644" lon="0.2481">
        <ele>1860.1</ele>
        <time>2022-02-09T09:16:32Z</time>
      </trkpt>
      <trkpt lat="42.85644" lon="0.24809">
        <ele>1860.1</ele>
        <time>2022-02-09T09:16:33Z</time>
      </trkpt>
      <trkpt lat="42.85643" lon="0.24808">
        <ele>1860.1</ele>
        <time>2022-02-09T09:16:34Z</time>
      </trkpt>
      <trkpt lat="42.85644" lon="0.24808">
        <ele>1860.1</ele>
        <time>2022-02-09T09:16:35Z</time>
      </trkpt>
      <trkpt lat="42.85645" lon="0.24808">
        <ele>1860.2</ele>
        <time>2022-02-09T09:16:36Z</time>
      </trkpt>
      <trkpt lat="42.85645" lon="0.24808">
        <ele>1860.2</ele>
        <time>2022-02-09T09:16:37Z</time>
      </trkpt>
      <trkpt lat="42.85645" lon="0.24808">
        <ele>1860.2</ele>
        <time>2022-02-09T09:16:38Z</time>
      </trkpt>
      <trkpt lat="42.85645" lon="0.24808">
        <ele>1860.2</ele>
        <time>2022-02-09T09:16:39Z</time>
      </trkpt>
      <trkpt lat="42.85645" lon="0.24806">
        <ele>1860.2</ele>
        <time>2022-02-09T09:16:40Z</time>
      </trkpt>
      <trkpt lat="42.85645" lon="0.24805">
        <ele>1860.3</ele>
        <time>2022-02-09T09:16:41Z</time>
      </trkpt>
      <trkpt lat="42.85644" lon="0.24804">
        <ele>1860.3</ele>
        <time>2022-02-09T09:16:42Z</time>
      </trkpt>
      <trkpt lat="42.85644" lon="0.24803">
        <ele>1860.4</ele>
        <time>2022-02-09T09:16:43Z</time>
      </trkpt>
      <trkpt lat="42.85644" lon="0.24801">
        <ele>1860.4</ele>
        <time>2022-02-09T09:16:44Z</time>
      </trkpt>
      <trkpt lat="42.85643" lon="0.248">
        <ele>1860.4</ele>
        <time>2022-02-09T09:16:45Z</time>
      </trkpt>
      <trkpt lat="42.85643" lon="0.24799">
        <ele>1860.5</ele>
        <time>2022-02-09T09:16:46Z</time>
      </trkpt>
      <trkpt lat="42.85642" lon="0.24797">
        <ele>1860.5</ele>
        <time>2022-02-09T09:16:47Z</time>
      </trkpt>
      <trkpt lat="42.85642" lon="0.24796">
        <ele>1860.6</ele>
        <time>2022-02-09T09:16:48Z</time>
      </trkpt>
      <trkpt lat="42.85641" lon="0.24795">
        <ele>1860.6</ele>
        <time>2022-02-09T09:16:49Z</time>
      </trkpt>
      <trkpt lat="42.85641" lon="0.24794">
        <ele>1860.6</ele>
        <time>2022-02-09T09:16:50Z</time>
      </trkpt>
      <trkpt lat="42.8564" lon="0.24792">
        <ele>1860.7</ele>
        <time>2022-02-09T09:16:51Z</time>
      </trkpt>
      <trkpt lat="42.8564" lon="0.24791">
        <ele>1860.7</ele>
        <time>2022-02-09T09:16:52Z</time>
      </trkpt>
      <trkpt lat="42.85639" lon="0.2479">
        <ele>1860.8</ele>
        <time>2022-02-09T09:16:53Z</time>
      </trkpt>
      <trkpt lat="42.85639" lon="0.24789">
        <ele>1860.8</ele>
        <time>2022-02-09T09:16:54Z</time>
      </trkpt>
      <trkpt lat="42.85639" lon="0.24787">
        <ele>1860.8</ele>
        <time>2022-02-09T09:16:55Z</time>
      </trkpt>
      <trkpt lat="42.85638" lon="0.24786">
        <ele>1860.9</ele>
        <time>2022-02-09T09:16:56Z</time>
      </trkpt>
      <trkpt lat="42.85638" lon="0.24785">
        <ele>1860.9</ele>
        <time>2022-02-09T09:16:57Z</time>
      </trkpt>
      <trkpt lat="42.85638" lon="0.24783">
        <ele>1860.9</ele>
        <time>2022-02-09T09:16:58Z</time>
      </trkpt>
      <trkpt lat="42.85638" lon="0.24782">
        <ele>1861</ele>
        <time>2022-02-09T09:16:59Z</time>
      </trkpt>
      <trkpt lat="42.85638" lon="0.2478">
        <ele>1861</ele>
        <time>2022-02-09T09:17:00Z</time>
      </trkpt>
      <trkpt lat="42.85638" lon="0.24779">
        <ele>1861.1</ele>
        <time>2022-02-09T09:17:01Z</time>
      </trkpt>
      <trkpt lat="42.85638" lon="0.24778">
        <ele>1861.1</ele>
        <time>2022-02-09T09:17:02Z</time>
      </trkpt>
      <trkpt lat="42.85638" lon="0.24776">
        <ele>1861.1</ele>
        <time>2022-02-09T09:17:03Z</time>
      </trkpt>
      <trkpt lat="42.85637" lon="0.24775">
        <ele>1861.2</ele>
        <time>2022-02-09T09:17:04Z</time>
      </trkpt>
      <trkpt lat="42.85637" lon="0.24773">
        <ele>1861.2</ele>
        <time>2022-02-09T09:17:05Z</time>
      </trkpt>
      <trkpt lat="42.85637" lon="0.24772">
        <ele>1861.2</ele>
        <time>2022-02-09T09:17:06Z</time>
      </trkpt>
      <trkpt lat="42.85637" lon="0.24771">
        <ele>1861.3</ele>
        <time>2022-02-09T09:17:07Z</time>
      </trkpt>
      <trkpt lat="42.85636" lon="0.24769">
        <ele>1861.3</ele>
        <time>2022-02-09T09:17:08Z</time>
      </trkpt>
      <trkpt lat="42.85636" lon="0.24768">
        <ele>1861.4</ele>
        <time>2022-02-09T09:17:09Z</time>
      </trkpt>
      <trkpt lat="42.85635" lon="0.24767">
        <ele>1861.4</ele>
        <time>2022-02-09T09:17:10Z</time>
      </trkpt>
      <trkpt lat="42.85635" lon="0.24765">
        <ele>1861.4</ele>
        <time>2022-02-09T09:17:11Z</time>
      </trkpt>
      <trkpt lat="42.85634" lon="0.24764">
        <ele>1861.5</ele>
        <time>2022-02-09T09:17:12Z</time>
      </trkpt>
      <trkpt lat="42.85634" lon="0.24763">
        <ele>1861.5</ele>
        <time>2022-02-09T09:17:13Z</time>
      </trkpt>
      <trkpt lat="42.85633" lon="0.24762">
        <ele>1861.5</ele>
        <time>2022-02-09T09:17:14Z</time>
      </trkpt>
      <trkpt lat="42.85633" lon="0.24761">
        <ele>1861.6</ele>
        <time>2022-02-09T09:17:15Z</time>
      </trkpt>
      <trkpt lat="42.85633" lon="0.2476">
        <ele>1861.6</ele>
        <time>2022-02-09T09:17:16Z</time>
      </trkpt>
      <trkpt lat="42.85633" lon="0.24758">
        <ele>1861.6</ele>
        <time>2022-02-09T09:17:17Z</time>
      </trkpt>
      <trkpt lat="42.85632" lon="0.24757">
        <ele>1861.6</ele>
        <time>2022-02-09T09:17:18Z</time>
      </trkpt>
      <trkpt lat="42.85632" lon="0.24756">
        <ele>1861.7</ele>
        <time>2022-02-09T09:17:19Z</time>
      </trkpt>
      <trkpt lat="42.85632" lon="0.24755">
        <ele>1861.7</ele>
        <time>2022-02-09T09:17:20Z</time>
      </trkpt>
      <trkpt lat="42.85632" lon="0.24753">
        <ele>1861.7</ele>
        <time>2022-02-09T09:17:21Z</time>
      </trkpt>
      <trkpt lat="42.85632" lon="0.24752">
        <ele>1861.7</ele>
        <time>2022-02-09T09:17:22Z</time>
      </trkpt>
      <trkpt lat="42.85631" lon="0.24751">
        <ele>1861.8</ele>
        <time>2022-02-09T09:17:23Z</time>
      </trkpt>
      <trkpt lat="42.85631" lon="0.24749">
        <ele>1861.8</ele>
        <time>2022-02-09T09:17:24Z</time>
      </trkpt>
      <trkpt lat="42.85631" lon="0.24748">
        <ele>1861.8</ele>
        <time>2022-02-09T09:17:25Z</time>
      </trkpt>
      <trkpt lat="42.85631" lon="0.24747">
        <ele>1861.8</ele>
        <time>2022-02-09T09:17:26Z</time>
      </trkpt>
      <trkpt lat="42.85631" lon="0.24745">
        <ele>1861.9</ele>
        <time>2022-02-09T09:17:27Z</time>
      </trkpt>
      <trkpt lat="42.8563" lon="0.24744">
        <ele>1861.9</ele>
        <time>2022-02-09T09:17:28Z</time>
      </trkpt>
      <trkpt lat="42.8563" lon="0.24743">
        <ele>1861.9</ele>
        <time>2022-02-09T09:17:29Z</time>
      </trkpt>
      <trkpt lat="42.8563" lon="0.24741">
        <ele>1861.9</ele>
        <time>2022-02-09T09:17:30Z</time>
      </trkpt>
      <trkpt lat="42.8563" lon="0.2474">
        <ele>1861.9</ele>
        <time>2022-02-09T09:17:31Z</time>
      </trkpt>
      <trkpt lat="42.8563" lon="0.24739">
        <ele>1862</ele>
        <time>2022-02-09T09:17:32Z</time>
      </trkpt>
      <trkpt lat="42.85629" lon="0.24738">
        <ele>1862</ele>
        <time>2022-02-09T09:17:33Z</time>
      </trkpt>
      <trkpt lat="42.85629" lon="0.24736">
        <ele>1862</ele>
        <time>2022-02-09T09:17:34Z</time>
      </trkpt>
      <trkpt lat="42.85628" lon="0.24735">
        <ele>1862</ele>
        <time>2022-02-09T09:17:35Z</time>
      </trkpt>
      <trkpt lat="42.85628" lon="0.24734">
        <ele>1862.1</ele>
        <time>2022-02-09T09:17:36Z</time>
      </trkpt>
      <trkpt lat="42.85628" lon="0.24733">
        <ele>1862.1</ele>
        <time>2022-02-09T09:17:37Z</time>
      </trkpt>
      <trkpt lat="42.85628" lon="0.24732">
        <ele>1862.1</ele>
        <time>2022-02-09T09:17:38Z</time>
      </trkpt>
      <trkpt lat="42.85627" lon="0.24731">
        <ele>1862.1</ele>
        <time>2022-02-09T09:17:39Z</time>
      </trkpt>
      <trkpt lat="42.85627" lon="0.2473">
        <ele>1862.2</ele>
        <time>2022-02-09T09:17:40Z</time>
      </trkpt>
      <trkpt lat="42.85627" lon="0.24728">
        <ele>1862.2</ele>
        <time>2022-02-09T09:17:41Z</time>
      </trkpt>
      <trkpt lat="42.85626" lon="0.24727">
        <ele>1862.2</ele>
        <time>2022-02-09T09:17:42Z</time>
      </trkpt>
      <trkpt lat="42.85626" lon="0.24726">
        <ele>1862.2</ele>
        <time>2022-02-09T09:17:43Z</time>
      </trkpt>
      <trkpt lat="42.85626" lon="0.24725">
        <ele>1862.3</ele>
        <time>2022-02-09T09:17:44Z</time>
      </trkpt>
      <trkpt lat="42.85625" lon="0.24723">
        <ele>1862.3</ele>
        <time>2022-02-09T09:17:45Z</time>
      </trkpt>
      <trkpt lat="42.85625" lon="0.24722">
        <ele>1862.3</ele>
        <time>2022-02-09T09:17:46Z</time>
      </trkpt>
      <trkpt lat="42.85624" lon="0.24721">
        <ele>1862.3</ele>
        <time>2022-02-09T09:17:47Z</time>
      </trkpt>
      <trkpt lat="42.85623" lon="0.2472">
        <ele>1862.4</ele>
        <time>2022-02-09T09:17:48Z</time>
      </trkpt>
      <trkpt lat="42.85623" lon="0.24719">
        <ele>1862.4</ele>
        <time>2022-02-09T09:17:49Z</time>
      </trkpt>
      <trkpt lat="42.85622" lon="0.24718">
        <ele>1862.4</ele>
        <time>2022-02-09T09:17:50Z</time>
      </trkpt>
      <trkpt lat="42.85621" lon="0.24717">
        <ele>1862.5</ele>
        <time>2022-02-09T09:17:51Z</time>
      </trkpt>
      <trkpt lat="42.85621" lon="0.24716">
        <ele>1862.5</ele>
        <time>2022-02-09T09:17:52Z</time>
      </trkpt>
      <trkpt lat="42.8562" lon="0.24716">
        <ele>1862.5</ele>
        <time>2022-02-09T09:17:53Z</time>
      </trkpt>
      <trkpt lat="42.8562" lon="0.24716">
        <ele>1862.5</ele>
        <time>2022-02-09T09:17:54Z</time>
      </trkpt>
      <trkpt lat="42.8562" lon="0.24716">
        <ele>1862.5</ele>
        <time>2022-02-09T09:17:55Z</time>
      </trkpt>
      <trkpt lat="42.8562" lon="0.24716">
        <ele>1862.5</ele>
        <time>2022-02-09T09:17:56Z</time>
      </trkpt>
      <trkpt lat="42.8562" lon="0.24716">
        <ele>1862.5</ele>
        <time>2022-02-09T09:17:57Z</time>
      </trkpt>
      <trkpt lat="42.8562" lon="0.24716">
        <ele>1862.5</ele>
        <time>2022-02-09T09:17:58Z</time>
      </trkpt>
      <trkpt lat="42.8562" lon="0.24716">
        <ele>1862.5</ele>
        <time>2022-02-09T09:17:59Z</time>
      </trkpt>
      <trkpt lat="42.8562" lon="0.24716">
        <ele>1862.5</ele>
        <time>2022-02-09T09:18:00Z</time>
      </trkpt>
      <trkpt lat="42.8562" lon="0.24716">
        <ele>1862.5</ele>
        <time>2022-02-09T09:18:01Z</time>
      </trkpt>
      <trkpt lat="42.8562" lon="0.24716">
        <ele>1862.5</ele>
        <time>2022-02-09T09:18:02Z</time>
      </trkpt>
      <trkpt lat="42.8562" lon="0.24715">
        <ele>1862.6</ele>
        <time>2022-02-09T09:18:03Z</time>
      </trkpt>
      <trkpt lat="42.85619" lon="0.24715">
        <ele>1863.5</ele>
        <time>2022-02-09T09:18:04Z</time>
      </trkpt>
      <trkpt lat="42.85619" lon="0.24715">
        <ele>1863.5</ele>
        <time>2022-02-09T09:18:05Z</time>
      </trkpt>
      <trkpt lat="42.85619" lon="0.24715">
        <ele>1863.5</ele>
        <time>2022-02-09T09:18:06Z</time>
      </trkpt>
      <trkpt lat="42.85619" lon="0.24715">
        <ele>1863.5</ele>
        <time>2022-02-09T09:18:07Z</time>
      </trkpt>
      <trkpt lat="42.85619" lon="0.24715">
        <ele>1863.5</ele>
        <time>2022-02-09T09:18:08Z</time>
      </trkpt>
      <trkpt lat="42.85619" lon="0.24715">
        <ele>1863.5</ele>
        <time>2022-02-09T09:18:09Z</time>
      </trkpt>
      <trkpt lat="42.85619" lon="0.24715">
        <ele>1863.5</ele>
        <time>2022-02-09T09:18:10Z</time>
      </trkpt>
      <trkpt lat="42.85619" lon="0.24715">
        <ele>1863.5</ele>
        <time>2022-02-09T09:18:11Z</time>
      </trkpt>
      <trkpt lat="42.85619" lon="0.24715">
        <ele>1863.5</ele>
        <time>2022-02-09T09:18:12Z</time>
      </trkpt>
      <trkpt lat="42.85619" lon="0.24715">
        <ele>1863.5</ele>
        <time>2022-02-09T09:18:13Z</time>
      </trkpt>
      <trkpt lat="42.85619" lon="0.24715">
        <ele>1863.5</ele>
        <time>2022-02-09T09:18:14Z</time>
      </trkpt>
      <trkpt lat="42.85619" lon="0.24715">
        <ele>1863.5</ele>
        <time>2022-02-09T09:18:15Z</time>
      </trkpt>
      <trkpt lat="42.85619" lon="0.24715">
        <ele>1863.5</ele>
        <time>2022-02-09T09:18:16Z</time>
      </trkpt>
      <trkpt lat="42.85619" lon="0.24715">
        <ele>1863.5</ele>
        <time>2022-02-09T09:18:17Z</time>
      </trkpt>
      <trkpt lat="42.85619" lon="0.24715">
        <ele>1863.5</ele>
        <time>2022-02-09T09:18:18Z</time>
      </trkpt>
      <trkpt lat="42.85619" lon="0.24715">
        <ele>1863.5</ele>
        <time>2022-02-09T09:18:19Z</time>
      </trkpt>
      <trkpt lat="42.85619" lon="0.24715">
        <ele>1863.5</ele>
        <time>2022-02-09T09:18:20Z</time>
      </trkpt>
      <trkpt lat="42.85619" lon="0.24715">
        <ele>1863.5</ele>
        <time>2022-02-09T09:18:21Z</time>
      </trkpt>
      <trkpt lat="42.85619" lon="0.24714">
        <ele>1863.6</ele>
        <time>2022-02-09T09:18:22Z</time>
      </trkpt>
      <trkpt lat="42.85618" lon="0.24713">
        <ele>1863.6</ele>
        <time>2022-02-09T09:18:23Z</time>
      </trkpt>
      <trkpt lat="42.85618" lon="0.24712">
        <ele>1863.7</ele>
        <time>2022-02-09T09:18:24Z</time>
      </trkpt>
      <trkpt lat="42.85618" lon="0.24711">
        <ele>1863.7</ele>
        <time>2022-02-09T09:18:25Z</time>
      </trkpt>
      <trkpt lat="42.85617" lon="0.24709">
        <ele>1863.8</ele>
        <time>2022-02-09T09:18:26Z</time>
      </trkpt>
      <trkpt lat="42.85616" lon="0.24708">
        <ele>1863.8</ele>
        <time>2022-02-09T09:18:27Z</time>
      </trkpt>
      <trkpt lat="42.85615" lon="0.24707">
        <ele>1863.9</ele>
        <time>2022-02-09T09:18:28Z</time>
      </trkpt>
      <trkpt lat="42.85615" lon="0.24706">
        <ele>1864</ele>
        <time>2022-02-09T09:18:29Z</time>
      </trkpt>
      <trkpt lat="42.85614" lon="0.24706">
        <ele>1864</ele>
        <time>2022-02-09T09:18:30Z</time>
      </trkpt>
      <trkpt lat="42.85614" lon="0.24705">
        <ele>1864</ele>
        <time>2022-02-09T09:18:31Z</time>
      </trkpt>
      <trkpt lat="42.85613" lon="0.24704">
        <ele>1864.1</ele>
        <time>2022-02-09T09:18:32Z</time>
      </trkpt>
      <trkpt lat="42.85613" lon="0.24702">
        <ele>1864.2</ele>
        <time>2022-02-09T09:18:33Z</time>
      </trkpt>
      <trkpt lat="42.85612" lon="0.24701">
        <ele>1864.2</ele>
        <time>2022-02-09T09:18:34Z</time>
      </trkpt>
      <trkpt lat="42.85611" lon="0.247">
        <ele>1864.3</ele>
        <time>2022-02-09T09:18:35Z</time>
      </trkpt>
      <trkpt lat="42.8561" lon="0.24699">
        <ele>1864.3</ele>
        <time>2022-02-09T09:18:36Z</time>
      </trkpt>
      <trkpt lat="42.8561" lon="0.24698">
        <ele>1864.4</ele>
        <time>2022-02-09T09:18:37Z</time>
      </trkpt>
      <trkpt lat="42.85609" lon="0.24697">
        <ele>1864.5</ele>
        <time>2022-02-09T09:18:38Z</time>
      </trkpt>
      <trkpt lat="42.85608" lon="0.24697">
        <ele>1864.5</ele>
        <time>2022-02-09T09:18:39Z</time>
      </trkpt>
      <trkpt lat="42.85608" lon="0.24696">
        <ele>1864.6</ele>
        <time>2022-02-09T09:18:40Z</time>
      </trkpt>
      <trkpt lat="42.85607" lon="0.24695">
        <ele>1864.6</ele>
        <time>2022-02-09T09:18:41Z</time>
      </trkpt>
      <trkpt lat="42.85606" lon="0.24694">
        <ele>1864.7</ele>
        <time>2022-02-09T09:18:42Z</time>
      </trkpt>
      <trkpt lat="42.85605" lon="0.24694">
        <ele>1864.8</ele>
        <time>2022-02-09T09:18:43Z</time>
      </trkpt>
      <trkpt lat="42.85605" lon="0.24693">
        <ele>1864.8</ele>
        <time>2022-02-09T09:18:44Z</time>
      </trkpt>
      <trkpt lat="42.85604" lon="0.24692">
        <ele>1864.9</ele>
        <time>2022-02-09T09:18:45Z</time>
      </trkpt>
      <trkpt lat="42.85603" lon="0.24691">
        <ele>1864.9</ele>
        <time>2022-02-09T09:18:46Z</time>
      </trkpt>
      <trkpt lat="42.85603" lon="0.24691">
        <ele>1865</ele>
        <time>2022-02-09T09:18:47Z</time>
      </trkpt>
      <trkpt lat="42.85602" lon="0.2469">
        <ele>1865.1</ele>
        <time>2022-02-09T09:18:48Z</time>
      </trkpt>
      <trkpt lat="42.85601" lon="0.24689">
        <ele>1865.1</ele>
        <time>2022-02-09T09:18:49Z</time>
      </trkpt>
      <trkpt lat="42.856" lon="0.24688">
        <ele>1865.2</ele>
        <time>2022-02-09T09:18:50Z</time>
      </trkpt>
      <trkpt lat="42.856" lon="0.24687">
        <ele>1865.3</ele>
        <time>2022-02-09T09:18:51Z</time>
      </trkpt>
      <trkpt lat="42.85599" lon="0.24687">
        <ele>1865.3</ele>
        <time>2022-02-09T09:18:52Z</time>
      </trkpt>
      <trkpt lat="42.85598" lon="0.24686">
        <ele>1865.4</ele>
        <time>2022-02-09T09:18:53Z</time>
      </trkpt>
      <trkpt lat="42.85598" lon="0.24685">
        <ele>1865.4</ele>
        <time>2022-02-09T09:18:54Z</time>
      </trkpt>
      <trkpt lat="42.85598" lon="0.24685">
        <ele>1865.5</ele>
        <time>2022-02-09T09:18:55Z</time>
      </trkpt>
      <trkpt lat="42.85597" lon="0.24684">
        <ele>1865.5</ele>
        <time>2022-02-09T09:18:56Z</time>
      </trkpt>
      <trkpt lat="42.85596" lon="0.24683">
        <ele>1865.6</ele>
        <time>2022-02-09T09:18:57Z</time>
      </trkpt>
      <trkpt lat="42.85596" lon="0.24683">
        <ele>1865.7</ele>
        <time>2022-02-09T09:18:58Z</time>
      </trkpt>
      <trkpt lat="42.85595" lon="0.24683">
        <ele>1865.7</ele>
        <time>2022-02-09T09:18:59Z</time>
      </trkpt>
      <trkpt lat="42.85594" lon="0.24682">
        <ele>1865.8</ele>
        <time>2022-02-09T09:19:00Z</time>
      </trkpt>
      <trkpt lat="42.85594" lon="0.24682">
        <ele>1865.8</ele>
        <time>2022-02-09T09:19:01Z</time>
      </trkpt>
      <trkpt lat="42.85593" lon="0.24681">
        <ele>1865.9</ele>
        <time>2022-02-09T09:19:02Z</time>
      </trkpt>
      <trkpt lat="42.85593" lon="0.24681">
        <ele>1866</ele>
        <time>2022-02-09T09:19:03Z</time>
      </trkpt>
      <trkpt lat="42.85593" lon="0.2468">
        <ele>1866</ele>
        <time>2022-02-09T09:19:04Z</time>
      </trkpt>
      <trkpt lat="42.85592" lon="0.2468">
        <ele>1866</ele>
        <time>2022-02-09T09:19:05Z</time>
      </trkpt>
      <trkpt lat="42.85592" lon="0.2468">
        <ele>1866</ele>
        <time>2022-02-09T09:19:06Z</time>
      </trkpt>
      <trkpt lat="42.85592" lon="0.2468">
        <ele>1866</ele>
        <time>2022-02-09T09:19:07Z</time>
      </trkpt>
      <trkpt lat="42.85592" lon="0.2468">
        <ele>1866</ele>
        <time>2022-02-09T09:19:08Z</time>
      </trkpt>
      <trkpt lat="42.85592" lon="0.2468">
        <ele>1866</ele>
        <time>2022-02-09T09:19:09Z</time>
      </trkpt>
      <trkpt lat="42.85592" lon="0.2468">
        <ele>1866</ele>
        <time>2022-02-09T09:19:10Z</time>
      </trkpt>
      <trkpt lat="42.85592" lon="0.2468">
        <ele>1866</ele>
        <time>2022-02-09T09:19:11Z</time>
      </trkpt>
      <trkpt lat="42.85592" lon="0.2468">
        <ele>1866</ele>
        <time>2022-02-09T09:19:12Z</time>
      </trkpt>
      <trkpt lat="42.85592" lon="0.2468">
        <ele>1866</ele>
        <time>2022-02-09T09:19:13Z</time>
      </trkpt>
      <trkpt lat="42.85592" lon="0.2468">
        <ele>1866</ele>
        <time>2022-02-09T09:19:14Z</time>
      </trkpt>
      <trkpt lat="42.85592" lon="0.2468">
        <ele>1866</ele>
        <time>2022-02-09T09:19:15Z</time>
      </trkpt>
      <trkpt lat="42.85592" lon="0.2468">
        <ele>1866</ele>
        <time>2022-02-09T09:19:16Z</time>
      </trkpt>
      <trkpt lat="42.85592" lon="0.2468">
        <ele>1866</ele>
        <time>2022-02-09T09:19:17Z</time>
      </trkpt>
      <trkpt lat="42.85592" lon="0.2468">
        <ele>1866</ele>
        <time>2022-02-09T09:19:18Z</time>
      </trkpt>
      <trkpt lat="42.85592" lon="0.2468">
        <ele>1866</ele>
        <time>2022-02-09T09:19:19Z</time>
      </trkpt>
      <trkpt lat="42.85592" lon="0.2468">
        <ele>1866</ele>
        <time>2022-02-09T09:19:20Z</time>
      </trkpt>
      <trkpt lat="42.85592" lon="0.2468">
        <ele>1866</ele>
        <time>2022-02-09T09:19:21Z</time>
      </trkpt>
      <trkpt lat="42.85592" lon="0.2468">
        <ele>1866</ele>
        <time>2022-02-09T09:19:22Z</time>
      </trkpt>
      <trkpt lat="42.85592" lon="0.2468">
        <ele>1866</ele>
        <time>2022-02-09T09:19:23Z</time>
      </trkpt>
      <trkpt lat="42.85592" lon="0.2468">
        <ele>1866</ele>
        <time>2022-02-09T09:19:24Z</time>
      </trkpt>
      <trkpt lat="42.85592" lon="0.2468">
        <ele>1866</ele>
        <time>2022-02-09T09:19:25Z</time>
      </trkpt>
      <trkpt lat="42.85592" lon="0.2468">
        <ele>1866</ele>
        <time>2022-02-09T09:19:26Z</time>
      </trkpt>
      <trkpt lat="42.85592" lon="0.2468">
        <ele>1866</ele>
        <time>2022-02-09T09:19:27Z</time>
      </trkpt>
      <trkpt lat="42.85592" lon="0.2468">
        <ele>1866</ele>
        <time>2022-02-09T09:19:28Z</time>
      </trkpt>
      <trkpt lat="42.85592" lon="0.2468">
        <ele>1866</ele>
        <time>2022-02-09T09:19:29Z</time>
      </trkpt>
      <trkpt lat="42.85592" lon="0.2468">
        <ele>1866</ele>
        <time>2022-02-09T09:19:30Z</time>
      </trkpt>
      <trkpt lat="42.85592" lon="0.2468">
        <ele>1866</ele>
        <time>2022-02-09T09:19:31Z</time>
      </trkpt>
      <trkpt lat="42.85592" lon="0.2468">
        <ele>1866</ele>
        <time>2022-02-09T09:19:32Z</time>
      </trkpt>
      <trkpt lat="42.85592" lon="0.2468">
        <ele>1866</ele>
        <time>2022-02-09T09:19:33Z</time>
      </trkpt>
      <trkpt lat="42.85592" lon="0.2468">
        <ele>1866</ele>
        <time>2022-02-09T09:19:34Z</time>
      </trkpt>
      <trkpt lat="42.85592" lon="0.2468">
        <ele>1866</ele>
        <time>2022-02-09T09:19:35Z</time>
      </trkpt>
      <trkpt lat="42.85592" lon="0.2468">
        <ele>1866</ele>
        <time>2022-02-09T09:19:36Z</time>
      </trkpt>
      <trkpt lat="42.85592" lon="0.2468">
        <ele>1866</ele>
        <time>2022-02-09T09:19:37Z</time>
      </trkpt>
      <trkpt lat="42.85592" lon="0.2468">
        <ele>1866</ele>
        <time>2022-02-09T09:19:38Z</time>
      </trkpt>
      <trkpt lat="42.85592" lon="0.2468">
        <ele>1866</ele>
        <time>2022-02-09T09:19:39Z</time>
      </trkpt>
      <trkpt lat="42.85592" lon="0.2468">
        <ele>1866</ele>
        <time>2022-02-09T09:19:40Z</time>
      </trkpt>
      <trkpt lat="42.85592" lon="0.2468">
        <ele>1866</ele>
        <time>2022-02-09T09:19:41Z</time>
      </trkpt>
      <trkpt lat="42.85592" lon="0.2468">
        <ele>1866</ele>
        <time>2022-02-09T09:19:42Z</time>
      </trkpt>
      <trkpt lat="42.85592" lon="0.2468">
        <ele>1866</ele>
        <time>2022-02-09T09:19:43Z</time>
      </trkpt>
      <trkpt lat="42.85592" lon="0.2468">
        <ele>1866</ele>
        <time>2022-02-09T09:19:44Z</time>
      </trkpt>
      <trkpt lat="42.85592" lon="0.2468">
        <ele>1866</ele>
        <time>2022-02-09T09:19:45Z</time>
      </trkpt>
      <trkpt lat="42.85592" lon="0.2468">
        <ele>1866</ele>
        <time>2022-02-09T09:19:46Z</time>
      </trkpt>
      <trkpt lat="42.85592" lon="0.2468">
        <ele>1866</ele>
        <time>2022-02-09T09:19:47Z</time>
      </trkpt>
      <trkpt lat="42.85592" lon="0.2468">
        <ele>1866</ele>
        <time>2022-02-09T09:19:48Z</time>
      </trkpt>
      <trkpt lat="42.85592" lon="0.2468">
        <ele>1866</ele>
        <time>2022-02-09T09:19:49Z</time>
      </trkpt>
      <trkpt lat="42.85592" lon="0.2468">
        <ele>1866</ele>
        <time>2022-02-09T09:19:50Z</time>
      </trkpt>
      <trkpt lat="42.85592" lon="0.2468">
        <ele>1866</ele>
        <time>2022-02-09T09:19:51Z</time>
      </trkpt>
      <trkpt lat="42.85592" lon="0.2468">
        <ele>1866</ele>
        <time>2022-02-09T09:19:52Z</time>
      </trkpt>
      <trkpt lat="42.85592" lon="0.2468">
        <ele>1866</ele>
        <time>2022-02-09T09:19:53Z</time>
      </trkpt>
      <trkpt lat="42.85592" lon="0.2468">
        <ele>1866</ele>
        <time>2022-02-09T09:19:54Z</time>
      </trkpt>
      <trkpt lat="42.85592" lon="0.2468">
        <ele>1866</ele>
        <time>2022-02-09T09:19:55Z</time>
      </trkpt>
      <trkpt lat="42.85592" lon="0.2468">
        <ele>1866</ele>
        <time>2022-02-09T09:19:56Z</time>
      </trkpt>
      <trkpt lat="42.85592" lon="0.2468">
        <ele>1866</ele>
        <time>2022-02-09T09:19:57Z</time>
      </trkpt>
      <trkpt lat="42.85592" lon="0.2468">
        <ele>1866</ele>
        <time>2022-02-09T09:19:58Z</time>
      </trkpt>
      <trkpt lat="42.85592" lon="0.2468">
        <ele>1866</ele>
        <time>2022-02-09T09:19:59Z</time>
      </trkpt>
      <trkpt lat="42.85592" lon="0.2468">
        <ele>1866</ele>
        <time>2022-02-09T09:20:00Z</time>
      </trkpt>
      <trkpt lat="42.85592" lon="0.2468">
        <ele>1866</ele>
        <time>2022-02-09T09:20:01Z</time>
      </trkpt>
      <trkpt lat="42.85592" lon="0.2468">
        <ele>1866</ele>
        <time>2022-02-09T09:20:02Z</time>
      </trkpt>
      <trkpt lat="42.85592" lon="0.2468">
        <ele>1866</ele>
        <time>2022-02-09T09:20:03Z</time>
      </trkpt>
      <trkpt lat="42.85592" lon="0.2468">
        <ele>1866</ele>
        <time>2022-02-09T09:20:04Z</time>
      </trkpt>
      <trkpt lat="42.85592" lon="0.2468">
        <ele>1866</ele>
        <time>2022-02-09T09:20:05Z</time>
      </trkpt>
      <trkpt lat="42.85592" lon="0.2468">
        <ele>1866</ele>
        <time>2022-02-09T09:20:06Z</time>
      </trkpt>
      <trkpt lat="42.85592" lon="0.2468">
        <ele>1866</ele>
        <time>2022-02-09T09:20:07Z</time>
      </trkpt>
      <trkpt lat="42.85592" lon="0.2468">
        <ele>1866</ele>
        <time>2022-02-09T09:20:08Z</time>
      </trkpt>
      <trkpt lat="42.85592" lon="0.2468">
        <ele>1866</ele>
        <time>2022-02-09T09:20:09Z</time>
      </trkpt>
      <trkpt lat="42.85592" lon="0.2468">
        <ele>1866</ele>
        <time>2022-02-09T09:20:10Z</time>
      </trkpt>
      <trkpt lat="42.85592" lon="0.2468">
        <ele>1866</ele>
        <time>2022-02-09T09:20:11Z</time>
      </trkpt>
      <trkpt lat="42.85592" lon="0.2468">
        <ele>1866</ele>
        <time>2022-02-09T09:20:12Z</time>
      </trkpt>
      <trkpt lat="42.85592" lon="0.2468">
        <ele>1866</ele>
        <time>2022-02-09T09:20:13Z</time>
      </trkpt>
      <trkpt lat="42.85592" lon="0.2468">
        <ele>1866</ele>
        <time>2022-02-09T09:20:14Z</time>
      </trkpt>
      <trkpt lat="42.85592" lon="0.2468">
        <ele>1866</ele>
        <time>2022-02-09T09:20:15Z</time>
      </trkpt>
      <trkpt lat="42.85592" lon="0.2468">
        <ele>1866</ele>
        <time>2022-02-09T09:20:16Z</time>
      </trkpt>
      <trkpt lat="42.85592" lon="0.2468">
        <ele>1866</ele>
        <time>2022-02-09T09:20:17Z</time>
      </trkpt>
      <trkpt lat="42.85592" lon="0.2468">
        <ele>1866</ele>
        <time>2022-02-09T09:20:18Z</time>
      </trkpt>
      <trkpt lat="42.85592" lon="0.2468">
        <ele>1866</ele>
        <time>2022-02-09T09:20:19Z</time>
      </trkpt>
      <trkpt lat="42.85592" lon="0.2468">
        <ele>1866</ele>
        <time>2022-02-09T09:20:20Z</time>
      </trkpt>
      <trkpt lat="42.85592" lon="0.2468">
        <ele>1866</ele>
        <time>2022-02-09T09:20:21Z</time>
      </trkpt>
      <trkpt lat="42.85592" lon="0.2468">
        <ele>1866</ele>
        <time>2022-02-09T09:20:22Z</time>
      </trkpt>
      <trkpt lat="42.85592" lon="0.2468">
        <ele>1866</ele>
        <time>2022-02-09T09:20:23Z</time>
      </trkpt>
      <trkpt lat="42.85592" lon="0.2468">
        <ele>1866</ele>
        <time>2022-02-09T09:20:24Z</time>
      </trkpt>
      <trkpt lat="42.85592" lon="0.2468">
        <ele>1866</ele>
        <time>2022-02-09T09:20:25Z</time>
      </trkpt>
      <trkpt lat="42.85592" lon="0.2468">
        <ele>1866</ele>
        <time>2022-02-09T09:20:26Z</time>
      </trkpt>
      <trkpt lat="42.85592" lon="0.2468">
        <ele>1866</ele>
        <time>2022-02-09T09:20:27Z</time>
      </trkpt>
      <trkpt lat="42.85592" lon="0.2468">
        <ele>1866</ele>
        <time>2022-02-09T09:20:28Z</time>
      </trkpt>
      <trkpt lat="42.85592" lon="0.2468">
        <ele>1866</ele>
        <time>2022-02-09T09:20:29Z</time>
      </trkpt>
      <trkpt lat="42.85592" lon="0.2468">
        <ele>1866</ele>
        <time>2022-02-09T09:20:30Z</time>
      </trkpt>
      <trkpt lat="42.85592" lon="0.2468">
        <ele>1866</ele>
        <time>2022-02-09T09:20:31Z</time>
      </trkpt>
      <trkpt lat="42.85592" lon="0.2468">
        <ele>1866</ele>
        <time>2022-02-09T09:20:32Z</time>
      </trkpt>
      <trkpt lat="42.85592" lon="0.2468">
        <ele>1866</ele>
        <time>2022-02-09T09:20:33Z</time>
      </trkpt>
      <trkpt lat="42.85592" lon="0.2468">
        <ele>1866</ele>
        <time>2022-02-09T09:20:34Z</time>
      </trkpt>
      <trkpt lat="42.85592" lon="0.2468">
        <ele>1866</ele>
        <time>2022-02-09T09:20:35Z</time>
      </trkpt>
      <trkpt lat="42.85592" lon="0.2468">
        <ele>1866</ele>
        <time>2022-02-09T09:20:36Z</time>
      </trkpt>
      <trkpt lat="42.85592" lon="0.2468">
        <ele>1866</ele>
        <time>2022-02-09T09:20:37Z</time>
      </trkpt>
      <trkpt lat="42.85592" lon="0.2468">
        <ele>1866</ele>
        <time>2022-02-09T09:20:38Z</time>
      </trkpt>
      <trkpt lat="42.85592" lon="0.2468">
        <ele>1866</ele>
        <time>2022-02-09T09:20:39Z</time>
      </trkpt>
      <trkpt lat="42.85592" lon="0.2468">
        <ele>1866</ele>
        <time>2022-02-09T09:20:40Z</time>
      </trkpt>
      <trkpt lat="42.85592" lon="0.2468">
        <ele>1866</ele>
        <time>2022-02-09T09:20:41Z</time>
      </trkpt>
      <trkpt lat="42.85592" lon="0.2468">
        <ele>1866</ele>
        <time>2022-02-09T09:20:42Z</time>
      </trkpt>
      <trkpt lat="42.85592" lon="0.2468">
        <ele>1866</ele>
        <time>2022-02-09T09:20:43Z</time>
      </trkpt>
      <trkpt lat="42.85592" lon="0.2468">
        <ele>1866</ele>
        <time>2022-02-09T09:20:44Z</time>
      </trkpt>
      <trkpt lat="42.85592" lon="0.2468">
        <ele>1866</ele>
        <time>2022-02-09T09:20:45Z</time>
      </trkpt>
      <trkpt lat="42.85592" lon="0.2468">
        <ele>1866</ele>
        <time>2022-02-09T09:20:46Z</time>
      </trkpt>
      <trkpt lat="42.85592" lon="0.2468">
        <ele>1866</ele>
        <time>2022-02-09T09:20:47Z</time>
      </trkpt>
      <trkpt lat="42.85592" lon="0.2468">
        <ele>1866</ele>
        <time>2022-02-09T09:20:48Z</time>
      </trkpt>
      <trkpt lat="42.85592" lon="0.2468">
        <ele>1866</ele>
        <time>2022-02-09T09:20:49Z</time>
      </trkpt>
      <trkpt lat="42.85592" lon="0.2468">
        <ele>1866</ele>
        <time>2022-02-09T09:20:50Z</time>
      </trkpt>
      <trkpt lat="42.85592" lon="0.2468">
        <ele>1866</ele>
        <time>2022-02-09T09:20:51Z</time>
      </trkpt>
      <trkpt lat="42.85592" lon="0.2468">
        <ele>1866</ele>
        <time>2022-02-09T09:20:52Z</time>
      </trkpt>
      <trkpt lat="42.85592" lon="0.2468">
        <ele>1866</ele>
        <time>2022-02-09T09:20:53Z</time>
      </trkpt>
      <trkpt lat="42.85592" lon="0.2468">
        <ele>1866</ele>
        <time>2022-02-09T09:20:54Z</time>
      </trkpt>
      <trkpt lat="42.85592" lon="0.2468">
        <ele>1866</ele>
        <time>2022-02-09T09:20:55Z</time>
      </trkpt>
      <trkpt lat="42.85592" lon="0.2468">
        <ele>1866</ele>
        <time>2022-02-09T09:20:56Z</time>
      </trkpt>
      <trkpt lat="42.85592" lon="0.2468">
        <ele>1866</ele>
        <time>2022-02-09T09:20:57Z</time>
      </trkpt>
      <trkpt lat="42.85592" lon="0.2468">
        <ele>1866</ele>
        <time>2022-02-09T09:20:58Z</time>
      </trkpt>
      <trkpt lat="42.85592" lon="0.2468">
        <ele>1866</ele>
        <time>2022-02-09T09:20:59Z</time>
      </trkpt>
      <trkpt lat="42.85592" lon="0.2468">
        <ele>1866</ele>
        <time>2022-02-09T09:21:00Z</time>
      </trkpt>
      <trkpt lat="42.85592" lon="0.2468">
        <ele>1866</ele>
        <time>2022-02-09T09:21:01Z</time>
      </trkpt>
      <trkpt lat="42.85592" lon="0.2468">
        <ele>1866</ele>
        <time>2022-02-09T09:21:02Z</time>
      </trkpt>
      <trkpt lat="42.85592" lon="0.2468">
        <ele>1866</ele>
        <time>2022-02-09T09:21:03Z</time>
      </trkpt>
      <trkpt lat="42.85592" lon="0.2468">
        <ele>1866</ele>
        <time>2022-02-09T09:21:04Z</time>
      </trkpt>
      <trkpt lat="42.85592" lon="0.2468">
        <ele>1866</ele>
        <time>2022-02-09T09:21:05Z</time>
      </trkpt>
      <trkpt lat="42.85592" lon="0.2468">
        <ele>1866</ele>
        <time>2022-02-09T09:21:06Z</time>
      </trkpt>
      <trkpt lat="42.85592" lon="0.2468">
        <ele>1866</ele>
        <time>2022-02-09T09:21:07Z</time>
      </trkpt>
      <trkpt lat="42.85592" lon="0.2468">
        <ele>1866</ele>
        <time>2022-02-09T09:21:08Z</time>
      </trkpt>
      <trkpt lat="42.85592" lon="0.2468">
        <ele>1866</ele>
        <time>2022-02-09T09:21:09Z</time>
      </trkpt>
      <trkpt lat="42.85592" lon="0.2468">
        <ele>1866</ele>
        <time>2022-02-09T09:21:10Z</time>
      </trkpt>
      <trkpt lat="42.85592" lon="0.2468">
        <ele>1866</ele>
        <time>2022-02-09T09:21:11Z</time>
      </trkpt>
      <trkpt lat="42.85592" lon="0.2468">
        <ele>1866</ele>
        <time>2022-02-09T09:21:12Z</time>
      </trkpt>
      <trkpt lat="42.85592" lon="0.2468">
        <ele>1866</ele>
        <time>2022-02-09T09:21:13Z</time>
      </trkpt>
      <trkpt lat="42.85592" lon="0.2468">
        <ele>1866</ele>
        <time>2022-02-09T09:21:14Z</time>
      </trkpt>
      <trkpt lat="42.85592" lon="0.2468">
        <ele>1866</ele>
        <time>2022-02-09T09:21:15Z</time>
      </trkpt>
      <trkpt lat="42.85592" lon="0.2468">
        <ele>1866</ele>
        <time>2022-02-09T09:21:16Z</time>
      </trkpt>
      <trkpt lat="42.85592" lon="0.2468">
        <ele>1866</ele>
        <time>2022-02-09T09:21:17Z</time>
      </trkpt>
      <trkpt lat="42.85592" lon="0.2468">
        <ele>1866</ele>
        <time>2022-02-09T09:21:18Z</time>
      </trkpt>
      <trkpt lat="42.85592" lon="0.2468">
        <ele>1866</ele>
        <time>2022-02-09T09:21:19Z</time>
      </trkpt>
      <trkpt lat="42.85592" lon="0.2468">
        <ele>1866</ele>
        <time>2022-02-09T09:21:20Z</time>
      </trkpt>
      <trkpt lat="42.85592" lon="0.2468">
        <ele>1866</ele>
        <time>2022-02-09T09:21:21Z</time>
      </trkpt>
      <trkpt lat="42.85592" lon="0.2468">
        <ele>1866</ele>
        <time>2022-02-09T09:21:22Z</time>
      </trkpt>
      <trkpt lat="42.85592" lon="0.2468">
        <ele>1866</ele>
        <time>2022-02-09T09:21:23Z</time>
      </trkpt>
      <trkpt lat="42.85592" lon="0.2468">
        <ele>1866</ele>
        <time>2022-02-09T09:21:24Z</time>
      </trkpt>
      <trkpt lat="42.85592" lon="0.2468">
        <ele>1866</ele>
        <time>2022-02-09T09:21:25Z</time>
      </trkpt>
      <trkpt lat="42.85592" lon="0.2468">
        <ele>1866</ele>
        <time>2022-02-09T09:21:26Z</time>
      </trkpt>
      <trkpt lat="42.85592" lon="0.2468">
        <ele>1866</ele>
        <time>2022-02-09T09:21:27Z</time>
      </trkpt>
      <trkpt lat="42.85592" lon="0.2468">
        <ele>1866</ele>
        <time>2022-02-09T09:21:28Z</time>
      </trkpt>
      <trkpt lat="42.85592" lon="0.2468">
        <ele>1866</ele>
        <time>2022-02-09T09:21:29Z</time>
      </trkpt>
      <trkpt lat="42.85592" lon="0.2468">
        <ele>1866</ele>
        <time>2022-02-09T09:21:30Z</time>
      </trkpt>
      <trkpt lat="42.85592" lon="0.2468">
        <ele>1866</ele>
        <time>2022-02-09T09:21:31Z</time>
      </trkpt>
      <trkpt lat="42.85592" lon="0.2468">
        <ele>1866</ele>
        <time>2022-02-09T09:21:32Z</time>
      </trkpt>
      <trkpt lat="42.85592" lon="0.2468">
        <ele>1866</ele>
        <time>2022-02-09T09:21:33Z</time>
      </trkpt>
      <trkpt lat="42.85592" lon="0.2468">
        <ele>1866</ele>
        <time>2022-02-09T09:21:34Z</time>
      </trkpt>
      <trkpt lat="42.85592" lon="0.2468">
        <ele>1866</ele>
        <time>2022-02-09T09:21:35Z</time>
      </trkpt>
      <trkpt lat="42.85592" lon="0.2468">
        <ele>1866</ele>
        <time>2022-02-09T09:21:36Z</time>
      </trkpt>
      <trkpt lat="42.85592" lon="0.2468">
        <ele>1866</ele>
        <time>2022-02-09T09:21:37Z</time>
      </trkpt>
      <trkpt lat="42.85592" lon="0.2468">
        <ele>1866</ele>
        <time>2022-02-09T09:21:38Z</time>
      </trkpt>
      <trkpt lat="42.85592" lon="0.2468">
        <ele>1866</ele>
        <time>2022-02-09T09:21:39Z</time>
      </trkpt>
      <trkpt lat="42.85592" lon="0.2468">
        <ele>1866</ele>
        <time>2022-02-09T09:21:40Z</time>
      </trkpt>
      <trkpt lat="42.85592" lon="0.2468">
        <ele>1866</ele>
        <time>2022-02-09T09:21:41Z</time>
      </trkpt>
      <trkpt lat="42.85592" lon="0.2468">
        <ele>1866</ele>
        <time>2022-02-09T09:21:42Z</time>
      </trkpt>
      <trkpt lat="42.85592" lon="0.2468">
        <ele>1866</ele>
        <time>2022-02-09T09:21:43Z</time>
      </trkpt>
      <trkpt lat="42.85592" lon="0.2468">
        <ele>1866</ele>
        <time>2022-02-09T09:21:44Z</time>
      </trkpt>
      <trkpt lat="42.85592" lon="0.2468">
        <ele>1866</ele>
        <time>2022-02-09T09:21:45Z</time>
      </trkpt>
      <trkpt lat="42.85592" lon="0.2468">
        <ele>1866</ele>
        <time>2022-02-09T09:21:46Z</time>
      </trkpt>
      <trkpt lat="42.85592" lon="0.2468">
        <ele>1865.9</ele>
        <time>2022-02-09T09:21:47Z</time>
      </trkpt>
      <trkpt lat="42.85592" lon="0.2468">
        <ele>1865.9</ele>
        <time>2022-02-09T09:21:48Z</time>
      </trkpt>
      <trkpt lat="42.85592" lon="0.2468">
        <ele>1865.9</ele>
        <time>2022-02-09T09:21:49Z</time>
      </trkpt>
      <trkpt lat="42.85592" lon="0.2468">
        <ele>1865.9</ele>
        <time>2022-02-09T09:21:50Z</time>
      </trkpt>
      <trkpt lat="42.85592" lon="0.2468">
        <ele>1865.9</ele>
        <time>2022-02-09T09:21:51Z</time>
      </trkpt>
      <trkpt lat="42.85592" lon="0.2468">
        <ele>1865.9</ele>
        <time>2022-02-09T09:21:52Z</time>
      </trkpt>
      <trkpt lat="42.85592" lon="0.2468">
        <ele>1865.9</ele>
        <time>2022-02-09T09:21:53Z</time>
      </trkpt>
      <trkpt lat="42.85592" lon="0.2468">
        <ele>1865.9</ele>
        <time>2022-02-09T09:21:54Z</time>
      </trkpt>
      <trkpt lat="42.85592" lon="0.2468">
        <ele>1865.9</ele>
        <time>2022-02-09T09:21:55Z</time>
      </trkpt>
      <trkpt lat="42.85592" lon="0.2468">
        <ele>1865.9</ele>
        <time>2022-02-09T09:21:56Z</time>
      </trkpt>
      <trkpt lat="42.85592" lon="0.2468">
        <ele>1865.9</ele>
        <time>2022-02-09T09:21:57Z</time>
      </trkpt>
      <trkpt lat="42.85592" lon="0.2468">
        <ele>1865.9</ele>
        <time>2022-02-09T09:21:58Z</time>
      </trkpt>
      <trkpt lat="42.85592" lon="0.2468">
        <ele>1865.9</ele>
        <time>2022-02-09T09:21:59Z</time>
      </trkpt>
      <trkpt lat="42.85592" lon="0.2468">
        <ele>1865.9</ele>
        <time>2022-02-09T09:22:00Z</time>
      </trkpt>
      <trkpt lat="42.85592" lon="0.2468">
        <ele>1865.9</ele>
        <time>2022-02-09T09:22:01Z</time>
      </trkpt>
      <trkpt lat="42.85592" lon="0.2468">
        <ele>1865.9</ele>
        <time>2022-02-09T09:22:02Z</time>
      </trkpt>
      <trkpt lat="42.85592" lon="0.2468">
        <ele>1865.9</ele>
        <time>2022-02-09T09:22:03Z</time>
      </trkpt>
      <trkpt lat="42.85592" lon="0.2468">
        <ele>1865.9</ele>
        <time>2022-02-09T09:22:04Z</time>
      </trkpt>
      <trkpt lat="42.85592" lon="0.2468">
        <ele>1865.9</ele>
        <time>2022-02-09T09:22:05Z</time>
      </trkpt>
      <trkpt lat="42.85592" lon="0.2468">
        <ele>1865.9</ele>
        <time>2022-02-09T09:22:06Z</time>
      </trkpt>
      <trkpt lat="42.85592" lon="0.2468">
        <ele>1865.9</ele>
        <time>2022-02-09T09:22:07Z</time>
      </trkpt>
      <trkpt lat="42.85592" lon="0.2468">
        <ele>1865.9</ele>
        <time>2022-02-09T09:22:08Z</time>
      </trkpt>
      <trkpt lat="42.85592" lon="0.2468">
        <ele>1865.9</ele>
        <time>2022-02-09T09:22:09Z</time>
      </trkpt>
      <trkpt lat="42.85592" lon="0.2468">
        <ele>1865.9</ele>
        <time>2022-02-09T09:22:10Z</time>
      </trkpt>
      <trkpt lat="42.85592" lon="0.2468">
        <ele>1865.9</ele>
        <time>2022-02-09T09:22:11Z</time>
      </trkpt>
      <trkpt lat="42.85592" lon="0.2468">
        <ele>1865.9</ele>
        <time>2022-02-09T09:22:12Z</time>
      </trkpt>
      <trkpt lat="42.85592" lon="0.2468">
        <ele>1865.9</ele>
        <time>2022-02-09T09:22:13Z</time>
      </trkpt>
      <trkpt lat="42.85592" lon="0.2468">
        <ele>1865.9</ele>
        <time>2022-02-09T09:22:14Z</time>
      </trkpt>
      <trkpt lat="42.85592" lon="0.2468">
        <ele>1865.9</ele>
        <time>2022-02-09T09:22:15Z</time>
      </trkpt>
      <trkpt lat="42.85592" lon="0.2468">
        <ele>1865.9</ele>
        <time>2022-02-09T09:22:16Z</time>
      </trkpt>
      <trkpt lat="42.85592" lon="0.2468">
        <ele>1865.9</ele>
        <time>2022-02-09T09:22:17Z</time>
      </trkpt>
      <trkpt lat="42.85592" lon="0.2468">
        <ele>1865.9</ele>
        <time>2022-02-09T09:22:18Z</time>
      </trkpt>
      <trkpt lat="42.85592" lon="0.2468">
        <ele>1865.9</ele>
        <time>2022-02-09T09:22:19Z</time>
      </trkpt>
      <trkpt lat="42.85592" lon="0.2468">
        <ele>1865.9</ele>
        <time>2022-02-09T09:22:20Z</time>
      </trkpt>
      <trkpt lat="42.85592" lon="0.2468">
        <ele>1865.9</ele>
        <time>2022-02-09T09:22:21Z</time>
      </trkpt>
      <trkpt lat="42.85592" lon="0.2468">
        <ele>1865.9</ele>
        <time>2022-02-09T09:22:22Z</time>
      </trkpt>
      <trkpt lat="42.85592" lon="0.2468">
        <ele>1865.9</ele>
        <time>2022-02-09T09:22:23Z</time>
      </trkpt>
      <trkpt lat="42.85592" lon="0.2468">
        <ele>1865.9</ele>
        <time>2022-02-09T09:22:24Z</time>
      </trkpt>
      <trkpt lat="42.85592" lon="0.2468">
        <ele>1865.9</ele>
        <time>2022-02-09T09:22:25Z</time>
      </trkpt>
      <trkpt lat="42.85592" lon="0.2468">
        <ele>1865.9</ele>
        <time>2022-02-09T09:22:26Z</time>
      </trkpt>
      <trkpt lat="42.85592" lon="0.2468">
        <ele>1865.9</ele>
        <time>2022-02-09T09:22:27Z</time>
      </trkpt>
      <trkpt lat="42.85592" lon="0.2468">
        <ele>1865.9</ele>
        <time>2022-02-09T09:22:28Z</time>
      </trkpt>
      <trkpt lat="42.85592" lon="0.2468">
        <ele>1865.9</ele>
        <time>2022-02-09T09:22:29Z</time>
      </trkpt>
      <trkpt lat="42.85592" lon="0.2468">
        <ele>1865.9</ele>
        <time>2022-02-09T09:22:30Z</time>
      </trkpt>
      <trkpt lat="42.85592" lon="0.2468">
        <ele>1865.9</ele>
        <time>2022-02-09T09:22:31Z</time>
      </trkpt>
      <trkpt lat="42.85592" lon="0.2468">
        <ele>1865.9</ele>
        <time>2022-02-09T09:22:32Z</time>
      </trkpt>
      <trkpt lat="42.85592" lon="0.2468">
        <ele>1865.9</ele>
        <time>2022-02-09T09:22:33Z</time>
      </trkpt>
      <trkpt lat="42.85592" lon="0.2468">
        <ele>1865.9</ele>
        <time>2022-02-09T09:22:34Z</time>
      </trkpt>
      <trkpt lat="42.85592" lon="0.2468">
        <ele>1865.9</ele>
        <time>2022-02-09T09:22:35Z</time>
      </trkpt>
      <trkpt lat="42.85592" lon="0.2468">
        <ele>1865.9</ele>
        <time>2022-02-09T09:22:36Z</time>
      </trkpt>
      <trkpt lat="42.85592" lon="0.2468">
        <ele>1865.9</ele>
        <time>2022-02-09T09:22:37Z</time>
      </trkpt>
      <trkpt lat="42.85592" lon="0.2468">
        <ele>1865.9</ele>
        <time>2022-02-09T09:22:38Z</time>
      </trkpt>
      <trkpt lat="42.85592" lon="0.2468">
        <ele>1865.9</ele>
        <time>2022-02-09T09:22:39Z</time>
      </trkpt>
      <trkpt lat="42.85592" lon="0.2468">
        <ele>1865.9</ele>
        <time>2022-02-09T09:22:40Z</time>
      </trkpt>
      <trkpt lat="42.85592" lon="0.2468">
        <ele>1865.9</ele>
        <time>2022-02-09T09:22:41Z</time>
      </trkpt>
      <trkpt lat="42.85592" lon="0.2468">
        <ele>1865.9</ele>
        <time>2022-02-09T09:22:42Z</time>
      </trkpt>
      <trkpt lat="42.85592" lon="0.2468">
        <ele>1865.9</ele>
        <time>2022-02-09T09:22:43Z</time>
      </trkpt>
      <trkpt lat="42.85592" lon="0.2468">
        <ele>1865.9</ele>
        <time>2022-02-09T09:22:44Z</time>
      </trkpt>
      <trkpt lat="42.85592" lon="0.2468">
        <ele>1866</ele>
        <time>2022-02-09T09:22:45Z</time>
      </trkpt>
      <trkpt lat="42.85592" lon="0.2468">
        <ele>1866</ele>
        <time>2022-02-09T09:22:46Z</time>
      </trkpt>
      <trkpt lat="42.85592" lon="0.24679">
        <ele>1866</ele>
        <time>2022-02-09T09:22:47Z</time>
      </trkpt>
      <trkpt lat="42.85593" lon="0.24678">
        <ele>1866.1</ele>
        <time>2022-02-09T09:22:48Z</time>
      </trkpt>
      <trkpt lat="42.85593" lon="0.24677">
        <ele>1866.2</ele>
        <time>2022-02-09T09:22:49Z</time>
      </trkpt>
      <trkpt lat="42.85593" lon="0.24676">
        <ele>1866.3</ele>
        <time>2022-02-09T09:22:50Z</time>
      </trkpt>
      <trkpt lat="42.85594" lon="0.24675">
        <ele>1866.3</ele>
        <time>2022-02-09T09:22:51Z</time>
      </trkpt>
      <trkpt lat="42.85594" lon="0.24674">
        <ele>1866.4</ele>
        <time>2022-02-09T09:22:52Z</time>
      </trkpt>
      <trkpt lat="42.85595" lon="0.24673">
        <ele>1866.5</ele>
        <time>2022-02-09T09:22:53Z</time>
      </trkpt>
      <trkpt lat="42.85595" lon="0.24672">
        <ele>1866.6</ele>
        <time>2022-02-09T09:22:54Z</time>
      </trkpt>
      <trkpt lat="42.85595" lon="0.24671">
        <ele>1866.6</ele>
        <time>2022-02-09T09:22:55Z</time>
      </trkpt>
      <trkpt lat="42.85596" lon="0.2467">
        <ele>1866.7</ele>
        <time>2022-02-09T09:22:56Z</time>
      </trkpt>
      <trkpt lat="42.85596" lon="0.2467">
        <ele>1866.7</ele>
        <time>2022-02-09T09:22:57Z</time>
      </trkpt>
      <trkpt lat="42.85596" lon="0.24669">
        <ele>1866.8</ele>
        <time>2022-02-09T09:22:58Z</time>
      </trkpt>
      <trkpt lat="42.85597" lon="0.24668">
        <ele>1866.9</ele>
        <time>2022-02-09T09:22:59Z</time>
      </trkpt>
      <trkpt lat="42.85597" lon="0.24667">
        <ele>1867</ele>
        <time>2022-02-09T09:23:00Z</time>
      </trkpt>
      <trkpt lat="42.85597" lon="0.24666">
        <ele>1867</ele>
        <time>2022-02-09T09:23:01Z</time>
      </trkpt>
      <trkpt lat="42.85597" lon="0.24665">
        <ele>1867.1</ele>
        <time>2022-02-09T09:23:02Z</time>
      </trkpt>
      <trkpt lat="42.85597" lon="0.24664">
        <ele>1867.2</ele>
        <time>2022-02-09T09:23:03Z</time>
      </trkpt>
      <trkpt lat="42.85598" lon="0.24663">
        <ele>1867.3</ele>
        <time>2022-02-09T09:23:04Z</time>
      </trkpt>
      <trkpt lat="42.85598" lon="0.24662">
        <ele>1867.4</ele>
        <time>2022-02-09T09:23:05Z</time>
      </trkpt>
      <trkpt lat="42.85599" lon="0.24661">
        <ele>1867.5</ele>
        <time>2022-02-09T09:23:06Z</time>
      </trkpt>
      <trkpt lat="42.85599" lon="0.2466">
        <ele>1867.5</ele>
        <time>2022-02-09T09:23:07Z</time>
      </trkpt>
      <trkpt lat="42.856" lon="0.24659">
        <ele>1867.6</ele>
        <time>2022-02-09T09:23:08Z</time>
      </trkpt>
      <trkpt lat="42.85601" lon="0.24658">
        <ele>1867.8</ele>
        <time>2022-02-09T09:23:09Z</time>
      </trkpt>
      <trkpt lat="42.85601" lon="0.24657">
        <ele>1867.9</ele>
        <time>2022-02-09T09:23:10Z</time>
      </trkpt>
      <trkpt lat="42.85602" lon="0.24656">
        <ele>1868</ele>
        <time>2022-02-09T09:23:11Z</time>
      </trkpt>
      <trkpt lat="42.85603" lon="0.24655">
        <ele>1868.1</ele>
        <time>2022-02-09T09:23:12Z</time>
      </trkpt>
      <trkpt lat="42.85603" lon="0.24654">
        <ele>1868.2</ele>
        <time>2022-02-09T09:23:13Z</time>
      </trkpt>
      <trkpt lat="42.85604" lon="0.24653">
        <ele>1868.3</ele>
        <time>2022-02-09T09:23:14Z</time>
      </trkpt>
      <trkpt lat="42.85604" lon="0.24653">
        <ele>1868.3</ele>
        <time>2022-02-09T09:23:15Z</time>
      </trkpt>
      <trkpt lat="42.85605" lon="0.24652">
        <ele>1868.4</ele>
        <time>2022-02-09T09:23:16Z</time>
      </trkpt>
      <trkpt lat="42.85605" lon="0.24651">
        <ele>1868.5</ele>
        <time>2022-02-09T09:23:17Z</time>
      </trkpt>
      <trkpt lat="42.85605" lon="0.2465">
        <ele>1868.6</ele>
        <time>2022-02-09T09:23:18Z</time>
      </trkpt>
      <trkpt lat="42.85606" lon="0.2465">
        <ele>1868.6</ele>
        <time>2022-02-09T09:23:19Z</time>
      </trkpt>
      <trkpt lat="42.85606" lon="0.24649">
        <ele>1868.7</ele>
        <time>2022-02-09T09:23:20Z</time>
      </trkpt>
      <trkpt lat="42.85606" lon="0.24648">
        <ele>1868.8</ele>
        <time>2022-02-09T09:23:21Z</time>
      </trkpt>
      <trkpt lat="42.85607" lon="0.24647">
        <ele>1868.9</ele>
        <time>2022-02-09T09:23:22Z</time>
      </trkpt>
      <trkpt lat="42.85607" lon="0.24647">
        <ele>1868.9</ele>
        <time>2022-02-09T09:23:23Z</time>
      </trkpt>
      <trkpt lat="42.85607" lon="0.24646">
        <ele>1869</ele>
        <time>2022-02-09T09:23:24Z</time>
      </trkpt>
      <trkpt lat="42.85608" lon="0.24645">
        <ele>1869.1</ele>
        <time>2022-02-09T09:23:25Z</time>
      </trkpt>
      <trkpt lat="42.85608" lon="0.24644">
        <ele>1869.2</ele>
        <time>2022-02-09T09:23:26Z</time>
      </trkpt>
      <trkpt lat="42.85608" lon="0.24643">
        <ele>1869.2</ele>
        <time>2022-02-09T09:23:27Z</time>
      </trkpt>
      <trkpt lat="42.85609" lon="0.24643">
        <ele>1869.3</ele>
        <time>2022-02-09T09:23:28Z</time>
      </trkpt>
      <trkpt lat="42.85609" lon="0.24642">
        <ele>1869.4</ele>
        <time>2022-02-09T09:23:29Z</time>
      </trkpt>
      <trkpt lat="42.8561" lon="0.24641">
        <ele>1869.5</ele>
        <time>2022-02-09T09:23:30Z</time>
      </trkpt>
      <trkpt lat="42.8561" lon="0.2464">
        <ele>1869.5</ele>
        <time>2022-02-09T09:23:31Z</time>
      </trkpt>
      <trkpt lat="42.85611" lon="0.24639">
        <ele>1878.8</ele>
        <time>2022-02-09T09:23:32Z</time>
      </trkpt>
      <trkpt lat="42.85611" lon="0.24639">
        <ele>1879.1</ele>
        <time>2022-02-09T09:23:33Z</time>
      </trkpt>
      <trkpt lat="42.85611" lon="0.24638">
        <ele>1879.2</ele>
        <time>2022-02-09T09:23:34Z</time>
      </trkpt>
      <trkpt lat="42.85612" lon="0.24637">
        <ele>1879.3</ele>
        <time>2022-02-09T09:23:35Z</time>
      </trkpt>
      <trkpt lat="42.85612" lon="0.24636">
        <ele>1879.5</ele>
        <time>2022-02-09T09:23:36Z</time>
      </trkpt>
      <trkpt lat="42.85612" lon="0.24636">
        <ele>1879.6</ele>
        <time>2022-02-09T09:23:37Z</time>
      </trkpt>
      <trkpt lat="42.85613" lon="0.24635">
        <ele>1879.7</ele>
        <time>2022-02-09T09:23:38Z</time>
      </trkpt>
      <trkpt lat="42.85613" lon="0.24634">
        <ele>1879.9</ele>
        <time>2022-02-09T09:23:39Z</time>
      </trkpt>
      <trkpt lat="42.85613" lon="0.24634">
        <ele>1880</ele>
        <time>2022-02-09T09:23:40Z</time>
      </trkpt>
      <trkpt lat="42.85614" lon="0.24633">
        <ele>1880.1</ele>
        <time>2022-02-09T09:23:41Z</time>
      </trkpt>
      <trkpt lat="42.85614" lon="0.24633">
        <ele>1880.3</ele>
        <time>2022-02-09T09:23:42Z</time>
      </trkpt>
      <trkpt lat="42.85615" lon="0.24632">
        <ele>1880.4</ele>
        <time>2022-02-09T09:23:43Z</time>
      </trkpt>
      <trkpt lat="42.85615" lon="0.24631">
        <ele>1880.5</ele>
        <time>2022-02-09T09:23:44Z</time>
      </trkpt>
      <trkpt lat="42.85615" lon="0.24631">
        <ele>1880.6</ele>
        <time>2022-02-09T09:23:45Z</time>
      </trkpt>
      <trkpt lat="42.85615" lon="0.2463">
        <ele>1880.8</ele>
        <time>2022-02-09T09:23:46Z</time>
      </trkpt>
      <trkpt lat="42.85616" lon="0.2463">
        <ele>1880.9</ele>
        <time>2022-02-09T09:23:47Z</time>
      </trkpt>
      <trkpt lat="42.85616" lon="0.24629">
        <ele>1881</ele>
        <time>2022-02-09T09:23:48Z</time>
      </trkpt>
      <trkpt lat="42.85616" lon="0.24628">
        <ele>1881.2</ele>
        <time>2022-02-09T09:23:49Z</time>
      </trkpt>
      <trkpt lat="42.85616" lon="0.24627">
        <ele>1881.3</ele>
        <time>2022-02-09T09:23:50Z</time>
      </trkpt>
      <trkpt lat="42.85617" lon="0.24627">
        <ele>1881.5</ele>
        <time>2022-02-09T09:23:51Z</time>
      </trkpt>
      <trkpt lat="42.85617" lon="0.24626">
        <ele>1881.6</ele>
        <time>2022-02-09T09:23:52Z</time>
      </trkpt>
      <trkpt lat="42.85617" lon="0.24625">
        <ele>1881.7</ele>
        <time>2022-02-09T09:23:53Z</time>
      </trkpt>
      <trkpt lat="42.85617" lon="0.24624">
        <ele>1881.9</ele>
        <time>2022-02-09T09:23:54Z</time>
      </trkpt>
      <trkpt lat="42.85618" lon="0.24623">
        <ele>1882</ele>
        <time>2022-02-09T09:23:55Z</time>
      </trkpt>
      <trkpt lat="42.85618" lon="0.24623">
        <ele>1882.2</ele>
        <time>2022-02-09T09:23:56Z</time>
      </trkpt>
      <trkpt lat="42.85618" lon="0.24622">
        <ele>1882.3</ele>
        <time>2022-02-09T09:23:57Z</time>
      </trkpt>
      <trkpt lat="42.85618" lon="0.24621">
        <ele>1882.4</ele>
        <time>2022-02-09T09:23:58Z</time>
      </trkpt>
      <trkpt lat="42.85618" lon="0.2462">
        <ele>1882.6</ele>
        <time>2022-02-09T09:23:59Z</time>
      </trkpt>
      <trkpt lat="42.85618" lon="0.24619">
        <ele>1882.7</ele>
        <time>2022-02-09T09:24:00Z</time>
      </trkpt>
      <trkpt lat="42.85619" lon="0.24619">
        <ele>1882.9</ele>
        <time>2022-02-09T09:24:01Z</time>
      </trkpt>
      <trkpt lat="42.85619" lon="0.24618">
        <ele>1883</ele>
        <time>2022-02-09T09:24:02Z</time>
      </trkpt>
      <trkpt lat="42.85619" lon="0.24617">
        <ele>1883.1</ele>
        <time>2022-02-09T09:24:03Z</time>
      </trkpt>
      <trkpt lat="42.85619" lon="0.24616">
        <ele>1883.3</ele>
        <time>2022-02-09T09:24:04Z</time>
      </trkpt>
      <trkpt lat="42.85619" lon="0.24615">
        <ele>1883.5</ele>
        <time>2022-02-09T09:24:05Z</time>
      </trkpt>
      <trkpt lat="42.8562" lon="0.24614">
        <ele>1883.6</ele>
        <time>2022-02-09T09:24:06Z</time>
      </trkpt>
      <trkpt lat="42.8562" lon="0.24614">
        <ele>1883.8</ele>
        <time>2022-02-09T09:24:07Z</time>
      </trkpt>
      <trkpt lat="42.8562" lon="0.24613">
        <ele>1883.9</ele>
        <time>2022-02-09T09:24:08Z</time>
      </trkpt>
      <trkpt lat="42.85621" lon="0.24612">
        <ele>1884</ele>
        <time>2022-02-09T09:24:09Z</time>
      </trkpt>
      <trkpt lat="42.85621" lon="0.24611">
        <ele>1884.2</ele>
        <time>2022-02-09T09:24:10Z</time>
      </trkpt>
      <trkpt lat="42.85621" lon="0.24611">
        <ele>1884.3</ele>
        <time>2022-02-09T09:24:11Z</time>
      </trkpt>
      <trkpt lat="42.85621" lon="0.2461">
        <ele>1884.5</ele>
        <time>2022-02-09T09:24:12Z</time>
      </trkpt>
      <trkpt lat="42.85622" lon="0.24609">
        <ele>1884.6</ele>
        <time>2022-02-09T09:24:13Z</time>
      </trkpt>
      <trkpt lat="42.85622" lon="0.24608">
        <ele>1884.8</ele>
        <time>2022-02-09T09:24:14Z</time>
      </trkpt>
      <trkpt lat="42.85622" lon="0.24607">
        <ele>1884.9</ele>
        <time>2022-02-09T09:24:15Z</time>
      </trkpt>
      <trkpt lat="42.85622" lon="0.24606">
        <ele>1885.1</ele>
        <time>2022-02-09T09:24:16Z</time>
      </trkpt>
      <trkpt lat="42.85622" lon="0.24606">
        <ele>1885.2</ele>
        <time>2022-02-09T09:24:17Z</time>
      </trkpt>
      <trkpt lat="42.85622" lon="0.24605">
        <ele>1885.4</ele>
        <time>2022-02-09T09:24:18Z</time>
      </trkpt>
      <trkpt lat="42.85623" lon="0.24604">
        <ele>1885.5</ele>
        <time>2022-02-09T09:24:19Z</time>
      </trkpt>
      <trkpt lat="42.85623" lon="0.24603">
        <ele>1885.7</ele>
        <time>2022-02-09T09:24:20Z</time>
      </trkpt>
      <trkpt lat="42.85623" lon="0.24602">
        <ele>1885.9</ele>
        <time>2022-02-09T09:24:21Z</time>
      </trkpt>
      <trkpt lat="42.85623" lon="0.24601">
        <ele>1886.1</ele>
        <time>2022-02-09T09:24:22Z</time>
      </trkpt>
      <trkpt lat="42.85624" lon="0.246">
        <ele>1886.3</ele>
        <time>2022-02-09T09:24:23Z</time>
      </trkpt>
      <trkpt lat="42.85624" lon="0.24599">
        <ele>1886.4</ele>
        <time>2022-02-09T09:24:24Z</time>
      </trkpt>
      <trkpt lat="42.85624" lon="0.24598">
        <ele>1886.6</ele>
        <time>2022-02-09T09:24:25Z</time>
      </trkpt>
      <trkpt lat="42.85624" lon="0.24597">
        <ele>1886.7</ele>
        <time>2022-02-09T09:24:26Z</time>
      </trkpt>
      <trkpt lat="42.85625" lon="0.24596">
        <ele>1886.9</ele>
        <time>2022-02-09T09:24:27Z</time>
      </trkpt>
      <trkpt lat="42.85625" lon="0.24595">
        <ele>1887.1</ele>
        <time>2022-02-09T09:24:28Z</time>
      </trkpt>
      <trkpt lat="42.85625" lon="0.24594">
        <ele>1887.2</ele>
        <time>2022-02-09T09:24:29Z</time>
      </trkpt>
      <trkpt lat="42.85626" lon="0.24594">
        <ele>1887.4</ele>
        <time>2022-02-09T09:24:30Z</time>
      </trkpt>
      <trkpt lat="42.85626" lon="0.24593">
        <ele>1887.5</ele>
        <time>2022-02-09T09:24:31Z</time>
      </trkpt>
      <trkpt lat="42.85626" lon="0.24592">
        <ele>1887.6</ele>
        <time>2022-02-09T09:24:32Z</time>
      </trkpt>
      <trkpt lat="42.85626" lon="0.24591">
        <ele>1887.8</ele>
        <time>2022-02-09T09:24:33Z</time>
      </trkpt>
      <trkpt lat="42.85626" lon="0.24591">
        <ele>1887.9</ele>
        <time>2022-02-09T09:24:34Z</time>
      </trkpt>
      <trkpt lat="42.85626" lon="0.2459">
        <ele>1888</ele>
        <time>2022-02-09T09:24:35Z</time>
      </trkpt>
      <trkpt lat="42.85626" lon="0.24589">
        <ele>1888.2</ele>
        <time>2022-02-09T09:24:36Z</time>
      </trkpt>
      <trkpt lat="42.85626" lon="0.24588">
        <ele>1888.3</ele>
        <time>2022-02-09T09:24:37Z</time>
      </trkpt>
      <trkpt lat="42.85627" lon="0.24587">
        <ele>1888.5</ele>
        <time>2022-02-09T09:24:38Z</time>
      </trkpt>
      <trkpt lat="42.85627" lon="0.24586">
        <ele>1888.7</ele>
        <time>2022-02-09T09:24:39Z</time>
      </trkpt>
      <trkpt lat="42.85627" lon="0.24585">
        <ele>1888.9</ele>
        <time>2022-02-09T09:24:40Z</time>
      </trkpt>
      <trkpt lat="42.85627" lon="0.24584">
        <ele>1889</ele>
        <time>2022-02-09T09:24:41Z</time>
      </trkpt>
      <trkpt lat="42.85627" lon="0.24583">
        <ele>1889.2</ele>
        <time>2022-02-09T09:24:42Z</time>
      </trkpt>
      <trkpt lat="42.85627" lon="0.24582">
        <ele>1889.3</ele>
        <time>2022-02-09T09:24:43Z</time>
      </trkpt>
      <trkpt lat="42.85627" lon="0.24581">
        <ele>1889.5</ele>
        <time>2022-02-09T09:24:44Z</time>
      </trkpt>
      <trkpt lat="42.85627" lon="0.24581">
        <ele>1889.6</ele>
        <time>2022-02-09T09:24:45Z</time>
      </trkpt>
      <trkpt lat="42.85626" lon="0.2458">
        <ele>1889.8</ele>
        <time>2022-02-09T09:24:46Z</time>
      </trkpt>
      <trkpt lat="42.85626" lon="0.24579">
        <ele>1889.9</ele>
        <time>2022-02-09T09:24:47Z</time>
      </trkpt>
      <trkpt lat="42.85625" lon="0.24579">
        <ele>1890.1</ele>
        <time>2022-02-09T09:24:48Z</time>
      </trkpt>
      <trkpt lat="42.85625" lon="0.24579">
        <ele>1890.2</ele>
        <time>2022-02-09T09:24:49Z</time>
      </trkpt>
      <trkpt lat="42.85624" lon="0.24579">
        <ele>1890.4</ele>
        <time>2022-02-09T09:24:50Z</time>
      </trkpt>
      <trkpt lat="42.85623" lon="0.24579">
        <ele>1890.5</ele>
        <time>2022-02-09T09:24:51Z</time>
      </trkpt>
      <trkpt lat="42.85623" lon="0.24579">
        <ele>1890.7</ele>
        <time>2022-02-09T09:24:52Z</time>
      </trkpt>
      <trkpt lat="42.85622" lon="0.24578">
        <ele>1890.9</ele>
        <time>2022-02-09T09:24:53Z</time>
      </trkpt>
      <trkpt lat="42.85621" lon="0.24578">
        <ele>1891</ele>
        <time>2022-02-09T09:24:54Z</time>
      </trkpt>
      <trkpt lat="42.8562" lon="0.24578">
        <ele>1891.2</ele>
        <time>2022-02-09T09:24:55Z</time>
      </trkpt>
      <trkpt lat="42.8562" lon="0.24578">
        <ele>1891.4</ele>
        <time>2022-02-09T09:24:56Z</time>
      </trkpt>
      <trkpt lat="42.85619" lon="0.24578">
        <ele>1891.6</ele>
        <time>2022-02-09T09:24:57Z</time>
      </trkpt>
      <trkpt lat="42.85618" lon="0.24577">
        <ele>1891.7</ele>
        <time>2022-02-09T09:24:58Z</time>
      </trkpt>
      <trkpt lat="42.85618" lon="0.24577">
        <ele>1891.8</ele>
        <time>2022-02-09T09:24:59Z</time>
      </trkpt>
      <trkpt lat="42.85618" lon="0.24576">
        <ele>1891.9</ele>
        <time>2022-02-09T09:25:00Z</time>
      </trkpt>
      <trkpt lat="42.85618" lon="0.24575">
        <ele>1892.1</ele>
        <time>2022-02-09T09:25:01Z</time>
      </trkpt>
      <trkpt lat="42.85618" lon="0.24574">
        <ele>1892.2</ele>
        <time>2022-02-09T09:25:02Z</time>
      </trkpt>
      <trkpt lat="42.85619" lon="0.24574">
        <ele>1892.4</ele>
        <time>2022-02-09T09:25:03Z</time>
      </trkpt>
      <trkpt lat="42.85619" lon="0.24573">
        <ele>1892.5</ele>
        <time>2022-02-09T09:25:04Z</time>
      </trkpt>
      <trkpt lat="42.85619" lon="0.24572">
        <ele>1892.7</ele>
        <time>2022-02-09T09:25:05Z</time>
      </trkpt>
      <trkpt lat="42.85619" lon="0.24571">
        <ele>1892.8</ele>
        <time>2022-02-09T09:25:06Z</time>
      </trkpt>
      <trkpt lat="42.85619" lon="0.2457">
        <ele>1893</ele>
        <time>2022-02-09T09:25:07Z</time>
      </trkpt>
      <trkpt lat="42.85619" lon="0.2457">
        <ele>1893.1</ele>
        <time>2022-02-09T09:25:08Z</time>
      </trkpt>
      <trkpt lat="42.8562" lon="0.24569">
        <ele>1893.2</ele>
        <time>2022-02-09T09:25:09Z</time>
      </trkpt>
      <trkpt lat="42.8562" lon="0.24568">
        <ele>1893.4</ele>
        <time>2022-02-09T09:25:10Z</time>
      </trkpt>
      <trkpt lat="42.85621" lon="0.24567">
        <ele>1893.6</ele>
        <time>2022-02-09T09:25:11Z</time>
      </trkpt>
      <trkpt lat="42.85621" lon="0.24566">
        <ele>1893.7</ele>
        <time>2022-02-09T09:25:12Z</time>
      </trkpt>
      <trkpt lat="42.8562" lon="0.24565">
        <ele>1893.8</ele>
        <time>2022-02-09T09:25:13Z</time>
      </trkpt>
      <trkpt lat="42.8562" lon="0.24565">
        <ele>1894</ele>
        <time>2022-02-09T09:25:14Z</time>
      </trkpt>
      <trkpt lat="42.8562" lon="0.24564">
        <ele>1894.1</ele>
        <time>2022-02-09T09:25:15Z</time>
      </trkpt>
      <trkpt lat="42.85619" lon="0.24564">
        <ele>1894.2</ele>
        <time>2022-02-09T09:25:16Z</time>
      </trkpt>
      <trkpt lat="42.85618" lon="0.24564">
        <ele>1894.4</ele>
        <time>2022-02-09T09:25:17Z</time>
      </trkpt>
      <trkpt lat="42.85618" lon="0.24563">
        <ele>1894.6</ele>
        <time>2022-02-09T09:25:18Z</time>
      </trkpt>
      <trkpt lat="42.85617" lon="0.24563">
        <ele>1894.8</ele>
        <time>2022-02-09T09:25:19Z</time>
      </trkpt>
      <trkpt lat="42.85616" lon="0.24563">
        <ele>1895</ele>
        <time>2022-02-09T09:25:20Z</time>
      </trkpt>
      <trkpt lat="42.85615" lon="0.24563">
        <ele>1895.1</ele>
        <time>2022-02-09T09:25:21Z</time>
      </trkpt>
      <trkpt lat="42.85615" lon="0.24562">
        <ele>1895.2</ele>
        <time>2022-02-09T09:25:22Z</time>
      </trkpt>
      <trkpt lat="42.85615" lon="0.24562">
        <ele>1895.3</ele>
        <time>2022-02-09T09:25:23Z</time>
      </trkpt>
      <trkpt lat="42.85615" lon="0.24561">
        <ele>1895.4</ele>
        <time>2022-02-09T09:25:24Z</time>
      </trkpt>
      <trkpt lat="42.85615" lon="0.2456">
        <ele>1895.5</ele>
        <time>2022-02-09T09:25:25Z</time>
      </trkpt>
      <trkpt lat="42.85615" lon="0.2456">
        <ele>1895.7</ele>
        <time>2022-02-09T09:25:26Z</time>
      </trkpt>
      <trkpt lat="42.85615" lon="0.24559">
        <ele>1895.8</ele>
        <time>2022-02-09T09:25:27Z</time>
      </trkpt>
      <trkpt lat="42.85616" lon="0.24558">
        <ele>1896</ele>
        <time>2022-02-09T09:25:28Z</time>
      </trkpt>
      <trkpt lat="42.85616" lon="0.24557">
        <ele>1896.2</ele>
        <time>2022-02-09T09:25:29Z</time>
      </trkpt>
      <trkpt lat="42.85617" lon="0.24557">
        <ele>1896.3</ele>
        <time>2022-02-09T09:25:30Z</time>
      </trkpt>
      <trkpt lat="42.85618" lon="0.24556">
        <ele>1896.5</ele>
        <time>2022-02-09T09:25:31Z</time>
      </trkpt>
      <trkpt lat="42.85618" lon="0.24556">
        <ele>1896.6</ele>
        <time>2022-02-09T09:25:32Z</time>
      </trkpt>
      <trkpt lat="42.85619" lon="0.24555">
        <ele>1896.8</ele>
        <time>2022-02-09T09:25:33Z</time>
      </trkpt>
      <trkpt lat="42.8562" lon="0.24555">
        <ele>1897</ele>
        <time>2022-02-09T09:25:34Z</time>
      </trkpt>
      <trkpt lat="42.8562" lon="0.24554">
        <ele>1897.1</ele>
        <time>2022-02-09T09:25:35Z</time>
      </trkpt>
      <trkpt lat="42.8562" lon="0.24554">
        <ele>1897.2</ele>
        <time>2022-02-09T09:25:36Z</time>
      </trkpt>
      <trkpt lat="42.85621" lon="0.24553">
        <ele>1897.4</ele>
        <time>2022-02-09T09:25:37Z</time>
      </trkpt>
      <trkpt lat="42.85621" lon="0.24553">
        <ele>1897.5</ele>
        <time>2022-02-09T09:25:38Z</time>
      </trkpt>
      <trkpt lat="42.85622" lon="0.24552">
        <ele>1897.6</ele>
        <time>2022-02-09T09:25:39Z</time>
      </trkpt>
      <trkpt lat="42.85622" lon="0.24552">
        <ele>1897.7</ele>
        <time>2022-02-09T09:25:40Z</time>
      </trkpt>
      <trkpt lat="42.85622" lon="0.24551">
        <ele>1897.8</ele>
        <time>2022-02-09T09:25:41Z</time>
      </trkpt>
      <trkpt lat="42.85623" lon="0.24551">
        <ele>1898</ele>
        <time>2022-02-09T09:25:42Z</time>
      </trkpt>
      <trkpt lat="42.85623" lon="0.2455">
        <ele>1898.2</ele>
        <time>2022-02-09T09:25:43Z</time>
      </trkpt>
      <trkpt lat="42.85623" lon="0.24549">
        <ele>1898.3</ele>
        <time>2022-02-09T09:25:44Z</time>
      </trkpt>
      <trkpt lat="42.85624" lon="0.24548">
        <ele>1898.5</ele>
        <time>2022-02-09T09:25:45Z</time>
      </trkpt>
      <trkpt lat="42.85624" lon="0.24548">
        <ele>1898.6</ele>
        <time>2022-02-09T09:25:46Z</time>
      </trkpt>
      <trkpt lat="42.85625" lon="0.24547">
        <ele>1898.8</ele>
        <time>2022-02-09T09:25:47Z</time>
      </trkpt>
      <trkpt lat="42.85625" lon="0.24546">
        <ele>1898.9</ele>
        <time>2022-02-09T09:25:48Z</time>
      </trkpt>
      <trkpt lat="42.85625" lon="0.24546">
        <ele>1899</ele>
        <time>2022-02-09T09:25:49Z</time>
      </trkpt>
      <trkpt lat="42.85626" lon="0.24545">
        <ele>1899.1</ele>
        <time>2022-02-09T09:25:50Z</time>
      </trkpt>
      <trkpt lat="42.85626" lon="0.24545">
        <ele>1899.3</ele>
        <time>2022-02-09T09:25:51Z</time>
      </trkpt>
      <trkpt lat="42.85626" lon="0.24544">
        <ele>1899.4</ele>
        <time>2022-02-09T09:25:52Z</time>
      </trkpt>
      <trkpt lat="42.85626" lon="0.24543">
        <ele>1899.5</ele>
        <time>2022-02-09T09:25:53Z</time>
      </trkpt>
      <trkpt lat="42.85627" lon="0.24543">
        <ele>1899.6</ele>
        <time>2022-02-09T09:25:54Z</time>
      </trkpt>
      <trkpt lat="42.85627" lon="0.24542">
        <ele>1899.8</ele>
        <time>2022-02-09T09:25:55Z</time>
      </trkpt>
      <trkpt lat="42.85627" lon="0.24542">
        <ele>1899.9</ele>
        <time>2022-02-09T09:25:56Z</time>
      </trkpt>
      <trkpt lat="42.85628" lon="0.24541">
        <ele>1900</ele>
        <time>2022-02-09T09:25:57Z</time>
      </trkpt>
      <trkpt lat="42.85628" lon="0.2454">
        <ele>1900.1</ele>
        <time>2022-02-09T09:25:58Z</time>
      </trkpt>
      <trkpt lat="42.85628" lon="0.24539">
        <ele>1900.3</ele>
        <time>2022-02-09T09:25:59Z</time>
      </trkpt>
      <trkpt lat="42.85629" lon="0.24539">
        <ele>1900.5</ele>
        <time>2022-02-09T09:26:00Z</time>
      </trkpt>
      <trkpt lat="42.85629" lon="0.24538">
        <ele>1900.6</ele>
        <time>2022-02-09T09:26:01Z</time>
      </trkpt>
      <trkpt lat="42.85629" lon="0.24537">
        <ele>1900.8</ele>
        <time>2022-02-09T09:26:02Z</time>
      </trkpt>
      <trkpt lat="42.8563" lon="0.24536">
        <ele>1900.9</ele>
        <time>2022-02-09T09:26:03Z</time>
      </trkpt>
      <trkpt lat="42.8563" lon="0.24536">
        <ele>1901.1</ele>
        <time>2022-02-09T09:26:04Z</time>
      </trkpt>
      <trkpt lat="42.85631" lon="0.24535">
        <ele>1901.3</ele>
        <time>2022-02-09T09:26:05Z</time>
      </trkpt>
      <trkpt lat="42.85632" lon="0.24534">
        <ele>1901.6</ele>
        <time>2022-02-09T09:26:06Z</time>
      </trkpt>
      <trkpt lat="42.85633" lon="0.24533">
        <ele>1901.8</ele>
        <time>2022-02-09T09:26:07Z</time>
      </trkpt>
      <trkpt lat="42.85633" lon="0.24532">
        <ele>1902</ele>
        <time>2022-02-09T09:26:08Z</time>
      </trkpt>
      <trkpt lat="42.85633" lon="0.24531">
        <ele>1902.1</ele>
        <time>2022-02-09T09:26:09Z</time>
      </trkpt>
      <trkpt lat="42.85634" lon="0.2453">
        <ele>1902.3</ele>
        <time>2022-02-09T09:26:10Z</time>
      </trkpt>
      <trkpt lat="42.85634" lon="0.2453">
        <ele>1902.4</ele>
        <time>2022-02-09T09:26:11Z</time>
      </trkpt>
      <trkpt lat="42.85634" lon="0.24529">
        <ele>1902.6</ele>
        <time>2022-02-09T09:26:12Z</time>
      </trkpt>
      <trkpt lat="42.85634" lon="0.24528">
        <ele>1902.7</ele>
        <time>2022-02-09T09:26:13Z</time>
      </trkpt>
      <trkpt lat="42.85634" lon="0.24527">
        <ele>1902.8</ele>
        <time>2022-02-09T09:26:14Z</time>
      </trkpt>
      <trkpt lat="42.85635" lon="0.24527">
        <ele>1903</ele>
        <time>2022-02-09T09:26:15Z</time>
      </trkpt>
      <trkpt lat="42.85635" lon="0.24526">
        <ele>1903.2</ele>
        <time>2022-02-09T09:26:16Z</time>
      </trkpt>
      <trkpt lat="42.85635" lon="0.24525">
        <ele>1903.3</ele>
        <time>2022-02-09T09:26:17Z</time>
      </trkpt>
      <trkpt lat="42.85636" lon="0.24524">
        <ele>1903.4</ele>
        <time>2022-02-09T09:26:18Z</time>
      </trkpt>
      <trkpt lat="42.85636" lon="0.24523">
        <ele>1903.6</ele>
        <time>2022-02-09T09:26:19Z</time>
      </trkpt>
      <trkpt lat="42.85636" lon="0.24522">
        <ele>1903.8</ele>
        <time>2022-02-09T09:26:20Z</time>
      </trkpt>
      <trkpt lat="42.85637" lon="0.24522">
        <ele>1903.9</ele>
        <time>2022-02-09T09:26:21Z</time>
      </trkpt>
      <trkpt lat="42.85637" lon="0.24521">
        <ele>1904</ele>
        <time>2022-02-09T09:26:22Z</time>
      </trkpt>
      <trkpt lat="42.85637" lon="0.2452">
        <ele>1904.1</ele>
        <time>2022-02-09T09:26:23Z</time>
      </trkpt>
      <trkpt lat="42.85636" lon="0.2452">
        <ele>1904.2</ele>
        <time>2022-02-09T09:26:24Z</time>
      </trkpt>
      <trkpt lat="42.85636" lon="0.24519">
        <ele>1904.4</ele>
        <time>2022-02-09T09:26:25Z</time>
      </trkpt>
      <trkpt lat="42.85635" lon="0.24519">
        <ele>1904.5</ele>
        <time>2022-02-09T09:26:26Z</time>
      </trkpt>
      <trkpt lat="42.85635" lon="0.24519">
        <ele>1904.6</ele>
        <time>2022-02-09T09:26:27Z</time>
      </trkpt>
      <trkpt lat="42.85634" lon="0.24519">
        <ele>1904.8</ele>
        <time>2022-02-09T09:26:28Z</time>
      </trkpt>
      <trkpt lat="42.85633" lon="0.24519">
        <ele>1904.9</ele>
        <time>2022-02-09T09:26:29Z</time>
      </trkpt>
      <trkpt lat="42.85632" lon="0.24519">
        <ele>1905.1</ele>
        <time>2022-02-09T09:26:30Z</time>
      </trkpt>
      <trkpt lat="42.85632" lon="0.2452">
        <ele>1905.3</ele>
        <time>2022-02-09T09:26:31Z</time>
      </trkpt>
      <trkpt lat="42.85631" lon="0.2452">
        <ele>1905.5</ele>
        <time>2022-02-09T09:26:32Z</time>
      </trkpt>
      <trkpt lat="42.8563" lon="0.2452">
        <ele>1905.7</ele>
        <time>2022-02-09T09:26:33Z</time>
      </trkpt>
      <trkpt lat="42.85629" lon="0.2452">
        <ele>1905.9</ele>
        <time>2022-02-09T09:26:34Z</time>
      </trkpt>
      <trkpt lat="42.85629" lon="0.2452">
        <ele>1906</ele>
        <time>2022-02-09T09:26:35Z</time>
      </trkpt>
      <trkpt lat="42.85628" lon="0.2452">
        <ele>1906.2</ele>
        <time>2022-02-09T09:26:36Z</time>
      </trkpt>
      <trkpt lat="42.85627" lon="0.2452">
        <ele>1906.4</ele>
        <time>2022-02-09T09:26:37Z</time>
      </trkpt>
      <trkpt lat="42.85626" lon="0.2452">
        <ele>1906.6</ele>
        <time>2022-02-09T09:26:38Z</time>
      </trkpt>
      <trkpt lat="42.85625" lon="0.2452">
        <ele>1906.7</ele>
        <time>2022-02-09T09:26:39Z</time>
      </trkpt>
      <trkpt lat="42.85625" lon="0.24519">
        <ele>1906.9</ele>
        <time>2022-02-09T09:26:40Z</time>
      </trkpt>
      <trkpt lat="42.85624" lon="0.24519">
        <ele>1907.1</ele>
        <time>2022-02-09T09:26:41Z</time>
      </trkpt>
      <trkpt lat="42.85623" lon="0.24519">
        <ele>1907.2</ele>
        <time>2022-02-09T09:26:42Z</time>
      </trkpt>
      <trkpt lat="42.85623" lon="0.24518">
        <ele>1907.4</ele>
        <time>2022-02-09T09:26:43Z</time>
      </trkpt>
      <trkpt lat="42.85622" lon="0.24518">
        <ele>1907.6</ele>
        <time>2022-02-09T09:26:44Z</time>
      </trkpt>
      <trkpt lat="42.85622" lon="0.24517">
        <ele>1907.7</ele>
        <time>2022-02-09T09:26:45Z</time>
      </trkpt>
      <trkpt lat="42.85621" lon="0.24516">
        <ele>1907.9</ele>
        <time>2022-02-09T09:26:46Z</time>
      </trkpt>
      <trkpt lat="42.85621" lon="0.24516">
        <ele>1908.1</ele>
        <time>2022-02-09T09:26:47Z</time>
      </trkpt>
      <trkpt lat="42.8562" lon="0.24515">
        <ele>1908.2</ele>
        <time>2022-02-09T09:26:48Z</time>
      </trkpt>
      <trkpt lat="42.8562" lon="0.24515">
        <ele>1908.3</ele>
        <time>2022-02-09T09:26:49Z</time>
      </trkpt>
      <trkpt lat="42.85619" lon="0.24514">
        <ele>1908.4</ele>
        <time>2022-02-09T09:26:50Z</time>
      </trkpt>
      <trkpt lat="42.85619" lon="0.24514">
        <ele>1908.5</ele>
        <time>2022-02-09T09:26:51Z</time>
      </trkpt>
      <trkpt lat="42.85619" lon="0.24514">
        <ele>1908.5</ele>
        <time>2022-02-09T09:26:52Z</time>
      </trkpt>
      <trkpt lat="42.85619" lon="0.24514">
        <ele>1908.6</ele>
        <time>2022-02-09T09:26:53Z</time>
      </trkpt>
      <trkpt lat="42.85619" lon="0.24515">
        <ele>1908.6</ele>
        <time>2022-02-09T09:26:54Z</time>
      </trkpt>
      <trkpt lat="42.85619" lon="0.24515">
        <ele>1908.6</ele>
        <time>2022-02-09T09:26:55Z</time>
      </trkpt>
      <trkpt lat="42.85619" lon="0.24515">
        <ele>1908.6</ele>
        <time>2022-02-09T09:26:56Z</time>
      </trkpt>
      <trkpt lat="42.85619" lon="0.24515">
        <ele>1908.6</ele>
        <time>2022-02-09T09:26:57Z</time>
      </trkpt>
      <trkpt lat="42.85619" lon="0.24515">
        <ele>1908.6</ele>
        <time>2022-02-09T09:26:58Z</time>
      </trkpt>
      <trkpt lat="42.85619" lon="0.24515">
        <ele>1908.6</ele>
        <time>2022-02-09T09:26:59Z</time>
      </trkpt>
      <trkpt lat="42.85619" lon="0.24515">
        <ele>1908.6</ele>
        <time>2022-02-09T09:27:00Z</time>
      </trkpt>
      <trkpt lat="42.85619" lon="0.24515">
        <ele>1908.6</ele>
        <time>2022-02-09T09:27:01Z</time>
      </trkpt>
      <trkpt lat="42.85619" lon="0.24515">
        <ele>1908.6</ele>
        <time>2022-02-09T09:27:02Z</time>
      </trkpt>
      <trkpt lat="42.85619" lon="0.24515">
        <ele>1908.6</ele>
        <time>2022-02-09T09:27:03Z</time>
      </trkpt>
      <trkpt lat="42.85619" lon="0.24515">
        <ele>1908.6</ele>
        <time>2022-02-09T09:27:04Z</time>
      </trkpt>
      <trkpt lat="42.85619" lon="0.24515">
        <ele>1908.6</ele>
        <time>2022-02-09T09:27:05Z</time>
      </trkpt>
      <trkpt lat="42.85619" lon="0.24515">
        <ele>1908.6</ele>
        <time>2022-02-09T09:27:06Z</time>
      </trkpt>
      <trkpt lat="42.85619" lon="0.24515">
        <ele>1908.6</ele>
        <time>2022-02-09T09:27:07Z</time>
      </trkpt>
      <trkpt lat="42.85619" lon="0.24515">
        <ele>1908.6</ele>
        <time>2022-02-09T09:27:08Z</time>
      </trkpt>
      <trkpt lat="42.85619" lon="0.24515">
        <ele>1908.6</ele>
        <time>2022-02-09T09:27:09Z</time>
      </trkpt>
      <trkpt lat="42.85619" lon="0.24515">
        <ele>1908.6</ele>
        <time>2022-02-09T09:27:10Z</time>
      </trkpt>
      <trkpt lat="42.85619" lon="0.24515">
        <ele>1908.6</ele>
        <time>2022-02-09T09:27:11Z</time>
      </trkpt>
      <trkpt lat="42.85619" lon="0.24515">
        <ele>1908.6</ele>
        <time>2022-02-09T09:27:12Z</time>
      </trkpt>
      <trkpt lat="42.85619" lon="0.24515">
        <ele>1908.6</ele>
        <time>2022-02-09T09:27:13Z</time>
      </trkpt>
      <trkpt lat="42.85619" lon="0.24515">
        <ele>1908.6</ele>
        <time>2022-02-09T09:27:14Z</time>
      </trkpt>
      <trkpt lat="42.85619" lon="0.24514">
        <ele>1908.7</ele>
        <time>2022-02-09T09:27:15Z</time>
      </trkpt>
      <trkpt lat="42.85618" lon="0.24514">
        <ele>1908.8</ele>
        <time>2022-02-09T09:27:16Z</time>
      </trkpt>
      <trkpt lat="42.85618" lon="0.24513">
        <ele>1908.9</ele>
        <time>2022-02-09T09:27:17Z</time>
      </trkpt>
      <trkpt lat="42.85618" lon="0.24512">
        <ele>1909.1</ele>
        <time>2022-02-09T09:27:18Z</time>
      </trkpt>
      <trkpt lat="42.85617" lon="0.24512">
        <ele>1909.2</ele>
        <time>2022-02-09T09:27:19Z</time>
      </trkpt>
      <trkpt lat="42.85617" lon="0.24511">
        <ele>1909.4</ele>
        <time>2022-02-09T09:27:20Z</time>
      </trkpt>
      <trkpt lat="42.85617" lon="0.2451">
        <ele>1909.5</ele>
        <time>2022-02-09T09:27:21Z</time>
      </trkpt>
      <trkpt lat="42.85616" lon="0.2451">
        <ele>1909.7</ele>
        <time>2022-02-09T09:27:22Z</time>
      </trkpt>
      <trkpt lat="42.85616" lon="0.24509">
        <ele>1909.8</ele>
        <time>2022-02-09T09:27:23Z</time>
      </trkpt>
      <trkpt lat="42.85615" lon="0.24509">
        <ele>1909.9</ele>
        <time>2022-02-09T09:27:24Z</time>
      </trkpt>
      <trkpt lat="42.85615" lon="0.24508">
        <ele>1910.1</ele>
        <time>2022-02-09T09:27:25Z</time>
      </trkpt>
      <trkpt lat="42.85614" lon="0.24508">
        <ele>1910.2</ele>
        <time>2022-02-09T09:27:26Z</time>
      </trkpt>
      <trkpt lat="42.85614" lon="0.24507">
        <ele>1910.4</ele>
        <time>2022-02-09T09:27:27Z</time>
      </trkpt>
      <trkpt lat="42.85613" lon="0.24507">
        <ele>1910.5</ele>
        <time>2022-02-09T09:27:28Z</time>
      </trkpt>
      <trkpt lat="42.85612" lon="0.24507">
        <ele>1910.7</ele>
        <time>2022-02-09T09:27:29Z</time>
      </trkpt>
      <trkpt lat="42.85612" lon="0.24506">
        <ele>1910.8</ele>
        <time>2022-02-09T09:27:30Z</time>
      </trkpt>
      <trkpt lat="42.85611" lon="0.24506">
        <ele>1911</ele>
        <time>2022-02-09T09:27:31Z</time>
      </trkpt>
      <trkpt lat="42.85611" lon="0.24506">
        <ele>1911.1</ele>
        <time>2022-02-09T09:27:32Z</time>
      </trkpt>
      <trkpt lat="42.8561" lon="0.24506">
        <ele>1911.2</ele>
        <time>2022-02-09T09:27:33Z</time>
      </trkpt>
      <trkpt lat="42.8561" lon="0.24506">
        <ele>1911.3</ele>
        <time>2022-02-09T09:27:34Z</time>
      </trkpt>
      <trkpt lat="42.85609" lon="0.24506">
        <ele>1911.4</ele>
        <time>2022-02-09T09:27:35Z</time>
      </trkpt>
      <trkpt lat="42.85608" lon="0.24505">
        <ele>1911.6</ele>
        <time>2022-02-09T09:27:36Z</time>
      </trkpt>
      <trkpt lat="42.85608" lon="0.24505">
        <ele>1911.8</ele>
        <time>2022-02-09T09:27:37Z</time>
      </trkpt>
      <trkpt lat="42.85607" lon="0.24505">
        <ele>1911.9</ele>
        <time>2022-02-09T09:27:38Z</time>
      </trkpt>
      <trkpt lat="42.85607" lon="0.24506">
        <ele>1912</ele>
        <time>2022-02-09T09:27:39Z</time>
      </trkpt>
      <trkpt lat="42.85606" lon="0.24506">
        <ele>1912.1</ele>
        <time>2022-02-09T09:27:40Z</time>
      </trkpt>
      <trkpt lat="42.85606" lon="0.24505">
        <ele>1912.2</ele>
        <time>2022-02-09T09:27:41Z</time>
      </trkpt>
      <trkpt lat="42.85606" lon="0.24505">
        <ele>1912.2</ele>
        <time>2022-02-09T09:27:42Z</time>
      </trkpt>
      <trkpt lat="42.85606" lon="0.24505">
        <ele>1912.3</ele>
        <time>2022-02-09T09:27:43Z</time>
      </trkpt>
      <trkpt lat="42.85606" lon="0.24505">
        <ele>1912.3</ele>
        <time>2022-02-09T09:27:44Z</time>
      </trkpt>
      <trkpt lat="42.85606" lon="0.24504">
        <ele>1912.4</ele>
        <time>2022-02-09T09:27:45Z</time>
      </trkpt>
      <trkpt lat="42.85606" lon="0.24503">
        <ele>1912.5</ele>
        <time>2022-02-09T09:27:46Z</time>
      </trkpt>
      <trkpt lat="42.85606" lon="0.24503">
        <ele>1912.7</ele>
        <time>2022-02-09T09:27:47Z</time>
      </trkpt>
      <trkpt lat="42.85606" lon="0.24502">
        <ele>1912.8</ele>
        <time>2022-02-09T09:27:48Z</time>
      </trkpt>
      <trkpt lat="42.85607" lon="0.24501">
        <ele>1912.9</ele>
        <time>2022-02-09T09:27:49Z</time>
      </trkpt>
      <trkpt lat="42.85607" lon="0.24501">
        <ele>1913.1</ele>
        <time>2022-02-09T09:27:50Z</time>
      </trkpt>
      <trkpt lat="42.85607" lon="0.245">
        <ele>1913.2</ele>
        <time>2022-02-09T09:27:51Z</time>
      </trkpt>
      <trkpt lat="42.85608" lon="0.24499">
        <ele>1913.4</ele>
        <time>2022-02-09T09:27:52Z</time>
      </trkpt>
      <trkpt lat="42.85609" lon="0.24498">
        <ele>1913.6</ele>
        <time>2022-02-09T09:27:53Z</time>
      </trkpt>
      <trkpt lat="42.85609" lon="0.24498">
        <ele>1913.7</ele>
        <time>2022-02-09T09:27:54Z</time>
      </trkpt>
      <trkpt lat="42.85609" lon="0.24497">
        <ele>1913.9</ele>
        <time>2022-02-09T09:27:55Z</time>
      </trkpt>
      <trkpt lat="42.8561" lon="0.24496">
        <ele>1914.1</ele>
        <time>2022-02-09T09:27:56Z</time>
      </trkpt>
      <trkpt lat="42.8561" lon="0.24495">
        <ele>1914.2</ele>
        <time>2022-02-09T09:27:57Z</time>
      </trkpt>
      <trkpt lat="42.85611" lon="0.24495">
        <ele>1914.4</ele>
        <time>2022-02-09T09:27:58Z</time>
      </trkpt>
      <trkpt lat="42.85611" lon="0.24494">
        <ele>1914.6</ele>
        <time>2022-02-09T09:27:59Z</time>
      </trkpt>
      <trkpt lat="42.85612" lon="0.24493">
        <ele>1914.7</ele>
        <time>2022-02-09T09:28:00Z</time>
      </trkpt>
      <trkpt lat="42.85612" lon="0.24493">
        <ele>1914.9</ele>
        <time>2022-02-09T09:28:01Z</time>
      </trkpt>
      <trkpt lat="42.85613" lon="0.24492">
        <ele>1915</ele>
        <time>2022-02-09T09:28:02Z</time>
      </trkpt>
      <trkpt lat="42.85614" lon="0.24492">
        <ele>1915.3</ele>
        <time>2022-02-09T09:28:03Z</time>
      </trkpt>
      <trkpt lat="42.85614" lon="0.24491">
        <ele>1915.4</ele>
        <time>2022-02-09T09:28:04Z</time>
      </trkpt>
      <trkpt lat="42.85615" lon="0.24491">
        <ele>1915.6</ele>
        <time>2022-02-09T09:28:05Z</time>
      </trkpt>
      <trkpt lat="42.85616" lon="0.2449">
        <ele>1915.7</ele>
        <time>2022-02-09T09:28:06Z</time>
      </trkpt>
      <trkpt lat="42.85616" lon="0.2449">
        <ele>1915.9</ele>
        <time>2022-02-09T09:28:07Z</time>
      </trkpt>
      <trkpt lat="42.85617" lon="0.2449">
        <ele>1916.1</ele>
        <time>2022-02-09T09:28:08Z</time>
      </trkpt>
      <trkpt lat="42.85618" lon="0.2449">
        <ele>1916.3</ele>
        <time>2022-02-09T09:28:09Z</time>
      </trkpt>
      <trkpt lat="42.85619" lon="0.24489">
        <ele>1916.5</ele>
        <time>2022-02-09T09:28:10Z</time>
      </trkpt>
      <trkpt lat="42.8562" lon="0.24489">
        <ele>1916.7</ele>
        <time>2022-02-09T09:28:11Z</time>
      </trkpt>
      <trkpt lat="42.8562" lon="0.24489">
        <ele>1916.9</ele>
        <time>2022-02-09T09:28:12Z</time>
      </trkpt>
      <trkpt lat="42.85621" lon="0.24489">
        <ele>1917.1</ele>
        <time>2022-02-09T09:28:13Z</time>
      </trkpt>
      <trkpt lat="42.85622" lon="0.24488">
        <ele>1917.2</ele>
        <time>2022-02-09T09:28:14Z</time>
      </trkpt>
      <trkpt lat="42.85622" lon="0.24487">
        <ele>1917.3</ele>
        <time>2022-02-09T09:28:15Z</time>
      </trkpt>
      <trkpt lat="42.85622" lon="0.24487">
        <ele>1917.4</ele>
        <time>2022-02-09T09:28:16Z</time>
      </trkpt>
      <trkpt lat="42.85621" lon="0.24486">
        <ele>1917.6</ele>
        <time>2022-02-09T09:28:17Z</time>
      </trkpt>
      <trkpt lat="42.85621" lon="0.24485">
        <ele>1917.7</ele>
        <time>2022-02-09T09:28:18Z</time>
      </trkpt>
      <trkpt lat="42.8562" lon="0.24484">
        <ele>1917.9</ele>
        <time>2022-02-09T09:28:19Z</time>
      </trkpt>
      <trkpt lat="42.8562" lon="0.24484">
        <ele>1918</ele>
        <time>2022-02-09T09:28:20Z</time>
      </trkpt>
      <trkpt lat="42.8562" lon="0.24483">
        <ele>1918.2</ele>
        <time>2022-02-09T09:28:21Z</time>
      </trkpt>
      <trkpt lat="42.85619" lon="0.24482">
        <ele>1918.4</ele>
        <time>2022-02-09T09:28:22Z</time>
      </trkpt>
      <trkpt lat="42.85618" lon="0.24481">
        <ele>1918.6</ele>
        <time>2022-02-09T09:28:23Z</time>
      </trkpt>
      <trkpt lat="42.85618" lon="0.24481">
        <ele>1918.7</ele>
        <time>2022-02-09T09:28:24Z</time>
      </trkpt>
      <trkpt lat="42.85618" lon="0.2448">
        <ele>1918.9</ele>
        <time>2022-02-09T09:28:25Z</time>
      </trkpt>
      <trkpt lat="42.85617" lon="0.24479">
        <ele>1919.1</ele>
        <time>2022-02-09T09:28:26Z</time>
      </trkpt>
      <trkpt lat="42.85616" lon="0.24478">
        <ele>1919.2</ele>
        <time>2022-02-09T09:28:27Z</time>
      </trkpt>
      <trkpt lat="42.85616" lon="0.24478">
        <ele>1919.4</ele>
        <time>2022-02-09T09:28:28Z</time>
      </trkpt>
      <trkpt lat="42.85615" lon="0.24477">
        <ele>1919.6</ele>
        <time>2022-02-09T09:28:29Z</time>
      </trkpt>
      <trkpt lat="42.85615" lon="0.24476">
        <ele>1919.8</ele>
        <time>2022-02-09T09:28:30Z</time>
      </trkpt>
      <trkpt lat="42.85614" lon="0.24475">
        <ele>1920</ele>
        <time>2022-02-09T09:28:31Z</time>
      </trkpt>
      <trkpt lat="42.85613" lon="0.24475">
        <ele>1920.2</ele>
        <time>2022-02-09T09:28:32Z</time>
      </trkpt>
      <trkpt lat="42.85613" lon="0.24474">
        <ele>1920.4</ele>
        <time>2022-02-09T09:28:33Z</time>
      </trkpt>
      <trkpt lat="42.85612" lon="0.24473">
        <ele>1920.5</ele>
        <time>2022-02-09T09:28:34Z</time>
      </trkpt>
      <trkpt lat="42.85611" lon="0.24473">
        <ele>1920.7</ele>
        <time>2022-02-09T09:28:35Z</time>
      </trkpt>
      <trkpt lat="42.85611" lon="0.24472">
        <ele>1920.9</ele>
        <time>2022-02-09T09:28:36Z</time>
      </trkpt>
      <trkpt lat="42.8561" lon="0.24472">
        <ele>1921.1</ele>
        <time>2022-02-09T09:28:37Z</time>
      </trkpt>
      <trkpt lat="42.85609" lon="0.24472">
        <ele>1921.3</ele>
        <time>2022-02-09T09:28:38Z</time>
      </trkpt>
      <trkpt lat="42.85609" lon="0.24471">
        <ele>1921.4</ele>
        <time>2022-02-09T09:28:39Z</time>
      </trkpt>
      <trkpt lat="42.85608" lon="0.24471">
        <ele>1921.6</ele>
        <time>2022-02-09T09:28:40Z</time>
      </trkpt>
      <trkpt lat="42.85608" lon="0.24471">
        <ele>1921.7</ele>
        <time>2022-02-09T09:28:41Z</time>
      </trkpt>
      <trkpt lat="42.85607" lon="0.2447">
        <ele>1921.7</ele>
        <time>2022-02-09T09:28:42Z</time>
      </trkpt>
      <trkpt lat="42.85607" lon="0.2447">
        <ele>1921.9</ele>
        <time>2022-02-09T09:28:43Z</time>
      </trkpt>
      <trkpt lat="42.85607" lon="0.24469">
        <ele>1922</ele>
        <time>2022-02-09T09:28:44Z</time>
      </trkpt>
      <trkpt lat="42.85608" lon="0.24469">
        <ele>1922.1</ele>
        <time>2022-02-09T09:28:45Z</time>
      </trkpt>
      <trkpt lat="42.85609" lon="0.24468">
        <ele>1922.3</ele>
        <time>2022-02-09T09:28:46Z</time>
      </trkpt>
      <trkpt lat="42.85609" lon="0.24467">
        <ele>1922.5</ele>
        <time>2022-02-09T09:28:47Z</time>
      </trkpt>
      <trkpt lat="42.85609" lon="0.24467">
        <ele>1922.6</ele>
        <time>2022-02-09T09:28:48Z</time>
      </trkpt>
      <trkpt lat="42.8561" lon="0.24466">
        <ele>1922.8</ele>
        <time>2022-02-09T09:28:49Z</time>
      </trkpt>
      <trkpt lat="42.85611" lon="0.24466">
        <ele>1922.9</ele>
        <time>2022-02-09T09:28:50Z</time>
      </trkpt>
      <trkpt lat="42.85611" lon="0.24466">
        <ele>1923</ele>
        <time>2022-02-09T09:28:51Z</time>
      </trkpt>
      <trkpt lat="42.85612" lon="0.24465">
        <ele>1923.2</ele>
        <time>2022-02-09T09:28:52Z</time>
      </trkpt>
      <trkpt lat="42.85612" lon="0.24465">
        <ele>1923.3</ele>
        <time>2022-02-09T09:28:53Z</time>
      </trkpt>
      <trkpt lat="42.85613" lon="0.24465">
        <ele>1923.5</ele>
        <time>2022-02-09T09:28:54Z</time>
      </trkpt>
      <trkpt lat="42.85614" lon="0.24465">
        <ele>1923.7</ele>
        <time>2022-02-09T09:28:55Z</time>
      </trkpt>
      <trkpt lat="42.85614" lon="0.24465">
        <ele>1923.8</ele>
        <time>2022-02-09T09:28:56Z</time>
      </trkpt>
      <trkpt lat="42.85615" lon="0.24465">
        <ele>1923.9</ele>
        <time>2022-02-09T09:28:57Z</time>
      </trkpt>
      <trkpt lat="42.85616" lon="0.24465">
        <ele>1924.1</ele>
        <time>2022-02-09T09:28:58Z</time>
      </trkpt>
      <trkpt lat="42.85616" lon="0.24465">
        <ele>1924.2</ele>
        <time>2022-02-09T09:28:59Z</time>
      </trkpt>
      <trkpt lat="42.85617" lon="0.24465">
        <ele>1924.4</ele>
        <time>2022-02-09T09:29:00Z</time>
      </trkpt>
      <trkpt lat="42.85618" lon="0.24465">
        <ele>1924.5</ele>
        <time>2022-02-09T09:29:01Z</time>
      </trkpt>
      <trkpt lat="42.85618" lon="0.24465">
        <ele>1924.6</ele>
        <time>2022-02-09T09:29:02Z</time>
      </trkpt>
      <trkpt lat="42.85619" lon="0.24465">
        <ele>1924.8</ele>
        <time>2022-02-09T09:29:03Z</time>
      </trkpt>
      <trkpt lat="42.8562" lon="0.24464">
        <ele>1925</ele>
        <time>2022-02-09T09:29:04Z</time>
      </trkpt>
      <trkpt lat="42.8562" lon="0.24464">
        <ele>1925.1</ele>
        <time>2022-02-09T09:29:05Z</time>
      </trkpt>
      <trkpt lat="42.85621" lon="0.24464">
        <ele>1925.2</ele>
        <time>2022-02-09T09:29:06Z</time>
      </trkpt>
      <trkpt lat="42.85621" lon="0.24464">
        <ele>1925.4</ele>
        <time>2022-02-09T09:29:07Z</time>
      </trkpt>
      <trkpt lat="42.85622" lon="0.24464">
        <ele>1925.5</ele>
        <time>2022-02-09T09:29:08Z</time>
      </trkpt>
      <trkpt lat="42.85622" lon="0.24464">
        <ele>1925.6</ele>
        <time>2022-02-09T09:29:09Z</time>
      </trkpt>
      <trkpt lat="42.85623" lon="0.24463">
        <ele>1925.8</ele>
        <time>2022-02-09T09:29:10Z</time>
      </trkpt>
      <trkpt lat="42.85623" lon="0.24463">
        <ele>1925.9</ele>
        <time>2022-02-09T09:29:11Z</time>
      </trkpt>
      <trkpt lat="42.85624" lon="0.24462">
        <ele>1926</ele>
        <time>2022-02-09T09:29:12Z</time>
      </trkpt>
      <trkpt lat="42.85625" lon="0.24462">
        <ele>1926.2</ele>
        <time>2022-02-09T09:29:13Z</time>
      </trkpt>
      <trkpt lat="42.85625" lon="0.24462">
        <ele>1926.3</ele>
        <time>2022-02-09T09:29:14Z</time>
      </trkpt>
      <trkpt lat="42.85626" lon="0.24461">
        <ele>1926.5</ele>
        <time>2022-02-09T09:29:15Z</time>
      </trkpt>
      <trkpt lat="42.85626" lon="0.24461">
        <ele>1926.6</ele>
        <time>2022-02-09T09:29:16Z</time>
      </trkpt>
      <trkpt lat="42.85627" lon="0.24461">
        <ele>1926.7</ele>
        <time>2022-02-09T09:29:17Z</time>
      </trkpt>
      <trkpt lat="42.85627" lon="0.2446">
        <ele>1926.8</ele>
        <time>2022-02-09T09:29:18Z</time>
      </trkpt>
      <trkpt lat="42.85627" lon="0.2446">
        <ele>1926.9</ele>
        <time>2022-02-09T09:29:19Z</time>
      </trkpt>
      <trkpt lat="42.85627" lon="0.2446">
        <ele>1926.9</ele>
        <time>2022-02-09T09:29:20Z</time>
      </trkpt>
      <trkpt lat="42.85627" lon="0.2446">
        <ele>1927</ele>
        <time>2022-02-09T09:29:21Z</time>
      </trkpt>
      <trkpt lat="42.85627" lon="0.2446">
        <ele>1927</ele>
        <time>2022-02-09T09:29:22Z</time>
      </trkpt>
      <trkpt lat="42.85627" lon="0.2446">
        <ele>1927</ele>
        <time>2022-02-09T09:29:23Z</time>
      </trkpt>
      <trkpt lat="42.85627" lon="0.2446">
        <ele>1927</ele>
        <time>2022-02-09T09:29:24Z</time>
      </trkpt>
      <trkpt lat="42.85627" lon="0.2446">
        <ele>1927</ele>
        <time>2022-02-09T09:29:25Z</time>
      </trkpt>
      <trkpt lat="42.85627" lon="0.2446">
        <ele>1927</ele>
        <time>2022-02-09T09:29:26Z</time>
      </trkpt>
      <trkpt lat="42.85627" lon="0.2446">
        <ele>1927</ele>
        <time>2022-02-09T09:29:27Z</time>
      </trkpt>
      <trkpt lat="42.85627" lon="0.2446">
        <ele>1927</ele>
        <time>2022-02-09T09:29:28Z</time>
      </trkpt>
      <trkpt lat="42.85627" lon="0.2446">
        <ele>1927</ele>
        <time>2022-02-09T09:29:29Z</time>
      </trkpt>
      <trkpt lat="42.85627" lon="0.2446">
        <ele>1927</ele>
        <time>2022-02-09T09:29:30Z</time>
      </trkpt>
      <trkpt lat="42.85627" lon="0.2446">
        <ele>1927</ele>
        <time>2022-02-09T09:29:31Z</time>
      </trkpt>
      <trkpt lat="42.85627" lon="0.2446">
        <ele>1927</ele>
        <time>2022-02-09T09:29:32Z</time>
      </trkpt>
      <trkpt lat="42.85627" lon="0.2446">
        <ele>1927</ele>
        <time>2022-02-09T09:29:33Z</time>
      </trkpt>
      <trkpt lat="42.85627" lon="0.24459">
        <ele>1927.1</ele>
        <time>2022-02-09T09:29:34Z</time>
      </trkpt>
      <trkpt lat="42.85626" lon="0.24458">
        <ele>1927.3</ele>
        <time>2022-02-09T09:29:35Z</time>
      </trkpt>
      <trkpt lat="42.85626" lon="0.24458">
        <ele>1927.4</ele>
        <time>2022-02-09T09:29:36Z</time>
      </trkpt>
      <trkpt lat="42.85625" lon="0.24458">
        <ele>1927.6</ele>
        <time>2022-02-09T09:29:37Z</time>
      </trkpt>
      <trkpt lat="42.85624" lon="0.24457">
        <ele>1927.7</ele>
        <time>2022-02-09T09:29:38Z</time>
      </trkpt>
      <trkpt lat="42.85624" lon="0.24456">
        <ele>1927.9</ele>
        <time>2022-02-09T09:29:39Z</time>
      </trkpt>
      <trkpt lat="42.85623" lon="0.24456">
        <ele>1928.1</ele>
        <time>2022-02-09T09:29:40Z</time>
      </trkpt>
      <trkpt lat="42.85623" lon="0.24455">
        <ele>1928.2</ele>
        <time>2022-02-09T09:29:41Z</time>
      </trkpt>
      <trkpt lat="42.85622" lon="0.24454">
        <ele>1928.4</ele>
        <time>2022-02-09T09:29:42Z</time>
      </trkpt>
      <trkpt lat="42.85622" lon="0.24454">
        <ele>1928.6</ele>
        <time>2022-02-09T09:29:43Z</time>
      </trkpt>
      <trkpt lat="42.85621" lon="0.24453">
        <ele>1928.8</ele>
        <time>2022-02-09T09:29:44Z</time>
      </trkpt>
      <trkpt lat="42.8562" lon="0.24452">
        <ele>1929</ele>
        <time>2022-02-09T09:29:45Z</time>
      </trkpt>
      <trkpt lat="42.8562" lon="0.24451">
        <ele>1929.1</ele>
        <time>2022-02-09T09:29:46Z</time>
      </trkpt>
      <trkpt lat="42.85619" lon="0.2445">
        <ele>1929.3</ele>
        <time>2022-02-09T09:29:47Z</time>
      </trkpt>
      <trkpt lat="42.85619" lon="0.2445">
        <ele>1929.5</ele>
        <time>2022-02-09T09:29:48Z</time>
      </trkpt>
      <trkpt lat="42.85618" lon="0.24449">
        <ele>1929.7</ele>
        <time>2022-02-09T09:29:49Z</time>
      </trkpt>
      <trkpt lat="42.85618" lon="0.24448">
        <ele>1929.9</ele>
        <time>2022-02-09T09:29:50Z</time>
      </trkpt>
      <trkpt lat="42.85617" lon="0.24447">
        <ele>1930</ele>
        <time>2022-02-09T09:29:51Z</time>
      </trkpt>
      <trkpt lat="42.85617" lon="0.24447">
        <ele>1930.2</ele>
        <time>2022-02-09T09:29:52Z</time>
      </trkpt>
      <trkpt lat="42.85616" lon="0.24446">
        <ele>1930.4</ele>
        <time>2022-02-09T09:29:53Z</time>
      </trkpt>
      <trkpt lat="42.85615" lon="0.24445">
        <ele>1930.6</ele>
        <time>2022-02-09T09:29:54Z</time>
      </trkpt>
      <trkpt lat="42.85615" lon="0.24445">
        <ele>1930.7</ele>
        <time>2022-02-09T09:29:55Z</time>
      </trkpt>
      <trkpt lat="42.85614" lon="0.24444">
        <ele>1930.9</ele>
        <time>2022-02-09T09:29:56Z</time>
      </trkpt>
      <trkpt lat="42.85614" lon="0.24444">
        <ele>1931</ele>
        <time>2022-02-09T09:29:57Z</time>
      </trkpt>
      <trkpt lat="42.85613" lon="0.24444">
        <ele>1931.2</ele>
        <time>2022-02-09T09:29:58Z</time>
      </trkpt>
      <trkpt lat="42.85612" lon="0.24443">
        <ele>1931.4</ele>
        <time>2022-02-09T09:29:59Z</time>
      </trkpt>
      <trkpt lat="42.85611" lon="0.24443">
        <ele>1931.6</ele>
        <time>2022-02-09T09:30:00Z</time>
      </trkpt>
      <trkpt lat="42.85611" lon="0.24443">
        <ele>1931.7</ele>
        <time>2022-02-09T09:30:01Z</time>
      </trkpt>
      <trkpt lat="42.85611" lon="0.24442">
        <ele>1931.8</ele>
        <time>2022-02-09T09:30:02Z</time>
      </trkpt>
      <trkpt lat="42.85611" lon="0.24441">
        <ele>1931.9</ele>
        <time>2022-02-09T09:30:03Z</time>
      </trkpt>
      <trkpt lat="42.85611" lon="0.24441">
        <ele>1932.1</ele>
        <time>2022-02-09T09:30:04Z</time>
      </trkpt>
      <trkpt lat="42.85612" lon="0.2444">
        <ele>1932.2</ele>
        <time>2022-02-09T09:30:05Z</time>
      </trkpt>
      <trkpt lat="42.85612" lon="0.24439">
        <ele>1932.4</ele>
        <time>2022-02-09T09:30:06Z</time>
      </trkpt>
      <trkpt lat="42.85612" lon="0.24439">
        <ele>1932.5</ele>
        <time>2022-02-09T09:30:07Z</time>
      </trkpt>
      <trkpt lat="42.85613" lon="0.24438">
        <ele>1932.7</ele>
        <time>2022-02-09T09:30:08Z</time>
      </trkpt>
      <trkpt lat="42.85614" lon="0.24437">
        <ele>1932.9</ele>
        <time>2022-02-09T09:30:09Z</time>
      </trkpt>
      <trkpt lat="42.85614" lon="0.24437">
        <ele>1933</ele>
        <time>2022-02-09T09:30:10Z</time>
      </trkpt>
      <trkpt lat="42.85615" lon="0.24437">
        <ele>1933.1</ele>
        <time>2022-02-09T09:30:11Z</time>
      </trkpt>
      <trkpt lat="42.85615" lon="0.24436">
        <ele>1933.3</ele>
        <time>2022-02-09T09:30:12Z</time>
      </trkpt>
      <trkpt lat="42.85616" lon="0.24436">
        <ele>1933.4</ele>
        <time>2022-02-09T09:30:13Z</time>
      </trkpt>
      <trkpt lat="42.85617" lon="0.24436">
        <ele>1933.6</ele>
        <time>2022-02-09T09:30:14Z</time>
      </trkpt>
      <trkpt lat="42.85617" lon="0.24436">
        <ele>1933.8</ele>
        <time>2022-02-09T09:30:15Z</time>
      </trkpt>
      <trkpt lat="42.85618" lon="0.24436">
        <ele>1933.9</ele>
        <time>2022-02-09T09:30:16Z</time>
      </trkpt>
      <trkpt lat="42.85619" lon="0.24436">
        <ele>1934</ele>
        <time>2022-02-09T09:30:17Z</time>
      </trkpt>
      <trkpt lat="42.85619" lon="0.24436">
        <ele>1934.2</ele>
        <time>2022-02-09T09:30:18Z</time>
      </trkpt>
      <trkpt lat="42.8562" lon="0.24435">
        <ele>1934.3</ele>
        <time>2022-02-09T09:30:19Z</time>
      </trkpt>
      <trkpt lat="42.8562" lon="0.24435">
        <ele>1934.5</ele>
        <time>2022-02-09T09:30:20Z</time>
      </trkpt>
      <trkpt lat="42.85621" lon="0.24435">
        <ele>1934.7</ele>
        <time>2022-02-09T09:30:21Z</time>
      </trkpt>
      <trkpt lat="42.85622" lon="0.24435">
        <ele>1934.8</ele>
        <time>2022-02-09T09:30:22Z</time>
      </trkpt>
      <trkpt lat="42.85622" lon="0.24435">
        <ele>1934.9</ele>
        <time>2022-02-09T09:30:23Z</time>
      </trkpt>
      <trkpt lat="42.85623" lon="0.24434">
        <ele>1935.1</ele>
        <time>2022-02-09T09:30:24Z</time>
      </trkpt>
      <trkpt lat="42.85623" lon="0.24434">
        <ele>1935.2</ele>
        <time>2022-02-09T09:30:25Z</time>
      </trkpt>
      <trkpt lat="42.85624" lon="0.24434">
        <ele>1935.3</ele>
        <time>2022-02-09T09:30:26Z</time>
      </trkpt>
      <trkpt lat="42.85625" lon="0.24434">
        <ele>1935.4</ele>
        <time>2022-02-09T09:30:27Z</time>
      </trkpt>
      <trkpt lat="42.85625" lon="0.24434">
        <ele>1935.6</ele>
        <time>2022-02-09T09:30:28Z</time>
      </trkpt>
      <trkpt lat="42.85626" lon="0.24433">
        <ele>1935.7</ele>
        <time>2022-02-09T09:30:29Z</time>
      </trkpt>
      <trkpt lat="42.85626" lon="0.24433">
        <ele>1935.8</ele>
        <time>2022-02-09T09:30:30Z</time>
      </trkpt>
      <trkpt lat="42.85626" lon="0.24433">
        <ele>1935.9</ele>
        <time>2022-02-09T09:30:31Z</time>
      </trkpt>
      <trkpt lat="42.85627" lon="0.24432">
        <ele>1936</ele>
        <time>2022-02-09T09:30:32Z</time>
      </trkpt>
      <trkpt lat="42.85627" lon="0.24432">
        <ele>1936.2</ele>
        <time>2022-02-09T09:30:33Z</time>
      </trkpt>
      <trkpt lat="42.85628" lon="0.24431">
        <ele>1936.3</ele>
        <time>2022-02-09T09:30:34Z</time>
      </trkpt>
      <trkpt lat="42.85628" lon="0.24431">
        <ele>1936.4</ele>
        <time>2022-02-09T09:30:35Z</time>
      </trkpt>
      <trkpt lat="42.85629" lon="0.24431">
        <ele>1936.6</ele>
        <time>2022-02-09T09:30:36Z</time>
      </trkpt>
      <trkpt lat="42.85629" lon="0.2443">
        <ele>1936.7</ele>
        <time>2022-02-09T09:30:37Z</time>
      </trkpt>
      <trkpt lat="42.8563" lon="0.24429">
        <ele>1936.9</ele>
        <time>2022-02-09T09:30:38Z</time>
      </trkpt>
      <trkpt lat="42.8563" lon="0.24428">
        <ele>1937.1</ele>
        <time>2022-02-09T09:30:39Z</time>
      </trkpt>
      <trkpt lat="42.85631" lon="0.24427">
        <ele>1937.3</ele>
        <time>2022-02-09T09:30:40Z</time>
      </trkpt>
      <trkpt lat="42.85631" lon="0.24427">
        <ele>1937.4</ele>
        <time>2022-02-09T09:30:41Z</time>
      </trkpt>
      <trkpt lat="42.85631" lon="0.24426">
        <ele>1937.5</ele>
        <time>2022-02-09T09:30:42Z</time>
      </trkpt>
      <trkpt lat="42.85631" lon="0.24425">
        <ele>1937.7</ele>
        <time>2022-02-09T09:30:43Z</time>
      </trkpt>
      <trkpt lat="42.8563" lon="0.24425">
        <ele>1937.8</ele>
        <time>2022-02-09T09:30:44Z</time>
      </trkpt>
      <trkpt lat="42.8563" lon="0.24424">
        <ele>1938</ele>
        <time>2022-02-09T09:30:45Z</time>
      </trkpt>
      <trkpt lat="42.8563" lon="0.24423">
        <ele>1938.1</ele>
        <time>2022-02-09T09:30:46Z</time>
      </trkpt>
      <trkpt lat="42.85629" lon="0.24423">
        <ele>1938.3</ele>
        <time>2022-02-09T09:30:47Z</time>
      </trkpt>
      <trkpt lat="42.85628" lon="0.24422">
        <ele>1938.4</ele>
        <time>2022-02-09T09:30:48Z</time>
      </trkpt>
      <trkpt lat="42.85628" lon="0.24422">
        <ele>1938.6</ele>
        <time>2022-02-09T09:30:49Z</time>
      </trkpt>
      <trkpt lat="42.85627" lon="0.24421">
        <ele>1938.7</ele>
        <time>2022-02-09T09:30:50Z</time>
      </trkpt>
      <trkpt lat="42.85627" lon="0.24421">
        <ele>1938.9</ele>
        <time>2022-02-09T09:30:51Z</time>
      </trkpt>
      <trkpt lat="42.85626" lon="0.2442">
        <ele>1939.1</ele>
        <time>2022-02-09T09:30:52Z</time>
      </trkpt>
      <trkpt lat="42.85626" lon="0.2442">
        <ele>1939.2</ele>
        <time>2022-02-09T09:30:53Z</time>
      </trkpt>
      <trkpt lat="42.85625" lon="0.24419">
        <ele>1939.4</ele>
        <time>2022-02-09T09:30:54Z</time>
      </trkpt>
      <trkpt lat="42.85625" lon="0.24418">
        <ele>1939.6</ele>
        <time>2022-02-09T09:30:55Z</time>
      </trkpt>
      <trkpt lat="42.85624" lon="0.24418">
        <ele>1939.7</ele>
        <time>2022-02-09T09:30:56Z</time>
      </trkpt>
      <trkpt lat="42.85624" lon="0.24417">
        <ele>1939.8</ele>
        <time>2022-02-09T09:30:57Z</time>
      </trkpt>
      <trkpt lat="42.85623" lon="0.24416">
        <ele>1940</ele>
        <time>2022-02-09T09:30:58Z</time>
      </trkpt>
      <trkpt lat="42.85623" lon="0.24416">
        <ele>1940.1</ele>
        <time>2022-02-09T09:30:59Z</time>
      </trkpt>
      <trkpt lat="42.85623" lon="0.24415">
        <ele>1940.3</ele>
        <time>2022-02-09T09:31:00Z</time>
      </trkpt>
      <trkpt lat="42.85622" lon="0.24414">
        <ele>1940.5</ele>
        <time>2022-02-09T09:31:01Z</time>
      </trkpt>
      <trkpt lat="42.85622" lon="0.24413">
        <ele>1940.6</ele>
        <time>2022-02-09T09:31:02Z</time>
      </trkpt>
      <trkpt lat="42.85621" lon="0.24412">
        <ele>1940.8</ele>
        <time>2022-02-09T09:31:03Z</time>
      </trkpt>
      <trkpt lat="42.85621" lon="0.24412">
        <ele>1941</ele>
        <time>2022-02-09T09:31:04Z</time>
      </trkpt>
      <trkpt lat="42.8562" lon="0.24411">
        <ele>1941.1</ele>
        <time>2022-02-09T09:31:05Z</time>
      </trkpt>
      <trkpt lat="42.8562" lon="0.2441">
        <ele>1941.3</ele>
        <time>2022-02-09T09:31:06Z</time>
      </trkpt>
      <trkpt lat="42.8562" lon="0.24409">
        <ele>1941.4</ele>
        <time>2022-02-09T09:31:07Z</time>
      </trkpt>
      <trkpt lat="42.85619" lon="0.24408">
        <ele>1941.6</ele>
        <time>2022-02-09T09:31:08Z</time>
      </trkpt>
      <trkpt lat="42.85619" lon="0.24408">
        <ele>1941.7</ele>
        <time>2022-02-09T09:31:09Z</time>
      </trkpt>
      <trkpt lat="42.85619" lon="0.24407">
        <ele>1941.9</ele>
        <time>2022-02-09T09:31:10Z</time>
      </trkpt>
      <trkpt lat="42.85618" lon="0.24406">
        <ele>1942</ele>
        <time>2022-02-09T09:31:11Z</time>
      </trkpt>
      <trkpt lat="42.85618" lon="0.24405">
        <ele>1942.2</ele>
        <time>2022-02-09T09:31:12Z</time>
      </trkpt>
      <trkpt lat="42.85618" lon="0.24404">
        <ele>1942.4</ele>
        <time>2022-02-09T09:31:13Z</time>
      </trkpt>
      <trkpt lat="42.85618" lon="0.24403">
        <ele>1942.5</ele>
        <time>2022-02-09T09:31:14Z</time>
      </trkpt>
      <trkpt lat="42.85617" lon="0.24402">
        <ele>1942.7</ele>
        <time>2022-02-09T09:31:15Z</time>
      </trkpt>
      <trkpt lat="42.85617" lon="0.24401">
        <ele>1942.9</ele>
        <time>2022-02-09T09:31:16Z</time>
      </trkpt>
      <trkpt lat="42.85617" lon="0.244">
        <ele>1943.1</ele>
        <time>2022-02-09T09:31:17Z</time>
      </trkpt>
      <trkpt lat="42.85617" lon="0.24399">
        <ele>1943.2</ele>
        <time>2022-02-09T09:31:18Z</time>
      </trkpt>
      <trkpt lat="42.85616" lon="0.24399">
        <ele>1943.4</ele>
        <time>2022-02-09T09:31:19Z</time>
      </trkpt>
      <trkpt lat="42.85616" lon="0.24398">
        <ele>1943.6</ele>
        <time>2022-02-09T09:31:20Z</time>
      </trkpt>
      <trkpt lat="42.85615" lon="0.24397">
        <ele>1943.8</ele>
        <time>2022-02-09T09:31:21Z</time>
      </trkpt>
      <trkpt lat="42.85615" lon="0.24396">
        <ele>1943.9</ele>
        <time>2022-02-09T09:31:22Z</time>
      </trkpt>
      <trkpt lat="42.85615" lon="0.24395">
        <ele>1944.1</ele>
        <time>2022-02-09T09:31:23Z</time>
      </trkpt>
      <trkpt lat="42.85615" lon="0.24394">
        <ele>1944.2</ele>
        <time>2022-02-09T09:31:24Z</time>
      </trkpt>
      <trkpt lat="42.85614" lon="0.24394">
        <ele>1944.4</ele>
        <time>2022-02-09T09:31:25Z</time>
      </trkpt>
      <trkpt lat="42.85614" lon="0.24393">
        <ele>1944.5</ele>
        <time>2022-02-09T09:31:26Z</time>
      </trkpt>
      <trkpt lat="42.85614" lon="0.24392">
        <ele>1944.6</ele>
        <time>2022-02-09T09:31:27Z</time>
      </trkpt>
      <trkpt lat="42.85614" lon="0.24391">
        <ele>1944.8</ele>
        <time>2022-02-09T09:31:28Z</time>
      </trkpt>
      <trkpt lat="42.85614" lon="0.2439">
        <ele>1944.9</ele>
        <time>2022-02-09T09:31:29Z</time>
      </trkpt>
      <trkpt lat="42.85613" lon="0.24389">
        <ele>1945.1</ele>
        <time>2022-02-09T09:31:30Z</time>
      </trkpt>
      <trkpt lat="42.85613" lon="0.24389">
        <ele>1945.3</ele>
        <time>2022-02-09T09:31:31Z</time>
      </trkpt>
      <trkpt lat="42.85613" lon="0.24388">
        <ele>1945.4</ele>
        <time>2022-02-09T09:31:32Z</time>
      </trkpt>
      <trkpt lat="42.85612" lon="0.24387">
        <ele>1945.6</ele>
        <time>2022-02-09T09:31:33Z</time>
      </trkpt>
      <trkpt lat="42.85612" lon="0.24386">
        <ele>1945.8</ele>
        <time>2022-02-09T09:31:34Z</time>
      </trkpt>
      <trkpt lat="42.85612" lon="0.24385">
        <ele>1946</ele>
        <time>2022-02-09T09:31:35Z</time>
      </trkpt>
      <trkpt lat="42.85611" lon="0.24384">
        <ele>1946.1</ele>
        <time>2022-02-09T09:31:36Z</time>
      </trkpt>
      <trkpt lat="42.85611" lon="0.24383">
        <ele>1946.3</ele>
        <time>2022-02-09T09:31:37Z</time>
      </trkpt>
      <trkpt lat="42.85611" lon="0.24382">
        <ele>1946.4</ele>
        <time>2022-02-09T09:31:38Z</time>
      </trkpt>
      <trkpt lat="42.8561" lon="0.24382">
        <ele>1946.6</ele>
        <time>2022-02-09T09:31:39Z</time>
      </trkpt>
      <trkpt lat="42.8561" lon="0.24381">
        <ele>1946.7</ele>
        <time>2022-02-09T09:31:40Z</time>
      </trkpt>
      <trkpt lat="42.8561" lon="0.2438">
        <ele>1946.9</ele>
        <time>2022-02-09T09:31:41Z</time>
      </trkpt>
      <trkpt lat="42.85609" lon="0.24379">
        <ele>1947.1</ele>
        <time>2022-02-09T09:31:42Z</time>
      </trkpt>
      <trkpt lat="42.85609" lon="0.24378">
        <ele>1947.2</ele>
        <time>2022-02-09T09:31:43Z</time>
      </trkpt>
      <trkpt lat="42.85609" lon="0.24377">
        <ele>1947.4</ele>
        <time>2022-02-09T09:31:44Z</time>
      </trkpt>
      <trkpt lat="42.85608" lon="0.24376">
        <ele>1947.6</ele>
        <time>2022-02-09T09:31:45Z</time>
      </trkpt>
      <trkpt lat="42.85608" lon="0.24376">
        <ele>1947.7</ele>
        <time>2022-02-09T09:31:46Z</time>
      </trkpt>
      <trkpt lat="42.85607" lon="0.24375">
        <ele>1947.9</ele>
        <time>2022-02-09T09:31:47Z</time>
      </trkpt>
      <trkpt lat="42.85607" lon="0.24374">
        <ele>1948.1</ele>
        <time>2022-02-09T09:31:48Z</time>
      </trkpt>
      <trkpt lat="42.85606" lon="0.24373">
        <ele>1948.3</ele>
        <time>2022-02-09T09:31:49Z</time>
      </trkpt>
      <trkpt lat="42.85606" lon="0.24373">
        <ele>1948.4</ele>
        <time>2022-02-09T09:31:50Z</time>
      </trkpt>
      <trkpt lat="42.85605" lon="0.24372">
        <ele>1948.6</ele>
        <time>2022-02-09T09:31:51Z</time>
      </trkpt>
      <trkpt lat="42.85605" lon="0.24371">
        <ele>1948.7</ele>
        <time>2022-02-09T09:31:52Z</time>
      </trkpt>
      <trkpt lat="42.85604" lon="0.24371">
        <ele>1948.9</ele>
        <time>2022-02-09T09:31:53Z</time>
      </trkpt>
      <trkpt lat="42.85604" lon="0.2437">
        <ele>1949</ele>
        <time>2022-02-09T09:31:54Z</time>
      </trkpt>
      <trkpt lat="42.85603" lon="0.24369">
        <ele>1949.2</ele>
        <time>2022-02-09T09:31:55Z</time>
      </trkpt>
      <trkpt lat="42.85603" lon="0.24369">
        <ele>1949.4</ele>
        <time>2022-02-09T09:31:56Z</time>
      </trkpt>
      <trkpt lat="42.85602" lon="0.24368">
        <ele>1949.6</ele>
        <time>2022-02-09T09:31:57Z</time>
      </trkpt>
      <trkpt lat="42.85602" lon="0.24368">
        <ele>1949.7</ele>
        <time>2022-02-09T09:31:58Z</time>
      </trkpt>
      <trkpt lat="42.85601" lon="0.24367">
        <ele>1949.8</ele>
        <time>2022-02-09T09:31:59Z</time>
      </trkpt>
      <trkpt lat="42.85601" lon="0.24367">
        <ele>1950</ele>
        <time>2022-02-09T09:32:00Z</time>
      </trkpt>
      <trkpt lat="42.856" lon="0.24366">
        <ele>1950.1</ele>
        <time>2022-02-09T09:32:01Z</time>
      </trkpt>
      <trkpt lat="42.85599" lon="0.24365">
        <ele>1950.3</ele>
        <time>2022-02-09T09:32:02Z</time>
      </trkpt>
      <trkpt lat="42.85599" lon="0.24365">
        <ele>1950.5</ele>
        <time>2022-02-09T09:32:03Z</time>
      </trkpt>
      <trkpt lat="42.85598" lon="0.24364">
        <ele>1950.7</ele>
        <time>2022-02-09T09:32:04Z</time>
      </trkpt>
      <trkpt lat="42.85597" lon="0.24363">
        <ele>1950.9</ele>
        <time>2022-02-09T09:32:05Z</time>
      </trkpt>
      <trkpt lat="42.85597" lon="0.24363">
        <ele>1951.1</ele>
        <time>2022-02-09T09:32:06Z</time>
      </trkpt>
      <trkpt lat="42.85596" lon="0.24362">
        <ele>1951.2</ele>
        <time>2022-02-09T09:32:07Z</time>
      </trkpt>
      <trkpt lat="42.85596" lon="0.24362">
        <ele>1951.4</ele>
        <time>2022-02-09T09:32:08Z</time>
      </trkpt>
      <trkpt lat="42.85595" lon="0.24361">
        <ele>1951.5</ele>
        <time>2022-02-09T09:32:09Z</time>
      </trkpt>
      <trkpt lat="42.85595" lon="0.24361">
        <ele>1951.6</ele>
        <time>2022-02-09T09:32:10Z</time>
      </trkpt>
      <trkpt lat="42.85594" lon="0.2436">
        <ele>1951.8</ele>
        <time>2022-02-09T09:32:11Z</time>
      </trkpt>
      <trkpt lat="42.85594" lon="0.24359">
        <ele>1952</ele>
        <time>2022-02-09T09:32:12Z</time>
      </trkpt>
      <trkpt lat="42.85593" lon="0.24359">
        <ele>1952.1</ele>
        <time>2022-02-09T09:32:13Z</time>
      </trkpt>
      <trkpt lat="42.85593" lon="0.24358">
        <ele>1952.3</ele>
        <time>2022-02-09T09:32:14Z</time>
      </trkpt>
      <trkpt lat="42.85592" lon="0.24358">
        <ele>1952.4</ele>
        <time>2022-02-09T09:32:15Z</time>
      </trkpt>
      <trkpt lat="42.85592" lon="0.24357">
        <ele>1952.6</ele>
        <time>2022-02-09T09:32:16Z</time>
      </trkpt>
      <trkpt lat="42.85591" lon="0.24356">
        <ele>1952.7</ele>
        <time>2022-02-09T09:32:17Z</time>
      </trkpt>
      <trkpt lat="42.85591" lon="0.24355">
        <ele>1952.9</ele>
        <time>2022-02-09T09:32:18Z</time>
      </trkpt>
      <trkpt lat="42.85591" lon="0.24355">
        <ele>1953</ele>
        <time>2022-02-09T09:32:19Z</time>
      </trkpt>
      <trkpt lat="42.8559" lon="0.24354">
        <ele>1953.2</ele>
        <time>2022-02-09T09:32:20Z</time>
      </trkpt>
      <trkpt lat="42.8559" lon="0.24353">
        <ele>1953.3</ele>
        <time>2022-02-09T09:32:21Z</time>
      </trkpt>
      <trkpt lat="42.8559" lon="0.24352">
        <ele>1953.4</ele>
        <time>2022-02-09T09:32:22Z</time>
      </trkpt>
      <trkpt lat="42.85589" lon="0.24352">
        <ele>1953.6</ele>
        <time>2022-02-09T09:32:23Z</time>
      </trkpt>
      <trkpt lat="42.85589" lon="0.24351">
        <ele>1953.7</ele>
        <time>2022-02-09T09:32:24Z</time>
      </trkpt>
      <trkpt lat="42.85589" lon="0.2435">
        <ele>1953.9</ele>
        <time>2022-02-09T09:32:25Z</time>
      </trkpt>
      <trkpt lat="42.85588" lon="0.2435">
        <ele>1954</ele>
        <time>2022-02-09T09:32:26Z</time>
      </trkpt>
      <trkpt lat="42.85588" lon="0.24349">
        <ele>1954.2</ele>
        <time>2022-02-09T09:32:27Z</time>
      </trkpt>
      <trkpt lat="42.85588" lon="0.24348">
        <ele>1954.3</ele>
        <time>2022-02-09T09:32:28Z</time>
      </trkpt>
      <trkpt lat="42.85587" lon="0.24348">
        <ele>1954.4</ele>
        <time>2022-02-09T09:32:29Z</time>
      </trkpt>
      <trkpt lat="42.85587" lon="0.24347">
        <ele>1954.5</ele>
        <time>2022-02-09T09:32:30Z</time>
      </trkpt>
      <trkpt lat="42.85587" lon="0.24346">
        <ele>1954.7</ele>
        <time>2022-02-09T09:32:31Z</time>
      </trkpt>
      <trkpt lat="42.85586" lon="0.24346">
        <ele>1954.8</ele>
        <time>2022-02-09T09:32:32Z</time>
      </trkpt>
      <trkpt lat="42.85586" lon="0.24345">
        <ele>1955</ele>
        <time>2022-02-09T09:32:33Z</time>
      </trkpt>
      <trkpt lat="42.85586" lon="0.24344">
        <ele>1955.2</ele>
        <time>2022-02-09T09:32:34Z</time>
      </trkpt>
      <trkpt lat="42.85585" lon="0.24343">
        <ele>1955.3</ele>
        <time>2022-02-09T09:32:35Z</time>
      </trkpt>
      <trkpt lat="42.85585" lon="0.24342">
        <ele>1955.5</ele>
        <time>2022-02-09T09:32:36Z</time>
      </trkpt>
      <trkpt lat="42.85585" lon="0.24341">
        <ele>1955.6</ele>
        <time>2022-02-09T09:32:37Z</time>
      </trkpt>
      <trkpt lat="42.85585" lon="0.24341">
        <ele>1955.8</ele>
        <time>2022-02-09T09:32:38Z</time>
      </trkpt>
      <trkpt lat="42.85584" lon="0.2434">
        <ele>1955.9</ele>
        <time>2022-02-09T09:32:39Z</time>
      </trkpt>
      <trkpt lat="42.85584" lon="0.24339">
        <ele>1956</ele>
        <time>2022-02-09T09:32:40Z</time>
      </trkpt>
      <trkpt lat="42.85584" lon="0.24338">
        <ele>1956.2</ele>
        <time>2022-02-09T09:32:41Z</time>
      </trkpt>
      <trkpt lat="42.85584" lon="0.24337">
        <ele>1956.4</ele>
        <time>2022-02-09T09:32:42Z</time>
      </trkpt>
      <trkpt lat="42.85583" lon="0.24336">
        <ele>1956.5</ele>
        <time>2022-02-09T09:32:43Z</time>
      </trkpt>
      <trkpt lat="42.85583" lon="0.24335">
        <ele>1956.7</ele>
        <time>2022-02-09T09:32:44Z</time>
      </trkpt>
      <trkpt lat="42.85583" lon="0.24335">
        <ele>1956.8</ele>
        <time>2022-02-09T09:32:45Z</time>
      </trkpt>
      <trkpt lat="42.85583" lon="0.24334">
        <ele>1957</ele>
        <time>2022-02-09T09:32:46Z</time>
      </trkpt>
      <trkpt lat="42.85582" lon="0.24333">
        <ele>1957.2</ele>
        <time>2022-02-09T09:32:47Z</time>
      </trkpt>
      <trkpt lat="42.85582" lon="0.24332">
        <ele>1957.3</ele>
        <time>2022-02-09T09:32:48Z</time>
      </trkpt>
      <trkpt lat="42.85582" lon="0.24331">
        <ele>1957.5</ele>
        <time>2022-02-09T09:32:49Z</time>
      </trkpt>
      <trkpt lat="42.85582" lon="0.24331">
        <ele>1957.6</ele>
        <time>2022-02-09T09:32:50Z</time>
      </trkpt>
      <trkpt lat="42.85582" lon="0.24331">
        <ele>1957.6</ele>
        <time>2022-02-09T09:32:51Z</time>
      </trkpt>
      <trkpt lat="42.85582" lon="0.24331">
        <ele>1957.6</ele>
        <time>2022-02-09T09:32:52Z</time>
      </trkpt>
      <trkpt lat="42.85582" lon="0.24331">
        <ele>1957.6</ele>
        <time>2022-02-09T09:32:53Z</time>
      </trkpt>
      <trkpt lat="42.85582" lon="0.24331">
        <ele>1957.6</ele>
        <time>2022-02-09T09:32:54Z</time>
      </trkpt>
      <trkpt lat="42.85582" lon="0.24331">
        <ele>1957.6</ele>
        <time>2022-02-09T09:32:55Z</time>
      </trkpt>
      <trkpt lat="42.85582" lon="0.24331">
        <ele>1957.6</ele>
        <time>2022-02-09T09:32:56Z</time>
      </trkpt>
      <trkpt lat="42.85582" lon="0.24331">
        <ele>1957.6</ele>
        <time>2022-02-09T09:32:57Z</time>
      </trkpt>
      <trkpt lat="42.85582" lon="0.24331">
        <ele>1957.6</ele>
        <time>2022-02-09T09:32:58Z</time>
      </trkpt>
      <trkpt lat="42.85582" lon="0.24331">
        <ele>1957.6</ele>
        <time>2022-02-09T09:32:59Z</time>
      </trkpt>
      <trkpt lat="42.85582" lon="0.24331">
        <ele>1957.6</ele>
        <time>2022-02-09T09:33:00Z</time>
      </trkpt>
      <trkpt lat="42.85582" lon="0.24331">
        <ele>1957.6</ele>
        <time>2022-02-09T09:33:01Z</time>
      </trkpt>
      <trkpt lat="42.85582" lon="0.24331">
        <ele>1957.6</ele>
        <time>2022-02-09T09:33:02Z</time>
      </trkpt>
      <trkpt lat="42.85582" lon="0.24331">
        <ele>1957.6</ele>
        <time>2022-02-09T09:33:03Z</time>
      </trkpt>
      <trkpt lat="42.85582" lon="0.24331">
        <ele>1957.6</ele>
        <time>2022-02-09T09:33:04Z</time>
      </trkpt>
      <trkpt lat="42.85582" lon="0.24331">
        <ele>1957.6</ele>
        <time>2022-02-09T09:33:05Z</time>
      </trkpt>
      <trkpt lat="42.85582" lon="0.24331">
        <ele>1957.6</ele>
        <time>2022-02-09T09:33:06Z</time>
      </trkpt>
      <trkpt lat="42.85582" lon="0.24331">
        <ele>1957.6</ele>
        <time>2022-02-09T09:33:07Z</time>
      </trkpt>
      <trkpt lat="42.85582" lon="0.24331">
        <ele>1957.6</ele>
        <time>2022-02-09T09:33:08Z</time>
      </trkpt>
      <trkpt lat="42.85582" lon="0.24331">
        <ele>1957.6</ele>
        <time>2022-02-09T09:33:09Z</time>
      </trkpt>
      <trkpt lat="42.85582" lon="0.24331">
        <ele>1957.6</ele>
        <time>2022-02-09T09:33:10Z</time>
      </trkpt>
      <trkpt lat="42.85582" lon="0.24331">
        <ele>1957.6</ele>
        <time>2022-02-09T09:33:11Z</time>
      </trkpt>
      <trkpt lat="42.85582" lon="0.24331">
        <ele>1957.6</ele>
        <time>2022-02-09T09:33:12Z</time>
      </trkpt>
      <trkpt lat="42.85582" lon="0.24331">
        <ele>1957.6</ele>
        <time>2022-02-09T09:33:13Z</time>
      </trkpt>
      <trkpt lat="42.85582" lon="0.24331">
        <ele>1957.6</ele>
        <time>2022-02-09T09:33:14Z</time>
      </trkpt>
      <trkpt lat="42.85582" lon="0.24331">
        <ele>1957.6</ele>
        <time>2022-02-09T09:33:15Z</time>
      </trkpt>
      <trkpt lat="42.85582" lon="0.24331">
        <ele>1957.6</ele>
        <time>2022-02-09T09:33:16Z</time>
      </trkpt>
      <trkpt lat="42.85582" lon="0.24331">
        <ele>1957.6</ele>
        <time>2022-02-09T09:33:17Z</time>
      </trkpt>
      <trkpt lat="42.85582" lon="0.24331">
        <ele>1957.6</ele>
        <time>2022-02-09T09:33:18Z</time>
      </trkpt>
      <trkpt lat="42.85582" lon="0.24331">
        <ele>1957.6</ele>
        <time>2022-02-09T09:33:19Z</time>
      </trkpt>
      <trkpt lat="42.85582" lon="0.24331">
        <ele>1957.6</ele>
        <time>2022-02-09T09:33:20Z</time>
      </trkpt>
      <trkpt lat="42.85582" lon="0.24331">
        <ele>1957.6</ele>
        <time>2022-02-09T09:33:21Z</time>
      </trkpt>
      <trkpt lat="42.85582" lon="0.24331">
        <ele>1957.6</ele>
        <time>2022-02-09T09:33:22Z</time>
      </trkpt>
      <trkpt lat="42.85582" lon="0.24331">
        <ele>1957.6</ele>
        <time>2022-02-09T09:33:23Z</time>
      </trkpt>
      <trkpt lat="42.85582" lon="0.24331">
        <ele>1957.6</ele>
        <time>2022-02-09T09:33:24Z</time>
      </trkpt>
      <trkpt lat="42.85582" lon="0.24331">
        <ele>1957.6</ele>
        <time>2022-02-09T09:33:25Z</time>
      </trkpt>
      <trkpt lat="42.85582" lon="0.24331">
        <ele>1957.6</ele>
        <time>2022-02-09T09:33:26Z</time>
      </trkpt>
      <trkpt lat="42.85582" lon="0.24331">
        <ele>1957.6</ele>
        <time>2022-02-09T09:33:27Z</time>
      </trkpt>
      <trkpt lat="42.85582" lon="0.24331">
        <ele>1957.6</ele>
        <time>2022-02-09T09:33:28Z</time>
      </trkpt>
      <trkpt lat="42.85582" lon="0.24331">
        <ele>1957.6</ele>
        <time>2022-02-09T09:33:29Z</time>
      </trkpt>
      <trkpt lat="42.85582" lon="0.24331">
        <ele>1957.6</ele>
        <time>2022-02-09T09:33:30Z</time>
      </trkpt>
      <trkpt lat="42.85582" lon="0.24331">
        <ele>1957.6</ele>
        <time>2022-02-09T09:33:31Z</time>
      </trkpt>
      <trkpt lat="42.85582" lon="0.24331">
        <ele>1957.6</ele>
        <time>2022-02-09T09:33:32Z</time>
      </trkpt>
      <trkpt lat="42.85582" lon="0.24331">
        <ele>1957.6</ele>
        <time>2022-02-09T09:33:33Z</time>
      </trkpt>
      <trkpt lat="42.85582" lon="0.24331">
        <ele>1957.6</ele>
        <time>2022-02-09T09:33:34Z</time>
      </trkpt>
      <trkpt lat="42.85582" lon="0.24331">
        <ele>1957.6</ele>
        <time>2022-02-09T09:33:35Z</time>
      </trkpt>
      <trkpt lat="42.85582" lon="0.24331">
        <ele>1957.6</ele>
        <time>2022-02-09T09:33:36Z</time>
      </trkpt>
      <trkpt lat="42.85582" lon="0.24331">
        <ele>1957.6</ele>
        <time>2022-02-09T09:33:37Z</time>
      </trkpt>
      <trkpt lat="42.85582" lon="0.24331">
        <ele>1957.6</ele>
        <time>2022-02-09T09:33:38Z</time>
      </trkpt>
      <trkpt lat="42.85582" lon="0.24331">
        <ele>1957.6</ele>
        <time>2022-02-09T09:33:39Z</time>
      </trkpt>
      <trkpt lat="42.85582" lon="0.24331">
        <ele>1957.6</ele>
        <time>2022-02-09T09:33:40Z</time>
      </trkpt>
      <trkpt lat="42.85582" lon="0.24331">
        <ele>1957.6</ele>
        <time>2022-02-09T09:33:41Z</time>
      </trkpt>
      <trkpt lat="42.85582" lon="0.24331">
        <ele>1957.6</ele>
        <time>2022-02-09T09:33:42Z</time>
      </trkpt>
      <trkpt lat="42.85582" lon="0.24331">
        <ele>1957.6</ele>
        <time>2022-02-09T09:33:43Z</time>
      </trkpt>
      <trkpt lat="42.85582" lon="0.24331">
        <ele>1957.6</ele>
        <time>2022-02-09T09:33:44Z</time>
      </trkpt>
      <trkpt lat="42.85582" lon="0.24331">
        <ele>1957.6</ele>
        <time>2022-02-09T09:33:45Z</time>
      </trkpt>
      <trkpt lat="42.85582" lon="0.24331">
        <ele>1957.6</ele>
        <time>2022-02-09T09:33:46Z</time>
      </trkpt>
      <trkpt lat="42.85582" lon="0.24331">
        <ele>1957.6</ele>
        <time>2022-02-09T09:33:47Z</time>
      </trkpt>
      <trkpt lat="42.85582" lon="0.24331">
        <ele>1957.6</ele>
        <time>2022-02-09T09:33:48Z</time>
      </trkpt>
      <trkpt lat="42.85582" lon="0.24331">
        <ele>1957.6</ele>
        <time>2022-02-09T09:33:49Z</time>
      </trkpt>
      <trkpt lat="42.85582" lon="0.24331">
        <ele>1957.6</ele>
        <time>2022-02-09T09:33:50Z</time>
      </trkpt>
      <trkpt lat="42.85582" lon="0.24331">
        <ele>1957.6</ele>
        <time>2022-02-09T09:33:51Z</time>
      </trkpt>
      <trkpt lat="42.85582" lon="0.24331">
        <ele>1957.6</ele>
        <time>2022-02-09T09:33:52Z</time>
      </trkpt>
      <trkpt lat="42.85582" lon="0.24331">
        <ele>1957.6</ele>
        <time>2022-02-09T09:33:53Z</time>
      </trkpt>
      <trkpt lat="42.85582" lon="0.24331">
        <ele>1957.6</ele>
        <time>2022-02-09T09:33:54Z</time>
      </trkpt>
      <trkpt lat="42.85582" lon="0.24331">
        <ele>1957.6</ele>
        <time>2022-02-09T09:33:55Z</time>
      </trkpt>
      <trkpt lat="42.85582" lon="0.24331">
        <ele>1957.6</ele>
        <time>2022-02-09T09:33:56Z</time>
      </trkpt>
      <trkpt lat="42.85582" lon="0.24331">
        <ele>1957.6</ele>
        <time>2022-02-09T09:33:57Z</time>
      </trkpt>
      <trkpt lat="42.85582" lon="0.24331">
        <ele>1957.6</ele>
        <time>2022-02-09T09:33:58Z</time>
      </trkpt>
      <trkpt lat="42.85582" lon="0.24331">
        <ele>1957.6</ele>
        <time>2022-02-09T09:33:59Z</time>
      </trkpt>
      <trkpt lat="42.85582" lon="0.24331">
        <ele>1957.6</ele>
        <time>2022-02-09T09:34:00Z</time>
      </trkpt>
      <trkpt lat="42.85582" lon="0.24331">
        <ele>1957.6</ele>
        <time>2022-02-09T09:34:01Z</time>
      </trkpt>
      <trkpt lat="42.85582" lon="0.24331">
        <ele>1957.6</ele>
        <time>2022-02-09T09:34:02Z</time>
      </trkpt>
      <trkpt lat="42.85582" lon="0.24331">
        <ele>1957.6</ele>
        <time>2022-02-09T09:34:03Z</time>
      </trkpt>
      <trkpt lat="42.85582" lon="0.24331">
        <ele>1957.6</ele>
        <time>2022-02-09T09:34:04Z</time>
      </trkpt>
      <trkpt lat="42.85582" lon="0.24331">
        <ele>1957.6</ele>
        <time>2022-02-09T09:34:05Z</time>
      </trkpt>
      <trkpt lat="42.85582" lon="0.24331">
        <ele>1957.6</ele>
        <time>2022-02-09T09:34:06Z</time>
      </trkpt>
      <trkpt lat="42.85582" lon="0.24331">
        <ele>1957.6</ele>
        <time>2022-02-09T09:34:07Z</time>
      </trkpt>
      <trkpt lat="42.85582" lon="0.24331">
        <ele>1957.6</ele>
        <time>2022-02-09T09:34:08Z</time>
      </trkpt>
      <trkpt lat="42.85582" lon="0.24331">
        <ele>1957.6</ele>
        <time>2022-02-09T09:34:09Z</time>
      </trkpt>
      <trkpt lat="42.85582" lon="0.24331">
        <ele>1957.6</ele>
        <time>2022-02-09T09:34:10Z</time>
      </trkpt>
      <trkpt lat="42.85582" lon="0.24331">
        <ele>1957.6</ele>
        <time>2022-02-09T09:34:11Z</time>
      </trkpt>
      <trkpt lat="42.85582" lon="0.24331">
        <ele>1957.6</ele>
        <time>2022-02-09T09:34:12Z</time>
      </trkpt>
      <trkpt lat="42.85582" lon="0.24331">
        <ele>1957.6</ele>
        <time>2022-02-09T09:34:13Z</time>
      </trkpt>
      <trkpt lat="42.85582" lon="0.24331">
        <ele>1957.6</ele>
        <time>2022-02-09T09:34:14Z</time>
      </trkpt>
      <trkpt lat="42.85582" lon="0.24331">
        <ele>1957.6</ele>
        <time>2022-02-09T09:34:15Z</time>
      </trkpt>
      <trkpt lat="42.85582" lon="0.24331">
        <ele>1957.6</ele>
        <time>2022-02-09T09:34:16Z</time>
      </trkpt>
      <trkpt lat="42.85582" lon="0.24331">
        <ele>1957.6</ele>
        <time>2022-02-09T09:34:17Z</time>
      </trkpt>
      <trkpt lat="42.85582" lon="0.24331">
        <ele>1957.6</ele>
        <time>2022-02-09T09:34:18Z</time>
      </trkpt>
      <trkpt lat="42.85582" lon="0.24331">
        <ele>1957.6</ele>
        <time>2022-02-09T09:34:19Z</time>
      </trkpt>
      <trkpt lat="42.85582" lon="0.24331">
        <ele>1957.6</ele>
        <time>2022-02-09T09:34:20Z</time>
      </trkpt>
      <trkpt lat="42.85582" lon="0.24331">
        <ele>1957.6</ele>
        <time>2022-02-09T09:34:21Z</time>
      </trkpt>
      <trkpt lat="42.85582" lon="0.24331">
        <ele>1957.6</ele>
        <time>2022-02-09T09:34:22Z</time>
      </trkpt>
      <trkpt lat="42.85582" lon="0.24331">
        <ele>1957.6</ele>
        <time>2022-02-09T09:34:23Z</time>
      </trkpt>
      <trkpt lat="42.85582" lon="0.24331">
        <ele>1957.6</ele>
        <time>2022-02-09T09:34:24Z</time>
      </trkpt>
      <trkpt lat="42.85582" lon="0.24331">
        <ele>1957.6</ele>
        <time>2022-02-09T09:34:25Z</time>
      </trkpt>
      <trkpt lat="42.85582" lon="0.24331">
        <ele>1957.6</ele>
        <time>2022-02-09T09:34:26Z</time>
      </trkpt>
      <trkpt lat="42.85582" lon="0.24331">
        <ele>1957.6</ele>
        <time>2022-02-09T09:34:27Z</time>
      </trkpt>
      <trkpt lat="42.85582" lon="0.24331">
        <ele>1957.6</ele>
        <time>2022-02-09T09:34:28Z</time>
      </trkpt>
      <trkpt lat="42.85582" lon="0.24331">
        <ele>1957.6</ele>
        <time>2022-02-09T09:34:29Z</time>
      </trkpt>
      <trkpt lat="42.85582" lon="0.24331">
        <ele>1957.6</ele>
        <time>2022-02-09T09:34:30Z</time>
      </trkpt>
      <trkpt lat="42.85582" lon="0.24331">
        <ele>1957.6</ele>
        <time>2022-02-09T09:34:31Z</time>
      </trkpt>
      <trkpt lat="42.85582" lon="0.24331">
        <ele>1957.6</ele>
        <time>2022-02-09T09:34:32Z</time>
      </trkpt>
      <trkpt lat="42.85582" lon="0.24331">
        <ele>1957.6</ele>
        <time>2022-02-09T09:34:33Z</time>
      </trkpt>
      <trkpt lat="42.85582" lon="0.24331">
        <ele>1957.6</ele>
        <time>2022-02-09T09:34:34Z</time>
      </trkpt>
      <trkpt lat="42.85582" lon="0.24331">
        <ele>1957.6</ele>
        <time>2022-02-09T09:34:35Z</time>
      </trkpt>
      <trkpt lat="42.85582" lon="0.24331">
        <ele>1957.6</ele>
        <time>2022-02-09T09:34:36Z</time>
      </trkpt>
      <trkpt lat="42.85582" lon="0.24331">
        <ele>1957.6</ele>
        <time>2022-02-09T09:34:37Z</time>
      </trkpt>
      <trkpt lat="42.85582" lon="0.24331">
        <ele>1957.6</ele>
        <time>2022-02-09T09:34:38Z</time>
      </trkpt>
      <trkpt lat="42.85582" lon="0.24331">
        <ele>1957.6</ele>
        <time>2022-02-09T09:34:39Z</time>
      </trkpt>
      <trkpt lat="42.85582" lon="0.24331">
        <ele>1957.6</ele>
        <time>2022-02-09T09:34:40Z</time>
      </trkpt>
      <trkpt lat="42.85582" lon="0.24331">
        <ele>1957.6</ele>
        <time>2022-02-09T09:34:41Z</time>
      </trkpt>
      <trkpt lat="42.85582" lon="0.2433">
        <ele>1957.7</ele>
        <time>2022-02-09T09:34:42Z</time>
      </trkpt>
      <trkpt lat="42.85581" lon="0.24329">
        <ele>1957.9</ele>
        <time>2022-02-09T09:34:43Z</time>
      </trkpt>
      <trkpt lat="42.85581" lon="0.24329">
        <ele>1958</ele>
        <time>2022-02-09T09:34:44Z</time>
      </trkpt>
      <trkpt lat="42.85581" lon="0.24328">
        <ele>1958.2</ele>
        <time>2022-02-09T09:34:45Z</time>
      </trkpt>
      <trkpt lat="42.8558" lon="0.24327">
        <ele>1958.3</ele>
        <time>2022-02-09T09:34:46Z</time>
      </trkpt>
      <trkpt lat="42.8558" lon="0.24327">
        <ele>1958.4</ele>
        <time>2022-02-09T09:34:47Z</time>
      </trkpt>
      <trkpt lat="42.8558" lon="0.24327">
        <ele>1958.5</ele>
        <time>2022-02-09T09:34:48Z</time>
      </trkpt>
      <trkpt lat="42.85579" lon="0.24328">
        <ele>1958.5</ele>
        <time>2022-02-09T09:34:49Z</time>
      </trkpt>
      <trkpt lat="42.85579" lon="0.24328">
        <ele>1958.5</ele>
        <time>2022-02-09T09:34:50Z</time>
      </trkpt>
      <trkpt lat="42.85579" lon="0.24328">
        <ele>1958.5</ele>
        <time>2022-02-09T09:34:51Z</time>
      </trkpt>
      <trkpt lat="42.85579" lon="0.24328">
        <ele>1958.5</ele>
        <time>2022-02-09T09:34:52Z</time>
      </trkpt>
      <trkpt lat="42.85579" lon="0.24328">
        <ele>1958.5</ele>
        <time>2022-02-09T09:34:53Z</time>
      </trkpt>
      <trkpt lat="42.85579" lon="0.24328">
        <ele>1958.5</ele>
        <time>2022-02-09T09:34:54Z</time>
      </trkpt>
      <trkpt lat="42.85579" lon="0.24328">
        <ele>1958.5</ele>
        <time>2022-02-09T09:34:55Z</time>
      </trkpt>
      <trkpt lat="42.85579" lon="0.24328">
        <ele>1958.5</ele>
        <time>2022-02-09T09:34:56Z</time>
      </trkpt>
      <trkpt lat="42.85579" lon="0.24328">
        <ele>1958.5</ele>
        <time>2022-02-09T09:34:57Z</time>
      </trkpt>
      <trkpt lat="42.85579" lon="0.24328">
        <ele>1958.5</ele>
        <time>2022-02-09T09:34:58Z</time>
      </trkpt>
      <trkpt lat="42.85579" lon="0.24328">
        <ele>1958.5</ele>
        <time>2022-02-09T09:34:59Z</time>
      </trkpt>
      <trkpt lat="42.85579" lon="0.24328">
        <ele>1958.5</ele>
        <time>2022-02-09T09:35:00Z</time>
      </trkpt>
      <trkpt lat="42.85579" lon="0.24328">
        <ele>1958.5</ele>
        <time>2022-02-09T09:35:01Z</time>
      </trkpt>
      <trkpt lat="42.85579" lon="0.24328">
        <ele>1958.5</ele>
        <time>2022-02-09T09:35:02Z</time>
      </trkpt>
      <trkpt lat="42.85579" lon="0.24328">
        <ele>1958.6</ele>
        <time>2022-02-09T09:35:03Z</time>
      </trkpt>
      <trkpt lat="42.85578" lon="0.24328">
        <ele>1958.7</ele>
        <time>2022-02-09T09:35:04Z</time>
      </trkpt>
      <trkpt lat="42.85578" lon="0.24328">
        <ele>1958.9</ele>
        <time>2022-02-09T09:35:05Z</time>
      </trkpt>
      <trkpt lat="42.85577" lon="0.24328">
        <ele>1959</ele>
        <time>2022-02-09T09:35:06Z</time>
      </trkpt>
      <trkpt lat="42.85577" lon="0.24327">
        <ele>1959.1</ele>
        <time>2022-02-09T09:35:07Z</time>
      </trkpt>
      <trkpt lat="42.85576" lon="0.24327">
        <ele>1959.3</ele>
        <time>2022-02-09T09:35:08Z</time>
      </trkpt>
      <trkpt lat="42.85576" lon="0.24326">
        <ele>1959.5</ele>
        <time>2022-02-09T09:35:09Z</time>
      </trkpt>
      <trkpt lat="42.85575" lon="0.24325">
        <ele>1959.6</ele>
        <time>2022-02-09T09:35:10Z</time>
      </trkpt>
      <trkpt lat="42.85575" lon="0.24324">
        <ele>1959.8</ele>
        <time>2022-02-09T09:35:11Z</time>
      </trkpt>
      <trkpt lat="42.85575" lon="0.24323">
        <ele>1960</ele>
        <time>2022-02-09T09:35:12Z</time>
      </trkpt>
      <trkpt lat="42.85574" lon="0.24322">
        <ele>1960.2</ele>
        <time>2022-02-09T09:35:13Z</time>
      </trkpt>
      <trkpt lat="42.85574" lon="0.24321">
        <ele>1960.3</ele>
        <time>2022-02-09T09:35:14Z</time>
      </trkpt>
      <trkpt lat="42.85573" lon="0.2432">
        <ele>1960.5</ele>
        <time>2022-02-09T09:35:15Z</time>
      </trkpt>
      <trkpt lat="42.85573" lon="0.24319">
        <ele>1960.7</ele>
        <time>2022-02-09T09:35:16Z</time>
      </trkpt>
      <trkpt lat="42.85573" lon="0.24318">
        <ele>1960.9</ele>
        <time>2022-02-09T09:35:17Z</time>
      </trkpt>
      <trkpt lat="42.85572" lon="0.24317">
        <ele>1961.1</ele>
        <time>2022-02-09T09:35:18Z</time>
      </trkpt>
      <trkpt lat="42.85572" lon="0.24316">
        <ele>1961.3</ele>
        <time>2022-02-09T09:35:19Z</time>
      </trkpt>
      <trkpt lat="42.85572" lon="0.24315">
        <ele>1961.5</ele>
        <time>2022-02-09T09:35:20Z</time>
      </trkpt>
      <trkpt lat="42.85571" lon="0.24314">
        <ele>1961.7</ele>
        <time>2022-02-09T09:35:21Z</time>
      </trkpt>
      <trkpt lat="42.85571" lon="0.24313">
        <ele>1961.8</ele>
        <time>2022-02-09T09:35:22Z</time>
      </trkpt>
      <trkpt lat="42.8557" lon="0.24312">
        <ele>1962</ele>
        <time>2022-02-09T09:35:23Z</time>
      </trkpt>
      <trkpt lat="42.8557" lon="0.24311">
        <ele>1962.2</ele>
        <time>2022-02-09T09:35:24Z</time>
      </trkpt>
      <trkpt lat="42.8557" lon="0.2431">
        <ele>1962.4</ele>
        <time>2022-02-09T09:35:25Z</time>
      </trkpt>
      <trkpt lat="42.8557" lon="0.24309">
        <ele>1962.6</ele>
        <time>2022-02-09T09:35:26Z</time>
      </trkpt>
      <trkpt lat="42.85569" lon="0.24308">
        <ele>1962.8</ele>
        <time>2022-02-09T09:35:27Z</time>
      </trkpt>
      <trkpt lat="42.85569" lon="0.24307">
        <ele>1962.9</ele>
        <time>2022-02-09T09:35:28Z</time>
      </trkpt>
      <trkpt lat="42.85569" lon="0.24306">
        <ele>1963.1</ele>
        <time>2022-02-09T09:35:29Z</time>
      </trkpt>
      <trkpt lat="42.85568" lon="0.24306">
        <ele>1963.3</ele>
        <time>2022-02-09T09:35:30Z</time>
      </trkpt>
      <trkpt lat="42.85568" lon="0.24305">
        <ele>1963.4</ele>
        <time>2022-02-09T09:35:31Z</time>
      </trkpt>
      <trkpt lat="42.85568" lon="0.24304">
        <ele>1963.6</ele>
        <time>2022-02-09T09:35:32Z</time>
      </trkpt>
      <trkpt lat="42.85567" lon="0.24303">
        <ele>1963.8</ele>
        <time>2022-02-09T09:35:33Z</time>
      </trkpt>
      <trkpt lat="42.85567" lon="0.24302">
        <ele>1964</ele>
        <time>2022-02-09T09:35:34Z</time>
      </trkpt>
      <trkpt lat="42.85566" lon="0.24301">
        <ele>1964.2</ele>
        <time>2022-02-09T09:35:35Z</time>
      </trkpt>
      <trkpt lat="42.85566" lon="0.243">
        <ele>1964.4</ele>
        <time>2022-02-09T09:35:36Z</time>
      </trkpt>
      <trkpt lat="42.85565" lon="0.24299">
        <ele>1964.6</ele>
        <time>2022-02-09T09:35:37Z</time>
      </trkpt>
      <trkpt lat="42.85565" lon="0.24298">
        <ele>1964.8</ele>
        <time>2022-02-09T09:35:38Z</time>
      </trkpt>
      <trkpt lat="42.85564" lon="0.24297">
        <ele>1965</ele>
        <time>2022-02-09T09:35:39Z</time>
      </trkpt>
      <trkpt lat="42.85564" lon="0.24296">
        <ele>1965.2</ele>
        <time>2022-02-09T09:35:40Z</time>
      </trkpt>
      <trkpt lat="42.85563" lon="0.24295">
        <ele>1965.4</ele>
        <time>2022-02-09T09:35:41Z</time>
      </trkpt>
      <trkpt lat="42.85562" lon="0.24294">
        <ele>1965.6</ele>
        <time>2022-02-09T09:35:42Z</time>
      </trkpt>
      <trkpt lat="42.85562" lon="0.24294">
        <ele>1965.8</ele>
        <time>2022-02-09T09:35:43Z</time>
      </trkpt>
      <trkpt lat="42.85561" lon="0.24293">
        <ele>1966</ele>
        <time>2022-02-09T09:35:44Z</time>
      </trkpt>
      <trkpt lat="42.85561" lon="0.24292">
        <ele>1966.2</ele>
        <time>2022-02-09T09:35:45Z</time>
      </trkpt>
      <trkpt lat="42.8556" lon="0.24291">
        <ele>1966.4</ele>
        <time>2022-02-09T09:35:46Z</time>
      </trkpt>
      <trkpt lat="42.85559" lon="0.2429">
        <ele>1966.6</ele>
        <time>2022-02-09T09:35:47Z</time>
      </trkpt>
      <trkpt lat="42.85559" lon="0.24289">
        <ele>1966.8</ele>
        <time>2022-02-09T09:35:48Z</time>
      </trkpt>
      <trkpt lat="42.85558" lon="0.24289">
        <ele>1967</ele>
        <time>2022-02-09T09:35:49Z</time>
      </trkpt>
      <trkpt lat="42.85557" lon="0.24288">
        <ele>1967.2</ele>
        <time>2022-02-09T09:35:50Z</time>
      </trkpt>
      <trkpt lat="42.85557" lon="0.24287">
        <ele>1967.4</ele>
        <time>2022-02-09T09:35:51Z</time>
      </trkpt>
      <trkpt lat="42.85556" lon="0.24286">
        <ele>1967.6</ele>
        <time>2022-02-09T09:35:52Z</time>
      </trkpt>
      <trkpt lat="42.85555" lon="0.24285">
        <ele>1967.8</ele>
        <time>2022-02-09T09:35:53Z</time>
      </trkpt>
      <trkpt lat="42.85555" lon="0.24285">
        <ele>1968</ele>
        <time>2022-02-09T09:35:54Z</time>
      </trkpt>
      <trkpt lat="42.85554" lon="0.24284">
        <ele>1968.2</ele>
        <time>2022-02-09T09:35:55Z</time>
      </trkpt>
      <trkpt lat="42.85553" lon="0.24283">
        <ele>1968.4</ele>
        <time>2022-02-09T09:35:56Z</time>
      </trkpt>
      <trkpt lat="42.85553" lon="0.24282">
        <ele>1968.6</ele>
        <time>2022-02-09T09:35:57Z</time>
      </trkpt>
      <trkpt lat="42.85552" lon="0.24281">
        <ele>1968.8</ele>
        <time>2022-02-09T09:35:58Z</time>
      </trkpt>
      <trkpt lat="42.85551" lon="0.24281">
        <ele>1969.1</ele>
        <time>2022-02-09T09:35:59Z</time>
      </trkpt>
      <trkpt lat="42.85551" lon="0.2428">
        <ele>1969.2</ele>
        <time>2022-02-09T09:36:00Z</time>
      </trkpt>
      <trkpt lat="42.8555" lon="0.24279">
        <ele>1969.4</ele>
        <time>2022-02-09T09:36:01Z</time>
      </trkpt>
      <trkpt lat="42.85549" lon="0.24278">
        <ele>1969.6</ele>
        <time>2022-02-09T09:36:02Z</time>
      </trkpt>
      <trkpt lat="42.85549" lon="0.24278">
        <ele>1969.7</ele>
        <time>2022-02-09T09:36:03Z</time>
      </trkpt>
      <trkpt lat="42.85548" lon="0.24277">
        <ele>1969.9</ele>
        <time>2022-02-09T09:36:04Z</time>
      </trkpt>
      <trkpt lat="42.85548" lon="0.24277">
        <ele>1970.1</ele>
        <time>2022-02-09T09:36:05Z</time>
      </trkpt>
      <trkpt lat="42.85547" lon="0.24276">
        <ele>1970.3</ele>
        <time>2022-02-09T09:36:06Z</time>
      </trkpt>
      <trkpt lat="42.85546" lon="0.24275">
        <ele>1970.5</ele>
        <time>2022-02-09T09:36:07Z</time>
      </trkpt>
      <trkpt lat="42.85546" lon="0.24275">
        <ele>1970.6</ele>
        <time>2022-02-09T09:36:08Z</time>
      </trkpt>
      <trkpt lat="42.85545" lon="0.24274">
        <ele>1970.8</ele>
        <time>2022-02-09T09:36:09Z</time>
      </trkpt>
      <trkpt lat="42.85545" lon="0.24273">
        <ele>1971</ele>
        <time>2022-02-09T09:36:10Z</time>
      </trkpt>
      <trkpt lat="42.85544" lon="0.24272">
        <ele>1971.2</ele>
        <time>2022-02-09T09:36:11Z</time>
      </trkpt>
      <trkpt lat="42.85544" lon="0.24271">
        <ele>1971.3</ele>
        <time>2022-02-09T09:36:12Z</time>
      </trkpt>
      <trkpt lat="42.85543" lon="0.2427">
        <ele>1971.5</ele>
        <time>2022-02-09T09:36:13Z</time>
      </trkpt>
      <trkpt lat="42.85543" lon="0.24269">
        <ele>1971.7</ele>
        <time>2022-02-09T09:36:14Z</time>
      </trkpt>
      <trkpt lat="42.85543" lon="0.24268">
        <ele>1971.8</ele>
        <time>2022-02-09T09:36:15Z</time>
      </trkpt>
      <trkpt lat="42.85542" lon="0.24267">
        <ele>1972</ele>
        <time>2022-02-09T09:36:16Z</time>
      </trkpt>
      <trkpt lat="42.85542" lon="0.24266">
        <ele>1972.1</ele>
        <time>2022-02-09T09:36:17Z</time>
      </trkpt>
      <trkpt lat="42.85542" lon="0.24265">
        <ele>1972.2</ele>
        <time>2022-02-09T09:36:18Z</time>
      </trkpt>
      <trkpt lat="42.85542" lon="0.24264">
        <ele>1972.4</ele>
        <time>2022-02-09T09:36:19Z</time>
      </trkpt>
      <trkpt lat="42.85542" lon="0.24263">
        <ele>1972.6</ele>
        <time>2022-02-09T09:36:20Z</time>
      </trkpt>
      <trkpt lat="42.85542" lon="0.24263">
        <ele>1972.7</ele>
        <time>2022-02-09T09:36:21Z</time>
      </trkpt>
      <trkpt lat="42.85542" lon="0.24262">
        <ele>1972.8</ele>
        <time>2022-02-09T09:36:22Z</time>
      </trkpt>
      <trkpt lat="42.85542" lon="0.24261">
        <ele>1973</ele>
        <time>2022-02-09T09:36:23Z</time>
      </trkpt>
      <trkpt lat="42.85542" lon="0.24259">
        <ele>1973.2</ele>
        <time>2022-02-09T09:36:24Z</time>
      </trkpt>
      <trkpt lat="42.85542" lon="0.24258">
        <ele>1973.4</ele>
        <time>2022-02-09T09:36:25Z</time>
      </trkpt>
      <trkpt lat="42.85541" lon="0.24257">
        <ele>1973.6</ele>
        <time>2022-02-09T09:36:26Z</time>
      </trkpt>
      <trkpt lat="42.85541" lon="0.24256">
        <ele>1973.7</ele>
        <time>2022-02-09T09:36:27Z</time>
      </trkpt>
      <trkpt lat="42.85541" lon="0.24255">
        <ele>1973.9</ele>
        <time>2022-02-09T09:36:28Z</time>
      </trkpt>
      <trkpt lat="42.85541" lon="0.24254">
        <ele>1974</ele>
        <time>2022-02-09T09:36:29Z</time>
      </trkpt>
      <trkpt lat="42.85541" lon="0.24253">
        <ele>1974.2</ele>
        <time>2022-02-09T09:36:30Z</time>
      </trkpt>
      <trkpt lat="42.85541" lon="0.24252">
        <ele>1974.3</ele>
        <time>2022-02-09T09:36:31Z</time>
      </trkpt>
      <trkpt lat="42.85541" lon="0.24251">
        <ele>1974.5</ele>
        <time>2022-02-09T09:36:32Z</time>
      </trkpt>
      <trkpt lat="42.85541" lon="0.2425">
        <ele>1974.6</ele>
        <time>2022-02-09T09:36:33Z</time>
      </trkpt>
      <trkpt lat="42.85541" lon="0.24249">
        <ele>1974.8</ele>
        <time>2022-02-09T09:36:34Z</time>
      </trkpt>
      <trkpt lat="42.85541" lon="0.24248">
        <ele>1975</ele>
        <time>2022-02-09T09:36:35Z</time>
      </trkpt>
      <trkpt lat="42.85541" lon="0.24247">
        <ele>1975.1</ele>
        <time>2022-02-09T09:36:36Z</time>
      </trkpt>
      <trkpt lat="42.85541" lon="0.24246">
        <ele>1975.3</ele>
        <time>2022-02-09T09:36:37Z</time>
      </trkpt>
      <trkpt lat="42.85541" lon="0.24244">
        <ele>1975.4</ele>
        <time>2022-02-09T09:36:38Z</time>
      </trkpt>
      <trkpt lat="42.85541" lon="0.24243">
        <ele>1975.6</ele>
        <time>2022-02-09T09:36:39Z</time>
      </trkpt>
      <trkpt lat="42.85541" lon="0.24242">
        <ele>1975.7</ele>
        <time>2022-02-09T09:36:40Z</time>
      </trkpt>
      <trkpt lat="42.85541" lon="0.24241">
        <ele>1975.8</ele>
        <time>2022-02-09T09:36:41Z</time>
      </trkpt>
      <trkpt lat="42.85541" lon="0.2424">
        <ele>1976</ele>
        <time>2022-02-09T09:36:42Z</time>
      </trkpt>
      <trkpt lat="42.85541" lon="0.24239">
        <ele>1976.1</ele>
        <time>2022-02-09T09:36:43Z</time>
      </trkpt>
      <trkpt lat="42.85541" lon="0.24238">
        <ele>1976.2</ele>
        <time>2022-02-09T09:36:44Z</time>
      </trkpt>
      <trkpt lat="42.85542" lon="0.24237">
        <ele>1976.3</ele>
        <time>2022-02-09T09:36:45Z</time>
      </trkpt>
      <trkpt lat="42.85542" lon="0.24236">
        <ele>1976.5</ele>
        <time>2022-02-09T09:36:46Z</time>
      </trkpt>
      <trkpt lat="42.85543" lon="0.24235">
        <ele>1976.6</ele>
        <time>2022-02-09T09:36:47Z</time>
      </trkpt>
      <trkpt lat="42.85543" lon="0.24234">
        <ele>1976.7</ele>
        <time>2022-02-09T09:36:48Z</time>
      </trkpt>
      <trkpt lat="42.85543" lon="0.24233">
        <ele>1976.9</ele>
        <time>2022-02-09T09:36:49Z</time>
      </trkpt>
      <trkpt lat="42.85543" lon="0.24232">
        <ele>1977</ele>
        <time>2022-02-09T09:36:50Z</time>
      </trkpt>
      <trkpt lat="42.85544" lon="0.24231">
        <ele>1977.1</ele>
        <time>2022-02-09T09:36:51Z</time>
      </trkpt>
      <trkpt lat="42.85544" lon="0.2423">
        <ele>1977.2</ele>
        <time>2022-02-09T09:36:52Z</time>
      </trkpt>
      <trkpt lat="42.85544" lon="0.24229">
        <ele>1977.3</ele>
        <time>2022-02-09T09:36:53Z</time>
      </trkpt>
      <trkpt lat="42.85544" lon="0.24228">
        <ele>1977.4</ele>
        <time>2022-02-09T09:36:54Z</time>
      </trkpt>
      <trkpt lat="42.85545" lon="0.24227">
        <ele>1977.5</ele>
        <time>2022-02-09T09:36:55Z</time>
      </trkpt>
      <trkpt lat="42.85545" lon="0.24226">
        <ele>1977.7</ele>
        <time>2022-02-09T09:36:56Z</time>
      </trkpt>
      <trkpt lat="42.85545" lon="0.24225">
        <ele>1977.8</ele>
        <time>2022-02-09T09:36:57Z</time>
      </trkpt>
      <trkpt lat="42.85546" lon="0.24223">
        <ele>1978</ele>
        <time>2022-02-09T09:36:58Z</time>
      </trkpt>
      <trkpt lat="42.85546" lon="0.24222">
        <ele>1978.1</ele>
        <time>2022-02-09T09:36:59Z</time>
      </trkpt>
      <trkpt lat="42.85546" lon="0.24221">
        <ele>1978.3</ele>
        <time>2022-02-09T09:37:00Z</time>
      </trkpt>
      <trkpt lat="42.85546" lon="0.24219">
        <ele>1978.4</ele>
        <time>2022-02-09T09:37:01Z</time>
      </trkpt>
      <trkpt lat="42.85546" lon="0.24218">
        <ele>1978.5</ele>
        <time>2022-02-09T09:37:02Z</time>
      </trkpt>
      <trkpt lat="42.85546" lon="0.24217">
        <ele>1978.7</ele>
        <time>2022-02-09T09:37:03Z</time>
      </trkpt>
      <trkpt lat="42.85546" lon="0.24216">
        <ele>1978.8</ele>
        <time>2022-02-09T09:37:04Z</time>
      </trkpt>
      <trkpt lat="42.85547" lon="0.24215">
        <ele>1978.9</ele>
        <time>2022-02-09T09:37:05Z</time>
      </trkpt>
      <trkpt lat="42.85547" lon="0.24213">
        <ele>1979.1</ele>
        <time>2022-02-09T09:37:06Z</time>
      </trkpt>
      <trkpt lat="42.85547" lon="0.24212">
        <ele>1979.2</ele>
        <time>2022-02-09T09:37:07Z</time>
      </trkpt>
      <trkpt lat="42.85547" lon="0.24211">
        <ele>1979.3</ele>
        <time>2022-02-09T09:37:08Z</time>
      </trkpt>
      <trkpt lat="42.85547" lon="0.24209">
        <ele>1979.5</ele>
        <time>2022-02-09T09:37:09Z</time>
      </trkpt>
      <trkpt lat="42.85547" lon="0.24208">
        <ele>1979.6</ele>
        <time>2022-02-09T09:37:10Z</time>
      </trkpt>
      <trkpt lat="42.85547" lon="0.24207">
        <ele>1979.7</ele>
        <time>2022-02-09T09:37:11Z</time>
      </trkpt>
      <trkpt lat="42.85547" lon="0.24206">
        <ele>1979.8</ele>
        <time>2022-02-09T09:37:12Z</time>
      </trkpt>
      <trkpt lat="42.85547" lon="0.24205">
        <ele>1980</ele>
        <time>2022-02-09T09:37:13Z</time>
      </trkpt>
      <trkpt lat="42.85547" lon="0.24204">
        <ele>1980.1</ele>
        <time>2022-02-09T09:37:14Z</time>
      </trkpt>
      <trkpt lat="42.85547" lon="0.24203">
        <ele>1980.2</ele>
        <time>2022-02-09T09:37:15Z</time>
      </trkpt>
      <trkpt lat="42.85547" lon="0.24202">
        <ele>1980.3</ele>
        <time>2022-02-09T09:37:16Z</time>
      </trkpt>
      <trkpt lat="42.85546" lon="0.24201">
        <ele>1980.4</ele>
        <time>2022-02-09T09:37:17Z</time>
      </trkpt>
      <trkpt lat="42.85546" lon="0.242">
        <ele>1980.5</ele>
        <time>2022-02-09T09:37:18Z</time>
      </trkpt>
      <trkpt lat="42.85546" lon="0.24199">
        <ele>1980.6</ele>
        <time>2022-02-09T09:37:19Z</time>
      </trkpt>
      <trkpt lat="42.85546" lon="0.24198">
        <ele>1980.7</ele>
        <time>2022-02-09T09:37:20Z</time>
      </trkpt>
      <trkpt lat="42.85546" lon="0.24197">
        <ele>1980.8</ele>
        <time>2022-02-09T09:37:21Z</time>
      </trkpt>
      <trkpt lat="42.85545" lon="0.24196">
        <ele>1981</ele>
        <time>2022-02-09T09:37:22Z</time>
      </trkpt>
      <trkpt lat="42.85545" lon="0.24195">
        <ele>1981.1</ele>
        <time>2022-02-09T09:37:23Z</time>
      </trkpt>
      <trkpt lat="42.85545" lon="0.24194">
        <ele>1981.2</ele>
        <time>2022-02-09T09:37:24Z</time>
      </trkpt>
      <trkpt lat="42.85544" lon="0.24193">
        <ele>1981.4</ele>
        <time>2022-02-09T09:37:25Z</time>
      </trkpt>
      <trkpt lat="42.85544" lon="0.24192">
        <ele>1981.5</ele>
        <time>2022-02-09T09:37:26Z</time>
      </trkpt>
      <trkpt lat="42.85544" lon="0.24191">
        <ele>1981.6</ele>
        <time>2022-02-09T09:37:27Z</time>
      </trkpt>
      <trkpt lat="42.85544" lon="0.2419">
        <ele>1981.7</ele>
        <time>2022-02-09T09:37:28Z</time>
      </trkpt>
      <trkpt lat="42.85544" lon="0.24189">
        <ele>1981.8</ele>
        <time>2022-02-09T09:37:29Z</time>
      </trkpt>
      <trkpt lat="42.85543" lon="0.24188">
        <ele>1982</ele>
        <time>2022-02-09T09:37:30Z</time>
      </trkpt>
      <trkpt lat="42.85543" lon="0.24187">
        <ele>1982.1</ele>
        <time>2022-02-09T09:37:31Z</time>
      </trkpt>
      <trkpt lat="42.85543" lon="0.24187">
        <ele>1982.2</ele>
        <time>2022-02-09T09:37:32Z</time>
      </trkpt>
      <trkpt lat="42.85543" lon="0.24186">
        <ele>1982.4</ele>
        <time>2022-02-09T09:37:33Z</time>
      </trkpt>
      <trkpt lat="42.85542" lon="0.24185">
        <ele>1982.5</ele>
        <time>2022-02-09T09:37:34Z</time>
      </trkpt>
      <trkpt lat="42.85542" lon="0.24184">
        <ele>1982.6</ele>
        <time>2022-02-09T09:37:35Z</time>
      </trkpt>
      <trkpt lat="42.85542" lon="0.24183">
        <ele>1982.7</ele>
        <time>2022-02-09T09:37:36Z</time>
      </trkpt>
      <trkpt lat="42.85542" lon="0.24182">
        <ele>1982.9</ele>
        <time>2022-02-09T09:37:37Z</time>
      </trkpt>
      <trkpt lat="42.85542" lon="0.24181">
        <ele>1983</ele>
        <time>2022-02-09T09:37:38Z</time>
      </trkpt>
      <trkpt lat="42.85542" lon="0.2418">
        <ele>1983.1</ele>
        <time>2022-02-09T09:37:39Z</time>
      </trkpt>
      <trkpt lat="42.85542" lon="0.2418">
        <ele>1983.3</ele>
        <time>2022-02-09T09:37:40Z</time>
      </trkpt>
      <trkpt lat="42.85541" lon="0.24179">
        <ele>1983.4</ele>
        <time>2022-02-09T09:37:41Z</time>
      </trkpt>
      <trkpt lat="42.85541" lon="0.24178">
        <ele>1983.5</ele>
        <time>2022-02-09T09:37:42Z</time>
      </trkpt>
      <trkpt lat="42.85541" lon="0.24177">
        <ele>1983.7</ele>
        <time>2022-02-09T09:37:43Z</time>
      </trkpt>
      <trkpt lat="42.85541" lon="0.24176">
        <ele>1983.9</ele>
        <time>2022-02-09T09:37:44Z</time>
      </trkpt>
      <trkpt lat="42.8554" lon="0.24175">
        <ele>1984</ele>
        <time>2022-02-09T09:37:45Z</time>
      </trkpt>
      <trkpt lat="42.8554" lon="0.24174">
        <ele>1984.2</ele>
        <time>2022-02-09T09:37:46Z</time>
      </trkpt>
      <trkpt lat="42.8554" lon="0.24173">
        <ele>1984.3</ele>
        <time>2022-02-09T09:37:47Z</time>
      </trkpt>
      <trkpt lat="42.8554" lon="0.24172">
        <ele>1984.5</ele>
        <time>2022-02-09T09:37:48Z</time>
      </trkpt>
      <trkpt lat="42.8554" lon="0.24171">
        <ele>1984.7</ele>
        <time>2022-02-09T09:37:49Z</time>
      </trkpt>
      <trkpt lat="42.85539" lon="0.2417">
        <ele>1984.9</ele>
        <time>2022-02-09T09:37:50Z</time>
      </trkpt>
      <trkpt lat="42.85539" lon="0.24169">
        <ele>1985</ele>
        <time>2022-02-09T09:37:51Z</time>
      </trkpt>
      <trkpt lat="42.85539" lon="0.24168">
        <ele>1985.2</ele>
        <time>2022-02-09T09:37:52Z</time>
      </trkpt>
      <trkpt lat="42.85539" lon="0.24167">
        <ele>1985.2</ele>
        <time>2022-02-09T09:37:53Z</time>
      </trkpt>
      <trkpt lat="42.85538" lon="0.24166">
        <ele>1985.2</ele>
        <time>2022-02-09T09:37:54Z</time>
      </trkpt>
      <trkpt lat="42.85538" lon="0.24165">
        <ele>1986</ele>
        <time>2022-02-09T09:37:55Z</time>
      </trkpt>
      <trkpt lat="42.85538" lon="0.24164">
        <ele>1986</ele>
        <time>2022-02-09T09:37:56Z</time>
      </trkpt>
      <trkpt lat="42.85537" lon="0.24163">
        <ele>1986</ele>
        <time>2022-02-09T09:37:57Z</time>
      </trkpt>
      <trkpt lat="42.85537" lon="0.24162">
        <ele>1986</ele>
        <time>2022-02-09T09:37:58Z</time>
      </trkpt>
      <trkpt lat="42.85537" lon="0.24161">
        <ele>1986.8</ele>
        <time>2022-02-09T09:37:59Z</time>
      </trkpt>
      <trkpt lat="42.85536" lon="0.2416">
        <ele>1986.8</ele>
        <time>2022-02-09T09:38:00Z</time>
      </trkpt>
      <trkpt lat="42.85536" lon="0.2416">
        <ele>1986.8</ele>
        <time>2022-02-09T09:38:01Z</time>
      </trkpt>
      <trkpt lat="42.85536" lon="0.24159">
        <ele>1986.7</ele>
        <time>2022-02-09T09:38:02Z</time>
      </trkpt>
      <trkpt lat="42.85536" lon="0.24158">
        <ele>1986.7</ele>
        <time>2022-02-09T09:38:03Z</time>
      </trkpt>
      <trkpt lat="42.85536" lon="0.24157">
        <ele>1986.7</ele>
        <time>2022-02-09T09:38:04Z</time>
      </trkpt>
      <trkpt lat="42.85536" lon="0.24156">
        <ele>1987.4</ele>
        <time>2022-02-09T09:38:05Z</time>
      </trkpt>
      <trkpt lat="42.85535" lon="0.24155">
        <ele>1987.4</ele>
        <time>2022-02-09T09:38:06Z</time>
      </trkpt>
      <trkpt lat="42.85535" lon="0.24155">
        <ele>1987.4</ele>
        <time>2022-02-09T09:38:07Z</time>
      </trkpt>
      <trkpt lat="42.85535" lon="0.24154">
        <ele>1987.4</ele>
        <time>2022-02-09T09:38:08Z</time>
      </trkpt>
      <trkpt lat="42.85535" lon="0.24153">
        <ele>1987.4</ele>
        <time>2022-02-09T09:38:09Z</time>
      </trkpt>
      <trkpt lat="42.85535" lon="0.24152">
        <ele>1988.2</ele>
        <time>2022-02-09T09:38:10Z</time>
      </trkpt>
      <trkpt lat="42.85535" lon="0.24151">
        <ele>1988.2</ele>
        <time>2022-02-09T09:38:11Z</time>
      </trkpt>
      <trkpt lat="42.85535" lon="0.24151">
        <ele>1988.2</ele>
        <time>2022-02-09T09:38:12Z</time>
      </trkpt>
      <trkpt lat="42.85535" lon="0.2415">
        <ele>1988.2</ele>
        <time>2022-02-09T09:38:13Z</time>
      </trkpt>
      <trkpt lat="42.85535" lon="0.24149">
        <ele>1988.2</ele>
        <time>2022-02-09T09:38:14Z</time>
      </trkpt>
      <trkpt lat="42.85534" lon="0.24148">
        <ele>1989</ele>
        <time>2022-02-09T09:38:15Z</time>
      </trkpt>
      <trkpt lat="42.85534" lon="0.24148">
        <ele>1989</ele>
        <time>2022-02-09T09:38:16Z</time>
      </trkpt>
      <trkpt lat="42.85534" lon="0.24147">
        <ele>1989</ele>
        <time>2022-02-09T09:38:17Z</time>
      </trkpt>
      <trkpt lat="42.85534" lon="0.24146">
        <ele>1989</ele>
        <time>2022-02-09T09:38:18Z</time>
      </trkpt>
      <trkpt lat="42.85534" lon="0.24145">
        <ele>1989</ele>
        <time>2022-02-09T09:38:19Z</time>
      </trkpt>
      <trkpt lat="42.85534" lon="0.24145">
        <ele>1989</ele>
        <time>2022-02-09T09:38:20Z</time>
      </trkpt>
      <trkpt lat="42.85534" lon="0.24144">
        <ele>1989.9</ele>
        <time>2022-02-09T09:38:21Z</time>
      </trkpt>
      <trkpt lat="42.85534" lon="0.24143">
        <ele>1989.9</ele>
        <time>2022-02-09T09:38:22Z</time>
      </trkpt>
      <trkpt lat="42.85533" lon="0.24143">
        <ele>1989.9</ele>
        <time>2022-02-09T09:38:23Z</time>
      </trkpt>
      <trkpt lat="42.85533" lon="0.24142">
        <ele>1989.9</ele>
        <time>2022-02-09T09:38:24Z</time>
      </trkpt>
      <trkpt lat="42.85533" lon="0.24141">
        <ele>1989.9</ele>
        <time>2022-02-09T09:38:25Z</time>
      </trkpt>
      <trkpt lat="42.85533" lon="0.2414">
        <ele>1989.8</ele>
        <time>2022-02-09T09:38:26Z</time>
      </trkpt>
      <trkpt lat="42.85533" lon="0.24139">
        <ele>1990.7</ele>
        <time>2022-02-09T09:38:27Z</time>
      </trkpt>
      <trkpt lat="42.85532" lon="0.24139">
        <ele>1990.7</ele>
        <time>2022-02-09T09:38:28Z</time>
      </trkpt>
      <trkpt lat="42.85532" lon="0.24138">
        <ele>1990.7</ele>
        <time>2022-02-09T09:38:29Z</time>
      </trkpt>
      <trkpt lat="42.85532" lon="0.24137">
        <ele>1990.7</ele>
        <time>2022-02-09T09:38:30Z</time>
      </trkpt>
      <trkpt lat="42.85532" lon="0.24136">
        <ele>1990.7</ele>
        <time>2022-02-09T09:38:31Z</time>
      </trkpt>
      <trkpt lat="42.85532" lon="0.24135">
        <ele>1991.6</ele>
        <time>2022-02-09T09:38:32Z</time>
      </trkpt>
      <trkpt lat="42.85532" lon="0.24135">
        <ele>1991.6</ele>
        <time>2022-02-09T09:38:33Z</time>
      </trkpt>
      <trkpt lat="42.85532" lon="0.24134">
        <ele>1991.6</ele>
        <time>2022-02-09T09:38:34Z</time>
      </trkpt>
      <trkpt lat="42.85531" lon="0.24133">
        <ele>1991.6</ele>
        <time>2022-02-09T09:38:35Z</time>
      </trkpt>
      <trkpt lat="42.85531" lon="0.24132">
        <ele>1991.6</ele>
        <time>2022-02-09T09:38:36Z</time>
      </trkpt>
      <trkpt lat="42.85531" lon="0.24132">
        <ele>1991.6</ele>
        <time>2022-02-09T09:38:37Z</time>
      </trkpt>
      <trkpt lat="42.85531" lon="0.24131">
        <ele>1992.6</ele>
        <time>2022-02-09T09:38:38Z</time>
      </trkpt>
      <trkpt lat="42.85531" lon="0.2413">
        <ele>1992.6</ele>
        <time>2022-02-09T09:38:39Z</time>
      </trkpt>
      <trkpt lat="42.8553" lon="0.2413">
        <ele>1992.6</ele>
        <time>2022-02-09T09:38:40Z</time>
      </trkpt>
      <trkpt lat="42.8553" lon="0.24129">
        <ele>1992.6</ele>
        <time>2022-02-09T09:38:41Z</time>
      </trkpt>
      <trkpt lat="42.8553" lon="0.24128">
        <ele>1992.5</ele>
        <time>2022-02-09T09:38:42Z</time>
      </trkpt>
      <trkpt lat="42.8553" lon="0.24127">
        <ele>1992.5</ele>
        <time>2022-02-09T09:38:43Z</time>
      </trkpt>
      <trkpt lat="42.85529" lon="0.24126">
        <ele>1993.4</ele>
        <time>2022-02-09T09:38:44Z</time>
      </trkpt>
      <trkpt lat="42.85529" lon="0.24126">
        <ele>1993.4</ele>
        <time>2022-02-09T09:38:45Z</time>
      </trkpt>
      <trkpt lat="42.85529" lon="0.24125">
        <ele>1993.4</ele>
        <time>2022-02-09T09:38:46Z</time>
      </trkpt>
      <trkpt lat="42.85528" lon="0.24124">
        <ele>1993.4</ele>
        <time>2022-02-09T09:38:47Z</time>
      </trkpt>
      <trkpt lat="42.85528" lon="0.24123">
        <ele>1993.4</ele>
        <time>2022-02-09T09:38:48Z</time>
      </trkpt>
      <trkpt lat="42.85528" lon="0.24123">
        <ele>1994.3</ele>
        <time>2022-02-09T09:38:49Z</time>
      </trkpt>
      <trkpt lat="42.85527" lon="0.24122">
        <ele>1994.3</ele>
        <time>2022-02-09T09:38:50Z</time>
      </trkpt>
      <trkpt lat="42.85527" lon="0.24121">
        <ele>1994.3</ele>
        <time>2022-02-09T09:38:51Z</time>
      </trkpt>
      <trkpt lat="42.85527" lon="0.2412">
        <ele>1994.2</ele>
        <time>2022-02-09T09:38:52Z</time>
      </trkpt>
      <trkpt lat="42.85526" lon="0.2412">
        <ele>1994.2</ele>
        <time>2022-02-09T09:38:53Z</time>
      </trkpt>
      <trkpt lat="42.85525" lon="0.24119">
        <ele>1994.2</ele>
        <time>2022-02-09T09:38:54Z</time>
      </trkpt>
      <trkpt lat="42.85525" lon="0.24118">
        <ele>1995</ele>
        <time>2022-02-09T09:38:55Z</time>
      </trkpt>
      <trkpt lat="42.85524" lon="0.24117">
        <ele>1995</ele>
        <time>2022-02-09T09:38:56Z</time>
      </trkpt>
      <trkpt lat="42.85524" lon="0.24116">
        <ele>1995</ele>
        <time>2022-02-09T09:38:57Z</time>
      </trkpt>
      <trkpt lat="42.85523" lon="0.24115">
        <ele>1994.9</ele>
        <time>2022-02-09T09:38:58Z</time>
      </trkpt>
      <trkpt lat="42.85523" lon="0.24114">
        <ele>1994.9</ele>
        <time>2022-02-09T09:38:59Z</time>
      </trkpt>
      <trkpt lat="42.85522" lon="0.24113">
        <ele>1995.7</ele>
        <time>2022-02-09T09:39:00Z</time>
      </trkpt>
      <trkpt lat="42.85522" lon="0.24112">
        <ele>1995.7</ele>
        <time>2022-02-09T09:39:01Z</time>
      </trkpt>
      <trkpt lat="42.85521" lon="0.24111">
        <ele>1995.7</ele>
        <time>2022-02-09T09:39:02Z</time>
      </trkpt>
      <trkpt lat="42.8552" lon="0.2411">
        <ele>1995.6</ele>
        <time>2022-02-09T09:39:03Z</time>
      </trkpt>
      <trkpt lat="42.8552" lon="0.24109">
        <ele>1996.4</ele>
        <time>2022-02-09T09:39:04Z</time>
      </trkpt>
      <trkpt lat="42.85519" lon="0.24108">
        <ele>1996.4</ele>
        <time>2022-02-09T09:39:05Z</time>
      </trkpt>
      <trkpt lat="42.85518" lon="0.24107">
        <ele>1996.4</ele>
        <time>2022-02-09T09:39:06Z</time>
      </trkpt>
      <trkpt lat="42.85517" lon="0.24107">
        <ele>1996.2</ele>
        <time>2022-02-09T09:39:07Z</time>
      </trkpt>
      <trkpt lat="42.85516" lon="0.24106">
        <ele>1996.2</ele>
        <time>2022-02-09T09:39:08Z</time>
      </trkpt>
      <trkpt lat="42.85516" lon="0.24105">
        <ele>1997</ele>
        <time>2022-02-09T09:39:09Z</time>
      </trkpt>
      <trkpt lat="42.85516" lon="0.24103">
        <ele>1997</ele>
        <time>2022-02-09T09:39:10Z</time>
      </trkpt>
      <trkpt lat="42.85515" lon="0.24101">
        <ele>1997.7</ele>
        <time>2022-02-09T09:39:11Z</time>
      </trkpt>
      <trkpt lat="42.85515" lon="0.241">
        <ele>1997.7</ele>
        <time>2022-02-09T09:39:12Z</time>
      </trkpt>
      <trkpt lat="42.85514" lon="0.24103">
        <ele>1997</ele>
        <time>2022-02-09T09:39:13Z</time>
      </trkpt>
      <trkpt lat="42.85514" lon="0.24103">
        <ele>1996.8</ele>
        <time>2022-02-09T09:39:14Z</time>
      </trkpt>
      <trkpt lat="42.85513" lon="0.24102">
        <ele>1996.8</ele>
        <time>2022-02-09T09:39:15Z</time>
      </trkpt>
      <trkpt lat="42.85512" lon="0.24101">
        <ele>1997.5</ele>
        <time>2022-02-09T09:39:16Z</time>
      </trkpt>
      <trkpt lat="42.85511" lon="0.241">
        <ele>1997.4</ele>
        <time>2022-02-09T09:39:17Z</time>
      </trkpt>
      <trkpt lat="42.8551" lon="0.24099">
        <ele>1997.4</ele>
        <time>2022-02-09T09:39:18Z</time>
      </trkpt>
      <trkpt lat="42.85509" lon="0.24098">
        <ele>1997.4</ele>
        <time>2022-02-09T09:39:19Z</time>
      </trkpt>
      <trkpt lat="42.85509" lon="0.24098">
        <ele>1997.4</ele>
        <time>2022-02-09T09:39:20Z</time>
      </trkpt>
      <trkpt lat="42.85508" lon="0.24097">
        <ele>1997.4</ele>
        <time>2022-02-09T09:39:21Z</time>
      </trkpt>
      <trkpt lat="42.85508" lon="0.24096">
        <ele>1998</ele>
        <time>2022-02-09T09:39:22Z</time>
      </trkpt>
      <trkpt lat="42.85508" lon="0.24096">
        <ele>1997.9</ele>
        <time>2022-02-09T09:39:23Z</time>
      </trkpt>
      <trkpt lat="42.85507" lon="0.24095">
        <ele>1997.9</ele>
        <time>2022-02-09T09:39:24Z</time>
      </trkpt>
      <trkpt lat="42.85506" lon="0.24094">
        <ele>1997.9</ele>
        <time>2022-02-09T09:39:25Z</time>
      </trkpt>
      <trkpt lat="42.85506" lon="0.24093">
        <ele>1997.9</ele>
        <time>2022-02-09T09:39:26Z</time>
      </trkpt>
      <trkpt lat="42.85505" lon="0.24092">
        <ele>1998.5</ele>
        <time>2022-02-09T09:39:27Z</time>
      </trkpt>
      <trkpt lat="42.85504" lon="0.24091">
        <ele>1998.4</ele>
        <time>2022-02-09T09:39:28Z</time>
      </trkpt>
      <trkpt lat="42.85504" lon="0.2409">
        <ele>1998.4</ele>
        <time>2022-02-09T09:39:29Z</time>
      </trkpt>
      <trkpt lat="42.85503" lon="0.24089">
        <ele>1998.4</ele>
        <time>2022-02-09T09:39:30Z</time>
      </trkpt>
      <trkpt lat="42.85502" lon="0.24089">
        <ele>1998.4</ele>
        <time>2022-02-09T09:39:31Z</time>
      </trkpt>
      <trkpt lat="42.85502" lon="0.24088">
        <ele>1998.8</ele>
        <time>2022-02-09T09:39:32Z</time>
      </trkpt>
      <trkpt lat="42.85501" lon="0.24087">
        <ele>1998.8</ele>
        <time>2022-02-09T09:39:33Z</time>
      </trkpt>
      <trkpt lat="42.855" lon="0.24086">
        <ele>1998.8</ele>
        <time>2022-02-09T09:39:34Z</time>
      </trkpt>
      <trkpt lat="42.855" lon="0.24085">
        <ele>1998.8</ele>
        <time>2022-02-09T09:39:35Z</time>
      </trkpt>
      <trkpt lat="42.85499" lon="0.24085">
        <ele>1998.8</ele>
        <time>2022-02-09T09:39:36Z</time>
      </trkpt>
      <trkpt lat="42.85499" lon="0.24084">
        <ele>1999.2</ele>
        <time>2022-02-09T09:39:37Z</time>
      </trkpt>
      <trkpt lat="42.85499" lon="0.24083">
        <ele>1999.2</ele>
        <time>2022-02-09T09:39:38Z</time>
      </trkpt>
      <trkpt lat="42.85498" lon="0.24082">
        <ele>1999.1</ele>
        <time>2022-02-09T09:39:39Z</time>
      </trkpt>
      <trkpt lat="42.85498" lon="0.24082">
        <ele>1999.1</ele>
        <time>2022-02-09T09:39:40Z</time>
      </trkpt>
      <trkpt lat="42.85497" lon="0.24081">
        <ele>1999.1</ele>
        <time>2022-02-09T09:39:41Z</time>
      </trkpt>
      <trkpt lat="42.85497" lon="0.2408">
        <ele>1999.1</ele>
        <time>2022-02-09T09:39:42Z</time>
      </trkpt>
      <trkpt lat="42.85496" lon="0.24079">
        <ele>1999.5</ele>
        <time>2022-02-09T09:39:43Z</time>
      </trkpt>
      <trkpt lat="42.85495" lon="0.24078">
        <ele>1999.5</ele>
        <time>2022-02-09T09:39:44Z</time>
      </trkpt>
      <trkpt lat="42.85495" lon="0.24077">
        <ele>1999.3</ele>
        <time>2022-02-09T09:39:45Z</time>
      </trkpt>
      <trkpt lat="42.85494" lon="0.24076">
        <ele>1999.3</ele>
        <time>2022-02-09T09:39:46Z</time>
      </trkpt>
      <trkpt lat="42.85494" lon="0.24075">
        <ele>1999.7</ele>
        <time>2022-02-09T09:39:47Z</time>
      </trkpt>
      <trkpt lat="42.85493" lon="0.24074">
        <ele>1999.7</ele>
        <time>2022-02-09T09:39:48Z</time>
      </trkpt>
      <trkpt lat="42.85493" lon="0.24073">
        <ele>1999.7</ele>
        <time>2022-02-09T09:39:49Z</time>
      </trkpt>
      <trkpt lat="42.85492" lon="0.24072">
        <ele>1999.6</ele>
        <time>2022-02-09T09:39:50Z</time>
      </trkpt>
      <trkpt lat="42.85491" lon="0.24071">
        <ele>1999.6</ele>
        <time>2022-02-09T09:39:51Z</time>
      </trkpt>
      <trkpt lat="42.85491" lon="0.2407">
        <ele>1999.9</ele>
        <time>2022-02-09T09:39:52Z</time>
      </trkpt>
      <trkpt lat="42.85491" lon="0.24069">
        <ele>1999.9</ele>
        <time>2022-02-09T09:39:53Z</time>
      </trkpt>
      <trkpt lat="42.8549" lon="0.24068">
        <ele>1999.9</ele>
        <time>2022-02-09T09:39:54Z</time>
      </trkpt>
      <trkpt lat="42.85489" lon="0.24067">
        <ele>1999.9</ele>
        <time>2022-02-09T09:39:55Z</time>
      </trkpt>
      <trkpt lat="42.85489" lon="0.24066">
        <ele>2000.2</ele>
        <time>2022-02-09T09:39:56Z</time>
      </trkpt>
      <trkpt lat="42.85488" lon="0.24065">
        <ele>2000.2</ele>
        <time>2022-02-09T09:39:57Z</time>
      </trkpt>
      <trkpt lat="42.85488" lon="0.24064">
        <ele>2000.2</ele>
        <time>2022-02-09T09:39:58Z</time>
      </trkpt>
      <trkpt lat="42.85487" lon="0.24063">
        <ele>2000.2</ele>
        <time>2022-02-09T09:39:59Z</time>
      </trkpt>
      <trkpt lat="42.85487" lon="0.24062">
        <ele>2000.5</ele>
        <time>2022-02-09T09:40:00Z</time>
      </trkpt>
      <trkpt lat="42.85486" lon="0.24061">
        <ele>2000.5</ele>
        <time>2022-02-09T09:40:01Z</time>
      </trkpt>
      <trkpt lat="42.85486" lon="0.24061">
        <ele>2000.5</ele>
        <time>2022-02-09T09:40:02Z</time>
      </trkpt>
      <trkpt lat="42.85485" lon="0.2406">
        <ele>2000.5</ele>
        <time>2022-02-09T09:40:03Z</time>
      </trkpt>
      <trkpt lat="42.85485" lon="0.24059">
        <ele>2000.5</ele>
        <time>2022-02-09T09:40:04Z</time>
      </trkpt>
      <trkpt lat="42.85484" lon="0.24058">
        <ele>2000.8</ele>
        <time>2022-02-09T09:40:05Z</time>
      </trkpt>
      <trkpt lat="42.85483" lon="0.24057">
        <ele>2000.8</ele>
        <time>2022-02-09T09:40:06Z</time>
      </trkpt>
      <trkpt lat="42.85483" lon="0.24056">
        <ele>2000.8</ele>
        <time>2022-02-09T09:40:07Z</time>
      </trkpt>
      <trkpt lat="42.85482" lon="0.24056">
        <ele>2000.8</ele>
        <time>2022-02-09T09:40:08Z</time>
      </trkpt>
      <trkpt lat="42.85482" lon="0.24055">
        <ele>2000.8</ele>
        <time>2022-02-09T09:40:09Z</time>
      </trkpt>
      <trkpt lat="42.85481" lon="0.24054">
        <ele>2001.1</ele>
        <time>2022-02-09T09:40:10Z</time>
      </trkpt>
      <trkpt lat="42.85481" lon="0.24053">
        <ele>2001.1</ele>
        <time>2022-02-09T09:40:11Z</time>
      </trkpt>
      <trkpt lat="42.8548" lon="0.24052">
        <ele>2001.1</ele>
        <time>2022-02-09T09:40:12Z</time>
      </trkpt>
      <trkpt lat="42.8548" lon="0.24051">
        <ele>2001.1</ele>
        <time>2022-02-09T09:40:13Z</time>
      </trkpt>
      <trkpt lat="42.85479" lon="0.2405">
        <ele>2001.1</ele>
        <time>2022-02-09T09:40:14Z</time>
      </trkpt>
      <trkpt lat="42.85479" lon="0.24049">
        <ele>2001.4</ele>
        <time>2022-02-09T09:40:15Z</time>
      </trkpt>
      <trkpt lat="42.85479" lon="0.24049">
        <ele>2001.4</ele>
        <time>2022-02-09T09:40:16Z</time>
      </trkpt>
      <trkpt lat="42.85479" lon="0.24048">
        <ele>2001.4</ele>
        <time>2022-02-09T09:40:17Z</time>
      </trkpt>
      <trkpt lat="42.85479" lon="0.24047">
        <ele>2001.4</ele>
        <time>2022-02-09T09:40:18Z</time>
      </trkpt>
      <trkpt lat="42.85479" lon="0.24046">
        <ele>2001.4</ele>
        <time>2022-02-09T09:40:19Z</time>
      </trkpt>
      <trkpt lat="42.85479" lon="0.24045">
        <ele>2001.8</ele>
        <time>2022-02-09T09:40:20Z</time>
      </trkpt>
      <trkpt lat="42.85479" lon="0.24044">
        <ele>2001.8</ele>
        <time>2022-02-09T09:40:21Z</time>
      </trkpt>
      <trkpt lat="42.85479" lon="0.24043">
        <ele>2001.8</ele>
        <time>2022-02-09T09:40:22Z</time>
      </trkpt>
      <trkpt lat="42.85479" lon="0.24042">
        <ele>2001.8</ele>
        <time>2022-02-09T09:40:23Z</time>
      </trkpt>
      <trkpt lat="42.85479" lon="0.24041">
        <ele>2002.2</ele>
        <time>2022-02-09T09:40:24Z</time>
      </trkpt>
      <trkpt lat="42.85479" lon="0.2404">
        <ele>2002.2</ele>
        <time>2022-02-09T09:40:25Z</time>
      </trkpt>
      <trkpt lat="42.85479" lon="0.24039">
        <ele>2002.2</ele>
        <time>2022-02-09T09:40:26Z</time>
      </trkpt>
      <trkpt lat="42.85479" lon="0.24038">
        <ele>2002.2</ele>
        <time>2022-02-09T09:40:27Z</time>
      </trkpt>
      <trkpt lat="42.85479" lon="0.24036">
        <ele>2002.6</ele>
        <time>2022-02-09T09:40:28Z</time>
      </trkpt>
      <trkpt lat="42.85479" lon="0.24035">
        <ele>2002.6</ele>
        <time>2022-02-09T09:40:29Z</time>
      </trkpt>
      <trkpt lat="42.85479" lon="0.24034">
        <ele>2002.6</ele>
        <time>2022-02-09T09:40:30Z</time>
      </trkpt>
      <trkpt lat="42.85479" lon="0.24033">
        <ele>2002.6</ele>
        <time>2022-02-09T09:40:31Z</time>
      </trkpt>
      <trkpt lat="42.85479" lon="0.24031">
        <ele>2003</ele>
        <time>2022-02-09T09:40:32Z</time>
      </trkpt>
      <trkpt lat="42.85479" lon="0.2403">
        <ele>2003</ele>
        <time>2022-02-09T09:40:33Z</time>
      </trkpt>
      <trkpt lat="42.85479" lon="0.24029">
        <ele>2003</ele>
        <time>2022-02-09T09:40:34Z</time>
      </trkpt>
      <trkpt lat="42.85479" lon="0.24028">
        <ele>2003.4</ele>
        <time>2022-02-09T09:40:35Z</time>
      </trkpt>
      <trkpt lat="42.85478" lon="0.24027">
        <ele>2003.4</ele>
        <time>2022-02-09T09:40:36Z</time>
      </trkpt>
      <trkpt lat="42.85478" lon="0.24025">
        <ele>2003.4</ele>
        <time>2022-02-09T09:40:37Z</time>
      </trkpt>
      <trkpt lat="42.85478" lon="0.24024">
        <ele>2003.7</ele>
        <time>2022-02-09T09:40:38Z</time>
      </trkpt>
      <trkpt lat="42.85478" lon="0.24023">
        <ele>2003.7</ele>
        <time>2022-02-09T09:40:39Z</time>
      </trkpt>
      <trkpt lat="42.85478" lon="0.24022">
        <ele>2003.7</ele>
        <time>2022-02-09T09:40:40Z</time>
      </trkpt>
      <trkpt lat="42.85477" lon="0.24021">
        <ele>2003.7</ele>
        <time>2022-02-09T09:40:41Z</time>
      </trkpt>
      <trkpt lat="42.85477" lon="0.24019">
        <ele>2004.1</ele>
        <time>2022-02-09T09:40:42Z</time>
      </trkpt>
      <trkpt lat="42.85477" lon="0.24018">
        <ele>2004.1</ele>
        <time>2022-02-09T09:40:43Z</time>
      </trkpt>
      <trkpt lat="42.85477" lon="0.24017">
        <ele>2004.1</ele>
        <time>2022-02-09T09:40:44Z</time>
      </trkpt>
      <trkpt lat="42.85477" lon="0.24016">
        <ele>2004.1</ele>
        <time>2022-02-09T09:40:45Z</time>
      </trkpt>
      <trkpt lat="42.85477" lon="0.24015">
        <ele>2004.4</ele>
        <time>2022-02-09T09:40:46Z</time>
      </trkpt>
      <trkpt lat="42.85476" lon="0.24013">
        <ele>2004.2</ele>
        <time>2022-02-09T09:40:47Z</time>
      </trkpt>
      <trkpt lat="42.85476" lon="0.24012">
        <ele>2004.2</ele>
        <time>2022-02-09T09:40:48Z</time>
      </trkpt>
      <trkpt lat="42.85476" lon="0.2401">
        <ele>2004.5</ele>
        <time>2022-02-09T09:40:49Z</time>
      </trkpt>
      <trkpt lat="42.85476" lon="0.24009">
        <ele>2004.5</ele>
        <time>2022-02-09T09:40:50Z</time>
      </trkpt>
      <trkpt lat="42.85476" lon="0.24008">
        <ele>2004.5</ele>
        <time>2022-02-09T09:40:51Z</time>
      </trkpt>
      <trkpt lat="42.85476" lon="0.24007">
        <ele>2004.8</ele>
        <time>2022-02-09T09:40:52Z</time>
      </trkpt>
      <trkpt lat="42.85476" lon="0.24005">
        <ele>2004.8</ele>
        <time>2022-02-09T09:40:53Z</time>
      </trkpt>
      <trkpt lat="42.85476" lon="0.24004">
        <ele>2004.8</ele>
        <time>2022-02-09T09:40:54Z</time>
      </trkpt>
      <trkpt lat="42.85476" lon="0.24002">
        <ele>2005.1</ele>
        <time>2022-02-09T09:40:55Z</time>
      </trkpt>
      <trkpt lat="42.85476" lon="0.24001">
        <ele>2005.1</ele>
        <time>2022-02-09T09:40:56Z</time>
      </trkpt>
      <trkpt lat="42.85475" lon="0.23999">
        <ele>2005.1</ele>
        <time>2022-02-09T09:40:57Z</time>
      </trkpt>
      <trkpt lat="42.85475" lon="0.23998">
        <ele>2005.5</ele>
        <time>2022-02-09T09:40:58Z</time>
      </trkpt>
      <trkpt lat="42.85475" lon="0.23997">
        <ele>2005.5</ele>
        <time>2022-02-09T09:40:59Z</time>
      </trkpt>
      <trkpt lat="42.85475" lon="0.23996">
        <ele>2005.5</ele>
        <time>2022-02-09T09:41:00Z</time>
      </trkpt>
      <trkpt lat="42.85474" lon="0.23995">
        <ele>2005.5</ele>
        <time>2022-02-09T09:41:01Z</time>
      </trkpt>
      <trkpt lat="42.85474" lon="0.23994">
        <ele>2005.8</ele>
        <time>2022-02-09T09:41:02Z</time>
      </trkpt>
      <trkpt lat="42.85475" lon="0.23992">
        <ele>2005.8</ele>
        <time>2022-02-09T09:41:03Z</time>
      </trkpt>
      <trkpt lat="42.85475" lon="0.23991">
        <ele>2005.8</ele>
        <time>2022-02-09T09:41:04Z</time>
      </trkpt>
      <trkpt lat="42.85475" lon="0.2399">
        <ele>2005.8</ele>
        <time>2022-02-09T09:41:05Z</time>
      </trkpt>
      <trkpt lat="42.85475" lon="0.23989">
        <ele>2006.2</ele>
        <time>2022-02-09T09:41:06Z</time>
      </trkpt>
      <trkpt lat="42.85476" lon="0.23988">
        <ele>2006.2</ele>
        <time>2022-02-09T09:41:07Z</time>
      </trkpt>
      <trkpt lat="42.85476" lon="0.23987">
        <ele>2006.2</ele>
        <time>2022-02-09T09:41:08Z</time>
      </trkpt>
      <trkpt lat="42.85477" lon="0.23985">
        <ele>2006.8</ele>
        <time>2022-02-09T09:41:09Z</time>
      </trkpt>
      <trkpt lat="42.85477" lon="0.23984">
        <ele>2006.8</ele>
        <time>2022-02-09T09:41:10Z</time>
      </trkpt>
      <trkpt lat="42.85477" lon="0.23983">
        <ele>2006.8</ele>
        <time>2022-02-09T09:41:11Z</time>
      </trkpt>
      <trkpt lat="42.85477" lon="0.23982">
        <ele>2006.8</ele>
        <time>2022-02-09T09:41:12Z</time>
      </trkpt>
      <trkpt lat="42.85478" lon="0.23981">
        <ele>2006.8</ele>
        <time>2022-02-09T09:41:13Z</time>
      </trkpt>
      <trkpt lat="42.85478" lon="0.2398">
        <ele>2007.2</ele>
        <time>2022-02-09T09:41:14Z</time>
      </trkpt>
      <trkpt lat="42.85478" lon="0.23979">
        <ele>2007.3</ele>
        <time>2022-02-09T09:41:15Z</time>
      </trkpt>
      <trkpt lat="42.85478" lon="0.23978">
        <ele>2007.3</ele>
        <time>2022-02-09T09:41:16Z</time>
      </trkpt>
      <trkpt lat="42.85478" lon="0.23977">
        <ele>2007.4</ele>
        <time>2022-02-09T09:41:17Z</time>
      </trkpt>
      <trkpt lat="42.85478" lon="0.23977">
        <ele>2007.9</ele>
        <time>2022-02-09T09:41:18Z</time>
      </trkpt>
      <trkpt lat="42.85479" lon="0.23976">
        <ele>2008</ele>
        <time>2022-02-09T09:41:19Z</time>
      </trkpt>
      <trkpt lat="42.85479" lon="0.23975">
        <ele>2008.1</ele>
        <time>2022-02-09T09:41:20Z</time>
      </trkpt>
      <trkpt lat="42.85479" lon="0.23974">
        <ele>2008.1</ele>
        <time>2022-02-09T09:41:21Z</time>
      </trkpt>
      <trkpt lat="42.85479" lon="0.23973">
        <ele>2008.2</ele>
        <time>2022-02-09T09:41:22Z</time>
      </trkpt>
      <trkpt lat="42.85479" lon="0.23972">
        <ele>2008.6</ele>
        <time>2022-02-09T09:41:23Z</time>
      </trkpt>
      <trkpt lat="42.85479" lon="0.23971">
        <ele>2008.7</ele>
        <time>2022-02-09T09:41:24Z</time>
      </trkpt>
      <trkpt lat="42.85479" lon="0.23971">
        <ele>2008.8</ele>
        <time>2022-02-09T09:41:25Z</time>
      </trkpt>
      <trkpt lat="42.85479" lon="0.2397">
        <ele>2008.8</ele>
        <time>2022-02-09T09:41:26Z</time>
      </trkpt>
      <trkpt lat="42.85479" lon="0.23969">
        <ele>2008.9</ele>
        <time>2022-02-09T09:41:27Z</time>
      </trkpt>
      <trkpt lat="42.8548" lon="0.23968">
        <ele>2009.6</ele>
        <time>2022-02-09T09:41:28Z</time>
      </trkpt>
      <trkpt lat="42.8548" lon="0.23967">
        <ele>2009.7</ele>
        <time>2022-02-09T09:41:29Z</time>
      </trkpt>
      <trkpt lat="42.8548" lon="0.23966">
        <ele>2009.8</ele>
        <time>2022-02-09T09:41:30Z</time>
      </trkpt>
      <trkpt lat="42.8548" lon="0.23965">
        <ele>2009.8</ele>
        <time>2022-02-09T09:41:31Z</time>
      </trkpt>
      <trkpt lat="42.8548" lon="0.23964">
        <ele>2009.9</ele>
        <time>2022-02-09T09:41:32Z</time>
      </trkpt>
      <trkpt lat="42.8548" lon="0.23963">
        <ele>2010.4</ele>
        <time>2022-02-09T09:41:33Z</time>
      </trkpt>
      <trkpt lat="42.85479" lon="0.23962">
        <ele>2010.2</ele>
        <time>2022-02-09T09:41:34Z</time>
      </trkpt>
      <trkpt lat="42.85479" lon="0.23962">
        <ele>2010.3</ele>
        <time>2022-02-09T09:41:35Z</time>
      </trkpt>
      <trkpt lat="42.85479" lon="0.23961">
        <ele>2010.3</ele>
        <time>2022-02-09T09:41:36Z</time>
      </trkpt>
      <trkpt lat="42.85479" lon="0.2396">
        <ele>2010.4</ele>
        <time>2022-02-09T09:41:37Z</time>
      </trkpt>
      <trkpt lat="42.85478" lon="0.23959">
        <ele>2010.9</ele>
        <time>2022-02-09T09:41:38Z</time>
      </trkpt>
      <trkpt lat="42.85478" lon="0.23958">
        <ele>2011</ele>
        <time>2022-02-09T09:41:39Z</time>
      </trkpt>
      <trkpt lat="42.85478" lon="0.23958">
        <ele>2011.1</ele>
        <time>2022-02-09T09:41:40Z</time>
      </trkpt>
      <trkpt lat="42.85477" lon="0.23957">
        <ele>2011.1</ele>
        <time>2022-02-09T09:41:41Z</time>
      </trkpt>
      <trkpt lat="42.85477" lon="0.23956">
        <ele>2011.2</ele>
        <time>2022-02-09T09:41:42Z</time>
      </trkpt>
      <trkpt lat="42.85477" lon="0.23956">
        <ele>2011.3</ele>
        <time>2022-02-09T09:41:43Z</time>
      </trkpt>
      <trkpt lat="42.85476" lon="0.23955">
        <ele>2011.6</ele>
        <time>2022-02-09T09:41:44Z</time>
      </trkpt>
      <trkpt lat="42.85476" lon="0.23954">
        <ele>2011.7</ele>
        <time>2022-02-09T09:41:45Z</time>
      </trkpt>
      <trkpt lat="42.85475" lon="0.23954">
        <ele>2011.7</ele>
        <time>2022-02-09T09:41:46Z</time>
      </trkpt>
      <trkpt lat="42.85475" lon="0.23953">
        <ele>2011.8</ele>
        <time>2022-02-09T09:41:47Z</time>
      </trkpt>
      <trkpt lat="42.85474" lon="0.23952">
        <ele>2011.9</ele>
        <time>2022-02-09T09:41:48Z</time>
      </trkpt>
      <trkpt lat="42.85474" lon="0.23952">
        <ele>2012</ele>
        <time>2022-02-09T09:41:49Z</time>
      </trkpt>
      <trkpt lat="42.85474" lon="0.23951">
        <ele>2012.1</ele>
        <time>2022-02-09T09:41:50Z</time>
      </trkpt>
      <trkpt lat="42.85473" lon="0.23951">
        <ele>2012.3</ele>
        <time>2022-02-09T09:41:51Z</time>
      </trkpt>
      <trkpt lat="42.85472" lon="0.2395">
        <ele>2012.4</ele>
        <time>2022-02-09T09:41:52Z</time>
      </trkpt>
      <trkpt lat="42.85472" lon="0.2395">
        <ele>2012.5</ele>
        <time>2022-02-09T09:41:53Z</time>
      </trkpt>
      <trkpt lat="42.85472" lon="0.23949">
        <ele>2012.6</ele>
        <time>2022-02-09T09:41:54Z</time>
      </trkpt>
      <trkpt lat="42.85471" lon="0.23948">
        <ele>2012.7</ele>
        <time>2022-02-09T09:41:55Z</time>
      </trkpt>
      <trkpt lat="42.85471" lon="0.23947">
        <ele>2012.7</ele>
        <time>2022-02-09T09:41:56Z</time>
      </trkpt>
      <trkpt lat="42.85471" lon="0.23947">
        <ele>2013.3</ele>
        <time>2022-02-09T09:41:57Z</time>
      </trkpt>
      <trkpt lat="42.8547" lon="0.23946">
        <ele>2013.4</ele>
        <time>2022-02-09T09:41:58Z</time>
      </trkpt>
      <trkpt lat="42.8547" lon="0.23945">
        <ele>2013.2</ele>
        <time>2022-02-09T09:41:59Z</time>
      </trkpt>
      <trkpt lat="42.8547" lon="0.23944">
        <ele>2013.3</ele>
        <time>2022-02-09T09:42:00Z</time>
      </trkpt>
      <trkpt lat="42.8547" lon="0.23943">
        <ele>2013.3</ele>
        <time>2022-02-09T09:42:01Z</time>
      </trkpt>
      <trkpt lat="42.85469" lon="0.23942">
        <ele>2013.8</ele>
        <time>2022-02-09T09:42:02Z</time>
      </trkpt>
      <trkpt lat="42.85469" lon="0.23942">
        <ele>2013.9</ele>
        <time>2022-02-09T09:42:03Z</time>
      </trkpt>
      <trkpt lat="42.85469" lon="0.23941">
        <ele>2014</ele>
        <time>2022-02-09T09:42:04Z</time>
      </trkpt>
      <trkpt lat="42.85469" lon="0.2394">
        <ele>2014.1</ele>
        <time>2022-02-09T09:42:05Z</time>
      </trkpt>
      <trkpt lat="42.85468" lon="0.23939">
        <ele>2014.1</ele>
        <time>2022-02-09T09:42:06Z</time>
      </trkpt>
      <trkpt lat="42.85468" lon="0.23938">
        <ele>2014.7</ele>
        <time>2022-02-09T09:42:07Z</time>
      </trkpt>
      <trkpt lat="42.85468" lon="0.23937">
        <ele>2014.7</ele>
        <time>2022-02-09T09:42:08Z</time>
      </trkpt>
      <trkpt lat="42.85468" lon="0.23936">
        <ele>2014.8</ele>
        <time>2022-02-09T09:42:09Z</time>
      </trkpt>
      <trkpt lat="42.85468" lon="0.23935">
        <ele>2014.9</ele>
        <time>2022-02-09T09:42:10Z</time>
      </trkpt>
      <trkpt lat="42.85468" lon="0.23934">
        <ele>2015.4</ele>
        <time>2022-02-09T09:42:11Z</time>
      </trkpt>
      <trkpt lat="42.85467" lon="0.23933">
        <ele>2015.5</ele>
        <time>2022-02-09T09:42:12Z</time>
      </trkpt>
      <trkpt lat="42.85467" lon="0.23932">
        <ele>2015.6</ele>
        <time>2022-02-09T09:42:13Z</time>
      </trkpt>
      <trkpt lat="42.85467" lon="0.23931">
        <ele>2015.7</ele>
        <time>2022-02-09T09:42:14Z</time>
      </trkpt>
      <trkpt lat="42.85467" lon="0.2393">
        <ele>2015.8</ele>
        <time>2022-02-09T09:42:15Z</time>
      </trkpt>
      <trkpt lat="42.85467" lon="0.23929">
        <ele>2016.2</ele>
        <time>2022-02-09T09:42:16Z</time>
      </trkpt>
      <trkpt lat="42.85467" lon="0.23928">
        <ele>2016.3</ele>
        <time>2022-02-09T09:42:17Z</time>
      </trkpt>
      <trkpt lat="42.85467" lon="0.23927">
        <ele>2016.4</ele>
        <time>2022-02-09T09:42:18Z</time>
      </trkpt>
      <trkpt lat="42.85467" lon="0.23926">
        <ele>2016.5</ele>
        <time>2022-02-09T09:42:19Z</time>
      </trkpt>
      <trkpt lat="42.85467" lon="0.23925">
        <ele>2017</ele>
        <time>2022-02-09T09:42:20Z</time>
      </trkpt>
      <trkpt lat="42.85467" lon="0.23924">
        <ele>2016.8</ele>
        <time>2022-02-09T09:42:21Z</time>
      </trkpt>
      <trkpt lat="42.85467" lon="0.23923">
        <ele>2016.9</ele>
        <time>2022-02-09T09:42:22Z</time>
      </trkpt>
      <trkpt lat="42.85467" lon="0.23922">
        <ele>2017</ele>
        <time>2022-02-09T09:42:23Z</time>
      </trkpt>
      <trkpt lat="42.85466" lon="0.23921">
        <ele>2017.6</ele>
        <time>2022-02-09T09:42:24Z</time>
      </trkpt>
      <trkpt lat="42.85466" lon="0.2392">
        <ele>2017.7</ele>
        <time>2022-02-09T09:42:25Z</time>
      </trkpt>
      <trkpt lat="42.85466" lon="0.23919">
        <ele>2017.7</ele>
        <time>2022-02-09T09:42:26Z</time>
      </trkpt>
      <trkpt lat="42.85466" lon="0.23918">
        <ele>2017.8</ele>
        <time>2022-02-09T09:42:27Z</time>
      </trkpt>
      <trkpt lat="42.85466" lon="0.23917">
        <ele>2017.9</ele>
        <time>2022-02-09T09:42:28Z</time>
      </trkpt>
      <trkpt lat="42.85466" lon="0.23916">
        <ele>2018.5</ele>
        <time>2022-02-09T09:42:29Z</time>
      </trkpt>
      <trkpt lat="42.85466" lon="0.23915">
        <ele>2018.6</ele>
        <time>2022-02-09T09:42:30Z</time>
      </trkpt>
      <trkpt lat="42.85466" lon="0.23914">
        <ele>2018.6</ele>
        <time>2022-02-09T09:42:31Z</time>
      </trkpt>
      <trkpt lat="42.85466" lon="0.23913">
        <ele>2018.7</ele>
        <time>2022-02-09T09:42:32Z</time>
      </trkpt>
      <trkpt lat="42.85466" lon="0.23912">
        <ele>2019.4</ele>
        <time>2022-02-09T09:42:33Z</time>
      </trkpt>
      <trkpt lat="42.85465" lon="0.23911">
        <ele>2019.5</ele>
        <time>2022-02-09T09:42:34Z</time>
      </trkpt>
      <trkpt lat="42.85465" lon="0.2391">
        <ele>2019.6</ele>
        <time>2022-02-09T09:42:35Z</time>
      </trkpt>
      <trkpt lat="42.85465" lon="0.23909">
        <ele>2019.6</ele>
        <time>2022-02-09T09:42:36Z</time>
      </trkpt>
      <trkpt lat="42.85465" lon="0.23908">
        <ele>2020.2</ele>
        <time>2022-02-09T09:42:37Z</time>
      </trkpt>
      <trkpt lat="42.85465" lon="0.23907">
        <ele>2020.3</ele>
        <time>2022-02-09T09:42:38Z</time>
      </trkpt>
      <trkpt lat="42.85465" lon="0.23906">
        <ele>2020.4</ele>
        <time>2022-02-09T09:42:39Z</time>
      </trkpt>
      <trkpt lat="42.85464" lon="0.23905">
        <ele>2020.5</ele>
        <time>2022-02-09T09:42:40Z</time>
      </trkpt>
      <trkpt lat="42.85464" lon="0.23904">
        <ele>2021.2</ele>
        <time>2022-02-09T09:42:41Z</time>
      </trkpt>
      <trkpt lat="42.85464" lon="0.23903">
        <ele>2021.1</ele>
        <time>2022-02-09T09:42:42Z</time>
      </trkpt>
      <trkpt lat="42.85463" lon="0.23902">
        <ele>2021.2</ele>
        <time>2022-02-09T09:42:43Z</time>
      </trkpt>
      <trkpt lat="42.85462" lon="0.23901">
        <ele>2021.3</ele>
        <time>2022-02-09T09:42:44Z</time>
      </trkpt>
      <trkpt lat="42.85462" lon="0.239">
        <ele>2021.4</ele>
        <time>2022-02-09T09:42:45Z</time>
      </trkpt>
      <trkpt lat="42.85461" lon="0.239">
        <ele>2021.4</ele>
        <time>2022-02-09T09:42:46Z</time>
      </trkpt>
      <trkpt lat="42.8546" lon="0.23899">
        <ele>2021.9</ele>
        <time>2022-02-09T09:42:47Z</time>
      </trkpt>
      <trkpt lat="42.85459" lon="0.23898">
        <ele>2022</ele>
        <time>2022-02-09T09:42:48Z</time>
      </trkpt>
      <trkpt lat="42.85458" lon="0.23898">
        <ele>2022.1</ele>
        <time>2022-02-09T09:42:49Z</time>
      </trkpt>
      <trkpt lat="42.85458" lon="0.23897">
        <ele>2022.2</ele>
        <time>2022-02-09T09:42:50Z</time>
      </trkpt>
      <trkpt lat="42.85456" lon="0.23896">
        <ele>2022.1</ele>
        <time>2022-02-09T09:42:51Z</time>
      </trkpt>
      <trkpt lat="42.85455" lon="0.23896">
        <ele>2022.2</ele>
        <time>2022-02-09T09:42:52Z</time>
      </trkpt>
      <trkpt lat="42.85455" lon="0.23895">
        <ele>2022.8</ele>
        <time>2022-02-09T09:42:53Z</time>
      </trkpt>
      <trkpt lat="42.85454" lon="0.23894">
        <ele>2022.7</ele>
        <time>2022-02-09T09:42:54Z</time>
      </trkpt>
      <trkpt lat="42.85453" lon="0.23893">
        <ele>2022.7</ele>
        <time>2022-02-09T09:42:55Z</time>
      </trkpt>
      <trkpt lat="42.85452" lon="0.23893">
        <ele>2022.7</ele>
        <time>2022-02-09T09:42:56Z</time>
      </trkpt>
      <trkpt lat="42.85452" lon="0.23892">
        <ele>2022.7</ele>
        <time>2022-02-09T09:42:57Z</time>
      </trkpt>
      <trkpt lat="42.85451" lon="0.23891">
        <ele>2022.7</ele>
        <time>2022-02-09T09:42:58Z</time>
      </trkpt>
      <trkpt lat="42.8545" lon="0.23891">
        <ele>2023.1</ele>
        <time>2022-02-09T09:42:59Z</time>
      </trkpt>
      <trkpt lat="42.8545" lon="0.2389">
        <ele>2023.1</ele>
        <time>2022-02-09T09:43:00Z</time>
      </trkpt>
      <trkpt lat="42.85449" lon="0.23889">
        <ele>2023.1</ele>
        <time>2022-02-09T09:43:01Z</time>
      </trkpt>
      <trkpt lat="42.85449" lon="0.23888">
        <ele>2023.1</ele>
        <time>2022-02-09T09:43:02Z</time>
      </trkpt>
      <trkpt lat="42.85448" lon="0.23888">
        <ele>2023.1</ele>
        <time>2022-02-09T09:43:03Z</time>
      </trkpt>
      <trkpt lat="42.85448" lon="0.23887">
        <ele>2023.4</ele>
        <time>2022-02-09T09:43:04Z</time>
      </trkpt>
      <trkpt lat="42.85447" lon="0.23886">
        <ele>2023.4</ele>
        <time>2022-02-09T09:43:05Z</time>
      </trkpt>
      <trkpt lat="42.85446" lon="0.23885">
        <ele>2023.4</ele>
        <time>2022-02-09T09:43:06Z</time>
      </trkpt>
      <trkpt lat="42.85446" lon="0.23884">
        <ele>2023.4</ele>
        <time>2022-02-09T09:43:07Z</time>
      </trkpt>
      <trkpt lat="42.85445" lon="0.23883">
        <ele>2023.4</ele>
        <time>2022-02-09T09:43:08Z</time>
      </trkpt>
      <trkpt lat="42.85445" lon="0.23882">
        <ele>2023.7</ele>
        <time>2022-02-09T09:43:09Z</time>
      </trkpt>
      <trkpt lat="42.85444" lon="0.23881">
        <ele>2023.7</ele>
        <time>2022-02-09T09:43:10Z</time>
      </trkpt>
      <trkpt lat="42.85444" lon="0.23881">
        <ele>2023.7</ele>
        <time>2022-02-09T09:43:11Z</time>
      </trkpt>
      <trkpt lat="42.85443" lon="0.2388">
        <ele>2023.7</ele>
        <time>2022-02-09T09:43:12Z</time>
      </trkpt>
      <trkpt lat="42.85443" lon="0.23879">
        <ele>2023.7</ele>
        <time>2022-02-09T09:43:13Z</time>
      </trkpt>
      <trkpt lat="42.85442" lon="0.23878">
        <ele>2024.2</ele>
        <time>2022-02-09T09:43:14Z</time>
      </trkpt>
      <trkpt lat="42.85442" lon="0.23877">
        <ele>2023.9</ele>
        <time>2022-02-09T09:43:15Z</time>
      </trkpt>
      <trkpt lat="42.85441" lon="0.23876">
        <ele>2023.9</ele>
        <time>2022-02-09T09:43:16Z</time>
      </trkpt>
      <trkpt lat="42.85441" lon="0.23875">
        <ele>2023.9</ele>
        <time>2022-02-09T09:43:17Z</time>
      </trkpt>
      <trkpt lat="42.85441" lon="0.23875">
        <ele>2023.9</ele>
        <time>2022-02-09T09:43:18Z</time>
      </trkpt>
      <trkpt lat="42.8544" lon="0.23874">
        <ele>2024.5</ele>
        <time>2022-02-09T09:43:19Z</time>
      </trkpt>
      <trkpt lat="42.8544" lon="0.23873">
        <ele>2024.5</ele>
        <time>2022-02-09T09:43:20Z</time>
      </trkpt>
      <trkpt lat="42.85439" lon="0.23872">
        <ele>2024.5</ele>
        <time>2022-02-09T09:43:21Z</time>
      </trkpt>
      <trkpt lat="42.85439" lon="0.23871">
        <ele>2024.5</ele>
        <time>2022-02-09T09:43:22Z</time>
      </trkpt>
      <trkpt lat="42.85438" lon="0.2387">
        <ele>2024.2</ele>
        <time>2022-02-09T09:43:23Z</time>
      </trkpt>
      <trkpt lat="42.85438" lon="0.23869">
        <ele>2024.8</ele>
        <time>2022-02-09T09:43:24Z</time>
      </trkpt>
      <trkpt lat="42.85438" lon="0.23868">
        <ele>2024.8</ele>
        <time>2022-02-09T09:43:25Z</time>
      </trkpt>
      <trkpt lat="42.85437" lon="0.23868">
        <ele>2024.8</ele>
        <time>2022-02-09T09:43:26Z</time>
      </trkpt>
      <trkpt lat="42.85437" lon="0.23867">
        <ele>2024.8</ele>
        <time>2022-02-09T09:43:27Z</time>
      </trkpt>
      <trkpt lat="42.85437" lon="0.23866">
        <ele>2024.8</ele>
        <time>2022-02-09T09:43:28Z</time>
      </trkpt>
      <trkpt lat="42.85436" lon="0.23865">
        <ele>2025.4</ele>
        <time>2022-02-09T09:43:29Z</time>
      </trkpt>
      <trkpt lat="42.85436" lon="0.23864">
        <ele>2025.4</ele>
        <time>2022-02-09T09:43:30Z</time>
      </trkpt>
      <trkpt lat="42.85435" lon="0.23864">
        <ele>2025.1</ele>
        <time>2022-02-09T09:43:31Z</time>
      </trkpt>
      <trkpt lat="42.85435" lon="0.23863">
        <ele>2025.1</ele>
        <time>2022-02-09T09:43:32Z</time>
      </trkpt>
      <trkpt lat="42.85434" lon="0.23862">
        <ele>2025.1</ele>
        <time>2022-02-09T09:43:33Z</time>
      </trkpt>
      <trkpt lat="42.85434" lon="0.23861">
        <ele>2025.7</ele>
        <time>2022-02-09T09:43:34Z</time>
      </trkpt>
      <trkpt lat="42.85433" lon="0.2386">
        <ele>2025.7</ele>
        <time>2022-02-09T09:43:35Z</time>
      </trkpt>
      <trkpt lat="42.85433" lon="0.23859">
        <ele>2025.7</ele>
        <time>2022-02-09T09:43:36Z</time>
      </trkpt>
      <trkpt lat="42.85433" lon="0.23858">
        <ele>2025.7</ele>
        <time>2022-02-09T09:43:37Z</time>
      </trkpt>
      <trkpt lat="42.85432" lon="0.23857">
        <ele>2025.7</ele>
        <time>2022-02-09T09:43:38Z</time>
      </trkpt>
      <trkpt lat="42.85432" lon="0.23856">
        <ele>2026.1</ele>
        <time>2022-02-09T09:43:39Z</time>
      </trkpt>
      <trkpt lat="42.85432" lon="0.23855">
        <ele>2026.1</ele>
        <time>2022-02-09T09:43:40Z</time>
      </trkpt>
      <trkpt lat="42.85432" lon="0.23855">
        <ele>2026.1</ele>
        <time>2022-02-09T09:43:41Z</time>
      </trkpt>
      <trkpt lat="42.85431" lon="0.23854">
        <ele>2026.1</ele>
        <time>2022-02-09T09:43:42Z</time>
      </trkpt>
      <trkpt lat="42.85431" lon="0.23853">
        <ele>2026.1</ele>
        <time>2022-02-09T09:43:43Z</time>
      </trkpt>
      <trkpt lat="42.85431" lon="0.23852">
        <ele>2026.6</ele>
        <time>2022-02-09T09:43:44Z</time>
      </trkpt>
      <trkpt lat="42.8543" lon="0.23851">
        <ele>2026.6</ele>
        <time>2022-02-09T09:43:45Z</time>
      </trkpt>
      <trkpt lat="42.8543" lon="0.2385">
        <ele>2026.6</ele>
        <time>2022-02-09T09:43:46Z</time>
      </trkpt>
      <trkpt lat="42.8543" lon="0.23849">
        <ele>2026.6</ele>
        <time>2022-02-09T09:43:47Z</time>
      </trkpt>
      <trkpt lat="42.85429" lon="0.23848">
        <ele>2026.6</ele>
        <time>2022-02-09T09:43:48Z</time>
      </trkpt>
      <trkpt lat="42.85429" lon="0.23847">
        <ele>2027.2</ele>
        <time>2022-02-09T09:43:49Z</time>
      </trkpt>
      <trkpt lat="42.85429" lon="0.23846">
        <ele>2026.9</ele>
        <time>2022-02-09T09:43:50Z</time>
      </trkpt>
      <trkpt lat="42.85429" lon="0.23845">
        <ele>2026.9</ele>
        <time>2022-02-09T09:43:51Z</time>
      </trkpt>
      <trkpt lat="42.85428" lon="0.23845">
        <ele>2026.9</ele>
        <time>2022-02-09T09:43:52Z</time>
      </trkpt>
      <trkpt lat="42.85428" lon="0.23844">
        <ele>2027.5</ele>
        <time>2022-02-09T09:43:53Z</time>
      </trkpt>
      <trkpt lat="42.85427" lon="0.23843">
        <ele>2027.5</ele>
        <time>2022-02-09T09:43:54Z</time>
      </trkpt>
      <trkpt lat="42.85427" lon="0.23842">
        <ele>2027.5</ele>
        <time>2022-02-09T09:43:55Z</time>
      </trkpt>
      <trkpt lat="42.85427" lon="0.23841">
        <ele>2027.5</ele>
        <time>2022-02-09T09:43:56Z</time>
      </trkpt>
      <trkpt lat="42.85426" lon="0.2384">
        <ele>2027.5</ele>
        <time>2022-02-09T09:43:57Z</time>
      </trkpt>
      <trkpt lat="42.85426" lon="0.23839">
        <ele>2028.1</ele>
        <time>2022-02-09T09:43:58Z</time>
      </trkpt>
      <trkpt lat="42.85426" lon="0.23838">
        <ele>2027.8</ele>
        <time>2022-02-09T09:43:59Z</time>
      </trkpt>
      <trkpt lat="42.85425" lon="0.23837">
        <ele>2027.8</ele>
        <time>2022-02-09T09:44:00Z</time>
      </trkpt>
      <trkpt lat="42.85425" lon="0.23836">
        <ele>2027.8</ele>
        <time>2022-02-09T09:44:01Z</time>
      </trkpt>
      <trkpt lat="42.85425" lon="0.23835">
        <ele>2027.8</ele>
        <time>2022-02-09T09:44:02Z</time>
      </trkpt>
      <trkpt lat="42.85425" lon="0.23834">
        <ele>2028.4</ele>
        <time>2022-02-09T09:44:03Z</time>
      </trkpt>
      <trkpt lat="42.85424" lon="0.23833">
        <ele>2028.4</ele>
        <time>2022-02-09T09:44:04Z</time>
      </trkpt>
      <trkpt lat="42.85424" lon="0.23832">
        <ele>2028.4</ele>
        <time>2022-02-09T09:44:05Z</time>
      </trkpt>
      <trkpt lat="42.85424" lon="0.23831">
        <ele>2028.4</ele>
        <time>2022-02-09T09:44:06Z</time>
      </trkpt>
      <trkpt lat="42.85424" lon="0.2383">
        <ele>2029</ele>
        <time>2022-02-09T09:44:07Z</time>
      </trkpt>
      <trkpt lat="42.85424" lon="0.23829">
        <ele>2029</ele>
        <time>2022-02-09T09:44:08Z</time>
      </trkpt>
      <trkpt lat="42.85423" lon="0.23828">
        <ele>2029</ele>
        <time>2022-02-09T09:44:09Z</time>
      </trkpt>
      <trkpt lat="42.85423" lon="0.23827">
        <ele>2029</ele>
        <time>2022-02-09T09:44:10Z</time>
      </trkpt>
      <trkpt lat="42.85423" lon="0.23826">
        <ele>2029.4</ele>
        <time>2022-02-09T09:44:11Z</time>
      </trkpt>
      <trkpt lat="42.85422" lon="0.23825">
        <ele>2029.4</ele>
        <time>2022-02-09T09:44:12Z</time>
      </trkpt>
      <trkpt lat="42.85422" lon="0.23824">
        <ele>2029.4</ele>
        <time>2022-02-09T09:44:13Z</time>
      </trkpt>
      <trkpt lat="42.85422" lon="0.23824">
        <ele>2029.4</ele>
        <time>2022-02-09T09:44:14Z</time>
      </trkpt>
      <trkpt lat="42.85421" lon="0.23823">
        <ele>2029.4</ele>
        <time>2022-02-09T09:44:15Z</time>
      </trkpt>
      <trkpt lat="42.85421" lon="0.23822">
        <ele>2030.1</ele>
        <time>2022-02-09T09:44:16Z</time>
      </trkpt>
      <trkpt lat="42.8542" lon="0.23821">
        <ele>2030.1</ele>
        <time>2022-02-09T09:44:17Z</time>
      </trkpt>
      <trkpt lat="42.8542" lon="0.2382">
        <ele>2030.1</ele>
        <time>2022-02-09T09:44:18Z</time>
      </trkpt>
      <trkpt lat="42.8542" lon="0.23819">
        <ele>2030.1</ele>
        <time>2022-02-09T09:44:19Z</time>
      </trkpt>
      <trkpt lat="42.8542" lon="0.23818">
        <ele>2030.9</ele>
        <time>2022-02-09T09:44:20Z</time>
      </trkpt>
      <trkpt lat="42.8542" lon="0.23817">
        <ele>2030.6</ele>
        <time>2022-02-09T09:44:21Z</time>
      </trkpt>
      <trkpt lat="42.8542" lon="0.23816">
        <ele>2030.6</ele>
        <time>2022-02-09T09:44:22Z</time>
      </trkpt>
      <trkpt lat="42.85419" lon="0.23815">
        <ele>2030.6</ele>
        <time>2022-02-09T09:44:23Z</time>
      </trkpt>
      <trkpt lat="42.85419" lon="0.23814">
        <ele>2030.6</ele>
        <time>2022-02-09T09:44:24Z</time>
      </trkpt>
      <trkpt lat="42.85419" lon="0.23813">
        <ele>2031.4</ele>
        <time>2022-02-09T09:44:25Z</time>
      </trkpt>
      <trkpt lat="42.85419" lon="0.23812">
        <ele>2031.4</ele>
        <time>2022-02-09T09:44:26Z</time>
      </trkpt>
      <trkpt lat="42.85418" lon="0.23811">
        <ele>2031.4</ele>
        <time>2022-02-09T09:44:27Z</time>
      </trkpt>
      <trkpt lat="42.85418" lon="0.2381">
        <ele>2031.4</ele>
        <time>2022-02-09T09:44:28Z</time>
      </trkpt>
      <trkpt lat="42.85418" lon="0.23809">
        <ele>2032.2</ele>
        <time>2022-02-09T09:44:29Z</time>
      </trkpt>
      <trkpt lat="42.85417" lon="0.23808">
        <ele>2032.2</ele>
        <time>2022-02-09T09:44:30Z</time>
      </trkpt>
      <trkpt lat="42.85417" lon="0.23807">
        <ele>2032.2</ele>
        <time>2022-02-09T09:44:31Z</time>
      </trkpt>
      <trkpt lat="42.85417" lon="0.23806">
        <ele>2032.2</ele>
        <time>2022-02-09T09:44:32Z</time>
      </trkpt>
      <trkpt lat="42.85417" lon="0.23805">
        <ele>2032.2</ele>
        <time>2022-02-09T09:44:33Z</time>
      </trkpt>
      <trkpt lat="42.85416" lon="0.23804">
        <ele>2032.7</ele>
        <time>2022-02-09T09:44:34Z</time>
      </trkpt>
      <trkpt lat="42.85416" lon="0.23804">
        <ele>2032.7</ele>
        <time>2022-02-09T09:44:35Z</time>
      </trkpt>
      <trkpt lat="42.85416" lon="0.23803">
        <ele>2032.7</ele>
        <time>2022-02-09T09:44:36Z</time>
      </trkpt>
      <trkpt lat="42.85415" lon="0.23802">
        <ele>2032.7</ele>
        <time>2022-02-09T09:44:37Z</time>
      </trkpt>
      <trkpt lat="42.85415" lon="0.23801">
        <ele>2033.4</ele>
        <time>2022-02-09T09:44:38Z</time>
      </trkpt>
      <trkpt lat="42.85415" lon="0.238">
        <ele>2033.4</ele>
        <time>2022-02-09T09:44:39Z</time>
      </trkpt>
      <trkpt lat="42.85415" lon="0.23799">
        <ele>2033.4</ele>
        <time>2022-02-09T09:44:40Z</time>
      </trkpt>
      <trkpt lat="42.85415" lon="0.23798">
        <ele>2033.4</ele>
        <time>2022-02-09T09:44:41Z</time>
      </trkpt>
      <trkpt lat="42.85415" lon="0.23797">
        <ele>2033.4</ele>
        <time>2022-02-09T09:44:42Z</time>
      </trkpt>
      <trkpt lat="42.85416" lon="0.23796">
        <ele>2034.1</ele>
        <time>2022-02-09T09:44:43Z</time>
      </trkpt>
      <trkpt lat="42.85416" lon="0.23795">
        <ele>2034.1</ele>
        <time>2022-02-09T09:44:44Z</time>
      </trkpt>
      <trkpt lat="42.85416" lon="0.23794">
        <ele>2034.1</ele>
        <time>2022-02-09T09:44:45Z</time>
      </trkpt>
      <trkpt lat="42.85416" lon="0.23793">
        <ele>2034.1</ele>
        <time>2022-02-09T09:44:46Z</time>
      </trkpt>
      <trkpt lat="42.85416" lon="0.23792">
        <ele>2034.1</ele>
        <time>2022-02-09T09:44:47Z</time>
      </trkpt>
      <trkpt lat="42.85416" lon="0.23791">
        <ele>2034.8</ele>
        <time>2022-02-09T09:44:48Z</time>
      </trkpt>
      <trkpt lat="42.85416" lon="0.2379">
        <ele>2034.8</ele>
        <time>2022-02-09T09:44:49Z</time>
      </trkpt>
      <trkpt lat="42.85417" lon="0.2379">
        <ele>2035</ele>
        <time>2022-02-09T09:44:50Z</time>
      </trkpt>
      <trkpt lat="42.85417" lon="0.23789">
        <ele>2035</ele>
        <time>2022-02-09T09:44:51Z</time>
      </trkpt>
      <trkpt lat="42.85417" lon="0.23788">
        <ele>2035.7</ele>
        <time>2022-02-09T09:44:52Z</time>
      </trkpt>
      <trkpt lat="42.85417" lon="0.23787">
        <ele>2035.7</ele>
        <time>2022-02-09T09:44:53Z</time>
      </trkpt>
      <trkpt lat="42.85418" lon="0.23786">
        <ele>2035.7</ele>
        <time>2022-02-09T09:44:54Z</time>
      </trkpt>
      <trkpt lat="42.85418" lon="0.23785">
        <ele>2035.7</ele>
        <time>2022-02-09T09:44:55Z</time>
      </trkpt>
      <trkpt lat="42.85418" lon="0.23784">
        <ele>2035.7</ele>
        <time>2022-02-09T09:44:56Z</time>
      </trkpt>
      <trkpt lat="42.85419" lon="0.23784">
        <ele>2036.4</ele>
        <time>2022-02-09T09:44:57Z</time>
      </trkpt>
      <trkpt lat="42.85419" lon="0.23783">
        <ele>2036.4</ele>
        <time>2022-02-09T09:44:58Z</time>
      </trkpt>
      <trkpt lat="42.85419" lon="0.23782">
        <ele>2036.4</ele>
        <time>2022-02-09T09:44:59Z</time>
      </trkpt>
      <trkpt lat="42.8542" lon="0.23781">
        <ele>2036.4</ele>
        <time>2022-02-09T09:45:00Z</time>
      </trkpt>
      <trkpt lat="42.8542" lon="0.2378">
        <ele>2036.5</ele>
        <time>2022-02-09T09:45:01Z</time>
      </trkpt>
      <trkpt lat="42.8542" lon="0.23779">
        <ele>2037.3</ele>
        <time>2022-02-09T09:45:02Z</time>
      </trkpt>
      <trkpt lat="42.85421" lon="0.23778">
        <ele>2037.3</ele>
        <time>2022-02-09T09:45:03Z</time>
      </trkpt>
      <trkpt lat="42.85421" lon="0.23778">
        <ele>2037.3</ele>
        <time>2022-02-09T09:45:04Z</time>
      </trkpt>
      <trkpt lat="42.85421" lon="0.23777">
        <ele>2037.3</ele>
        <time>2022-02-09T09:45:05Z</time>
      </trkpt>
      <trkpt lat="42.85422" lon="0.23776">
        <ele>2037.3</ele>
        <time>2022-02-09T09:45:06Z</time>
      </trkpt>
      <trkpt lat="42.85422" lon="0.23775">
        <ele>2038</ele>
        <time>2022-02-09T09:45:07Z</time>
      </trkpt>
      <trkpt lat="42.85422" lon="0.23774">
        <ele>2038</ele>
        <time>2022-02-09T09:45:08Z</time>
      </trkpt>
      <trkpt lat="42.85423" lon="0.23773">
        <ele>2038</ele>
        <time>2022-02-09T09:45:09Z</time>
      </trkpt>
      <trkpt lat="42.85423" lon="0.23773">
        <ele>2038.2</ele>
        <time>2022-02-09T09:45:10Z</time>
      </trkpt>
      <trkpt lat="42.85423" lon="0.23772">
        <ele>2038.2</ele>
        <time>2022-02-09T09:45:11Z</time>
      </trkpt>
      <trkpt lat="42.85423" lon="0.23771">
        <ele>2038.2</ele>
        <time>2022-02-09T09:45:12Z</time>
      </trkpt>
      <trkpt lat="42.85424" lon="0.2377">
        <ele>2039</ele>
        <time>2022-02-09T09:45:13Z</time>
      </trkpt>
      <trkpt lat="42.85424" lon="0.23769">
        <ele>2039</ele>
        <time>2022-02-09T09:45:14Z</time>
      </trkpt>
      <trkpt lat="42.85424" lon="0.23769">
        <ele>2039</ele>
        <time>2022-02-09T09:45:15Z</time>
      </trkpt>
      <trkpt lat="42.85424" lon="0.23768">
        <ele>2039</ele>
        <time>2022-02-09T09:45:16Z</time>
      </trkpt>
      <trkpt lat="42.85425" lon="0.23767">
        <ele>2039</ele>
        <time>2022-02-09T09:45:17Z</time>
      </trkpt>
      <trkpt lat="42.85425" lon="0.23767">
        <ele>2039</ele>
        <time>2022-02-09T09:45:18Z</time>
      </trkpt>
      <trkpt lat="42.85425" lon="0.23767">
        <ele>2039.7</ele>
        <time>2022-02-09T09:45:19Z</time>
      </trkpt>
      <trkpt lat="42.85425" lon="0.23767">
        <ele>2039.7</ele>
        <time>2022-02-09T09:45:20Z</time>
      </trkpt>
      <trkpt lat="42.85425" lon="0.23767">
        <ele>2039.7</ele>
        <time>2022-02-09T09:45:21Z</time>
      </trkpt>
      <trkpt lat="42.85424" lon="0.23766">
        <ele>2039.7</ele>
        <time>2022-02-09T09:45:22Z</time>
      </trkpt>
      <trkpt lat="42.85423" lon="0.23766">
        <ele>2039.7</ele>
        <time>2022-02-09T09:45:23Z</time>
      </trkpt>
      <trkpt lat="42.85423" lon="0.23766">
        <ele>2039.6</ele>
        <time>2022-02-09T09:45:24Z</time>
      </trkpt>
      <trkpt lat="42.85422" lon="0.23766">
        <ele>2039.6</ele>
        <time>2022-02-09T09:45:25Z</time>
      </trkpt>
      <trkpt lat="42.85421" lon="0.23766">
        <ele>2039.6</ele>
        <time>2022-02-09T09:45:26Z</time>
      </trkpt>
      <trkpt lat="42.85421" lon="0.23766">
        <ele>2039.6</ele>
        <time>2022-02-09T09:45:27Z</time>
      </trkpt>
      <trkpt lat="42.8542" lon="0.23765">
        <ele>2039.6</ele>
        <time>2022-02-09T09:45:28Z</time>
      </trkpt>
      <trkpt lat="42.8542" lon="0.23765">
        <ele>2039.5</ele>
        <time>2022-02-09T09:45:29Z</time>
      </trkpt>
      <trkpt lat="42.85419" lon="0.23764">
        <ele>2039.5</ele>
        <time>2022-02-09T09:45:30Z</time>
      </trkpt>
      <trkpt lat="42.85419" lon="0.23763">
        <ele>2039.5</ele>
        <time>2022-02-09T09:45:31Z</time>
      </trkpt>
      <trkpt lat="42.85419" lon="0.23763">
        <ele>2039.5</ele>
        <time>2022-02-09T09:45:32Z</time>
      </trkpt>
      <trkpt lat="42.85418" lon="0.23762">
        <ele>2040.3</ele>
        <time>2022-02-09T09:45:33Z</time>
      </trkpt>
      <trkpt lat="42.85418" lon="0.23761">
        <ele>2040.3</ele>
        <time>2022-02-09T09:45:34Z</time>
      </trkpt>
      <trkpt lat="42.85417" lon="0.2376">
        <ele>2040.3</ele>
        <time>2022-02-09T09:45:35Z</time>
      </trkpt>
      <trkpt lat="42.85417" lon="0.2376">
        <ele>2040.3</ele>
        <time>2022-02-09T09:45:36Z</time>
      </trkpt>
      <trkpt lat="42.85417" lon="0.23759">
        <ele>2040.3</ele>
        <time>2022-02-09T09:45:37Z</time>
      </trkpt>
      <trkpt lat="42.85416" lon="0.23758">
        <ele>2040.3</ele>
        <time>2022-02-09T09:45:38Z</time>
      </trkpt>
      <trkpt lat="42.85415" lon="0.23758">
        <ele>2041.1</ele>
        <time>2022-02-09T09:45:39Z</time>
      </trkpt>
      <trkpt lat="42.85414" lon="0.23757">
        <ele>2041.1</ele>
        <time>2022-02-09T09:45:40Z</time>
      </trkpt>
      <trkpt lat="42.85413" lon="0.23757">
        <ele>2041.1</ele>
        <time>2022-02-09T09:45:41Z</time>
      </trkpt>
      <trkpt lat="42.85413" lon="0.23756">
        <ele>2041.1</ele>
        <time>2022-02-09T09:45:42Z</time>
      </trkpt>
      <trkpt lat="42.85412" lon="0.23756">
        <ele>2041.1</ele>
        <time>2022-02-09T09:45:43Z</time>
      </trkpt>
      <trkpt lat="42.85412" lon="0.23755">
        <ele>2041.1</ele>
        <time>2022-02-09T09:45:44Z</time>
      </trkpt>
      <trkpt lat="42.85411" lon="0.23755">
        <ele>2041.1</ele>
        <time>2022-02-09T09:45:45Z</time>
      </trkpt>
      <trkpt lat="42.8541" lon="0.23754">
        <ele>2042</ele>
        <time>2022-02-09T09:45:46Z</time>
      </trkpt>
      <trkpt lat="42.8541" lon="0.23753">
        <ele>2042.1</ele>
        <time>2022-02-09T09:45:47Z</time>
      </trkpt>
      <trkpt lat="42.85409" lon="0.23752">
        <ele>2042.1</ele>
        <time>2022-02-09T09:45:48Z</time>
      </trkpt>
      <trkpt lat="42.85409" lon="0.23751">
        <ele>2042.1</ele>
        <time>2022-02-09T09:45:49Z</time>
      </trkpt>
      <trkpt lat="42.85409" lon="0.2375">
        <ele>2042.1</ele>
        <time>2022-02-09T09:45:50Z</time>
      </trkpt>
      <trkpt lat="42.85409" lon="0.23748">
        <ele>2042.9</ele>
        <time>2022-02-09T09:45:51Z</time>
      </trkpt>
      <trkpt lat="42.85409" lon="0.23747">
        <ele>2042.9</ele>
        <time>2022-02-09T09:45:52Z</time>
      </trkpt>
      <trkpt lat="42.85409" lon="0.23746">
        <ele>2042.9</ele>
        <time>2022-02-09T09:45:53Z</time>
      </trkpt>
      <trkpt lat="42.8541" lon="0.23744">
        <ele>2043.8</ele>
        <time>2022-02-09T09:45:54Z</time>
      </trkpt>
      <trkpt lat="42.8541" lon="0.23743">
        <ele>2043.8</ele>
        <time>2022-02-09T09:45:55Z</time>
      </trkpt>
      <trkpt lat="42.8541" lon="0.23741">
        <ele>2043.8</ele>
        <time>2022-02-09T09:45:56Z</time>
      </trkpt>
      <trkpt lat="42.8541" lon="0.23739">
        <ele>2044.6</ele>
        <time>2022-02-09T09:45:57Z</time>
      </trkpt>
      <trkpt lat="42.85411" lon="0.23738">
        <ele>2044.6</ele>
        <time>2022-02-09T09:45:58Z</time>
      </trkpt>
      <trkpt lat="42.85411" lon="0.23737">
        <ele>2044.6</ele>
        <time>2022-02-09T09:45:59Z</time>
      </trkpt>
      <trkpt lat="42.85411" lon="0.23736">
        <ele>2045.4</ele>
        <time>2022-02-09T09:46:00Z</time>
      </trkpt>
      <trkpt lat="42.85411" lon="0.23734">
        <ele>2045.4</ele>
        <time>2022-02-09T09:46:01Z</time>
      </trkpt>
      <trkpt lat="42.85411" lon="0.23733">
        <ele>2045.4</ele>
        <time>2022-02-09T09:46:02Z</time>
      </trkpt>
      <trkpt lat="42.85412" lon="0.23732">
        <ele>2045.4</ele>
        <time>2022-02-09T09:46:03Z</time>
      </trkpt>
      <trkpt lat="42.85412" lon="0.23731">
        <ele>2046.3</ele>
        <time>2022-02-09T09:46:04Z</time>
      </trkpt>
      <trkpt lat="42.85412" lon="0.2373">
        <ele>2046.3</ele>
        <time>2022-02-09T09:46:05Z</time>
      </trkpt>
      <trkpt lat="42.85412" lon="0.23729">
        <ele>2046.3</ele>
        <time>2022-02-09T09:46:06Z</time>
      </trkpt>
      <trkpt lat="42.85412" lon="0.23728">
        <ele>2046.3</ele>
        <time>2022-02-09T09:46:07Z</time>
      </trkpt>
      <trkpt lat="42.85412" lon="0.23727">
        <ele>2047.2</ele>
        <time>2022-02-09T09:46:08Z</time>
      </trkpt>
      <trkpt lat="42.85413" lon="0.23726">
        <ele>2047.2</ele>
        <time>2022-02-09T09:46:09Z</time>
      </trkpt>
      <trkpt lat="42.85413" lon="0.23725">
        <ele>2047.2</ele>
        <time>2022-02-09T09:46:10Z</time>
      </trkpt>
      <trkpt lat="42.85413" lon="0.23724">
        <ele>2047.2</ele>
        <time>2022-02-09T09:46:11Z</time>
      </trkpt>
      <trkpt lat="42.85413" lon="0.23723">
        <ele>2048.1</ele>
        <time>2022-02-09T09:46:12Z</time>
      </trkpt>
      <trkpt lat="42.85413" lon="0.23722">
        <ele>2048.1</ele>
        <time>2022-02-09T09:46:13Z</time>
      </trkpt>
      <trkpt lat="42.85414" lon="0.23721">
        <ele>2048</ele>
        <time>2022-02-09T09:46:14Z</time>
      </trkpt>
      <trkpt lat="42.85414" lon="0.2372">
        <ele>2048</ele>
        <time>2022-02-09T09:46:15Z</time>
      </trkpt>
      <trkpt lat="42.85414" lon="0.23719">
        <ele>2048</ele>
        <time>2022-02-09T09:46:16Z</time>
      </trkpt>
      <trkpt lat="42.85414" lon="0.23719">
        <ele>2048.9</ele>
        <time>2022-02-09T09:46:17Z</time>
      </trkpt>
      <trkpt lat="42.85415" lon="0.23718">
        <ele>2048.9</ele>
        <time>2022-02-09T09:46:18Z</time>
      </trkpt>
      <trkpt lat="42.85415" lon="0.23717">
        <ele>2048.9</ele>
        <time>2022-02-09T09:46:19Z</time>
      </trkpt>
      <trkpt lat="42.85415" lon="0.23716">
        <ele>2048.9</ele>
        <time>2022-02-09T09:46:20Z</time>
      </trkpt>
      <trkpt lat="42.85415" lon="0.23715">
        <ele>2049.6</ele>
        <time>2022-02-09T09:46:21Z</time>
      </trkpt>
      <trkpt lat="42.85415" lon="0.23714">
        <ele>2049.6</ele>
        <time>2022-02-09T09:46:22Z</time>
      </trkpt>
      <trkpt lat="42.85416" lon="0.23713">
        <ele>2049.6</ele>
        <time>2022-02-09T09:46:23Z</time>
      </trkpt>
      <trkpt lat="42.85416" lon="0.23712">
        <ele>2049.6</ele>
        <time>2022-02-09T09:46:24Z</time>
      </trkpt>
      <trkpt lat="42.85416" lon="0.23711">
        <ele>2049.6</ele>
        <time>2022-02-09T09:46:25Z</time>
      </trkpt>
      <trkpt lat="42.85416" lon="0.2371">
        <ele>2050.3</ele>
        <time>2022-02-09T09:46:26Z</time>
      </trkpt>
      <trkpt lat="42.85416" lon="0.23709">
        <ele>2050.3</ele>
        <time>2022-02-09T09:46:27Z</time>
      </trkpt>
      <trkpt lat="42.85417" lon="0.23708">
        <ele>2050.3</ele>
        <time>2022-02-09T09:46:28Z</time>
      </trkpt>
      <trkpt lat="42.85417" lon="0.23708">
        <ele>2050.3</ele>
        <time>2022-02-09T09:46:29Z</time>
      </trkpt>
      <trkpt lat="42.85417" lon="0.23707">
        <ele>2050.3</ele>
        <time>2022-02-09T09:46:30Z</time>
      </trkpt>
      <trkpt lat="42.85417" lon="0.23706">
        <ele>2050.9</ele>
        <time>2022-02-09T09:46:31Z</time>
      </trkpt>
      <trkpt lat="42.85417" lon="0.23705">
        <ele>2050.9</ele>
        <time>2022-02-09T09:46:32Z</time>
      </trkpt>
      <trkpt lat="42.85418" lon="0.23704">
        <ele>2050.9</ele>
        <time>2022-02-09T09:46:33Z</time>
      </trkpt>
      <trkpt lat="42.85418" lon="0.23703">
        <ele>2050.9</ele>
        <time>2022-02-09T09:46:34Z</time>
      </trkpt>
      <trkpt lat="42.85418" lon="0.23702">
        <ele>2051.5</ele>
        <time>2022-02-09T09:46:35Z</time>
      </trkpt>
      <trkpt lat="42.85418" lon="0.23701">
        <ele>2051.5</ele>
        <time>2022-02-09T09:46:36Z</time>
      </trkpt>
      <trkpt lat="42.85419" lon="0.237">
        <ele>2051.5</ele>
        <time>2022-02-09T09:46:37Z</time>
      </trkpt>
      <trkpt lat="42.85419" lon="0.23699">
        <ele>2051.5</ele>
        <time>2022-02-09T09:46:38Z</time>
      </trkpt>
      <trkpt lat="42.85419" lon="0.23698">
        <ele>2051.5</ele>
        <time>2022-02-09T09:46:39Z</time>
      </trkpt>
      <trkpt lat="42.8542" lon="0.23697">
        <ele>2052</ele>
        <time>2022-02-09T09:46:40Z</time>
      </trkpt>
      <trkpt lat="42.8542" lon="0.23696">
        <ele>2052</ele>
        <time>2022-02-09T09:46:41Z</time>
      </trkpt>
      <trkpt lat="42.8542" lon="0.23695">
        <ele>2052</ele>
        <time>2022-02-09T09:46:42Z</time>
      </trkpt>
      <trkpt lat="42.8542" lon="0.23694">
        <ele>2052</ele>
        <time>2022-02-09T09:46:43Z</time>
      </trkpt>
      <trkpt lat="42.85421" lon="0.23694">
        <ele>2052.6</ele>
        <time>2022-02-09T09:46:44Z</time>
      </trkpt>
      <trkpt lat="42.85421" lon="0.23693">
        <ele>2052.6</ele>
        <time>2022-02-09T09:46:45Z</time>
      </trkpt>
      <trkpt lat="42.85422" lon="0.23692">
        <ele>2052.6</ele>
        <time>2022-02-09T09:46:46Z</time>
      </trkpt>
      <trkpt lat="42.85423" lon="0.23691">
        <ele>2052.6</ele>
        <time>2022-02-09T09:46:47Z</time>
      </trkpt>
      <trkpt lat="42.85423" lon="0.23691">
        <ele>2052.6</ele>
        <time>2022-02-09T09:46:48Z</time>
      </trkpt>
      <trkpt lat="42.85423" lon="0.2369">
        <ele>2052.6</ele>
        <time>2022-02-09T09:46:49Z</time>
      </trkpt>
      <trkpt lat="42.85424" lon="0.23689">
        <ele>2052.6</ele>
        <time>2022-02-09T09:46:50Z</time>
      </trkpt>
      <trkpt lat="42.85424" lon="0.23688">
        <ele>2053.1</ele>
        <time>2022-02-09T09:46:51Z</time>
      </trkpt>
      <trkpt lat="42.85423" lon="0.23687">
        <ele>2053.1</ele>
        <time>2022-02-09T09:46:52Z</time>
      </trkpt>
      <trkpt lat="42.85423" lon="0.23686">
        <ele>2053.1</ele>
        <time>2022-02-09T09:46:53Z</time>
      </trkpt>
      <trkpt lat="42.85422" lon="0.23685">
        <ele>2053.1</ele>
        <time>2022-02-09T09:46:54Z</time>
      </trkpt>
      <trkpt lat="42.85422" lon="0.23685">
        <ele>2053.7</ele>
        <time>2022-02-09T09:46:55Z</time>
      </trkpt>
      <trkpt lat="42.85421" lon="0.23684">
        <ele>2053.7</ele>
        <time>2022-02-09T09:46:56Z</time>
      </trkpt>
      <trkpt lat="42.85421" lon="0.23683">
        <ele>2053.7</ele>
        <time>2022-02-09T09:46:57Z</time>
      </trkpt>
      <trkpt lat="42.8542" lon="0.23682">
        <ele>2053.7</ele>
        <time>2022-02-09T09:46:58Z</time>
      </trkpt>
      <trkpt lat="42.8542" lon="0.23682">
        <ele>2053.8</ele>
        <time>2022-02-09T09:46:59Z</time>
      </trkpt>
      <trkpt lat="42.85419" lon="0.23681">
        <ele>2053.8</ele>
        <time>2022-02-09T09:47:00Z</time>
      </trkpt>
      <trkpt lat="42.85419" lon="0.2368">
        <ele>2054.3</ele>
        <time>2022-02-09T09:47:01Z</time>
      </trkpt>
      <trkpt lat="42.85418" lon="0.2368">
        <ele>2054.3</ele>
        <time>2022-02-09T09:47:02Z</time>
      </trkpt>
      <trkpt lat="42.85417" lon="0.23679">
        <ele>2054.3</ele>
        <time>2022-02-09T09:47:03Z</time>
      </trkpt>
      <trkpt lat="42.85417" lon="0.23679">
        <ele>2054.3</ele>
        <time>2022-02-09T09:47:04Z</time>
      </trkpt>
      <trkpt lat="42.85417" lon="0.23679">
        <ele>2054.5</ele>
        <time>2022-02-09T09:47:05Z</time>
      </trkpt>
      <trkpt lat="42.85416" lon="0.23678">
        <ele>2054.5</ele>
        <time>2022-02-09T09:47:06Z</time>
      </trkpt>
      <trkpt lat="42.85415" lon="0.23678">
        <ele>2054.5</ele>
        <time>2022-02-09T09:47:07Z</time>
      </trkpt>
      <trkpt lat="42.85414" lon="0.23677">
        <ele>2054.5</ele>
        <time>2022-02-09T09:47:08Z</time>
      </trkpt>
      <trkpt lat="42.85414" lon="0.23677">
        <ele>2054.5</ele>
        <time>2022-02-09T09:47:09Z</time>
      </trkpt>
      <trkpt lat="42.85413" lon="0.23677">
        <ele>2054.7</ele>
        <time>2022-02-09T09:47:10Z</time>
      </trkpt>
      <trkpt lat="42.85413" lon="0.23676">
        <ele>2055.3</ele>
        <time>2022-02-09T09:47:11Z</time>
      </trkpt>
      <trkpt lat="42.85412" lon="0.23676">
        <ele>2055.3</ele>
        <time>2022-02-09T09:47:12Z</time>
      </trkpt>
      <trkpt lat="42.85411" lon="0.23675">
        <ele>2055.3</ele>
        <time>2022-02-09T09:47:13Z</time>
      </trkpt>
      <trkpt lat="42.85411" lon="0.23675">
        <ele>2055.3</ele>
        <time>2022-02-09T09:47:14Z</time>
      </trkpt>
      <trkpt lat="42.8541" lon="0.23674">
        <ele>2055.6</ele>
        <time>2022-02-09T09:47:15Z</time>
      </trkpt>
      <trkpt lat="42.85409" lon="0.23674">
        <ele>2055.6</ele>
        <time>2022-02-09T09:47:16Z</time>
      </trkpt>
      <trkpt lat="42.85409" lon="0.23674">
        <ele>2055.6</ele>
        <time>2022-02-09T09:47:17Z</time>
      </trkpt>
      <trkpt lat="42.85408" lon="0.23673">
        <ele>2055.6</ele>
        <time>2022-02-09T09:47:18Z</time>
      </trkpt>
      <trkpt lat="42.85408" lon="0.23672">
        <ele>2055.6</ele>
        <time>2022-02-09T09:47:19Z</time>
      </trkpt>
      <trkpt lat="42.85407" lon="0.23672">
        <ele>2056.6</ele>
        <time>2022-02-09T09:47:20Z</time>
      </trkpt>
      <trkpt lat="42.85406" lon="0.23671">
        <ele>2056.6</ele>
        <time>2022-02-09T09:47:21Z</time>
      </trkpt>
      <trkpt lat="42.85406" lon="0.2367">
        <ele>2056.6</ele>
        <time>2022-02-09T09:47:22Z</time>
      </trkpt>
      <trkpt lat="42.85406" lon="0.2367">
        <ele>2056.6</ele>
        <time>2022-02-09T09:47:23Z</time>
      </trkpt>
      <trkpt lat="42.85405" lon="0.23669">
        <ele>2056.6</ele>
        <time>2022-02-09T09:47:24Z</time>
      </trkpt>
      <trkpt lat="42.85404" lon="0.23669">
        <ele>2056.6</ele>
        <time>2022-02-09T09:47:25Z</time>
      </trkpt>
      <trkpt lat="42.85404" lon="0.23668">
        <ele>2056.6</ele>
        <time>2022-02-09T09:47:26Z</time>
      </trkpt>
      <trkpt lat="42.85404" lon="0.23667">
        <ele>2057.7</ele>
        <time>2022-02-09T09:47:27Z</time>
      </trkpt>
      <trkpt lat="42.85403" lon="0.23667">
        <ele>2057.7</ele>
        <time>2022-02-09T09:47:28Z</time>
      </trkpt>
      <trkpt lat="42.85403" lon="0.23667">
        <ele>2057.7</ele>
        <time>2022-02-09T09:47:29Z</time>
      </trkpt>
      <trkpt lat="42.85403" lon="0.23667">
        <ele>2057.7</ele>
        <time>2022-02-09T09:47:30Z</time>
      </trkpt>
      <trkpt lat="42.85403" lon="0.23667">
        <ele>2057.7</ele>
        <time>2022-02-09T09:47:31Z</time>
      </trkpt>
      <trkpt lat="42.85403" lon="0.23667">
        <ele>2057.7</ele>
        <time>2022-02-09T09:47:32Z</time>
      </trkpt>
      <trkpt lat="42.85403" lon="0.23667">
        <ele>2057.7</ele>
        <time>2022-02-09T09:47:33Z</time>
      </trkpt>
      <trkpt lat="42.85403" lon="0.23667">
        <ele>2057.7</ele>
        <time>2022-02-09T09:47:34Z</time>
      </trkpt>
      <trkpt lat="42.85403" lon="0.23667">
        <ele>2057.7</ele>
        <time>2022-02-09T09:47:35Z</time>
      </trkpt>
      <trkpt lat="42.85403" lon="0.23666">
        <ele>2057.7</ele>
        <time>2022-02-09T09:47:36Z</time>
      </trkpt>
      <trkpt lat="42.85402" lon="0.23666">
        <ele>2057.7</ele>
        <time>2022-02-09T09:47:37Z</time>
      </trkpt>
      <trkpt lat="42.85402" lon="0.23666">
        <ele>2057.7</ele>
        <time>2022-02-09T09:47:38Z</time>
      </trkpt>
      <trkpt lat="42.85402" lon="0.23666">
        <ele>2057.7</ele>
        <time>2022-02-09T09:47:39Z</time>
      </trkpt>
      <trkpt lat="42.85402" lon="0.23666">
        <ele>2057.7</ele>
        <time>2022-02-09T09:47:40Z</time>
      </trkpt>
      <trkpt lat="42.85402" lon="0.23666">
        <ele>2057.7</ele>
        <time>2022-02-09T09:47:41Z</time>
      </trkpt>
      <trkpt lat="42.85402" lon="0.23666">
        <ele>2057.7</ele>
        <time>2022-02-09T09:47:42Z</time>
      </trkpt>
      <trkpt lat="42.85402" lon="0.23666">
        <ele>2057.7</ele>
        <time>2022-02-09T09:47:43Z</time>
      </trkpt>
      <trkpt lat="42.85402" lon="0.23666">
        <ele>2057.7</ele>
        <time>2022-02-09T09:47:44Z</time>
      </trkpt>
      <trkpt lat="42.85402" lon="0.23666">
        <ele>2057.7</ele>
        <time>2022-02-09T09:47:45Z</time>
      </trkpt>
      <trkpt lat="42.85402" lon="0.23666">
        <ele>2057.7</ele>
        <time>2022-02-09T09:47:46Z</time>
      </trkpt>
      <trkpt lat="42.85402" lon="0.23666">
        <ele>2057.7</ele>
        <time>2022-02-09T09:47:47Z</time>
      </trkpt>
      <trkpt lat="42.85402" lon="0.23666">
        <ele>2057.7</ele>
        <time>2022-02-09T09:47:48Z</time>
      </trkpt>
      <trkpt lat="42.85402" lon="0.23666">
        <ele>2057.7</ele>
        <time>2022-02-09T09:47:49Z</time>
      </trkpt>
      <trkpt lat="42.85402" lon="0.23666">
        <ele>2057.7</ele>
        <time>2022-02-09T09:47:50Z</time>
      </trkpt>
      <trkpt lat="42.85402" lon="0.23666">
        <ele>2057.7</ele>
        <time>2022-02-09T09:47:51Z</time>
      </trkpt>
      <trkpt lat="42.85402" lon="0.23666">
        <ele>2057.7</ele>
        <time>2022-02-09T09:47:52Z</time>
      </trkpt>
      <trkpt lat="42.85402" lon="0.23666">
        <ele>2057.7</ele>
        <time>2022-02-09T09:47:53Z</time>
      </trkpt>
      <trkpt lat="42.85402" lon="0.23666">
        <ele>2057.7</ele>
        <time>2022-02-09T09:47:54Z</time>
      </trkpt>
      <trkpt lat="42.85402" lon="0.23666">
        <ele>2057.7</ele>
        <time>2022-02-09T09:47:55Z</time>
      </trkpt>
      <trkpt lat="42.85402" lon="0.23666">
        <ele>2057.7</ele>
        <time>2022-02-09T09:47:56Z</time>
      </trkpt>
      <trkpt lat="42.85402" lon="0.23666">
        <ele>2057.7</ele>
        <time>2022-02-09T09:47:57Z</time>
      </trkpt>
      <trkpt lat="42.85402" lon="0.23666">
        <ele>2057.7</ele>
        <time>2022-02-09T09:47:58Z</time>
      </trkpt>
      <trkpt lat="42.85402" lon="0.23666">
        <ele>2057.7</ele>
        <time>2022-02-09T09:47:59Z</time>
      </trkpt>
      <trkpt lat="42.85402" lon="0.23666">
        <ele>2057.7</ele>
        <time>2022-02-09T09:48:00Z</time>
      </trkpt>
      <trkpt lat="42.85402" lon="0.23666">
        <ele>2057.7</ele>
        <time>2022-02-09T09:48:01Z</time>
      </trkpt>
      <trkpt lat="42.85402" lon="0.23666">
        <ele>2057.7</ele>
        <time>2022-02-09T09:48:02Z</time>
      </trkpt>
      <trkpt lat="42.85402" lon="0.23666">
        <ele>2057.7</ele>
        <time>2022-02-09T09:48:03Z</time>
      </trkpt>
      <trkpt lat="42.85402" lon="0.23666">
        <ele>2057.7</ele>
        <time>2022-02-09T09:48:04Z</time>
      </trkpt>
      <trkpt lat="42.85402" lon="0.23666">
        <ele>2057.7</ele>
        <time>2022-02-09T09:48:05Z</time>
      </trkpt>
      <trkpt lat="42.85402" lon="0.23666">
        <ele>2057.7</ele>
        <time>2022-02-09T09:48:06Z</time>
      </trkpt>
      <trkpt lat="42.85402" lon="0.23666">
        <ele>2057.7</ele>
        <time>2022-02-09T09:48:07Z</time>
      </trkpt>
      <trkpt lat="42.85402" lon="0.23666">
        <ele>2057.7</ele>
        <time>2022-02-09T09:48:08Z</time>
      </trkpt>
      <trkpt lat="42.85402" lon="0.23666">
        <ele>2057.7</ele>
        <time>2022-02-09T09:48:09Z</time>
      </trkpt>
      <trkpt lat="42.85402" lon="0.23666">
        <ele>2057.7</ele>
        <time>2022-02-09T09:48:10Z</time>
      </trkpt>
      <trkpt lat="42.85402" lon="0.23666">
        <ele>2057.7</ele>
        <time>2022-02-09T09:48:11Z</time>
      </trkpt>
      <trkpt lat="42.85402" lon="0.23666">
        <ele>2057.7</ele>
        <time>2022-02-09T09:48:12Z</time>
      </trkpt>
      <trkpt lat="42.85402" lon="0.23666">
        <ele>2057.7</ele>
        <time>2022-02-09T09:48:13Z</time>
      </trkpt>
      <trkpt lat="42.85402" lon="0.23666">
        <ele>2057.7</ele>
        <time>2022-02-09T09:48:14Z</time>
      </trkpt>
      <trkpt lat="42.85402" lon="0.23666">
        <ele>2057.7</ele>
        <time>2022-02-09T09:48:15Z</time>
      </trkpt>
      <trkpt lat="42.85402" lon="0.23666">
        <ele>2057.7</ele>
        <time>2022-02-09T09:48:16Z</time>
      </trkpt>
      <trkpt lat="42.85402" lon="0.23666">
        <ele>2057.7</ele>
        <time>2022-02-09T09:48:17Z</time>
      </trkpt>
      <trkpt lat="42.85402" lon="0.23666">
        <ele>2057.7</ele>
        <time>2022-02-09T09:48:18Z</time>
      </trkpt>
      <trkpt lat="42.85402" lon="0.23666">
        <ele>2057.7</ele>
        <time>2022-02-09T09:48:19Z</time>
      </trkpt>
      <trkpt lat="42.85402" lon="0.23666">
        <ele>2057.7</ele>
        <time>2022-02-09T09:48:20Z</time>
      </trkpt>
      <trkpt lat="42.85402" lon="0.23666">
        <ele>2057.7</ele>
        <time>2022-02-09T09:48:21Z</time>
      </trkpt>
      <trkpt lat="42.85402" lon="0.23666">
        <ele>2057.7</ele>
        <time>2022-02-09T09:48:22Z</time>
      </trkpt>
      <trkpt lat="42.85402" lon="0.23666">
        <ele>2057.7</ele>
        <time>2022-02-09T09:48:23Z</time>
      </trkpt>
      <trkpt lat="42.85402" lon="0.23666">
        <ele>2057.7</ele>
        <time>2022-02-09T09:48:24Z</time>
      </trkpt>
      <trkpt lat="42.85402" lon="0.23666">
        <ele>2057.7</ele>
        <time>2022-02-09T09:48:25Z</time>
      </trkpt>
      <trkpt lat="42.85402" lon="0.23666">
        <ele>2057.7</ele>
        <time>2022-02-09T09:48:26Z</time>
      </trkpt>
      <trkpt lat="42.85402" lon="0.23666">
        <ele>2057.7</ele>
        <time>2022-02-09T09:48:27Z</time>
      </trkpt>
      <trkpt lat="42.85402" lon="0.23666">
        <ele>2057.7</ele>
        <time>2022-02-09T09:48:28Z</time>
      </trkpt>
      <trkpt lat="42.85402" lon="0.23666">
        <ele>2057.7</ele>
        <time>2022-02-09T09:48:29Z</time>
      </trkpt>
      <trkpt lat="42.85402" lon="0.23666">
        <ele>2057.7</ele>
        <time>2022-02-09T09:48:30Z</time>
      </trkpt>
      <trkpt lat="42.85402" lon="0.23666">
        <ele>2057.7</ele>
        <time>2022-02-09T09:48:31Z</time>
      </trkpt>
      <trkpt lat="42.85402" lon="0.23666">
        <ele>2057.7</ele>
        <time>2022-02-09T09:48:32Z</time>
      </trkpt>
      <trkpt lat="42.85402" lon="0.23666">
        <ele>2057.7</ele>
        <time>2022-02-09T09:48:33Z</time>
      </trkpt>
      <trkpt lat="42.85402" lon="0.23666">
        <ele>2057.7</ele>
        <time>2022-02-09T09:48:34Z</time>
      </trkpt>
      <trkpt lat="42.85402" lon="0.23666">
        <ele>2057.7</ele>
        <time>2022-02-09T09:48:35Z</time>
      </trkpt>
      <trkpt lat="42.85402" lon="0.23666">
        <ele>2057.7</ele>
        <time>2022-02-09T09:48:36Z</time>
      </trkpt>
      <trkpt lat="42.85402" lon="0.23666">
        <ele>2057.7</ele>
        <time>2022-02-09T09:48:37Z</time>
      </trkpt>
      <trkpt lat="42.85402" lon="0.23666">
        <ele>2057.7</ele>
        <time>2022-02-09T09:48:38Z</time>
      </trkpt>
      <trkpt lat="42.85402" lon="0.23666">
        <ele>2057.7</ele>
        <time>2022-02-09T09:48:39Z</time>
      </trkpt>
      <trkpt lat="42.85402" lon="0.23666">
        <ele>2057.7</ele>
        <time>2022-02-09T09:48:40Z</time>
      </trkpt>
      <trkpt lat="42.85402" lon="0.23666">
        <ele>2057.7</ele>
        <time>2022-02-09T09:48:41Z</time>
      </trkpt>
      <trkpt lat="42.85402" lon="0.23666">
        <ele>2057.7</ele>
        <time>2022-02-09T09:48:42Z</time>
      </trkpt>
      <trkpt lat="42.85402" lon="0.23666">
        <ele>2057.7</ele>
        <time>2022-02-09T09:48:43Z</time>
      </trkpt>
      <trkpt lat="42.85402" lon="0.23666">
        <ele>2057.7</ele>
        <time>2022-02-09T09:48:44Z</time>
      </trkpt>
      <trkpt lat="42.85402" lon="0.23666">
        <ele>2057.7</ele>
        <time>2022-02-09T09:48:45Z</time>
      </trkpt>
      <trkpt lat="42.85402" lon="0.23666">
        <ele>2057.7</ele>
        <time>2022-02-09T09:48:46Z</time>
      </trkpt>
      <trkpt lat="42.85402" lon="0.23666">
        <ele>2057.7</ele>
        <time>2022-02-09T09:48:47Z</time>
      </trkpt>
      <trkpt lat="42.85402" lon="0.23666">
        <ele>2057.7</ele>
        <time>2022-02-09T09:48:48Z</time>
      </trkpt>
      <trkpt lat="42.85402" lon="0.23666">
        <ele>2057.7</ele>
        <time>2022-02-09T09:48:49Z</time>
      </trkpt>
      <trkpt lat="42.85402" lon="0.23666">
        <ele>2057.7</ele>
        <time>2022-02-09T09:48:50Z</time>
      </trkpt>
      <trkpt lat="42.85402" lon="0.23666">
        <ele>2057.7</ele>
        <time>2022-02-09T09:48:51Z</time>
      </trkpt>
      <trkpt lat="42.85402" lon="0.23666">
        <ele>2057.7</ele>
        <time>2022-02-09T09:48:52Z</time>
      </trkpt>
      <trkpt lat="42.85402" lon="0.23666">
        <ele>2057.7</ele>
        <time>2022-02-09T09:48:53Z</time>
      </trkpt>
      <trkpt lat="42.85402" lon="0.23666">
        <ele>2057.7</ele>
        <time>2022-02-09T09:48:54Z</time>
      </trkpt>
      <trkpt lat="42.85402" lon="0.23666">
        <ele>2057.7</ele>
        <time>2022-02-09T09:48:55Z</time>
      </trkpt>
      <trkpt lat="42.85402" lon="0.23666">
        <ele>2057.7</ele>
        <time>2022-02-09T09:48:56Z</time>
      </trkpt>
      <trkpt lat="42.85402" lon="0.23666">
        <ele>2057.7</ele>
        <time>2022-02-09T09:48:57Z</time>
      </trkpt>
      <trkpt lat="42.85402" lon="0.23666">
        <ele>2057.7</ele>
        <time>2022-02-09T09:48:58Z</time>
      </trkpt>
      <trkpt lat="42.85402" lon="0.23666">
        <ele>2057.7</ele>
        <time>2022-02-09T09:48:59Z</time>
      </trkpt>
      <trkpt lat="42.85402" lon="0.23666">
        <ele>2057.7</ele>
        <time>2022-02-09T09:49:00Z</time>
      </trkpt>
      <trkpt lat="42.85402" lon="0.23666">
        <ele>2057.7</ele>
        <time>2022-02-09T09:49:01Z</time>
      </trkpt>
      <trkpt lat="42.85402" lon="0.23666">
        <ele>2057.7</ele>
        <time>2022-02-09T09:49:02Z</time>
      </trkpt>
      <trkpt lat="42.85402" lon="0.23666">
        <ele>2057.7</ele>
        <time>2022-02-09T09:49:03Z</time>
      </trkpt>
      <trkpt lat="42.85402" lon="0.23666">
        <ele>2057.7</ele>
        <time>2022-02-09T09:49:04Z</time>
      </trkpt>
      <trkpt lat="42.85402" lon="0.23666">
        <ele>2057.7</ele>
        <time>2022-02-09T09:49:05Z</time>
      </trkpt>
      <trkpt lat="42.85402" lon="0.23666">
        <ele>2057.7</ele>
        <time>2022-02-09T09:49:06Z</time>
      </trkpt>
      <trkpt lat="42.85402" lon="0.23666">
        <ele>2057.7</ele>
        <time>2022-02-09T09:49:07Z</time>
      </trkpt>
      <trkpt lat="42.85402" lon="0.23666">
        <ele>2057.7</ele>
        <time>2022-02-09T09:49:08Z</time>
      </trkpt>
      <trkpt lat="42.85402" lon="0.23666">
        <ele>2057.7</ele>
        <time>2022-02-09T09:49:09Z</time>
      </trkpt>
      <trkpt lat="42.85402" lon="0.23666">
        <ele>2057.7</ele>
        <time>2022-02-09T09:49:10Z</time>
      </trkpt>
      <trkpt lat="42.85402" lon="0.23666">
        <ele>2057.7</ele>
        <time>2022-02-09T09:49:11Z</time>
      </trkpt>
      <trkpt lat="42.85402" lon="0.23666">
        <ele>2057.7</ele>
        <time>2022-02-09T09:49:12Z</time>
      </trkpt>
      <trkpt lat="42.85402" lon="0.23666">
        <ele>2057.7</ele>
        <time>2022-02-09T09:49:13Z</time>
      </trkpt>
      <trkpt lat="42.85402" lon="0.23666">
        <ele>2057.7</ele>
        <time>2022-02-09T09:49:14Z</time>
      </trkpt>
      <trkpt lat="42.85402" lon="0.23666">
        <ele>2057.7</ele>
        <time>2022-02-09T09:49:15Z</time>
      </trkpt>
      <trkpt lat="42.85402" lon="0.23666">
        <ele>2057.7</ele>
        <time>2022-02-09T09:49:16Z</time>
      </trkpt>
      <trkpt lat="42.85402" lon="0.23666">
        <ele>2057.7</ele>
        <time>2022-02-09T09:49:17Z</time>
      </trkpt>
      <trkpt lat="42.85402" lon="0.23666">
        <ele>2057.7</ele>
        <time>2022-02-09T09:49:18Z</time>
      </trkpt>
      <trkpt lat="42.85402" lon="0.23666">
        <ele>2057.7</ele>
        <time>2022-02-09T09:49:19Z</time>
      </trkpt>
      <trkpt lat="42.85402" lon="0.23666">
        <ele>2057.7</ele>
        <time>2022-02-09T09:49:20Z</time>
      </trkpt>
      <trkpt lat="42.85402" lon="0.23666">
        <ele>2057.7</ele>
        <time>2022-02-09T09:49:21Z</time>
      </trkpt>
      <trkpt lat="42.85402" lon="0.23666">
        <ele>2057.7</ele>
        <time>2022-02-09T09:49:22Z</time>
      </trkpt>
      <trkpt lat="42.85402" lon="0.23666">
        <ele>2057.7</ele>
        <time>2022-02-09T09:49:23Z</time>
      </trkpt>
      <trkpt lat="42.85402" lon="0.23666">
        <ele>2057.7</ele>
        <time>2022-02-09T09:49:24Z</time>
      </trkpt>
      <trkpt lat="42.85402" lon="0.23666">
        <ele>2057.7</ele>
        <time>2022-02-09T09:49:25Z</time>
      </trkpt>
      <trkpt lat="42.85402" lon="0.23666">
        <ele>2057.7</ele>
        <time>2022-02-09T09:49:26Z</time>
      </trkpt>
      <trkpt lat="42.85402" lon="0.23666">
        <ele>2057.7</ele>
        <time>2022-02-09T09:49:27Z</time>
      </trkpt>
      <trkpt lat="42.85402" lon="0.23666">
        <ele>2057.7</ele>
        <time>2022-02-09T09:49:28Z</time>
      </trkpt>
      <trkpt lat="42.85402" lon="0.23666">
        <ele>2057.7</ele>
        <time>2022-02-09T09:49:29Z</time>
      </trkpt>
      <trkpt lat="42.85402" lon="0.23666">
        <ele>2057.7</ele>
        <time>2022-02-09T09:49:30Z</time>
      </trkpt>
      <trkpt lat="42.85402" lon="0.23666">
        <ele>2057.7</ele>
        <time>2022-02-09T09:49:31Z</time>
      </trkpt>
      <trkpt lat="42.85402" lon="0.23666">
        <ele>2057.7</ele>
        <time>2022-02-09T09:49:32Z</time>
      </trkpt>
      <trkpt lat="42.85402" lon="0.23666">
        <ele>2057.7</ele>
        <time>2022-02-09T09:49:33Z</time>
      </trkpt>
      <trkpt lat="42.85402" lon="0.23666">
        <ele>2057.7</ele>
        <time>2022-02-09T09:49:34Z</time>
      </trkpt>
      <trkpt lat="42.85402" lon="0.23666">
        <ele>2057.7</ele>
        <time>2022-02-09T09:49:35Z</time>
      </trkpt>
      <trkpt lat="42.85402" lon="0.23666">
        <ele>2057.7</ele>
        <time>2022-02-09T09:49:36Z</time>
      </trkpt>
      <trkpt lat="42.85402" lon="0.23666">
        <ele>2057.7</ele>
        <time>2022-02-09T09:49:37Z</time>
      </trkpt>
      <trkpt lat="42.85402" lon="0.23666">
        <ele>2057.7</ele>
        <time>2022-02-09T09:49:38Z</time>
      </trkpt>
      <trkpt lat="42.85402" lon="0.23666">
        <ele>2057.7</ele>
        <time>2022-02-09T09:49:39Z</time>
      </trkpt>
      <trkpt lat="42.85402" lon="0.23666">
        <ele>2057.7</ele>
        <time>2022-02-09T09:49:40Z</time>
      </trkpt>
      <trkpt lat="42.85402" lon="0.23666">
        <ele>2057.7</ele>
        <time>2022-02-09T09:49:41Z</time>
      </trkpt>
      <trkpt lat="42.85402" lon="0.23666">
        <ele>2057.7</ele>
        <time>2022-02-09T09:49:42Z</time>
      </trkpt>
      <trkpt lat="42.85402" lon="0.23666">
        <ele>2057.7</ele>
        <time>2022-02-09T09:49:43Z</time>
      </trkpt>
      <trkpt lat="42.85402" lon="0.23666">
        <ele>2057.7</ele>
        <time>2022-02-09T09:49:44Z</time>
      </trkpt>
      <trkpt lat="42.85402" lon="0.23666">
        <ele>2057.7</ele>
        <time>2022-02-09T09:49:45Z</time>
      </trkpt>
      <trkpt lat="42.85402" lon="0.23666">
        <ele>2057.7</ele>
        <time>2022-02-09T09:49:46Z</time>
      </trkpt>
      <trkpt lat="42.85402" lon="0.23666">
        <ele>2057.7</ele>
        <time>2022-02-09T09:49:47Z</time>
      </trkpt>
      <trkpt lat="42.85402" lon="0.23666">
        <ele>2057.7</ele>
        <time>2022-02-09T09:49:48Z</time>
      </trkpt>
      <trkpt lat="42.85402" lon="0.23666">
        <ele>2057.7</ele>
        <time>2022-02-09T09:49:49Z</time>
      </trkpt>
      <trkpt lat="42.85402" lon="0.23666">
        <ele>2057.7</ele>
        <time>2022-02-09T09:49:50Z</time>
      </trkpt>
      <trkpt lat="42.85402" lon="0.23666">
        <ele>2057.7</ele>
        <time>2022-02-09T09:49:51Z</time>
      </trkpt>
      <trkpt lat="42.85402" lon="0.23666">
        <ele>2057.7</ele>
        <time>2022-02-09T09:49:52Z</time>
      </trkpt>
      <trkpt lat="42.85402" lon="0.23666">
        <ele>2057.7</ele>
        <time>2022-02-09T09:49:53Z</time>
      </trkpt>
      <trkpt lat="42.85402" lon="0.23666">
        <ele>2057.7</ele>
        <time>2022-02-09T09:49:54Z</time>
      </trkpt>
      <trkpt lat="42.85402" lon="0.23666">
        <ele>2057.7</ele>
        <time>2022-02-09T09:49:55Z</time>
      </trkpt>
      <trkpt lat="42.85402" lon="0.23666">
        <ele>2057.7</ele>
        <time>2022-02-09T09:49:56Z</time>
      </trkpt>
      <trkpt lat="42.85402" lon="0.23666">
        <ele>2057.7</ele>
        <time>2022-02-09T09:49:57Z</time>
      </trkpt>
      <trkpt lat="42.85402" lon="0.23666">
        <ele>2057.7</ele>
        <time>2022-02-09T09:49:58Z</time>
      </trkpt>
      <trkpt lat="42.85402" lon="0.23666">
        <ele>2057.7</ele>
        <time>2022-02-09T09:49:59Z</time>
      </trkpt>
      <trkpt lat="42.85402" lon="0.23666">
        <ele>2057.7</ele>
        <time>2022-02-09T09:50:00Z</time>
      </trkpt>
      <trkpt lat="42.85402" lon="0.23666">
        <ele>2057.7</ele>
        <time>2022-02-09T09:50:01Z</time>
      </trkpt>
      <trkpt lat="42.85402" lon="0.23666">
        <ele>2057.7</ele>
        <time>2022-02-09T09:50:02Z</time>
      </trkpt>
      <trkpt lat="42.85402" lon="0.23666">
        <ele>2057.7</ele>
        <time>2022-02-09T09:50:03Z</time>
      </trkpt>
      <trkpt lat="42.85402" lon="0.23666">
        <ele>2057.7</ele>
        <time>2022-02-09T09:50:04Z</time>
      </trkpt>
      <trkpt lat="42.85402" lon="0.23666">
        <ele>2057.7</ele>
        <time>2022-02-09T09:50:05Z</time>
      </trkpt>
      <trkpt lat="42.85402" lon="0.23666">
        <ele>2057.7</ele>
        <time>2022-02-09T09:50:06Z</time>
      </trkpt>
      <trkpt lat="42.85402" lon="0.23666">
        <ele>2057.7</ele>
        <time>2022-02-09T09:50:07Z</time>
      </trkpt>
      <trkpt lat="42.85402" lon="0.23666">
        <ele>2057.7</ele>
        <time>2022-02-09T09:50:08Z</time>
      </trkpt>
      <trkpt lat="42.85402" lon="0.23666">
        <ele>2057.7</ele>
        <time>2022-02-09T09:50:09Z</time>
      </trkpt>
      <trkpt lat="42.85402" lon="0.23666">
        <ele>2057.7</ele>
        <time>2022-02-09T09:50:10Z</time>
      </trkpt>
      <trkpt lat="42.85402" lon="0.23666">
        <ele>2057.7</ele>
        <time>2022-02-09T09:50:11Z</time>
      </trkpt>
      <trkpt lat="42.85402" lon="0.23666">
        <ele>2057.7</ele>
        <time>2022-02-09T09:50:12Z</time>
      </trkpt>
      <trkpt lat="42.85402" lon="0.23666">
        <ele>2057.7</ele>
        <time>2022-02-09T09:50:13Z</time>
      </trkpt>
      <trkpt lat="42.85402" lon="0.23666">
        <ele>2057.7</ele>
        <time>2022-02-09T09:50:14Z</time>
      </trkpt>
      <trkpt lat="42.85402" lon="0.23666">
        <ele>2057.7</ele>
        <time>2022-02-09T09:50:15Z</time>
      </trkpt>
      <trkpt lat="42.85402" lon="0.23666">
        <ele>2057.7</ele>
        <time>2022-02-09T09:50:16Z</time>
      </trkpt>
      <trkpt lat="42.85402" lon="0.23666">
        <ele>2057.7</ele>
        <time>2022-02-09T09:50:17Z</time>
      </trkpt>
      <trkpt lat="42.85402" lon="0.23666">
        <ele>2057.7</ele>
        <time>2022-02-09T09:50:18Z</time>
      </trkpt>
      <trkpt lat="42.85402" lon="0.23666">
        <ele>2057.7</ele>
        <time>2022-02-09T09:50:19Z</time>
      </trkpt>
      <trkpt lat="42.85402" lon="0.23666">
        <ele>2057.7</ele>
        <time>2022-02-09T09:50:20Z</time>
      </trkpt>
      <trkpt lat="42.85402" lon="0.23666">
        <ele>2057.7</ele>
        <time>2022-02-09T09:50:21Z</time>
      </trkpt>
      <trkpt lat="42.85402" lon="0.23666">
        <ele>2057.7</ele>
        <time>2022-02-09T09:50:22Z</time>
      </trkpt>
      <trkpt lat="42.85402" lon="0.23666">
        <ele>2057.7</ele>
        <time>2022-02-09T09:50:23Z</time>
      </trkpt>
      <trkpt lat="42.85402" lon="0.23666">
        <ele>2057.7</ele>
        <time>2022-02-09T09:50:24Z</time>
      </trkpt>
      <trkpt lat="42.85402" lon="0.23666">
        <ele>2057.7</ele>
        <time>2022-02-09T09:50:25Z</time>
      </trkpt>
      <trkpt lat="42.85402" lon="0.23666">
        <ele>2057.7</ele>
        <time>2022-02-09T09:50:26Z</time>
      </trkpt>
      <trkpt lat="42.85402" lon="0.23666">
        <ele>2057.7</ele>
        <time>2022-02-09T09:50:27Z</time>
      </trkpt>
      <trkpt lat="42.85402" lon="0.23666">
        <ele>2057.7</ele>
        <time>2022-02-09T09:50:28Z</time>
      </trkpt>
      <trkpt lat="42.85402" lon="0.23666">
        <ele>2057.7</ele>
        <time>2022-02-09T09:50:29Z</time>
      </trkpt>
      <trkpt lat="42.85402" lon="0.23666">
        <ele>2057.7</ele>
        <time>2022-02-09T09:50:30Z</time>
      </trkpt>
      <trkpt lat="42.85402" lon="0.23666">
        <ele>2057.7</ele>
        <time>2022-02-09T09:50:31Z</time>
      </trkpt>
      <trkpt lat="42.85402" lon="0.23666">
        <ele>2057.7</ele>
        <time>2022-02-09T09:50:32Z</time>
      </trkpt>
      <trkpt lat="42.85402" lon="0.23666">
        <ele>2057.7</ele>
        <time>2022-02-09T09:50:33Z</time>
      </trkpt>
      <trkpt lat="42.85402" lon="0.23666">
        <ele>2057.7</ele>
        <time>2022-02-09T09:50:34Z</time>
      </trkpt>
      <trkpt lat="42.85402" lon="0.23666">
        <ele>2057.7</ele>
        <time>2022-02-09T09:50:35Z</time>
      </trkpt>
      <trkpt lat="42.85402" lon="0.23666">
        <ele>2057.7</ele>
        <time>2022-02-09T09:50:36Z</time>
      </trkpt>
      <trkpt lat="42.85402" lon="0.23666">
        <ele>2057.7</ele>
        <time>2022-02-09T09:50:37Z</time>
      </trkpt>
      <trkpt lat="42.85402" lon="0.23666">
        <ele>2057.7</ele>
        <time>2022-02-09T09:50:38Z</time>
      </trkpt>
      <trkpt lat="42.85402" lon="0.23666">
        <ele>2057.7</ele>
        <time>2022-02-09T09:50:39Z</time>
      </trkpt>
      <trkpt lat="42.85402" lon="0.23666">
        <ele>2057.7</ele>
        <time>2022-02-09T09:50:40Z</time>
      </trkpt>
      <trkpt lat="42.85402" lon="0.23666">
        <ele>2057.7</ele>
        <time>2022-02-09T09:50:41Z</time>
      </trkpt>
      <trkpt lat="42.85402" lon="0.23666">
        <ele>2057.7</ele>
        <time>2022-02-09T09:50:42Z</time>
      </trkpt>
      <trkpt lat="42.85402" lon="0.23666">
        <ele>2057.7</ele>
        <time>2022-02-09T09:50:43Z</time>
      </trkpt>
      <trkpt lat="42.85402" lon="0.23666">
        <ele>2057.7</ele>
        <time>2022-02-09T09:50:44Z</time>
      </trkpt>
      <trkpt lat="42.85402" lon="0.23666">
        <ele>2057.7</ele>
        <time>2022-02-09T09:50:45Z</time>
      </trkpt>
      <trkpt lat="42.85402" lon="0.23666">
        <ele>2057.7</ele>
        <time>2022-02-09T09:50:46Z</time>
      </trkpt>
      <trkpt lat="42.85402" lon="0.23666">
        <ele>2057.7</ele>
        <time>2022-02-09T09:50:47Z</time>
      </trkpt>
      <trkpt lat="42.85402" lon="0.23666">
        <ele>2057.7</ele>
        <time>2022-02-09T09:50:48Z</time>
      </trkpt>
      <trkpt lat="42.85402" lon="0.23666">
        <ele>2057.7</ele>
        <time>2022-02-09T09:50:49Z</time>
      </trkpt>
      <trkpt lat="42.85402" lon="0.23666">
        <ele>2057.7</ele>
        <time>2022-02-09T09:50:50Z</time>
      </trkpt>
      <trkpt lat="42.85402" lon="0.23666">
        <ele>2057.7</ele>
        <time>2022-02-09T09:50:51Z</time>
      </trkpt>
      <trkpt lat="42.85402" lon="0.23666">
        <ele>2057.7</ele>
        <time>2022-02-09T09:50:52Z</time>
      </trkpt>
      <trkpt lat="42.85402" lon="0.23666">
        <ele>2057.7</ele>
        <time>2022-02-09T09:50:53Z</time>
      </trkpt>
      <trkpt lat="42.85402" lon="0.23666">
        <ele>2057.7</ele>
        <time>2022-02-09T09:50:54Z</time>
      </trkpt>
      <trkpt lat="42.85402" lon="0.23666">
        <ele>2057.7</ele>
        <time>2022-02-09T09:50:55Z</time>
      </trkpt>
      <trkpt lat="42.85402" lon="0.23666">
        <ele>2057.7</ele>
        <time>2022-02-09T09:50:56Z</time>
      </trkpt>
      <trkpt lat="42.85402" lon="0.23666">
        <ele>2057.7</ele>
        <time>2022-02-09T09:50:57Z</time>
      </trkpt>
      <trkpt lat="42.85402" lon="0.23666">
        <ele>2057.7</ele>
        <time>2022-02-09T09:50:58Z</time>
      </trkpt>
      <trkpt lat="42.85402" lon="0.23666">
        <ele>2057.7</ele>
        <time>2022-02-09T09:50:59Z</time>
      </trkpt>
      <trkpt lat="42.85402" lon="0.23666">
        <ele>2057.7</ele>
        <time>2022-02-09T09:51:00Z</time>
      </trkpt>
      <trkpt lat="42.85402" lon="0.23666">
        <ele>2057.7</ele>
        <time>2022-02-09T09:51:01Z</time>
      </trkpt>
      <trkpt lat="42.85402" lon="0.23666">
        <ele>2057.7</ele>
        <time>2022-02-09T09:51:02Z</time>
      </trkpt>
      <trkpt lat="42.85402" lon="0.23666">
        <ele>2057.7</ele>
        <time>2022-02-09T09:51:03Z</time>
      </trkpt>
      <trkpt lat="42.85402" lon="0.23666">
        <ele>2057.7</ele>
        <time>2022-02-09T09:51:04Z</time>
      </trkpt>
      <trkpt lat="42.85402" lon="0.23666">
        <ele>2057.7</ele>
        <time>2022-02-09T09:51:05Z</time>
      </trkpt>
      <trkpt lat="42.85402" lon="0.23666">
        <ele>2057.7</ele>
        <time>2022-02-09T09:51:06Z</time>
      </trkpt>
      <trkpt lat="42.85402" lon="0.23666">
        <ele>2057.7</ele>
        <time>2022-02-09T09:51:07Z</time>
      </trkpt>
      <trkpt lat="42.85402" lon="0.23666">
        <ele>2057.7</ele>
        <time>2022-02-09T09:51:08Z</time>
      </trkpt>
      <trkpt lat="42.85402" lon="0.23666">
        <ele>2057.7</ele>
        <time>2022-02-09T09:51:09Z</time>
      </trkpt>
      <trkpt lat="42.85402" lon="0.23666">
        <ele>2057.7</ele>
        <time>2022-02-09T09:51:10Z</time>
      </trkpt>
      <trkpt lat="42.85402" lon="0.23666">
        <ele>2057.7</ele>
        <time>2022-02-09T09:51:11Z</time>
      </trkpt>
      <trkpt lat="42.85402" lon="0.23666">
        <ele>2057.7</ele>
        <time>2022-02-09T09:51:12Z</time>
      </trkpt>
      <trkpt lat="42.85402" lon="0.23666">
        <ele>2057.7</ele>
        <time>2022-02-09T09:51:13Z</time>
      </trkpt>
      <trkpt lat="42.85402" lon="0.23666">
        <ele>2057.7</ele>
        <time>2022-02-09T09:51:14Z</time>
      </trkpt>
      <trkpt lat="42.85402" lon="0.23666">
        <ele>2057.7</ele>
        <time>2022-02-09T09:51:15Z</time>
      </trkpt>
      <trkpt lat="42.85402" lon="0.23666">
        <ele>2057.7</ele>
        <time>2022-02-09T09:51:16Z</time>
      </trkpt>
      <trkpt lat="42.85402" lon="0.23666">
        <ele>2057.7</ele>
        <time>2022-02-09T09:51:17Z</time>
      </trkpt>
      <trkpt lat="42.85402" lon="0.23666">
        <ele>2057.7</ele>
        <time>2022-02-09T09:51:18Z</time>
      </trkpt>
      <trkpt lat="42.85402" lon="0.23666">
        <ele>2057.7</ele>
        <time>2022-02-09T09:51:19Z</time>
      </trkpt>
      <trkpt lat="42.85402" lon="0.23666">
        <ele>2057.7</ele>
        <time>2022-02-09T09:51:20Z</time>
      </trkpt>
      <trkpt lat="42.85402" lon="0.23666">
        <ele>2057.7</ele>
        <time>2022-02-09T09:51:21Z</time>
      </trkpt>
      <trkpt lat="42.85402" lon="0.23666">
        <ele>2057.7</ele>
        <time>2022-02-09T09:51:22Z</time>
      </trkpt>
      <trkpt lat="42.85402" lon="0.23666">
        <ele>2057.7</ele>
        <time>2022-02-09T09:51:23Z</time>
      </trkpt>
      <trkpt lat="42.85402" lon="0.23666">
        <ele>2057.7</ele>
        <time>2022-02-09T09:51:24Z</time>
      </trkpt>
      <trkpt lat="42.85402" lon="0.23666">
        <ele>2057.7</ele>
        <time>2022-02-09T09:51:25Z</time>
      </trkpt>
      <trkpt lat="42.85402" lon="0.23666">
        <ele>2057.7</ele>
        <time>2022-02-09T09:51:26Z</time>
      </trkpt>
      <trkpt lat="42.85402" lon="0.23666">
        <ele>2057.7</ele>
        <time>2022-02-09T09:51:27Z</time>
      </trkpt>
      <trkpt lat="42.85402" lon="0.23666">
        <ele>2057.7</ele>
        <time>2022-02-09T09:51:28Z</time>
      </trkpt>
      <trkpt lat="42.85402" lon="0.23666">
        <ele>2057.7</ele>
        <time>2022-02-09T09:51:29Z</time>
      </trkpt>
      <trkpt lat="42.85402" lon="0.23666">
        <ele>2057.7</ele>
        <time>2022-02-09T09:51:30Z</time>
      </trkpt>
      <trkpt lat="42.85402" lon="0.23666">
        <ele>2057.7</ele>
        <time>2022-02-09T09:51:31Z</time>
      </trkpt>
      <trkpt lat="42.85402" lon="0.23666">
        <ele>2057.7</ele>
        <time>2022-02-09T09:51:32Z</time>
      </trkpt>
      <trkpt lat="42.85402" lon="0.23666">
        <ele>2057.7</ele>
        <time>2022-02-09T09:51:33Z</time>
      </trkpt>
      <trkpt lat="42.85402" lon="0.23666">
        <ele>2057.7</ele>
        <time>2022-02-09T09:51:34Z</time>
      </trkpt>
      <trkpt lat="42.85402" lon="0.23666">
        <ele>2057.7</ele>
        <time>2022-02-09T09:51:35Z</time>
      </trkpt>
      <trkpt lat="42.85402" lon="0.23666">
        <ele>2057.7</ele>
        <time>2022-02-09T09:51:36Z</time>
      </trkpt>
      <trkpt lat="42.85402" lon="0.23666">
        <ele>2057.7</ele>
        <time>2022-02-09T09:51:37Z</time>
      </trkpt>
      <trkpt lat="42.85402" lon="0.23666">
        <ele>2057.7</ele>
        <time>2022-02-09T09:51:38Z</time>
      </trkpt>
      <trkpt lat="42.85402" lon="0.23666">
        <ele>2057.7</ele>
        <time>2022-02-09T09:51:39Z</time>
      </trkpt>
      <trkpt lat="42.85402" lon="0.23666">
        <ele>2057.7</ele>
        <time>2022-02-09T09:51:40Z</time>
      </trkpt>
      <trkpt lat="42.85402" lon="0.23666">
        <ele>2057.7</ele>
        <time>2022-02-09T09:51:41Z</time>
      </trkpt>
      <trkpt lat="42.85402" lon="0.23666">
        <ele>2057.7</ele>
        <time>2022-02-09T09:51:42Z</time>
      </trkpt>
      <trkpt lat="42.85402" lon="0.23666">
        <ele>2057.7</ele>
        <time>2022-02-09T09:51:43Z</time>
      </trkpt>
      <trkpt lat="42.85402" lon="0.23666">
        <ele>2057.7</ele>
        <time>2022-02-09T09:51:44Z</time>
      </trkpt>
      <trkpt lat="42.85402" lon="0.23666">
        <ele>2057.7</ele>
        <time>2022-02-09T09:51:45Z</time>
      </trkpt>
      <trkpt lat="42.85402" lon="0.23666">
        <ele>2057.7</ele>
        <time>2022-02-09T09:51:46Z</time>
      </trkpt>
      <trkpt lat="42.85402" lon="0.23666">
        <ele>2057.7</ele>
        <time>2022-02-09T09:51:47Z</time>
      </trkpt>
      <trkpt lat="42.85402" lon="0.23666">
        <ele>2057.7</ele>
        <time>2022-02-09T09:51:48Z</time>
      </trkpt>
      <trkpt lat="42.85402" lon="0.23666">
        <ele>2057.7</ele>
        <time>2022-02-09T09:51:49Z</time>
      </trkpt>
      <trkpt lat="42.85402" lon="0.23666">
        <ele>2057.7</ele>
        <time>2022-02-09T09:51:50Z</time>
      </trkpt>
      <trkpt lat="42.85402" lon="0.23666">
        <ele>2057.7</ele>
        <time>2022-02-09T09:51:51Z</time>
      </trkpt>
      <trkpt lat="42.85402" lon="0.23666">
        <ele>2057.7</ele>
        <time>2022-02-09T09:51:52Z</time>
      </trkpt>
      <trkpt lat="42.85402" lon="0.23666">
        <ele>2057.7</ele>
        <time>2022-02-09T09:51:53Z</time>
      </trkpt>
      <trkpt lat="42.85402" lon="0.23666">
        <ele>2057.7</ele>
        <time>2022-02-09T09:51:54Z</time>
      </trkpt>
      <trkpt lat="42.85402" lon="0.23666">
        <ele>2057.7</ele>
        <time>2022-02-09T09:51:55Z</time>
      </trkpt>
      <trkpt lat="42.85402" lon="0.23666">
        <ele>2057.7</ele>
        <time>2022-02-09T09:51:56Z</time>
      </trkpt>
      <trkpt lat="42.85402" lon="0.23666">
        <ele>2057.7</ele>
        <time>2022-02-09T09:51:57Z</time>
      </trkpt>
      <trkpt lat="42.85402" lon="0.23666">
        <ele>2057.7</ele>
        <time>2022-02-09T09:51:58Z</time>
      </trkpt>
      <trkpt lat="42.85402" lon="0.23666">
        <ele>2057.7</ele>
        <time>2022-02-09T09:51:59Z</time>
      </trkpt>
      <trkpt lat="42.85402" lon="0.23666">
        <ele>2057.7</ele>
        <time>2022-02-09T09:52:00Z</time>
      </trkpt>
      <trkpt lat="42.85402" lon="0.23666">
        <ele>2057.7</ele>
        <time>2022-02-09T09:52:01Z</time>
      </trkpt>
      <trkpt lat="42.85402" lon="0.23666">
        <ele>2057.7</ele>
        <time>2022-02-09T09:52:02Z</time>
      </trkpt>
      <trkpt lat="42.85402" lon="0.23666">
        <ele>2057.7</ele>
        <time>2022-02-09T09:52:03Z</time>
      </trkpt>
      <trkpt lat="42.85402" lon="0.23666">
        <ele>2057.7</ele>
        <time>2022-02-09T09:52:04Z</time>
      </trkpt>
      <trkpt lat="42.85402" lon="0.23666">
        <ele>2057.7</ele>
        <time>2022-02-09T09:52:05Z</time>
      </trkpt>
      <trkpt lat="42.85402" lon="0.23666">
        <ele>2057.7</ele>
        <time>2022-02-09T09:52:06Z</time>
      </trkpt>
      <trkpt lat="42.85402" lon="0.23666">
        <ele>2057.7</ele>
        <time>2022-02-09T09:52:07Z</time>
      </trkpt>
      <trkpt lat="42.85402" lon="0.23666">
        <ele>2057.7</ele>
        <time>2022-02-09T09:52:08Z</time>
      </trkpt>
      <trkpt lat="42.85402" lon="0.23666">
        <ele>2057.7</ele>
        <time>2022-02-09T09:52:09Z</time>
      </trkpt>
      <trkpt lat="42.85402" lon="0.23666">
        <ele>2057.7</ele>
        <time>2022-02-09T09:52:10Z</time>
      </trkpt>
      <trkpt lat="42.85402" lon="0.23666">
        <ele>2057.7</ele>
        <time>2022-02-09T09:52:11Z</time>
      </trkpt>
      <trkpt lat="42.85402" lon="0.23666">
        <ele>2057.7</ele>
        <time>2022-02-09T09:52:12Z</time>
      </trkpt>
      <trkpt lat="42.85402" lon="0.23666">
        <ele>2057.7</ele>
        <time>2022-02-09T09:52:13Z</time>
      </trkpt>
      <trkpt lat="42.85402" lon="0.23666">
        <ele>2057.7</ele>
        <time>2022-02-09T09:52:14Z</time>
      </trkpt>
      <trkpt lat="42.85402" lon="0.23666">
        <ele>2057.7</ele>
        <time>2022-02-09T09:52:15Z</time>
      </trkpt>
      <trkpt lat="42.85402" lon="0.23666">
        <ele>2057.7</ele>
        <time>2022-02-09T09:52:16Z</time>
      </trkpt>
      <trkpt lat="42.85402" lon="0.23666">
        <ele>2057.7</ele>
        <time>2022-02-09T09:52:17Z</time>
      </trkpt>
      <trkpt lat="42.85402" lon="0.23666">
        <ele>2057.7</ele>
        <time>2022-02-09T09:52:18Z</time>
      </trkpt>
      <trkpt lat="42.85402" lon="0.23666">
        <ele>2057.7</ele>
        <time>2022-02-09T09:52:19Z</time>
      </trkpt>
      <trkpt lat="42.85402" lon="0.23666">
        <ele>2057.7</ele>
        <time>2022-02-09T09:52:20Z</time>
      </trkpt>
      <trkpt lat="42.85402" lon="0.23666">
        <ele>2057.7</ele>
        <time>2022-02-09T09:52:21Z</time>
      </trkpt>
      <trkpt lat="42.85402" lon="0.23666">
        <ele>2057.7</ele>
        <time>2022-02-09T09:52:22Z</time>
      </trkpt>
      <trkpt lat="42.85402" lon="0.23666">
        <ele>2057.7</ele>
        <time>2022-02-09T09:52:23Z</time>
      </trkpt>
      <trkpt lat="42.85402" lon="0.23666">
        <ele>2057.7</ele>
        <time>2022-02-09T09:52:24Z</time>
      </trkpt>
      <trkpt lat="42.85402" lon="0.23666">
        <ele>2057.7</ele>
        <time>2022-02-09T09:52:25Z</time>
      </trkpt>
      <trkpt lat="42.85402" lon="0.23666">
        <ele>2057.7</ele>
        <time>2022-02-09T09:52:26Z</time>
      </trkpt>
      <trkpt lat="42.85402" lon="0.23666">
        <ele>2057.7</ele>
        <time>2022-02-09T09:52:27Z</time>
      </trkpt>
      <trkpt lat="42.85402" lon="0.23666">
        <ele>2057.7</ele>
        <time>2022-02-09T09:52:28Z</time>
      </trkpt>
      <trkpt lat="42.85402" lon="0.23666">
        <ele>2057.7</ele>
        <time>2022-02-09T09:52:29Z</time>
      </trkpt>
      <trkpt lat="42.85402" lon="0.23666">
        <ele>2057.7</ele>
        <time>2022-02-09T09:52:30Z</time>
      </trkpt>
      <trkpt lat="42.85402" lon="0.23666">
        <ele>2057.7</ele>
        <time>2022-02-09T09:52:31Z</time>
      </trkpt>
      <trkpt lat="42.85402" lon="0.23666">
        <ele>2057.7</ele>
        <time>2022-02-09T09:52:32Z</time>
      </trkpt>
      <trkpt lat="42.85402" lon="0.23666">
        <ele>2057.7</ele>
        <time>2022-02-09T09:52:33Z</time>
      </trkpt>
      <trkpt lat="42.85402" lon="0.23666">
        <ele>2057.7</ele>
        <time>2022-02-09T09:52:34Z</time>
      </trkpt>
      <trkpt lat="42.85402" lon="0.23666">
        <ele>2057.7</ele>
        <time>2022-02-09T09:52:35Z</time>
      </trkpt>
      <trkpt lat="42.85402" lon="0.23666">
        <ele>2057.7</ele>
        <time>2022-02-09T09:52:36Z</time>
      </trkpt>
      <trkpt lat="42.85402" lon="0.23666">
        <ele>2057.7</ele>
        <time>2022-02-09T09:52:37Z</time>
      </trkpt>
      <trkpt lat="42.85402" lon="0.23666">
        <ele>2057.7</ele>
        <time>2022-02-09T09:52:38Z</time>
      </trkpt>
      <trkpt lat="42.85402" lon="0.23666">
        <ele>2057.7</ele>
        <time>2022-02-09T09:52:39Z</time>
      </trkpt>
      <trkpt lat="42.85402" lon="0.23666">
        <ele>2057.7</ele>
        <time>2022-02-09T09:52:40Z</time>
      </trkpt>
      <trkpt lat="42.85402" lon="0.23666">
        <ele>2057.7</ele>
        <time>2022-02-09T09:52:41Z</time>
      </trkpt>
      <trkpt lat="42.85402" lon="0.23666">
        <ele>2057.7</ele>
        <time>2022-02-09T09:52:42Z</time>
      </trkpt>
      <trkpt lat="42.85402" lon="0.23666">
        <ele>2057.7</ele>
        <time>2022-02-09T09:52:43Z</time>
      </trkpt>
      <trkpt lat="42.85402" lon="0.23666">
        <ele>2057.7</ele>
        <time>2022-02-09T09:52:44Z</time>
      </trkpt>
      <trkpt lat="42.85402" lon="0.23666">
        <ele>2057.7</ele>
        <time>2022-02-09T09:52:45Z</time>
      </trkpt>
      <trkpt lat="42.85402" lon="0.23666">
        <ele>2057.7</ele>
        <time>2022-02-09T09:52:46Z</time>
      </trkpt>
      <trkpt lat="42.85402" lon="0.23666">
        <ele>2057.7</ele>
        <time>2022-02-09T09:52:47Z</time>
      </trkpt>
      <trkpt lat="42.85402" lon="0.23666">
        <ele>2057.7</ele>
        <time>2022-02-09T09:52:48Z</time>
      </trkpt>
      <trkpt lat="42.85402" lon="0.23666">
        <ele>2057.7</ele>
        <time>2022-02-09T09:52:49Z</time>
      </trkpt>
      <trkpt lat="42.85402" lon="0.23666">
        <ele>2057.7</ele>
        <time>2022-02-09T09:52:50Z</time>
      </trkpt>
      <trkpt lat="42.85402" lon="0.23666">
        <ele>2057.7</ele>
        <time>2022-02-09T09:52:51Z</time>
      </trkpt>
      <trkpt lat="42.85402" lon="0.23666">
        <ele>2057.7</ele>
        <time>2022-02-09T09:52:52Z</time>
      </trkpt>
      <trkpt lat="42.85402" lon="0.23666">
        <ele>2057.7</ele>
        <time>2022-02-09T09:52:53Z</time>
      </trkpt>
      <trkpt lat="42.85402" lon="0.23666">
        <ele>2057.7</ele>
        <time>2022-02-09T09:52:54Z</time>
      </trkpt>
      <trkpt lat="42.85402" lon="0.23666">
        <ele>2057.7</ele>
        <time>2022-02-09T09:52:55Z</time>
      </trkpt>
      <trkpt lat="42.85402" lon="0.23666">
        <ele>2057.7</ele>
        <time>2022-02-09T09:52:56Z</time>
      </trkpt>
      <trkpt lat="42.85402" lon="0.23666">
        <ele>2057.7</ele>
        <time>2022-02-09T09:52:57Z</time>
      </trkpt>
      <trkpt lat="42.85402" lon="0.23666">
        <ele>2057.7</ele>
        <time>2022-02-09T09:52:58Z</time>
      </trkpt>
      <trkpt lat="42.85402" lon="0.23666">
        <ele>2057.7</ele>
        <time>2022-02-09T09:52:59Z</time>
      </trkpt>
      <trkpt lat="42.85402" lon="0.23666">
        <ele>2057.7</ele>
        <time>2022-02-09T09:53:00Z</time>
      </trkpt>
      <trkpt lat="42.85402" lon="0.23666">
        <ele>2057.7</ele>
        <time>2022-02-09T09:53:01Z</time>
      </trkpt>
      <trkpt lat="42.85402" lon="0.23666">
        <ele>2057.7</ele>
        <time>2022-02-09T09:53:02Z</time>
      </trkpt>
      <trkpt lat="42.85402" lon="0.23666">
        <ele>2057.7</ele>
        <time>2022-02-09T09:53:03Z</time>
      </trkpt>
      <trkpt lat="42.85402" lon="0.23666">
        <ele>2057.7</ele>
        <time>2022-02-09T09:53:04Z</time>
      </trkpt>
      <trkpt lat="42.85402" lon="0.23666">
        <ele>2057.7</ele>
        <time>2022-02-09T09:53:05Z</time>
      </trkpt>
      <trkpt lat="42.85402" lon="0.23666">
        <ele>2057.7</ele>
        <time>2022-02-09T09:53:06Z</time>
      </trkpt>
      <trkpt lat="42.85402" lon="0.23666">
        <ele>2057.7</ele>
        <time>2022-02-09T09:53:07Z</time>
      </trkpt>
      <trkpt lat="42.85402" lon="0.23666">
        <ele>2057.7</ele>
        <time>2022-02-09T09:53:08Z</time>
      </trkpt>
      <trkpt lat="42.85402" lon="0.23666">
        <ele>2057.7</ele>
        <time>2022-02-09T09:53:09Z</time>
      </trkpt>
      <trkpt lat="42.85402" lon="0.23666">
        <ele>2057.7</ele>
        <time>2022-02-09T09:53:10Z</time>
      </trkpt>
      <trkpt lat="42.85402" lon="0.23666">
        <ele>2057.7</ele>
        <time>2022-02-09T09:53:11Z</time>
      </trkpt>
      <trkpt lat="42.85402" lon="0.23666">
        <ele>2057.7</ele>
        <time>2022-02-09T09:53:12Z</time>
      </trkpt>
      <trkpt lat="42.85402" lon="0.23666">
        <ele>2057.7</ele>
        <time>2022-02-09T09:53:13Z</time>
      </trkpt>
      <trkpt lat="42.85402" lon="0.23666">
        <ele>2057.7</ele>
        <time>2022-02-09T09:53:14Z</time>
      </trkpt>
      <trkpt lat="42.85402" lon="0.23666">
        <ele>2057.7</ele>
        <time>2022-02-09T09:53:15Z</time>
      </trkpt>
      <trkpt lat="42.85402" lon="0.23666">
        <ele>2057.7</ele>
        <time>2022-02-09T09:53:16Z</time>
      </trkpt>
      <trkpt lat="42.85402" lon="0.23666">
        <ele>2057.7</ele>
        <time>2022-02-09T09:53:17Z</time>
      </trkpt>
      <trkpt lat="42.85402" lon="0.23666">
        <ele>2057.7</ele>
        <time>2022-02-09T09:53:18Z</time>
      </trkpt>
      <trkpt lat="42.85402" lon="0.23666">
        <ele>2057.7</ele>
        <time>2022-02-09T09:53:19Z</time>
      </trkpt>
      <trkpt lat="42.85402" lon="0.23666">
        <ele>2057.7</ele>
        <time>2022-02-09T09:53:20Z</time>
      </trkpt>
      <trkpt lat="42.85402" lon="0.23666">
        <ele>2057.7</ele>
        <time>2022-02-09T09:53:21Z</time>
      </trkpt>
      <trkpt lat="42.85402" lon="0.23666">
        <ele>2057.7</ele>
        <time>2022-02-09T09:53:22Z</time>
      </trkpt>
      <trkpt lat="42.85402" lon="0.23666">
        <ele>2057.7</ele>
        <time>2022-02-09T09:53:23Z</time>
      </trkpt>
      <trkpt lat="42.85402" lon="0.23666">
        <ele>2057.7</ele>
        <time>2022-02-09T09:53:24Z</time>
      </trkpt>
      <trkpt lat="42.85402" lon="0.23666">
        <ele>2057.7</ele>
        <time>2022-02-09T09:53:25Z</time>
      </trkpt>
      <trkpt lat="42.85402" lon="0.23666">
        <ele>2057.7</ele>
        <time>2022-02-09T09:53:26Z</time>
      </trkpt>
      <trkpt lat="42.85402" lon="0.23666">
        <ele>2057.7</ele>
        <time>2022-02-09T09:53:27Z</time>
      </trkpt>
      <trkpt lat="42.85402" lon="0.23666">
        <ele>2057.7</ele>
        <time>2022-02-09T09:53:28Z</time>
      </trkpt>
      <trkpt lat="42.85402" lon="0.23666">
        <ele>2057.7</ele>
        <time>2022-02-09T09:53:29Z</time>
      </trkpt>
      <trkpt lat="42.85402" lon="0.23666">
        <ele>2057.7</ele>
        <time>2022-02-09T09:53:30Z</time>
      </trkpt>
      <trkpt lat="42.85402" lon="0.23666">
        <ele>2057.7</ele>
        <time>2022-02-09T09:53:31Z</time>
      </trkpt>
      <trkpt lat="42.85402" lon="0.23666">
        <ele>2057.7</ele>
        <time>2022-02-09T09:53:32Z</time>
      </trkpt>
      <trkpt lat="42.85402" lon="0.23666">
        <ele>2057.7</ele>
        <time>2022-02-09T09:53:33Z</time>
      </trkpt>
      <trkpt lat="42.85402" lon="0.23666">
        <ele>2057.7</ele>
        <time>2022-02-09T09:53:34Z</time>
      </trkpt>
      <trkpt lat="42.85402" lon="0.23666">
        <ele>2057.7</ele>
        <time>2022-02-09T09:53:35Z</time>
      </trkpt>
      <trkpt lat="42.85402" lon="0.23666">
        <ele>2057.7</ele>
        <time>2022-02-09T09:53:36Z</time>
      </trkpt>
      <trkpt lat="42.85402" lon="0.23666">
        <ele>2057.7</ele>
        <time>2022-02-09T09:53:37Z</time>
      </trkpt>
      <trkpt lat="42.85402" lon="0.23666">
        <ele>2057.7</ele>
        <time>2022-02-09T09:53:38Z</time>
      </trkpt>
      <trkpt lat="42.85402" lon="0.23666">
        <ele>2057.7</ele>
        <time>2022-02-09T09:53:39Z</time>
      </trkpt>
      <trkpt lat="42.85402" lon="0.23666">
        <ele>2057.7</ele>
        <time>2022-02-09T09:53:40Z</time>
      </trkpt>
      <trkpt lat="42.85402" lon="0.23666">
        <ele>2057.7</ele>
        <time>2022-02-09T09:53:41Z</time>
      </trkpt>
      <trkpt lat="42.85402" lon="0.23666">
        <ele>2057.7</ele>
        <time>2022-02-09T09:53:42Z</time>
      </trkpt>
      <trkpt lat="42.85402" lon="0.23666">
        <ele>2057.7</ele>
        <time>2022-02-09T09:53:43Z</time>
      </trkpt>
      <trkpt lat="42.85402" lon="0.23666">
        <ele>2057.7</ele>
        <time>2022-02-09T09:53:44Z</time>
      </trkpt>
      <trkpt lat="42.85402" lon="0.23666">
        <ele>2057.7</ele>
        <time>2022-02-09T09:53:45Z</time>
      </trkpt>
      <trkpt lat="42.85402" lon="0.23666">
        <ele>2057.7</ele>
        <time>2022-02-09T09:53:46Z</time>
      </trkpt>
      <trkpt lat="42.85402" lon="0.23666">
        <ele>2057.7</ele>
        <time>2022-02-09T09:53:47Z</time>
      </trkpt>
      <trkpt lat="42.85402" lon="0.23666">
        <ele>2057.7</ele>
        <time>2022-02-09T09:53:48Z</time>
      </trkpt>
      <trkpt lat="42.85402" lon="0.23666">
        <ele>2057.7</ele>
        <time>2022-02-09T09:53:49Z</time>
      </trkpt>
      <trkpt lat="42.85402" lon="0.23666">
        <ele>2057.7</ele>
        <time>2022-02-09T09:53:50Z</time>
      </trkpt>
      <trkpt lat="42.85402" lon="0.23666">
        <ele>2057.7</ele>
        <time>2022-02-09T09:53:51Z</time>
      </trkpt>
      <trkpt lat="42.85402" lon="0.23666">
        <ele>2057.7</ele>
        <time>2022-02-09T09:53:52Z</time>
      </trkpt>
      <trkpt lat="42.85402" lon="0.23666">
        <ele>2057.7</ele>
        <time>2022-02-09T09:53:53Z</time>
      </trkpt>
      <trkpt lat="42.85402" lon="0.23666">
        <ele>2057.7</ele>
        <time>2022-02-09T09:53:54Z</time>
      </trkpt>
      <trkpt lat="42.85402" lon="0.23666">
        <ele>2057.7</ele>
        <time>2022-02-09T09:53:55Z</time>
      </trkpt>
      <trkpt lat="42.85402" lon="0.23666">
        <ele>2057.7</ele>
        <time>2022-02-09T09:53:56Z</time>
      </trkpt>
      <trkpt lat="42.85402" lon="0.23666">
        <ele>2057.7</ele>
        <time>2022-02-09T09:53:57Z</time>
      </trkpt>
      <trkpt lat="42.85402" lon="0.23666">
        <ele>2057.7</ele>
        <time>2022-02-09T09:53:58Z</time>
      </trkpt>
      <trkpt lat="42.85402" lon="0.23666">
        <ele>2057.7</ele>
        <time>2022-02-09T09:53:59Z</time>
      </trkpt>
      <trkpt lat="42.85402" lon="0.23666">
        <ele>2057.7</ele>
        <time>2022-02-09T09:54:00Z</time>
      </trkpt>
      <trkpt lat="42.85402" lon="0.23666">
        <ele>2057.7</ele>
        <time>2022-02-09T09:54:01Z</time>
      </trkpt>
      <trkpt lat="42.85402" lon="0.23666">
        <ele>2057.7</ele>
        <time>2022-02-09T09:54:02Z</time>
      </trkpt>
      <trkpt lat="42.85402" lon="0.23666">
        <ele>2057.7</ele>
        <time>2022-02-09T09:54:03Z</time>
      </trkpt>
      <trkpt lat="42.85402" lon="0.23666">
        <ele>2057.7</ele>
        <time>2022-02-09T09:54:04Z</time>
      </trkpt>
      <trkpt lat="42.85402" lon="0.23666">
        <ele>2057.7</ele>
        <time>2022-02-09T09:54:05Z</time>
      </trkpt>
      <trkpt lat="42.85402" lon="0.23666">
        <ele>2057.7</ele>
        <time>2022-02-09T09:54:06Z</time>
      </trkpt>
      <trkpt lat="42.85402" lon="0.23666">
        <ele>2057.7</ele>
        <time>2022-02-09T09:54:07Z</time>
      </trkpt>
      <trkpt lat="42.85402" lon="0.23666">
        <ele>2057.7</ele>
        <time>2022-02-09T09:54:08Z</time>
      </trkpt>
      <trkpt lat="42.85402" lon="0.23666">
        <ele>2057.7</ele>
        <time>2022-02-09T09:54:09Z</time>
      </trkpt>
      <trkpt lat="42.85402" lon="0.23666">
        <ele>2057.7</ele>
        <time>2022-02-09T09:54:10Z</time>
      </trkpt>
      <trkpt lat="42.85402" lon="0.23666">
        <ele>2057.7</ele>
        <time>2022-02-09T09:54:11Z</time>
      </trkpt>
      <trkpt lat="42.85402" lon="0.23666">
        <ele>2057.7</ele>
        <time>2022-02-09T09:54:12Z</time>
      </trkpt>
      <trkpt lat="42.85402" lon="0.23666">
        <ele>2057.7</ele>
        <time>2022-02-09T09:54:13Z</time>
      </trkpt>
      <trkpt lat="42.85402" lon="0.23666">
        <ele>2057.7</ele>
        <time>2022-02-09T09:54:14Z</time>
      </trkpt>
      <trkpt lat="42.85402" lon="0.23666">
        <ele>2057.7</ele>
        <time>2022-02-09T09:54:15Z</time>
      </trkpt>
      <trkpt lat="42.85402" lon="0.23666">
        <ele>2057.7</ele>
        <time>2022-02-09T09:54:16Z</time>
      </trkpt>
      <trkpt lat="42.85402" lon="0.23666">
        <ele>2057.7</ele>
        <time>2022-02-09T09:54:17Z</time>
      </trkpt>
      <trkpt lat="42.85402" lon="0.23666">
        <ele>2057.7</ele>
        <time>2022-02-09T09:54:18Z</time>
      </trkpt>
      <trkpt lat="42.85402" lon="0.23666">
        <ele>2057.7</ele>
        <time>2022-02-09T09:54:19Z</time>
      </trkpt>
      <trkpt lat="42.85402" lon="0.23666">
        <ele>2057.7</ele>
        <time>2022-02-09T09:54:20Z</time>
      </trkpt>
      <trkpt lat="42.85402" lon="0.23666">
        <ele>2057.7</ele>
        <time>2022-02-09T09:54:21Z</time>
      </trkpt>
      <trkpt lat="42.85402" lon="0.23666">
        <ele>2057.7</ele>
        <time>2022-02-09T09:54:22Z</time>
      </trkpt>
      <trkpt lat="42.85402" lon="0.23666">
        <ele>2057.7</ele>
        <time>2022-02-09T09:54:23Z</time>
      </trkpt>
      <trkpt lat="42.85402" lon="0.23666">
        <ele>2057.7</ele>
        <time>2022-02-09T09:54:24Z</time>
      </trkpt>
      <trkpt lat="42.85402" lon="0.23666">
        <ele>2057.7</ele>
        <time>2022-02-09T09:54:25Z</time>
      </trkpt>
      <trkpt lat="42.85402" lon="0.23666">
        <ele>2057.7</ele>
        <time>2022-02-09T09:54:26Z</time>
      </trkpt>
      <trkpt lat="42.85402" lon="0.23666">
        <ele>2057.7</ele>
        <time>2022-02-09T09:54:27Z</time>
      </trkpt>
      <trkpt lat="42.85402" lon="0.23666">
        <ele>2057.7</ele>
        <time>2022-02-09T09:54:28Z</time>
      </trkpt>
      <trkpt lat="42.85402" lon="0.23666">
        <ele>2057.7</ele>
        <time>2022-02-09T09:54:29Z</time>
      </trkpt>
      <trkpt lat="42.85402" lon="0.23666">
        <ele>2057.7</ele>
        <time>2022-02-09T09:54:30Z</time>
      </trkpt>
      <trkpt lat="42.85402" lon="0.23666">
        <ele>2057.7</ele>
        <time>2022-02-09T09:54:31Z</time>
      </trkpt>
      <trkpt lat="42.85402" lon="0.23666">
        <ele>2057.7</ele>
        <time>2022-02-09T09:54:32Z</time>
      </trkpt>
      <trkpt lat="42.85402" lon="0.23666">
        <ele>2057.7</ele>
        <time>2022-02-09T09:54:33Z</time>
      </trkpt>
      <trkpt lat="42.85402" lon="0.23666">
        <ele>2057.7</ele>
        <time>2022-02-09T09:54:34Z</time>
      </trkpt>
      <trkpt lat="42.85402" lon="0.23666">
        <ele>2057.7</ele>
        <time>2022-02-09T09:54:35Z</time>
      </trkpt>
      <trkpt lat="42.85402" lon="0.23666">
        <ele>2057.7</ele>
        <time>2022-02-09T09:54:36Z</time>
      </trkpt>
      <trkpt lat="42.85402" lon="0.23666">
        <ele>2057.7</ele>
        <time>2022-02-09T09:54:37Z</time>
      </trkpt>
      <trkpt lat="42.85402" lon="0.23666">
        <ele>2057.7</ele>
        <time>2022-02-09T09:54:38Z</time>
      </trkpt>
      <trkpt lat="42.85402" lon="0.23666">
        <ele>2057.7</ele>
        <time>2022-02-09T09:54:39Z</time>
      </trkpt>
      <trkpt lat="42.85402" lon="0.23666">
        <ele>2057.7</ele>
        <time>2022-02-09T09:54:40Z</time>
      </trkpt>
      <trkpt lat="42.85402" lon="0.23666">
        <ele>2057.7</ele>
        <time>2022-02-09T09:54:41Z</time>
      </trkpt>
      <trkpt lat="42.85402" lon="0.23666">
        <ele>2057.7</ele>
        <time>2022-02-09T09:54:42Z</time>
      </trkpt>
      <trkpt lat="42.85402" lon="0.23666">
        <ele>2057.7</ele>
        <time>2022-02-09T09:54:43Z</time>
      </trkpt>
      <trkpt lat="42.85402" lon="0.23666">
        <ele>2057.7</ele>
        <time>2022-02-09T09:54:44Z</time>
      </trkpt>
      <trkpt lat="42.85402" lon="0.23666">
        <ele>2057.7</ele>
        <time>2022-02-09T09:54:45Z</time>
      </trkpt>
      <trkpt lat="42.85402" lon="0.23666">
        <ele>2057.7</ele>
        <time>2022-02-09T09:54:46Z</time>
      </trkpt>
      <trkpt lat="42.85402" lon="0.23666">
        <ele>2057.7</ele>
        <time>2022-02-09T09:54:47Z</time>
      </trkpt>
      <trkpt lat="42.85402" lon="0.23666">
        <ele>2057.7</ele>
        <time>2022-02-09T09:54:48Z</time>
      </trkpt>
      <trkpt lat="42.85402" lon="0.23666">
        <ele>2057.7</ele>
        <time>2022-02-09T09:54:49Z</time>
      </trkpt>
      <trkpt lat="42.85402" lon="0.23666">
        <ele>2057.7</ele>
        <time>2022-02-09T09:54:50Z</time>
      </trkpt>
      <trkpt lat="42.85402" lon="0.23666">
        <ele>2057.7</ele>
        <time>2022-02-09T09:54:51Z</time>
      </trkpt>
      <trkpt lat="42.85402" lon="0.23666">
        <ele>2057.7</ele>
        <time>2022-02-09T09:54:52Z</time>
      </trkpt>
      <trkpt lat="42.85402" lon="0.23666">
        <ele>2057.7</ele>
        <time>2022-02-09T09:54:53Z</time>
      </trkpt>
      <trkpt lat="42.85402" lon="0.23666">
        <ele>2057.7</ele>
        <time>2022-02-09T09:54:54Z</time>
      </trkpt>
      <trkpt lat="42.85402" lon="0.23666">
        <ele>2057.7</ele>
        <time>2022-02-09T09:54:55Z</time>
      </trkpt>
      <trkpt lat="42.85402" lon="0.23666">
        <ele>2057.7</ele>
        <time>2022-02-09T09:54:56Z</time>
      </trkpt>
      <trkpt lat="42.85402" lon="0.23666">
        <ele>2057.7</ele>
        <time>2022-02-09T09:54:57Z</time>
      </trkpt>
      <trkpt lat="42.85402" lon="0.23666">
        <ele>2057.7</ele>
        <time>2022-02-09T09:54:58Z</time>
      </trkpt>
      <trkpt lat="42.85402" lon="0.23666">
        <ele>2057.7</ele>
        <time>2022-02-09T09:54:59Z</time>
      </trkpt>
      <trkpt lat="42.85402" lon="0.23666">
        <ele>2057.7</ele>
        <time>2022-02-09T09:55:00Z</time>
      </trkpt>
      <trkpt lat="42.85402" lon="0.23666">
        <ele>2057.7</ele>
        <time>2022-02-09T09:55:01Z</time>
      </trkpt>
      <trkpt lat="42.85402" lon="0.23666">
        <ele>2057.7</ele>
        <time>2022-02-09T09:55:02Z</time>
      </trkpt>
      <trkpt lat="42.85402" lon="0.23666">
        <ele>2057.7</ele>
        <time>2022-02-09T09:55:03Z</time>
      </trkpt>
      <trkpt lat="42.85402" lon="0.23666">
        <ele>2057.7</ele>
        <time>2022-02-09T09:55:04Z</time>
      </trkpt>
      <trkpt lat="42.85402" lon="0.23666">
        <ele>2057.7</ele>
        <time>2022-02-09T09:55:05Z</time>
      </trkpt>
      <trkpt lat="42.85402" lon="0.23666">
        <ele>2057.7</ele>
        <time>2022-02-09T09:55:06Z</time>
      </trkpt>
      <trkpt lat="42.85402" lon="0.23666">
        <ele>2057.7</ele>
        <time>2022-02-09T09:55:07Z</time>
      </trkpt>
      <trkpt lat="42.85402" lon="0.23666">
        <ele>2057.7</ele>
        <time>2022-02-09T09:55:08Z</time>
      </trkpt>
      <trkpt lat="42.85402" lon="0.23666">
        <ele>2057.7</ele>
        <time>2022-02-09T09:55:09Z</time>
      </trkpt>
      <trkpt lat="42.85402" lon="0.23666">
        <ele>2057.7</ele>
        <time>2022-02-09T09:55:10Z</time>
      </trkpt>
      <trkpt lat="42.85402" lon="0.23666">
        <ele>2057.7</ele>
        <time>2022-02-09T09:55:11Z</time>
      </trkpt>
      <trkpt lat="42.85402" lon="0.23666">
        <ele>2057.7</ele>
        <time>2022-02-09T09:55:12Z</time>
      </trkpt>
      <trkpt lat="42.85402" lon="0.23666">
        <ele>2057.7</ele>
        <time>2022-02-09T09:55:13Z</time>
      </trkpt>
      <trkpt lat="42.85402" lon="0.23666">
        <ele>2057.7</ele>
        <time>2022-02-09T09:55:14Z</time>
      </trkpt>
      <trkpt lat="42.85402" lon="0.23666">
        <ele>2057.7</ele>
        <time>2022-02-09T09:55:15Z</time>
      </trkpt>
      <trkpt lat="42.85402" lon="0.23666">
        <ele>2057.7</ele>
        <time>2022-02-09T09:55:16Z</time>
      </trkpt>
      <trkpt lat="42.85402" lon="0.23666">
        <ele>2057.7</ele>
        <time>2022-02-09T09:55:17Z</time>
      </trkpt>
      <trkpt lat="42.85402" lon="0.23666">
        <ele>2057.7</ele>
        <time>2022-02-09T09:55:18Z</time>
      </trkpt>
      <trkpt lat="42.85402" lon="0.23666">
        <ele>2057.7</ele>
        <time>2022-02-09T09:55:19Z</time>
      </trkpt>
      <trkpt lat="42.85402" lon="0.23666">
        <ele>2057.7</ele>
        <time>2022-02-09T09:55:20Z</time>
      </trkpt>
      <trkpt lat="42.85402" lon="0.23666">
        <ele>2057.7</ele>
        <time>2022-02-09T09:55:21Z</time>
      </trkpt>
      <trkpt lat="42.85402" lon="0.23666">
        <ele>2057.7</ele>
        <time>2022-02-09T09:55:22Z</time>
      </trkpt>
      <trkpt lat="42.85402" lon="0.23666">
        <ele>2057.7</ele>
        <time>2022-02-09T09:55:23Z</time>
      </trkpt>
      <trkpt lat="42.85402" lon="0.23666">
        <ele>2057.7</ele>
        <time>2022-02-09T09:55:24Z</time>
      </trkpt>
      <trkpt lat="42.85402" lon="0.23666">
        <ele>2057.7</ele>
        <time>2022-02-09T09:55:25Z</time>
      </trkpt>
      <trkpt lat="42.85402" lon="0.23666">
        <ele>2057.7</ele>
        <time>2022-02-09T09:55:26Z</time>
      </trkpt>
      <trkpt lat="42.85402" lon="0.23666">
        <ele>2057.7</ele>
        <time>2022-02-09T09:55:27Z</time>
      </trkpt>
      <trkpt lat="42.85402" lon="0.23666">
        <ele>2057.7</ele>
        <time>2022-02-09T09:55:28Z</time>
      </trkpt>
      <trkpt lat="42.85402" lon="0.23666">
        <ele>2057.7</ele>
        <time>2022-02-09T09:55:29Z</time>
      </trkpt>
      <trkpt lat="42.85402" lon="0.23666">
        <ele>2057.7</ele>
        <time>2022-02-09T09:55:30Z</time>
      </trkpt>
      <trkpt lat="42.85402" lon="0.23666">
        <ele>2057.7</ele>
        <time>2022-02-09T09:55:31Z</time>
      </trkpt>
      <trkpt lat="42.85402" lon="0.23666">
        <ele>2057.7</ele>
        <time>2022-02-09T09:55:32Z</time>
      </trkpt>
      <trkpt lat="42.85402" lon="0.23666">
        <ele>2057.7</ele>
        <time>2022-02-09T09:55:33Z</time>
      </trkpt>
      <trkpt lat="42.85402" lon="0.23666">
        <ele>2057.7</ele>
        <time>2022-02-09T09:55:34Z</time>
      </trkpt>
      <trkpt lat="42.85402" lon="0.23666">
        <ele>2057.7</ele>
        <time>2022-02-09T09:55:35Z</time>
      </trkpt>
      <trkpt lat="42.85402" lon="0.23666">
        <ele>2057.7</ele>
        <time>2022-02-09T09:55:36Z</time>
      </trkpt>
      <trkpt lat="42.85402" lon="0.23665">
        <ele>2057.7</ele>
        <time>2022-02-09T09:55:37Z</time>
      </trkpt>
      <trkpt lat="42.854" lon="0.23664">
        <ele>2058.3</ele>
        <time>2022-02-09T09:55:38Z</time>
      </trkpt>
      <trkpt lat="42.854" lon="0.23665">
        <ele>2058.3</ele>
        <time>2022-02-09T09:55:39Z</time>
      </trkpt>
      <trkpt lat="42.854" lon="0.23665">
        <ele>2058.3</ele>
        <time>2022-02-09T09:55:40Z</time>
      </trkpt>
      <trkpt lat="42.854" lon="0.23665">
        <ele>2058.3</ele>
        <time>2022-02-09T09:55:41Z</time>
      </trkpt>
      <trkpt lat="42.854" lon="0.23665">
        <ele>2058.3</ele>
        <time>2022-02-09T09:55:42Z</time>
      </trkpt>
      <trkpt lat="42.854" lon="0.23665">
        <ele>2058.3</ele>
        <time>2022-02-09T09:55:43Z</time>
      </trkpt>
      <trkpt lat="42.854" lon="0.23665">
        <ele>2058.3</ele>
        <time>2022-02-09T09:55:44Z</time>
      </trkpt>
      <trkpt lat="42.854" lon="0.23665">
        <ele>2058.3</ele>
        <time>2022-02-09T09:55:45Z</time>
      </trkpt>
      <trkpt lat="42.854" lon="0.23665">
        <ele>2058.3</ele>
        <time>2022-02-09T09:55:46Z</time>
      </trkpt>
      <trkpt lat="42.854" lon="0.23665">
        <ele>2058.3</ele>
        <time>2022-02-09T09:55:47Z</time>
      </trkpt>
      <trkpt lat="42.854" lon="0.23665">
        <ele>2058.3</ele>
        <time>2022-02-09T09:55:48Z</time>
      </trkpt>
      <trkpt lat="42.854" lon="0.23665">
        <ele>2058.3</ele>
        <time>2022-02-09T09:55:49Z</time>
      </trkpt>
      <trkpt lat="42.854" lon="0.23665">
        <ele>2058.3</ele>
        <time>2022-02-09T09:55:50Z</time>
      </trkpt>
      <trkpt lat="42.854" lon="0.23665">
        <ele>2058.3</ele>
        <time>2022-02-09T09:55:51Z</time>
      </trkpt>
      <trkpt lat="42.854" lon="0.23665">
        <ele>2058.3</ele>
        <time>2022-02-09T09:55:52Z</time>
      </trkpt>
      <trkpt lat="42.854" lon="0.23665">
        <ele>2058.3</ele>
        <time>2022-02-09T09:55:53Z</time>
      </trkpt>
      <trkpt lat="42.854" lon="0.23665">
        <ele>2058.3</ele>
        <time>2022-02-09T09:55:54Z</time>
      </trkpt>
      <trkpt lat="42.854" lon="0.23665">
        <ele>2058.3</ele>
        <time>2022-02-09T09:55:55Z</time>
      </trkpt>
      <trkpt lat="42.854" lon="0.23665">
        <ele>2058.3</ele>
        <time>2022-02-09T09:55:56Z</time>
      </trkpt>
      <trkpt lat="42.854" lon="0.23665">
        <ele>2058.3</ele>
        <time>2022-02-09T09:55:57Z</time>
      </trkpt>
      <trkpt lat="42.854" lon="0.23665">
        <ele>2058.3</ele>
        <time>2022-02-09T09:55:58Z</time>
      </trkpt>
      <trkpt lat="42.854" lon="0.23665">
        <ele>2058.3</ele>
        <time>2022-02-09T09:55:59Z</time>
      </trkpt>
      <trkpt lat="42.854" lon="0.23665">
        <ele>2058.3</ele>
        <time>2022-02-09T09:56:00Z</time>
      </trkpt>
      <trkpt lat="42.854" lon="0.23665">
        <ele>2058.3</ele>
        <time>2022-02-09T09:56:01Z</time>
      </trkpt>
      <trkpt lat="42.854" lon="0.23665">
        <ele>2058.3</ele>
        <time>2022-02-09T09:56:02Z</time>
      </trkpt>
      <trkpt lat="42.854" lon="0.23665">
        <ele>2058.3</ele>
        <time>2022-02-09T09:56:03Z</time>
      </trkpt>
      <trkpt lat="42.854" lon="0.23665">
        <ele>2058.3</ele>
        <time>2022-02-09T09:56:04Z</time>
      </trkpt>
      <trkpt lat="42.854" lon="0.23665">
        <ele>2058.3</ele>
        <time>2022-02-09T09:56:05Z</time>
      </trkpt>
      <trkpt lat="42.854" lon="0.23665">
        <ele>2058.3</ele>
        <time>2022-02-09T09:56:06Z</time>
      </trkpt>
      <trkpt lat="42.854" lon="0.23665">
        <ele>2058.3</ele>
        <time>2022-02-09T09:56:07Z</time>
      </trkpt>
      <trkpt lat="42.854" lon="0.23665">
        <ele>2058.3</ele>
        <time>2022-02-09T09:56:08Z</time>
      </trkpt>
      <trkpt lat="42.854" lon="0.23665">
        <ele>2058.3</ele>
        <time>2022-02-09T09:56:09Z</time>
      </trkpt>
      <trkpt lat="42.854" lon="0.23665">
        <ele>2058.3</ele>
        <time>2022-02-09T09:56:10Z</time>
      </trkpt>
      <trkpt lat="42.854" lon="0.23665">
        <ele>2058.3</ele>
        <time>2022-02-09T09:56:11Z</time>
      </trkpt>
      <trkpt lat="42.854" lon="0.23665">
        <ele>2058.3</ele>
        <time>2022-02-09T09:56:12Z</time>
      </trkpt>
      <trkpt lat="42.854" lon="0.23665">
        <ele>2058.3</ele>
        <time>2022-02-09T09:56:13Z</time>
      </trkpt>
      <trkpt lat="42.854" lon="0.23665">
        <ele>2058.3</ele>
        <time>2022-02-09T09:56:14Z</time>
      </trkpt>
      <trkpt lat="42.854" lon="0.23665">
        <ele>2058.3</ele>
        <time>2022-02-09T09:56:15Z</time>
      </trkpt>
      <trkpt lat="42.854" lon="0.23665">
        <ele>2058.3</ele>
        <time>2022-02-09T09:56:16Z</time>
      </trkpt>
      <trkpt lat="42.854" lon="0.23665">
        <ele>2058.3</ele>
        <time>2022-02-09T09:56:17Z</time>
      </trkpt>
      <trkpt lat="42.854" lon="0.23665">
        <ele>2058.3</ele>
        <time>2022-02-09T09:56:18Z</time>
      </trkpt>
      <trkpt lat="42.854" lon="0.23665">
        <ele>2058.3</ele>
        <time>2022-02-09T09:56:19Z</time>
      </trkpt>
      <trkpt lat="42.854" lon="0.23664">
        <ele>2058.3</ele>
        <time>2022-02-09T09:56:20Z</time>
      </trkpt>
      <trkpt lat="42.854" lon="0.23663">
        <ele>2058.8</ele>
        <time>2022-02-09T09:56:21Z</time>
      </trkpt>
      <trkpt lat="42.854" lon="0.23663">
        <ele>2058.8</ele>
        <time>2022-02-09T09:56:22Z</time>
      </trkpt>
      <trkpt lat="42.854" lon="0.23662">
        <ele>2058.8</ele>
        <time>2022-02-09T09:56:23Z</time>
      </trkpt>
      <trkpt lat="42.854" lon="0.23661">
        <ele>2058.8</ele>
        <time>2022-02-09T09:56:24Z</time>
      </trkpt>
      <trkpt lat="42.854" lon="0.23661">
        <ele>2058.8</ele>
        <time>2022-02-09T09:56:25Z</time>
      </trkpt>
      <trkpt lat="42.854" lon="0.2366">
        <ele>2058.8</ele>
        <time>2022-02-09T09:56:26Z</time>
      </trkpt>
      <trkpt lat="42.85401" lon="0.23659">
        <ele>2059.4</ele>
        <time>2022-02-09T09:56:27Z</time>
      </trkpt>
      <trkpt lat="42.85401" lon="0.23658">
        <ele>2058.8</ele>
        <time>2022-02-09T09:56:28Z</time>
      </trkpt>
      <trkpt lat="42.85401" lon="0.23658">
        <ele>2058.8</ele>
        <time>2022-02-09T09:56:29Z</time>
      </trkpt>
      <trkpt lat="42.85402" lon="0.23657">
        <ele>2058.8</ele>
        <time>2022-02-09T09:56:30Z</time>
      </trkpt>
      <trkpt lat="42.85402" lon="0.23656">
        <ele>2058.8</ele>
        <time>2022-02-09T09:56:31Z</time>
      </trkpt>
      <trkpt lat="42.85403" lon="0.23655">
        <ele>2058.8</ele>
        <time>2022-02-09T09:56:32Z</time>
      </trkpt>
      <trkpt lat="42.85403" lon="0.23654">
        <ele>2059.3</ele>
        <time>2022-02-09T09:56:33Z</time>
      </trkpt>
      <trkpt lat="42.85403" lon="0.23653">
        <ele>2059.3</ele>
        <time>2022-02-09T09:56:34Z</time>
      </trkpt>
      <trkpt lat="42.85404" lon="0.23653">
        <ele>2059.3</ele>
        <time>2022-02-09T09:56:35Z</time>
      </trkpt>
      <trkpt lat="42.85404" lon="0.23652">
        <ele>2058.8</ele>
        <time>2022-02-09T09:56:36Z</time>
      </trkpt>
      <trkpt lat="42.85404" lon="0.23651">
        <ele>2058.8</ele>
        <time>2022-02-09T09:56:37Z</time>
      </trkpt>
      <trkpt lat="42.85405" lon="0.23651">
        <ele>2059.3</ele>
        <time>2022-02-09T09:56:38Z</time>
      </trkpt>
      <trkpt lat="42.85406" lon="0.2365">
        <ele>2059.3</ele>
        <time>2022-02-09T09:56:39Z</time>
      </trkpt>
      <trkpt lat="42.85406" lon="0.23649">
        <ele>2059.3</ele>
        <time>2022-02-09T09:56:40Z</time>
      </trkpt>
      <trkpt lat="42.85406" lon="0.23648">
        <ele>2059.3</ele>
        <time>2022-02-09T09:56:41Z</time>
      </trkpt>
      <trkpt lat="42.85407" lon="0.23647">
        <ele>2058.9</ele>
        <time>2022-02-09T09:56:42Z</time>
      </trkpt>
      <trkpt lat="42.85408" lon="0.23646">
        <ele>2059.4</ele>
        <time>2022-02-09T09:56:43Z</time>
      </trkpt>
      <trkpt lat="42.85409" lon="0.23645">
        <ele>2059.4</ele>
        <time>2022-02-09T09:56:44Z</time>
      </trkpt>
      <trkpt lat="42.8541" lon="0.23644">
        <ele>2059.4</ele>
        <time>2022-02-09T09:56:45Z</time>
      </trkpt>
      <trkpt lat="42.8541" lon="0.23643">
        <ele>2059.4</ele>
        <time>2022-02-09T09:56:46Z</time>
      </trkpt>
      <trkpt lat="42.85411" lon="0.23642">
        <ele>2059</ele>
        <time>2022-02-09T09:56:47Z</time>
      </trkpt>
      <trkpt lat="42.85411" lon="0.23641">
        <ele>2059.5</ele>
        <time>2022-02-09T09:56:48Z</time>
      </trkpt>
      <trkpt lat="42.85412" lon="0.23641">
        <ele>2059.5</ele>
        <time>2022-02-09T09:56:49Z</time>
      </trkpt>
      <trkpt lat="42.85413" lon="0.2364">
        <ele>2059.5</ele>
        <time>2022-02-09T09:56:50Z</time>
      </trkpt>
      <trkpt lat="42.85414" lon="0.23639">
        <ele>2059.1</ele>
        <time>2022-02-09T09:56:51Z</time>
      </trkpt>
      <trkpt lat="42.85414" lon="0.23639">
        <ele>2059.1</ele>
        <time>2022-02-09T09:56:52Z</time>
      </trkpt>
      <trkpt lat="42.85415" lon="0.23638">
        <ele>2059.1</ele>
        <time>2022-02-09T09:56:53Z</time>
      </trkpt>
      <trkpt lat="42.85416" lon="0.23638">
        <ele>2059.6</ele>
        <time>2022-02-09T09:56:54Z</time>
      </trkpt>
      <trkpt lat="42.85417" lon="0.23637">
        <ele>2059.2</ele>
        <time>2022-02-09T09:56:55Z</time>
      </trkpt>
      <trkpt lat="42.85418" lon="0.23637">
        <ele>2059.2</ele>
        <time>2022-02-09T09:56:56Z</time>
      </trkpt>
      <trkpt lat="42.85419" lon="0.23637">
        <ele>2059.2</ele>
        <time>2022-02-09T09:56:57Z</time>
      </trkpt>
      <trkpt lat="42.8542" lon="0.23636">
        <ele>2058.9</ele>
        <time>2022-02-09T09:56:58Z</time>
      </trkpt>
      <trkpt lat="42.85421" lon="0.23636">
        <ele>2058.9</ele>
        <time>2022-02-09T09:56:59Z</time>
      </trkpt>
      <trkpt lat="42.85421" lon="0.23635">
        <ele>2058.9</ele>
        <time>2022-02-09T09:57:00Z</time>
      </trkpt>
      <trkpt lat="42.85422" lon="0.23635">
        <ele>2058.9</ele>
        <time>2022-02-09T09:57:01Z</time>
      </trkpt>
      <trkpt lat="42.85422" lon="0.23634">
        <ele>2058.9</ele>
        <time>2022-02-09T09:57:02Z</time>
      </trkpt>
      <trkpt lat="42.85423" lon="0.23634">
        <ele>2058.9</ele>
        <time>2022-02-09T09:57:03Z</time>
      </trkpt>
      <trkpt lat="42.85423" lon="0.23633">
        <ele>2059</ele>
        <time>2022-02-09T09:57:04Z</time>
      </trkpt>
      <trkpt lat="42.85424" lon="0.23632">
        <ele>2059</ele>
        <time>2022-02-09T09:57:05Z</time>
      </trkpt>
      <trkpt lat="42.85424" lon="0.23631">
        <ele>2059</ele>
        <time>2022-02-09T09:57:06Z</time>
      </trkpt>
      <trkpt lat="42.85425" lon="0.2363">
        <ele>2059</ele>
        <time>2022-02-09T09:57:07Z</time>
      </trkpt>
      <trkpt lat="42.85426" lon="0.2363">
        <ele>2059</ele>
        <time>2022-02-09T09:57:08Z</time>
      </trkpt>
      <trkpt lat="42.85426" lon="0.23629">
        <ele>2059.1</ele>
        <time>2022-02-09T09:57:09Z</time>
      </trkpt>
      <trkpt lat="42.85427" lon="0.23628">
        <ele>2059.1</ele>
        <time>2022-02-09T09:57:10Z</time>
      </trkpt>
      <trkpt lat="42.85427" lon="0.23628">
        <ele>2059.1</ele>
        <time>2022-02-09T09:57:11Z</time>
      </trkpt>
      <trkpt lat="42.85428" lon="0.23627">
        <ele>2059.1</ele>
        <time>2022-02-09T09:57:12Z</time>
      </trkpt>
      <trkpt lat="42.85429" lon="0.23627">
        <ele>2058.9</ele>
        <time>2022-02-09T09:57:13Z</time>
      </trkpt>
      <trkpt lat="42.8543" lon="0.23627">
        <ele>2058.9</ele>
        <time>2022-02-09T09:57:14Z</time>
      </trkpt>
      <trkpt lat="42.85431" lon="0.23626">
        <ele>2058.9</ele>
        <time>2022-02-09T09:57:15Z</time>
      </trkpt>
      <trkpt lat="42.85432" lon="0.23625">
        <ele>2059.2</ele>
        <time>2022-02-09T09:57:16Z</time>
      </trkpt>
      <trkpt lat="42.85433" lon="0.23624">
        <ele>2059</ele>
        <time>2022-02-09T09:57:17Z</time>
      </trkpt>
      <trkpt lat="42.85433" lon="0.23623">
        <ele>2059</ele>
        <time>2022-02-09T09:57:18Z</time>
      </trkpt>
      <trkpt lat="42.85434" lon="0.23622">
        <ele>2059</ele>
        <time>2022-02-09T09:57:19Z</time>
      </trkpt>
      <trkpt lat="42.85435" lon="0.23621">
        <ele>2059.3</ele>
        <time>2022-02-09T09:57:20Z</time>
      </trkpt>
      <trkpt lat="42.85435" lon="0.23619">
        <ele>2059.3</ele>
        <time>2022-02-09T09:57:21Z</time>
      </trkpt>
      <trkpt lat="42.85436" lon="0.23618">
        <ele>2059.2</ele>
        <time>2022-02-09T09:57:22Z</time>
      </trkpt>
      <trkpt lat="42.85437" lon="0.23617">
        <ele>2059.2</ele>
        <time>2022-02-09T09:57:23Z</time>
      </trkpt>
      <trkpt lat="42.85438" lon="0.23616">
        <ele>2059.4</ele>
        <time>2022-02-09T09:57:24Z</time>
      </trkpt>
      <trkpt lat="42.85439" lon="0.23615">
        <ele>2059.3</ele>
        <time>2022-02-09T09:57:25Z</time>
      </trkpt>
      <trkpt lat="42.8544" lon="0.23613">
        <ele>2059.3</ele>
        <time>2022-02-09T09:57:26Z</time>
      </trkpt>
      <trkpt lat="42.8544" lon="0.23612">
        <ele>2059.5</ele>
        <time>2022-02-09T09:57:27Z</time>
      </trkpt>
      <trkpt lat="42.85441" lon="0.23611">
        <ele>2059.5</ele>
        <time>2022-02-09T09:57:28Z</time>
      </trkpt>
      <trkpt lat="42.85442" lon="0.2361">
        <ele>2059.5</ele>
        <time>2022-02-09T09:57:29Z</time>
      </trkpt>
      <trkpt lat="42.85443" lon="0.23608">
        <ele>2059.5</ele>
        <time>2022-02-09T09:57:30Z</time>
      </trkpt>
      <trkpt lat="42.85444" lon="0.23608">
        <ele>2059.7</ele>
        <time>2022-02-09T09:57:31Z</time>
      </trkpt>
      <trkpt lat="42.85444" lon="0.23607">
        <ele>2059.7</ele>
        <time>2022-02-09T09:57:32Z</time>
      </trkpt>
      <trkpt lat="42.85445" lon="0.23606">
        <ele>2059.7</ele>
        <time>2022-02-09T09:57:33Z</time>
      </trkpt>
      <trkpt lat="42.85445" lon="0.23604">
        <ele>2059.6</ele>
        <time>2022-02-09T09:57:34Z</time>
      </trkpt>
      <trkpt lat="42.85446" lon="0.23603">
        <ele>2059.8</ele>
        <time>2022-02-09T09:57:35Z</time>
      </trkpt>
      <trkpt lat="42.85446" lon="0.23602">
        <ele>2059.8</ele>
        <time>2022-02-09T09:57:36Z</time>
      </trkpt>
      <trkpt lat="42.85447" lon="0.23601">
        <ele>2059.8</ele>
        <time>2022-02-09T09:57:37Z</time>
      </trkpt>
      <trkpt lat="42.85448" lon="0.236">
        <ele>2059.8</ele>
        <time>2022-02-09T09:57:38Z</time>
      </trkpt>
      <trkpt lat="42.85448" lon="0.23599">
        <ele>2060.1</ele>
        <time>2022-02-09T09:57:39Z</time>
      </trkpt>
      <trkpt lat="42.85448" lon="0.23598">
        <ele>2060.1</ele>
        <time>2022-02-09T09:57:40Z</time>
      </trkpt>
      <trkpt lat="42.85449" lon="0.23597">
        <ele>2060.1</ele>
        <time>2022-02-09T09:57:41Z</time>
      </trkpt>
      <trkpt lat="42.85449" lon="0.23596">
        <ele>2060.1</ele>
        <time>2022-02-09T09:57:42Z</time>
      </trkpt>
      <trkpt lat="42.85449" lon="0.23595">
        <ele>2060.4</ele>
        <time>2022-02-09T09:57:43Z</time>
      </trkpt>
      <trkpt lat="42.85449" lon="0.23594">
        <ele>2060.4</ele>
        <time>2022-02-09T09:57:44Z</time>
      </trkpt>
      <trkpt lat="42.8545" lon="0.23593">
        <ele>2060.4</ele>
        <time>2022-02-09T09:57:45Z</time>
      </trkpt>
      <trkpt lat="42.8545" lon="0.23593">
        <ele>2060.4</ele>
        <time>2022-02-09T09:57:46Z</time>
      </trkpt>
      <trkpt lat="42.85451" lon="0.23592">
        <ele>2060.4</ele>
        <time>2022-02-09T09:57:47Z</time>
      </trkpt>
      <trkpt lat="42.85451" lon="0.23591">
        <ele>2060.4</ele>
        <time>2022-02-09T09:57:48Z</time>
      </trkpt>
      <trkpt lat="42.85452" lon="0.2359">
        <ele>2060.7</ele>
        <time>2022-02-09T09:57:49Z</time>
      </trkpt>
      <trkpt lat="42.85452" lon="0.2359">
        <ele>2060.7</ele>
        <time>2022-02-09T09:57:50Z</time>
      </trkpt>
      <trkpt lat="42.85453" lon="0.23589">
        <ele>2060.7</ele>
        <time>2022-02-09T09:57:51Z</time>
      </trkpt>
      <trkpt lat="42.85454" lon="0.23588">
        <ele>2060.7</ele>
        <time>2022-02-09T09:57:52Z</time>
      </trkpt>
      <trkpt lat="42.85455" lon="0.23587">
        <ele>2060.9</ele>
        <time>2022-02-09T09:57:53Z</time>
      </trkpt>
      <trkpt lat="42.85455" lon="0.23586">
        <ele>2061.2</ele>
        <time>2022-02-09T09:57:54Z</time>
      </trkpt>
      <trkpt lat="42.85456" lon="0.23585">
        <ele>2061.2</ele>
        <time>2022-02-09T09:57:55Z</time>
      </trkpt>
      <trkpt lat="42.85456" lon="0.23584">
        <ele>2061.2</ele>
        <time>2022-02-09T09:57:56Z</time>
      </trkpt>
      <trkpt lat="42.85457" lon="0.23584">
        <ele>2061.2</ele>
        <time>2022-02-09T09:57:57Z</time>
      </trkpt>
      <trkpt lat="42.85458" lon="0.23583">
        <ele>2061.4</ele>
        <time>2022-02-09T09:57:58Z</time>
      </trkpt>
      <trkpt lat="42.85458" lon="0.23582">
        <ele>2061.4</ele>
        <time>2022-02-09T09:57:59Z</time>
      </trkpt>
      <trkpt lat="42.85459" lon="0.23582">
        <ele>2061.8</ele>
        <time>2022-02-09T09:58:00Z</time>
      </trkpt>
      <trkpt lat="42.85459" lon="0.23581">
        <ele>2061.8</ele>
        <time>2022-02-09T09:58:01Z</time>
      </trkpt>
      <trkpt lat="42.8546" lon="0.2358">
        <ele>2061.8</ele>
        <time>2022-02-09T09:58:02Z</time>
      </trkpt>
      <trkpt lat="42.8546" lon="0.23579">
        <ele>2061.8</ele>
        <time>2022-02-09T09:58:03Z</time>
      </trkpt>
      <trkpt lat="42.85461" lon="0.23578">
        <ele>2062.1</ele>
        <time>2022-02-09T09:58:04Z</time>
      </trkpt>
      <trkpt lat="42.85461" lon="0.23577">
        <ele>2062.4</ele>
        <time>2022-02-09T09:58:05Z</time>
      </trkpt>
      <trkpt lat="42.85462" lon="0.23576">
        <ele>2062.4</ele>
        <time>2022-02-09T09:58:06Z</time>
      </trkpt>
      <trkpt lat="42.85462" lon="0.23575">
        <ele>2062.4</ele>
        <time>2022-02-09T09:58:07Z</time>
      </trkpt>
      <trkpt lat="42.85462" lon="0.23574">
        <ele>2062.4</ele>
        <time>2022-02-09T09:58:08Z</time>
      </trkpt>
      <trkpt lat="42.85463" lon="0.23573">
        <ele>2062.7</ele>
        <time>2022-02-09T09:58:09Z</time>
      </trkpt>
      <trkpt lat="42.85464" lon="0.23572">
        <ele>2062.7</ele>
        <time>2022-02-09T09:58:10Z</time>
      </trkpt>
      <trkpt lat="42.85464" lon="0.23571">
        <ele>2063.1</ele>
        <time>2022-02-09T09:58:11Z</time>
      </trkpt>
      <trkpt lat="42.85464" lon="0.2357">
        <ele>2063.1</ele>
        <time>2022-02-09T09:58:12Z</time>
      </trkpt>
      <trkpt lat="42.85465" lon="0.23569">
        <ele>2063.1</ele>
        <time>2022-02-09T09:58:13Z</time>
      </trkpt>
      <trkpt lat="42.85466" lon="0.23568">
        <ele>2063.5</ele>
        <time>2022-02-09T09:58:14Z</time>
      </trkpt>
      <trkpt lat="42.85466" lon="0.23567">
        <ele>2063.5</ele>
        <time>2022-02-09T09:58:15Z</time>
      </trkpt>
      <trkpt lat="42.85467" lon="0.23566">
        <ele>2063.5</ele>
        <time>2022-02-09T09:58:16Z</time>
      </trkpt>
      <trkpt lat="42.85467" lon="0.23565">
        <ele>2063.5</ele>
        <time>2022-02-09T09:58:17Z</time>
      </trkpt>
      <trkpt lat="42.85467" lon="0.23564">
        <ele>2064.3</ele>
        <time>2022-02-09T09:58:18Z</time>
      </trkpt>
      <trkpt lat="42.85467" lon="0.23563">
        <ele>2064.3</ele>
        <time>2022-02-09T09:58:19Z</time>
      </trkpt>
      <trkpt lat="42.85468" lon="0.23562">
        <ele>2064.3</ele>
        <time>2022-02-09T09:58:20Z</time>
      </trkpt>
      <trkpt lat="42.85468" lon="0.23561">
        <ele>2064.3</ele>
        <time>2022-02-09T09:58:21Z</time>
      </trkpt>
      <trkpt lat="42.85468" lon="0.2356">
        <ele>2064.7</ele>
        <time>2022-02-09T09:58:22Z</time>
      </trkpt>
      <trkpt lat="42.85469" lon="0.23559">
        <ele>2064.7</ele>
        <time>2022-02-09T09:58:23Z</time>
      </trkpt>
      <trkpt lat="42.85469" lon="0.23558">
        <ele>2064.7</ele>
        <time>2022-02-09T09:58:24Z</time>
      </trkpt>
      <trkpt lat="42.85469" lon="0.23557">
        <ele>2064.7</ele>
        <time>2022-02-09T09:58:25Z</time>
      </trkpt>
      <trkpt lat="42.8547" lon="0.23555">
        <ele>2065.2</ele>
        <time>2022-02-09T09:58:26Z</time>
      </trkpt>
      <trkpt lat="42.8547" lon="0.23554">
        <ele>2065.2</ele>
        <time>2022-02-09T09:58:27Z</time>
      </trkpt>
      <trkpt lat="42.8547" lon="0.23553">
        <ele>2065.2</ele>
        <time>2022-02-09T09:58:28Z</time>
      </trkpt>
      <trkpt lat="42.8547" lon="0.23552">
        <ele>2066.1</ele>
        <time>2022-02-09T09:58:29Z</time>
      </trkpt>
      <trkpt lat="42.85471" lon="0.23551">
        <ele>2066.1</ele>
        <time>2022-02-09T09:58:30Z</time>
      </trkpt>
      <trkpt lat="42.85471" lon="0.23549">
        <ele>2066.1</ele>
        <time>2022-02-09T09:58:31Z</time>
      </trkpt>
      <trkpt lat="42.85471" lon="0.23548">
        <ele>2066.1</ele>
        <time>2022-02-09T09:58:32Z</time>
      </trkpt>
      <trkpt lat="42.85471" lon="0.23547">
        <ele>2066.7</ele>
        <time>2022-02-09T09:58:33Z</time>
      </trkpt>
      <trkpt lat="42.85472" lon="0.23546">
        <ele>2066.7</ele>
        <time>2022-02-09T09:58:34Z</time>
      </trkpt>
      <trkpt lat="42.85472" lon="0.23545">
        <ele>2066.7</ele>
        <time>2022-02-09T09:58:35Z</time>
      </trkpt>
      <trkpt lat="42.85472" lon="0.23543">
        <ele>2067.2</ele>
        <time>2022-02-09T09:58:36Z</time>
      </trkpt>
      <trkpt lat="42.85473" lon="0.23542">
        <ele>2067.2</ele>
        <time>2022-02-09T09:58:37Z</time>
      </trkpt>
      <trkpt lat="42.85473" lon="0.23541">
        <ele>2067.2</ele>
        <time>2022-02-09T09:58:38Z</time>
      </trkpt>
      <trkpt lat="42.85473" lon="0.2354">
        <ele>2067.2</ele>
        <time>2022-02-09T09:58:39Z</time>
      </trkpt>
      <trkpt lat="42.85473" lon="0.23538">
        <ele>2068.3</ele>
        <time>2022-02-09T09:58:40Z</time>
      </trkpt>
      <trkpt lat="42.85474" lon="0.23537">
        <ele>2068.3</ele>
        <time>2022-02-09T09:58:41Z</time>
      </trkpt>
      <trkpt lat="42.85474" lon="0.23535">
        <ele>2068.3</ele>
        <time>2022-02-09T09:58:42Z</time>
      </trkpt>
      <trkpt lat="42.85474" lon="0.23534">
        <ele>2068.8</ele>
        <time>2022-02-09T09:58:43Z</time>
      </trkpt>
      <trkpt lat="42.85475" lon="0.23533">
        <ele>2068.8</ele>
        <time>2022-02-09T09:58:44Z</time>
      </trkpt>
      <trkpt lat="42.85475" lon="0.23532">
        <ele>2068.8</ele>
        <time>2022-02-09T09:58:45Z</time>
      </trkpt>
      <trkpt lat="42.85475" lon="0.2353">
        <ele>2069.4</ele>
        <time>2022-02-09T09:58:46Z</time>
      </trkpt>
      <trkpt lat="42.85476" lon="0.23529">
        <ele>2069.4</ele>
        <time>2022-02-09T09:58:47Z</time>
      </trkpt>
      <trkpt lat="42.85476" lon="0.23528">
        <ele>2069.4</ele>
        <time>2022-02-09T09:58:48Z</time>
      </trkpt>
      <trkpt lat="42.85476" lon="0.23527">
        <ele>2069.4</ele>
        <time>2022-02-09T09:58:49Z</time>
      </trkpt>
      <trkpt lat="42.85477" lon="0.23525">
        <ele>2070.3</ele>
        <time>2022-02-09T09:58:50Z</time>
      </trkpt>
      <trkpt lat="42.85477" lon="0.23524">
        <ele>2070.3</ele>
        <time>2022-02-09T09:58:51Z</time>
      </trkpt>
      <trkpt lat="42.85477" lon="0.23523">
        <ele>2070.3</ele>
        <time>2022-02-09T09:58:52Z</time>
      </trkpt>
      <trkpt lat="42.85478" lon="0.23521">
        <ele>2070.9</ele>
        <time>2022-02-09T09:58:53Z</time>
      </trkpt>
      <trkpt lat="42.85478" lon="0.2352">
        <ele>2070.9</ele>
        <time>2022-02-09T09:58:54Z</time>
      </trkpt>
      <trkpt lat="42.85479" lon="0.23519">
        <ele>2070.9</ele>
        <time>2022-02-09T09:58:55Z</time>
      </trkpt>
      <trkpt lat="42.85479" lon="0.23517">
        <ele>2071.4</ele>
        <time>2022-02-09T09:58:56Z</time>
      </trkpt>
      <trkpt lat="42.8548" lon="0.23516">
        <ele>2071.9</ele>
        <time>2022-02-09T09:58:57Z</time>
      </trkpt>
      <trkpt lat="42.8548" lon="0.23515">
        <ele>2071.9</ele>
        <time>2022-02-09T09:58:58Z</time>
      </trkpt>
      <trkpt lat="42.85481" lon="0.23514">
        <ele>2071.9</ele>
        <time>2022-02-09T09:58:59Z</time>
      </trkpt>
      <trkpt lat="42.85481" lon="0.23513">
        <ele>2072.4</ele>
        <time>2022-02-09T09:59:00Z</time>
      </trkpt>
      <trkpt lat="42.85481" lon="0.23512">
        <ele>2072.4</ele>
        <time>2022-02-09T09:59:01Z</time>
      </trkpt>
      <trkpt lat="42.85482" lon="0.2351">
        <ele>2072.4</ele>
        <time>2022-02-09T09:59:02Z</time>
      </trkpt>
      <trkpt lat="42.85483" lon="0.23509">
        <ele>2073.5</ele>
        <time>2022-02-09T09:59:03Z</time>
      </trkpt>
      <trkpt lat="42.85484" lon="0.23508">
        <ele>2073.5</ele>
        <time>2022-02-09T09:59:04Z</time>
      </trkpt>
      <trkpt lat="42.85484" lon="0.23507">
        <ele>2073.5</ele>
        <time>2022-02-09T09:59:05Z</time>
      </trkpt>
      <trkpt lat="42.85485" lon="0.23508">
        <ele>2073.5</ele>
        <time>2022-02-09T09:59:06Z</time>
      </trkpt>
      <trkpt lat="42.85486" lon="0.23509">
        <ele>2073.9</ele>
        <time>2022-02-09T09:59:07Z</time>
      </trkpt>
      <trkpt lat="42.85487" lon="0.23509">
        <ele>2073.3</ele>
        <time>2022-02-09T09:59:08Z</time>
      </trkpt>
      <trkpt lat="42.85489" lon="0.23509">
        <ele>2073.3</ele>
        <time>2022-02-09T09:59:09Z</time>
      </trkpt>
      <trkpt lat="42.8549" lon="0.2351">
        <ele>2073.9</ele>
        <time>2022-02-09T09:59:10Z</time>
      </trkpt>
      <trkpt lat="42.85491" lon="0.2351">
        <ele>2073.9</ele>
        <time>2022-02-09T09:59:11Z</time>
      </trkpt>
      <trkpt lat="42.85491" lon="0.2351">
        <ele>2073.9</ele>
        <time>2022-02-09T09:59:12Z</time>
      </trkpt>
      <trkpt lat="42.85492" lon="0.2351">
        <ele>2073.9</ele>
        <time>2022-02-09T09:59:13Z</time>
      </trkpt>
      <trkpt lat="42.85492" lon="0.23509">
        <ele>2075</ele>
        <time>2022-02-09T09:59:14Z</time>
      </trkpt>
      <trkpt lat="42.85492" lon="0.23508">
        <ele>2075</ele>
        <time>2022-02-09T09:59:15Z</time>
      </trkpt>
      <trkpt lat="42.85493" lon="0.23507">
        <ele>2075</ele>
        <time>2022-02-09T09:59:16Z</time>
      </trkpt>
      <trkpt lat="42.85493" lon="0.23506">
        <ele>2075</ele>
        <time>2022-02-09T09:59:17Z</time>
      </trkpt>
      <trkpt lat="42.85494" lon="0.23505">
        <ele>2075</ele>
        <time>2022-02-09T09:59:18Z</time>
      </trkpt>
      <trkpt lat="42.85494" lon="0.23504">
        <ele>2075.7</ele>
        <time>2022-02-09T09:59:19Z</time>
      </trkpt>
      <trkpt lat="42.85494" lon="0.23503">
        <ele>2075.7</ele>
        <time>2022-02-09T09:59:20Z</time>
      </trkpt>
      <trkpt lat="42.85494" lon="0.23502">
        <ele>2075.7</ele>
        <time>2022-02-09T09:59:21Z</time>
      </trkpt>
      <trkpt lat="42.85494" lon="0.235">
        <ele>2076.3</ele>
        <time>2022-02-09T09:59:22Z</time>
      </trkpt>
      <trkpt lat="42.85494" lon="0.23499">
        <ele>2076.3</ele>
        <time>2022-02-09T09:59:23Z</time>
      </trkpt>
      <trkpt lat="42.85495" lon="0.23498">
        <ele>2076.3</ele>
        <time>2022-02-09T09:59:24Z</time>
      </trkpt>
      <trkpt lat="42.85495" lon="0.23497">
        <ele>2076.3</ele>
        <time>2022-02-09T09:59:25Z</time>
      </trkpt>
      <trkpt lat="42.85495" lon="0.23496">
        <ele>2077</ele>
        <time>2022-02-09T09:59:26Z</time>
      </trkpt>
      <trkpt lat="42.85496" lon="0.23494">
        <ele>2077.6</ele>
        <time>2022-02-09T09:59:27Z</time>
      </trkpt>
      <trkpt lat="42.85496" lon="0.23493">
        <ele>2077.6</ele>
        <time>2022-02-09T09:59:28Z</time>
      </trkpt>
      <trkpt lat="42.85496" lon="0.23492">
        <ele>2078.2</ele>
        <time>2022-02-09T09:59:29Z</time>
      </trkpt>
      <trkpt lat="42.85496" lon="0.23491">
        <ele>2078.2</ele>
        <time>2022-02-09T09:59:30Z</time>
      </trkpt>
      <trkpt lat="42.85497" lon="0.23489">
        <ele>2078.2</ele>
        <time>2022-02-09T09:59:31Z</time>
      </trkpt>
      <trkpt lat="42.85497" lon="0.23488">
        <ele>2078.2</ele>
        <time>2022-02-09T09:59:32Z</time>
      </trkpt>
      <trkpt lat="42.85497" lon="0.23487">
        <ele>2078.9</ele>
        <time>2022-02-09T09:59:33Z</time>
      </trkpt>
      <trkpt lat="42.85497" lon="0.23486">
        <ele>2078.9</ele>
        <time>2022-02-09T09:59:34Z</time>
      </trkpt>
      <trkpt lat="42.85497" lon="0.23485">
        <ele>2078.9</ele>
        <time>2022-02-09T09:59:35Z</time>
      </trkpt>
      <trkpt lat="42.85498" lon="0.23484">
        <ele>2078.9</ele>
        <time>2022-02-09T09:59:36Z</time>
      </trkpt>
      <trkpt lat="42.85498" lon="0.23483">
        <ele>2079.5</ele>
        <time>2022-02-09T09:59:37Z</time>
      </trkpt>
      <trkpt lat="42.85498" lon="0.23481">
        <ele>2079.5</ele>
        <time>2022-02-09T09:59:38Z</time>
      </trkpt>
      <trkpt lat="42.85499" lon="0.2348">
        <ele>2080.1</ele>
        <time>2022-02-09T09:59:39Z</time>
      </trkpt>
      <trkpt lat="42.85499" lon="0.23479">
        <ele>2080.8</ele>
        <time>2022-02-09T09:59:40Z</time>
      </trkpt>
      <trkpt lat="42.85499" lon="0.23478">
        <ele>2080.8</ele>
        <time>2022-02-09T09:59:41Z</time>
      </trkpt>
      <trkpt lat="42.855" lon="0.23477">
        <ele>2080.8</ele>
        <time>2022-02-09T09:59:42Z</time>
      </trkpt>
      <trkpt lat="42.855" lon="0.23475">
        <ele>2080.8</ele>
        <time>2022-02-09T09:59:43Z</time>
      </trkpt>
      <trkpt lat="42.85501" lon="0.23474">
        <ele>2081.5</ele>
        <time>2022-02-09T09:59:44Z</time>
      </trkpt>
      <trkpt lat="42.85501" lon="0.23473">
        <ele>2081.5</ele>
        <time>2022-02-09T09:59:45Z</time>
      </trkpt>
      <trkpt lat="42.85502" lon="0.23472">
        <ele>2082.1</ele>
        <time>2022-02-09T09:59:46Z</time>
      </trkpt>
      <trkpt lat="42.85502" lon="0.23471">
        <ele>2082.1</ele>
        <time>2022-02-09T09:59:47Z</time>
      </trkpt>
      <trkpt lat="42.85503" lon="0.2347">
        <ele>2082.9</ele>
        <time>2022-02-09T09:59:48Z</time>
      </trkpt>
      <trkpt lat="42.85504" lon="0.23469">
        <ele>2082.9</ele>
        <time>2022-02-09T09:59:49Z</time>
      </trkpt>
      <trkpt lat="42.85504" lon="0.23469">
        <ele>2082.9</ele>
        <time>2022-02-09T09:59:50Z</time>
      </trkpt>
      <trkpt lat="42.85505" lon="0.23468">
        <ele>2083.5</ele>
        <time>2022-02-09T09:59:51Z</time>
      </trkpt>
      <trkpt lat="42.85506" lon="0.23468">
        <ele>2083.5</ele>
        <time>2022-02-09T09:59:52Z</time>
      </trkpt>
      <trkpt lat="42.85507" lon="0.23468">
        <ele>2083.5</ele>
        <time>2022-02-09T09:59:53Z</time>
      </trkpt>
      <trkpt lat="42.85508" lon="0.23468">
        <ele>2084.1</ele>
        <time>2022-02-09T09:59:54Z</time>
      </trkpt>
      <trkpt lat="42.85509" lon="0.23469">
        <ele>2084.1</ele>
        <time>2022-02-09T09:59:55Z</time>
      </trkpt>
      <trkpt lat="42.8551" lon="0.2347">
        <ele>2084.1</ele>
        <time>2022-02-09T09:59:56Z</time>
      </trkpt>
      <trkpt lat="42.85512" lon="0.2347">
        <ele>2084.8</ele>
        <time>2022-02-09T09:59:57Z</time>
      </trkpt>
      <trkpt lat="42.85513" lon="0.23471">
        <ele>2084.1</ele>
        <time>2022-02-09T09:59:58Z</time>
      </trkpt>
      <trkpt lat="42.85514" lon="0.23472">
        <ele>2084.1</ele>
        <time>2022-02-09T09:59:59Z</time>
      </trkpt>
      <trkpt lat="42.85515" lon="0.23472">
        <ele>2084.8</ele>
        <time>2022-02-09T10:00:00Z</time>
      </trkpt>
      <trkpt lat="42.85516" lon="0.23473">
        <ele>2084.8</ele>
        <time>2022-02-09T10:00:01Z</time>
      </trkpt>
      <trkpt lat="42.85517" lon="0.23474">
        <ele>2084.8</ele>
        <time>2022-02-09T10:00:02Z</time>
      </trkpt>
      <trkpt lat="42.85517" lon="0.23474">
        <ele>2085.5</ele>
        <time>2022-02-09T10:00:03Z</time>
      </trkpt>
      <trkpt lat="42.85518" lon="0.23475">
        <ele>2084.9</ele>
        <time>2022-02-09T10:00:04Z</time>
      </trkpt>
      <trkpt lat="42.85519" lon="0.23476">
        <ele>2084.9</ele>
        <time>2022-02-09T10:00:05Z</time>
      </trkpt>
      <trkpt lat="42.8552" lon="0.23477">
        <ele>2084.9</ele>
        <time>2022-02-09T10:00:06Z</time>
      </trkpt>
      <trkpt lat="42.85521" lon="0.23477">
        <ele>2085.6</ele>
        <time>2022-02-09T10:00:07Z</time>
      </trkpt>
      <trkpt lat="42.85522" lon="0.23478">
        <ele>2085.6</ele>
        <time>2022-02-09T10:00:08Z</time>
      </trkpt>
      <trkpt lat="42.85522" lon="0.23479">
        <ele>2085.6</ele>
        <time>2022-02-09T10:00:09Z</time>
      </trkpt>
      <trkpt lat="42.85523" lon="0.23479">
        <ele>2085</ele>
        <time>2022-02-09T10:00:10Z</time>
      </trkpt>
      <trkpt lat="42.85524" lon="0.2348">
        <ele>2085.8</ele>
        <time>2022-02-09T10:00:11Z</time>
      </trkpt>
      <trkpt lat="42.85524" lon="0.2348">
        <ele>2085.8</ele>
        <time>2022-02-09T10:00:12Z</time>
      </trkpt>
      <trkpt lat="42.85525" lon="0.23481">
        <ele>2085.8</ele>
        <time>2022-02-09T10:00:13Z</time>
      </trkpt>
      <trkpt lat="42.85526" lon="0.23481">
        <ele>2085.8</ele>
        <time>2022-02-09T10:00:14Z</time>
      </trkpt>
      <trkpt lat="42.85526" lon="0.23482">
        <ele>2085.8</ele>
        <time>2022-02-09T10:00:15Z</time>
      </trkpt>
      <trkpt lat="42.85527" lon="0.23483">
        <ele>2086.6</ele>
        <time>2022-02-09T10:00:16Z</time>
      </trkpt>
      <trkpt lat="42.85528" lon="0.23483">
        <ele>2086.6</ele>
        <time>2022-02-09T10:00:17Z</time>
      </trkpt>
      <trkpt lat="42.85528" lon="0.23483">
        <ele>2086.1</ele>
        <time>2022-02-09T10:00:18Z</time>
      </trkpt>
      <trkpt lat="42.85529" lon="0.23484">
        <ele>2086.1</ele>
        <time>2022-02-09T10:00:19Z</time>
      </trkpt>
      <trkpt lat="42.85529" lon="0.23484">
        <ele>2086.1</ele>
        <time>2022-02-09T10:00:20Z</time>
      </trkpt>
      <trkpt lat="42.85529" lon="0.23485">
        <ele>2086.1</ele>
        <time>2022-02-09T10:00:21Z</time>
      </trkpt>
      <trkpt lat="42.8553" lon="0.23486">
        <ele>2086.1</ele>
        <time>2022-02-09T10:00:22Z</time>
      </trkpt>
      <trkpt lat="42.85531" lon="0.23486">
        <ele>2087</ele>
        <time>2022-02-09T10:00:23Z</time>
      </trkpt>
      <trkpt lat="42.85532" lon="0.23487">
        <ele>2087</ele>
        <time>2022-02-09T10:00:24Z</time>
      </trkpt>
      <trkpt lat="42.85533" lon="0.23487">
        <ele>2087</ele>
        <time>2022-02-09T10:00:25Z</time>
      </trkpt>
      <trkpt lat="42.85534" lon="0.23488">
        <ele>2087.9</ele>
        <time>2022-02-09T10:00:26Z</time>
      </trkpt>
      <trkpt lat="42.85534" lon="0.23488">
        <ele>2087.4</ele>
        <time>2022-02-09T10:00:27Z</time>
      </trkpt>
      <trkpt lat="42.85535" lon="0.23489">
        <ele>2087.4</ele>
        <time>2022-02-09T10:00:28Z</time>
      </trkpt>
      <trkpt lat="42.85535" lon="0.2349">
        <ele>2087.4</ele>
        <time>2022-02-09T10:00:29Z</time>
      </trkpt>
      <trkpt lat="42.85536" lon="0.23491">
        <ele>2087.4</ele>
        <time>2022-02-09T10:00:30Z</time>
      </trkpt>
      <trkpt lat="42.85536" lon="0.23492">
        <ele>2087.4</ele>
        <time>2022-02-09T10:00:31Z</time>
      </trkpt>
      <trkpt lat="42.85537" lon="0.23492">
        <ele>2087.8</ele>
        <time>2022-02-09T10:00:32Z</time>
      </trkpt>
      <trkpt lat="42.85537" lon="0.23493">
        <ele>2087.8</ele>
        <time>2022-02-09T10:00:33Z</time>
      </trkpt>
      <trkpt lat="42.85538" lon="0.23494">
        <ele>2087.8</ele>
        <time>2022-02-09T10:00:34Z</time>
      </trkpt>
      <trkpt lat="42.85539" lon="0.23495">
        <ele>2087.8</ele>
        <time>2022-02-09T10:00:35Z</time>
      </trkpt>
      <trkpt lat="42.85539" lon="0.23497">
        <ele>2088.3</ele>
        <time>2022-02-09T10:00:36Z</time>
      </trkpt>
      <trkpt lat="42.8554" lon="0.23498">
        <ele>2088.3</ele>
        <time>2022-02-09T10:00:37Z</time>
      </trkpt>
      <trkpt lat="42.85541" lon="0.23499">
        <ele>2088.3</ele>
        <time>2022-02-09T10:00:38Z</time>
      </trkpt>
      <trkpt lat="42.85542" lon="0.235">
        <ele>2088.3</ele>
        <time>2022-02-09T10:00:39Z</time>
      </trkpt>
      <trkpt lat="42.85542" lon="0.23501">
        <ele>2087.8</ele>
        <time>2022-02-09T10:00:40Z</time>
      </trkpt>
      <trkpt lat="42.85543" lon="0.23502">
        <ele>2088.7</ele>
        <time>2022-02-09T10:00:41Z</time>
      </trkpt>
      <trkpt lat="42.85544" lon="0.23502">
        <ele>2088.7</ele>
        <time>2022-02-09T10:00:42Z</time>
      </trkpt>
      <trkpt lat="42.85545" lon="0.23502">
        <ele>2088.7</ele>
        <time>2022-02-09T10:00:43Z</time>
      </trkpt>
      <trkpt lat="42.85545" lon="0.23502">
        <ele>2088.7</ele>
        <time>2022-02-09T10:00:44Z</time>
      </trkpt>
      <trkpt lat="42.85546" lon="0.23503">
        <ele>2089.7</ele>
        <time>2022-02-09T10:00:45Z</time>
      </trkpt>
      <trkpt lat="42.85547" lon="0.23503">
        <ele>2089.7</ele>
        <time>2022-02-09T10:00:46Z</time>
      </trkpt>
      <trkpt lat="42.85548" lon="0.23503">
        <ele>2089.7</ele>
        <time>2022-02-09T10:00:47Z</time>
      </trkpt>
      <trkpt lat="42.85548" lon="0.23504">
        <ele>2089.7</ele>
        <time>2022-02-09T10:00:48Z</time>
      </trkpt>
      <trkpt lat="42.85549" lon="0.23504">
        <ele>2090.6</ele>
        <time>2022-02-09T10:00:49Z</time>
      </trkpt>
      <trkpt lat="42.8555" lon="0.23504">
        <ele>2090.6</ele>
        <time>2022-02-09T10:00:50Z</time>
      </trkpt>
      <trkpt lat="42.85551" lon="0.23505">
        <ele>2090.6</ele>
        <time>2022-02-09T10:00:51Z</time>
      </trkpt>
      <trkpt lat="42.85552" lon="0.23505">
        <ele>2090.2</ele>
        <time>2022-02-09T10:00:52Z</time>
      </trkpt>
      <trkpt lat="42.85552" lon="0.23505">
        <ele>2091.3</ele>
        <time>2022-02-09T10:00:53Z</time>
      </trkpt>
      <trkpt lat="42.85553" lon="0.23506">
        <ele>2091.3</ele>
        <time>2022-02-09T10:00:54Z</time>
      </trkpt>
      <trkpt lat="42.85554" lon="0.23506">
        <ele>2091.3</ele>
        <time>2022-02-09T10:00:55Z</time>
      </trkpt>
      <trkpt lat="42.85555" lon="0.23506">
        <ele>2091.3</ele>
        <time>2022-02-09T10:00:56Z</time>
      </trkpt>
      <trkpt lat="42.85556" lon="0.23506">
        <ele>2092.4</ele>
        <time>2022-02-09T10:00:57Z</time>
      </trkpt>
      <trkpt lat="42.85556" lon="0.23506">
        <ele>2092.4</ele>
        <time>2022-02-09T10:00:58Z</time>
      </trkpt>
      <trkpt lat="42.85557" lon="0.23506">
        <ele>2092.4</ele>
        <time>2022-02-09T10:00:59Z</time>
      </trkpt>
      <trkpt lat="42.85558" lon="0.23506">
        <ele>2092.4</ele>
        <time>2022-02-09T10:01:00Z</time>
      </trkpt>
      <trkpt lat="42.85559" lon="0.23506">
        <ele>2093.5</ele>
        <time>2022-02-09T10:01:01Z</time>
      </trkpt>
      <trkpt lat="42.8556" lon="0.23506">
        <ele>2093.5</ele>
        <time>2022-02-09T10:01:02Z</time>
      </trkpt>
      <trkpt lat="42.85561" lon="0.23506">
        <ele>2093.5</ele>
        <time>2022-02-09T10:01:03Z</time>
      </trkpt>
      <trkpt lat="42.85562" lon="0.23505">
        <ele>2094.5</ele>
        <time>2022-02-09T10:01:04Z</time>
      </trkpt>
      <trkpt lat="42.85563" lon="0.23505">
        <ele>2094.5</ele>
        <time>2022-02-09T10:01:05Z</time>
      </trkpt>
      <trkpt lat="42.85563" lon="0.23505">
        <ele>2095</ele>
        <time>2022-02-09T10:01:06Z</time>
      </trkpt>
      <trkpt lat="42.85565" lon="0.23504">
        <ele>2096</ele>
        <time>2022-02-09T10:01:07Z</time>
      </trkpt>
      <trkpt lat="42.85566" lon="0.23504">
        <ele>2096</ele>
        <time>2022-02-09T10:01:08Z</time>
      </trkpt>
      <trkpt lat="42.85567" lon="0.23504">
        <ele>2096</ele>
        <time>2022-02-09T10:01:09Z</time>
      </trkpt>
      <trkpt lat="42.85567" lon="0.23503">
        <ele>2096</ele>
        <time>2022-02-09T10:01:10Z</time>
      </trkpt>
      <trkpt lat="42.85568" lon="0.23503">
        <ele>2096.9</ele>
        <time>2022-02-09T10:01:11Z</time>
      </trkpt>
      <trkpt lat="42.85569" lon="0.23503">
        <ele>2096.9</ele>
        <time>2022-02-09T10:01:12Z</time>
      </trkpt>
      <trkpt lat="42.8557" lon="0.23502">
        <ele>2096.9</ele>
        <time>2022-02-09T10:01:13Z</time>
      </trkpt>
      <trkpt lat="42.85571" lon="0.23502">
        <ele>2097.7</ele>
        <time>2022-02-09T10:01:14Z</time>
      </trkpt>
      <trkpt lat="42.85572" lon="0.23501">
        <ele>2097.7</ele>
        <time>2022-02-09T10:01:15Z</time>
      </trkpt>
      <trkpt lat="42.85573" lon="0.23501">
        <ele>2097.7</ele>
        <time>2022-02-09T10:01:16Z</time>
      </trkpt>
      <trkpt lat="42.85574" lon="0.235">
        <ele>2098.2</ele>
        <time>2022-02-09T10:01:17Z</time>
      </trkpt>
      <trkpt lat="42.85575" lon="0.235">
        <ele>2099.1</ele>
        <time>2022-02-09T10:01:18Z</time>
      </trkpt>
      <trkpt lat="42.85576" lon="0.235">
        <ele>2099.1</ele>
        <time>2022-02-09T10:01:19Z</time>
      </trkpt>
      <trkpt lat="42.85577" lon="0.23499">
        <ele>2099.1</ele>
        <time>2022-02-09T10:01:20Z</time>
      </trkpt>
      <trkpt lat="42.85577" lon="0.23499">
        <ele>2100.1</ele>
        <time>2022-02-09T10:01:21Z</time>
      </trkpt>
      <trkpt lat="42.85578" lon="0.23499">
        <ele>2100.1</ele>
        <time>2022-02-09T10:01:22Z</time>
      </trkpt>
      <trkpt lat="42.85579" lon="0.23499">
        <ele>2100.1</ele>
        <time>2022-02-09T10:01:23Z</time>
      </trkpt>
      <trkpt lat="42.8558" lon="0.23498">
        <ele>2100.1</ele>
        <time>2022-02-09T10:01:24Z</time>
      </trkpt>
      <trkpt lat="42.85581" lon="0.23498">
        <ele>2101.2</ele>
        <time>2022-02-09T10:01:25Z</time>
      </trkpt>
      <trkpt lat="42.85581" lon="0.23498">
        <ele>2101.2</ele>
        <time>2022-02-09T10:01:26Z</time>
      </trkpt>
      <trkpt lat="42.85582" lon="0.23498">
        <ele>2101.2</ele>
        <time>2022-02-09T10:01:27Z</time>
      </trkpt>
      <trkpt lat="42.85583" lon="0.23497">
        <ele>2101.2</ele>
        <time>2022-02-09T10:01:28Z</time>
      </trkpt>
      <trkpt lat="42.85584" lon="0.23496">
        <ele>2102.3</ele>
        <time>2022-02-09T10:01:29Z</time>
      </trkpt>
      <trkpt lat="42.85585" lon="0.23496">
        <ele>2102.8</ele>
        <time>2022-02-09T10:01:30Z</time>
      </trkpt>
      <trkpt lat="42.85585" lon="0.23496">
        <ele>2102.9</ele>
        <time>2022-02-09T10:01:31Z</time>
      </trkpt>
      <trkpt lat="42.85586" lon="0.23495">
        <ele>2103</ele>
        <time>2022-02-09T10:01:32Z</time>
      </trkpt>
      <trkpt lat="42.85587" lon="0.23495">
        <ele>2104.2</ele>
        <time>2022-02-09T10:01:33Z</time>
      </trkpt>
      <trkpt lat="42.85588" lon="0.23495">
        <ele>2104.3</ele>
        <time>2022-02-09T10:01:34Z</time>
      </trkpt>
      <trkpt lat="42.85589" lon="0.23495">
        <ele>2104.4</ele>
        <time>2022-02-09T10:01:35Z</time>
      </trkpt>
      <trkpt lat="42.85589" lon="0.23494">
        <ele>2104.5</ele>
        <time>2022-02-09T10:01:36Z</time>
      </trkpt>
      <trkpt lat="42.8559" lon="0.23493">
        <ele>2105.7</ele>
        <time>2022-02-09T10:01:37Z</time>
      </trkpt>
      <trkpt lat="42.8559" lon="0.23492">
        <ele>2105.9</ele>
        <time>2022-02-09T10:01:38Z</time>
      </trkpt>
      <trkpt lat="42.85591" lon="0.23491">
        <ele>2106.4</ele>
        <time>2022-02-09T10:01:39Z</time>
      </trkpt>
      <trkpt lat="42.85591" lon="0.23491">
        <ele>2106.5</ele>
        <time>2022-02-09T10:01:40Z</time>
      </trkpt>
      <trkpt lat="42.85592" lon="0.2349">
        <ele>2106.6</ele>
        <time>2022-02-09T10:01:41Z</time>
      </trkpt>
      <trkpt lat="42.85593" lon="0.2349">
        <ele>2107.7</ele>
        <time>2022-02-09T10:01:42Z</time>
      </trkpt>
      <trkpt lat="42.85594" lon="0.23488">
        <ele>2107.8</ele>
        <time>2022-02-09T10:01:43Z</time>
      </trkpt>
      <trkpt lat="42.85595" lon="0.23487">
        <ele>2108.3</ele>
        <time>2022-02-09T10:01:44Z</time>
      </trkpt>
      <trkpt lat="42.85595" lon="0.23487">
        <ele>2108.5</ele>
        <time>2022-02-09T10:01:45Z</time>
      </trkpt>
      <trkpt lat="42.85596" lon="0.23486">
        <ele>2108.6</ele>
        <time>2022-02-09T10:01:46Z</time>
      </trkpt>
      <trkpt lat="42.85596" lon="0.23486">
        <ele>2109.5</ele>
        <time>2022-02-09T10:01:47Z</time>
      </trkpt>
      <trkpt lat="42.85597" lon="0.23485">
        <ele>2109.7</ele>
        <time>2022-02-09T10:01:48Z</time>
      </trkpt>
      <trkpt lat="42.85597" lon="0.23485">
        <ele>2109.8</ele>
        <time>2022-02-09T10:01:49Z</time>
      </trkpt>
      <trkpt lat="42.85598" lon="0.23485">
        <ele>2110</ele>
        <time>2022-02-09T10:01:50Z</time>
      </trkpt>
      <trkpt lat="42.85598" lon="0.23484">
        <ele>2110.1</ele>
        <time>2022-02-09T10:01:51Z</time>
      </trkpt>
      <trkpt lat="42.85599" lon="0.23483">
        <ele>2110.3</ele>
        <time>2022-02-09T10:01:52Z</time>
      </trkpt>
      <trkpt lat="42.85599" lon="0.23483">
        <ele>2110.7</ele>
        <time>2022-02-09T10:01:53Z</time>
      </trkpt>
      <trkpt lat="42.85599" lon="0.23482">
        <ele>2111.5</ele>
        <time>2022-02-09T10:01:54Z</time>
      </trkpt>
      <trkpt lat="42.856" lon="0.23481">
        <ele>2111.7</ele>
        <time>2022-02-09T10:01:55Z</time>
      </trkpt>
      <trkpt lat="42.856" lon="0.2348">
        <ele>2111.9</ele>
        <time>2022-02-09T10:01:56Z</time>
      </trkpt>
      <trkpt lat="42.856" lon="0.23479">
        <ele>2112.3</ele>
        <time>2022-02-09T10:01:57Z</time>
      </trkpt>
      <trkpt lat="42.85601" lon="0.23478">
        <ele>2112.5</ele>
        <time>2022-02-09T10:01:58Z</time>
      </trkpt>
      <trkpt lat="42.85601" lon="0.23477">
        <ele>2112.7</ele>
        <time>2022-02-09T10:01:59Z</time>
      </trkpt>
      <trkpt lat="42.85602" lon="0.23476">
        <ele>2112.9</ele>
        <time>2022-02-09T10:02:00Z</time>
      </trkpt>
      <trkpt lat="42.85602" lon="0.23475">
        <ele>2113.7</ele>
        <time>2022-02-09T10:02:01Z</time>
      </trkpt>
      <trkpt lat="42.85603" lon="0.23474">
        <ele>2114.1</ele>
        <time>2022-02-09T10:02:02Z</time>
      </trkpt>
      <trkpt lat="42.85603" lon="0.23474">
        <ele>2114.3</ele>
        <time>2022-02-09T10:02:03Z</time>
      </trkpt>
      <trkpt lat="42.85604" lon="0.23473">
        <ele>2114.4</ele>
        <time>2022-02-09T10:02:04Z</time>
      </trkpt>
      <trkpt lat="42.85604" lon="0.23472">
        <ele>2114.6</ele>
        <time>2022-02-09T10:02:05Z</time>
      </trkpt>
      <trkpt lat="42.85605" lon="0.23472">
        <ele>2114.8</ele>
        <time>2022-02-09T10:02:06Z</time>
      </trkpt>
      <trkpt lat="42.85606" lon="0.23471">
        <ele>2115.7</ele>
        <time>2022-02-09T10:02:07Z</time>
      </trkpt>
      <trkpt lat="42.85606" lon="0.2347">
        <ele>2116.1</ele>
        <time>2022-02-09T10:02:08Z</time>
      </trkpt>
      <trkpt lat="42.85607" lon="0.23469">
        <ele>2116.3</ele>
        <time>2022-02-09T10:02:09Z</time>
      </trkpt>
      <trkpt lat="42.85608" lon="0.23469">
        <ele>2116.5</ele>
        <time>2022-02-09T10:02:10Z</time>
      </trkpt>
      <trkpt lat="42.85608" lon="0.23469">
        <ele>2116.7</ele>
        <time>2022-02-09T10:02:11Z</time>
      </trkpt>
      <trkpt lat="42.85609" lon="0.23469">
        <ele>2117.5</ele>
        <time>2022-02-09T10:02:12Z</time>
      </trkpt>
      <trkpt lat="42.8561" lon="0.23469">
        <ele>2117.7</ele>
        <time>2022-02-09T10:02:13Z</time>
      </trkpt>
      <trkpt lat="42.85611" lon="0.23469">
        <ele>2117.8</ele>
        <time>2022-02-09T10:02:14Z</time>
      </trkpt>
      <trkpt lat="42.85611" lon="0.23469">
        <ele>2118</ele>
        <time>2022-02-09T10:02:15Z</time>
      </trkpt>
      <trkpt lat="42.85612" lon="0.23468">
        <ele>2118.8</ele>
        <time>2022-02-09T10:02:16Z</time>
      </trkpt>
      <trkpt lat="42.85613" lon="0.23468">
        <ele>2118.9</ele>
        <time>2022-02-09T10:02:17Z</time>
      </trkpt>
      <trkpt lat="42.85613" lon="0.23468">
        <ele>2119.1</ele>
        <time>2022-02-09T10:02:18Z</time>
      </trkpt>
      <trkpt lat="42.85613" lon="0.23467">
        <ele>2119.2</ele>
        <time>2022-02-09T10:02:19Z</time>
      </trkpt>
      <trkpt lat="42.85614" lon="0.23466">
        <ele>2119.7</ele>
        <time>2022-02-09T10:02:20Z</time>
      </trkpt>
      <trkpt lat="42.85614" lon="0.23465">
        <ele>2119.8</ele>
        <time>2022-02-09T10:02:21Z</time>
      </trkpt>
      <trkpt lat="42.85614" lon="0.23464">
        <ele>2120</ele>
        <time>2022-02-09T10:02:22Z</time>
      </trkpt>
      <trkpt lat="42.85615" lon="0.23463">
        <ele>2120.2</ele>
        <time>2022-02-09T10:02:23Z</time>
      </trkpt>
      <trkpt lat="42.85615" lon="0.23462">
        <ele>2120.8</ele>
        <time>2022-02-09T10:02:24Z</time>
      </trkpt>
      <trkpt lat="42.85615" lon="0.23462">
        <ele>2121.2</ele>
        <time>2022-02-09T10:02:25Z</time>
      </trkpt>
      <trkpt lat="42.85616" lon="0.23461">
        <ele>2121.3</ele>
        <time>2022-02-09T10:02:26Z</time>
      </trkpt>
      <trkpt lat="42.85617" lon="0.23461">
        <ele>2121.5</ele>
        <time>2022-02-09T10:02:27Z</time>
      </trkpt>
      <trkpt lat="42.85617" lon="0.23461">
        <ele>2121.7</ele>
        <time>2022-02-09T10:02:28Z</time>
      </trkpt>
      <trkpt lat="42.85618" lon="0.23461">
        <ele>2122.2</ele>
        <time>2022-02-09T10:02:29Z</time>
      </trkpt>
      <trkpt lat="42.85619" lon="0.23461">
        <ele>2122.4</ele>
        <time>2022-02-09T10:02:30Z</time>
      </trkpt>
      <trkpt lat="42.8562" lon="0.23461">
        <ele>2122.6</ele>
        <time>2022-02-09T10:02:31Z</time>
      </trkpt>
      <trkpt lat="42.8562" lon="0.23461">
        <ele>2122.7</ele>
        <time>2022-02-09T10:02:32Z</time>
      </trkpt>
      <trkpt lat="42.85621" lon="0.23461">
        <ele>2122.9</ele>
        <time>2022-02-09T10:02:33Z</time>
      </trkpt>
      <trkpt lat="42.85621" lon="0.23461">
        <ele>2123.4</ele>
        <time>2022-02-09T10:02:34Z</time>
      </trkpt>
      <trkpt lat="42.85622" lon="0.23461">
        <ele>2123.6</ele>
        <time>2022-02-09T10:02:35Z</time>
      </trkpt>
      <trkpt lat="42.85623" lon="0.23461">
        <ele>2123.7</ele>
        <time>2022-02-09T10:02:36Z</time>
      </trkpt>
      <trkpt lat="42.85623" lon="0.23461">
        <ele>2123.9</ele>
        <time>2022-02-09T10:02:37Z</time>
      </trkpt>
      <trkpt lat="42.85623" lon="0.2346">
        <ele>2124</ele>
        <time>2022-02-09T10:02:38Z</time>
      </trkpt>
      <trkpt lat="42.85623" lon="0.23459">
        <ele>2124.2</ele>
        <time>2022-02-09T10:02:39Z</time>
      </trkpt>
      <trkpt lat="42.85624" lon="0.23459">
        <ele>2124.3</ele>
        <time>2022-02-09T10:02:40Z</time>
      </trkpt>
      <trkpt lat="42.85624" lon="0.23458">
        <ele>2124.5</ele>
        <time>2022-02-09T10:02:41Z</time>
      </trkpt>
      <trkpt lat="42.85624" lon="0.23457">
        <ele>2124.8</ele>
        <time>2022-02-09T10:02:42Z</time>
      </trkpt>
      <trkpt lat="42.85624" lon="0.23456">
        <ele>2124.9</ele>
        <time>2022-02-09T10:02:43Z</time>
      </trkpt>
      <trkpt lat="42.85624" lon="0.23455">
        <ele>2125.3</ele>
        <time>2022-02-09T10:02:44Z</time>
      </trkpt>
      <trkpt lat="42.85624" lon="0.23454">
        <ele>2125.5</ele>
        <time>2022-02-09T10:02:45Z</time>
      </trkpt>
      <trkpt lat="42.85625" lon="0.23453">
        <ele>2125.8</ele>
        <time>2022-02-09T10:02:46Z</time>
      </trkpt>
      <trkpt lat="42.85625" lon="0.23452">
        <ele>2125.9</ele>
        <time>2022-02-09T10:02:47Z</time>
      </trkpt>
      <trkpt lat="42.85625" lon="0.23451">
        <ele>2126.1</ele>
        <time>2022-02-09T10:02:48Z</time>
      </trkpt>
      <trkpt lat="42.85625" lon="0.23451">
        <ele>2126.3</ele>
        <time>2022-02-09T10:02:49Z</time>
      </trkpt>
      <trkpt lat="42.85625" lon="0.2345">
        <ele>2126.4</ele>
        <time>2022-02-09T10:02:50Z</time>
      </trkpt>
      <trkpt lat="42.85625" lon="0.23449">
        <ele>2126.8</ele>
        <time>2022-02-09T10:02:51Z</time>
      </trkpt>
      <trkpt lat="42.85626" lon="0.23448">
        <ele>2126.8</ele>
        <time>2022-02-09T10:02:52Z</time>
      </trkpt>
      <trkpt lat="42.85626" lon="0.23448">
        <ele>2127</ele>
        <time>2022-02-09T10:02:53Z</time>
      </trkpt>
      <trkpt lat="42.85627" lon="0.23448">
        <ele>2127.2</ele>
        <time>2022-02-09T10:02:54Z</time>
      </trkpt>
      <trkpt lat="42.85628" lon="0.23448">
        <ele>2127.6</ele>
        <time>2022-02-09T10:02:55Z</time>
      </trkpt>
      <trkpt lat="42.85628" lon="0.23448">
        <ele>2127.7</ele>
        <time>2022-02-09T10:02:56Z</time>
      </trkpt>
      <trkpt lat="42.85629" lon="0.23448">
        <ele>2127.9</ele>
        <time>2022-02-09T10:02:57Z</time>
      </trkpt>
      <trkpt lat="42.8563" lon="0.23448">
        <ele>2128</ele>
        <time>2022-02-09T10:02:58Z</time>
      </trkpt>
      <trkpt lat="42.8563" lon="0.23448">
        <ele>2128.2</ele>
        <time>2022-02-09T10:02:59Z</time>
      </trkpt>
      <trkpt lat="42.85631" lon="0.23448">
        <ele>2128.4</ele>
        <time>2022-02-09T10:03:00Z</time>
      </trkpt>
      <trkpt lat="42.85631" lon="0.23447">
        <ele>2128.6</ele>
        <time>2022-02-09T10:03:01Z</time>
      </trkpt>
      <trkpt lat="42.85632" lon="0.23447">
        <ele>2128.7</ele>
        <time>2022-02-09T10:03:02Z</time>
      </trkpt>
      <trkpt lat="42.85632" lon="0.23446">
        <ele>2128.9</ele>
        <time>2022-02-09T10:03:03Z</time>
      </trkpt>
      <trkpt lat="42.85632" lon="0.23445">
        <ele>2129.1</ele>
        <time>2022-02-09T10:03:04Z</time>
      </trkpt>
      <trkpt lat="42.85633" lon="0.23444">
        <ele>2129.3</ele>
        <time>2022-02-09T10:03:05Z</time>
      </trkpt>
      <trkpt lat="42.85633" lon="0.23442">
        <ele>2129.4</ele>
        <time>2022-02-09T10:03:06Z</time>
      </trkpt>
      <trkpt lat="42.85633" lon="0.23441">
        <ele>2129.6</ele>
        <time>2022-02-09T10:03:07Z</time>
      </trkpt>
      <trkpt lat="42.85633" lon="0.23441">
        <ele>2129.8</ele>
        <time>2022-02-09T10:03:08Z</time>
      </trkpt>
      <trkpt lat="42.85634" lon="0.2344">
        <ele>2129.9</ele>
        <time>2022-02-09T10:03:09Z</time>
      </trkpt>
      <trkpt lat="42.85634" lon="0.2344">
        <ele>2130</ele>
        <time>2022-02-09T10:03:10Z</time>
      </trkpt>
      <trkpt lat="42.85635" lon="0.2344">
        <ele>2130.1</ele>
        <time>2022-02-09T10:03:11Z</time>
      </trkpt>
      <trkpt lat="42.85636" lon="0.23439">
        <ele>2130.2</ele>
        <time>2022-02-09T10:03:12Z</time>
      </trkpt>
      <trkpt lat="42.85636" lon="0.23439">
        <ele>2130.3</ele>
        <time>2022-02-09T10:03:13Z</time>
      </trkpt>
      <trkpt lat="42.85637" lon="0.23438">
        <ele>2130.4</ele>
        <time>2022-02-09T10:03:14Z</time>
      </trkpt>
      <trkpt lat="42.85637" lon="0.23437">
        <ele>2130.4</ele>
        <time>2022-02-09T10:03:15Z</time>
      </trkpt>
      <trkpt lat="42.85637" lon="0.23436">
        <ele>2130.5</ele>
        <time>2022-02-09T10:03:16Z</time>
      </trkpt>
      <trkpt lat="42.85638" lon="0.23435">
        <ele>2130.6</ele>
        <time>2022-02-09T10:03:17Z</time>
      </trkpt>
      <trkpt lat="42.85638" lon="0.23434">
        <ele>2130.7</ele>
        <time>2022-02-09T10:03:18Z</time>
      </trkpt>
      <trkpt lat="42.85638" lon="0.23433">
        <ele>2130.7</ele>
        <time>2022-02-09T10:03:19Z</time>
      </trkpt>
      <trkpt lat="42.85638" lon="0.23433">
        <ele>2130.8</ele>
        <time>2022-02-09T10:03:20Z</time>
      </trkpt>
      <trkpt lat="42.85639" lon="0.23432">
        <ele>2130.8</ele>
        <time>2022-02-09T10:03:21Z</time>
      </trkpt>
      <trkpt lat="42.85639" lon="0.23431">
        <ele>2130.9</ele>
        <time>2022-02-09T10:03:22Z</time>
      </trkpt>
      <trkpt lat="42.85639" lon="0.2343">
        <ele>2131</ele>
        <time>2022-02-09T10:03:23Z</time>
      </trkpt>
      <trkpt lat="42.85639" lon="0.2343">
        <ele>2131</ele>
        <time>2022-02-09T10:03:24Z</time>
      </trkpt>
      <trkpt lat="42.85639" lon="0.23429">
        <ele>2131.1</ele>
        <time>2022-02-09T10:03:25Z</time>
      </trkpt>
      <trkpt lat="42.8564" lon="0.23428">
        <ele>2131.2</ele>
        <time>2022-02-09T10:03:26Z</time>
      </trkpt>
      <trkpt lat="42.8564" lon="0.23427">
        <ele>2131.2</ele>
        <time>2022-02-09T10:03:27Z</time>
      </trkpt>
      <trkpt lat="42.85641" lon="0.23427">
        <ele>2131.3</ele>
        <time>2022-02-09T10:03:28Z</time>
      </trkpt>
      <trkpt lat="42.85641" lon="0.23426">
        <ele>2131.4</ele>
        <time>2022-02-09T10:03:29Z</time>
      </trkpt>
      <trkpt lat="42.85641" lon="0.23425">
        <ele>2131.5</ele>
        <time>2022-02-09T10:03:30Z</time>
      </trkpt>
      <trkpt lat="42.85642" lon="0.23425">
        <ele>2131.5</ele>
        <time>2022-02-09T10:03:31Z</time>
      </trkpt>
      <trkpt lat="42.85642" lon="0.23424">
        <ele>2131.6</ele>
        <time>2022-02-09T10:03:32Z</time>
      </trkpt>
      <trkpt lat="42.85642" lon="0.23423">
        <ele>2131.7</ele>
        <time>2022-02-09T10:03:33Z</time>
      </trkpt>
      <trkpt lat="42.85643" lon="0.23422">
        <ele>2131.8</ele>
        <time>2022-02-09T10:03:34Z</time>
      </trkpt>
      <trkpt lat="42.85643" lon="0.23422">
        <ele>2131.9</ele>
        <time>2022-02-09T10:03:35Z</time>
      </trkpt>
      <trkpt lat="42.85644" lon="0.23421">
        <ele>2132</ele>
        <time>2022-02-09T10:03:36Z</time>
      </trkpt>
      <trkpt lat="42.85644" lon="0.2342">
        <ele>2132.1</ele>
        <time>2022-02-09T10:03:37Z</time>
      </trkpt>
      <trkpt lat="42.85644" lon="0.2342">
        <ele>2132.2</ele>
        <time>2022-02-09T10:03:38Z</time>
      </trkpt>
      <trkpt lat="42.85644" lon="0.23419">
        <ele>2132.2</ele>
        <time>2022-02-09T10:03:39Z</time>
      </trkpt>
      <trkpt lat="42.85645" lon="0.23418">
        <ele>2132.3</ele>
        <time>2022-02-09T10:03:40Z</time>
      </trkpt>
      <trkpt lat="42.85645" lon="0.23418">
        <ele>2132.4</ele>
        <time>2022-02-09T10:03:41Z</time>
      </trkpt>
      <trkpt lat="42.85645" lon="0.23417">
        <ele>2132.5</ele>
        <time>2022-02-09T10:03:42Z</time>
      </trkpt>
      <trkpt lat="42.85646" lon="0.23416">
        <ele>2132.6</ele>
        <time>2022-02-09T10:03:43Z</time>
      </trkpt>
      <trkpt lat="42.85646" lon="0.23415">
        <ele>2132.7</ele>
        <time>2022-02-09T10:03:44Z</time>
      </trkpt>
      <trkpt lat="42.85646" lon="0.23415">
        <ele>2132.8</ele>
        <time>2022-02-09T10:03:45Z</time>
      </trkpt>
      <trkpt lat="42.85646" lon="0.23414">
        <ele>2132.9</ele>
        <time>2022-02-09T10:03:46Z</time>
      </trkpt>
      <trkpt lat="42.85647" lon="0.23413">
        <ele>2133</ele>
        <time>2022-02-09T10:03:47Z</time>
      </trkpt>
      <trkpt lat="42.85647" lon="0.23413">
        <ele>2133.1</ele>
        <time>2022-02-09T10:03:48Z</time>
      </trkpt>
      <trkpt lat="42.85647" lon="0.23412">
        <ele>2133.2</ele>
        <time>2022-02-09T10:03:49Z</time>
      </trkpt>
      <trkpt lat="42.85647" lon="0.23411">
        <ele>2133.3</ele>
        <time>2022-02-09T10:03:50Z</time>
      </trkpt>
      <trkpt lat="42.85648" lon="0.23411">
        <ele>2133.4</ele>
        <time>2022-02-09T10:03:51Z</time>
      </trkpt>
      <trkpt lat="42.85648" lon="0.2341">
        <ele>2133.5</ele>
        <time>2022-02-09T10:03:52Z</time>
      </trkpt>
      <trkpt lat="42.85649" lon="0.23409">
        <ele>2133.6</ele>
        <time>2022-02-09T10:03:53Z</time>
      </trkpt>
      <trkpt lat="42.85649" lon="0.23409">
        <ele>2133.7</ele>
        <time>2022-02-09T10:03:54Z</time>
      </trkpt>
      <trkpt lat="42.85649" lon="0.23408">
        <ele>2133.8</ele>
        <time>2022-02-09T10:03:55Z</time>
      </trkpt>
      <trkpt lat="42.8565" lon="0.23407">
        <ele>2134</ele>
        <time>2022-02-09T10:03:56Z</time>
      </trkpt>
      <trkpt lat="42.8565" lon="0.23407">
        <ele>2134.1</ele>
        <time>2022-02-09T10:03:57Z</time>
      </trkpt>
      <trkpt lat="42.85651" lon="0.23406">
        <ele>2134.2</ele>
        <time>2022-02-09T10:03:58Z</time>
      </trkpt>
      <trkpt lat="42.85651" lon="0.23405">
        <ele>2134.3</ele>
        <time>2022-02-09T10:03:59Z</time>
      </trkpt>
      <trkpt lat="42.85652" lon="0.23405">
        <ele>2134.5</ele>
        <time>2022-02-09T10:04:00Z</time>
      </trkpt>
      <trkpt lat="42.85652" lon="0.23404">
        <ele>2134.6</ele>
        <time>2022-02-09T10:04:01Z</time>
      </trkpt>
      <trkpt lat="42.85653" lon="0.23403">
        <ele>2134.8</ele>
        <time>2022-02-09T10:04:02Z</time>
      </trkpt>
      <trkpt lat="42.85654" lon="0.23403">
        <ele>2134.9</ele>
        <time>2022-02-09T10:04:03Z</time>
      </trkpt>
      <trkpt lat="42.85654" lon="0.23402">
        <ele>2135</ele>
        <time>2022-02-09T10:04:04Z</time>
      </trkpt>
      <trkpt lat="42.85654" lon="0.23401">
        <ele>2135.2</ele>
        <time>2022-02-09T10:04:05Z</time>
      </trkpt>
      <trkpt lat="42.85655" lon="0.23401">
        <ele>2135.3</ele>
        <time>2022-02-09T10:04:06Z</time>
      </trkpt>
      <trkpt lat="42.85655" lon="0.234">
        <ele>2135.4</ele>
        <time>2022-02-09T10:04:07Z</time>
      </trkpt>
      <trkpt lat="42.85656" lon="0.23399">
        <ele>2135.5</ele>
        <time>2022-02-09T10:04:08Z</time>
      </trkpt>
      <trkpt lat="42.85656" lon="0.23399">
        <ele>2135.6</ele>
        <time>2022-02-09T10:04:09Z</time>
      </trkpt>
      <trkpt lat="42.85657" lon="0.23398">
        <ele>2135.8</ele>
        <time>2022-02-09T10:04:10Z</time>
      </trkpt>
      <trkpt lat="42.85657" lon="0.23397">
        <ele>2135.9</ele>
        <time>2022-02-09T10:04:11Z</time>
      </trkpt>
      <trkpt lat="42.85657" lon="0.23397">
        <ele>2136</ele>
        <time>2022-02-09T10:04:12Z</time>
      </trkpt>
      <trkpt lat="42.85658" lon="0.23396">
        <ele>2136.1</ele>
        <time>2022-02-09T10:04:13Z</time>
      </trkpt>
      <trkpt lat="42.85658" lon="0.23395">
        <ele>2136.3</ele>
        <time>2022-02-09T10:04:14Z</time>
      </trkpt>
      <trkpt lat="42.85658" lon="0.23394">
        <ele>2136.4</ele>
        <time>2022-02-09T10:04:15Z</time>
      </trkpt>
      <trkpt lat="42.85659" lon="0.23393">
        <ele>2136.5</ele>
        <time>2022-02-09T10:04:16Z</time>
      </trkpt>
      <trkpt lat="42.85659" lon="0.23392">
        <ele>2136.7</ele>
        <time>2022-02-09T10:04:17Z</time>
      </trkpt>
      <trkpt lat="42.85659" lon="0.23391">
        <ele>2136.8</ele>
        <time>2022-02-09T10:04:18Z</time>
      </trkpt>
      <trkpt lat="42.85658" lon="0.23391">
        <ele>2136.9</ele>
        <time>2022-02-09T10:04:19Z</time>
      </trkpt>
      <trkpt lat="42.85658" lon="0.2339">
        <ele>2137</ele>
        <time>2022-02-09T10:04:20Z</time>
      </trkpt>
      <trkpt lat="42.85657" lon="0.23389">
        <ele>2137.1</ele>
        <time>2022-02-09T10:04:21Z</time>
      </trkpt>
      <trkpt lat="42.85657" lon="0.23389">
        <ele>2137.2</ele>
        <time>2022-02-09T10:04:22Z</time>
      </trkpt>
      <trkpt lat="42.85657" lon="0.23388">
        <ele>2137.3</ele>
        <time>2022-02-09T10:04:23Z</time>
      </trkpt>
      <trkpt lat="42.85657" lon="0.23387">
        <ele>2137.4</ele>
        <time>2022-02-09T10:04:24Z</time>
      </trkpt>
      <trkpt lat="42.85657" lon="0.23387">
        <ele>2137.5</ele>
        <time>2022-02-09T10:04:25Z</time>
      </trkpt>
      <trkpt lat="42.85658" lon="0.23386">
        <ele>2137.6</ele>
        <time>2022-02-09T10:04:26Z</time>
      </trkpt>
      <trkpt lat="42.85658" lon="0.23386">
        <ele>2137.7</ele>
        <time>2022-02-09T10:04:27Z</time>
      </trkpt>
      <trkpt lat="42.85659" lon="0.23385">
        <ele>2137.8</ele>
        <time>2022-02-09T10:04:28Z</time>
      </trkpt>
      <trkpt lat="42.85659" lon="0.23385">
        <ele>2138</ele>
        <time>2022-02-09T10:04:29Z</time>
      </trkpt>
      <trkpt lat="42.8566" lon="0.23384">
        <ele>2138.1</ele>
        <time>2022-02-09T10:04:30Z</time>
      </trkpt>
      <trkpt lat="42.8566" lon="0.23384">
        <ele>2138.2</ele>
        <time>2022-02-09T10:04:31Z</time>
      </trkpt>
      <trkpt lat="42.8566" lon="0.23383">
        <ele>2138.3</ele>
        <time>2022-02-09T10:04:32Z</time>
      </trkpt>
      <trkpt lat="42.85661" lon="0.23382">
        <ele>2138.4</ele>
        <time>2022-02-09T10:04:33Z</time>
      </trkpt>
      <trkpt lat="42.8566" lon="0.23382">
        <ele>2138.5</ele>
        <time>2022-02-09T10:04:34Z</time>
      </trkpt>
      <trkpt lat="42.8566" lon="0.23381">
        <ele>2138.7</ele>
        <time>2022-02-09T10:04:35Z</time>
      </trkpt>
      <trkpt lat="42.8566" lon="0.2338">
        <ele>2138.8</ele>
        <time>2022-02-09T10:04:36Z</time>
      </trkpt>
      <trkpt lat="42.8566" lon="0.23379">
        <ele>2138.9</ele>
        <time>2022-02-09T10:04:37Z</time>
      </trkpt>
      <trkpt lat="42.85659" lon="0.23379">
        <ele>2139.1</ele>
        <time>2022-02-09T10:04:38Z</time>
      </trkpt>
      <trkpt lat="42.85658" lon="0.23378">
        <ele>2139.2</ele>
        <time>2022-02-09T10:04:39Z</time>
      </trkpt>
      <trkpt lat="42.85658" lon="0.23378">
        <ele>2139.4</ele>
        <time>2022-02-09T10:04:40Z</time>
      </trkpt>
      <trkpt lat="42.85657" lon="0.23378">
        <ele>2139.5</ele>
        <time>2022-02-09T10:04:41Z</time>
      </trkpt>
      <trkpt lat="42.85657" lon="0.23378">
        <ele>2139.6</ele>
        <time>2022-02-09T10:04:42Z</time>
      </trkpt>
      <trkpt lat="42.85656" lon="0.23377">
        <ele>2139.7</ele>
        <time>2022-02-09T10:04:43Z</time>
      </trkpt>
      <trkpt lat="42.85656" lon="0.23377">
        <ele>2139.8</ele>
        <time>2022-02-09T10:04:44Z</time>
      </trkpt>
      <trkpt lat="42.85656" lon="0.23376">
        <ele>2139.9</ele>
        <time>2022-02-09T10:04:45Z</time>
      </trkpt>
      <trkpt lat="42.85656" lon="0.23376">
        <ele>2140</ele>
        <time>2022-02-09T10:04:46Z</time>
      </trkpt>
      <trkpt lat="42.85657" lon="0.23375">
        <ele>2140.2</ele>
        <time>2022-02-09T10:04:47Z</time>
      </trkpt>
      <trkpt lat="42.85657" lon="0.23375">
        <ele>2140.3</ele>
        <time>2022-02-09T10:04:48Z</time>
      </trkpt>
      <trkpt lat="42.85657" lon="0.23374">
        <ele>2140.5</ele>
        <time>2022-02-09T10:04:49Z</time>
      </trkpt>
      <trkpt lat="42.85658" lon="0.23374">
        <ele>2140.7</ele>
        <time>2022-02-09T10:04:50Z</time>
      </trkpt>
      <trkpt lat="42.85659" lon="0.23373">
        <ele>2140.8</ele>
        <time>2022-02-09T10:04:51Z</time>
      </trkpt>
      <trkpt lat="42.85659" lon="0.23373">
        <ele>2141</ele>
        <time>2022-02-09T10:04:52Z</time>
      </trkpt>
      <trkpt lat="42.8566" lon="0.23372">
        <ele>2141.2</ele>
        <time>2022-02-09T10:04:53Z</time>
      </trkpt>
      <trkpt lat="42.8566" lon="0.23372">
        <ele>2141.3</ele>
        <time>2022-02-09T10:04:54Z</time>
      </trkpt>
      <trkpt lat="42.85661" lon="0.23372">
        <ele>2141.5</ele>
        <time>2022-02-09T10:04:55Z</time>
      </trkpt>
      <trkpt lat="42.85662" lon="0.23372">
        <ele>2141.7</ele>
        <time>2022-02-09T10:04:56Z</time>
      </trkpt>
      <trkpt lat="42.85662" lon="0.23372">
        <ele>2141.9</ele>
        <time>2022-02-09T10:04:57Z</time>
      </trkpt>
      <trkpt lat="42.85663" lon="0.23372">
        <ele>2142.1</ele>
        <time>2022-02-09T10:04:58Z</time>
      </trkpt>
      <trkpt lat="42.85664" lon="0.23372">
        <ele>2142.3</ele>
        <time>2022-02-09T10:04:59Z</time>
      </trkpt>
      <trkpt lat="42.85664" lon="0.23373">
        <ele>2142.5</ele>
        <time>2022-02-09T10:05:00Z</time>
      </trkpt>
      <trkpt lat="42.85665" lon="0.23373">
        <ele>2142.7</ele>
        <time>2022-02-09T10:05:01Z</time>
      </trkpt>
      <trkpt lat="42.85665" lon="0.23373">
        <ele>2142.9</ele>
        <time>2022-02-09T10:05:02Z</time>
      </trkpt>
      <trkpt lat="42.85666" lon="0.23373">
        <ele>2143</ele>
        <time>2022-02-09T10:05:03Z</time>
      </trkpt>
      <trkpt lat="42.85666" lon="0.23374">
        <ele>2143.2</ele>
        <time>2022-02-09T10:05:04Z</time>
      </trkpt>
      <trkpt lat="42.85667" lon="0.23374">
        <ele>2143.3</ele>
        <time>2022-02-09T10:05:05Z</time>
      </trkpt>
      <trkpt lat="42.85667" lon="0.23374">
        <ele>2143.4</ele>
        <time>2022-02-09T10:05:06Z</time>
      </trkpt>
      <trkpt lat="42.85667" lon="0.23373">
        <ele>2143.5</ele>
        <time>2022-02-09T10:05:07Z</time>
      </trkpt>
      <trkpt lat="42.85667" lon="0.23373">
        <ele>2143.6</ele>
        <time>2022-02-09T10:05:08Z</time>
      </trkpt>
      <trkpt lat="42.85667" lon="0.23372">
        <ele>2143.8</ele>
        <time>2022-02-09T10:05:09Z</time>
      </trkpt>
      <trkpt lat="42.85667" lon="0.23372">
        <ele>2144</ele>
        <time>2022-02-09T10:05:10Z</time>
      </trkpt>
      <trkpt lat="42.85667" lon="0.23371">
        <ele>2144.2</ele>
        <time>2022-02-09T10:05:11Z</time>
      </trkpt>
      <trkpt lat="42.85667" lon="0.2337">
        <ele>2144.4</ele>
        <time>2022-02-09T10:05:12Z</time>
      </trkpt>
      <trkpt lat="42.85667" lon="0.23369">
        <ele>2144.6</ele>
        <time>2022-02-09T10:05:13Z</time>
      </trkpt>
      <trkpt lat="42.85667" lon="0.23368">
        <ele>2144.8</ele>
        <time>2022-02-09T10:05:14Z</time>
      </trkpt>
      <trkpt lat="42.85667" lon="0.23367">
        <ele>2145.1</ele>
        <time>2022-02-09T10:05:15Z</time>
      </trkpt>
      <trkpt lat="42.85666" lon="0.23366">
        <ele>2145.3</ele>
        <time>2022-02-09T10:05:16Z</time>
      </trkpt>
      <trkpt lat="42.85666" lon="0.23366">
        <ele>2145.5</ele>
        <time>2022-02-09T10:05:17Z</time>
      </trkpt>
      <trkpt lat="42.85666" lon="0.23365">
        <ele>2145.8</ele>
        <time>2022-02-09T10:05:18Z</time>
      </trkpt>
      <trkpt lat="42.85666" lon="0.23364">
        <ele>2145.9</ele>
        <time>2022-02-09T10:05:19Z</time>
      </trkpt>
      <trkpt lat="42.85666" lon="0.23363">
        <ele>2146.2</ele>
        <time>2022-02-09T10:05:20Z</time>
      </trkpt>
      <trkpt lat="42.85665" lon="0.23362">
        <ele>2146.4</ele>
        <time>2022-02-09T10:05:21Z</time>
      </trkpt>
      <trkpt lat="42.85665" lon="0.23361">
        <ele>2146.6</ele>
        <time>2022-02-09T10:05:22Z</time>
      </trkpt>
      <trkpt lat="42.85665" lon="0.23361">
        <ele>2146.8</ele>
        <time>2022-02-09T10:05:23Z</time>
      </trkpt>
      <trkpt lat="42.85665" lon="0.2336">
        <ele>2147.1</ele>
        <time>2022-02-09T10:05:24Z</time>
      </trkpt>
      <trkpt lat="42.85665" lon="0.23359">
        <ele>2147.3</ele>
        <time>2022-02-09T10:05:25Z</time>
      </trkpt>
      <trkpt lat="42.85665" lon="0.23358">
        <ele>2147.5</ele>
        <time>2022-02-09T10:05:26Z</time>
      </trkpt>
      <trkpt lat="42.85665" lon="0.23357">
        <ele>2147.6</ele>
        <time>2022-02-09T10:05:27Z</time>
      </trkpt>
      <trkpt lat="42.85665" lon="0.23357">
        <ele>2147.8</ele>
        <time>2022-02-09T10:05:28Z</time>
      </trkpt>
      <trkpt lat="42.85666" lon="0.23356">
        <ele>2148</ele>
        <time>2022-02-09T10:05:29Z</time>
      </trkpt>
      <trkpt lat="42.85666" lon="0.23356">
        <ele>2148.2</ele>
        <time>2022-02-09T10:05:30Z</time>
      </trkpt>
      <trkpt lat="42.85667" lon="0.23356">
        <ele>2148.4</ele>
        <time>2022-02-09T10:05:31Z</time>
      </trkpt>
      <trkpt lat="42.85667" lon="0.23355">
        <ele>2148.7</ele>
        <time>2022-02-09T10:05:32Z</time>
      </trkpt>
      <trkpt lat="42.85668" lon="0.23355">
        <ele>2148.9</ele>
        <time>2022-02-09T10:05:33Z</time>
      </trkpt>
      <trkpt lat="42.85669" lon="0.23355">
        <ele>2149</ele>
        <time>2022-02-09T10:05:34Z</time>
      </trkpt>
      <trkpt lat="42.85669" lon="0.23355">
        <ele>2149.2</ele>
        <time>2022-02-09T10:05:35Z</time>
      </trkpt>
      <trkpt lat="42.8567" lon="0.23354">
        <ele>2149.4</ele>
        <time>2022-02-09T10:05:36Z</time>
      </trkpt>
      <trkpt lat="42.8567" lon="0.23354">
        <ele>2149.6</ele>
        <time>2022-02-09T10:05:37Z</time>
      </trkpt>
      <trkpt lat="42.8567" lon="0.23353">
        <ele>2149.8</ele>
        <time>2022-02-09T10:05:38Z</time>
      </trkpt>
      <trkpt lat="42.85671" lon="0.23353">
        <ele>2150</ele>
        <time>2022-02-09T10:05:39Z</time>
      </trkpt>
      <trkpt lat="42.85671" lon="0.23352">
        <ele>2150.2</ele>
        <time>2022-02-09T10:05:40Z</time>
      </trkpt>
      <trkpt lat="42.85671" lon="0.23351">
        <ele>2150.4</ele>
        <time>2022-02-09T10:05:41Z</time>
      </trkpt>
      <trkpt lat="42.85671" lon="0.2335">
        <ele>2150.6</ele>
        <time>2022-02-09T10:05:42Z</time>
      </trkpt>
      <trkpt lat="42.85671" lon="0.23349">
        <ele>2150.8</ele>
        <time>2022-02-09T10:05:43Z</time>
      </trkpt>
      <trkpt lat="42.85671" lon="0.23348">
        <ele>2151</ele>
        <time>2022-02-09T10:05:44Z</time>
      </trkpt>
      <trkpt lat="42.85671" lon="0.23348">
        <ele>2151.1</ele>
        <time>2022-02-09T10:05:45Z</time>
      </trkpt>
      <trkpt lat="42.85671" lon="0.23347">
        <ele>2151.3</ele>
        <time>2022-02-09T10:05:46Z</time>
      </trkpt>
      <trkpt lat="42.85672" lon="0.23346">
        <ele>2151.5</ele>
        <time>2022-02-09T10:05:47Z</time>
      </trkpt>
      <trkpt lat="42.85672" lon="0.23345">
        <ele>2151.7</ele>
        <time>2022-02-09T10:05:48Z</time>
      </trkpt>
      <trkpt lat="42.85672" lon="0.23345">
        <ele>2151.8</ele>
        <time>2022-02-09T10:05:49Z</time>
      </trkpt>
      <trkpt lat="42.85673" lon="0.23344">
        <ele>2151.9</ele>
        <time>2022-02-09T10:05:50Z</time>
      </trkpt>
      <trkpt lat="42.85673" lon="0.23343">
        <ele>2152.1</ele>
        <time>2022-02-09T10:05:51Z</time>
      </trkpt>
      <trkpt lat="42.85673" lon="0.23343">
        <ele>2152.3</ele>
        <time>2022-02-09T10:05:52Z</time>
      </trkpt>
      <trkpt lat="42.85674" lon="0.23342">
        <ele>2152.4</ele>
        <time>2022-02-09T10:05:53Z</time>
      </trkpt>
      <trkpt lat="42.85674" lon="0.23341">
        <ele>2152.6</ele>
        <time>2022-02-09T10:05:54Z</time>
      </trkpt>
      <trkpt lat="42.85674" lon="0.23341">
        <ele>2152.8</ele>
        <time>2022-02-09T10:05:55Z</time>
      </trkpt>
      <trkpt lat="42.85675" lon="0.2334">
        <ele>2152.9</ele>
        <time>2022-02-09T10:05:56Z</time>
      </trkpt>
      <trkpt lat="42.85675" lon="0.23339">
        <ele>2153.1</ele>
        <time>2022-02-09T10:05:57Z</time>
      </trkpt>
      <trkpt lat="42.85675" lon="0.23338">
        <ele>2153.2</ele>
        <time>2022-02-09T10:05:58Z</time>
      </trkpt>
      <trkpt lat="42.85675" lon="0.23338">
        <ele>2153.3</ele>
        <time>2022-02-09T10:05:59Z</time>
      </trkpt>
      <trkpt lat="42.85676" lon="0.23337">
        <ele>2153.5</ele>
        <time>2022-02-09T10:06:00Z</time>
      </trkpt>
      <trkpt lat="42.85676" lon="0.23336">
        <ele>2153.6</ele>
        <time>2022-02-09T10:06:01Z</time>
      </trkpt>
      <trkpt lat="42.85676" lon="0.23335">
        <ele>2153.8</ele>
        <time>2022-02-09T10:06:02Z</time>
      </trkpt>
      <trkpt lat="42.85676" lon="0.23334">
        <ele>2153.9</ele>
        <time>2022-02-09T10:06:03Z</time>
      </trkpt>
      <trkpt lat="42.85676" lon="0.23333">
        <ele>2154.1</ele>
        <time>2022-02-09T10:06:04Z</time>
      </trkpt>
      <trkpt lat="42.85677" lon="0.23333">
        <ele>2154.2</ele>
        <time>2022-02-09T10:06:05Z</time>
      </trkpt>
      <trkpt lat="42.85677" lon="0.23332">
        <ele>2154.3</ele>
        <time>2022-02-09T10:06:06Z</time>
      </trkpt>
      <trkpt lat="42.85677" lon="0.23331">
        <ele>2154.5</ele>
        <time>2022-02-09T10:06:07Z</time>
      </trkpt>
      <trkpt lat="42.85678" lon="0.2333">
        <ele>2154.6</ele>
        <time>2022-02-09T10:06:08Z</time>
      </trkpt>
      <trkpt lat="42.85678" lon="0.23329">
        <ele>2154.7</ele>
        <time>2022-02-09T10:06:09Z</time>
      </trkpt>
      <trkpt lat="42.85678" lon="0.23329">
        <ele>2154.9</ele>
        <time>2022-02-09T10:06:10Z</time>
      </trkpt>
      <trkpt lat="42.85679" lon="0.23328">
        <ele>2155</ele>
        <time>2022-02-09T10:06:11Z</time>
      </trkpt>
      <trkpt lat="42.85679" lon="0.23327">
        <ele>2155.1</ele>
        <time>2022-02-09T10:06:12Z</time>
      </trkpt>
      <trkpt lat="42.85679" lon="0.23327">
        <ele>2155.2</ele>
        <time>2022-02-09T10:06:13Z</time>
      </trkpt>
      <trkpt lat="42.8568" lon="0.23326">
        <ele>2155.3</ele>
        <time>2022-02-09T10:06:14Z</time>
      </trkpt>
      <trkpt lat="42.8568" lon="0.23325">
        <ele>2155.4</ele>
        <time>2022-02-09T10:06:15Z</time>
      </trkpt>
      <trkpt lat="42.85681" lon="0.23325">
        <ele>2155.5</ele>
        <time>2022-02-09T10:06:16Z</time>
      </trkpt>
      <trkpt lat="42.85681" lon="0.23324">
        <ele>2155.6</ele>
        <time>2022-02-09T10:06:17Z</time>
      </trkpt>
      <trkpt lat="42.85681" lon="0.23324">
        <ele>2155.7</ele>
        <time>2022-02-09T10:06:18Z</time>
      </trkpt>
      <trkpt lat="42.85682" lon="0.23323">
        <ele>2155.8</ele>
        <time>2022-02-09T10:06:19Z</time>
      </trkpt>
      <trkpt lat="42.85683" lon="0.23322">
        <ele>2156</ele>
        <time>2022-02-09T10:06:20Z</time>
      </trkpt>
      <trkpt lat="42.85683" lon="0.23322">
        <ele>2156.1</ele>
        <time>2022-02-09T10:06:21Z</time>
      </trkpt>
      <trkpt lat="42.85683" lon="0.23321">
        <ele>2156.2</ele>
        <time>2022-02-09T10:06:22Z</time>
      </trkpt>
      <trkpt lat="42.85684" lon="0.2332">
        <ele>2156.3</ele>
        <time>2022-02-09T10:06:23Z</time>
      </trkpt>
      <trkpt lat="42.85684" lon="0.2332">
        <ele>2156.4</ele>
        <time>2022-02-09T10:06:24Z</time>
      </trkpt>
      <trkpt lat="42.85685" lon="0.23319">
        <ele>2156.5</ele>
        <time>2022-02-09T10:06:25Z</time>
      </trkpt>
      <trkpt lat="42.85685" lon="0.23318">
        <ele>2156.7</ele>
        <time>2022-02-09T10:06:26Z</time>
      </trkpt>
      <trkpt lat="42.85685" lon="0.23317">
        <ele>2156.8</ele>
        <time>2022-02-09T10:06:27Z</time>
      </trkpt>
      <trkpt lat="42.85684" lon="0.23316">
        <ele>2156.9</ele>
        <time>2022-02-09T10:06:28Z</time>
      </trkpt>
      <trkpt lat="42.85684" lon="0.23315">
        <ele>2157</ele>
        <time>2022-02-09T10:06:29Z</time>
      </trkpt>
      <trkpt lat="42.85684" lon="0.23314">
        <ele>2157.1</ele>
        <time>2022-02-09T10:06:30Z</time>
      </trkpt>
      <trkpt lat="42.85684" lon="0.23313">
        <ele>2157.3</ele>
        <time>2022-02-09T10:06:31Z</time>
      </trkpt>
      <trkpt lat="42.85684" lon="0.23312">
        <ele>2157.4</ele>
        <time>2022-02-09T10:06:32Z</time>
      </trkpt>
      <trkpt lat="42.85684" lon="0.23311">
        <ele>2157.5</ele>
        <time>2022-02-09T10:06:33Z</time>
      </trkpt>
      <trkpt lat="42.85685" lon="0.2331">
        <ele>2157.7</ele>
        <time>2022-02-09T10:06:34Z</time>
      </trkpt>
      <trkpt lat="42.85685" lon="0.23309">
        <ele>2157.8</ele>
        <time>2022-02-09T10:06:35Z</time>
      </trkpt>
      <trkpt lat="42.85685" lon="0.23308">
        <ele>2158</ele>
        <time>2022-02-09T10:06:36Z</time>
      </trkpt>
      <trkpt lat="42.85685" lon="0.23307">
        <ele>2158.1</ele>
        <time>2022-02-09T10:06:37Z</time>
      </trkpt>
      <trkpt lat="42.85686" lon="0.23307">
        <ele>2158.3</ele>
        <time>2022-02-09T10:06:38Z</time>
      </trkpt>
      <trkpt lat="42.85686" lon="0.23306">
        <ele>2158.4</ele>
        <time>2022-02-09T10:06:39Z</time>
      </trkpt>
      <trkpt lat="42.85686" lon="0.23305">
        <ele>2158.6</ele>
        <time>2022-02-09T10:06:40Z</time>
      </trkpt>
      <trkpt lat="42.85687" lon="0.23304">
        <ele>2158.7</ele>
        <time>2022-02-09T10:06:41Z</time>
      </trkpt>
      <trkpt lat="42.85687" lon="0.23303">
        <ele>2158.8</ele>
        <time>2022-02-09T10:06:42Z</time>
      </trkpt>
      <trkpt lat="42.85687" lon="0.23302">
        <ele>2159</ele>
        <time>2022-02-09T10:06:43Z</time>
      </trkpt>
      <trkpt lat="42.85687" lon="0.23301">
        <ele>2159.2</ele>
        <time>2022-02-09T10:06:44Z</time>
      </trkpt>
      <trkpt lat="42.85688" lon="0.233">
        <ele>2159.3</ele>
        <time>2022-02-09T10:06:45Z</time>
      </trkpt>
      <trkpt lat="42.85688" lon="0.23299">
        <ele>2159.5</ele>
        <time>2022-02-09T10:06:46Z</time>
      </trkpt>
      <trkpt lat="42.85688" lon="0.23298">
        <ele>2159.6</ele>
        <time>2022-02-09T10:06:47Z</time>
      </trkpt>
      <trkpt lat="42.85689" lon="0.23297">
        <ele>2159.7</ele>
        <time>2022-02-09T10:06:48Z</time>
      </trkpt>
      <trkpt lat="42.85689" lon="0.23296">
        <ele>2159.9</ele>
        <time>2022-02-09T10:06:49Z</time>
      </trkpt>
      <trkpt lat="42.85689" lon="0.23295">
        <ele>2160</ele>
        <time>2022-02-09T10:06:50Z</time>
      </trkpt>
      <trkpt lat="42.8569" lon="0.23295">
        <ele>2160.1</ele>
        <time>2022-02-09T10:06:51Z</time>
      </trkpt>
      <trkpt lat="42.8569" lon="0.23294">
        <ele>2160.2</ele>
        <time>2022-02-09T10:06:52Z</time>
      </trkpt>
      <trkpt lat="42.85691" lon="0.23293">
        <ele>2160.4</ele>
        <time>2022-02-09T10:06:53Z</time>
      </trkpt>
      <trkpt lat="42.85691" lon="0.23292">
        <ele>2160.5</ele>
        <time>2022-02-09T10:06:54Z</time>
      </trkpt>
      <trkpt lat="42.85691" lon="0.23291">
        <ele>2160.6</ele>
        <time>2022-02-09T10:06:55Z</time>
      </trkpt>
      <trkpt lat="42.85691" lon="0.2329">
        <ele>2160.8</ele>
        <time>2022-02-09T10:06:56Z</time>
      </trkpt>
      <trkpt lat="42.85691" lon="0.23289">
        <ele>2160.9</ele>
        <time>2022-02-09T10:06:57Z</time>
      </trkpt>
      <trkpt lat="42.85691" lon="0.23288">
        <ele>2161</ele>
        <time>2022-02-09T10:06:58Z</time>
      </trkpt>
      <trkpt lat="42.85692" lon="0.23287">
        <ele>2161.1</ele>
        <time>2022-02-09T10:06:59Z</time>
      </trkpt>
      <trkpt lat="42.85692" lon="0.23286">
        <ele>2161.2</ele>
        <time>2022-02-09T10:07:00Z</time>
      </trkpt>
      <trkpt lat="42.85692" lon="0.23285">
        <ele>2161.3</ele>
        <time>2022-02-09T10:07:01Z</time>
      </trkpt>
      <trkpt lat="42.85692" lon="0.23284">
        <ele>2161.4</ele>
        <time>2022-02-09T10:07:02Z</time>
      </trkpt>
      <trkpt lat="42.85693" lon="0.23283">
        <ele>2161.5</ele>
        <time>2022-02-09T10:07:03Z</time>
      </trkpt>
      <trkpt lat="42.85693" lon="0.23282">
        <ele>2161.7</ele>
        <time>2022-02-09T10:07:04Z</time>
      </trkpt>
      <trkpt lat="42.85693" lon="0.23281">
        <ele>2161.7</ele>
        <time>2022-02-09T10:07:05Z</time>
      </trkpt>
      <trkpt lat="42.85694" lon="0.2328">
        <ele>2161.8</ele>
        <time>2022-02-09T10:07:06Z</time>
      </trkpt>
      <trkpt lat="42.85694" lon="0.23279">
        <ele>2161.9</ele>
        <time>2022-02-09T10:07:07Z</time>
      </trkpt>
      <trkpt lat="42.85695" lon="0.23278">
        <ele>2162</ele>
        <time>2022-02-09T10:07:08Z</time>
      </trkpt>
      <trkpt lat="42.85695" lon="0.23278">
        <ele>2162.1</ele>
        <time>2022-02-09T10:07:09Z</time>
      </trkpt>
      <trkpt lat="42.85696" lon="0.23277">
        <ele>2162.1</ele>
        <time>2022-02-09T10:07:10Z</time>
      </trkpt>
      <trkpt lat="42.85696" lon="0.23277">
        <ele>2162.2</ele>
        <time>2022-02-09T10:07:11Z</time>
      </trkpt>
      <trkpt lat="42.85697" lon="0.23276">
        <ele>2162.2</ele>
        <time>2022-02-09T10:07:12Z</time>
      </trkpt>
      <trkpt lat="42.85698" lon="0.23275">
        <ele>2162.3</ele>
        <time>2022-02-09T10:07:13Z</time>
      </trkpt>
      <trkpt lat="42.85698" lon="0.23275">
        <ele>2162.4</ele>
        <time>2022-02-09T10:07:14Z</time>
      </trkpt>
      <trkpt lat="42.85699" lon="0.23274">
        <ele>2162.4</ele>
        <time>2022-02-09T10:07:15Z</time>
      </trkpt>
      <trkpt lat="42.85699" lon="0.23273">
        <ele>2162.5</ele>
        <time>2022-02-09T10:07:16Z</time>
      </trkpt>
      <trkpt lat="42.857" lon="0.23272">
        <ele>2162.6</ele>
        <time>2022-02-09T10:07:17Z</time>
      </trkpt>
      <trkpt lat="42.85701" lon="0.23271">
        <ele>2162.7</ele>
        <time>2022-02-09T10:07:18Z</time>
      </trkpt>
      <trkpt lat="42.85701" lon="0.2327">
        <ele>2162.7</ele>
        <time>2022-02-09T10:07:19Z</time>
      </trkpt>
      <trkpt lat="42.85702" lon="0.2327">
        <ele>2162.8</ele>
        <time>2022-02-09T10:07:20Z</time>
      </trkpt>
      <trkpt lat="42.85702" lon="0.23269">
        <ele>2162.9</ele>
        <time>2022-02-09T10:07:21Z</time>
      </trkpt>
      <trkpt lat="42.85703" lon="0.23268">
        <ele>2163</ele>
        <time>2022-02-09T10:07:22Z</time>
      </trkpt>
      <trkpt lat="42.85703" lon="0.23268">
        <ele>2163.1</ele>
        <time>2022-02-09T10:07:23Z</time>
      </trkpt>
      <trkpt lat="42.85704" lon="0.23267">
        <ele>2163.2</ele>
        <time>2022-02-09T10:07:24Z</time>
      </trkpt>
      <trkpt lat="42.85704" lon="0.23266">
        <ele>2163.2</ele>
        <time>2022-02-09T10:07:25Z</time>
      </trkpt>
      <trkpt lat="42.85705" lon="0.23265">
        <ele>2163.4</ele>
        <time>2022-02-09T10:07:26Z</time>
      </trkpt>
      <trkpt lat="42.85705" lon="0.23264">
        <ele>2163.5</ele>
        <time>2022-02-09T10:07:27Z</time>
      </trkpt>
      <trkpt lat="42.85706" lon="0.23263">
        <ele>2163.6</ele>
        <time>2022-02-09T10:07:28Z</time>
      </trkpt>
      <trkpt lat="42.85707" lon="0.23263">
        <ele>2163.8</ele>
        <time>2022-02-09T10:07:29Z</time>
      </trkpt>
      <trkpt lat="42.85707" lon="0.23262">
        <ele>2163.9</ele>
        <time>2022-02-09T10:07:30Z</time>
      </trkpt>
      <trkpt lat="42.85708" lon="0.23261">
        <ele>2164.1</ele>
        <time>2022-02-09T10:07:31Z</time>
      </trkpt>
      <trkpt lat="42.85708" lon="0.23259">
        <ele>2164.3</ele>
        <time>2022-02-09T10:07:32Z</time>
      </trkpt>
      <trkpt lat="42.85708" lon="0.23258">
        <ele>2164.4</ele>
        <time>2022-02-09T10:07:33Z</time>
      </trkpt>
      <trkpt lat="42.85709" lon="0.23258">
        <ele>2164.6</ele>
        <time>2022-02-09T10:07:34Z</time>
      </trkpt>
      <trkpt lat="42.85709" lon="0.23257">
        <ele>2164.7</ele>
        <time>2022-02-09T10:07:35Z</time>
      </trkpt>
      <trkpt lat="42.8571" lon="0.23256">
        <ele>2165</ele>
        <time>2022-02-09T10:07:36Z</time>
      </trkpt>
      <trkpt lat="42.8571" lon="0.23255">
        <ele>2165.2</ele>
        <time>2022-02-09T10:07:37Z</time>
      </trkpt>
      <trkpt lat="42.85711" lon="0.23254">
        <ele>2165.3</ele>
        <time>2022-02-09T10:07:38Z</time>
      </trkpt>
      <trkpt lat="42.85711" lon="0.23253">
        <ele>2165.5</ele>
        <time>2022-02-09T10:07:39Z</time>
      </trkpt>
      <trkpt lat="42.85711" lon="0.23252">
        <ele>2165.7</ele>
        <time>2022-02-09T10:07:40Z</time>
      </trkpt>
      <trkpt lat="42.85711" lon="0.23251">
        <ele>2165.9</ele>
        <time>2022-02-09T10:07:41Z</time>
      </trkpt>
      <trkpt lat="42.85712" lon="0.2325">
        <ele>2166.1</ele>
        <time>2022-02-09T10:07:42Z</time>
      </trkpt>
      <trkpt lat="42.85712" lon="0.23249">
        <ele>2166.3</ele>
        <time>2022-02-09T10:07:43Z</time>
      </trkpt>
      <trkpt lat="42.85712" lon="0.23248">
        <ele>2166.5</ele>
        <time>2022-02-09T10:07:44Z</time>
      </trkpt>
      <trkpt lat="42.85712" lon="0.23247">
        <ele>2166.7</ele>
        <time>2022-02-09T10:07:45Z</time>
      </trkpt>
      <trkpt lat="42.85712" lon="0.23245">
        <ele>2166.9</ele>
        <time>2022-02-09T10:07:46Z</time>
      </trkpt>
      <trkpt lat="42.85713" lon="0.23244">
        <ele>2167</ele>
        <time>2022-02-09T10:07:47Z</time>
      </trkpt>
      <trkpt lat="42.85713" lon="0.23243">
        <ele>2167.2</ele>
        <time>2022-02-09T10:07:48Z</time>
      </trkpt>
      <trkpt lat="42.85713" lon="0.23242">
        <ele>2167.4</ele>
        <time>2022-02-09T10:07:49Z</time>
      </trkpt>
      <trkpt lat="42.85713" lon="0.23241">
        <ele>2167.5</ele>
        <time>2022-02-09T10:07:50Z</time>
      </trkpt>
      <trkpt lat="42.85714" lon="0.2324">
        <ele>2167.6</ele>
        <time>2022-02-09T10:07:51Z</time>
      </trkpt>
      <trkpt lat="42.85714" lon="0.23239">
        <ele>2167.8</ele>
        <time>2022-02-09T10:07:52Z</time>
      </trkpt>
      <trkpt lat="42.85714" lon="0.23238">
        <ele>2167.9</ele>
        <time>2022-02-09T10:07:53Z</time>
      </trkpt>
      <trkpt lat="42.85715" lon="0.23237">
        <ele>2168</ele>
        <time>2022-02-09T10:07:54Z</time>
      </trkpt>
      <trkpt lat="42.85715" lon="0.23236">
        <ele>2168.1</ele>
        <time>2022-02-09T10:07:55Z</time>
      </trkpt>
      <trkpt lat="42.85715" lon="0.23235">
        <ele>2168.2</ele>
        <time>2022-02-09T10:07:56Z</time>
      </trkpt>
      <trkpt lat="42.85715" lon="0.23233">
        <ele>2168.3</ele>
        <time>2022-02-09T10:07:57Z</time>
      </trkpt>
      <trkpt lat="42.85716" lon="0.23232">
        <ele>2168.4</ele>
        <time>2022-02-09T10:07:58Z</time>
      </trkpt>
      <trkpt lat="42.85716" lon="0.23231">
        <ele>2168.5</ele>
        <time>2022-02-09T10:07:59Z</time>
      </trkpt>
      <trkpt lat="42.85716" lon="0.2323">
        <ele>2168.5</ele>
        <time>2022-02-09T10:08:00Z</time>
      </trkpt>
      <trkpt lat="42.85716" lon="0.23229">
        <ele>2168.6</ele>
        <time>2022-02-09T10:08:01Z</time>
      </trkpt>
      <trkpt lat="42.85717" lon="0.23228">
        <ele>2168.6</ele>
        <time>2022-02-09T10:08:02Z</time>
      </trkpt>
      <trkpt lat="42.85717" lon="0.23227">
        <ele>2168.7</ele>
        <time>2022-02-09T10:08:03Z</time>
      </trkpt>
      <trkpt lat="42.85718" lon="0.23226">
        <ele>2168.7</ele>
        <time>2022-02-09T10:08:04Z</time>
      </trkpt>
      <trkpt lat="42.85718" lon="0.23225">
        <ele>2168.8</ele>
        <time>2022-02-09T10:08:05Z</time>
      </trkpt>
      <trkpt lat="42.85718" lon="0.23224">
        <ele>2168.8</ele>
        <time>2022-02-09T10:08:06Z</time>
      </trkpt>
      <trkpt lat="42.85719" lon="0.23224">
        <ele>2168.8</ele>
        <time>2022-02-09T10:08:07Z</time>
      </trkpt>
      <trkpt lat="42.85719" lon="0.23223">
        <ele>2168.8</ele>
        <time>2022-02-09T10:08:08Z</time>
      </trkpt>
      <trkpt lat="42.8572" lon="0.23223">
        <ele>2168.8</ele>
        <time>2022-02-09T10:08:09Z</time>
      </trkpt>
      <trkpt lat="42.85721" lon="0.23222">
        <ele>2168.9</ele>
        <time>2022-02-09T10:08:10Z</time>
      </trkpt>
      <trkpt lat="42.85722" lon="0.23221">
        <ele>2168.9</ele>
        <time>2022-02-09T10:08:11Z</time>
      </trkpt>
      <trkpt lat="42.85722" lon="0.2322">
        <ele>2168.9</ele>
        <time>2022-02-09T10:08:12Z</time>
      </trkpt>
      <trkpt lat="42.85723" lon="0.23219">
        <ele>2168.9</ele>
        <time>2022-02-09T10:08:13Z</time>
      </trkpt>
      <trkpt lat="42.85723" lon="0.23218">
        <ele>2169</ele>
        <time>2022-02-09T10:08:14Z</time>
      </trkpt>
      <trkpt lat="42.85724" lon="0.23217">
        <ele>2169</ele>
        <time>2022-02-09T10:08:15Z</time>
      </trkpt>
      <trkpt lat="42.85725" lon="0.23216">
        <ele>2169</ele>
        <time>2022-02-09T10:08:16Z</time>
      </trkpt>
      <trkpt lat="42.85725" lon="0.23215">
        <ele>2169</ele>
        <time>2022-02-09T10:08:17Z</time>
      </trkpt>
      <trkpt lat="42.85726" lon="0.23214">
        <ele>2169.1</ele>
        <time>2022-02-09T10:08:18Z</time>
      </trkpt>
      <trkpt lat="42.85727" lon="0.23213">
        <ele>2169.1</ele>
        <time>2022-02-09T10:08:19Z</time>
      </trkpt>
      <trkpt lat="42.85727" lon="0.23212">
        <ele>2169.1</ele>
        <time>2022-02-09T10:08:20Z</time>
      </trkpt>
      <trkpt lat="42.85728" lon="0.23211">
        <ele>2169.2</ele>
        <time>2022-02-09T10:08:21Z</time>
      </trkpt>
      <trkpt lat="42.85728" lon="0.2321">
        <ele>2169.2</ele>
        <time>2022-02-09T10:08:22Z</time>
      </trkpt>
      <trkpt lat="42.85729" lon="0.23208">
        <ele>2169.3</ele>
        <time>2022-02-09T10:08:23Z</time>
      </trkpt>
      <trkpt lat="42.85729" lon="0.23207">
        <ele>2169.3</ele>
        <time>2022-02-09T10:08:24Z</time>
      </trkpt>
      <trkpt lat="42.8573" lon="0.23207">
        <ele>2169.4</ele>
        <time>2022-02-09T10:08:25Z</time>
      </trkpt>
      <trkpt lat="42.85731" lon="0.23206">
        <ele>2169.5</ele>
        <time>2022-02-09T10:08:26Z</time>
      </trkpt>
      <trkpt lat="42.85731" lon="0.23205">
        <ele>2169.5</ele>
        <time>2022-02-09T10:08:27Z</time>
      </trkpt>
      <trkpt lat="42.85732" lon="0.23204">
        <ele>2169.6</ele>
        <time>2022-02-09T10:08:28Z</time>
      </trkpt>
      <trkpt lat="42.85732" lon="0.23204">
        <ele>2169.6</ele>
        <time>2022-02-09T10:08:29Z</time>
      </trkpt>
      <trkpt lat="42.85733" lon="0.23203">
        <ele>2169.7</ele>
        <time>2022-02-09T10:08:30Z</time>
      </trkpt>
      <trkpt lat="42.85733" lon="0.23203">
        <ele>2169.7</ele>
        <time>2022-02-09T10:08:31Z</time>
      </trkpt>
      <trkpt lat="42.85734" lon="0.23202">
        <ele>2169.8</ele>
        <time>2022-02-09T10:08:32Z</time>
      </trkpt>
      <trkpt lat="42.85734" lon="0.23202">
        <ele>2169.9</ele>
        <time>2022-02-09T10:08:33Z</time>
      </trkpt>
      <trkpt lat="42.85735" lon="0.23201">
        <ele>2170</ele>
        <time>2022-02-09T10:08:34Z</time>
      </trkpt>
      <trkpt lat="42.85736" lon="0.232">
        <ele>2170.1</ele>
        <time>2022-02-09T10:08:35Z</time>
      </trkpt>
      <trkpt lat="42.85736" lon="0.232">
        <ele>2170.2</ele>
        <time>2022-02-09T10:08:36Z</time>
      </trkpt>
      <trkpt lat="42.85737" lon="0.23199">
        <ele>2170.3</ele>
        <time>2022-02-09T10:08:37Z</time>
      </trkpt>
      <trkpt lat="42.85737" lon="0.23199">
        <ele>2170.4</ele>
        <time>2022-02-09T10:08:38Z</time>
      </trkpt>
      <trkpt lat="42.85738" lon="0.23198">
        <ele>2170.5</ele>
        <time>2022-02-09T10:08:39Z</time>
      </trkpt>
      <trkpt lat="42.85739" lon="0.23198">
        <ele>2170.6</ele>
        <time>2022-02-09T10:08:40Z</time>
      </trkpt>
      <trkpt lat="42.85739" lon="0.23198">
        <ele>2170.7</ele>
        <time>2022-02-09T10:08:41Z</time>
      </trkpt>
      <trkpt lat="42.8574" lon="0.23197">
        <ele>2170.8</ele>
        <time>2022-02-09T10:08:42Z</time>
      </trkpt>
      <trkpt lat="42.8574" lon="0.23197">
        <ele>2170.9</ele>
        <time>2022-02-09T10:08:43Z</time>
      </trkpt>
      <trkpt lat="42.85741" lon="0.23197">
        <ele>2171</ele>
        <time>2022-02-09T10:08:44Z</time>
      </trkpt>
      <trkpt lat="42.85742" lon="0.23196">
        <ele>2171.2</ele>
        <time>2022-02-09T10:08:45Z</time>
      </trkpt>
      <trkpt lat="42.85743" lon="0.23195">
        <ele>2171.3</ele>
        <time>2022-02-09T10:08:46Z</time>
      </trkpt>
      <trkpt lat="42.85744" lon="0.23195">
        <ele>2171.5</ele>
        <time>2022-02-09T10:08:47Z</time>
      </trkpt>
      <trkpt lat="42.85745" lon="0.23194">
        <ele>2171.7</ele>
        <time>2022-02-09T10:08:48Z</time>
      </trkpt>
      <trkpt lat="42.85745" lon="0.23192">
        <ele>2171.9</ele>
        <time>2022-02-09T10:08:49Z</time>
      </trkpt>
      <trkpt lat="42.85745" lon="0.2319">
        <ele>2172.1</ele>
        <time>2022-02-09T10:08:50Z</time>
      </trkpt>
      <trkpt lat="42.85746" lon="0.23189">
        <ele>2172.3</ele>
        <time>2022-02-09T10:08:51Z</time>
      </trkpt>
      <trkpt lat="42.85746" lon="0.23188">
        <ele>2172.4</ele>
        <time>2022-02-09T10:08:52Z</time>
      </trkpt>
      <trkpt lat="42.85747" lon="0.23186">
        <ele>2172.6</ele>
        <time>2022-02-09T10:08:53Z</time>
      </trkpt>
      <trkpt lat="42.85747" lon="0.23185">
        <ele>2172.8</ele>
        <time>2022-02-09T10:08:54Z</time>
      </trkpt>
      <trkpt lat="42.85748" lon="0.23184">
        <ele>2172.9</ele>
        <time>2022-02-09T10:08:55Z</time>
      </trkpt>
      <trkpt lat="42.85748" lon="0.23183">
        <ele>2173</ele>
        <time>2022-02-09T10:08:56Z</time>
      </trkpt>
      <trkpt lat="42.85749" lon="0.23181">
        <ele>2173.2</ele>
        <time>2022-02-09T10:08:57Z</time>
      </trkpt>
      <trkpt lat="42.85749" lon="0.2318">
        <ele>2173.3</ele>
        <time>2022-02-09T10:08:58Z</time>
      </trkpt>
      <trkpt lat="42.8575" lon="0.23179">
        <ele>2173.4</ele>
        <time>2022-02-09T10:08:59Z</time>
      </trkpt>
      <trkpt lat="42.85751" lon="0.23178">
        <ele>2173.5</ele>
        <time>2022-02-09T10:09:00Z</time>
      </trkpt>
      <trkpt lat="42.85751" lon="0.23176">
        <ele>2173.7</ele>
        <time>2022-02-09T10:09:01Z</time>
      </trkpt>
      <trkpt lat="42.85752" lon="0.23174">
        <ele>2173.9</ele>
        <time>2022-02-09T10:09:02Z</time>
      </trkpt>
      <trkpt lat="42.85752" lon="0.23173">
        <ele>2174</ele>
        <time>2022-02-09T10:09:03Z</time>
      </trkpt>
      <trkpt lat="42.85753" lon="0.23172">
        <ele>2174.1</ele>
        <time>2022-02-09T10:09:04Z</time>
      </trkpt>
      <trkpt lat="42.85753" lon="0.23171">
        <ele>2174.1</ele>
        <time>2022-02-09T10:09:05Z</time>
      </trkpt>
      <trkpt lat="42.85754" lon="0.23171">
        <ele>2174.2</ele>
        <time>2022-02-09T10:09:06Z</time>
      </trkpt>
      <trkpt lat="42.85754" lon="0.2317">
        <ele>2174.3</ele>
        <time>2022-02-09T10:09:07Z</time>
      </trkpt>
      <trkpt lat="42.85754" lon="0.23169">
        <ele>2174.3</ele>
        <time>2022-02-09T10:09:08Z</time>
      </trkpt>
      <trkpt lat="42.85755" lon="0.23168">
        <ele>2174.4</ele>
        <time>2022-02-09T10:09:09Z</time>
      </trkpt>
      <trkpt lat="42.85756" lon="0.23168">
        <ele>2174.5</ele>
        <time>2022-02-09T10:09:10Z</time>
      </trkpt>
      <trkpt lat="42.85756" lon="0.23167">
        <ele>2174.5</ele>
        <time>2022-02-09T10:09:11Z</time>
      </trkpt>
      <trkpt lat="42.85757" lon="0.23166">
        <ele>2174.6</ele>
        <time>2022-02-09T10:09:12Z</time>
      </trkpt>
      <trkpt lat="42.85757" lon="0.23165">
        <ele>2174.7</ele>
        <time>2022-02-09T10:09:13Z</time>
      </trkpt>
      <trkpt lat="42.85758" lon="0.23165">
        <ele>2174.7</ele>
        <time>2022-02-09T10:09:14Z</time>
      </trkpt>
      <trkpt lat="42.85758" lon="0.23164">
        <ele>2174.8</ele>
        <time>2022-02-09T10:09:15Z</time>
      </trkpt>
      <trkpt lat="42.85759" lon="0.23164">
        <ele>2174.9</ele>
        <time>2022-02-09T10:09:16Z</time>
      </trkpt>
      <trkpt lat="42.8576" lon="0.23163">
        <ele>2174.9</ele>
        <time>2022-02-09T10:09:17Z</time>
      </trkpt>
      <trkpt lat="42.8576" lon="0.23163">
        <ele>2175</ele>
        <time>2022-02-09T10:09:18Z</time>
      </trkpt>
      <trkpt lat="42.85761" lon="0.23162">
        <ele>2175.1</ele>
        <time>2022-02-09T10:09:19Z</time>
      </trkpt>
      <trkpt lat="42.85761" lon="0.23161">
        <ele>2175.1</ele>
        <time>2022-02-09T10:09:20Z</time>
      </trkpt>
      <trkpt lat="42.85762" lon="0.2316">
        <ele>2175.2</ele>
        <time>2022-02-09T10:09:21Z</time>
      </trkpt>
      <trkpt lat="42.85762" lon="0.2316">
        <ele>2175.3</ele>
        <time>2022-02-09T10:09:22Z</time>
      </trkpt>
      <trkpt lat="42.85763" lon="0.23159">
        <ele>2175.4</ele>
        <time>2022-02-09T10:09:23Z</time>
      </trkpt>
      <trkpt lat="42.85764" lon="0.23159">
        <ele>2175.5</ele>
        <time>2022-02-09T10:09:24Z</time>
      </trkpt>
      <trkpt lat="42.85765" lon="0.23158">
        <ele>2175.5</ele>
        <time>2022-02-09T10:09:25Z</time>
      </trkpt>
      <trkpt lat="42.85765" lon="0.23157">
        <ele>2175.6</ele>
        <time>2022-02-09T10:09:26Z</time>
      </trkpt>
      <trkpt lat="42.85766" lon="0.23156">
        <ele>2175.7</ele>
        <time>2022-02-09T10:09:27Z</time>
      </trkpt>
      <trkpt lat="42.85767" lon="0.23156">
        <ele>2175.8</ele>
        <time>2022-02-09T10:09:28Z</time>
      </trkpt>
      <trkpt lat="42.85768" lon="0.23155">
        <ele>2175.9</ele>
        <time>2022-02-09T10:09:29Z</time>
      </trkpt>
      <trkpt lat="42.85768" lon="0.23154">
        <ele>2176</ele>
        <time>2022-02-09T10:09:30Z</time>
      </trkpt>
      <trkpt lat="42.85769" lon="0.23153">
        <ele>2176.1</ele>
        <time>2022-02-09T10:09:31Z</time>
      </trkpt>
      <trkpt lat="42.8577" lon="0.23153">
        <ele>2176.2</ele>
        <time>2022-02-09T10:09:32Z</time>
      </trkpt>
      <trkpt lat="42.8577" lon="0.23152">
        <ele>2176.2</ele>
        <time>2022-02-09T10:09:33Z</time>
      </trkpt>
      <trkpt lat="42.85771" lon="0.23151">
        <ele>2176.4</ele>
        <time>2022-02-09T10:09:34Z</time>
      </trkpt>
      <trkpt lat="42.85772" lon="0.2315">
        <ele>2176.4</ele>
        <time>2022-02-09T10:09:35Z</time>
      </trkpt>
      <trkpt lat="42.85772" lon="0.23149">
        <ele>2176.5</ele>
        <time>2022-02-09T10:09:36Z</time>
      </trkpt>
      <trkpt lat="42.85773" lon="0.23148">
        <ele>2176.6</ele>
        <time>2022-02-09T10:09:37Z</time>
      </trkpt>
      <trkpt lat="42.85773" lon="0.23148">
        <ele>2176.7</ele>
        <time>2022-02-09T10:09:38Z</time>
      </trkpt>
      <trkpt lat="42.85774" lon="0.23147">
        <ele>2176.7</ele>
        <time>2022-02-09T10:09:39Z</time>
      </trkpt>
      <trkpt lat="42.85775" lon="0.23146">
        <ele>2176.8</ele>
        <time>2022-02-09T10:09:40Z</time>
      </trkpt>
      <trkpt lat="42.85775" lon="0.23146">
        <ele>2176.9</ele>
        <time>2022-02-09T10:09:41Z</time>
      </trkpt>
      <trkpt lat="42.85776" lon="0.23145">
        <ele>2177</ele>
        <time>2022-02-09T10:09:42Z</time>
      </trkpt>
      <trkpt lat="42.85777" lon="0.23144">
        <ele>2177.1</ele>
        <time>2022-02-09T10:09:43Z</time>
      </trkpt>
      <trkpt lat="42.85777" lon="0.23143">
        <ele>2177.1</ele>
        <time>2022-02-09T10:09:44Z</time>
      </trkpt>
      <trkpt lat="42.85778" lon="0.23142">
        <ele>2177.2</ele>
        <time>2022-02-09T10:09:45Z</time>
      </trkpt>
      <trkpt lat="42.85778" lon="0.23141">
        <ele>2177.3</ele>
        <time>2022-02-09T10:09:46Z</time>
      </trkpt>
      <trkpt lat="42.85779" lon="0.23141">
        <ele>2177.4</ele>
        <time>2022-02-09T10:09:47Z</time>
      </trkpt>
      <trkpt lat="42.8578" lon="0.2314">
        <ele>2177.4</ele>
        <time>2022-02-09T10:09:48Z</time>
      </trkpt>
      <trkpt lat="42.8578" lon="0.23139">
        <ele>2177.5</ele>
        <time>2022-02-09T10:09:49Z</time>
      </trkpt>
      <trkpt lat="42.85781" lon="0.23139">
        <ele>2177.6</ele>
        <time>2022-02-09T10:09:50Z</time>
      </trkpt>
      <trkpt lat="42.85781" lon="0.23138">
        <ele>2177.6</ele>
        <time>2022-02-09T10:09:51Z</time>
      </trkpt>
      <trkpt lat="42.85782" lon="0.23137">
        <ele>2177.7</ele>
        <time>2022-02-09T10:09:52Z</time>
      </trkpt>
      <trkpt lat="42.85783" lon="0.23137">
        <ele>2177.8</ele>
        <time>2022-02-09T10:09:53Z</time>
      </trkpt>
      <trkpt lat="42.85783" lon="0.23136">
        <ele>2177.9</ele>
        <time>2022-02-09T10:09:54Z</time>
      </trkpt>
      <trkpt lat="42.85784" lon="0.23135">
        <ele>2177.9</ele>
        <time>2022-02-09T10:09:55Z</time>
      </trkpt>
      <trkpt lat="42.85784" lon="0.23135">
        <ele>2178</ele>
        <time>2022-02-09T10:09:56Z</time>
      </trkpt>
      <trkpt lat="42.85785" lon="0.23134">
        <ele>2178.1</ele>
        <time>2022-02-09T10:09:57Z</time>
      </trkpt>
      <trkpt lat="42.85785" lon="0.23134">
        <ele>2178.2</ele>
        <time>2022-02-09T10:09:58Z</time>
      </trkpt>
      <trkpt lat="42.85786" lon="0.23133">
        <ele>2178.2</ele>
        <time>2022-02-09T10:09:59Z</time>
      </trkpt>
      <trkpt lat="42.85786" lon="0.23132">
        <ele>2178.3</ele>
        <time>2022-02-09T10:10:00Z</time>
      </trkpt>
      <trkpt lat="42.85787" lon="0.23132">
        <ele>2178.4</ele>
        <time>2022-02-09T10:10:01Z</time>
      </trkpt>
      <trkpt lat="42.85787" lon="0.23131">
        <ele>2178.4</ele>
        <time>2022-02-09T10:10:02Z</time>
      </trkpt>
      <trkpt lat="42.85787" lon="0.23131">
        <ele>2178.5</ele>
        <time>2022-02-09T10:10:03Z</time>
      </trkpt>
      <trkpt lat="42.85787" lon="0.23131">
        <ele>2178.5</ele>
        <time>2022-02-09T10:10:04Z</time>
      </trkpt>
      <trkpt lat="42.85788" lon="0.23131">
        <ele>2178.5</ele>
        <time>2022-02-09T10:10:05Z</time>
      </trkpt>
      <trkpt lat="42.85788" lon="0.23131">
        <ele>2178.5</ele>
        <time>2022-02-09T10:10:06Z</time>
      </trkpt>
      <trkpt lat="42.85788" lon="0.23131">
        <ele>2178.5</ele>
        <time>2022-02-09T10:10:07Z</time>
      </trkpt>
      <trkpt lat="42.85788" lon="0.23131">
        <ele>2178.5</ele>
        <time>2022-02-09T10:10:08Z</time>
      </trkpt>
      <trkpt lat="42.85788" lon="0.23131">
        <ele>2178.5</ele>
        <time>2022-02-09T10:10:09Z</time>
      </trkpt>
      <trkpt lat="42.85788" lon="0.23131">
        <ele>2178.5</ele>
        <time>2022-02-09T10:10:10Z</time>
      </trkpt>
      <trkpt lat="42.85788" lon="0.23131">
        <ele>2178.5</ele>
        <time>2022-02-09T10:10:11Z</time>
      </trkpt>
      <trkpt lat="42.85788" lon="0.23131">
        <ele>2178.5</ele>
        <time>2022-02-09T10:10:12Z</time>
      </trkpt>
      <trkpt lat="42.85788" lon="0.23131">
        <ele>2178.5</ele>
        <time>2022-02-09T10:10:13Z</time>
      </trkpt>
      <trkpt lat="42.85788" lon="0.23131">
        <ele>2178.5</ele>
        <time>2022-02-09T10:10:14Z</time>
      </trkpt>
      <trkpt lat="42.85788" lon="0.23131">
        <ele>2178.5</ele>
        <time>2022-02-09T10:10:15Z</time>
      </trkpt>
      <trkpt lat="42.85788" lon="0.23131">
        <ele>2178.5</ele>
        <time>2022-02-09T10:10:16Z</time>
      </trkpt>
      <trkpt lat="42.85788" lon="0.23131">
        <ele>2178.5</ele>
        <time>2022-02-09T10:10:17Z</time>
      </trkpt>
      <trkpt lat="42.85788" lon="0.23131">
        <ele>2178.5</ele>
        <time>2022-02-09T10:10:18Z</time>
      </trkpt>
      <trkpt lat="42.85788" lon="0.23131">
        <ele>2178.5</ele>
        <time>2022-02-09T10:10:19Z</time>
      </trkpt>
      <trkpt lat="42.85788" lon="0.23131">
        <ele>2178.5</ele>
        <time>2022-02-09T10:10:20Z</time>
      </trkpt>
      <trkpt lat="42.85788" lon="0.23131">
        <ele>2178.5</ele>
        <time>2022-02-09T10:10:21Z</time>
      </trkpt>
      <trkpt lat="42.85788" lon="0.23131">
        <ele>2178.5</ele>
        <time>2022-02-09T10:10:22Z</time>
      </trkpt>
      <trkpt lat="42.85788" lon="0.23131">
        <ele>2178.5</ele>
        <time>2022-02-09T10:10:23Z</time>
      </trkpt>
      <trkpt lat="42.85788" lon="0.23131">
        <ele>2178.5</ele>
        <time>2022-02-09T10:10:24Z</time>
      </trkpt>
      <trkpt lat="42.85788" lon="0.23131">
        <ele>2178.5</ele>
        <time>2022-02-09T10:10:25Z</time>
      </trkpt>
      <trkpt lat="42.85788" lon="0.23131">
        <ele>2178.5</ele>
        <time>2022-02-09T10:10:26Z</time>
      </trkpt>
      <trkpt lat="42.85788" lon="0.23131">
        <ele>2178.5</ele>
        <time>2022-02-09T10:10:27Z</time>
      </trkpt>
      <trkpt lat="42.85788" lon="0.23131">
        <ele>2178.5</ele>
        <time>2022-02-09T10:10:28Z</time>
      </trkpt>
      <trkpt lat="42.85788" lon="0.23131">
        <ele>2178.5</ele>
        <time>2022-02-09T10:10:29Z</time>
      </trkpt>
      <trkpt lat="42.85788" lon="0.23131">
        <ele>2178.5</ele>
        <time>2022-02-09T10:10:30Z</time>
      </trkpt>
      <trkpt lat="42.85788" lon="0.23131">
        <ele>2178.5</ele>
        <time>2022-02-09T10:10:31Z</time>
      </trkpt>
      <trkpt lat="42.85788" lon="0.23131">
        <ele>2178.5</ele>
        <time>2022-02-09T10:10:32Z</time>
      </trkpt>
      <trkpt lat="42.85788" lon="0.23131">
        <ele>2178.5</ele>
        <time>2022-02-09T10:10:33Z</time>
      </trkpt>
      <trkpt lat="42.85788" lon="0.23131">
        <ele>2178.5</ele>
        <time>2022-02-09T10:10:34Z</time>
      </trkpt>
      <trkpt lat="42.85788" lon="0.23131">
        <ele>2178.5</ele>
        <time>2022-02-09T10:10:35Z</time>
      </trkpt>
      <trkpt lat="42.85788" lon="0.23131">
        <ele>2178.5</ele>
        <time>2022-02-09T10:10:36Z</time>
      </trkpt>
      <trkpt lat="42.85788" lon="0.23131">
        <ele>2178.5</ele>
        <time>2022-02-09T10:10:37Z</time>
      </trkpt>
      <trkpt lat="42.85788" lon="0.23131">
        <ele>2178.5</ele>
        <time>2022-02-09T10:10:38Z</time>
      </trkpt>
      <trkpt lat="42.85788" lon="0.23131">
        <ele>2178.5</ele>
        <time>2022-02-09T10:10:39Z</time>
      </trkpt>
      <trkpt lat="42.85788" lon="0.23131">
        <ele>2178.5</ele>
        <time>2022-02-09T10:10:40Z</time>
      </trkpt>
      <trkpt lat="42.85788" lon="0.23131">
        <ele>2178.5</ele>
        <time>2022-02-09T10:10:41Z</time>
      </trkpt>
      <trkpt lat="42.85788" lon="0.23131">
        <ele>2178.5</ele>
        <time>2022-02-09T10:10:42Z</time>
      </trkpt>
      <trkpt lat="42.85788" lon="0.23131">
        <ele>2178.5</ele>
        <time>2022-02-09T10:10:43Z</time>
      </trkpt>
      <trkpt lat="42.85788" lon="0.23131">
        <ele>2178.5</ele>
        <time>2022-02-09T10:10:44Z</time>
      </trkpt>
      <trkpt lat="42.85788" lon="0.23131">
        <ele>2178.5</ele>
        <time>2022-02-09T10:10:45Z</time>
      </trkpt>
      <trkpt lat="42.85788" lon="0.23131">
        <ele>2178.5</ele>
        <time>2022-02-09T10:10:46Z</time>
      </trkpt>
      <trkpt lat="42.85788" lon="0.23131">
        <ele>2178.5</ele>
        <time>2022-02-09T10:10:47Z</time>
      </trkpt>
      <trkpt lat="42.85788" lon="0.23131">
        <ele>2178.5</ele>
        <time>2022-02-09T10:10:48Z</time>
      </trkpt>
      <trkpt lat="42.85788" lon="0.23131">
        <ele>2178.5</ele>
        <time>2022-02-09T10:10:49Z</time>
      </trkpt>
      <trkpt lat="42.85788" lon="0.23131">
        <ele>2178.5</ele>
        <time>2022-02-09T10:10:50Z</time>
      </trkpt>
      <trkpt lat="42.85788" lon="0.23131">
        <ele>2178.5</ele>
        <time>2022-02-09T10:10:51Z</time>
      </trkpt>
      <trkpt lat="42.85788" lon="0.23131">
        <ele>2178.5</ele>
        <time>2022-02-09T10:10:52Z</time>
      </trkpt>
      <trkpt lat="42.85788" lon="0.23131">
        <ele>2178.5</ele>
        <time>2022-02-09T10:10:53Z</time>
      </trkpt>
      <trkpt lat="42.85788" lon="0.23131">
        <ele>2178.5</ele>
        <time>2022-02-09T10:10:54Z</time>
      </trkpt>
      <trkpt lat="42.85788" lon="0.23131">
        <ele>2178.5</ele>
        <time>2022-02-09T10:10:55Z</time>
      </trkpt>
      <trkpt lat="42.85788" lon="0.23131">
        <ele>2178.5</ele>
        <time>2022-02-09T10:10:56Z</time>
      </trkpt>
      <trkpt lat="42.85788" lon="0.23131">
        <ele>2178.5</ele>
        <time>2022-02-09T10:10:57Z</time>
      </trkpt>
      <trkpt lat="42.85788" lon="0.23131">
        <ele>2178.5</ele>
        <time>2022-02-09T10:10:58Z</time>
      </trkpt>
      <trkpt lat="42.85788" lon="0.23131">
        <ele>2178.5</ele>
        <time>2022-02-09T10:10:59Z</time>
      </trkpt>
      <trkpt lat="42.85788" lon="0.23131">
        <ele>2178.5</ele>
        <time>2022-02-09T10:11:00Z</time>
      </trkpt>
      <trkpt lat="42.85788" lon="0.23131">
        <ele>2178.5</ele>
        <time>2022-02-09T10:11:01Z</time>
      </trkpt>
      <trkpt lat="42.85788" lon="0.23131">
        <ele>2178.5</ele>
        <time>2022-02-09T10:11:02Z</time>
      </trkpt>
      <trkpt lat="42.85788" lon="0.23131">
        <ele>2178.5</ele>
        <time>2022-02-09T10:11:03Z</time>
      </trkpt>
      <trkpt lat="42.85788" lon="0.23131">
        <ele>2178.5</ele>
        <time>2022-02-09T10:11:04Z</time>
      </trkpt>
      <trkpt lat="42.85788" lon="0.23131">
        <ele>2178.5</ele>
        <time>2022-02-09T10:11:05Z</time>
      </trkpt>
      <trkpt lat="42.85788" lon="0.23131">
        <ele>2178.5</ele>
        <time>2022-02-09T10:11:06Z</time>
      </trkpt>
      <trkpt lat="42.85788" lon="0.23131">
        <ele>2178.5</ele>
        <time>2022-02-09T10:11:07Z</time>
      </trkpt>
      <trkpt lat="42.85788" lon="0.23131">
        <ele>2178.5</ele>
        <time>2022-02-09T10:11:08Z</time>
      </trkpt>
      <trkpt lat="42.85788" lon="0.23131">
        <ele>2178.5</ele>
        <time>2022-02-09T10:11:09Z</time>
      </trkpt>
      <trkpt lat="42.85788" lon="0.23131">
        <ele>2178.5</ele>
        <time>2022-02-09T10:11:10Z</time>
      </trkpt>
      <trkpt lat="42.85788" lon="0.23131">
        <ele>2178.5</ele>
        <time>2022-02-09T10:11:11Z</time>
      </trkpt>
      <trkpt lat="42.85788" lon="0.23131">
        <ele>2178.5</ele>
        <time>2022-02-09T10:11:12Z</time>
      </trkpt>
      <trkpt lat="42.85788" lon="0.23131">
        <ele>2178.5</ele>
        <time>2022-02-09T10:11:13Z</time>
      </trkpt>
      <trkpt lat="42.85788" lon="0.23131">
        <ele>2178.5</ele>
        <time>2022-02-09T10:11:14Z</time>
      </trkpt>
      <trkpt lat="42.85788" lon="0.23131">
        <ele>2178.5</ele>
        <time>2022-02-09T10:11:15Z</time>
      </trkpt>
      <trkpt lat="42.85788" lon="0.23131">
        <ele>2178.5</ele>
        <time>2022-02-09T10:11:16Z</time>
      </trkpt>
      <trkpt lat="42.85788" lon="0.23131">
        <ele>2178.5</ele>
        <time>2022-02-09T10:11:17Z</time>
      </trkpt>
      <trkpt lat="42.85788" lon="0.23131">
        <ele>2178.5</ele>
        <time>2022-02-09T10:11:18Z</time>
      </trkpt>
      <trkpt lat="42.85788" lon="0.23131">
        <ele>2178.5</ele>
        <time>2022-02-09T10:11:19Z</time>
      </trkpt>
      <trkpt lat="42.85788" lon="0.23131">
        <ele>2178.5</ele>
        <time>2022-02-09T10:11:20Z</time>
      </trkpt>
      <trkpt lat="42.85788" lon="0.23131">
        <ele>2178.5</ele>
        <time>2022-02-09T10:11:21Z</time>
      </trkpt>
      <trkpt lat="42.85788" lon="0.23131">
        <ele>2178.5</ele>
        <time>2022-02-09T10:11:22Z</time>
      </trkpt>
      <trkpt lat="42.85788" lon="0.23131">
        <ele>2178.5</ele>
        <time>2022-02-09T10:11:23Z</time>
      </trkpt>
      <trkpt lat="42.85788" lon="0.23131">
        <ele>2178.5</ele>
        <time>2022-02-09T10:11:24Z</time>
      </trkpt>
      <trkpt lat="42.85788" lon="0.23131">
        <ele>2178.5</ele>
        <time>2022-02-09T10:11:25Z</time>
      </trkpt>
      <trkpt lat="42.85788" lon="0.23131">
        <ele>2178.5</ele>
        <time>2022-02-09T10:11:26Z</time>
      </trkpt>
      <trkpt lat="42.85788" lon="0.23131">
        <ele>2178.5</ele>
        <time>2022-02-09T10:11:27Z</time>
      </trkpt>
      <trkpt lat="42.85788" lon="0.23131">
        <ele>2178.5</ele>
        <time>2022-02-09T10:11:28Z</time>
      </trkpt>
      <trkpt lat="42.85788" lon="0.23131">
        <ele>2178.5</ele>
        <time>2022-02-09T10:11:29Z</time>
      </trkpt>
      <trkpt lat="42.85788" lon="0.23131">
        <ele>2178.5</ele>
        <time>2022-02-09T10:11:30Z</time>
      </trkpt>
      <trkpt lat="42.85788" lon="0.23131">
        <ele>2178.5</ele>
        <time>2022-02-09T10:11:31Z</time>
      </trkpt>
      <trkpt lat="42.85788" lon="0.23131">
        <ele>2178.5</ele>
        <time>2022-02-09T10:11:32Z</time>
      </trkpt>
      <trkpt lat="42.85788" lon="0.23131">
        <ele>2178.5</ele>
        <time>2022-02-09T10:11:33Z</time>
      </trkpt>
      <trkpt lat="42.85788" lon="0.23131">
        <ele>2178.5</ele>
        <time>2022-02-09T10:11:34Z</time>
      </trkpt>
      <trkpt lat="42.85788" lon="0.23131">
        <ele>2178.5</ele>
        <time>2022-02-09T10:11:35Z</time>
      </trkpt>
      <trkpt lat="42.85788" lon="0.23131">
        <ele>2178.5</ele>
        <time>2022-02-09T10:11:36Z</time>
      </trkpt>
      <trkpt lat="42.85788" lon="0.23131">
        <ele>2178.5</ele>
        <time>2022-02-09T10:11:37Z</time>
      </trkpt>
      <trkpt lat="42.85788" lon="0.23131">
        <ele>2178.5</ele>
        <time>2022-02-09T10:11:38Z</time>
      </trkpt>
      <trkpt lat="42.85788" lon="0.23131">
        <ele>2178.5</ele>
        <time>2022-02-09T10:11:39Z</time>
      </trkpt>
      <trkpt lat="42.85788" lon="0.23131">
        <ele>2178.5</ele>
        <time>2022-02-09T10:11:40Z</time>
      </trkpt>
      <trkpt lat="42.85788" lon="0.23131">
        <ele>2178.5</ele>
        <time>2022-02-09T10:11:41Z</time>
      </trkpt>
      <trkpt lat="42.85788" lon="0.23131">
        <ele>2178.5</ele>
        <time>2022-02-09T10:11:42Z</time>
      </trkpt>
      <trkpt lat="42.85788" lon="0.23131">
        <ele>2178.5</ele>
        <time>2022-02-09T10:11:43Z</time>
      </trkpt>
      <trkpt lat="42.85788" lon="0.23131">
        <ele>2178.5</ele>
        <time>2022-02-09T10:11:44Z</time>
      </trkpt>
      <trkpt lat="42.85788" lon="0.23131">
        <ele>2178.5</ele>
        <time>2022-02-09T10:11:45Z</time>
      </trkpt>
      <trkpt lat="42.85788" lon="0.23131">
        <ele>2178.5</ele>
        <time>2022-02-09T10:11:46Z</time>
      </trkpt>
      <trkpt lat="42.85788" lon="0.23131">
        <ele>2178.5</ele>
        <time>2022-02-09T10:11:47Z</time>
      </trkpt>
      <trkpt lat="42.85788" lon="0.23131">
        <ele>2178.5</ele>
        <time>2022-02-09T10:11:48Z</time>
      </trkpt>
      <trkpt lat="42.85788" lon="0.23131">
        <ele>2178.5</ele>
        <time>2022-02-09T10:11:49Z</time>
      </trkpt>
      <trkpt lat="42.85788" lon="0.23131">
        <ele>2178.5</ele>
        <time>2022-02-09T10:11:50Z</time>
      </trkpt>
      <trkpt lat="42.85788" lon="0.23131">
        <ele>2178.5</ele>
        <time>2022-02-09T10:11:51Z</time>
      </trkpt>
      <trkpt lat="42.85788" lon="0.23131">
        <ele>2178.5</ele>
        <time>2022-02-09T10:11:52Z</time>
      </trkpt>
      <trkpt lat="42.85788" lon="0.23131">
        <ele>2178.5</ele>
        <time>2022-02-09T10:11:53Z</time>
      </trkpt>
      <trkpt lat="42.85788" lon="0.23131">
        <ele>2178.5</ele>
        <time>2022-02-09T10:11:54Z</time>
      </trkpt>
      <trkpt lat="42.85788" lon="0.23131">
        <ele>2178.5</ele>
        <time>2022-02-09T10:11:55Z</time>
      </trkpt>
      <trkpt lat="42.85788" lon="0.23131">
        <ele>2178.5</ele>
        <time>2022-02-09T10:11:56Z</time>
      </trkpt>
      <trkpt lat="42.85788" lon="0.23131">
        <ele>2178.5</ele>
        <time>2022-02-09T10:11:57Z</time>
      </trkpt>
      <trkpt lat="42.85788" lon="0.23131">
        <ele>2178.5</ele>
        <time>2022-02-09T10:11:58Z</time>
      </trkpt>
      <trkpt lat="42.85788" lon="0.23131">
        <ele>2178.5</ele>
        <time>2022-02-09T10:11:59Z</time>
      </trkpt>
      <trkpt lat="42.85788" lon="0.23131">
        <ele>2178.5</ele>
        <time>2022-02-09T10:12:00Z</time>
      </trkpt>
      <trkpt lat="42.85788" lon="0.23131">
        <ele>2178.5</ele>
        <time>2022-02-09T10:12:01Z</time>
      </trkpt>
      <trkpt lat="42.85788" lon="0.23131">
        <ele>2178.5</ele>
        <time>2022-02-09T10:12:02Z</time>
      </trkpt>
      <trkpt lat="42.85788" lon="0.23131">
        <ele>2178.5</ele>
        <time>2022-02-09T10:12:03Z</time>
      </trkpt>
      <trkpt lat="42.85788" lon="0.23131">
        <ele>2178.5</ele>
        <time>2022-02-09T10:12:04Z</time>
      </trkpt>
      <trkpt lat="42.85788" lon="0.23131">
        <ele>2178.5</ele>
        <time>2022-02-09T10:12:05Z</time>
      </trkpt>
      <trkpt lat="42.85788" lon="0.23131">
        <ele>2178.5</ele>
        <time>2022-02-09T10:12:06Z</time>
      </trkpt>
      <trkpt lat="42.85788" lon="0.23131">
        <ele>2178.5</ele>
        <time>2022-02-09T10:12:07Z</time>
      </trkpt>
      <trkpt lat="42.85788" lon="0.23131">
        <ele>2178.5</ele>
        <time>2022-02-09T10:12:08Z</time>
      </trkpt>
      <trkpt lat="42.85788" lon="0.23131">
        <ele>2178.5</ele>
        <time>2022-02-09T10:12:09Z</time>
      </trkpt>
      <trkpt lat="42.85788" lon="0.23131">
        <ele>2178.5</ele>
        <time>2022-02-09T10:12:10Z</time>
      </trkpt>
      <trkpt lat="42.85788" lon="0.23131">
        <ele>2178.5</ele>
        <time>2022-02-09T10:12:11Z</time>
      </trkpt>
      <trkpt lat="42.85788" lon="0.23131">
        <ele>2178.5</ele>
        <time>2022-02-09T10:12:12Z</time>
      </trkpt>
      <trkpt lat="42.85788" lon="0.23131">
        <ele>2178.5</ele>
        <time>2022-02-09T10:12:13Z</time>
      </trkpt>
      <trkpt lat="42.85788" lon="0.23131">
        <ele>2178.5</ele>
        <time>2022-02-09T10:12:14Z</time>
      </trkpt>
      <trkpt lat="42.85788" lon="0.23131">
        <ele>2178.5</ele>
        <time>2022-02-09T10:12:15Z</time>
      </trkpt>
      <trkpt lat="42.85788" lon="0.23131">
        <ele>2178.5</ele>
        <time>2022-02-09T10:12:16Z</time>
      </trkpt>
      <trkpt lat="42.85788" lon="0.23131">
        <ele>2178.5</ele>
        <time>2022-02-09T10:12:17Z</time>
      </trkpt>
      <trkpt lat="42.85788" lon="0.23131">
        <ele>2178.5</ele>
        <time>2022-02-09T10:12:18Z</time>
      </trkpt>
      <trkpt lat="42.85788" lon="0.23131">
        <ele>2178.5</ele>
        <time>2022-02-09T10:12:19Z</time>
      </trkpt>
      <trkpt lat="42.85788" lon="0.23131">
        <ele>2178.5</ele>
        <time>2022-02-09T10:12:20Z</time>
      </trkpt>
      <trkpt lat="42.85788" lon="0.23131">
        <ele>2178.5</ele>
        <time>2022-02-09T10:12:21Z</time>
      </trkpt>
      <trkpt lat="42.85788" lon="0.23131">
        <ele>2178.5</ele>
        <time>2022-02-09T10:12:22Z</time>
      </trkpt>
      <trkpt lat="42.85788" lon="0.23131">
        <ele>2178.5</ele>
        <time>2022-02-09T10:12:23Z</time>
      </trkpt>
      <trkpt lat="42.85788" lon="0.23131">
        <ele>2178.5</ele>
        <time>2022-02-09T10:12:24Z</time>
      </trkpt>
      <trkpt lat="42.85788" lon="0.23131">
        <ele>2178.5</ele>
        <time>2022-02-09T10:12:25Z</time>
      </trkpt>
      <trkpt lat="42.85788" lon="0.23131">
        <ele>2178.5</ele>
        <time>2022-02-09T10:12:26Z</time>
      </trkpt>
      <trkpt lat="42.85788" lon="0.23131">
        <ele>2178.5</ele>
        <time>2022-02-09T10:12:27Z</time>
      </trkpt>
      <trkpt lat="42.85788" lon="0.23131">
        <ele>2178.5</ele>
        <time>2022-02-09T10:12:28Z</time>
      </trkpt>
      <trkpt lat="42.85788" lon="0.23131">
        <ele>2178.5</ele>
        <time>2022-02-09T10:12:29Z</time>
      </trkpt>
      <trkpt lat="42.85788" lon="0.23131">
        <ele>2178.5</ele>
        <time>2022-02-09T10:12:30Z</time>
      </trkpt>
      <trkpt lat="42.85788" lon="0.23131">
        <ele>2178.5</ele>
        <time>2022-02-09T10:12:31Z</time>
      </trkpt>
      <trkpt lat="42.85788" lon="0.23131">
        <ele>2178.5</ele>
        <time>2022-02-09T10:12:32Z</time>
      </trkpt>
      <trkpt lat="42.85788" lon="0.23131">
        <ele>2178.5</ele>
        <time>2022-02-09T10:12:33Z</time>
      </trkpt>
      <trkpt lat="42.85788" lon="0.23131">
        <ele>2178.5</ele>
        <time>2022-02-09T10:12:34Z</time>
      </trkpt>
      <trkpt lat="42.85788" lon="0.23131">
        <ele>2178.5</ele>
        <time>2022-02-09T10:12:35Z</time>
      </trkpt>
      <trkpt lat="42.85788" lon="0.23131">
        <ele>2178.5</ele>
        <time>2022-02-09T10:12:36Z</time>
      </trkpt>
      <trkpt lat="42.85788" lon="0.23131">
        <ele>2178.5</ele>
        <time>2022-02-09T10:12:37Z</time>
      </trkpt>
      <trkpt lat="42.85788" lon="0.23131">
        <ele>2178.5</ele>
        <time>2022-02-09T10:12:38Z</time>
      </trkpt>
      <trkpt lat="42.85788" lon="0.23131">
        <ele>2178.5</ele>
        <time>2022-02-09T10:12:39Z</time>
      </trkpt>
      <trkpt lat="42.85788" lon="0.23131">
        <ele>2178.5</ele>
        <time>2022-02-09T10:12:40Z</time>
      </trkpt>
      <trkpt lat="42.85788" lon="0.23131">
        <ele>2178.5</ele>
        <time>2022-02-09T10:12:41Z</time>
      </trkpt>
      <trkpt lat="42.85788" lon="0.23131">
        <ele>2178.5</ele>
        <time>2022-02-09T10:12:42Z</time>
      </trkpt>
      <trkpt lat="42.85788" lon="0.23131">
        <ele>2178.5</ele>
        <time>2022-02-09T10:12:43Z</time>
      </trkpt>
      <trkpt lat="42.85788" lon="0.23131">
        <ele>2178.5</ele>
        <time>2022-02-09T10:12:44Z</time>
      </trkpt>
      <trkpt lat="42.85788" lon="0.23131">
        <ele>2178.5</ele>
        <time>2022-02-09T10:12:45Z</time>
      </trkpt>
      <trkpt lat="42.85788" lon="0.23131">
        <ele>2178.5</ele>
        <time>2022-02-09T10:12:46Z</time>
      </trkpt>
      <trkpt lat="42.85788" lon="0.23131">
        <ele>2178.5</ele>
        <time>2022-02-09T10:12:47Z</time>
      </trkpt>
      <trkpt lat="42.85788" lon="0.23131">
        <ele>2178.5</ele>
        <time>2022-02-09T10:12:48Z</time>
      </trkpt>
      <trkpt lat="42.85788" lon="0.23131">
        <ele>2178.5</ele>
        <time>2022-02-09T10:12:49Z</time>
      </trkpt>
      <trkpt lat="42.85788" lon="0.23131">
        <ele>2178.5</ele>
        <time>2022-02-09T10:12:50Z</time>
      </trkpt>
      <trkpt lat="42.85788" lon="0.23131">
        <ele>2178.5</ele>
        <time>2022-02-09T10:12:51Z</time>
      </trkpt>
      <trkpt lat="42.85788" lon="0.23131">
        <ele>2178.5</ele>
        <time>2022-02-09T10:12:52Z</time>
      </trkpt>
      <trkpt lat="42.85788" lon="0.23131">
        <ele>2178.5</ele>
        <time>2022-02-09T10:12:53Z</time>
      </trkpt>
      <trkpt lat="42.85788" lon="0.23131">
        <ele>2178.5</ele>
        <time>2022-02-09T10:12:54Z</time>
      </trkpt>
      <trkpt lat="42.85788" lon="0.23131">
        <ele>2178.5</ele>
        <time>2022-02-09T10:12:55Z</time>
      </trkpt>
      <trkpt lat="42.85788" lon="0.23131">
        <ele>2178.5</ele>
        <time>2022-02-09T10:12:56Z</time>
      </trkpt>
      <trkpt lat="42.85788" lon="0.23131">
        <ele>2178.5</ele>
        <time>2022-02-09T10:12:57Z</time>
      </trkpt>
      <trkpt lat="42.85788" lon="0.23131">
        <ele>2178.5</ele>
        <time>2022-02-09T10:12:58Z</time>
      </trkpt>
      <trkpt lat="42.85788" lon="0.23131">
        <ele>2178.5</ele>
        <time>2022-02-09T10:12:59Z</time>
      </trkpt>
      <trkpt lat="42.85788" lon="0.23131">
        <ele>2178.5</ele>
        <time>2022-02-09T10:13:00Z</time>
      </trkpt>
      <trkpt lat="42.85788" lon="0.23131">
        <ele>2178.5</ele>
        <time>2022-02-09T10:13:01Z</time>
      </trkpt>
      <trkpt lat="42.85788" lon="0.23131">
        <ele>2178.5</ele>
        <time>2022-02-09T10:13:02Z</time>
      </trkpt>
      <trkpt lat="42.85788" lon="0.23131">
        <ele>2178.5</ele>
        <time>2022-02-09T10:13:03Z</time>
      </trkpt>
      <trkpt lat="42.85788" lon="0.23131">
        <ele>2178.5</ele>
        <time>2022-02-09T10:13:04Z</time>
      </trkpt>
      <trkpt lat="42.85788" lon="0.23131">
        <ele>2178.5</ele>
        <time>2022-02-09T10:13:05Z</time>
      </trkpt>
      <trkpt lat="42.85788" lon="0.23131">
        <ele>2178.5</ele>
        <time>2022-02-09T10:13:06Z</time>
      </trkpt>
      <trkpt lat="42.85788" lon="0.23131">
        <ele>2178.5</ele>
        <time>2022-02-09T10:13:07Z</time>
      </trkpt>
      <trkpt lat="42.85788" lon="0.23131">
        <ele>2178.5</ele>
        <time>2022-02-09T10:13:08Z</time>
      </trkpt>
      <trkpt lat="42.85788" lon="0.23131">
        <ele>2178.5</ele>
        <time>2022-02-09T10:13:09Z</time>
      </trkpt>
      <trkpt lat="42.85788" lon="0.23131">
        <ele>2178.5</ele>
        <time>2022-02-09T10:13:10Z</time>
      </trkpt>
      <trkpt lat="42.85788" lon="0.23131">
        <ele>2178.5</ele>
        <time>2022-02-09T10:13:11Z</time>
      </trkpt>
      <trkpt lat="42.85788" lon="0.23131">
        <ele>2178.5</ele>
        <time>2022-02-09T10:13:12Z</time>
      </trkpt>
      <trkpt lat="42.85788" lon="0.23131">
        <ele>2178.5</ele>
        <time>2022-02-09T10:13:13Z</time>
      </trkpt>
      <trkpt lat="42.85788" lon="0.23131">
        <ele>2178.5</ele>
        <time>2022-02-09T10:13:14Z</time>
      </trkpt>
      <trkpt lat="42.85788" lon="0.23131">
        <ele>2178.5</ele>
        <time>2022-02-09T10:13:15Z</time>
      </trkpt>
      <trkpt lat="42.85788" lon="0.23131">
        <ele>2178.5</ele>
        <time>2022-02-09T10:13:16Z</time>
      </trkpt>
      <trkpt lat="42.85788" lon="0.23131">
        <ele>2178.5</ele>
        <time>2022-02-09T10:13:17Z</time>
      </trkpt>
      <trkpt lat="42.85788" lon="0.23131">
        <ele>2178.5</ele>
        <time>2022-02-09T10:13:18Z</time>
      </trkpt>
      <trkpt lat="42.85788" lon="0.23131">
        <ele>2178.5</ele>
        <time>2022-02-09T10:13:19Z</time>
      </trkpt>
      <trkpt lat="42.85788" lon="0.23131">
        <ele>2178.5</ele>
        <time>2022-02-09T10:13:20Z</time>
      </trkpt>
      <trkpt lat="42.85788" lon="0.23131">
        <ele>2178.5</ele>
        <time>2022-02-09T10:13:21Z</time>
      </trkpt>
      <trkpt lat="42.85788" lon="0.23131">
        <ele>2178.5</ele>
        <time>2022-02-09T10:13:22Z</time>
      </trkpt>
      <trkpt lat="42.85788" lon="0.23131">
        <ele>2178.5</ele>
        <time>2022-02-09T10:13:23Z</time>
      </trkpt>
      <trkpt lat="42.85788" lon="0.23131">
        <ele>2178.5</ele>
        <time>2022-02-09T10:13:24Z</time>
      </trkpt>
      <trkpt lat="42.85788" lon="0.23131">
        <ele>2178.5</ele>
        <time>2022-02-09T10:13:25Z</time>
      </trkpt>
      <trkpt lat="42.85788" lon="0.23131">
        <ele>2178.5</ele>
        <time>2022-02-09T10:13:26Z</time>
      </trkpt>
      <trkpt lat="42.85788" lon="0.23131">
        <ele>2178.5</ele>
        <time>2022-02-09T10:13:27Z</time>
      </trkpt>
      <trkpt lat="42.85788" lon="0.23131">
        <ele>2178.5</ele>
        <time>2022-02-09T10:13:28Z</time>
      </trkpt>
      <trkpt lat="42.85788" lon="0.23131">
        <ele>2178.5</ele>
        <time>2022-02-09T10:13:29Z</time>
      </trkpt>
      <trkpt lat="42.85788" lon="0.23131">
        <ele>2178.5</ele>
        <time>2022-02-09T10:13:30Z</time>
      </trkpt>
      <trkpt lat="42.85788" lon="0.23131">
        <ele>2178.5</ele>
        <time>2022-02-09T10:13:31Z</time>
      </trkpt>
      <trkpt lat="42.85788" lon="0.23131">
        <ele>2178.5</ele>
        <time>2022-02-09T10:13:32Z</time>
      </trkpt>
      <trkpt lat="42.85788" lon="0.23131">
        <ele>2178.5</ele>
        <time>2022-02-09T10:13:33Z</time>
      </trkpt>
      <trkpt lat="42.85788" lon="0.23131">
        <ele>2178.5</ele>
        <time>2022-02-09T10:13:34Z</time>
      </trkpt>
      <trkpt lat="42.85788" lon="0.23131">
        <ele>2178.5</ele>
        <time>2022-02-09T10:13:35Z</time>
      </trkpt>
      <trkpt lat="42.85788" lon="0.23131">
        <ele>2178.5</ele>
        <time>2022-02-09T10:13:36Z</time>
      </trkpt>
      <trkpt lat="42.85788" lon="0.23131">
        <ele>2178.5</ele>
        <time>2022-02-09T10:13:37Z</time>
      </trkpt>
      <trkpt lat="42.85788" lon="0.23131">
        <ele>2178.5</ele>
        <time>2022-02-09T10:13:38Z</time>
      </trkpt>
      <trkpt lat="42.85788" lon="0.23131">
        <ele>2178.5</ele>
        <time>2022-02-09T10:13:39Z</time>
      </trkpt>
      <trkpt lat="42.85788" lon="0.23131">
        <ele>2178.5</ele>
        <time>2022-02-09T10:13:40Z</time>
      </trkpt>
      <trkpt lat="42.85788" lon="0.23131">
        <ele>2178.5</ele>
        <time>2022-02-09T10:13:41Z</time>
      </trkpt>
      <trkpt lat="42.85788" lon="0.23131">
        <ele>2178.5</ele>
        <time>2022-02-09T10:13:42Z</time>
      </trkpt>
      <trkpt lat="42.85788" lon="0.23131">
        <ele>2178.5</ele>
        <time>2022-02-09T10:13:43Z</time>
      </trkpt>
      <trkpt lat="42.85788" lon="0.23131">
        <ele>2178.5</ele>
        <time>2022-02-09T10:13:44Z</time>
      </trkpt>
      <trkpt lat="42.85788" lon="0.23131">
        <ele>2178.5</ele>
        <time>2022-02-09T10:13:45Z</time>
      </trkpt>
      <trkpt lat="42.85788" lon="0.23131">
        <ele>2178.5</ele>
        <time>2022-02-09T10:13:46Z</time>
      </trkpt>
      <trkpt lat="42.85788" lon="0.23131">
        <ele>2178.5</ele>
        <time>2022-02-09T10:13:47Z</time>
      </trkpt>
      <trkpt lat="42.85788" lon="0.23131">
        <ele>2178.5</ele>
        <time>2022-02-09T10:13:48Z</time>
      </trkpt>
      <trkpt lat="42.85788" lon="0.23131">
        <ele>2178.5</ele>
        <time>2022-02-09T10:13:49Z</time>
      </trkpt>
      <trkpt lat="42.85788" lon="0.23131">
        <ele>2178.5</ele>
        <time>2022-02-09T10:13:50Z</time>
      </trkpt>
      <trkpt lat="42.85788" lon="0.23131">
        <ele>2178.5</ele>
        <time>2022-02-09T10:13:51Z</time>
      </trkpt>
      <trkpt lat="42.85788" lon="0.23131">
        <ele>2178.5</ele>
        <time>2022-02-09T10:13:52Z</time>
      </trkpt>
      <trkpt lat="42.85788" lon="0.23131">
        <ele>2178.5</ele>
        <time>2022-02-09T10:13:53Z</time>
      </trkpt>
      <trkpt lat="42.85788" lon="0.23131">
        <ele>2178.5</ele>
        <time>2022-02-09T10:13:54Z</time>
      </trkpt>
      <trkpt lat="42.85788" lon="0.23131">
        <ele>2178.5</ele>
        <time>2022-02-09T10:13:55Z</time>
      </trkpt>
      <trkpt lat="42.85788" lon="0.23131">
        <ele>2178.5</ele>
        <time>2022-02-09T10:13:56Z</time>
      </trkpt>
      <trkpt lat="42.85788" lon="0.23131">
        <ele>2178.5</ele>
        <time>2022-02-09T10:13:57Z</time>
      </trkpt>
      <trkpt lat="42.85788" lon="0.23131">
        <ele>2178.5</ele>
        <time>2022-02-09T10:13:58Z</time>
      </trkpt>
      <trkpt lat="42.85788" lon="0.23131">
        <ele>2178.5</ele>
        <time>2022-02-09T10:13:59Z</time>
      </trkpt>
      <trkpt lat="42.85788" lon="0.23131">
        <ele>2178.5</ele>
        <time>2022-02-09T10:14:00Z</time>
      </trkpt>
      <trkpt lat="42.85788" lon="0.23131">
        <ele>2178.5</ele>
        <time>2022-02-09T10:14:01Z</time>
      </trkpt>
      <trkpt lat="42.85788" lon="0.23131">
        <ele>2178.5</ele>
        <time>2022-02-09T10:14:02Z</time>
      </trkpt>
      <trkpt lat="42.85788" lon="0.23131">
        <ele>2178.5</ele>
        <time>2022-02-09T10:14:03Z</time>
      </trkpt>
      <trkpt lat="42.85788" lon="0.23131">
        <ele>2178.5</ele>
        <time>2022-02-09T10:14:04Z</time>
      </trkpt>
      <trkpt lat="42.85788" lon="0.23131">
        <ele>2178.5</ele>
        <time>2022-02-09T10:14:05Z</time>
      </trkpt>
      <trkpt lat="42.85788" lon="0.23131">
        <ele>2178.5</ele>
        <time>2022-02-09T10:14:06Z</time>
      </trkpt>
      <trkpt lat="42.85788" lon="0.23131">
        <ele>2178.5</ele>
        <time>2022-02-09T10:14:07Z</time>
      </trkpt>
      <trkpt lat="42.85788" lon="0.23131">
        <ele>2178.5</ele>
        <time>2022-02-09T10:14:08Z</time>
      </trkpt>
      <trkpt lat="42.85788" lon="0.23131">
        <ele>2178.5</ele>
        <time>2022-02-09T10:14:09Z</time>
      </trkpt>
      <trkpt lat="42.85788" lon="0.23131">
        <ele>2178.5</ele>
        <time>2022-02-09T10:14:10Z</time>
      </trkpt>
      <trkpt lat="42.85788" lon="0.23131">
        <ele>2178.5</ele>
        <time>2022-02-09T10:14:11Z</time>
      </trkpt>
      <trkpt lat="42.85788" lon="0.23131">
        <ele>2178.5</ele>
        <time>2022-02-09T10:14:12Z</time>
      </trkpt>
      <trkpt lat="42.85788" lon="0.23131">
        <ele>2178.5</ele>
        <time>2022-02-09T10:14:13Z</time>
      </trkpt>
      <trkpt lat="42.85788" lon="0.23131">
        <ele>2178.5</ele>
        <time>2022-02-09T10:14:14Z</time>
      </trkpt>
      <trkpt lat="42.85788" lon="0.23131">
        <ele>2178.5</ele>
        <time>2022-02-09T10:14:15Z</time>
      </trkpt>
      <trkpt lat="42.85788" lon="0.23131">
        <ele>2178.5</ele>
        <time>2022-02-09T10:14:16Z</time>
      </trkpt>
      <trkpt lat="42.85788" lon="0.23131">
        <ele>2178.5</ele>
        <time>2022-02-09T10:14:17Z</time>
      </trkpt>
      <trkpt lat="42.85788" lon="0.23131">
        <ele>2178.5</ele>
        <time>2022-02-09T10:14:18Z</time>
      </trkpt>
      <trkpt lat="42.85788" lon="0.23131">
        <ele>2178.5</ele>
        <time>2022-02-09T10:14:19Z</time>
      </trkpt>
      <trkpt lat="42.85788" lon="0.23131">
        <ele>2178.5</ele>
        <time>2022-02-09T10:14:20Z</time>
      </trkpt>
      <trkpt lat="42.85788" lon="0.23131">
        <ele>2178.5</ele>
        <time>2022-02-09T10:14:21Z</time>
      </trkpt>
      <trkpt lat="42.85788" lon="0.23131">
        <ele>2178.5</ele>
        <time>2022-02-09T10:14:22Z</time>
      </trkpt>
      <trkpt lat="42.85788" lon="0.23131">
        <ele>2178.5</ele>
        <time>2022-02-09T10:14:23Z</time>
      </trkpt>
      <trkpt lat="42.85788" lon="0.23131">
        <ele>2178.5</ele>
        <time>2022-02-09T10:14:24Z</time>
      </trkpt>
      <trkpt lat="42.85788" lon="0.23131">
        <ele>2178.5</ele>
        <time>2022-02-09T10:14:25Z</time>
      </trkpt>
      <trkpt lat="42.85788" lon="0.23131">
        <ele>2178.5</ele>
        <time>2022-02-09T10:14:26Z</time>
      </trkpt>
      <trkpt lat="42.85788" lon="0.23131">
        <ele>2178.5</ele>
        <time>2022-02-09T10:14:27Z</time>
      </trkpt>
      <trkpt lat="42.85788" lon="0.23131">
        <ele>2178.5</ele>
        <time>2022-02-09T10:14:28Z</time>
      </trkpt>
      <trkpt lat="42.85788" lon="0.23131">
        <ele>2178.5</ele>
        <time>2022-02-09T10:14:29Z</time>
      </trkpt>
      <trkpt lat="42.85788" lon="0.23131">
        <ele>2178.5</ele>
        <time>2022-02-09T10:14:30Z</time>
      </trkpt>
      <trkpt lat="42.85788" lon="0.23131">
        <ele>2178.5</ele>
        <time>2022-02-09T10:14:31Z</time>
      </trkpt>
      <trkpt lat="42.85788" lon="0.23131">
        <ele>2178.5</ele>
        <time>2022-02-09T10:14:32Z</time>
      </trkpt>
      <trkpt lat="42.85788" lon="0.23131">
        <ele>2178.5</ele>
        <time>2022-02-09T10:14:33Z</time>
      </trkpt>
      <trkpt lat="42.85788" lon="0.23131">
        <ele>2178.5</ele>
        <time>2022-02-09T10:14:34Z</time>
      </trkpt>
      <trkpt lat="42.85788" lon="0.23131">
        <ele>2178.5</ele>
        <time>2022-02-09T10:14:35Z</time>
      </trkpt>
      <trkpt lat="42.85788" lon="0.23131">
        <ele>2178.5</ele>
        <time>2022-02-09T10:14:36Z</time>
      </trkpt>
      <trkpt lat="42.85788" lon="0.23131">
        <ele>2178.5</ele>
        <time>2022-02-09T10:14:37Z</time>
      </trkpt>
      <trkpt lat="42.85788" lon="0.23131">
        <ele>2178.5</ele>
        <time>2022-02-09T10:14:38Z</time>
      </trkpt>
      <trkpt lat="42.85788" lon="0.23131">
        <ele>2178.5</ele>
        <time>2022-02-09T10:14:39Z</time>
      </trkpt>
      <trkpt lat="42.85788" lon="0.23131">
        <ele>2178.5</ele>
        <time>2022-02-09T10:14:40Z</time>
      </trkpt>
      <trkpt lat="42.85788" lon="0.23131">
        <ele>2178.5</ele>
        <time>2022-02-09T10:14:41Z</time>
      </trkpt>
      <trkpt lat="42.85788" lon="0.23131">
        <ele>2178.5</ele>
        <time>2022-02-09T10:14:42Z</time>
      </trkpt>
      <trkpt lat="42.85788" lon="0.23131">
        <ele>2178.5</ele>
        <time>2022-02-09T10:14:43Z</time>
      </trkpt>
      <trkpt lat="42.85788" lon="0.23131">
        <ele>2178.5</ele>
        <time>2022-02-09T10:14:44Z</time>
      </trkpt>
      <trkpt lat="42.85788" lon="0.23131">
        <ele>2178.5</ele>
        <time>2022-02-09T10:14:45Z</time>
      </trkpt>
      <trkpt lat="42.85788" lon="0.23131">
        <ele>2178.5</ele>
        <time>2022-02-09T10:14:46Z</time>
      </trkpt>
      <trkpt lat="42.85788" lon="0.23131">
        <ele>2178.5</ele>
        <time>2022-02-09T10:14:47Z</time>
      </trkpt>
      <trkpt lat="42.85788" lon="0.23131">
        <ele>2178.5</ele>
        <time>2022-02-09T10:14:48Z</time>
      </trkpt>
      <trkpt lat="42.85788" lon="0.23131">
        <ele>2178.5</ele>
        <time>2022-02-09T10:14:49Z</time>
      </trkpt>
      <trkpt lat="42.85788" lon="0.23131">
        <ele>2178.5</ele>
        <time>2022-02-09T10:14:50Z</time>
      </trkpt>
      <trkpt lat="42.85788" lon="0.23131">
        <ele>2178.5</ele>
        <time>2022-02-09T10:14:51Z</time>
      </trkpt>
      <trkpt lat="42.85788" lon="0.23131">
        <ele>2178.5</ele>
        <time>2022-02-09T10:14:52Z</time>
      </trkpt>
      <trkpt lat="42.85788" lon="0.23131">
        <ele>2178.5</ele>
        <time>2022-02-09T10:14:53Z</time>
      </trkpt>
      <trkpt lat="42.85788" lon="0.23131">
        <ele>2178.5</ele>
        <time>2022-02-09T10:14:54Z</time>
      </trkpt>
      <trkpt lat="42.85788" lon="0.23131">
        <ele>2178.5</ele>
        <time>2022-02-09T10:14:55Z</time>
      </trkpt>
      <trkpt lat="42.85788" lon="0.23131">
        <ele>2178.5</ele>
        <time>2022-02-09T10:14:56Z</time>
      </trkpt>
      <trkpt lat="42.85788" lon="0.23131">
        <ele>2178.5</ele>
        <time>2022-02-09T10:14:57Z</time>
      </trkpt>
      <trkpt lat="42.85788" lon="0.23131">
        <ele>2178.5</ele>
        <time>2022-02-09T10:14:58Z</time>
      </trkpt>
      <trkpt lat="42.85788" lon="0.23131">
        <ele>2178.5</ele>
        <time>2022-02-09T10:14:59Z</time>
      </trkpt>
      <trkpt lat="42.85788" lon="0.23131">
        <ele>2178.5</ele>
        <time>2022-02-09T10:15:00Z</time>
      </trkpt>
      <trkpt lat="42.85788" lon="0.23131">
        <ele>2178.5</ele>
        <time>2022-02-09T10:15:01Z</time>
      </trkpt>
      <trkpt lat="42.85788" lon="0.23131">
        <ele>2178.5</ele>
        <time>2022-02-09T10:15:02Z</time>
      </trkpt>
      <trkpt lat="42.85788" lon="0.23131">
        <ele>2178.5</ele>
        <time>2022-02-09T10:15:03Z</time>
      </trkpt>
      <trkpt lat="42.85788" lon="0.23131">
        <ele>2178.5</ele>
        <time>2022-02-09T10:15:04Z</time>
      </trkpt>
      <trkpt lat="42.85788" lon="0.23131">
        <ele>2178.5</ele>
        <time>2022-02-09T10:15:05Z</time>
      </trkpt>
      <trkpt lat="42.85788" lon="0.23131">
        <ele>2178.5</ele>
        <time>2022-02-09T10:15:06Z</time>
      </trkpt>
      <trkpt lat="42.85788" lon="0.23131">
        <ele>2178.5</ele>
        <time>2022-02-09T10:15:07Z</time>
      </trkpt>
      <trkpt lat="42.85788" lon="0.23131">
        <ele>2178.5</ele>
        <time>2022-02-09T10:15:08Z</time>
      </trkpt>
      <trkpt lat="42.85788" lon="0.23131">
        <ele>2178.5</ele>
        <time>2022-02-09T10:15:09Z</time>
      </trkpt>
      <trkpt lat="42.85788" lon="0.23131">
        <ele>2178.5</ele>
        <time>2022-02-09T10:15:10Z</time>
      </trkpt>
      <trkpt lat="42.85788" lon="0.23131">
        <ele>2178.5</ele>
        <time>2022-02-09T10:15:11Z</time>
      </trkpt>
      <trkpt lat="42.85788" lon="0.23131">
        <ele>2178.5</ele>
        <time>2022-02-09T10:15:12Z</time>
      </trkpt>
      <trkpt lat="42.85788" lon="0.23131">
        <ele>2178.5</ele>
        <time>2022-02-09T10:15:13Z</time>
      </trkpt>
      <trkpt lat="42.85788" lon="0.23131">
        <ele>2178.5</ele>
        <time>2022-02-09T10:15:14Z</time>
      </trkpt>
      <trkpt lat="42.85788" lon="0.23131">
        <ele>2178.5</ele>
        <time>2022-02-09T10:15:15Z</time>
      </trkpt>
      <trkpt lat="42.85788" lon="0.23131">
        <ele>2178.5</ele>
        <time>2022-02-09T10:15:16Z</time>
      </trkpt>
      <trkpt lat="42.85788" lon="0.23131">
        <ele>2178.5</ele>
        <time>2022-02-09T10:15:17Z</time>
      </trkpt>
      <trkpt lat="42.85788" lon="0.23131">
        <ele>2178.5</ele>
        <time>2022-02-09T10:15:18Z</time>
      </trkpt>
      <trkpt lat="42.85788" lon="0.23131">
        <ele>2178.5</ele>
        <time>2022-02-09T10:15:19Z</time>
      </trkpt>
      <trkpt lat="42.85788" lon="0.23131">
        <ele>2178.5</ele>
        <time>2022-02-09T10:15:20Z</time>
      </trkpt>
      <trkpt lat="42.85788" lon="0.23131">
        <ele>2178.5</ele>
        <time>2022-02-09T10:15:21Z</time>
      </trkpt>
      <trkpt lat="42.85788" lon="0.23131">
        <ele>2178.5</ele>
        <time>2022-02-09T10:15:22Z</time>
      </trkpt>
      <trkpt lat="42.85788" lon="0.23131">
        <ele>2178.5</ele>
        <time>2022-02-09T10:15:23Z</time>
      </trkpt>
      <trkpt lat="42.85788" lon="0.23131">
        <ele>2178.5</ele>
        <time>2022-02-09T10:15:24Z</time>
      </trkpt>
      <trkpt lat="42.85788" lon="0.23131">
        <ele>2178.5</ele>
        <time>2022-02-09T10:15:25Z</time>
      </trkpt>
      <trkpt lat="42.85788" lon="0.23131">
        <ele>2178.5</ele>
        <time>2022-02-09T10:15:26Z</time>
      </trkpt>
      <trkpt lat="42.85788" lon="0.23131">
        <ele>2178.5</ele>
        <time>2022-02-09T10:15:27Z</time>
      </trkpt>
      <trkpt lat="42.85788" lon="0.23131">
        <ele>2178.5</ele>
        <time>2022-02-09T10:15:28Z</time>
      </trkpt>
      <trkpt lat="42.85788" lon="0.23131">
        <ele>2178.5</ele>
        <time>2022-02-09T10:15:29Z</time>
      </trkpt>
      <trkpt lat="42.85788" lon="0.23131">
        <ele>2178.5</ele>
        <time>2022-02-09T10:15:30Z</time>
      </trkpt>
      <trkpt lat="42.85788" lon="0.23131">
        <ele>2178.5</ele>
        <time>2022-02-09T10:15:31Z</time>
      </trkpt>
      <trkpt lat="42.85788" lon="0.23131">
        <ele>2178.5</ele>
        <time>2022-02-09T10:15:32Z</time>
      </trkpt>
      <trkpt lat="42.85788" lon="0.23131">
        <ele>2178.5</ele>
        <time>2022-02-09T10:15:33Z</time>
      </trkpt>
      <trkpt lat="42.85788" lon="0.23131">
        <ele>2178.5</ele>
        <time>2022-02-09T10:15:34Z</time>
      </trkpt>
      <trkpt lat="42.85788" lon="0.23131">
        <ele>2178.5</ele>
        <time>2022-02-09T10:15:35Z</time>
      </trkpt>
      <trkpt lat="42.85788" lon="0.23131">
        <ele>2178.5</ele>
        <time>2022-02-09T10:15:36Z</time>
      </trkpt>
      <trkpt lat="42.85788" lon="0.23131">
        <ele>2178.5</ele>
        <time>2022-02-09T10:15:37Z</time>
      </trkpt>
      <trkpt lat="42.85788" lon="0.23131">
        <ele>2178.5</ele>
        <time>2022-02-09T10:15:38Z</time>
      </trkpt>
      <trkpt lat="42.85788" lon="0.23131">
        <ele>2178.5</ele>
        <time>2022-02-09T10:15:39Z</time>
      </trkpt>
      <trkpt lat="42.85788" lon="0.23131">
        <ele>2178.5</ele>
        <time>2022-02-09T10:15:40Z</time>
      </trkpt>
      <trkpt lat="42.85788" lon="0.23131">
        <ele>2178.5</ele>
        <time>2022-02-09T10:15:41Z</time>
      </trkpt>
      <trkpt lat="42.85788" lon="0.23131">
        <ele>2178.5</ele>
        <time>2022-02-09T10:15:42Z</time>
      </trkpt>
      <trkpt lat="42.85788" lon="0.23131">
        <ele>2178.5</ele>
        <time>2022-02-09T10:15:43Z</time>
      </trkpt>
      <trkpt lat="42.85788" lon="0.23131">
        <ele>2178.5</ele>
        <time>2022-02-09T10:15:44Z</time>
      </trkpt>
      <trkpt lat="42.85788" lon="0.23131">
        <ele>2178.5</ele>
        <time>2022-02-09T10:15:45Z</time>
      </trkpt>
      <trkpt lat="42.85788" lon="0.23131">
        <ele>2178.5</ele>
        <time>2022-02-09T10:15:46Z</time>
      </trkpt>
      <trkpt lat="42.85788" lon="0.23131">
        <ele>2178.5</ele>
        <time>2022-02-09T10:15:47Z</time>
      </trkpt>
      <trkpt lat="42.85788" lon="0.23131">
        <ele>2178.5</ele>
        <time>2022-02-09T10:15:48Z</time>
      </trkpt>
      <trkpt lat="42.85788" lon="0.23131">
        <ele>2178.5</ele>
        <time>2022-02-09T10:15:49Z</time>
      </trkpt>
      <trkpt lat="42.85788" lon="0.23131">
        <ele>2178.5</ele>
        <time>2022-02-09T10:15:50Z</time>
      </trkpt>
      <trkpt lat="42.85788" lon="0.23131">
        <ele>2178.5</ele>
        <time>2022-02-09T10:15:51Z</time>
      </trkpt>
      <trkpt lat="42.85788" lon="0.23131">
        <ele>2178.5</ele>
        <time>2022-02-09T10:15:52Z</time>
      </trkpt>
      <trkpt lat="42.85788" lon="0.23131">
        <ele>2178.5</ele>
        <time>2022-02-09T10:15:53Z</time>
      </trkpt>
      <trkpt lat="42.85788" lon="0.23131">
        <ele>2178.5</ele>
        <time>2022-02-09T10:15:54Z</time>
      </trkpt>
      <trkpt lat="42.85788" lon="0.23131">
        <ele>2178.5</ele>
        <time>2022-02-09T10:15:55Z</time>
      </trkpt>
      <trkpt lat="42.85788" lon="0.23131">
        <ele>2178.5</ele>
        <time>2022-02-09T10:15:56Z</time>
      </trkpt>
      <trkpt lat="42.85788" lon="0.23131">
        <ele>2178.5</ele>
        <time>2022-02-09T10:15:57Z</time>
      </trkpt>
      <trkpt lat="42.85788" lon="0.23131">
        <ele>2178.5</ele>
        <time>2022-02-09T10:15:58Z</time>
      </trkpt>
      <trkpt lat="42.85788" lon="0.23131">
        <ele>2178.5</ele>
        <time>2022-02-09T10:15:59Z</time>
      </trkpt>
      <trkpt lat="42.85788" lon="0.23131">
        <ele>2178.5</ele>
        <time>2022-02-09T10:16:00Z</time>
      </trkpt>
      <trkpt lat="42.85788" lon="0.23131">
        <ele>2178.5</ele>
        <time>2022-02-09T10:16:01Z</time>
      </trkpt>
      <trkpt lat="42.85788" lon="0.23131">
        <ele>2178.5</ele>
        <time>2022-02-09T10:16:02Z</time>
      </trkpt>
      <trkpt lat="42.85788" lon="0.23131">
        <ele>2178.5</ele>
        <time>2022-02-09T10:16:03Z</time>
      </trkpt>
      <trkpt lat="42.85788" lon="0.23131">
        <ele>2178.5</ele>
        <time>2022-02-09T10:16:04Z</time>
      </trkpt>
      <trkpt lat="42.85788" lon="0.23131">
        <ele>2178.5</ele>
        <time>2022-02-09T10:16:05Z</time>
      </trkpt>
      <trkpt lat="42.85788" lon="0.23131">
        <ele>2178.5</ele>
        <time>2022-02-09T10:16:06Z</time>
      </trkpt>
      <trkpt lat="42.85788" lon="0.23131">
        <ele>2178.5</ele>
        <time>2022-02-09T10:16:07Z</time>
      </trkpt>
      <trkpt lat="42.85788" lon="0.23131">
        <ele>2178.5</ele>
        <time>2022-02-09T10:16:08Z</time>
      </trkpt>
      <trkpt lat="42.85788" lon="0.23131">
        <ele>2178.5</ele>
        <time>2022-02-09T10:16:09Z</time>
      </trkpt>
      <trkpt lat="42.85788" lon="0.23131">
        <ele>2178.5</ele>
        <time>2022-02-09T10:16:10Z</time>
      </trkpt>
      <trkpt lat="42.85788" lon="0.23131">
        <ele>2178.5</ele>
        <time>2022-02-09T10:16:11Z</time>
      </trkpt>
      <trkpt lat="42.85788" lon="0.23131">
        <ele>2178.5</ele>
        <time>2022-02-09T10:16:12Z</time>
      </trkpt>
      <trkpt lat="42.85788" lon="0.23131">
        <ele>2178.5</ele>
        <time>2022-02-09T10:16:13Z</time>
      </trkpt>
      <trkpt lat="42.85788" lon="0.23131">
        <ele>2178.5</ele>
        <time>2022-02-09T10:16:14Z</time>
      </trkpt>
      <trkpt lat="42.85788" lon="0.23131">
        <ele>2178.5</ele>
        <time>2022-02-09T10:16:15Z</time>
      </trkpt>
      <trkpt lat="42.85788" lon="0.23131">
        <ele>2178.5</ele>
        <time>2022-02-09T10:16:16Z</time>
      </trkpt>
      <trkpt lat="42.85788" lon="0.23131">
        <ele>2178.5</ele>
        <time>2022-02-09T10:16:17Z</time>
      </trkpt>
      <trkpt lat="42.85788" lon="0.23131">
        <ele>2178.5</ele>
        <time>2022-02-09T10:16:18Z</time>
      </trkpt>
      <trkpt lat="42.85788" lon="0.23131">
        <ele>2178.5</ele>
        <time>2022-02-09T10:16:19Z</time>
      </trkpt>
      <trkpt lat="42.85788" lon="0.23131">
        <ele>2178.5</ele>
        <time>2022-02-09T10:16:20Z</time>
      </trkpt>
      <trkpt lat="42.85788" lon="0.23131">
        <ele>2178.5</ele>
        <time>2022-02-09T10:16:21Z</time>
      </trkpt>
      <trkpt lat="42.85788" lon="0.23131">
        <ele>2178.5</ele>
        <time>2022-02-09T10:16:22Z</time>
      </trkpt>
      <trkpt lat="42.85788" lon="0.23131">
        <ele>2178.5</ele>
        <time>2022-02-09T10:16:23Z</time>
      </trkpt>
      <trkpt lat="42.85788" lon="0.23131">
        <ele>2178.5</ele>
        <time>2022-02-09T10:16:24Z</time>
      </trkpt>
      <trkpt lat="42.85788" lon="0.23131">
        <ele>2178.5</ele>
        <time>2022-02-09T10:16:25Z</time>
      </trkpt>
      <trkpt lat="42.85788" lon="0.23131">
        <ele>2178.5</ele>
        <time>2022-02-09T10:16:26Z</time>
      </trkpt>
      <trkpt lat="42.85788" lon="0.23131">
        <ele>2178.5</ele>
        <time>2022-02-09T10:16:27Z</time>
      </trkpt>
      <trkpt lat="42.85788" lon="0.23131">
        <ele>2178.5</ele>
        <time>2022-02-09T10:16:28Z</time>
      </trkpt>
      <trkpt lat="42.85788" lon="0.23131">
        <ele>2178.5</ele>
        <time>2022-02-09T10:16:29Z</time>
      </trkpt>
      <trkpt lat="42.85788" lon="0.23131">
        <ele>2178.5</ele>
        <time>2022-02-09T10:16:30Z</time>
      </trkpt>
      <trkpt lat="42.85788" lon="0.23131">
        <ele>2178.5</ele>
        <time>2022-02-09T10:16:31Z</time>
      </trkpt>
      <trkpt lat="42.85788" lon="0.23131">
        <ele>2178.5</ele>
        <time>2022-02-09T10:16:32Z</time>
      </trkpt>
      <trkpt lat="42.85788" lon="0.23131">
        <ele>2178.5</ele>
        <time>2022-02-09T10:16:33Z</time>
      </trkpt>
      <trkpt lat="42.85788" lon="0.23131">
        <ele>2178.5</ele>
        <time>2022-02-09T10:16:34Z</time>
      </trkpt>
      <trkpt lat="42.85788" lon="0.23131">
        <ele>2178.5</ele>
        <time>2022-02-09T10:16:35Z</time>
      </trkpt>
      <trkpt lat="42.85788" lon="0.23131">
        <ele>2178.5</ele>
        <time>2022-02-09T10:16:36Z</time>
      </trkpt>
      <trkpt lat="42.85788" lon="0.23131">
        <ele>2178.5</ele>
        <time>2022-02-09T10:16:37Z</time>
      </trkpt>
      <trkpt lat="42.85788" lon="0.23131">
        <ele>2178.5</ele>
        <time>2022-02-09T10:16:38Z</time>
      </trkpt>
      <trkpt lat="42.85788" lon="0.23131">
        <ele>2178.5</ele>
        <time>2022-02-09T10:16:39Z</time>
      </trkpt>
      <trkpt lat="42.85788" lon="0.23131">
        <ele>2178.5</ele>
        <time>2022-02-09T10:16:40Z</time>
      </trkpt>
      <trkpt lat="42.85788" lon="0.23131">
        <ele>2178.5</ele>
        <time>2022-02-09T10:16:41Z</time>
      </trkpt>
      <trkpt lat="42.85788" lon="0.23131">
        <ele>2178.5</ele>
        <time>2022-02-09T10:16:42Z</time>
      </trkpt>
      <trkpt lat="42.85788" lon="0.23131">
        <ele>2178.5</ele>
        <time>2022-02-09T10:16:43Z</time>
      </trkpt>
      <trkpt lat="42.85788" lon="0.23131">
        <ele>2178.5</ele>
        <time>2022-02-09T10:16:44Z</time>
      </trkpt>
      <trkpt lat="42.85788" lon="0.23131">
        <ele>2178.5</ele>
        <time>2022-02-09T10:16:45Z</time>
      </trkpt>
      <trkpt lat="42.85788" lon="0.23131">
        <ele>2178.5</ele>
        <time>2022-02-09T10:16:46Z</time>
      </trkpt>
      <trkpt lat="42.85788" lon="0.23131">
        <ele>2178.5</ele>
        <time>2022-02-09T10:16:47Z</time>
      </trkpt>
      <trkpt lat="42.85788" lon="0.23131">
        <ele>2178.5</ele>
        <time>2022-02-09T10:16:48Z</time>
      </trkpt>
      <trkpt lat="42.85788" lon="0.23131">
        <ele>2178.5</ele>
        <time>2022-02-09T10:16:49Z</time>
      </trkpt>
      <trkpt lat="42.85788" lon="0.23131">
        <ele>2178.5</ele>
        <time>2022-02-09T10:16:50Z</time>
      </trkpt>
      <trkpt lat="42.85788" lon="0.23131">
        <ele>2178.5</ele>
        <time>2022-02-09T10:16:51Z</time>
      </trkpt>
      <trkpt lat="42.85788" lon="0.23131">
        <ele>2178.5</ele>
        <time>2022-02-09T10:16:52Z</time>
      </trkpt>
      <trkpt lat="42.85788" lon="0.23131">
        <ele>2178.5</ele>
        <time>2022-02-09T10:16:53Z</time>
      </trkpt>
      <trkpt lat="42.85788" lon="0.23131">
        <ele>2178.5</ele>
        <time>2022-02-09T10:16:54Z</time>
      </trkpt>
      <trkpt lat="42.85788" lon="0.23131">
        <ele>2178.5</ele>
        <time>2022-02-09T10:16:55Z</time>
      </trkpt>
      <trkpt lat="42.85788" lon="0.23131">
        <ele>2178.5</ele>
        <time>2022-02-09T10:16:56Z</time>
      </trkpt>
      <trkpt lat="42.85788" lon="0.23131">
        <ele>2178.5</ele>
        <time>2022-02-09T10:16:57Z</time>
      </trkpt>
      <trkpt lat="42.85788" lon="0.23131">
        <ele>2178.5</ele>
        <time>2022-02-09T10:16:58Z</time>
      </trkpt>
      <trkpt lat="42.85788" lon="0.23131">
        <ele>2178.5</ele>
        <time>2022-02-09T10:16:59Z</time>
      </trkpt>
      <trkpt lat="42.85788" lon="0.23131">
        <ele>2178.5</ele>
        <time>2022-02-09T10:17:00Z</time>
      </trkpt>
      <trkpt lat="42.85788" lon="0.23131">
        <ele>2178.5</ele>
        <time>2022-02-09T10:17:01Z</time>
      </trkpt>
      <trkpt lat="42.85788" lon="0.23131">
        <ele>2178.5</ele>
        <time>2022-02-09T10:17:02Z</time>
      </trkpt>
      <trkpt lat="42.85788" lon="0.23131">
        <ele>2178.5</ele>
        <time>2022-02-09T10:17:03Z</time>
      </trkpt>
      <trkpt lat="42.85788" lon="0.23131">
        <ele>2178.5</ele>
        <time>2022-02-09T10:17:04Z</time>
      </trkpt>
      <trkpt lat="42.85788" lon="0.23131">
        <ele>2178.5</ele>
        <time>2022-02-09T10:17:05Z</time>
      </trkpt>
      <trkpt lat="42.85788" lon="0.23131">
        <ele>2178.5</ele>
        <time>2022-02-09T10:17:06Z</time>
      </trkpt>
      <trkpt lat="42.85788" lon="0.23131">
        <ele>2178.5</ele>
        <time>2022-02-09T10:17:07Z</time>
      </trkpt>
      <trkpt lat="42.85788" lon="0.23131">
        <ele>2178.5</ele>
        <time>2022-02-09T10:17:08Z</time>
      </trkpt>
      <trkpt lat="42.85788" lon="0.23131">
        <ele>2178.5</ele>
        <time>2022-02-09T10:17:09Z</time>
      </trkpt>
      <trkpt lat="42.85788" lon="0.23131">
        <ele>2178.5</ele>
        <time>2022-02-09T10:17:10Z</time>
      </trkpt>
      <trkpt lat="42.85788" lon="0.23131">
        <ele>2178.5</ele>
        <time>2022-02-09T10:17:11Z</time>
      </trkpt>
      <trkpt lat="42.85788" lon="0.23131">
        <ele>2178.5</ele>
        <time>2022-02-09T10:17:12Z</time>
      </trkpt>
      <trkpt lat="42.85788" lon="0.23131">
        <ele>2178.5</ele>
        <time>2022-02-09T10:17:13Z</time>
      </trkpt>
      <trkpt lat="42.85788" lon="0.23131">
        <ele>2178.5</ele>
        <time>2022-02-09T10:17:14Z</time>
      </trkpt>
      <trkpt lat="42.85788" lon="0.23131">
        <ele>2178.5</ele>
        <time>2022-02-09T10:17:15Z</time>
      </trkpt>
      <trkpt lat="42.85788" lon="0.23131">
        <ele>2178.5</ele>
        <time>2022-02-09T10:17:16Z</time>
      </trkpt>
      <trkpt lat="42.85788" lon="0.23131">
        <ele>2178.5</ele>
        <time>2022-02-09T10:17:17Z</time>
      </trkpt>
      <trkpt lat="42.85788" lon="0.23131">
        <ele>2178.5</ele>
        <time>2022-02-09T10:17:18Z</time>
      </trkpt>
      <trkpt lat="42.85788" lon="0.23131">
        <ele>2178.5</ele>
        <time>2022-02-09T10:17:19Z</time>
      </trkpt>
      <trkpt lat="42.85788" lon="0.23131">
        <ele>2178.5</ele>
        <time>2022-02-09T10:17:20Z</time>
      </trkpt>
      <trkpt lat="42.85788" lon="0.23131">
        <ele>2178.5</ele>
        <time>2022-02-09T10:17:21Z</time>
      </trkpt>
      <trkpt lat="42.85788" lon="0.23131">
        <ele>2178.5</ele>
        <time>2022-02-09T10:17:22Z</time>
      </trkpt>
      <trkpt lat="42.85788" lon="0.23131">
        <ele>2178.5</ele>
        <time>2022-02-09T10:17:23Z</time>
      </trkpt>
      <trkpt lat="42.85788" lon="0.23131">
        <ele>2178.5</ele>
        <time>2022-02-09T10:17:24Z</time>
      </trkpt>
      <trkpt lat="42.85788" lon="0.23131">
        <ele>2178.5</ele>
        <time>2022-02-09T10:17:25Z</time>
      </trkpt>
      <trkpt lat="42.85788" lon="0.23131">
        <ele>2178.5</ele>
        <time>2022-02-09T10:17:26Z</time>
      </trkpt>
      <trkpt lat="42.85788" lon="0.23131">
        <ele>2178.5</ele>
        <time>2022-02-09T10:17:27Z</time>
      </trkpt>
      <trkpt lat="42.85788" lon="0.23131">
        <ele>2178.5</ele>
        <time>2022-02-09T10:17:28Z</time>
      </trkpt>
      <trkpt lat="42.85788" lon="0.23131">
        <ele>2178.5</ele>
        <time>2022-02-09T10:17:29Z</time>
      </trkpt>
      <trkpt lat="42.85788" lon="0.23131">
        <ele>2178.5</ele>
        <time>2022-02-09T10:17:30Z</time>
      </trkpt>
      <trkpt lat="42.85788" lon="0.23131">
        <ele>2178.5</ele>
        <time>2022-02-09T10:17:31Z</time>
      </trkpt>
      <trkpt lat="42.85788" lon="0.23131">
        <ele>2178.5</ele>
        <time>2022-02-09T10:17:32Z</time>
      </trkpt>
      <trkpt lat="42.85788" lon="0.23131">
        <ele>2178.5</ele>
        <time>2022-02-09T10:17:33Z</time>
      </trkpt>
      <trkpt lat="42.85788" lon="0.23131">
        <ele>2178.5</ele>
        <time>2022-02-09T10:17:34Z</time>
      </trkpt>
      <trkpt lat="42.85788" lon="0.23131">
        <ele>2178.5</ele>
        <time>2022-02-09T10:17:35Z</time>
      </trkpt>
      <trkpt lat="42.85788" lon="0.23131">
        <ele>2178.5</ele>
        <time>2022-02-09T10:17:36Z</time>
      </trkpt>
      <trkpt lat="42.85788" lon="0.23131">
        <ele>2178.5</ele>
        <time>2022-02-09T10:17:37Z</time>
      </trkpt>
      <trkpt lat="42.85788" lon="0.23131">
        <ele>2178.5</ele>
        <time>2022-02-09T10:17:38Z</time>
      </trkpt>
      <trkpt lat="42.85788" lon="0.23131">
        <ele>2178.5</ele>
        <time>2022-02-09T10:17:39Z</time>
      </trkpt>
      <trkpt lat="42.85788" lon="0.23131">
        <ele>2178.5</ele>
        <time>2022-02-09T10:17:40Z</time>
      </trkpt>
      <trkpt lat="42.85788" lon="0.23131">
        <ele>2178.5</ele>
        <time>2022-02-09T10:17:41Z</time>
      </trkpt>
      <trkpt lat="42.85788" lon="0.23131">
        <ele>2178.5</ele>
        <time>2022-02-09T10:17:42Z</time>
      </trkpt>
      <trkpt lat="42.85788" lon="0.23131">
        <ele>2178.5</ele>
        <time>2022-02-09T10:17:43Z</time>
      </trkpt>
      <trkpt lat="42.85788" lon="0.23131">
        <ele>2178.5</ele>
        <time>2022-02-09T10:17:44Z</time>
      </trkpt>
      <trkpt lat="42.85788" lon="0.23131">
        <ele>2178.5</ele>
        <time>2022-02-09T10:17:45Z</time>
      </trkpt>
      <trkpt lat="42.85788" lon="0.23131">
        <ele>2178.5</ele>
        <time>2022-02-09T10:17:46Z</time>
      </trkpt>
      <trkpt lat="42.85788" lon="0.23131">
        <ele>2178.5</ele>
        <time>2022-02-09T10:17:47Z</time>
      </trkpt>
      <trkpt lat="42.85788" lon="0.23131">
        <ele>2178.5</ele>
        <time>2022-02-09T10:17:48Z</time>
      </trkpt>
      <trkpt lat="42.85788" lon="0.23131">
        <ele>2178.5</ele>
        <time>2022-02-09T10:17:49Z</time>
      </trkpt>
      <trkpt lat="42.85788" lon="0.23131">
        <ele>2178.5</ele>
        <time>2022-02-09T10:17:50Z</time>
      </trkpt>
      <trkpt lat="42.85788" lon="0.23131">
        <ele>2178.5</ele>
        <time>2022-02-09T10:17:51Z</time>
      </trkpt>
      <trkpt lat="42.85788" lon="0.23131">
        <ele>2178.5</ele>
        <time>2022-02-09T10:17:52Z</time>
      </trkpt>
      <trkpt lat="42.85788" lon="0.23131">
        <ele>2178.5</ele>
        <time>2022-02-09T10:17:53Z</time>
      </trkpt>
      <trkpt lat="42.85788" lon="0.23131">
        <ele>2178.5</ele>
        <time>2022-02-09T10:17:54Z</time>
      </trkpt>
      <trkpt lat="42.85788" lon="0.23131">
        <ele>2178.5</ele>
        <time>2022-02-09T10:17:55Z</time>
      </trkpt>
      <trkpt lat="42.85788" lon="0.23131">
        <ele>2178.5</ele>
        <time>2022-02-09T10:17:56Z</time>
      </trkpt>
      <trkpt lat="42.85788" lon="0.23131">
        <ele>2178.5</ele>
        <time>2022-02-09T10:17:57Z</time>
      </trkpt>
      <trkpt lat="42.85788" lon="0.23131">
        <ele>2178.5</ele>
        <time>2022-02-09T10:17:58Z</time>
      </trkpt>
      <trkpt lat="42.85788" lon="0.23131">
        <ele>2178.5</ele>
        <time>2022-02-09T10:17:59Z</time>
      </trkpt>
      <trkpt lat="42.85788" lon="0.23131">
        <ele>2178.5</ele>
        <time>2022-02-09T10:18:00Z</time>
      </trkpt>
      <trkpt lat="42.85788" lon="0.23131">
        <ele>2178.5</ele>
        <time>2022-02-09T10:18:01Z</time>
      </trkpt>
      <trkpt lat="42.85788" lon="0.23131">
        <ele>2178.5</ele>
        <time>2022-02-09T10:18:02Z</time>
      </trkpt>
      <trkpt lat="42.85788" lon="0.23131">
        <ele>2178.5</ele>
        <time>2022-02-09T10:18:03Z</time>
      </trkpt>
      <trkpt lat="42.85788" lon="0.23131">
        <ele>2178.5</ele>
        <time>2022-02-09T10:18:04Z</time>
      </trkpt>
      <trkpt lat="42.85788" lon="0.23131">
        <ele>2178.5</ele>
        <time>2022-02-09T10:18:05Z</time>
      </trkpt>
      <trkpt lat="42.85788" lon="0.23131">
        <ele>2178.5</ele>
        <time>2022-02-09T10:18:06Z</time>
      </trkpt>
      <trkpt lat="42.85788" lon="0.23131">
        <ele>2178.5</ele>
        <time>2022-02-09T10:18:07Z</time>
      </trkpt>
      <trkpt lat="42.85788" lon="0.23131">
        <ele>2178.5</ele>
        <time>2022-02-09T10:18:08Z</time>
      </trkpt>
      <trkpt lat="42.85788" lon="0.23131">
        <ele>2178.5</ele>
        <time>2022-02-09T10:18:09Z</time>
      </trkpt>
      <trkpt lat="42.85788" lon="0.23131">
        <ele>2178.5</ele>
        <time>2022-02-09T10:18:10Z</time>
      </trkpt>
      <trkpt lat="42.85788" lon="0.23131">
        <ele>2178.5</ele>
        <time>2022-02-09T10:18:11Z</time>
      </trkpt>
      <trkpt lat="42.85788" lon="0.23131">
        <ele>2178.5</ele>
        <time>2022-02-09T10:18:12Z</time>
      </trkpt>
      <trkpt lat="42.85788" lon="0.23131">
        <ele>2178.5</ele>
        <time>2022-02-09T10:18:13Z</time>
      </trkpt>
      <trkpt lat="42.85788" lon="0.23131">
        <ele>2178.5</ele>
        <time>2022-02-09T10:18:14Z</time>
      </trkpt>
      <trkpt lat="42.85788" lon="0.23131">
        <ele>2178.5</ele>
        <time>2022-02-09T10:18:15Z</time>
      </trkpt>
      <trkpt lat="42.85788" lon="0.23131">
        <ele>2178.5</ele>
        <time>2022-02-09T10:18:16Z</time>
      </trkpt>
      <trkpt lat="42.85788" lon="0.23131">
        <ele>2178.5</ele>
        <time>2022-02-09T10:18:17Z</time>
      </trkpt>
      <trkpt lat="42.85788" lon="0.23131">
        <ele>2178.5</ele>
        <time>2022-02-09T10:18:18Z</time>
      </trkpt>
      <trkpt lat="42.85788" lon="0.23131">
        <ele>2178.5</ele>
        <time>2022-02-09T10:18:19Z</time>
      </trkpt>
      <trkpt lat="42.85788" lon="0.23131">
        <ele>2178.5</ele>
        <time>2022-02-09T10:18:20Z</time>
      </trkpt>
      <trkpt lat="42.85788" lon="0.23131">
        <ele>2178.5</ele>
        <time>2022-02-09T10:18:21Z</time>
      </trkpt>
      <trkpt lat="42.85788" lon="0.23131">
        <ele>2178.5</ele>
        <time>2022-02-09T10:18:22Z</time>
      </trkpt>
      <trkpt lat="42.85788" lon="0.23131">
        <ele>2178.5</ele>
        <time>2022-02-09T10:18:23Z</time>
      </trkpt>
      <trkpt lat="42.85788" lon="0.23131">
        <ele>2178.5</ele>
        <time>2022-02-09T10:18:24Z</time>
      </trkpt>
      <trkpt lat="42.85788" lon="0.23131">
        <ele>2178.5</ele>
        <time>2022-02-09T10:18:25Z</time>
      </trkpt>
      <trkpt lat="42.85788" lon="0.23131">
        <ele>2178.5</ele>
        <time>2022-02-09T10:18:26Z</time>
      </trkpt>
      <trkpt lat="42.85788" lon="0.23131">
        <ele>2178.5</ele>
        <time>2022-02-09T10:18:27Z</time>
      </trkpt>
      <trkpt lat="42.85788" lon="0.23131">
        <ele>2178.5</ele>
        <time>2022-02-09T10:18:28Z</time>
      </trkpt>
      <trkpt lat="42.85788" lon="0.23131">
        <ele>2178.5</ele>
        <time>2022-02-09T10:18:29Z</time>
      </trkpt>
      <trkpt lat="42.85788" lon="0.23131">
        <ele>2178.5</ele>
        <time>2022-02-09T10:18:30Z</time>
      </trkpt>
      <trkpt lat="42.85788" lon="0.23131">
        <ele>2178.5</ele>
        <time>2022-02-09T10:18:31Z</time>
      </trkpt>
      <trkpt lat="42.85788" lon="0.23131">
        <ele>2178.5</ele>
        <time>2022-02-09T10:18:32Z</time>
      </trkpt>
      <trkpt lat="42.85788" lon="0.23131">
        <ele>2178.5</ele>
        <time>2022-02-09T10:18:33Z</time>
      </trkpt>
      <trkpt lat="42.85788" lon="0.23131">
        <ele>2178.5</ele>
        <time>2022-02-09T10:18:34Z</time>
      </trkpt>
      <trkpt lat="42.85788" lon="0.23131">
        <ele>2178.5</ele>
        <time>2022-02-09T10:18:35Z</time>
      </trkpt>
      <trkpt lat="42.85788" lon="0.23131">
        <ele>2178.5</ele>
        <time>2022-02-09T10:18:36Z</time>
      </trkpt>
      <trkpt lat="42.85788" lon="0.23131">
        <ele>2178.5</ele>
        <time>2022-02-09T10:18:37Z</time>
      </trkpt>
      <trkpt lat="42.85788" lon="0.23131">
        <ele>2178.5</ele>
        <time>2022-02-09T10:18:38Z</time>
      </trkpt>
      <trkpt lat="42.85788" lon="0.2313">
        <ele>2178.6</ele>
        <time>2022-02-09T10:18:39Z</time>
      </trkpt>
      <trkpt lat="42.85789" lon="0.23128">
        <ele>2178.8</ele>
        <time>2022-02-09T10:18:40Z</time>
      </trkpt>
      <trkpt lat="42.85789" lon="0.23128">
        <ele>2178.9</ele>
        <time>2022-02-09T10:18:41Z</time>
      </trkpt>
      <trkpt lat="42.8579" lon="0.23127">
        <ele>2178.9</ele>
        <time>2022-02-09T10:18:42Z</time>
      </trkpt>
      <trkpt lat="42.8579" lon="0.23126">
        <ele>2179</ele>
        <time>2022-02-09T10:18:43Z</time>
      </trkpt>
      <trkpt lat="42.85791" lon="0.23126">
        <ele>2179.1</ele>
        <time>2022-02-09T10:18:44Z</time>
      </trkpt>
      <trkpt lat="42.85791" lon="0.23125">
        <ele>2179.2</ele>
        <time>2022-02-09T10:18:45Z</time>
      </trkpt>
      <trkpt lat="42.85792" lon="0.23125">
        <ele>2179.3</ele>
        <time>2022-02-09T10:18:46Z</time>
      </trkpt>
      <trkpt lat="42.85793" lon="0.23124">
        <ele>2179.5</ele>
        <time>2022-02-09T10:18:47Z</time>
      </trkpt>
      <trkpt lat="42.85794" lon="0.23124">
        <ele>2179.6</ele>
        <time>2022-02-09T10:18:48Z</time>
      </trkpt>
      <trkpt lat="42.85794" lon="0.23123">
        <ele>2179.7</ele>
        <time>2022-02-09T10:18:49Z</time>
      </trkpt>
      <trkpt lat="42.85795" lon="0.23123">
        <ele>2179.8</ele>
        <time>2022-02-09T10:18:50Z</time>
      </trkpt>
      <trkpt lat="42.85795" lon="0.23122">
        <ele>2179.9</ele>
        <time>2022-02-09T10:18:51Z</time>
      </trkpt>
      <trkpt lat="42.85796" lon="0.23121">
        <ele>2180</ele>
        <time>2022-02-09T10:18:52Z</time>
      </trkpt>
      <trkpt lat="42.85797" lon="0.23121">
        <ele>2180.1</ele>
        <time>2022-02-09T10:18:53Z</time>
      </trkpt>
      <trkpt lat="42.85797" lon="0.2312">
        <ele>2180.3</ele>
        <time>2022-02-09T10:18:54Z</time>
      </trkpt>
      <trkpt lat="42.85798" lon="0.2312">
        <ele>2180.4</ele>
        <time>2022-02-09T10:18:55Z</time>
      </trkpt>
      <trkpt lat="42.85798" lon="0.23119">
        <ele>2180.5</ele>
        <time>2022-02-09T10:18:56Z</time>
      </trkpt>
      <trkpt lat="42.85799" lon="0.23119">
        <ele>2180.6</ele>
        <time>2022-02-09T10:18:57Z</time>
      </trkpt>
      <trkpt lat="42.85799" lon="0.23118">
        <ele>2180.7</ele>
        <time>2022-02-09T10:18:58Z</time>
      </trkpt>
      <trkpt lat="42.858" lon="0.23117">
        <ele>2180.9</ele>
        <time>2022-02-09T10:18:59Z</time>
      </trkpt>
      <trkpt lat="42.85801" lon="0.23117">
        <ele>2181.1</ele>
        <time>2022-02-09T10:19:00Z</time>
      </trkpt>
      <trkpt lat="42.85802" lon="0.23116">
        <ele>2181.2</ele>
        <time>2022-02-09T10:19:01Z</time>
      </trkpt>
      <trkpt lat="42.85802" lon="0.23116">
        <ele>2181.3</ele>
        <time>2022-02-09T10:19:02Z</time>
      </trkpt>
      <trkpt lat="42.85803" lon="0.23115">
        <ele>2181.4</ele>
        <time>2022-02-09T10:19:03Z</time>
      </trkpt>
      <trkpt lat="42.85803" lon="0.23114">
        <ele>2181.5</ele>
        <time>2022-02-09T10:19:04Z</time>
      </trkpt>
      <trkpt lat="42.85804" lon="0.23114">
        <ele>2181.6</ele>
        <time>2022-02-09T10:19:05Z</time>
      </trkpt>
      <trkpt lat="42.85804" lon="0.23114">
        <ele>2181.7</ele>
        <time>2022-02-09T10:19:06Z</time>
      </trkpt>
      <trkpt lat="42.85805" lon="0.23113">
        <ele>2181.8</ele>
        <time>2022-02-09T10:19:07Z</time>
      </trkpt>
      <trkpt lat="42.85805" lon="0.23112">
        <ele>2181.9</ele>
        <time>2022-02-09T10:19:08Z</time>
      </trkpt>
      <trkpt lat="42.85806" lon="0.23112">
        <ele>2182.1</ele>
        <time>2022-02-09T10:19:09Z</time>
      </trkpt>
      <trkpt lat="42.85807" lon="0.23111">
        <ele>2182.2</ele>
        <time>2022-02-09T10:19:10Z</time>
      </trkpt>
      <trkpt lat="42.85807" lon="0.2311">
        <ele>2182.3</ele>
        <time>2022-02-09T10:19:11Z</time>
      </trkpt>
      <trkpt lat="42.85808" lon="0.23109">
        <ele>2182.5</ele>
        <time>2022-02-09T10:19:12Z</time>
      </trkpt>
      <trkpt lat="42.85808" lon="0.23108">
        <ele>2182.6</ele>
        <time>2022-02-09T10:19:13Z</time>
      </trkpt>
      <trkpt lat="42.85809" lon="0.23107">
        <ele>2182.7</ele>
        <time>2022-02-09T10:19:14Z</time>
      </trkpt>
      <trkpt lat="42.85809" lon="0.23107">
        <ele>2182.8</ele>
        <time>2022-02-09T10:19:15Z</time>
      </trkpt>
      <trkpt lat="42.8581" lon="0.23106">
        <ele>2182.9</ele>
        <time>2022-02-09T10:19:16Z</time>
      </trkpt>
      <trkpt lat="42.8581" lon="0.23106">
        <ele>2183</ele>
        <time>2022-02-09T10:19:17Z</time>
      </trkpt>
      <trkpt lat="42.8581" lon="0.23106">
        <ele>2183</ele>
        <time>2022-02-09T10:19:18Z</time>
      </trkpt>
      <trkpt lat="42.8581" lon="0.23106">
        <ele>2183</ele>
        <time>2022-02-09T10:19:19Z</time>
      </trkpt>
      <trkpt lat="42.8581" lon="0.23106">
        <ele>2183</ele>
        <time>2022-02-09T10:19:20Z</time>
      </trkpt>
      <trkpt lat="42.8581" lon="0.23105">
        <ele>2183.1</ele>
        <time>2022-02-09T10:19:21Z</time>
      </trkpt>
      <trkpt lat="42.85811" lon="0.23104">
        <ele>2183.2</ele>
        <time>2022-02-09T10:19:22Z</time>
      </trkpt>
      <trkpt lat="42.85811" lon="0.23104">
        <ele>2183.3</ele>
        <time>2022-02-09T10:19:23Z</time>
      </trkpt>
      <trkpt lat="42.85811" lon="0.23103">
        <ele>2183.4</ele>
        <time>2022-02-09T10:19:24Z</time>
      </trkpt>
      <trkpt lat="42.85811" lon="0.23103">
        <ele>2183.4</ele>
        <time>2022-02-09T10:19:25Z</time>
      </trkpt>
      <trkpt lat="42.85811" lon="0.23103">
        <ele>2183.4</ele>
        <time>2022-02-09T10:19:26Z</time>
      </trkpt>
      <trkpt lat="42.85811" lon="0.23103">
        <ele>2183.4</ele>
        <time>2022-02-09T10:19:27Z</time>
      </trkpt>
      <trkpt lat="42.85811" lon="0.23103">
        <ele>2183.4</ele>
        <time>2022-02-09T10:19:28Z</time>
      </trkpt>
      <trkpt lat="42.85811" lon="0.23103">
        <ele>2183.4</ele>
        <time>2022-02-09T10:19:29Z</time>
      </trkpt>
      <trkpt lat="42.85811" lon="0.23103">
        <ele>2183.4</ele>
        <time>2022-02-09T10:19:30Z</time>
      </trkpt>
      <trkpt lat="42.85811" lon="0.23103">
        <ele>2183.4</ele>
        <time>2022-02-09T10:19:31Z</time>
      </trkpt>
      <trkpt lat="42.85812" lon="0.23103">
        <ele>2183.4</ele>
        <time>2022-02-09T10:19:32Z</time>
      </trkpt>
      <trkpt lat="42.85812" lon="0.23102">
        <ele>2183.6</ele>
        <time>2022-02-09T10:19:33Z</time>
      </trkpt>
      <trkpt lat="42.85813" lon="0.23102">
        <ele>2183.7</ele>
        <time>2022-02-09T10:19:34Z</time>
      </trkpt>
      <trkpt lat="42.85814" lon="0.23101">
        <ele>2183.9</ele>
        <time>2022-02-09T10:19:35Z</time>
      </trkpt>
      <trkpt lat="42.85814" lon="0.231">
        <ele>2184</ele>
        <time>2022-02-09T10:19:36Z</time>
      </trkpt>
      <trkpt lat="42.85815" lon="0.231">
        <ele>2184.1</ele>
        <time>2022-02-09T10:19:37Z</time>
      </trkpt>
      <trkpt lat="42.85815" lon="0.23099">
        <ele>2184.3</ele>
        <time>2022-02-09T10:19:38Z</time>
      </trkpt>
      <trkpt lat="42.85816" lon="0.23098">
        <ele>2184.5</ele>
        <time>2022-02-09T10:19:39Z</time>
      </trkpt>
      <trkpt lat="42.85817" lon="0.23097">
        <ele>2184.7</ele>
        <time>2022-02-09T10:19:40Z</time>
      </trkpt>
      <trkpt lat="42.85818" lon="0.23096">
        <ele>2185</ele>
        <time>2022-02-09T10:19:41Z</time>
      </trkpt>
      <trkpt lat="42.85819" lon="0.23096">
        <ele>2185.2</ele>
        <time>2022-02-09T10:19:42Z</time>
      </trkpt>
      <trkpt lat="42.8582" lon="0.23095">
        <ele>2185.3</ele>
        <time>2022-02-09T10:19:43Z</time>
      </trkpt>
      <trkpt lat="42.8582" lon="0.23095">
        <ele>2185.4</ele>
        <time>2022-02-09T10:19:44Z</time>
      </trkpt>
      <trkpt lat="42.8582" lon="0.23095">
        <ele>2185.4</ele>
        <time>2022-02-09T10:19:45Z</time>
      </trkpt>
      <trkpt lat="42.8582" lon="0.23095">
        <ele>2185.4</ele>
        <time>2022-02-09T10:19:46Z</time>
      </trkpt>
      <trkpt lat="42.8582" lon="0.23095">
        <ele>2185.4</ele>
        <time>2022-02-09T10:19:47Z</time>
      </trkpt>
      <trkpt lat="42.8582" lon="0.23095">
        <ele>2185.4</ele>
        <time>2022-02-09T10:19:48Z</time>
      </trkpt>
      <trkpt lat="42.8582" lon="0.23095">
        <ele>2185.4</ele>
        <time>2022-02-09T10:19:49Z</time>
      </trkpt>
      <trkpt lat="42.85821" lon="0.23094">
        <ele>2185.5</ele>
        <time>2022-02-09T10:19:50Z</time>
      </trkpt>
      <trkpt lat="42.85821" lon="0.23093">
        <ele>2185.7</ele>
        <time>2022-02-09T10:19:51Z</time>
      </trkpt>
      <trkpt lat="42.85821" lon="0.23093">
        <ele>2185.7</ele>
        <time>2022-02-09T10:19:52Z</time>
      </trkpt>
      <trkpt lat="42.85821" lon="0.23093">
        <ele>2185.7</ele>
        <time>2022-02-09T10:19:53Z</time>
      </trkpt>
      <trkpt lat="42.85821" lon="0.23093">
        <ele>2185.7</ele>
        <time>2022-02-09T10:19:54Z</time>
      </trkpt>
      <trkpt lat="42.85821" lon="0.23093">
        <ele>2185.7</ele>
        <time>2022-02-09T10:19:55Z</time>
      </trkpt>
      <trkpt lat="42.85821" lon="0.23093">
        <ele>2185.7</ele>
        <time>2022-02-09T10:19:56Z</time>
      </trkpt>
      <trkpt lat="42.85821" lon="0.23093">
        <ele>2185.7</ele>
        <time>2022-02-09T10:19:57Z</time>
      </trkpt>
      <trkpt lat="42.85821" lon="0.23093">
        <ele>2185.7</ele>
        <time>2022-02-09T10:19:58Z</time>
      </trkpt>
      <trkpt lat="42.85821" lon="0.23093">
        <ele>2185.7</ele>
        <time>2022-02-09T10:19:59Z</time>
      </trkpt>
      <trkpt lat="42.85821" lon="0.23093">
        <ele>2185.7</ele>
        <time>2022-02-09T10:20:00Z</time>
      </trkpt>
      <trkpt lat="42.85821" lon="0.23093">
        <ele>2185.7</ele>
        <time>2022-02-09T10:20:01Z</time>
      </trkpt>
      <trkpt lat="42.85821" lon="0.23093">
        <ele>2185.7</ele>
        <time>2022-02-09T10:20:02Z</time>
      </trkpt>
      <trkpt lat="42.85821" lon="0.23093">
        <ele>2185.7</ele>
        <time>2022-02-09T10:20:03Z</time>
      </trkpt>
      <trkpt lat="42.85821" lon="0.23093">
        <ele>2185.7</ele>
        <time>2022-02-09T10:20:04Z</time>
      </trkpt>
      <trkpt lat="42.85821" lon="0.23093">
        <ele>2185.7</ele>
        <time>2022-02-09T10:20:05Z</time>
      </trkpt>
      <trkpt lat="42.85821" lon="0.23093">
        <ele>2185.7</ele>
        <time>2022-02-09T10:20:06Z</time>
      </trkpt>
      <trkpt lat="42.85821" lon="0.23093">
        <ele>2185.8</ele>
        <time>2022-02-09T10:20:07Z</time>
      </trkpt>
      <trkpt lat="42.85821" lon="0.23091">
        <ele>2186.1</ele>
        <time>2022-02-09T10:20:08Z</time>
      </trkpt>
      <trkpt lat="42.85821" lon="0.2309">
        <ele>2186.3</ele>
        <time>2022-02-09T10:20:09Z</time>
      </trkpt>
      <trkpt lat="42.85822" lon="0.23089">
        <ele>2186.5</ele>
        <time>2022-02-09T10:20:10Z</time>
      </trkpt>
      <trkpt lat="42.85822" lon="0.23088">
        <ele>2186.7</ele>
        <time>2022-02-09T10:20:11Z</time>
      </trkpt>
      <trkpt lat="42.85823" lon="0.23087">
        <ele>2186.9</ele>
        <time>2022-02-09T10:20:12Z</time>
      </trkpt>
      <trkpt lat="42.85823" lon="0.23087">
        <ele>2187.1</ele>
        <time>2022-02-09T10:20:13Z</time>
      </trkpt>
      <trkpt lat="42.85824" lon="0.23086">
        <ele>2187.3</ele>
        <time>2022-02-09T10:20:14Z</time>
      </trkpt>
      <trkpt lat="42.85825" lon="0.23085">
        <ele>2187.5</ele>
        <time>2022-02-09T10:20:15Z</time>
      </trkpt>
      <trkpt lat="42.85825" lon="0.23084">
        <ele>2187.8</ele>
        <time>2022-02-09T10:20:16Z</time>
      </trkpt>
      <trkpt lat="42.85826" lon="0.23084">
        <ele>2188</ele>
        <time>2022-02-09T10:20:17Z</time>
      </trkpt>
      <trkpt lat="42.85826" lon="0.23083">
        <ele>2188.2</ele>
        <time>2022-02-09T10:20:18Z</time>
      </trkpt>
      <trkpt lat="42.85827" lon="0.23082">
        <ele>2188.5</ele>
        <time>2022-02-09T10:20:19Z</time>
      </trkpt>
      <trkpt lat="42.85828" lon="0.23082">
        <ele>2188.7</ele>
        <time>2022-02-09T10:20:20Z</time>
      </trkpt>
      <trkpt lat="42.85828" lon="0.23081">
        <ele>2188.9</ele>
        <time>2022-02-09T10:20:21Z</time>
      </trkpt>
      <trkpt lat="42.85829" lon="0.2308">
        <ele>2189.2</ele>
        <time>2022-02-09T10:20:22Z</time>
      </trkpt>
      <trkpt lat="42.8583" lon="0.23079">
        <ele>2189.4</ele>
        <time>2022-02-09T10:20:23Z</time>
      </trkpt>
      <trkpt lat="42.8583" lon="0.23078">
        <ele>2189.6</ele>
        <time>2022-02-09T10:20:24Z</time>
      </trkpt>
      <trkpt lat="42.85831" lon="0.23078">
        <ele>2189.9</ele>
        <time>2022-02-09T10:20:25Z</time>
      </trkpt>
      <trkpt lat="42.85832" lon="0.23077">
        <ele>2190.2</ele>
        <time>2022-02-09T10:20:26Z</time>
      </trkpt>
      <trkpt lat="42.85832" lon="0.23076">
        <ele>2190.4</ele>
        <time>2022-02-09T10:20:27Z</time>
      </trkpt>
      <trkpt lat="42.85833" lon="0.23075">
        <ele>2190.6</ele>
        <time>2022-02-09T10:20:28Z</time>
      </trkpt>
      <trkpt lat="42.85833" lon="0.23074">
        <ele>2190.9</ele>
        <time>2022-02-09T10:20:29Z</time>
      </trkpt>
      <trkpt lat="42.85834" lon="0.23073">
        <ele>2191.1</ele>
        <time>2022-02-09T10:20:30Z</time>
      </trkpt>
      <trkpt lat="42.85835" lon="0.23073">
        <ele>2191.4</ele>
        <time>2022-02-09T10:20:31Z</time>
      </trkpt>
      <trkpt lat="42.85835" lon="0.23072">
        <ele>2191.6</ele>
        <time>2022-02-09T10:20:32Z</time>
      </trkpt>
      <trkpt lat="42.85836" lon="0.23071">
        <ele>2191.8</ele>
        <time>2022-02-09T10:20:33Z</time>
      </trkpt>
      <trkpt lat="42.85836" lon="0.2307">
        <ele>2192</ele>
        <time>2022-02-09T10:20:34Z</time>
      </trkpt>
      <trkpt lat="42.85837" lon="0.2307">
        <ele>2192.3</ele>
        <time>2022-02-09T10:20:35Z</time>
      </trkpt>
      <trkpt lat="42.85837" lon="0.23069">
        <ele>2198.6</ele>
        <time>2022-02-09T10:20:36Z</time>
      </trkpt>
      <trkpt lat="42.85838" lon="0.23068">
        <ele>2198.7</ele>
        <time>2022-02-09T10:20:37Z</time>
      </trkpt>
      <trkpt lat="42.85839" lon="0.23068">
        <ele>2198.8</ele>
        <time>2022-02-09T10:20:38Z</time>
      </trkpt>
      <trkpt lat="42.85839" lon="0.23067">
        <ele>2199</ele>
        <time>2022-02-09T10:20:39Z</time>
      </trkpt>
      <trkpt lat="42.8584" lon="0.23066">
        <ele>2199.1</ele>
        <time>2022-02-09T10:20:40Z</time>
      </trkpt>
      <trkpt lat="42.8584" lon="0.23065">
        <ele>2199.2</ele>
        <time>2022-02-09T10:20:41Z</time>
      </trkpt>
      <trkpt lat="42.85841" lon="0.23064">
        <ele>2199.3</ele>
        <time>2022-02-09T10:20:42Z</time>
      </trkpt>
      <trkpt lat="42.85841" lon="0.23063">
        <ele>2199.5</ele>
        <time>2022-02-09T10:20:43Z</time>
      </trkpt>
      <trkpt lat="42.85842" lon="0.23063">
        <ele>2199.6</ele>
        <time>2022-02-09T10:20:44Z</time>
      </trkpt>
      <trkpt lat="42.85842" lon="0.23062">
        <ele>2199.7</ele>
        <time>2022-02-09T10:20:45Z</time>
      </trkpt>
      <trkpt lat="42.85842" lon="0.23061">
        <ele>2199.8</ele>
        <time>2022-02-09T10:20:46Z</time>
      </trkpt>
      <trkpt lat="42.85843" lon="0.2306">
        <ele>2199.9</ele>
        <time>2022-02-09T10:20:47Z</time>
      </trkpt>
      <trkpt lat="42.85843" lon="0.23059">
        <ele>2200</ele>
        <time>2022-02-09T10:20:48Z</time>
      </trkpt>
      <trkpt lat="42.85843" lon="0.23058">
        <ele>2200.2</ele>
        <time>2022-02-09T10:20:49Z</time>
      </trkpt>
      <trkpt lat="42.85844" lon="0.23057">
        <ele>2200.4</ele>
        <time>2022-02-09T10:20:50Z</time>
      </trkpt>
      <trkpt lat="42.85845" lon="0.23055">
        <ele>2200.7</ele>
        <time>2022-02-09T10:20:51Z</time>
      </trkpt>
      <trkpt lat="42.85846" lon="0.23054">
        <ele>2200.9</ele>
        <time>2022-02-09T10:20:52Z</time>
      </trkpt>
      <trkpt lat="42.85847" lon="0.23053">
        <ele>2201.1</ele>
        <time>2022-02-09T10:20:53Z</time>
      </trkpt>
      <trkpt lat="42.85847" lon="0.23052">
        <ele>2201.1</ele>
        <time>2022-02-09T10:20:54Z</time>
      </trkpt>
      <trkpt lat="42.85847" lon="0.23052">
        <ele>2201.2</ele>
        <time>2022-02-09T10:20:55Z</time>
      </trkpt>
      <trkpt lat="42.85847" lon="0.23051">
        <ele>2201.4</ele>
        <time>2022-02-09T10:20:56Z</time>
      </trkpt>
      <trkpt lat="42.85847" lon="0.23049">
        <ele>2201.5</ele>
        <time>2022-02-09T10:20:57Z</time>
      </trkpt>
      <trkpt lat="42.85847" lon="0.23048">
        <ele>2201.7</ele>
        <time>2022-02-09T10:20:58Z</time>
      </trkpt>
      <trkpt lat="42.85847" lon="0.23047">
        <ele>2201.8</ele>
        <time>2022-02-09T10:20:59Z</time>
      </trkpt>
      <trkpt lat="42.85847" lon="0.23047">
        <ele>2201.8</ele>
        <time>2022-02-09T10:21:00Z</time>
      </trkpt>
      <trkpt lat="42.85847" lon="0.23046">
        <ele>2201.9</ele>
        <time>2022-02-09T10:21:01Z</time>
      </trkpt>
      <trkpt lat="42.85847" lon="0.23045">
        <ele>2202</ele>
        <time>2022-02-09T10:21:02Z</time>
      </trkpt>
      <trkpt lat="42.85848" lon="0.23044">
        <ele>2202.2</ele>
        <time>2022-02-09T10:21:03Z</time>
      </trkpt>
      <trkpt lat="42.85848" lon="0.23043">
        <ele>2202.3</ele>
        <time>2022-02-09T10:21:04Z</time>
      </trkpt>
      <trkpt lat="42.85849" lon="0.23042">
        <ele>2202.5</ele>
        <time>2022-02-09T10:21:05Z</time>
      </trkpt>
      <trkpt lat="42.85849" lon="0.23042">
        <ele>2202.6</ele>
        <time>2022-02-09T10:21:06Z</time>
      </trkpt>
      <trkpt lat="42.8585" lon="0.23041">
        <ele>2202.7</ele>
        <time>2022-02-09T10:21:07Z</time>
      </trkpt>
      <trkpt lat="42.8585" lon="0.23041">
        <ele>2202.8</ele>
        <time>2022-02-09T10:21:08Z</time>
      </trkpt>
      <trkpt lat="42.8585" lon="0.2304">
        <ele>2202.9</ele>
        <time>2022-02-09T10:21:09Z</time>
      </trkpt>
      <trkpt lat="42.8585" lon="0.23039">
        <ele>2203</ele>
        <time>2022-02-09T10:21:10Z</time>
      </trkpt>
      <trkpt lat="42.85851" lon="0.23038">
        <ele>2203.1</ele>
        <time>2022-02-09T10:21:11Z</time>
      </trkpt>
      <trkpt lat="42.85851" lon="0.23038">
        <ele>2203.2</ele>
        <time>2022-02-09T10:21:12Z</time>
      </trkpt>
      <trkpt lat="42.85851" lon="0.23037">
        <ele>2203.3</ele>
        <time>2022-02-09T10:21:13Z</time>
      </trkpt>
      <trkpt lat="42.85851" lon="0.23036">
        <ele>2203.4</ele>
        <time>2022-02-09T10:21:14Z</time>
      </trkpt>
      <trkpt lat="42.85851" lon="0.23035">
        <ele>2203.5</ele>
        <time>2022-02-09T10:21:15Z</time>
      </trkpt>
      <trkpt lat="42.85851" lon="0.23034">
        <ele>2203.6</ele>
        <time>2022-02-09T10:21:16Z</time>
      </trkpt>
      <trkpt lat="42.85851" lon="0.23034">
        <ele>2203.7</ele>
        <time>2022-02-09T10:21:17Z</time>
      </trkpt>
      <trkpt lat="42.85852" lon="0.23034">
        <ele>2203.8</ele>
        <time>2022-02-09T10:21:18Z</time>
      </trkpt>
      <trkpt lat="42.85852" lon="0.23034">
        <ele>2203.9</ele>
        <time>2022-02-09T10:21:19Z</time>
      </trkpt>
      <trkpt lat="42.85853" lon="0.23034">
        <ele>2204</ele>
        <time>2022-02-09T10:21:20Z</time>
      </trkpt>
      <trkpt lat="42.85854" lon="0.23033">
        <ele>2204.1</ele>
        <time>2022-02-09T10:21:21Z</time>
      </trkpt>
      <trkpt lat="42.85854" lon="0.23033">
        <ele>2204.2</ele>
        <time>2022-02-09T10:21:22Z</time>
      </trkpt>
      <trkpt lat="42.85855" lon="0.23033">
        <ele>2204.3</ele>
        <time>2022-02-09T10:21:23Z</time>
      </trkpt>
      <trkpt lat="42.85855" lon="0.23032">
        <ele>2204.4</ele>
        <time>2022-02-09T10:21:24Z</time>
      </trkpt>
      <trkpt lat="42.85855" lon="0.23032">
        <ele>2204.5</ele>
        <time>2022-02-09T10:21:25Z</time>
      </trkpt>
      <trkpt lat="42.85856" lon="0.23032">
        <ele>2204.6</ele>
        <time>2022-02-09T10:21:26Z</time>
      </trkpt>
      <trkpt lat="42.85857" lon="0.23031">
        <ele>2204.8</ele>
        <time>2022-02-09T10:21:27Z</time>
      </trkpt>
      <trkpt lat="42.85858" lon="0.23032">
        <ele>2204.9</ele>
        <time>2022-02-09T10:21:28Z</time>
      </trkpt>
      <trkpt lat="42.85859" lon="0.23032">
        <ele>2205.1</ele>
        <time>2022-02-09T10:21:29Z</time>
      </trkpt>
      <trkpt lat="42.8586" lon="0.23033">
        <ele>2205.2</ele>
        <time>2022-02-09T10:21:30Z</time>
      </trkpt>
      <trkpt lat="42.8586" lon="0.23033">
        <ele>2205.3</ele>
        <time>2022-02-09T10:21:31Z</time>
      </trkpt>
      <trkpt lat="42.8586" lon="0.23033">
        <ele>2205.3</ele>
        <time>2022-02-09T10:21:32Z</time>
      </trkpt>
      <trkpt lat="42.8586" lon="0.23033">
        <ele>2205.3</ele>
        <time>2022-02-09T10:21:33Z</time>
      </trkpt>
      <trkpt lat="42.8586" lon="0.23033">
        <ele>2205.4</ele>
        <time>2022-02-09T10:21:34Z</time>
      </trkpt>
      <trkpt lat="42.8586" lon="0.23033">
        <ele>2205.4</ele>
        <time>2022-02-09T10:21:35Z</time>
      </trkpt>
      <trkpt lat="42.8586" lon="0.23032">
        <ele>2205.5</ele>
        <time>2022-02-09T10:21:36Z</time>
      </trkpt>
      <trkpt lat="42.85861" lon="0.23032">
        <ele>2205.6</ele>
        <time>2022-02-09T10:21:37Z</time>
      </trkpt>
      <trkpt lat="42.85861" lon="0.23031">
        <ele>2205.7</ele>
        <time>2022-02-09T10:21:38Z</time>
      </trkpt>
      <trkpt lat="42.85861" lon="0.2303">
        <ele>2205.8</ele>
        <time>2022-02-09T10:21:39Z</time>
      </trkpt>
      <trkpt lat="42.85862" lon="0.23029">
        <ele>2206</ele>
        <time>2022-02-09T10:21:40Z</time>
      </trkpt>
      <trkpt lat="42.85862" lon="0.23028">
        <ele>2206.1</ele>
        <time>2022-02-09T10:21:41Z</time>
      </trkpt>
      <trkpt lat="42.85862" lon="0.23027">
        <ele>2206.2</ele>
        <time>2022-02-09T10:21:42Z</time>
      </trkpt>
      <trkpt lat="42.85862" lon="0.23026">
        <ele>2206.4</ele>
        <time>2022-02-09T10:21:43Z</time>
      </trkpt>
      <trkpt lat="42.85862" lon="0.23025">
        <ele>2206.5</ele>
        <time>2022-02-09T10:21:44Z</time>
      </trkpt>
      <trkpt lat="42.85862" lon="0.23024">
        <ele>2206.6</ele>
        <time>2022-02-09T10:21:45Z</time>
      </trkpt>
      <trkpt lat="42.85863" lon="0.23023">
        <ele>2206.8</ele>
        <time>2022-02-09T10:21:46Z</time>
      </trkpt>
      <trkpt lat="42.85863" lon="0.23022">
        <ele>2206.9</ele>
        <time>2022-02-09T10:21:47Z</time>
      </trkpt>
      <trkpt lat="42.85863" lon="0.23021">
        <ele>2207</ele>
        <time>2022-02-09T10:21:48Z</time>
      </trkpt>
      <trkpt lat="42.85863" lon="0.23019">
        <ele>2207.3</ele>
        <time>2022-02-09T10:21:49Z</time>
      </trkpt>
      <trkpt lat="42.85862" lon="0.23018">
        <ele>2207.5</ele>
        <time>2022-02-09T10:21:50Z</time>
      </trkpt>
      <trkpt lat="42.85862" lon="0.23016">
        <ele>2207.7</ele>
        <time>2022-02-09T10:21:51Z</time>
      </trkpt>
      <trkpt lat="42.85862" lon="0.23015">
        <ele>2207.9</ele>
        <time>2022-02-09T10:21:52Z</time>
      </trkpt>
      <trkpt lat="42.85862" lon="0.23014">
        <ele>2208</ele>
        <time>2022-02-09T10:21:53Z</time>
      </trkpt>
      <trkpt lat="42.85863" lon="0.23013">
        <ele>2208.2</ele>
        <time>2022-02-09T10:21:54Z</time>
      </trkpt>
      <trkpt lat="42.85863" lon="0.23013">
        <ele>2208.3</ele>
        <time>2022-02-09T10:21:55Z</time>
      </trkpt>
      <trkpt lat="42.85862" lon="0.23012">
        <ele>2208.5</ele>
        <time>2022-02-09T10:21:56Z</time>
      </trkpt>
      <trkpt lat="42.85862" lon="0.2301">
        <ele>2208.7</ele>
        <time>2022-02-09T10:21:57Z</time>
      </trkpt>
      <trkpt lat="42.85862" lon="0.2301">
        <ele>2208.8</ele>
        <time>2022-02-09T10:21:58Z</time>
      </trkpt>
      <trkpt lat="42.85863" lon="0.23009">
        <ele>2208.9</ele>
        <time>2022-02-09T10:21:59Z</time>
      </trkpt>
      <trkpt lat="42.85863" lon="0.23009">
        <ele>2209</ele>
        <time>2022-02-09T10:22:00Z</time>
      </trkpt>
      <trkpt lat="42.85863" lon="0.23009">
        <ele>2209</ele>
        <time>2022-02-09T10:22:01Z</time>
      </trkpt>
      <trkpt lat="42.85864" lon="0.23009">
        <ele>2209.1</ele>
        <time>2022-02-09T10:22:02Z</time>
      </trkpt>
      <trkpt lat="42.85864" lon="0.23009">
        <ele>2209.2</ele>
        <time>2022-02-09T10:22:03Z</time>
      </trkpt>
      <trkpt lat="42.85864" lon="0.2301">
        <ele>2209.3</ele>
        <time>2022-02-09T10:22:04Z</time>
      </trkpt>
      <trkpt lat="42.85865" lon="0.2301">
        <ele>2209.4</ele>
        <time>2022-02-09T10:22:05Z</time>
      </trkpt>
      <trkpt lat="42.85865" lon="0.23009">
        <ele>2209.5</ele>
        <time>2022-02-09T10:22:06Z</time>
      </trkpt>
      <trkpt lat="42.85866" lon="0.23009">
        <ele>2209.6</ele>
        <time>2022-02-09T10:22:07Z</time>
      </trkpt>
      <trkpt lat="42.85866" lon="0.23009">
        <ele>2209.7</ele>
        <time>2022-02-09T10:22:08Z</time>
      </trkpt>
      <trkpt lat="42.85867" lon="0.23009">
        <ele>2209.8</ele>
        <time>2022-02-09T10:22:09Z</time>
      </trkpt>
      <trkpt lat="42.85867" lon="0.23009">
        <ele>2209.8</ele>
        <time>2022-02-09T10:22:10Z</time>
      </trkpt>
      <trkpt lat="42.85867" lon="0.23009">
        <ele>2209.9</ele>
        <time>2022-02-09T10:22:11Z</time>
      </trkpt>
      <trkpt lat="42.85868" lon="0.23009">
        <ele>2210</ele>
        <time>2022-02-09T10:22:12Z</time>
      </trkpt>
      <trkpt lat="42.85868" lon="0.23008">
        <ele>2210</ele>
        <time>2022-02-09T10:22:13Z</time>
      </trkpt>
      <trkpt lat="42.85869" lon="0.23008">
        <ele>2210.1</ele>
        <time>2022-02-09T10:22:14Z</time>
      </trkpt>
      <trkpt lat="42.85869" lon="0.23008">
        <ele>2210.2</ele>
        <time>2022-02-09T10:22:15Z</time>
      </trkpt>
      <trkpt lat="42.8587" lon="0.23008">
        <ele>2210.3</ele>
        <time>2022-02-09T10:22:16Z</time>
      </trkpt>
      <trkpt lat="42.8587" lon="0.23008">
        <ele>2210.5</ele>
        <time>2022-02-09T10:22:17Z</time>
      </trkpt>
      <trkpt lat="42.85871" lon="0.23008">
        <ele>2210.6</ele>
        <time>2022-02-09T10:22:18Z</time>
      </trkpt>
      <trkpt lat="42.85872" lon="0.23008">
        <ele>2210.7</ele>
        <time>2022-02-09T10:22:19Z</time>
      </trkpt>
      <trkpt lat="42.85872" lon="0.23007">
        <ele>2210.8</ele>
        <time>2022-02-09T10:22:20Z</time>
      </trkpt>
      <trkpt lat="42.85872" lon="0.23007">
        <ele>2210.9</ele>
        <time>2022-02-09T10:22:21Z</time>
      </trkpt>
      <trkpt lat="42.85873" lon="0.23007">
        <ele>2211</ele>
        <time>2022-02-09T10:22:22Z</time>
      </trkpt>
      <trkpt lat="42.85873" lon="0.23006">
        <ele>2211.1</ele>
        <time>2022-02-09T10:22:23Z</time>
      </trkpt>
      <trkpt lat="42.85873" lon="0.23005">
        <ele>2211.3</ele>
        <time>2022-02-09T10:22:24Z</time>
      </trkpt>
      <trkpt lat="42.85873" lon="0.23004">
        <ele>2211.6</ele>
        <time>2022-02-09T10:22:25Z</time>
      </trkpt>
      <trkpt lat="42.85874" lon="0.23003">
        <ele>2211.7</ele>
        <time>2022-02-09T10:22:26Z</time>
      </trkpt>
      <trkpt lat="42.85874" lon="0.23001">
        <ele>2212.1</ele>
        <time>2022-02-09T10:22:27Z</time>
      </trkpt>
      <trkpt lat="42.85874" lon="0.23">
        <ele>2212.3</ele>
        <time>2022-02-09T10:22:28Z</time>
      </trkpt>
      <trkpt lat="42.85874" lon="0.22999">
        <ele>2212.4</ele>
        <time>2022-02-09T10:22:29Z</time>
      </trkpt>
      <trkpt lat="42.85875" lon="0.22998">
        <ele>2212.6</ele>
        <time>2022-02-09T10:22:30Z</time>
      </trkpt>
      <trkpt lat="42.85875" lon="0.22997">
        <ele>2212.8</ele>
        <time>2022-02-09T10:22:31Z</time>
      </trkpt>
      <trkpt lat="42.85875" lon="0.22996">
        <ele>2212.9</ele>
        <time>2022-02-09T10:22:32Z</time>
      </trkpt>
      <trkpt lat="42.85875" lon="0.22995">
        <ele>2213.1</ele>
        <time>2022-02-09T10:22:33Z</time>
      </trkpt>
      <trkpt lat="42.85875" lon="0.22994">
        <ele>2213.3</ele>
        <time>2022-02-09T10:22:34Z</time>
      </trkpt>
      <trkpt lat="42.85875" lon="0.22993">
        <ele>2213.4</ele>
        <time>2022-02-09T10:22:35Z</time>
      </trkpt>
      <trkpt lat="42.85875" lon="0.22993">
        <ele>2213.6</ele>
        <time>2022-02-09T10:22:36Z</time>
      </trkpt>
      <trkpt lat="42.85875" lon="0.22992">
        <ele>2213.7</ele>
        <time>2022-02-09T10:22:37Z</time>
      </trkpt>
      <trkpt lat="42.85875" lon="0.22991">
        <ele>2213.9</ele>
        <time>2022-02-09T10:22:38Z</time>
      </trkpt>
      <trkpt lat="42.85875" lon="0.2299">
        <ele>2214</ele>
        <time>2022-02-09T10:22:39Z</time>
      </trkpt>
      <trkpt lat="42.85875" lon="0.22989">
        <ele>2214.2</ele>
        <time>2022-02-09T10:22:40Z</time>
      </trkpt>
      <trkpt lat="42.85876" lon="0.22988">
        <ele>2214.3</ele>
        <time>2022-02-09T10:22:41Z</time>
      </trkpt>
      <trkpt lat="42.85876" lon="0.22987">
        <ele>2214.5</ele>
        <time>2022-02-09T10:22:42Z</time>
      </trkpt>
      <trkpt lat="42.85875" lon="0.22987">
        <ele>2214.6</ele>
        <time>2022-02-09T10:22:43Z</time>
      </trkpt>
      <trkpt lat="42.85875" lon="0.22986">
        <ele>2214.8</ele>
        <time>2022-02-09T10:22:44Z</time>
      </trkpt>
      <trkpt lat="42.85875" lon="0.22985">
        <ele>2214.9</ele>
        <time>2022-02-09T10:22:45Z</time>
      </trkpt>
      <trkpt lat="42.85875" lon="0.22984">
        <ele>2215.1</ele>
        <time>2022-02-09T10:22:46Z</time>
      </trkpt>
      <trkpt lat="42.85875" lon="0.22983">
        <ele>2215.3</ele>
        <time>2022-02-09T10:22:47Z</time>
      </trkpt>
      <trkpt lat="42.85874" lon="0.22983">
        <ele>2215.4</ele>
        <time>2022-02-09T10:22:48Z</time>
      </trkpt>
      <trkpt lat="42.85874" lon="0.22982">
        <ele>2215.6</ele>
        <time>2022-02-09T10:22:49Z</time>
      </trkpt>
      <trkpt lat="42.85874" lon="0.22981">
        <ele>2215.8</ele>
        <time>2022-02-09T10:22:50Z</time>
      </trkpt>
      <trkpt lat="42.85874" lon="0.2298">
        <ele>2215.9</ele>
        <time>2022-02-09T10:22:51Z</time>
      </trkpt>
      <trkpt lat="42.85874" lon="0.22979">
        <ele>2216.1</ele>
        <time>2022-02-09T10:22:52Z</time>
      </trkpt>
      <trkpt lat="42.85873" lon="0.22978">
        <ele>2216.3</ele>
        <time>2022-02-09T10:22:53Z</time>
      </trkpt>
      <trkpt lat="42.85873" lon="0.22977">
        <ele>2216.5</ele>
        <time>2022-02-09T10:22:54Z</time>
      </trkpt>
      <trkpt lat="42.85873" lon="0.22977">
        <ele>2216.7</ele>
        <time>2022-02-09T10:22:55Z</time>
      </trkpt>
      <trkpt lat="42.85873" lon="0.22976">
        <ele>2216.8</ele>
        <time>2022-02-09T10:22:56Z</time>
      </trkpt>
      <trkpt lat="42.85873" lon="0.22975">
        <ele>2217</ele>
        <time>2022-02-09T10:22:57Z</time>
      </trkpt>
      <trkpt lat="42.85873" lon="0.22974">
        <ele>2217.2</ele>
        <time>2022-02-09T10:22:58Z</time>
      </trkpt>
      <trkpt lat="42.85874" lon="0.22974">
        <ele>2217.3</ele>
        <time>2022-02-09T10:22:59Z</time>
      </trkpt>
      <trkpt lat="42.85874" lon="0.22974">
        <ele>2217.5</ele>
        <time>2022-02-09T10:23:00Z</time>
      </trkpt>
      <trkpt lat="42.85875" lon="0.22973">
        <ele>2217.7</ele>
        <time>2022-02-09T10:23:01Z</time>
      </trkpt>
      <trkpt lat="42.85876" lon="0.22973">
        <ele>2217.8</ele>
        <time>2022-02-09T10:23:02Z</time>
      </trkpt>
      <trkpt lat="42.85876" lon="0.22973">
        <ele>2218</ele>
        <time>2022-02-09T10:23:03Z</time>
      </trkpt>
      <trkpt lat="42.85877" lon="0.22973">
        <ele>2218.1</ele>
        <time>2022-02-09T10:23:04Z</time>
      </trkpt>
      <trkpt lat="42.85878" lon="0.22973">
        <ele>2218.2</ele>
        <time>2022-02-09T10:23:05Z</time>
      </trkpt>
      <trkpt lat="42.85878" lon="0.22973">
        <ele>2218.5</ele>
        <time>2022-02-09T10:23:06Z</time>
      </trkpt>
      <trkpt lat="42.85879" lon="0.22973">
        <ele>2218.7</ele>
        <time>2022-02-09T10:23:07Z</time>
      </trkpt>
      <trkpt lat="42.8588" lon="0.22973">
        <ele>2218.8</ele>
        <time>2022-02-09T10:23:08Z</time>
      </trkpt>
      <trkpt lat="42.8588" lon="0.22974">
        <ele>2219</ele>
        <time>2022-02-09T10:23:09Z</time>
      </trkpt>
      <trkpt lat="42.85881" lon="0.22974">
        <ele>2219.1</ele>
        <time>2022-02-09T10:23:10Z</time>
      </trkpt>
      <trkpt lat="42.85881" lon="0.22974">
        <ele>2219.3</ele>
        <time>2022-02-09T10:23:11Z</time>
      </trkpt>
      <trkpt lat="42.85882" lon="0.22974">
        <ele>2219.5</ele>
        <time>2022-02-09T10:23:12Z</time>
      </trkpt>
      <trkpt lat="42.85883" lon="0.22975">
        <ele>2219.6</ele>
        <time>2022-02-09T10:23:13Z</time>
      </trkpt>
      <trkpt lat="42.85883" lon="0.22975">
        <ele>2219.8</ele>
        <time>2022-02-09T10:23:14Z</time>
      </trkpt>
      <trkpt lat="42.85884" lon="0.22975">
        <ele>2220</ele>
        <time>2022-02-09T10:23:15Z</time>
      </trkpt>
      <trkpt lat="42.85884" lon="0.22975">
        <ele>2220.1</ele>
        <time>2022-02-09T10:23:16Z</time>
      </trkpt>
      <trkpt lat="42.85885" lon="0.22976">
        <ele>2220.3</ele>
        <time>2022-02-09T10:23:17Z</time>
      </trkpt>
      <trkpt lat="42.85886" lon="0.22976">
        <ele>2220.4</ele>
        <time>2022-02-09T10:23:18Z</time>
      </trkpt>
      <trkpt lat="42.85886" lon="0.22976">
        <ele>2220.6</ele>
        <time>2022-02-09T10:23:19Z</time>
      </trkpt>
      <trkpt lat="42.85887" lon="0.22975">
        <ele>2220.7</ele>
        <time>2022-02-09T10:23:20Z</time>
      </trkpt>
      <trkpt lat="42.85887" lon="0.22975">
        <ele>2220.8</ele>
        <time>2022-02-09T10:23:21Z</time>
      </trkpt>
      <trkpt lat="42.85887" lon="0.22974">
        <ele>2221</ele>
        <time>2022-02-09T10:23:22Z</time>
      </trkpt>
      <trkpt lat="42.85887" lon="0.22973">
        <ele>2221.2</ele>
        <time>2022-02-09T10:23:23Z</time>
      </trkpt>
      <trkpt lat="42.85887" lon="0.22972">
        <ele>2221.4</ele>
        <time>2022-02-09T10:23:24Z</time>
      </trkpt>
      <trkpt lat="42.85887" lon="0.22971">
        <ele>2221.5</ele>
        <time>2022-02-09T10:23:25Z</time>
      </trkpt>
      <trkpt lat="42.85887" lon="0.2297">
        <ele>2221.7</ele>
        <time>2022-02-09T10:23:26Z</time>
      </trkpt>
      <trkpt lat="42.85887" lon="0.22969">
        <ele>2221.9</ele>
        <time>2022-02-09T10:23:27Z</time>
      </trkpt>
      <trkpt lat="42.85887" lon="0.22968">
        <ele>2222.1</ele>
        <time>2022-02-09T10:23:28Z</time>
      </trkpt>
      <trkpt lat="42.85886" lon="0.22967">
        <ele>2222.3</ele>
        <time>2022-02-09T10:23:29Z</time>
      </trkpt>
      <trkpt lat="42.85886" lon="0.22966">
        <ele>2222.4</ele>
        <time>2022-02-09T10:23:30Z</time>
      </trkpt>
      <trkpt lat="42.85886" lon="0.22966">
        <ele>2222.6</ele>
        <time>2022-02-09T10:23:31Z</time>
      </trkpt>
      <trkpt lat="42.85886" lon="0.22965">
        <ele>2222.7</ele>
        <time>2022-02-09T10:23:32Z</time>
      </trkpt>
      <trkpt lat="42.85886" lon="0.22964">
        <ele>2222.9</ele>
        <time>2022-02-09T10:23:33Z</time>
      </trkpt>
      <trkpt lat="42.85886" lon="0.22963">
        <ele>2223</ele>
        <time>2022-02-09T10:23:34Z</time>
      </trkpt>
      <trkpt lat="42.85886" lon="0.22962">
        <ele>2223.2</ele>
        <time>2022-02-09T10:23:35Z</time>
      </trkpt>
      <trkpt lat="42.85886" lon="0.22962">
        <ele>2223.3</ele>
        <time>2022-02-09T10:23:36Z</time>
      </trkpt>
      <trkpt lat="42.85886" lon="0.22961">
        <ele>2223.4</ele>
        <time>2022-02-09T10:23:37Z</time>
      </trkpt>
      <trkpt lat="42.85886" lon="0.2296">
        <ele>2223.6</ele>
        <time>2022-02-09T10:23:38Z</time>
      </trkpt>
      <trkpt lat="42.85886" lon="0.22959">
        <ele>2223.7</ele>
        <time>2022-02-09T10:23:39Z</time>
      </trkpt>
      <trkpt lat="42.85886" lon="0.22958">
        <ele>2223.9</ele>
        <time>2022-02-09T10:23:40Z</time>
      </trkpt>
      <trkpt lat="42.85886" lon="0.22957">
        <ele>2224</ele>
        <time>2022-02-09T10:23:41Z</time>
      </trkpt>
      <trkpt lat="42.85886" lon="0.22956">
        <ele>2224.2</ele>
        <time>2022-02-09T10:23:42Z</time>
      </trkpt>
      <trkpt lat="42.85886" lon="0.22956">
        <ele>2224.3</ele>
        <time>2022-02-09T10:23:43Z</time>
      </trkpt>
      <trkpt lat="42.85886" lon="0.22955">
        <ele>2224.5</ele>
        <time>2022-02-09T10:23:44Z</time>
      </trkpt>
      <trkpt lat="42.85886" lon="0.22954">
        <ele>2224.7</ele>
        <time>2022-02-09T10:23:45Z</time>
      </trkpt>
      <trkpt lat="42.85886" lon="0.22953">
        <ele>2224.9</ele>
        <time>2022-02-09T10:23:46Z</time>
      </trkpt>
      <trkpt lat="42.85886" lon="0.22951">
        <ele>2225.1</ele>
        <time>2022-02-09T10:23:47Z</time>
      </trkpt>
      <trkpt lat="42.85886" lon="0.2295">
        <ele>2225.2</ele>
        <time>2022-02-09T10:23:48Z</time>
      </trkpt>
      <trkpt lat="42.85886" lon="0.2295">
        <ele>2225.4</ele>
        <time>2022-02-09T10:23:49Z</time>
      </trkpt>
      <trkpt lat="42.85886" lon="0.22949">
        <ele>2225.5</ele>
        <time>2022-02-09T10:23:50Z</time>
      </trkpt>
      <trkpt lat="42.85886" lon="0.22948">
        <ele>2225.7</ele>
        <time>2022-02-09T10:23:51Z</time>
      </trkpt>
      <trkpt lat="42.85886" lon="0.22947">
        <ele>2225.9</ele>
        <time>2022-02-09T10:23:52Z</time>
      </trkpt>
      <trkpt lat="42.85886" lon="0.22946">
        <ele>2226</ele>
        <time>2022-02-09T10:23:53Z</time>
      </trkpt>
      <trkpt lat="42.85886" lon="0.22945">
        <ele>2226.2</ele>
        <time>2022-02-09T10:23:54Z</time>
      </trkpt>
      <trkpt lat="42.85885" lon="0.22944">
        <ele>2226.4</ele>
        <time>2022-02-09T10:23:55Z</time>
      </trkpt>
      <trkpt lat="42.85885" lon="0.22943">
        <ele>2226.5</ele>
        <time>2022-02-09T10:23:56Z</time>
      </trkpt>
      <trkpt lat="42.85885" lon="0.22943">
        <ele>2226.5</ele>
        <time>2022-02-09T10:23:57Z</time>
      </trkpt>
      <trkpt lat="42.85885" lon="0.22942">
        <ele>2226.6</ele>
        <time>2022-02-09T10:23:58Z</time>
      </trkpt>
      <trkpt lat="42.85885" lon="0.22942">
        <ele>2226.6</ele>
        <time>2022-02-09T10:23:59Z</time>
      </trkpt>
      <trkpt lat="42.85885" lon="0.22942">
        <ele>2226.6</ele>
        <time>2022-02-09T10:24:00Z</time>
      </trkpt>
      <trkpt lat="42.85885" lon="0.22942">
        <ele>2226.6</ele>
        <time>2022-02-09T10:24:01Z</time>
      </trkpt>
      <trkpt lat="42.85885" lon="0.22942">
        <ele>2226.6</ele>
        <time>2022-02-09T10:24:02Z</time>
      </trkpt>
      <trkpt lat="42.85885" lon="0.22942">
        <ele>2226.6</ele>
        <time>2022-02-09T10:24:03Z</time>
      </trkpt>
      <trkpt lat="42.85885" lon="0.22942">
        <ele>2226.6</ele>
        <time>2022-02-09T10:24:04Z</time>
      </trkpt>
      <trkpt lat="42.85885" lon="0.22942">
        <ele>2226.6</ele>
        <time>2022-02-09T10:24:05Z</time>
      </trkpt>
      <trkpt lat="42.85885" lon="0.22942">
        <ele>2226.6</ele>
        <time>2022-02-09T10:24:06Z</time>
      </trkpt>
      <trkpt lat="42.85885" lon="0.22942">
        <ele>2226.6</ele>
        <time>2022-02-09T10:24:07Z</time>
      </trkpt>
      <trkpt lat="42.85885" lon="0.22942">
        <ele>2226.6</ele>
        <time>2022-02-09T10:24:08Z</time>
      </trkpt>
      <trkpt lat="42.85885" lon="0.22942">
        <ele>2226.6</ele>
        <time>2022-02-09T10:24:09Z</time>
      </trkpt>
      <trkpt lat="42.85885" lon="0.22942">
        <ele>2226.6</ele>
        <time>2022-02-09T10:24:10Z</time>
      </trkpt>
      <trkpt lat="42.85885" lon="0.22942">
        <ele>2226.6</ele>
        <time>2022-02-09T10:24:11Z</time>
      </trkpt>
      <trkpt lat="42.85885" lon="0.22942">
        <ele>2226.6</ele>
        <time>2022-02-09T10:24:12Z</time>
      </trkpt>
      <trkpt lat="42.85885" lon="0.22942">
        <ele>2226.6</ele>
        <time>2022-02-09T10:24:13Z</time>
      </trkpt>
      <trkpt lat="42.85885" lon="0.22942">
        <ele>2226.6</ele>
        <time>2022-02-09T10:24:14Z</time>
      </trkpt>
      <trkpt lat="42.85885" lon="0.22942">
        <ele>2226.6</ele>
        <time>2022-02-09T10:24:15Z</time>
      </trkpt>
      <trkpt lat="42.85885" lon="0.22942">
        <ele>2226.6</ele>
        <time>2022-02-09T10:24:16Z</time>
      </trkpt>
      <trkpt lat="42.85885" lon="0.22942">
        <ele>2226.6</ele>
        <time>2022-02-09T10:24:17Z</time>
      </trkpt>
      <trkpt lat="42.85885" lon="0.22942">
        <ele>2226.6</ele>
        <time>2022-02-09T10:24:18Z</time>
      </trkpt>
      <trkpt lat="42.85885" lon="0.22942">
        <ele>2226.6</ele>
        <time>2022-02-09T10:24:19Z</time>
      </trkpt>
      <trkpt lat="42.85885" lon="0.22942">
        <ele>2226.6</ele>
        <time>2022-02-09T10:24:20Z</time>
      </trkpt>
      <trkpt lat="42.85885" lon="0.22942">
        <ele>2226.6</ele>
        <time>2022-02-09T10:24:21Z</time>
      </trkpt>
      <trkpt lat="42.85885" lon="0.22942">
        <ele>2226.6</ele>
        <time>2022-02-09T10:24:22Z</time>
      </trkpt>
      <trkpt lat="42.85885" lon="0.22942">
        <ele>2226.6</ele>
        <time>2022-02-09T10:24:23Z</time>
      </trkpt>
      <trkpt lat="42.85885" lon="0.22942">
        <ele>2226.6</ele>
        <time>2022-02-09T10:24:24Z</time>
      </trkpt>
      <trkpt lat="42.85885" lon="0.22942">
        <ele>2226.7</ele>
        <time>2022-02-09T10:24:25Z</time>
      </trkpt>
      <trkpt lat="42.85885" lon="0.2294">
        <ele>2226.9</ele>
        <time>2022-02-09T10:24:26Z</time>
      </trkpt>
      <trkpt lat="42.85885" lon="0.22939">
        <ele>2227.1</ele>
        <time>2022-02-09T10:24:27Z</time>
      </trkpt>
      <trkpt lat="42.85885" lon="0.22939">
        <ele>2227.2</ele>
        <time>2022-02-09T10:24:28Z</time>
      </trkpt>
      <trkpt lat="42.85885" lon="0.22938">
        <ele>2227.3</ele>
        <time>2022-02-09T10:24:29Z</time>
      </trkpt>
      <trkpt lat="42.85885" lon="0.22938">
        <ele>2227.4</ele>
        <time>2022-02-09T10:24:30Z</time>
      </trkpt>
      <trkpt lat="42.85885" lon="0.22937">
        <ele>2227.4</ele>
        <time>2022-02-09T10:24:31Z</time>
      </trkpt>
      <trkpt lat="42.85885" lon="0.22937">
        <ele>2227.5</ele>
        <time>2022-02-09T10:24:32Z</time>
      </trkpt>
      <trkpt lat="42.85885" lon="0.22936">
        <ele>2227.7</ele>
        <time>2022-02-09T10:24:33Z</time>
      </trkpt>
      <trkpt lat="42.85885" lon="0.22936">
        <ele>2227.7</ele>
        <time>2022-02-09T10:24:34Z</time>
      </trkpt>
      <trkpt lat="42.85885" lon="0.22936">
        <ele>2227.7</ele>
        <time>2022-02-09T10:24:35Z</time>
      </trkpt>
      <trkpt lat="42.85885" lon="0.22936">
        <ele>2227.7</ele>
        <time>2022-02-09T10:24:36Z</time>
      </trkpt>
      <trkpt lat="42.85884" lon="0.22935">
        <ele>2227.8</ele>
        <time>2022-02-09T10:24:37Z</time>
      </trkpt>
      <trkpt lat="42.85884" lon="0.22934">
        <ele>2228</ele>
        <time>2022-02-09T10:24:38Z</time>
      </trkpt>
      <trkpt lat="42.85884" lon="0.22933">
        <ele>2228.1</ele>
        <time>2022-02-09T10:24:39Z</time>
      </trkpt>
      <trkpt lat="42.85884" lon="0.22932">
        <ele>2228.3</ele>
        <time>2022-02-09T10:24:40Z</time>
      </trkpt>
      <trkpt lat="42.85884" lon="0.22932">
        <ele>2228.4</ele>
        <time>2022-02-09T10:24:41Z</time>
      </trkpt>
      <trkpt lat="42.85884" lon="0.22931">
        <ele>2228.5</ele>
        <time>2022-02-09T10:24:42Z</time>
      </trkpt>
      <trkpt lat="42.85884" lon="0.2293">
        <ele>2228.6</ele>
        <time>2022-02-09T10:24:43Z</time>
      </trkpt>
      <trkpt lat="42.85884" lon="0.22929">
        <ele>2228.7</ele>
        <time>2022-02-09T10:24:44Z</time>
      </trkpt>
      <trkpt lat="42.85885" lon="0.22928">
        <ele>2228.9</ele>
        <time>2022-02-09T10:24:45Z</time>
      </trkpt>
      <trkpt lat="42.85885" lon="0.22928">
        <ele>2229</ele>
        <time>2022-02-09T10:24:46Z</time>
      </trkpt>
      <trkpt lat="42.85885" lon="0.22927">
        <ele>2229.1</ele>
        <time>2022-02-09T10:24:47Z</time>
      </trkpt>
      <trkpt lat="42.85885" lon="0.22926">
        <ele>2229.2</ele>
        <time>2022-02-09T10:24:48Z</time>
      </trkpt>
      <trkpt lat="42.85885" lon="0.22925">
        <ele>2229.4</ele>
        <time>2022-02-09T10:24:49Z</time>
      </trkpt>
      <trkpt lat="42.85885" lon="0.22924">
        <ele>2229.5</ele>
        <time>2022-02-09T10:24:50Z</time>
      </trkpt>
      <trkpt lat="42.85885" lon="0.22923">
        <ele>2229.6</ele>
        <time>2022-02-09T10:24:51Z</time>
      </trkpt>
      <trkpt lat="42.85886" lon="0.22923">
        <ele>2229.7</ele>
        <time>2022-02-09T10:24:52Z</time>
      </trkpt>
      <trkpt lat="42.85886" lon="0.22922">
        <ele>2229.9</ele>
        <time>2022-02-09T10:24:53Z</time>
      </trkpt>
      <trkpt lat="42.85886" lon="0.22921">
        <ele>2230</ele>
        <time>2022-02-09T10:24:54Z</time>
      </trkpt>
      <trkpt lat="42.85886" lon="0.2292">
        <ele>2230.1</ele>
        <time>2022-02-09T10:24:55Z</time>
      </trkpt>
      <trkpt lat="42.85886" lon="0.22919">
        <ele>2230.2</ele>
        <time>2022-02-09T10:24:56Z</time>
      </trkpt>
      <trkpt lat="42.85887" lon="0.22919">
        <ele>2230.4</ele>
        <time>2022-02-09T10:24:57Z</time>
      </trkpt>
      <trkpt lat="42.85887" lon="0.22918">
        <ele>2230.5</ele>
        <time>2022-02-09T10:24:58Z</time>
      </trkpt>
      <trkpt lat="42.85887" lon="0.22917">
        <ele>2230.6</ele>
        <time>2022-02-09T10:24:59Z</time>
      </trkpt>
      <trkpt lat="42.85887" lon="0.22916">
        <ele>2230.8</ele>
        <time>2022-02-09T10:25:00Z</time>
      </trkpt>
      <trkpt lat="42.85887" lon="0.22915">
        <ele>2230.9</ele>
        <time>2022-02-09T10:25:01Z</time>
      </trkpt>
      <trkpt lat="42.85887" lon="0.22914">
        <ele>2231</ele>
        <time>2022-02-09T10:25:02Z</time>
      </trkpt>
      <trkpt lat="42.85887" lon="0.22913">
        <ele>2231.2</ele>
        <time>2022-02-09T10:25:03Z</time>
      </trkpt>
      <trkpt lat="42.85887" lon="0.22912">
        <ele>2231.5</ele>
        <time>2022-02-09T10:25:04Z</time>
      </trkpt>
      <trkpt lat="42.85887" lon="0.22911">
        <ele>2231.7</ele>
        <time>2022-02-09T10:25:05Z</time>
      </trkpt>
      <trkpt lat="42.85888" lon="0.2291">
        <ele>2231.9</ele>
        <time>2022-02-09T10:25:06Z</time>
      </trkpt>
      <trkpt lat="42.85888" lon="0.22909">
        <ele>2232.1</ele>
        <time>2022-02-09T10:25:07Z</time>
      </trkpt>
      <trkpt lat="42.85888" lon="0.22908">
        <ele>2232.4</ele>
        <time>2022-02-09T10:25:08Z</time>
      </trkpt>
      <trkpt lat="42.85888" lon="0.22908">
        <ele>2232.5</ele>
        <time>2022-02-09T10:25:09Z</time>
      </trkpt>
      <trkpt lat="42.85888" lon="0.22907">
        <ele>2232.7</ele>
        <time>2022-02-09T10:25:10Z</time>
      </trkpt>
      <trkpt lat="42.85888" lon="0.22906">
        <ele>2232.9</ele>
        <time>2022-02-09T10:25:11Z</time>
      </trkpt>
      <trkpt lat="42.85887" lon="0.22905">
        <ele>2233.1</ele>
        <time>2022-02-09T10:25:12Z</time>
      </trkpt>
      <trkpt lat="42.85887" lon="0.22904">
        <ele>2233.4</ele>
        <time>2022-02-09T10:25:13Z</time>
      </trkpt>
      <trkpt lat="42.85887" lon="0.22903">
        <ele>2233.7</ele>
        <time>2022-02-09T10:25:14Z</time>
      </trkpt>
      <trkpt lat="42.85887" lon="0.22902">
        <ele>2233.9</ele>
        <time>2022-02-09T10:25:15Z</time>
      </trkpt>
      <trkpt lat="42.85887" lon="0.22901">
        <ele>2234.1</ele>
        <time>2022-02-09T10:25:16Z</time>
      </trkpt>
      <trkpt lat="42.85887" lon="0.229">
        <ele>2234.4</ele>
        <time>2022-02-09T10:25:17Z</time>
      </trkpt>
      <trkpt lat="42.85887" lon="0.229">
        <ele>2234.6</ele>
        <time>2022-02-09T10:25:18Z</time>
      </trkpt>
      <trkpt lat="42.85887" lon="0.22899">
        <ele>2234.7</ele>
        <time>2022-02-09T10:25:19Z</time>
      </trkpt>
      <trkpt lat="42.85887" lon="0.22898">
        <ele>2234.9</ele>
        <time>2022-02-09T10:25:20Z</time>
      </trkpt>
      <trkpt lat="42.85887" lon="0.22898">
        <ele>2235.1</ele>
        <time>2022-02-09T10:25:21Z</time>
      </trkpt>
      <trkpt lat="42.85887" lon="0.22897">
        <ele>2235.3</ele>
        <time>2022-02-09T10:25:22Z</time>
      </trkpt>
      <trkpt lat="42.85887" lon="0.22896">
        <ele>2235.5</ele>
        <time>2022-02-09T10:25:23Z</time>
      </trkpt>
      <trkpt lat="42.85887" lon="0.22895">
        <ele>2235.7</ele>
        <time>2022-02-09T10:25:24Z</time>
      </trkpt>
      <trkpt lat="42.85887" lon="0.22894">
        <ele>2235.9</ele>
        <time>2022-02-09T10:25:25Z</time>
      </trkpt>
      <trkpt lat="42.85887" lon="0.22893">
        <ele>2236.2</ele>
        <time>2022-02-09T10:25:26Z</time>
      </trkpt>
      <trkpt lat="42.85887" lon="0.22893">
        <ele>2236.4</ele>
        <time>2022-02-09T10:25:27Z</time>
      </trkpt>
      <trkpt lat="42.85888" lon="0.22892">
        <ele>2236.6</ele>
        <time>2022-02-09T10:25:28Z</time>
      </trkpt>
      <trkpt lat="42.85888" lon="0.22891">
        <ele>2236.8</ele>
        <time>2022-02-09T10:25:29Z</time>
      </trkpt>
      <trkpt lat="42.85888" lon="0.2289">
        <ele>2237</ele>
        <time>2022-02-09T10:25:30Z</time>
      </trkpt>
      <trkpt lat="42.85888" lon="0.22889">
        <ele>2237.2</ele>
        <time>2022-02-09T10:25:31Z</time>
      </trkpt>
      <trkpt lat="42.85888" lon="0.22888">
        <ele>2237.4</ele>
        <time>2022-02-09T10:25:32Z</time>
      </trkpt>
      <trkpt lat="42.85888" lon="0.22887">
        <ele>2237.6</ele>
        <time>2022-02-09T10:25:33Z</time>
      </trkpt>
      <trkpt lat="42.85888" lon="0.22886">
        <ele>2237.8</ele>
        <time>2022-02-09T10:25:34Z</time>
      </trkpt>
      <trkpt lat="42.85888" lon="0.22886">
        <ele>2238</ele>
        <time>2022-02-09T10:25:35Z</time>
      </trkpt>
      <trkpt lat="42.85888" lon="0.22885">
        <ele>2238.2</ele>
        <time>2022-02-09T10:25:36Z</time>
      </trkpt>
      <trkpt lat="42.85888" lon="0.22884">
        <ele>2238.4</ele>
        <time>2022-02-09T10:25:37Z</time>
      </trkpt>
      <trkpt lat="42.85888" lon="0.22884">
        <ele>2238.5</ele>
        <time>2022-02-09T10:25:38Z</time>
      </trkpt>
      <trkpt lat="42.85887" lon="0.22883">
        <ele>2238.7</ele>
        <time>2022-02-09T10:25:39Z</time>
      </trkpt>
      <trkpt lat="42.85887" lon="0.22882">
        <ele>2238.9</ele>
        <time>2022-02-09T10:25:40Z</time>
      </trkpt>
      <trkpt lat="42.85887" lon="0.22881">
        <ele>2239</ele>
        <time>2022-02-09T10:25:41Z</time>
      </trkpt>
      <trkpt lat="42.85887" lon="0.2288">
        <ele>2239.2</ele>
        <time>2022-02-09T10:25:42Z</time>
      </trkpt>
      <trkpt lat="42.85887" lon="0.2288">
        <ele>2239.4</ele>
        <time>2022-02-09T10:25:43Z</time>
      </trkpt>
      <trkpt lat="42.85886" lon="0.22879">
        <ele>2239.7</ele>
        <time>2022-02-09T10:25:44Z</time>
      </trkpt>
      <trkpt lat="42.85886" lon="0.22878">
        <ele>2239.9</ele>
        <time>2022-02-09T10:25:45Z</time>
      </trkpt>
      <trkpt lat="42.85886" lon="0.22877">
        <ele>2240</ele>
        <time>2022-02-09T10:25:46Z</time>
      </trkpt>
      <trkpt lat="42.85886" lon="0.22876">
        <ele>2240.2</ele>
        <time>2022-02-09T10:25:47Z</time>
      </trkpt>
      <trkpt lat="42.85886" lon="0.22876">
        <ele>2240.4</ele>
        <time>2022-02-09T10:25:48Z</time>
      </trkpt>
      <trkpt lat="42.85887" lon="0.22875">
        <ele>2240.5</ele>
        <time>2022-02-09T10:25:49Z</time>
      </trkpt>
      <trkpt lat="42.85887" lon="0.22874">
        <ele>2240.6</ele>
        <time>2022-02-09T10:25:50Z</time>
      </trkpt>
      <trkpt lat="42.85887" lon="0.22874">
        <ele>2240.8</ele>
        <time>2022-02-09T10:25:51Z</time>
      </trkpt>
      <trkpt lat="42.85888" lon="0.22874">
        <ele>2240.9</ele>
        <time>2022-02-09T10:25:52Z</time>
      </trkpt>
      <trkpt lat="42.85888" lon="0.22874">
        <ele>2241.1</ele>
        <time>2022-02-09T10:25:53Z</time>
      </trkpt>
      <trkpt lat="42.85888" lon="0.22874">
        <ele>2241.1</ele>
        <time>2022-02-09T10:25:54Z</time>
      </trkpt>
      <trkpt lat="42.85888" lon="0.22874">
        <ele>2241.1</ele>
        <time>2022-02-09T10:25:55Z</time>
      </trkpt>
      <trkpt lat="42.85888" lon="0.22875">
        <ele>2241.2</ele>
        <time>2022-02-09T10:25:56Z</time>
      </trkpt>
      <trkpt lat="42.85889" lon="0.22875">
        <ele>2241.3</ele>
        <time>2022-02-09T10:25:57Z</time>
      </trkpt>
      <trkpt lat="42.85889" lon="0.22875">
        <ele>2241.3</ele>
        <time>2022-02-09T10:25:58Z</time>
      </trkpt>
      <trkpt lat="42.85889" lon="0.22875">
        <ele>2241.3</ele>
        <time>2022-02-09T10:25:59Z</time>
      </trkpt>
      <trkpt lat="42.85889" lon="0.22875">
        <ele>2241.3</ele>
        <time>2022-02-09T10:26:00Z</time>
      </trkpt>
      <trkpt lat="42.85889" lon="0.22875">
        <ele>2241.3</ele>
        <time>2022-02-09T10:26:01Z</time>
      </trkpt>
      <trkpt lat="42.85889" lon="0.22875">
        <ele>2241.5</ele>
        <time>2022-02-09T10:26:02Z</time>
      </trkpt>
      <trkpt lat="42.8589" lon="0.22875">
        <ele>2241.7</ele>
        <time>2022-02-09T10:26:03Z</time>
      </trkpt>
      <trkpt lat="42.85891" lon="0.22876">
        <ele>2241.9</ele>
        <time>2022-02-09T10:26:04Z</time>
      </trkpt>
      <trkpt lat="42.85891" lon="0.22876">
        <ele>2242</ele>
        <time>2022-02-09T10:26:05Z</time>
      </trkpt>
      <trkpt lat="42.85892" lon="0.22877">
        <ele>2242.3</ele>
        <time>2022-02-09T10:26:06Z</time>
      </trkpt>
      <trkpt lat="42.85893" lon="0.22877">
        <ele>2242.5</ele>
        <time>2022-02-09T10:26:07Z</time>
      </trkpt>
      <trkpt lat="42.85893" lon="0.22877">
        <ele>2242.6</ele>
        <time>2022-02-09T10:26:08Z</time>
      </trkpt>
      <trkpt lat="42.85894" lon="0.22878">
        <ele>2242.8</ele>
        <time>2022-02-09T10:26:09Z</time>
      </trkpt>
      <trkpt lat="42.85894" lon="0.22878">
        <ele>2242.8</ele>
        <time>2022-02-09T10:26:10Z</time>
      </trkpt>
      <trkpt lat="42.85894" lon="0.22878">
        <ele>2242.9</ele>
        <time>2022-02-09T10:26:11Z</time>
      </trkpt>
      <trkpt lat="42.85895" lon="0.22878">
        <ele>2243.1</ele>
        <time>2022-02-09T10:26:12Z</time>
      </trkpt>
      <trkpt lat="42.85895" lon="0.22878">
        <ele>2243.2</ele>
        <time>2022-02-09T10:26:13Z</time>
      </trkpt>
      <trkpt lat="42.85895" lon="0.22878">
        <ele>2243.2</ele>
        <time>2022-02-09T10:26:14Z</time>
      </trkpt>
      <trkpt lat="42.85895" lon="0.22878">
        <ele>2243.2</ele>
        <time>2022-02-09T10:26:15Z</time>
      </trkpt>
      <trkpt lat="42.85895" lon="0.22878">
        <ele>2243.3</ele>
        <time>2022-02-09T10:26:16Z</time>
      </trkpt>
      <trkpt lat="42.85895" lon="0.22878">
        <ele>2243.3</ele>
        <time>2022-02-09T10:26:17Z</time>
      </trkpt>
      <trkpt lat="42.85895" lon="0.22878">
        <ele>2243.3</ele>
        <time>2022-02-09T10:26:18Z</time>
      </trkpt>
      <trkpt lat="42.85895" lon="0.22878">
        <ele>2243.3</ele>
        <time>2022-02-09T10:26:19Z</time>
      </trkpt>
      <trkpt lat="42.85895" lon="0.22878">
        <ele>2243.3</ele>
        <time>2022-02-09T10:26:20Z</time>
      </trkpt>
      <trkpt lat="42.85895" lon="0.22878">
        <ele>2243.3</ele>
        <time>2022-02-09T10:26:21Z</time>
      </trkpt>
      <trkpt lat="42.85895" lon="0.22878">
        <ele>2243.3</ele>
        <time>2022-02-09T10:26:22Z</time>
      </trkpt>
      <trkpt lat="42.85895" lon="0.22878">
        <ele>2243.3</ele>
        <time>2022-02-09T10:26:23Z</time>
      </trkpt>
      <trkpt lat="42.85895" lon="0.22878">
        <ele>2243.3</ele>
        <time>2022-02-09T10:26:24Z</time>
      </trkpt>
      <trkpt lat="42.85895" lon="0.22878">
        <ele>2243.3</ele>
        <time>2022-02-09T10:26:25Z</time>
      </trkpt>
      <trkpt lat="42.85895" lon="0.22878">
        <ele>2243.3</ele>
        <time>2022-02-09T10:26:26Z</time>
      </trkpt>
      <trkpt lat="42.85895" lon="0.22878">
        <ele>2243.4</ele>
        <time>2022-02-09T10:26:27Z</time>
      </trkpt>
      <trkpt lat="42.85895" lon="0.22879">
        <ele>2243.5</ele>
        <time>2022-02-09T10:26:28Z</time>
      </trkpt>
      <trkpt lat="42.85896" lon="0.22879">
        <ele>2243.7</ele>
        <time>2022-02-09T10:26:29Z</time>
      </trkpt>
      <trkpt lat="42.85897" lon="0.2288">
        <ele>2243.9</ele>
        <time>2022-02-09T10:26:30Z</time>
      </trkpt>
      <trkpt lat="42.85897" lon="0.2288">
        <ele>2244</ele>
        <time>2022-02-09T10:26:31Z</time>
      </trkpt>
      <trkpt lat="42.85897" lon="0.2288">
        <ele>2244.1</ele>
        <time>2022-02-09T10:26:32Z</time>
      </trkpt>
      <trkpt lat="42.85898" lon="0.22881">
        <ele>2244.2</ele>
        <time>2022-02-09T10:26:33Z</time>
      </trkpt>
      <trkpt lat="42.85898" lon="0.22881">
        <ele>2244.4</ele>
        <time>2022-02-09T10:26:34Z</time>
      </trkpt>
      <trkpt lat="42.85899" lon="0.22882">
        <ele>2244.5</ele>
        <time>2022-02-09T10:26:35Z</time>
      </trkpt>
      <trkpt lat="42.85899" lon="0.22882">
        <ele>2244.7</ele>
        <time>2022-02-09T10:26:36Z</time>
      </trkpt>
      <trkpt lat="42.859" lon="0.22882">
        <ele>2244.8</ele>
        <time>2022-02-09T10:26:37Z</time>
      </trkpt>
      <trkpt lat="42.859" lon="0.22883">
        <ele>2244.9</ele>
        <time>2022-02-09T10:26:38Z</time>
      </trkpt>
      <trkpt lat="42.85901" lon="0.22883">
        <ele>2245.1</ele>
        <time>2022-02-09T10:26:39Z</time>
      </trkpt>
      <trkpt lat="42.85901" lon="0.22883">
        <ele>2245.2</ele>
        <time>2022-02-09T10:26:40Z</time>
      </trkpt>
      <trkpt lat="42.85902" lon="0.22884">
        <ele>2245.4</ele>
        <time>2022-02-09T10:26:41Z</time>
      </trkpt>
      <trkpt lat="42.85902" lon="0.22884">
        <ele>2245.6</ele>
        <time>2022-02-09T10:26:42Z</time>
      </trkpt>
      <trkpt lat="42.85903" lon="0.22885">
        <ele>2245.7</ele>
        <time>2022-02-09T10:26:43Z</time>
      </trkpt>
      <trkpt lat="42.85903" lon="0.22885">
        <ele>2245.8</ele>
        <time>2022-02-09T10:26:44Z</time>
      </trkpt>
      <trkpt lat="42.85904" lon="0.22886">
        <ele>2246</ele>
        <time>2022-02-09T10:26:45Z</time>
      </trkpt>
      <trkpt lat="42.85904" lon="0.22886">
        <ele>2246.2</ele>
        <time>2022-02-09T10:26:46Z</time>
      </trkpt>
      <trkpt lat="42.85905" lon="0.22886">
        <ele>2246.3</ele>
        <time>2022-02-09T10:26:47Z</time>
      </trkpt>
      <trkpt lat="42.85905" lon="0.22886">
        <ele>2246.5</ele>
        <time>2022-02-09T10:26:48Z</time>
      </trkpt>
      <trkpt lat="42.85907" lon="0.22885">
        <ele>2246.9</ele>
        <time>2022-02-09T10:26:49Z</time>
      </trkpt>
      <trkpt lat="42.85907" lon="0.22884">
        <ele>2247.2</ele>
        <time>2022-02-09T10:26:50Z</time>
      </trkpt>
      <trkpt lat="42.85908" lon="0.22883">
        <ele>2247.5</ele>
        <time>2022-02-09T10:26:51Z</time>
      </trkpt>
      <trkpt lat="42.85909" lon="0.22882">
        <ele>2247.7</ele>
        <time>2022-02-09T10:26:52Z</time>
      </trkpt>
      <trkpt lat="42.85909" lon="0.22881">
        <ele>2247.9</ele>
        <time>2022-02-09T10:26:53Z</time>
      </trkpt>
      <trkpt lat="42.85909" lon="0.2288">
        <ele>2248.2</ele>
        <time>2022-02-09T10:26:54Z</time>
      </trkpt>
      <trkpt lat="42.85909" lon="0.22879">
        <ele>2248.3</ele>
        <time>2022-02-09T10:26:55Z</time>
      </trkpt>
      <trkpt lat="42.85909" lon="0.22878">
        <ele>2248.5</ele>
        <time>2022-02-09T10:26:56Z</time>
      </trkpt>
      <trkpt lat="42.85909" lon="0.22877">
        <ele>2248.7</ele>
        <time>2022-02-09T10:26:57Z</time>
      </trkpt>
      <trkpt lat="42.85909" lon="0.22877">
        <ele>2248.9</ele>
        <time>2022-02-09T10:26:58Z</time>
      </trkpt>
      <trkpt lat="42.85909" lon="0.22876">
        <ele>2248.9</ele>
        <time>2022-02-09T10:26:59Z</time>
      </trkpt>
      <trkpt lat="42.85909" lon="0.22876">
        <ele>2249</ele>
        <time>2022-02-09T10:27:00Z</time>
      </trkpt>
      <trkpt lat="42.85909" lon="0.22876">
        <ele>2249.1</ele>
        <time>2022-02-09T10:27:01Z</time>
      </trkpt>
      <trkpt lat="42.85909" lon="0.22874">
        <ele>2249.3</ele>
        <time>2022-02-09T10:27:02Z</time>
      </trkpt>
      <trkpt lat="42.85909" lon="0.22874">
        <ele>2249.5</ele>
        <time>2022-02-09T10:27:03Z</time>
      </trkpt>
      <trkpt lat="42.85909" lon="0.22873">
        <ele>2249.6</ele>
        <time>2022-02-09T10:27:04Z</time>
      </trkpt>
      <trkpt lat="42.85909" lon="0.22872">
        <ele>2249.8</ele>
        <time>2022-02-09T10:27:05Z</time>
      </trkpt>
      <trkpt lat="42.85909" lon="0.22872">
        <ele>2249.9</ele>
        <time>2022-02-09T10:27:06Z</time>
      </trkpt>
      <trkpt lat="42.85909" lon="0.22871">
        <ele>2250.1</ele>
        <time>2022-02-09T10:27:07Z</time>
      </trkpt>
      <trkpt lat="42.85908" lon="0.2287">
        <ele>2250.3</ele>
        <time>2022-02-09T10:27:08Z</time>
      </trkpt>
      <trkpt lat="42.85908" lon="0.22869">
        <ele>2250.4</ele>
        <time>2022-02-09T10:27:09Z</time>
      </trkpt>
      <trkpt lat="42.85908" lon="0.22869">
        <ele>2250.6</ele>
        <time>2022-02-09T10:27:10Z</time>
      </trkpt>
      <trkpt lat="42.85908" lon="0.22868">
        <ele>2250.7</ele>
        <time>2022-02-09T10:27:11Z</time>
      </trkpt>
      <trkpt lat="42.85908" lon="0.22867">
        <ele>2250.9</ele>
        <time>2022-02-09T10:27:12Z</time>
      </trkpt>
      <trkpt lat="42.85908" lon="0.22866">
        <ele>2251</ele>
        <time>2022-02-09T10:27:13Z</time>
      </trkpt>
      <trkpt lat="42.85908" lon="0.22865">
        <ele>2251.2</ele>
        <time>2022-02-09T10:27:14Z</time>
      </trkpt>
      <trkpt lat="42.85908" lon="0.22864">
        <ele>2251.4</ele>
        <time>2022-02-09T10:27:15Z</time>
      </trkpt>
      <trkpt lat="42.85908" lon="0.22863">
        <ele>2251.5</ele>
        <time>2022-02-09T10:27:16Z</time>
      </trkpt>
      <trkpt lat="42.85908" lon="0.22862">
        <ele>2251.7</ele>
        <time>2022-02-09T10:27:17Z</time>
      </trkpt>
      <trkpt lat="42.85908" lon="0.22861">
        <ele>2251.9</ele>
        <time>2022-02-09T10:27:18Z</time>
      </trkpt>
      <trkpt lat="42.85908" lon="0.2286">
        <ele>2252.1</ele>
        <time>2022-02-09T10:27:19Z</time>
      </trkpt>
      <trkpt lat="42.85909" lon="0.22859">
        <ele>2252.3</ele>
        <time>2022-02-09T10:27:20Z</time>
      </trkpt>
      <trkpt lat="42.85909" lon="0.22859">
        <ele>2252.4</ele>
        <time>2022-02-09T10:27:21Z</time>
      </trkpt>
      <trkpt lat="42.85909" lon="0.22858">
        <ele>2252.6</ele>
        <time>2022-02-09T10:27:22Z</time>
      </trkpt>
      <trkpt lat="42.85909" lon="0.22857">
        <ele>2252.8</ele>
        <time>2022-02-09T10:27:23Z</time>
      </trkpt>
      <trkpt lat="42.85909" lon="0.22856">
        <ele>2252.9</ele>
        <time>2022-02-09T10:27:24Z</time>
      </trkpt>
      <trkpt lat="42.85909" lon="0.22855">
        <ele>2253</ele>
        <time>2022-02-09T10:27:25Z</time>
      </trkpt>
      <trkpt lat="42.85909" lon="0.22854">
        <ele>2253.2</ele>
        <time>2022-02-09T10:27:26Z</time>
      </trkpt>
      <trkpt lat="42.85909" lon="0.22854">
        <ele>2253.4</ele>
        <time>2022-02-09T10:27:27Z</time>
      </trkpt>
      <trkpt lat="42.85909" lon="0.22853">
        <ele>2253.5</ele>
        <time>2022-02-09T10:27:28Z</time>
      </trkpt>
      <trkpt lat="42.85909" lon="0.22852">
        <ele>2253.7</ele>
        <time>2022-02-09T10:27:29Z</time>
      </trkpt>
      <trkpt lat="42.85909" lon="0.22851">
        <ele>2253.9</ele>
        <time>2022-02-09T10:27:30Z</time>
      </trkpt>
      <trkpt lat="42.85909" lon="0.2285">
        <ele>2254.1</ele>
        <time>2022-02-09T10:27:31Z</time>
      </trkpt>
      <trkpt lat="42.8591" lon="0.22849">
        <ele>2254.3</ele>
        <time>2022-02-09T10:27:32Z</time>
      </trkpt>
      <trkpt lat="42.8591" lon="0.22848">
        <ele>2254.5</ele>
        <time>2022-02-09T10:27:33Z</time>
      </trkpt>
      <trkpt lat="42.8591" lon="0.22847">
        <ele>2254.6</ele>
        <time>2022-02-09T10:27:34Z</time>
      </trkpt>
      <trkpt lat="42.8591" lon="0.22846">
        <ele>2254.8</ele>
        <time>2022-02-09T10:27:35Z</time>
      </trkpt>
      <trkpt lat="42.85911" lon="0.22845">
        <ele>2255.1</ele>
        <time>2022-02-09T10:27:36Z</time>
      </trkpt>
      <trkpt lat="42.85911" lon="0.22844">
        <ele>2255.3</ele>
        <time>2022-02-09T10:27:37Z</time>
      </trkpt>
      <trkpt lat="42.85911" lon="0.22844">
        <ele>2255.5</ele>
        <time>2022-02-09T10:27:38Z</time>
      </trkpt>
      <trkpt lat="42.85911" lon="0.22843">
        <ele>2255.7</ele>
        <time>2022-02-09T10:27:39Z</time>
      </trkpt>
      <trkpt lat="42.85911" lon="0.22842">
        <ele>2255.9</ele>
        <time>2022-02-09T10:27:40Z</time>
      </trkpt>
      <trkpt lat="42.85911" lon="0.22841">
        <ele>2256.2</ele>
        <time>2022-02-09T10:27:41Z</time>
      </trkpt>
      <trkpt lat="42.85911" lon="0.2284">
        <ele>2256.4</ele>
        <time>2022-02-09T10:27:42Z</time>
      </trkpt>
      <trkpt lat="42.85911" lon="0.22839">
        <ele>2256.6</ele>
        <time>2022-02-09T10:27:43Z</time>
      </trkpt>
      <trkpt lat="42.85911" lon="0.22839">
        <ele>2256.7</ele>
        <time>2022-02-09T10:27:44Z</time>
      </trkpt>
      <trkpt lat="42.85911" lon="0.22838">
        <ele>2256.8</ele>
        <time>2022-02-09T10:27:45Z</time>
      </trkpt>
      <trkpt lat="42.85911" lon="0.22837">
        <ele>2257</ele>
        <time>2022-02-09T10:27:46Z</time>
      </trkpt>
      <trkpt lat="42.85911" lon="0.22837">
        <ele>2257.1</ele>
        <time>2022-02-09T10:27:47Z</time>
      </trkpt>
      <trkpt lat="42.85911" lon="0.22836">
        <ele>2257.3</ele>
        <time>2022-02-09T10:27:48Z</time>
      </trkpt>
      <trkpt lat="42.85911" lon="0.22835">
        <ele>2257.5</ele>
        <time>2022-02-09T10:27:49Z</time>
      </trkpt>
      <trkpt lat="42.85911" lon="0.22834">
        <ele>2257.6</ele>
        <time>2022-02-09T10:27:50Z</time>
      </trkpt>
      <trkpt lat="42.85911" lon="0.22834">
        <ele>2257.8</ele>
        <time>2022-02-09T10:27:51Z</time>
      </trkpt>
      <trkpt lat="42.85911" lon="0.22833">
        <ele>2257.9</ele>
        <time>2022-02-09T10:27:52Z</time>
      </trkpt>
      <trkpt lat="42.85911" lon="0.22833">
        <ele>2258</ele>
        <time>2022-02-09T10:27:53Z</time>
      </trkpt>
      <trkpt lat="42.85911" lon="0.22832">
        <ele>2258.2</ele>
        <time>2022-02-09T10:27:54Z</time>
      </trkpt>
      <trkpt lat="42.85911" lon="0.22831">
        <ele>2258.4</ele>
        <time>2022-02-09T10:27:55Z</time>
      </trkpt>
      <trkpt lat="42.85912" lon="0.22831">
        <ele>2258.5</ele>
        <time>2022-02-09T10:27:56Z</time>
      </trkpt>
      <trkpt lat="42.85912" lon="0.2283">
        <ele>2258.7</ele>
        <time>2022-02-09T10:27:57Z</time>
      </trkpt>
      <trkpt lat="42.85912" lon="0.22829">
        <ele>2258.8</ele>
        <time>2022-02-09T10:27:58Z</time>
      </trkpt>
      <trkpt lat="42.85912" lon="0.22829">
        <ele>2259</ele>
        <time>2022-02-09T10:27:59Z</time>
      </trkpt>
      <trkpt lat="42.85913" lon="0.22828">
        <ele>2259.1</ele>
        <time>2022-02-09T10:28:00Z</time>
      </trkpt>
      <trkpt lat="42.85913" lon="0.22827">
        <ele>2259.3</ele>
        <time>2022-02-09T10:28:01Z</time>
      </trkpt>
      <trkpt lat="42.85913" lon="0.22827">
        <ele>2259.5</ele>
        <time>2022-02-09T10:28:02Z</time>
      </trkpt>
      <trkpt lat="42.85914" lon="0.22826">
        <ele>2259.6</ele>
        <time>2022-02-09T10:28:03Z</time>
      </trkpt>
      <trkpt lat="42.85914" lon="0.22826">
        <ele>2259.8</ele>
        <time>2022-02-09T10:28:04Z</time>
      </trkpt>
      <trkpt lat="42.85915" lon="0.22825">
        <ele>2260</ele>
        <time>2022-02-09T10:28:05Z</time>
      </trkpt>
      <trkpt lat="42.85915" lon="0.22825">
        <ele>2260.1</ele>
        <time>2022-02-09T10:28:06Z</time>
      </trkpt>
      <trkpt lat="42.85916" lon="0.22825">
        <ele>2260.3</ele>
        <time>2022-02-09T10:28:07Z</time>
      </trkpt>
      <trkpt lat="42.85916" lon="0.22825">
        <ele>2260.4</ele>
        <time>2022-02-09T10:28:08Z</time>
      </trkpt>
      <trkpt lat="42.85917" lon="0.22825">
        <ele>2260.5</ele>
        <time>2022-02-09T10:28:09Z</time>
      </trkpt>
      <trkpt lat="42.85917" lon="0.22825">
        <ele>2260.6</ele>
        <time>2022-02-09T10:28:10Z</time>
      </trkpt>
      <trkpt lat="42.85918" lon="0.22825">
        <ele>2260.7</ele>
        <time>2022-02-09T10:28:11Z</time>
      </trkpt>
      <trkpt lat="42.85918" lon="0.22825">
        <ele>2260.8</ele>
        <time>2022-02-09T10:28:12Z</time>
      </trkpt>
      <trkpt lat="42.85919" lon="0.22825">
        <ele>2260.9</ele>
        <time>2022-02-09T10:28:13Z</time>
      </trkpt>
      <trkpt lat="42.85919" lon="0.22825">
        <ele>2261</ele>
        <time>2022-02-09T10:28:14Z</time>
      </trkpt>
      <trkpt lat="42.85919" lon="0.22826">
        <ele>2261.1</ele>
        <time>2022-02-09T10:28:15Z</time>
      </trkpt>
      <trkpt lat="42.8592" lon="0.22826">
        <ele>2261.2</ele>
        <time>2022-02-09T10:28:16Z</time>
      </trkpt>
      <trkpt lat="42.85921" lon="0.22826">
        <ele>2261.4</ele>
        <time>2022-02-09T10:28:17Z</time>
      </trkpt>
      <trkpt lat="42.85921" lon="0.22828">
        <ele>2261.5</ele>
        <time>2022-02-09T10:28:18Z</time>
      </trkpt>
      <trkpt lat="42.8592" lon="0.22829">
        <ele>2261.8</ele>
        <time>2022-02-09T10:28:19Z</time>
      </trkpt>
      <trkpt lat="42.85921" lon="0.2283">
        <ele>2261.9</ele>
        <time>2022-02-09T10:28:20Z</time>
      </trkpt>
      <trkpt lat="42.85921" lon="0.2283">
        <ele>2262</ele>
        <time>2022-02-09T10:28:21Z</time>
      </trkpt>
      <trkpt lat="42.85922" lon="0.22829">
        <ele>2262.2</ele>
        <time>2022-02-09T10:28:22Z</time>
      </trkpt>
      <trkpt lat="42.85923" lon="0.2283">
        <ele>2262.4</ele>
        <time>2022-02-09T10:28:23Z</time>
      </trkpt>
      <trkpt lat="42.85924" lon="0.2283">
        <ele>2262.5</ele>
        <time>2022-02-09T10:28:24Z</time>
      </trkpt>
      <trkpt lat="42.85924" lon="0.2283">
        <ele>2262.6</ele>
        <time>2022-02-09T10:28:25Z</time>
      </trkpt>
      <trkpt lat="42.85925" lon="0.2283">
        <ele>2262.7</ele>
        <time>2022-02-09T10:28:26Z</time>
      </trkpt>
      <trkpt lat="42.85926" lon="0.2283">
        <ele>2262.9</ele>
        <time>2022-02-09T10:28:27Z</time>
      </trkpt>
      <trkpt lat="42.85927" lon="0.22831">
        <ele>2263</ele>
        <time>2022-02-09T10:28:28Z</time>
      </trkpt>
      <trkpt lat="42.85927" lon="0.22831">
        <ele>2263.1</ele>
        <time>2022-02-09T10:28:29Z</time>
      </trkpt>
      <trkpt lat="42.85928" lon="0.22831">
        <ele>2263.2</ele>
        <time>2022-02-09T10:28:30Z</time>
      </trkpt>
      <trkpt lat="42.85929" lon="0.22831">
        <ele>2263.3</ele>
        <time>2022-02-09T10:28:31Z</time>
      </trkpt>
      <trkpt lat="42.85929" lon="0.22832">
        <ele>2263.4</ele>
        <time>2022-02-09T10:28:32Z</time>
      </trkpt>
      <trkpt lat="42.8593" lon="0.22832">
        <ele>2263.5</ele>
        <time>2022-02-09T10:28:33Z</time>
      </trkpt>
      <trkpt lat="42.8593" lon="0.22832">
        <ele>2263.6</ele>
        <time>2022-02-09T10:28:34Z</time>
      </trkpt>
      <trkpt lat="42.85931" lon="0.22833">
        <ele>2263.7</ele>
        <time>2022-02-09T10:28:35Z</time>
      </trkpt>
      <trkpt lat="42.85931" lon="0.22833">
        <ele>2263.8</ele>
        <time>2022-02-09T10:28:36Z</time>
      </trkpt>
      <trkpt lat="42.85932" lon="0.22834">
        <ele>2264</ele>
        <time>2022-02-09T10:28:37Z</time>
      </trkpt>
      <trkpt lat="42.85932" lon="0.22834">
        <ele>2264</ele>
        <time>2022-02-09T10:28:38Z</time>
      </trkpt>
      <trkpt lat="42.85933" lon="0.22835">
        <ele>2264.1</ele>
        <time>2022-02-09T10:28:39Z</time>
      </trkpt>
      <trkpt lat="42.85933" lon="0.22835">
        <ele>2264.2</ele>
        <time>2022-02-09T10:28:40Z</time>
      </trkpt>
      <trkpt lat="42.85934" lon="0.22836">
        <ele>2264.3</ele>
        <time>2022-02-09T10:28:41Z</time>
      </trkpt>
      <trkpt lat="42.85934" lon="0.22836">
        <ele>2264.4</ele>
        <time>2022-02-09T10:28:42Z</time>
      </trkpt>
      <trkpt lat="42.85935" lon="0.22837">
        <ele>2264.5</ele>
        <time>2022-02-09T10:28:43Z</time>
      </trkpt>
      <trkpt lat="42.85935" lon="0.22837">
        <ele>2264.6</ele>
        <time>2022-02-09T10:28:44Z</time>
      </trkpt>
      <trkpt lat="42.85936" lon="0.22837">
        <ele>2264.8</ele>
        <time>2022-02-09T10:28:45Z</time>
      </trkpt>
      <trkpt lat="42.85937" lon="0.22837">
        <ele>2264.9</ele>
        <time>2022-02-09T10:28:46Z</time>
      </trkpt>
      <trkpt lat="42.85937" lon="0.22837">
        <ele>2265</ele>
        <time>2022-02-09T10:28:47Z</time>
      </trkpt>
      <trkpt lat="42.85938" lon="0.22837">
        <ele>2265.1</ele>
        <time>2022-02-09T10:28:48Z</time>
      </trkpt>
      <trkpt lat="42.85938" lon="0.22837">
        <ele>2265.2</ele>
        <time>2022-02-09T10:28:49Z</time>
      </trkpt>
      <trkpt lat="42.85938" lon="0.22837">
        <ele>2265.3</ele>
        <time>2022-02-09T10:28:50Z</time>
      </trkpt>
      <trkpt lat="42.85939" lon="0.22837">
        <ele>2265.4</ele>
        <time>2022-02-09T10:28:51Z</time>
      </trkpt>
      <trkpt lat="42.8594" lon="0.22837">
        <ele>2265.5</ele>
        <time>2022-02-09T10:28:52Z</time>
      </trkpt>
      <trkpt lat="42.8594" lon="0.22837">
        <ele>2265.7</ele>
        <time>2022-02-09T10:28:53Z</time>
      </trkpt>
      <trkpt lat="42.85941" lon="0.22837">
        <ele>2265.9</ele>
        <time>2022-02-09T10:28:54Z</time>
      </trkpt>
      <trkpt lat="42.85942" lon="0.22836">
        <ele>2266</ele>
        <time>2022-02-09T10:28:55Z</time>
      </trkpt>
      <trkpt lat="42.85942" lon="0.22836">
        <ele>2266.1</ele>
        <time>2022-02-09T10:28:56Z</time>
      </trkpt>
      <trkpt lat="42.85943" lon="0.22836">
        <ele>2266.3</ele>
        <time>2022-02-09T10:28:57Z</time>
      </trkpt>
      <trkpt lat="42.85943" lon="0.22835">
        <ele>2266.4</ele>
        <time>2022-02-09T10:28:58Z</time>
      </trkpt>
      <trkpt lat="42.85944" lon="0.22835">
        <ele>2266.6</ele>
        <time>2022-02-09T10:28:59Z</time>
      </trkpt>
      <trkpt lat="42.85944" lon="0.22835">
        <ele>2266.7</ele>
        <time>2022-02-09T10:29:00Z</time>
      </trkpt>
      <trkpt lat="42.85945" lon="0.22834">
        <ele>2266.9</ele>
        <time>2022-02-09T10:29:01Z</time>
      </trkpt>
      <trkpt lat="42.85945" lon="0.22834">
        <ele>2267.1</ele>
        <time>2022-02-09T10:29:02Z</time>
      </trkpt>
      <trkpt lat="42.85946" lon="0.22833">
        <ele>2267.3</ele>
        <time>2022-02-09T10:29:03Z</time>
      </trkpt>
      <trkpt lat="42.85946" lon="0.22833">
        <ele>2267.4</ele>
        <time>2022-02-09T10:29:04Z</time>
      </trkpt>
      <trkpt lat="42.85946" lon="0.22832">
        <ele>2267.6</ele>
        <time>2022-02-09T10:29:05Z</time>
      </trkpt>
      <trkpt lat="42.85947" lon="0.22832">
        <ele>2267.7</ele>
        <time>2022-02-09T10:29:06Z</time>
      </trkpt>
      <trkpt lat="42.85947" lon="0.22831">
        <ele>2267.9</ele>
        <time>2022-02-09T10:29:07Z</time>
      </trkpt>
      <trkpt lat="42.85948" lon="0.22831">
        <ele>2268.1</ele>
        <time>2022-02-09T10:29:08Z</time>
      </trkpt>
      <trkpt lat="42.85948" lon="0.2283">
        <ele>2268.3</ele>
        <time>2022-02-09T10:29:09Z</time>
      </trkpt>
      <trkpt lat="42.85949" lon="0.22829">
        <ele>2268.5</ele>
        <time>2022-02-09T10:29:10Z</time>
      </trkpt>
      <trkpt lat="42.85949" lon="0.22829">
        <ele>2268.7</ele>
        <time>2022-02-09T10:29:11Z</time>
      </trkpt>
      <trkpt lat="42.8595" lon="0.22828">
        <ele>2268.9</ele>
        <time>2022-02-09T10:29:12Z</time>
      </trkpt>
      <trkpt lat="42.8595" lon="0.22828">
        <ele>2269.1</ele>
        <time>2022-02-09T10:29:13Z</time>
      </trkpt>
      <trkpt lat="42.85951" lon="0.22827">
        <ele>2269.3</ele>
        <time>2022-02-09T10:29:14Z</time>
      </trkpt>
      <trkpt lat="42.85951" lon="0.22826">
        <ele>2269.5</ele>
        <time>2022-02-09T10:29:15Z</time>
      </trkpt>
      <trkpt lat="42.85952" lon="0.22826">
        <ele>2269.7</ele>
        <time>2022-02-09T10:29:16Z</time>
      </trkpt>
      <trkpt lat="42.85952" lon="0.22825">
        <ele>2270</ele>
        <time>2022-02-09T10:29:17Z</time>
      </trkpt>
      <trkpt lat="42.85953" lon="0.22824">
        <ele>2270.1</ele>
        <time>2022-02-09T10:29:18Z</time>
      </trkpt>
      <trkpt lat="42.85953" lon="0.22824">
        <ele>2270.3</ele>
        <time>2022-02-09T10:29:19Z</time>
      </trkpt>
      <trkpt lat="42.85954" lon="0.22823">
        <ele>2270.5</ele>
        <time>2022-02-09T10:29:20Z</time>
      </trkpt>
      <trkpt lat="42.85954" lon="0.22823">
        <ele>2270.6</ele>
        <time>2022-02-09T10:29:21Z</time>
      </trkpt>
      <trkpt lat="42.85954" lon="0.22822">
        <ele>2270.7</ele>
        <time>2022-02-09T10:29:22Z</time>
      </trkpt>
      <trkpt lat="42.85954" lon="0.22821">
        <ele>2270.9</ele>
        <time>2022-02-09T10:29:23Z</time>
      </trkpt>
      <trkpt lat="42.85955" lon="0.22821">
        <ele>2271.1</ele>
        <time>2022-02-09T10:29:24Z</time>
      </trkpt>
      <trkpt lat="42.85955" lon="0.2282">
        <ele>2271.2</ele>
        <time>2022-02-09T10:29:25Z</time>
      </trkpt>
      <trkpt lat="42.85955" lon="0.2282">
        <ele>2271.3</ele>
        <time>2022-02-09T10:29:26Z</time>
      </trkpt>
      <trkpt lat="42.85955" lon="0.22819">
        <ele>2271.4</ele>
        <time>2022-02-09T10:29:27Z</time>
      </trkpt>
      <trkpt lat="42.85955" lon="0.22819">
        <ele>2271.4</ele>
        <time>2022-02-09T10:29:28Z</time>
      </trkpt>
      <trkpt lat="42.85955" lon="0.22819">
        <ele>2271.4</ele>
        <time>2022-02-09T10:29:29Z</time>
      </trkpt>
      <trkpt lat="42.85955" lon="0.22819">
        <ele>2271.4</ele>
        <time>2022-02-09T10:29:30Z</time>
      </trkpt>
      <trkpt lat="42.85955" lon="0.22819">
        <ele>2271.4</ele>
        <time>2022-02-09T10:29:31Z</time>
      </trkpt>
      <trkpt lat="42.85955" lon="0.22819">
        <ele>2271.4</ele>
        <time>2022-02-09T10:29:32Z</time>
      </trkpt>
      <trkpt lat="42.85955" lon="0.22819">
        <ele>2271.4</ele>
        <time>2022-02-09T10:29:33Z</time>
      </trkpt>
      <trkpt lat="42.85955" lon="0.22819">
        <ele>2271.4</ele>
        <time>2022-02-09T10:29:34Z</time>
      </trkpt>
      <trkpt lat="42.85955" lon="0.22819">
        <ele>2271.4</ele>
        <time>2022-02-09T10:29:35Z</time>
      </trkpt>
      <trkpt lat="42.85955" lon="0.22819">
        <ele>2271.4</ele>
        <time>2022-02-09T10:29:36Z</time>
      </trkpt>
      <trkpt lat="42.85955" lon="0.22819">
        <ele>2271.4</ele>
        <time>2022-02-09T10:29:37Z</time>
      </trkpt>
      <trkpt lat="42.85955" lon="0.22819">
        <ele>2271.4</ele>
        <time>2022-02-09T10:29:38Z</time>
      </trkpt>
      <trkpt lat="42.85955" lon="0.22819">
        <ele>2271.4</ele>
        <time>2022-02-09T10:29:39Z</time>
      </trkpt>
      <trkpt lat="42.85955" lon="0.22819">
        <ele>2271.4</ele>
        <time>2022-02-09T10:29:40Z</time>
      </trkpt>
      <trkpt lat="42.85955" lon="0.22819">
        <ele>2271.4</ele>
        <time>2022-02-09T10:29:41Z</time>
      </trkpt>
      <trkpt lat="42.85955" lon="0.22819">
        <ele>2271.4</ele>
        <time>2022-02-09T10:29:42Z</time>
      </trkpt>
      <trkpt lat="42.85955" lon="0.22819">
        <ele>2271.4</ele>
        <time>2022-02-09T10:29:43Z</time>
      </trkpt>
      <trkpt lat="42.85955" lon="0.22819">
        <ele>2271.4</ele>
        <time>2022-02-09T10:29:44Z</time>
      </trkpt>
      <trkpt lat="42.85955" lon="0.22819">
        <ele>2271.4</ele>
        <time>2022-02-09T10:29:45Z</time>
      </trkpt>
      <trkpt lat="42.85955" lon="0.22819">
        <ele>2271.4</ele>
        <time>2022-02-09T10:29:46Z</time>
      </trkpt>
      <trkpt lat="42.85955" lon="0.22819">
        <ele>2271.4</ele>
        <time>2022-02-09T10:29:47Z</time>
      </trkpt>
      <trkpt lat="42.85955" lon="0.22819">
        <ele>2271.4</ele>
        <time>2022-02-09T10:29:48Z</time>
      </trkpt>
      <trkpt lat="42.85955" lon="0.22819">
        <ele>2271.4</ele>
        <time>2022-02-09T10:29:49Z</time>
      </trkpt>
      <trkpt lat="42.85955" lon="0.22819">
        <ele>2271.4</ele>
        <time>2022-02-09T10:29:50Z</time>
      </trkpt>
      <trkpt lat="42.85955" lon="0.22819">
        <ele>2271.4</ele>
        <time>2022-02-09T10:29:51Z</time>
      </trkpt>
      <trkpt lat="42.85955" lon="0.22819">
        <ele>2271.4</ele>
        <time>2022-02-09T10:29:52Z</time>
      </trkpt>
      <trkpt lat="42.85955" lon="0.22819">
        <ele>2271.4</ele>
        <time>2022-02-09T10:29:53Z</time>
      </trkpt>
      <trkpt lat="42.85955" lon="0.22819">
        <ele>2271.4</ele>
        <time>2022-02-09T10:29:54Z</time>
      </trkpt>
      <trkpt lat="42.85955" lon="0.22819">
        <ele>2271.4</ele>
        <time>2022-02-09T10:29:55Z</time>
      </trkpt>
      <trkpt lat="42.85955" lon="0.22819">
        <ele>2271.4</ele>
        <time>2022-02-09T10:29:56Z</time>
      </trkpt>
      <trkpt lat="42.85955" lon="0.22819">
        <ele>2271.4</ele>
        <time>2022-02-09T10:29:57Z</time>
      </trkpt>
      <trkpt lat="42.85955" lon="0.22819">
        <ele>2271.4</ele>
        <time>2022-02-09T10:29:58Z</time>
      </trkpt>
      <trkpt lat="42.85955" lon="0.22819">
        <ele>2271.4</ele>
        <time>2022-02-09T10:29:59Z</time>
      </trkpt>
      <trkpt lat="42.85955" lon="0.22819">
        <ele>2271.4</ele>
        <time>2022-02-09T10:30:00Z</time>
      </trkpt>
      <trkpt lat="42.85955" lon="0.22819">
        <ele>2271.4</ele>
        <time>2022-02-09T10:30:01Z</time>
      </trkpt>
      <trkpt lat="42.85955" lon="0.22819">
        <ele>2271.4</ele>
        <time>2022-02-09T10:30:02Z</time>
      </trkpt>
      <trkpt lat="42.85955" lon="0.22819">
        <ele>2271.4</ele>
        <time>2022-02-09T10:30:03Z</time>
      </trkpt>
      <trkpt lat="42.85955" lon="0.22819">
        <ele>2271.4</ele>
        <time>2022-02-09T10:30:04Z</time>
      </trkpt>
      <trkpt lat="42.85955" lon="0.22819">
        <ele>2271.4</ele>
        <time>2022-02-09T10:30:05Z</time>
      </trkpt>
      <trkpt lat="42.85955" lon="0.22819">
        <ele>2271.4</ele>
        <time>2022-02-09T10:30:06Z</time>
      </trkpt>
      <trkpt lat="42.85955" lon="0.22819">
        <ele>2271.4</ele>
        <time>2022-02-09T10:30:07Z</time>
      </trkpt>
      <trkpt lat="42.85955" lon="0.22819">
        <ele>2271.4</ele>
        <time>2022-02-09T10:30:08Z</time>
      </trkpt>
      <trkpt lat="42.85955" lon="0.22819">
        <ele>2271.4</ele>
        <time>2022-02-09T10:30:09Z</time>
      </trkpt>
      <trkpt lat="42.85955" lon="0.22819">
        <ele>2271.4</ele>
        <time>2022-02-09T10:30:10Z</time>
      </trkpt>
      <trkpt lat="42.85955" lon="0.22819">
        <ele>2271.4</ele>
        <time>2022-02-09T10:30:11Z</time>
      </trkpt>
      <trkpt lat="42.85955" lon="0.22819">
        <ele>2271.4</ele>
        <time>2022-02-09T10:30:12Z</time>
      </trkpt>
      <trkpt lat="42.85955" lon="0.22819">
        <ele>2271.4</ele>
        <time>2022-02-09T10:30:13Z</time>
      </trkpt>
      <trkpt lat="42.85955" lon="0.22819">
        <ele>2271.4</ele>
        <time>2022-02-09T10:30:14Z</time>
      </trkpt>
      <trkpt lat="42.85955" lon="0.22819">
        <ele>2271.4</ele>
        <time>2022-02-09T10:30:15Z</time>
      </trkpt>
      <trkpt lat="42.85955" lon="0.22819">
        <ele>2271.4</ele>
        <time>2022-02-09T10:30:16Z</time>
      </trkpt>
      <trkpt lat="42.85955" lon="0.22819">
        <ele>2271.4</ele>
        <time>2022-02-09T10:30:17Z</time>
      </trkpt>
      <trkpt lat="42.85955" lon="0.22819">
        <ele>2271.4</ele>
        <time>2022-02-09T10:30:18Z</time>
      </trkpt>
      <trkpt lat="42.85955" lon="0.22819">
        <ele>2271.4</ele>
        <time>2022-02-09T10:30:19Z</time>
      </trkpt>
      <trkpt lat="42.85955" lon="0.22819">
        <ele>2271.4</ele>
        <time>2022-02-09T10:30:20Z</time>
      </trkpt>
      <trkpt lat="42.85955" lon="0.22819">
        <ele>2271.4</ele>
        <time>2022-02-09T10:30:21Z</time>
      </trkpt>
      <trkpt lat="42.85955" lon="0.22819">
        <ele>2271.4</ele>
        <time>2022-02-09T10:30:22Z</time>
      </trkpt>
      <trkpt lat="42.85955" lon="0.22819">
        <ele>2271.4</ele>
        <time>2022-02-09T10:30:23Z</time>
      </trkpt>
      <trkpt lat="42.85955" lon="0.22819">
        <ele>2271.4</ele>
        <time>2022-02-09T10:30:24Z</time>
      </trkpt>
      <trkpt lat="42.85955" lon="0.22819">
        <ele>2271.4</ele>
        <time>2022-02-09T10:30:25Z</time>
      </trkpt>
      <trkpt lat="42.85955" lon="0.22819">
        <ele>2271.4</ele>
        <time>2022-02-09T10:30:26Z</time>
      </trkpt>
      <trkpt lat="42.85955" lon="0.22819">
        <ele>2271.4</ele>
        <time>2022-02-09T10:30:27Z</time>
      </trkpt>
      <trkpt lat="42.85955" lon="0.22819">
        <ele>2271.4</ele>
        <time>2022-02-09T10:30:28Z</time>
      </trkpt>
      <trkpt lat="42.85955" lon="0.22819">
        <ele>2271.4</ele>
        <time>2022-02-09T10:30:29Z</time>
      </trkpt>
      <trkpt lat="42.85955" lon="0.22819">
        <ele>2271.4</ele>
        <time>2022-02-09T10:30:30Z</time>
      </trkpt>
      <trkpt lat="42.85955" lon="0.22819">
        <ele>2271.4</ele>
        <time>2022-02-09T10:30:31Z</time>
      </trkpt>
      <trkpt lat="42.85955" lon="0.22819">
        <ele>2271.4</ele>
        <time>2022-02-09T10:30:32Z</time>
      </trkpt>
      <trkpt lat="42.85955" lon="0.22819">
        <ele>2271.4</ele>
        <time>2022-02-09T10:30:33Z</time>
      </trkpt>
      <trkpt lat="42.85955" lon="0.22819">
        <ele>2271.4</ele>
        <time>2022-02-09T10:30:34Z</time>
      </trkpt>
      <trkpt lat="42.85955" lon="0.22819">
        <ele>2271.4</ele>
        <time>2022-02-09T10:30:35Z</time>
      </trkpt>
      <trkpt lat="42.85955" lon="0.22819">
        <ele>2271.4</ele>
        <time>2022-02-09T10:30:36Z</time>
      </trkpt>
      <trkpt lat="42.85955" lon="0.22819">
        <ele>2271.4</ele>
        <time>2022-02-09T10:30:37Z</time>
      </trkpt>
      <trkpt lat="42.85955" lon="0.22819">
        <ele>2271.4</ele>
        <time>2022-02-09T10:30:38Z</time>
      </trkpt>
      <trkpt lat="42.85955" lon="0.22819">
        <ele>2271.4</ele>
        <time>2022-02-09T10:30:39Z</time>
      </trkpt>
      <trkpt lat="42.85955" lon="0.22819">
        <ele>2271.4</ele>
        <time>2022-02-09T10:30:40Z</time>
      </trkpt>
      <trkpt lat="42.85955" lon="0.22819">
        <ele>2271.4</ele>
        <time>2022-02-09T10:30:41Z</time>
      </trkpt>
      <trkpt lat="42.85955" lon="0.22819">
        <ele>2271.4</ele>
        <time>2022-02-09T10:30:42Z</time>
      </trkpt>
      <trkpt lat="42.85955" lon="0.22819">
        <ele>2271.4</ele>
        <time>2022-02-09T10:30:43Z</time>
      </trkpt>
      <trkpt lat="42.85955" lon="0.22819">
        <ele>2271.4</ele>
        <time>2022-02-09T10:30:44Z</time>
      </trkpt>
      <trkpt lat="42.85955" lon="0.22819">
        <ele>2271.4</ele>
        <time>2022-02-09T10:30:45Z</time>
      </trkpt>
      <trkpt lat="42.85955" lon="0.22819">
        <ele>2271.4</ele>
        <time>2022-02-09T10:30:46Z</time>
      </trkpt>
      <trkpt lat="42.85955" lon="0.22819">
        <ele>2271.4</ele>
        <time>2022-02-09T10:30:47Z</time>
      </trkpt>
      <trkpt lat="42.85955" lon="0.22819">
        <ele>2271.4</ele>
        <time>2022-02-09T10:30:48Z</time>
      </trkpt>
      <trkpt lat="42.85955" lon="0.22819">
        <ele>2271.4</ele>
        <time>2022-02-09T10:30:49Z</time>
      </trkpt>
      <trkpt lat="42.85955" lon="0.22819">
        <ele>2271.4</ele>
        <time>2022-02-09T10:30:50Z</time>
      </trkpt>
      <trkpt lat="42.85955" lon="0.22819">
        <ele>2271.4</ele>
        <time>2022-02-09T10:30:51Z</time>
      </trkpt>
      <trkpt lat="42.85955" lon="0.22819">
        <ele>2271.4</ele>
        <time>2022-02-09T10:30:52Z</time>
      </trkpt>
      <trkpt lat="42.85955" lon="0.22819">
        <ele>2271.4</ele>
        <time>2022-02-09T10:30:53Z</time>
      </trkpt>
      <trkpt lat="42.85955" lon="0.22819">
        <ele>2271.4</ele>
        <time>2022-02-09T10:30:54Z</time>
      </trkpt>
      <trkpt lat="42.85955" lon="0.22819">
        <ele>2271.4</ele>
        <time>2022-02-09T10:30:55Z</time>
      </trkpt>
      <trkpt lat="42.85955" lon="0.22819">
        <ele>2271.4</ele>
        <time>2022-02-09T10:30:56Z</time>
      </trkpt>
      <trkpt lat="42.85955" lon="0.22819">
        <ele>2271.4</ele>
        <time>2022-02-09T10:30:57Z</time>
      </trkpt>
      <trkpt lat="42.85955" lon="0.22819">
        <ele>2271.4</ele>
        <time>2022-02-09T10:30:58Z</time>
      </trkpt>
      <trkpt lat="42.85955" lon="0.22819">
        <ele>2271.4</ele>
        <time>2022-02-09T10:30:59Z</time>
      </trkpt>
      <trkpt lat="42.85955" lon="0.22819">
        <ele>2271.4</ele>
        <time>2022-02-09T10:31:00Z</time>
      </trkpt>
      <trkpt lat="42.85955" lon="0.22819">
        <ele>2271.4</ele>
        <time>2022-02-09T10:31:01Z</time>
      </trkpt>
      <trkpt lat="42.85955" lon="0.22819">
        <ele>2271.4</ele>
        <time>2022-02-09T10:31:02Z</time>
      </trkpt>
      <trkpt lat="42.85955" lon="0.22819">
        <ele>2271.4</ele>
        <time>2022-02-09T10:31:03Z</time>
      </trkpt>
      <trkpt lat="42.85955" lon="0.22819">
        <ele>2271.4</ele>
        <time>2022-02-09T10:31:04Z</time>
      </trkpt>
      <trkpt lat="42.85955" lon="0.22819">
        <ele>2271.4</ele>
        <time>2022-02-09T10:31:05Z</time>
      </trkpt>
      <trkpt lat="42.85955" lon="0.22819">
        <ele>2271.4</ele>
        <time>2022-02-09T10:31:06Z</time>
      </trkpt>
      <trkpt lat="42.85955" lon="0.22819">
        <ele>2271.4</ele>
        <time>2022-02-09T10:31:07Z</time>
      </trkpt>
      <trkpt lat="42.85955" lon="0.22819">
        <ele>2271.4</ele>
        <time>2022-02-09T10:31:08Z</time>
      </trkpt>
      <trkpt lat="42.85955" lon="0.22819">
        <ele>2271.4</ele>
        <time>2022-02-09T10:31:09Z</time>
      </trkpt>
      <trkpt lat="42.85955" lon="0.22819">
        <ele>2271.4</ele>
        <time>2022-02-09T10:31:10Z</time>
      </trkpt>
      <trkpt lat="42.85955" lon="0.22819">
        <ele>2271.4</ele>
        <time>2022-02-09T10:31:11Z</time>
      </trkpt>
      <trkpt lat="42.85955" lon="0.22819">
        <ele>2271.4</ele>
        <time>2022-02-09T10:31:12Z</time>
      </trkpt>
      <trkpt lat="42.85955" lon="0.22819">
        <ele>2271.4</ele>
        <time>2022-02-09T10:31:13Z</time>
      </trkpt>
      <trkpt lat="42.85955" lon="0.22819">
        <ele>2271.4</ele>
        <time>2022-02-09T10:31:14Z</time>
      </trkpt>
      <trkpt lat="42.85955" lon="0.22819">
        <ele>2271.4</ele>
        <time>2022-02-09T10:31:15Z</time>
      </trkpt>
      <trkpt lat="42.85955" lon="0.22819">
        <ele>2271.4</ele>
        <time>2022-02-09T10:31:16Z</time>
      </trkpt>
      <trkpt lat="42.85955" lon="0.22819">
        <ele>2271.4</ele>
        <time>2022-02-09T10:31:17Z</time>
      </trkpt>
      <trkpt lat="42.85955" lon="0.22819">
        <ele>2271.4</ele>
        <time>2022-02-09T10:31:18Z</time>
      </trkpt>
      <trkpt lat="42.85955" lon="0.22819">
        <ele>2271.4</ele>
        <time>2022-02-09T10:31:19Z</time>
      </trkpt>
      <trkpt lat="42.85955" lon="0.22819">
        <ele>2271.4</ele>
        <time>2022-02-09T10:31:20Z</time>
      </trkpt>
      <trkpt lat="42.85955" lon="0.22819">
        <ele>2271.4</ele>
        <time>2022-02-09T10:31:21Z</time>
      </trkpt>
      <trkpt lat="42.85955" lon="0.22819">
        <ele>2271.4</ele>
        <time>2022-02-09T10:31:22Z</time>
      </trkpt>
      <trkpt lat="42.85955" lon="0.22819">
        <ele>2271.4</ele>
        <time>2022-02-09T10:31:23Z</time>
      </trkpt>
      <trkpt lat="42.85955" lon="0.22819">
        <ele>2271.4</ele>
        <time>2022-02-09T10:31:24Z</time>
      </trkpt>
      <trkpt lat="42.85955" lon="0.22819">
        <ele>2271.4</ele>
        <time>2022-02-09T10:31:25Z</time>
      </trkpt>
      <trkpt lat="42.85955" lon="0.22819">
        <ele>2271.4</ele>
        <time>2022-02-09T10:31:26Z</time>
      </trkpt>
      <trkpt lat="42.85955" lon="0.22819">
        <ele>2271.4</ele>
        <time>2022-02-09T10:31:27Z</time>
      </trkpt>
      <trkpt lat="42.85955" lon="0.22819">
        <ele>2271.4</ele>
        <time>2022-02-09T10:31:28Z</time>
      </trkpt>
      <trkpt lat="42.85955" lon="0.22819">
        <ele>2271.4</ele>
        <time>2022-02-09T10:31:29Z</time>
      </trkpt>
      <trkpt lat="42.85955" lon="0.22819">
        <ele>2271.4</ele>
        <time>2022-02-09T10:31:30Z</time>
      </trkpt>
      <trkpt lat="42.85955" lon="0.22819">
        <ele>2271.4</ele>
        <time>2022-02-09T10:31:31Z</time>
      </trkpt>
      <trkpt lat="42.85955" lon="0.22819">
        <ele>2271.4</ele>
        <time>2022-02-09T10:31:32Z</time>
      </trkpt>
      <trkpt lat="42.85955" lon="0.22819">
        <ele>2271.4</ele>
        <time>2022-02-09T10:31:33Z</time>
      </trkpt>
      <trkpt lat="42.85955" lon="0.22819">
        <ele>2271.4</ele>
        <time>2022-02-09T10:31:34Z</time>
      </trkpt>
      <trkpt lat="42.85955" lon="0.22819">
        <ele>2271.4</ele>
        <time>2022-02-09T10:31:35Z</time>
      </trkpt>
      <trkpt lat="42.85955" lon="0.22819">
        <ele>2271.4</ele>
        <time>2022-02-09T10:31:36Z</time>
      </trkpt>
      <trkpt lat="42.85955" lon="0.22819">
        <ele>2271.4</ele>
        <time>2022-02-09T10:31:37Z</time>
      </trkpt>
      <trkpt lat="42.85955" lon="0.22819">
        <ele>2271.4</ele>
        <time>2022-02-09T10:31:38Z</time>
      </trkpt>
      <trkpt lat="42.85955" lon="0.22819">
        <ele>2271.4</ele>
        <time>2022-02-09T10:31:39Z</time>
      </trkpt>
      <trkpt lat="42.85955" lon="0.22819">
        <ele>2271.4</ele>
        <time>2022-02-09T10:31:40Z</time>
      </trkpt>
      <trkpt lat="42.85955" lon="0.22819">
        <ele>2271.4</ele>
        <time>2022-02-09T10:31:41Z</time>
      </trkpt>
      <trkpt lat="42.85955" lon="0.22819">
        <ele>2271.4</ele>
        <time>2022-02-09T10:31:42Z</time>
      </trkpt>
      <trkpt lat="42.85955" lon="0.22819">
        <ele>2271.4</ele>
        <time>2022-02-09T10:31:43Z</time>
      </trkpt>
      <trkpt lat="42.85955" lon="0.22819">
        <ele>2271.4</ele>
        <time>2022-02-09T10:31:44Z</time>
      </trkpt>
      <trkpt lat="42.85955" lon="0.22819">
        <ele>2271.4</ele>
        <time>2022-02-09T10:31:45Z</time>
      </trkpt>
      <trkpt lat="42.85955" lon="0.22819">
        <ele>2271.4</ele>
        <time>2022-02-09T10:31:46Z</time>
      </trkpt>
      <trkpt lat="42.85955" lon="0.22819">
        <ele>2271.4</ele>
        <time>2022-02-09T10:31:47Z</time>
      </trkpt>
      <trkpt lat="42.85955" lon="0.22819">
        <ele>2271.4</ele>
        <time>2022-02-09T10:31:48Z</time>
      </trkpt>
      <trkpt lat="42.85955" lon="0.22819">
        <ele>2271.4</ele>
        <time>2022-02-09T10:31:49Z</time>
      </trkpt>
      <trkpt lat="42.85955" lon="0.22819">
        <ele>2271.4</ele>
        <time>2022-02-09T10:31:50Z</time>
      </trkpt>
      <trkpt lat="42.85955" lon="0.22819">
        <ele>2271.4</ele>
        <time>2022-02-09T10:31:51Z</time>
      </trkpt>
      <trkpt lat="42.85955" lon="0.22819">
        <ele>2271.4</ele>
        <time>2022-02-09T10:31:52Z</time>
      </trkpt>
      <trkpt lat="42.85955" lon="0.22819">
        <ele>2271.4</ele>
        <time>2022-02-09T10:31:53Z</time>
      </trkpt>
      <trkpt lat="42.85955" lon="0.22819">
        <ele>2271.4</ele>
        <time>2022-02-09T10:31:54Z</time>
      </trkpt>
      <trkpt lat="42.85955" lon="0.22819">
        <ele>2271.4</ele>
        <time>2022-02-09T10:31:55Z</time>
      </trkpt>
      <trkpt lat="42.85955" lon="0.22819">
        <ele>2271.4</ele>
        <time>2022-02-09T10:31:56Z</time>
      </trkpt>
      <trkpt lat="42.85955" lon="0.22819">
        <ele>2271.4</ele>
        <time>2022-02-09T10:31:57Z</time>
      </trkpt>
      <trkpt lat="42.85955" lon="0.22819">
        <ele>2271.4</ele>
        <time>2022-02-09T10:31:58Z</time>
      </trkpt>
      <trkpt lat="42.85955" lon="0.22819">
        <ele>2271.4</ele>
        <time>2022-02-09T10:31:59Z</time>
      </trkpt>
      <trkpt lat="42.85955" lon="0.22819">
        <ele>2271.4</ele>
        <time>2022-02-09T10:32:00Z</time>
      </trkpt>
      <trkpt lat="42.85955" lon="0.22819">
        <ele>2271.4</ele>
        <time>2022-02-09T10:32:01Z</time>
      </trkpt>
      <trkpt lat="42.85955" lon="0.22819">
        <ele>2271.4</ele>
        <time>2022-02-09T10:32:02Z</time>
      </trkpt>
      <trkpt lat="42.85955" lon="0.22819">
        <ele>2271.4</ele>
        <time>2022-02-09T10:32:03Z</time>
      </trkpt>
      <trkpt lat="42.85955" lon="0.22819">
        <ele>2271.4</ele>
        <time>2022-02-09T10:32:04Z</time>
      </trkpt>
      <trkpt lat="42.85955" lon="0.22819">
        <ele>2271.4</ele>
        <time>2022-02-09T10:32:05Z</time>
      </trkpt>
      <trkpt lat="42.85955" lon="0.22819">
        <ele>2271.4</ele>
        <time>2022-02-09T10:32:06Z</time>
      </trkpt>
      <trkpt lat="42.85955" lon="0.22819">
        <ele>2271.4</ele>
        <time>2022-02-09T10:32:07Z</time>
      </trkpt>
      <trkpt lat="42.85955" lon="0.22819">
        <ele>2271.4</ele>
        <time>2022-02-09T10:32:08Z</time>
      </trkpt>
      <trkpt lat="42.85955" lon="0.22819">
        <ele>2271.4</ele>
        <time>2022-02-09T10:32:09Z</time>
      </trkpt>
      <trkpt lat="42.85955" lon="0.22819">
        <ele>2271.4</ele>
        <time>2022-02-09T10:32:10Z</time>
      </trkpt>
      <trkpt lat="42.85955" lon="0.22819">
        <ele>2271.4</ele>
        <time>2022-02-09T10:32:11Z</time>
      </trkpt>
      <trkpt lat="42.85955" lon="0.22819">
        <ele>2271.4</ele>
        <time>2022-02-09T10:32:12Z</time>
      </trkpt>
      <trkpt lat="42.85955" lon="0.22819">
        <ele>2271.4</ele>
        <time>2022-02-09T10:32:13Z</time>
      </trkpt>
      <trkpt lat="42.85955" lon="0.22819">
        <ele>2271.4</ele>
        <time>2022-02-09T10:32:14Z</time>
      </trkpt>
      <trkpt lat="42.85955" lon="0.22819">
        <ele>2271.4</ele>
        <time>2022-02-09T10:32:15Z</time>
      </trkpt>
      <trkpt lat="42.85955" lon="0.22819">
        <ele>2271.4</ele>
        <time>2022-02-09T10:32:16Z</time>
      </trkpt>
      <trkpt lat="42.85955" lon="0.22819">
        <ele>2271.4</ele>
        <time>2022-02-09T10:32:17Z</time>
      </trkpt>
      <trkpt lat="42.85955" lon="0.22819">
        <ele>2271.4</ele>
        <time>2022-02-09T10:32:18Z</time>
      </trkpt>
      <trkpt lat="42.85955" lon="0.22819">
        <ele>2271.4</ele>
        <time>2022-02-09T10:32:19Z</time>
      </trkpt>
      <trkpt lat="42.85955" lon="0.22819">
        <ele>2271.4</ele>
        <time>2022-02-09T10:32:20Z</time>
      </trkpt>
      <trkpt lat="42.85955" lon="0.22819">
        <ele>2271.4</ele>
        <time>2022-02-09T10:32:21Z</time>
      </trkpt>
      <trkpt lat="42.85955" lon="0.22819">
        <ele>2271.4</ele>
        <time>2022-02-09T10:32:22Z</time>
      </trkpt>
      <trkpt lat="42.85955" lon="0.22819">
        <ele>2271.4</ele>
        <time>2022-02-09T10:32:23Z</time>
      </trkpt>
      <trkpt lat="42.85955" lon="0.22819">
        <ele>2271.4</ele>
        <time>2022-02-09T10:32:24Z</time>
      </trkpt>
      <trkpt lat="42.85955" lon="0.22819">
        <ele>2271.4</ele>
        <time>2022-02-09T10:32:25Z</time>
      </trkpt>
      <trkpt lat="42.85955" lon="0.22819">
        <ele>2271.4</ele>
        <time>2022-02-09T10:32:26Z</time>
      </trkpt>
      <trkpt lat="42.85955" lon="0.22819">
        <ele>2271.4</ele>
        <time>2022-02-09T10:32:27Z</time>
      </trkpt>
      <trkpt lat="42.85955" lon="0.22819">
        <ele>2271.4</ele>
        <time>2022-02-09T10:32:28Z</time>
      </trkpt>
      <trkpt lat="42.85955" lon="0.22819">
        <ele>2271.4</ele>
        <time>2022-02-09T10:32:29Z</time>
      </trkpt>
      <trkpt lat="42.85955" lon="0.22819">
        <ele>2271.4</ele>
        <time>2022-02-09T10:32:30Z</time>
      </trkpt>
      <trkpt lat="42.85955" lon="0.22819">
        <ele>2271.4</ele>
        <time>2022-02-09T10:32:31Z</time>
      </trkpt>
      <trkpt lat="42.85955" lon="0.22819">
        <ele>2271.4</ele>
        <time>2022-02-09T10:32:32Z</time>
      </trkpt>
      <trkpt lat="42.85955" lon="0.22819">
        <ele>2271.4</ele>
        <time>2022-02-09T10:32:33Z</time>
      </trkpt>
      <trkpt lat="42.85955" lon="0.22819">
        <ele>2271.4</ele>
        <time>2022-02-09T10:32:34Z</time>
      </trkpt>
      <trkpt lat="42.85955" lon="0.22819">
        <ele>2271.4</ele>
        <time>2022-02-09T10:32:35Z</time>
      </trkpt>
      <trkpt lat="42.85955" lon="0.22819">
        <ele>2271.4</ele>
        <time>2022-02-09T10:32:36Z</time>
      </trkpt>
      <trkpt lat="42.85955" lon="0.22819">
        <ele>2271.4</ele>
        <time>2022-02-09T10:32:37Z</time>
      </trkpt>
      <trkpt lat="42.85955" lon="0.22819">
        <ele>2271.4</ele>
        <time>2022-02-09T10:32:38Z</time>
      </trkpt>
      <trkpt lat="42.85955" lon="0.22819">
        <ele>2271.4</ele>
        <time>2022-02-09T10:32:39Z</time>
      </trkpt>
      <trkpt lat="42.85955" lon="0.22819">
        <ele>2271.4</ele>
        <time>2022-02-09T10:32:40Z</time>
      </trkpt>
      <trkpt lat="42.85955" lon="0.22819">
        <ele>2271.4</ele>
        <time>2022-02-09T10:32:41Z</time>
      </trkpt>
      <trkpt lat="42.85955" lon="0.22819">
        <ele>2271.4</ele>
        <time>2022-02-09T10:32:42Z</time>
      </trkpt>
      <trkpt lat="42.85955" lon="0.22819">
        <ele>2271.4</ele>
        <time>2022-02-09T10:32:43Z</time>
      </trkpt>
      <trkpt lat="42.85955" lon="0.22819">
        <ele>2271.4</ele>
        <time>2022-02-09T10:32:44Z</time>
      </trkpt>
      <trkpt lat="42.85956" lon="0.22818">
        <ele>2271.6</ele>
        <time>2022-02-09T10:32:45Z</time>
      </trkpt>
      <trkpt lat="42.85956" lon="0.22816">
        <ele>2271.9</ele>
        <time>2022-02-09T10:32:46Z</time>
      </trkpt>
      <trkpt lat="42.85956" lon="0.22815">
        <ele>2272</ele>
        <time>2022-02-09T10:32:47Z</time>
      </trkpt>
      <trkpt lat="42.85957" lon="0.22814">
        <ele>2272.2</ele>
        <time>2022-02-09T10:32:48Z</time>
      </trkpt>
      <trkpt lat="42.85957" lon="0.22813">
        <ele>2272.3</ele>
        <time>2022-02-09T10:32:49Z</time>
      </trkpt>
      <trkpt lat="42.85957" lon="0.22813">
        <ele>2272.4</ele>
        <time>2022-02-09T10:32:50Z</time>
      </trkpt>
      <trkpt lat="42.85958" lon="0.22812">
        <ele>2272.5</ele>
        <time>2022-02-09T10:32:51Z</time>
      </trkpt>
      <trkpt lat="42.85958" lon="0.22811">
        <ele>2272.6</ele>
        <time>2022-02-09T10:32:52Z</time>
      </trkpt>
      <trkpt lat="42.85959" lon="0.2281">
        <ele>2272.7</ele>
        <time>2022-02-09T10:32:53Z</time>
      </trkpt>
      <trkpt lat="42.85959" lon="0.22809">
        <ele>2272.8</ele>
        <time>2022-02-09T10:32:54Z</time>
      </trkpt>
      <trkpt lat="42.8596" lon="0.22808">
        <ele>2272.9</ele>
        <time>2022-02-09T10:32:55Z</time>
      </trkpt>
      <trkpt lat="42.8596" lon="0.22807">
        <ele>2273</ele>
        <time>2022-02-09T10:32:56Z</time>
      </trkpt>
      <trkpt lat="42.85961" lon="0.22806">
        <ele>2273.1</ele>
        <time>2022-02-09T10:32:57Z</time>
      </trkpt>
      <trkpt lat="42.85961" lon="0.22805">
        <ele>2273.1</ele>
        <time>2022-02-09T10:32:58Z</time>
      </trkpt>
      <trkpt lat="42.85962" lon="0.22805">
        <ele>2273.1</ele>
        <time>2022-02-09T10:32:59Z</time>
      </trkpt>
      <trkpt lat="42.85963" lon="0.22804">
        <ele>2273.2</ele>
        <time>2022-02-09T10:33:00Z</time>
      </trkpt>
      <trkpt lat="42.85963" lon="0.22803">
        <ele>2273.2</ele>
        <time>2022-02-09T10:33:01Z</time>
      </trkpt>
      <trkpt lat="42.85964" lon="0.22802">
        <ele>2273.2</ele>
        <time>2022-02-09T10:33:02Z</time>
      </trkpt>
      <trkpt lat="42.85965" lon="0.22802">
        <ele>2273.3</ele>
        <time>2022-02-09T10:33:03Z</time>
      </trkpt>
      <trkpt lat="42.85966" lon="0.22801">
        <ele>2273.2</ele>
        <time>2022-02-09T10:33:04Z</time>
      </trkpt>
      <trkpt lat="42.85966" lon="0.22801">
        <ele>2273.2</ele>
        <time>2022-02-09T10:33:05Z</time>
      </trkpt>
      <trkpt lat="42.85967" lon="0.228">
        <ele>2273.2</ele>
        <time>2022-02-09T10:33:06Z</time>
      </trkpt>
      <trkpt lat="42.85968" lon="0.22799">
        <ele>2273.2</ele>
        <time>2022-02-09T10:33:07Z</time>
      </trkpt>
      <trkpt lat="42.85969" lon="0.22798">
        <ele>2273.1</ele>
        <time>2022-02-09T10:33:08Z</time>
      </trkpt>
      <trkpt lat="42.8597" lon="0.22798">
        <ele>2273.1</ele>
        <time>2022-02-09T10:33:09Z</time>
      </trkpt>
      <trkpt lat="42.85971" lon="0.22797">
        <ele>2273</ele>
        <time>2022-02-09T10:33:10Z</time>
      </trkpt>
      <trkpt lat="42.85971" lon="0.22796">
        <ele>2272.9</ele>
        <time>2022-02-09T10:33:11Z</time>
      </trkpt>
      <trkpt lat="42.85972" lon="0.22795">
        <ele>2272.9</ele>
        <time>2022-02-09T10:33:12Z</time>
      </trkpt>
      <trkpt lat="42.85972" lon="0.22795">
        <ele>2272.9</ele>
        <time>2022-02-09T10:33:13Z</time>
      </trkpt>
      <trkpt lat="42.85973" lon="0.22794">
        <ele>2272.8</ele>
        <time>2022-02-09T10:33:14Z</time>
      </trkpt>
      <trkpt lat="42.85974" lon="0.22793">
        <ele>2272.7</ele>
        <time>2022-02-09T10:33:15Z</time>
      </trkpt>
      <trkpt lat="42.85975" lon="0.22791">
        <ele>2272.7</ele>
        <time>2022-02-09T10:33:16Z</time>
      </trkpt>
      <trkpt lat="42.85976" lon="0.2279">
        <ele>2272.6</ele>
        <time>2022-02-09T10:33:17Z</time>
      </trkpt>
      <trkpt lat="42.85977" lon="0.22789">
        <ele>2272.5</ele>
        <time>2022-02-09T10:33:18Z</time>
      </trkpt>
      <trkpt lat="42.85977" lon="0.22788">
        <ele>2272.5</ele>
        <time>2022-02-09T10:33:19Z</time>
      </trkpt>
      <trkpt lat="42.85977" lon="0.22788">
        <ele>2272.5</ele>
        <time>2022-02-09T10:33:20Z</time>
      </trkpt>
      <trkpt lat="42.85978" lon="0.22786">
        <ele>2272.4</ele>
        <time>2022-02-09T10:33:21Z</time>
      </trkpt>
      <trkpt lat="42.85978" lon="0.22785">
        <ele>2272.4</ele>
        <time>2022-02-09T10:33:22Z</time>
      </trkpt>
      <trkpt lat="42.85978" lon="0.22784">
        <ele>2272.4</ele>
        <time>2022-02-09T10:33:23Z</time>
      </trkpt>
      <trkpt lat="42.85979" lon="0.22783">
        <ele>2272.3</ele>
        <time>2022-02-09T10:33:24Z</time>
      </trkpt>
      <trkpt lat="42.85978" lon="0.22781">
        <ele>2272.3</ele>
        <time>2022-02-09T10:33:25Z</time>
      </trkpt>
      <trkpt lat="42.85978" lon="0.2278">
        <ele>2272.3</ele>
        <time>2022-02-09T10:33:26Z</time>
      </trkpt>
      <trkpt lat="42.85978" lon="0.22778">
        <ele>2272.3</ele>
        <time>2022-02-09T10:33:27Z</time>
      </trkpt>
      <trkpt lat="42.85978" lon="0.22777">
        <ele>2272.3</ele>
        <time>2022-02-09T10:33:28Z</time>
      </trkpt>
      <trkpt lat="42.85978" lon="0.22775">
        <ele>2272.3</ele>
        <time>2022-02-09T10:33:29Z</time>
      </trkpt>
      <trkpt lat="42.85979" lon="0.22773">
        <ele>2272.3</ele>
        <time>2022-02-09T10:33:30Z</time>
      </trkpt>
      <trkpt lat="42.85979" lon="0.22772">
        <ele>2272.4</ele>
        <time>2022-02-09T10:33:31Z</time>
      </trkpt>
      <trkpt lat="42.85979" lon="0.22771">
        <ele>2272.4</ele>
        <time>2022-02-09T10:33:32Z</time>
      </trkpt>
      <trkpt lat="42.85979" lon="0.2277">
        <ele>2272.5</ele>
        <time>2022-02-09T10:33:33Z</time>
      </trkpt>
      <trkpt lat="42.8598" lon="0.22769">
        <ele>2272.5</ele>
        <time>2022-02-09T10:33:34Z</time>
      </trkpt>
      <trkpt lat="42.8598" lon="0.22768">
        <ele>2272.5</ele>
        <time>2022-02-09T10:33:35Z</time>
      </trkpt>
      <trkpt lat="42.8598" lon="0.22768">
        <ele>2272.6</ele>
        <time>2022-02-09T10:33:36Z</time>
      </trkpt>
      <trkpt lat="42.85981" lon="0.22767">
        <ele>2272.7</ele>
        <time>2022-02-09T10:33:37Z</time>
      </trkpt>
      <trkpt lat="42.85981" lon="0.22766">
        <ele>2272.7</ele>
        <time>2022-02-09T10:33:38Z</time>
      </trkpt>
      <trkpt lat="42.85981" lon="0.22765">
        <ele>2272.8</ele>
        <time>2022-02-09T10:33:39Z</time>
      </trkpt>
      <trkpt lat="42.85982" lon="0.22764">
        <ele>2272.9</ele>
        <time>2022-02-09T10:33:40Z</time>
      </trkpt>
      <trkpt lat="42.85982" lon="0.22763">
        <ele>2273</ele>
        <time>2022-02-09T10:33:41Z</time>
      </trkpt>
      <trkpt lat="42.85982" lon="0.22761">
        <ele>2273.1</ele>
        <time>2022-02-09T10:33:42Z</time>
      </trkpt>
      <trkpt lat="42.85982" lon="0.2276">
        <ele>2273.2</ele>
        <time>2022-02-09T10:33:43Z</time>
      </trkpt>
      <trkpt lat="42.85982" lon="0.22758">
        <ele>2273.3</ele>
        <time>2022-02-09T10:33:44Z</time>
      </trkpt>
      <trkpt lat="42.85982" lon="0.22757">
        <ele>2273.5</ele>
        <time>2022-02-09T10:33:45Z</time>
      </trkpt>
      <trkpt lat="42.85983" lon="0.22755">
        <ele>2273.7</ele>
        <time>2022-02-09T10:33:46Z</time>
      </trkpt>
      <trkpt lat="42.85983" lon="0.22754">
        <ele>2273.8</ele>
        <time>2022-02-09T10:33:47Z</time>
      </trkpt>
      <trkpt lat="42.85983" lon="0.22753">
        <ele>2273.9</ele>
        <time>2022-02-09T10:33:48Z</time>
      </trkpt>
      <trkpt lat="42.85984" lon="0.22753">
        <ele>2274</ele>
        <time>2022-02-09T10:33:49Z</time>
      </trkpt>
      <trkpt lat="42.85983" lon="0.22752">
        <ele>2274.2</ele>
        <time>2022-02-09T10:33:50Z</time>
      </trkpt>
      <trkpt lat="42.85984" lon="0.2275">
        <ele>2274.4</ele>
        <time>2022-02-09T10:33:51Z</time>
      </trkpt>
      <trkpt lat="42.85984" lon="0.22749">
        <ele>2274.5</ele>
        <time>2022-02-09T10:33:52Z</time>
      </trkpt>
      <trkpt lat="42.85985" lon="0.22748">
        <ele>2274.7</ele>
        <time>2022-02-09T10:33:53Z</time>
      </trkpt>
      <trkpt lat="42.85985" lon="0.22747">
        <ele>2274.8</ele>
        <time>2022-02-09T10:33:54Z</time>
      </trkpt>
      <trkpt lat="42.85984" lon="0.22746">
        <ele>2275</ele>
        <time>2022-02-09T10:33:55Z</time>
      </trkpt>
      <trkpt lat="42.85985" lon="0.22745">
        <ele>2275.1</ele>
        <time>2022-02-09T10:33:56Z</time>
      </trkpt>
      <trkpt lat="42.85985" lon="0.22743">
        <ele>2275.2</ele>
        <time>2022-02-09T10:33:57Z</time>
      </trkpt>
      <trkpt lat="42.85985" lon="0.22742">
        <ele>2275.4</ele>
        <time>2022-02-09T10:33:58Z</time>
      </trkpt>
      <trkpt lat="42.85985" lon="0.22741">
        <ele>2275.6</ele>
        <time>2022-02-09T10:33:59Z</time>
      </trkpt>
      <trkpt lat="42.85985" lon="0.2274">
        <ele>2275.7</ele>
        <time>2022-02-09T10:34:00Z</time>
      </trkpt>
      <trkpt lat="42.85985" lon="0.22739">
        <ele>2275.9</ele>
        <time>2022-02-09T10:34:01Z</time>
      </trkpt>
      <trkpt lat="42.85986" lon="0.22738">
        <ele>2276</ele>
        <time>2022-02-09T10:34:02Z</time>
      </trkpt>
      <trkpt lat="42.85986" lon="0.22737">
        <ele>2276.1</ele>
        <time>2022-02-09T10:34:03Z</time>
      </trkpt>
      <trkpt lat="42.85986" lon="0.22736">
        <ele>2276.3</ele>
        <time>2022-02-09T10:34:04Z</time>
      </trkpt>
      <trkpt lat="42.85986" lon="0.22734">
        <ele>2276.4</ele>
        <time>2022-02-09T10:34:05Z</time>
      </trkpt>
      <trkpt lat="42.85986" lon="0.22733">
        <ele>2276.6</ele>
        <time>2022-02-09T10:34:06Z</time>
      </trkpt>
      <trkpt lat="42.85986" lon="0.22732">
        <ele>2276.7</ele>
        <time>2022-02-09T10:34:07Z</time>
      </trkpt>
      <trkpt lat="42.85986" lon="0.22731">
        <ele>2276.8</ele>
        <time>2022-02-09T10:34:08Z</time>
      </trkpt>
      <trkpt lat="42.85986" lon="0.2273">
        <ele>2277</ele>
        <time>2022-02-09T10:34:09Z</time>
      </trkpt>
      <trkpt lat="42.85987" lon="0.22729">
        <ele>2277.1</ele>
        <time>2022-02-09T10:34:10Z</time>
      </trkpt>
      <trkpt lat="42.85987" lon="0.22728">
        <ele>2277.2</ele>
        <time>2022-02-09T10:34:11Z</time>
      </trkpt>
      <trkpt lat="42.85987" lon="0.22727">
        <ele>2277.3</ele>
        <time>2022-02-09T10:34:12Z</time>
      </trkpt>
      <trkpt lat="42.85987" lon="0.22726">
        <ele>2277.4</ele>
        <time>2022-02-09T10:34:13Z</time>
      </trkpt>
      <trkpt lat="42.85987" lon="0.22725">
        <ele>2277.6</ele>
        <time>2022-02-09T10:34:14Z</time>
      </trkpt>
      <trkpt lat="42.85987" lon="0.22725">
        <ele>2277.7</ele>
        <time>2022-02-09T10:34:15Z</time>
      </trkpt>
      <trkpt lat="42.85987" lon="0.22724">
        <ele>2277.8</ele>
        <time>2022-02-09T10:34:16Z</time>
      </trkpt>
      <trkpt lat="42.85987" lon="0.22723">
        <ele>2277.9</ele>
        <time>2022-02-09T10:34:17Z</time>
      </trkpt>
      <trkpt lat="42.85987" lon="0.22722">
        <ele>2278</ele>
        <time>2022-02-09T10:34:18Z</time>
      </trkpt>
      <trkpt lat="42.85987" lon="0.22721">
        <ele>2278.1</ele>
        <time>2022-02-09T10:34:19Z</time>
      </trkpt>
      <trkpt lat="42.85988" lon="0.2272">
        <ele>2278.2</ele>
        <time>2022-02-09T10:34:20Z</time>
      </trkpt>
      <trkpt lat="42.85988" lon="0.22719">
        <ele>2278.3</ele>
        <time>2022-02-09T10:34:21Z</time>
      </trkpt>
      <trkpt lat="42.85988" lon="0.22718">
        <ele>2278.4</ele>
        <time>2022-02-09T10:34:22Z</time>
      </trkpt>
      <trkpt lat="42.85988" lon="0.22717">
        <ele>2278.5</ele>
        <time>2022-02-09T10:34:23Z</time>
      </trkpt>
      <trkpt lat="42.85988" lon="0.22716">
        <ele>2278.6</ele>
        <time>2022-02-09T10:34:24Z</time>
      </trkpt>
      <trkpt lat="42.85988" lon="0.22715">
        <ele>2278.8</ele>
        <time>2022-02-09T10:34:25Z</time>
      </trkpt>
      <trkpt lat="42.85988" lon="0.22714">
        <ele>2278.9</ele>
        <time>2022-02-09T10:34:26Z</time>
      </trkpt>
      <trkpt lat="42.85988" lon="0.22714">
        <ele>2279</ele>
        <time>2022-02-09T10:34:27Z</time>
      </trkpt>
      <trkpt lat="42.85988" lon="0.22713">
        <ele>2279.2</ele>
        <time>2022-02-09T10:34:28Z</time>
      </trkpt>
      <trkpt lat="42.85988" lon="0.22711">
        <ele>2279.3</ele>
        <time>2022-02-09T10:34:29Z</time>
      </trkpt>
      <trkpt lat="42.85988" lon="0.22711">
        <ele>2279.5</ele>
        <time>2022-02-09T10:34:30Z</time>
      </trkpt>
      <trkpt lat="42.85988" lon="0.2271">
        <ele>2279.6</ele>
        <time>2022-02-09T10:34:31Z</time>
      </trkpt>
      <trkpt lat="42.85988" lon="0.22709">
        <ele>2279.7</ele>
        <time>2022-02-09T10:34:32Z</time>
      </trkpt>
      <trkpt lat="42.85989" lon="0.22708">
        <ele>2279.9</ele>
        <time>2022-02-09T10:34:33Z</time>
      </trkpt>
      <trkpt lat="42.85989" lon="0.22707">
        <ele>2280</ele>
        <time>2022-02-09T10:34:34Z</time>
      </trkpt>
      <trkpt lat="42.85989" lon="0.22706">
        <ele>2280.2</ele>
        <time>2022-02-09T10:34:35Z</time>
      </trkpt>
      <trkpt lat="42.85989" lon="0.22705">
        <ele>2280.3</ele>
        <time>2022-02-09T10:34:36Z</time>
      </trkpt>
      <trkpt lat="42.85989" lon="0.22705">
        <ele>2280.4</ele>
        <time>2022-02-09T10:34:37Z</time>
      </trkpt>
      <trkpt lat="42.85989" lon="0.22704">
        <ele>2280.6</ele>
        <time>2022-02-09T10:34:38Z</time>
      </trkpt>
      <trkpt lat="42.85989" lon="0.22703">
        <ele>2280.7</ele>
        <time>2022-02-09T10:34:39Z</time>
      </trkpt>
      <trkpt lat="42.85989" lon="0.22703">
        <ele>2280.8</ele>
        <time>2022-02-09T10:34:40Z</time>
      </trkpt>
      <trkpt lat="42.8599" lon="0.22701">
        <ele>2281.1</ele>
        <time>2022-02-09T10:34:41Z</time>
      </trkpt>
      <trkpt lat="42.8599" lon="0.227">
        <ele>2281.4</ele>
        <time>2022-02-09T10:34:42Z</time>
      </trkpt>
      <trkpt lat="42.85991" lon="0.22699">
        <ele>2281.6</ele>
        <time>2022-02-09T10:34:43Z</time>
      </trkpt>
      <trkpt lat="42.85991" lon="0.22698">
        <ele>2281.9</ele>
        <time>2022-02-09T10:34:44Z</time>
      </trkpt>
      <trkpt lat="42.85991" lon="0.22697">
        <ele>2282</ele>
        <time>2022-02-09T10:34:45Z</time>
      </trkpt>
      <trkpt lat="42.85991" lon="0.22697">
        <ele>2282.1</ele>
        <time>2022-02-09T10:34:46Z</time>
      </trkpt>
      <trkpt lat="42.8599" lon="0.22697">
        <ele>2282.3</ele>
        <time>2022-02-09T10:34:47Z</time>
      </trkpt>
      <trkpt lat="42.8599" lon="0.22697">
        <ele>2282.4</ele>
        <time>2022-02-09T10:34:48Z</time>
      </trkpt>
      <trkpt lat="42.8599" lon="0.22696">
        <ele>2282.5</ele>
        <time>2022-02-09T10:34:49Z</time>
      </trkpt>
      <trkpt lat="42.8599" lon="0.22695">
        <ele>2282.7</ele>
        <time>2022-02-09T10:34:50Z</time>
      </trkpt>
      <trkpt lat="42.8599" lon="0.22695">
        <ele>2282.8</ele>
        <time>2022-02-09T10:34:51Z</time>
      </trkpt>
      <trkpt lat="42.8599" lon="0.22694">
        <ele>2283</ele>
        <time>2022-02-09T10:34:52Z</time>
      </trkpt>
      <trkpt lat="42.8599" lon="0.22693">
        <ele>2283.2</ele>
        <time>2022-02-09T10:34:53Z</time>
      </trkpt>
      <trkpt lat="42.8599" lon="0.22691">
        <ele>2283.4</ele>
        <time>2022-02-09T10:34:54Z</time>
      </trkpt>
      <trkpt lat="42.8599" lon="0.2269">
        <ele>2283.6</ele>
        <time>2022-02-09T10:34:55Z</time>
      </trkpt>
      <trkpt lat="42.8599" lon="0.22689">
        <ele>2283.7</ele>
        <time>2022-02-09T10:34:56Z</time>
      </trkpt>
      <trkpt lat="42.8599" lon="0.22688">
        <ele>2283.9</ele>
        <time>2022-02-09T10:34:57Z</time>
      </trkpt>
      <trkpt lat="42.8599" lon="0.22687">
        <ele>2284.1</ele>
        <time>2022-02-09T10:34:58Z</time>
      </trkpt>
      <trkpt lat="42.8599" lon="0.22686">
        <ele>2284.2</ele>
        <time>2022-02-09T10:34:59Z</time>
      </trkpt>
      <trkpt lat="42.8599" lon="0.22686">
        <ele>2284.4</ele>
        <time>2022-02-09T10:35:00Z</time>
      </trkpt>
      <trkpt lat="42.85989" lon="0.22684">
        <ele>2284.5</ele>
        <time>2022-02-09T10:35:01Z</time>
      </trkpt>
      <trkpt lat="42.85989" lon="0.22684">
        <ele>2284.7</ele>
        <time>2022-02-09T10:35:02Z</time>
      </trkpt>
      <trkpt lat="42.85989" lon="0.22683">
        <ele>2284.8</ele>
        <time>2022-02-09T10:35:03Z</time>
      </trkpt>
      <trkpt lat="42.85989" lon="0.22682">
        <ele>2284.9</ele>
        <time>2022-02-09T10:35:04Z</time>
      </trkpt>
      <trkpt lat="42.85989" lon="0.22681">
        <ele>2285.1</ele>
        <time>2022-02-09T10:35:05Z</time>
      </trkpt>
      <trkpt lat="42.85989" lon="0.2268">
        <ele>2285.2</ele>
        <time>2022-02-09T10:35:06Z</time>
      </trkpt>
      <trkpt lat="42.85989" lon="0.22679">
        <ele>2285.3</ele>
        <time>2022-02-09T10:35:07Z</time>
      </trkpt>
      <trkpt lat="42.85989" lon="0.22678">
        <ele>2285.5</ele>
        <time>2022-02-09T10:35:08Z</time>
      </trkpt>
      <trkpt lat="42.85989" lon="0.22677">
        <ele>2285.6</ele>
        <time>2022-02-09T10:35:09Z</time>
      </trkpt>
      <trkpt lat="42.85989" lon="0.22676">
        <ele>2285.7</ele>
        <time>2022-02-09T10:35:10Z</time>
      </trkpt>
      <trkpt lat="42.85989" lon="0.22676">
        <ele>2285.8</ele>
        <time>2022-02-09T10:35:11Z</time>
      </trkpt>
      <trkpt lat="42.85989" lon="0.22675">
        <ele>2286</ele>
        <time>2022-02-09T10:35:12Z</time>
      </trkpt>
      <trkpt lat="42.85989" lon="0.22674">
        <ele>2286.1</ele>
        <time>2022-02-09T10:35:13Z</time>
      </trkpt>
      <trkpt lat="42.85989" lon="0.22673">
        <ele>2286.2</ele>
        <time>2022-02-09T10:35:14Z</time>
      </trkpt>
      <trkpt lat="42.85989" lon="0.22673">
        <ele>2286.3</ele>
        <time>2022-02-09T10:35:15Z</time>
      </trkpt>
      <trkpt lat="42.85989" lon="0.22672">
        <ele>2286.5</ele>
        <time>2022-02-09T10:35:16Z</time>
      </trkpt>
      <trkpt lat="42.85989" lon="0.22671">
        <ele>2286.6</ele>
        <time>2022-02-09T10:35:17Z</time>
      </trkpt>
      <trkpt lat="42.85989" lon="0.2267">
        <ele>2286.8</ele>
        <time>2022-02-09T10:35:18Z</time>
      </trkpt>
      <trkpt lat="42.85989" lon="0.22669">
        <ele>2286.9</ele>
        <time>2022-02-09T10:35:19Z</time>
      </trkpt>
      <trkpt lat="42.85989" lon="0.22668">
        <ele>2287.1</ele>
        <time>2022-02-09T10:35:20Z</time>
      </trkpt>
      <trkpt lat="42.85989" lon="0.22667">
        <ele>2287.2</ele>
        <time>2022-02-09T10:35:21Z</time>
      </trkpt>
      <trkpt lat="42.85989" lon="0.22666">
        <ele>2287.4</ele>
        <time>2022-02-09T10:35:22Z</time>
      </trkpt>
      <trkpt lat="42.85989" lon="0.22665">
        <ele>2287.6</ele>
        <time>2022-02-09T10:35:23Z</time>
      </trkpt>
      <trkpt lat="42.85989" lon="0.22665">
        <ele>2287.8</ele>
        <time>2022-02-09T10:35:24Z</time>
      </trkpt>
      <trkpt lat="42.85989" lon="0.22664">
        <ele>2287.9</ele>
        <time>2022-02-09T10:35:25Z</time>
      </trkpt>
      <trkpt lat="42.85989" lon="0.22663">
        <ele>2288</ele>
        <time>2022-02-09T10:35:26Z</time>
      </trkpt>
      <trkpt lat="42.85989" lon="0.22663">
        <ele>2288.1</ele>
        <time>2022-02-09T10:35:27Z</time>
      </trkpt>
      <trkpt lat="42.8599" lon="0.22663">
        <ele>2288.3</ele>
        <time>2022-02-09T10:35:28Z</time>
      </trkpt>
      <trkpt lat="42.8599" lon="0.22663">
        <ele>2288.4</ele>
        <time>2022-02-09T10:35:29Z</time>
      </trkpt>
      <trkpt lat="42.8599" lon="0.22663">
        <ele>2288.4</ele>
        <time>2022-02-09T10:35:30Z</time>
      </trkpt>
      <trkpt lat="42.8599" lon="0.22662">
        <ele>2288.5</ele>
        <time>2022-02-09T10:35:31Z</time>
      </trkpt>
      <trkpt lat="42.8599" lon="0.22662">
        <ele>2288.6</ele>
        <time>2022-02-09T10:35:32Z</time>
      </trkpt>
      <trkpt lat="42.8599" lon="0.22662">
        <ele>2288.7</ele>
        <time>2022-02-09T10:35:33Z</time>
      </trkpt>
      <trkpt lat="42.8599" lon="0.22663">
        <ele>2288.8</ele>
        <time>2022-02-09T10:35:34Z</time>
      </trkpt>
      <trkpt lat="42.8599" lon="0.22663">
        <ele>2288.9</ele>
        <time>2022-02-09T10:35:35Z</time>
      </trkpt>
      <trkpt lat="42.85991" lon="0.22663">
        <ele>2289.1</ele>
        <time>2022-02-09T10:35:36Z</time>
      </trkpt>
      <trkpt lat="42.85992" lon="0.22663">
        <ele>2289.4</ele>
        <time>2022-02-09T10:35:37Z</time>
      </trkpt>
      <trkpt lat="42.85993" lon="0.22663">
        <ele>2289.7</ele>
        <time>2022-02-09T10:35:38Z</time>
      </trkpt>
      <trkpt lat="42.85993" lon="0.22663">
        <ele>2289.8</ele>
        <time>2022-02-09T10:35:39Z</time>
      </trkpt>
      <trkpt lat="42.85994" lon="0.22663">
        <ele>2290</ele>
        <time>2022-02-09T10:35:40Z</time>
      </trkpt>
      <trkpt lat="42.85994" lon="0.22663">
        <ele>2290.2</ele>
        <time>2022-02-09T10:35:41Z</time>
      </trkpt>
      <trkpt lat="42.85995" lon="0.22662">
        <ele>2290.5</ele>
        <time>2022-02-09T10:35:42Z</time>
      </trkpt>
      <trkpt lat="42.85996" lon="0.22662">
        <ele>2290.6</ele>
        <time>2022-02-09T10:35:43Z</time>
      </trkpt>
      <trkpt lat="42.85996" lon="0.22663">
        <ele>2290.8</ele>
        <time>2022-02-09T10:35:44Z</time>
      </trkpt>
      <trkpt lat="42.85997" lon="0.22663">
        <ele>2291</ele>
        <time>2022-02-09T10:35:45Z</time>
      </trkpt>
      <trkpt lat="42.85997" lon="0.22663">
        <ele>2291.2</ele>
        <time>2022-02-09T10:35:46Z</time>
      </trkpt>
      <trkpt lat="42.85998" lon="0.22663">
        <ele>2291.4</ele>
        <time>2022-02-09T10:35:47Z</time>
      </trkpt>
      <trkpt lat="42.85999" lon="0.22663">
        <ele>2291.7</ele>
        <time>2022-02-09T10:35:48Z</time>
      </trkpt>
      <trkpt lat="42.86" lon="0.22663">
        <ele>2291.9</ele>
        <time>2022-02-09T10:35:49Z</time>
      </trkpt>
      <trkpt lat="42.86" lon="0.22662">
        <ele>2292.1</ele>
        <time>2022-02-09T10:35:50Z</time>
      </trkpt>
      <trkpt lat="42.86001" lon="0.22662">
        <ele>2292.3</ele>
        <time>2022-02-09T10:35:51Z</time>
      </trkpt>
      <trkpt lat="42.86002" lon="0.22662">
        <ele>2292.5</ele>
        <time>2022-02-09T10:35:52Z</time>
      </trkpt>
      <trkpt lat="42.86002" lon="0.22662">
        <ele>2292.7</ele>
        <time>2022-02-09T10:35:53Z</time>
      </trkpt>
      <trkpt lat="42.86003" lon="0.22662">
        <ele>2292.9</ele>
        <time>2022-02-09T10:35:54Z</time>
      </trkpt>
      <trkpt lat="42.86003" lon="0.22662">
        <ele>2293</ele>
        <time>2022-02-09T10:35:55Z</time>
      </trkpt>
      <trkpt lat="42.86004" lon="0.22662">
        <ele>2293.2</ele>
        <time>2022-02-09T10:35:56Z</time>
      </trkpt>
      <trkpt lat="42.86004" lon="0.22662">
        <ele>2293.3</ele>
        <time>2022-02-09T10:35:57Z</time>
      </trkpt>
      <trkpt lat="42.86005" lon="0.22662">
        <ele>2293.5</ele>
        <time>2022-02-09T10:35:58Z</time>
      </trkpt>
      <trkpt lat="42.86005" lon="0.22662">
        <ele>2293.6</ele>
        <time>2022-02-09T10:35:59Z</time>
      </trkpt>
      <trkpt lat="42.86006" lon="0.22662">
        <ele>2293.8</ele>
        <time>2022-02-09T10:36:00Z</time>
      </trkpt>
      <trkpt lat="42.86006" lon="0.22662">
        <ele>2293.9</ele>
        <time>2022-02-09T10:36:01Z</time>
      </trkpt>
      <trkpt lat="42.86007" lon="0.22661">
        <ele>2294.1</ele>
        <time>2022-02-09T10:36:02Z</time>
      </trkpt>
      <trkpt lat="42.86008" lon="0.22661">
        <ele>2294.2</ele>
        <time>2022-02-09T10:36:03Z</time>
      </trkpt>
      <trkpt lat="42.86008" lon="0.2266">
        <ele>2294.4</ele>
        <time>2022-02-09T10:36:04Z</time>
      </trkpt>
      <trkpt lat="42.86009" lon="0.2266">
        <ele>2294.6</ele>
        <time>2022-02-09T10:36:05Z</time>
      </trkpt>
      <trkpt lat="42.86009" lon="0.22659">
        <ele>2294.7</ele>
        <time>2022-02-09T10:36:06Z</time>
      </trkpt>
      <trkpt lat="42.86009" lon="0.22658">
        <ele>2294.8</ele>
        <time>2022-02-09T10:36:07Z</time>
      </trkpt>
      <trkpt lat="42.86009" lon="0.22658">
        <ele>2295</ele>
        <time>2022-02-09T10:36:08Z</time>
      </trkpt>
      <trkpt lat="42.8601" lon="0.22657">
        <ele>2295.1</ele>
        <time>2022-02-09T10:36:09Z</time>
      </trkpt>
      <trkpt lat="42.86011" lon="0.22656">
        <ele>2295.4</ele>
        <time>2022-02-09T10:36:10Z</time>
      </trkpt>
      <trkpt lat="42.86012" lon="0.22655">
        <ele>2295.7</ele>
        <time>2022-02-09T10:36:11Z</time>
      </trkpt>
      <trkpt lat="42.86013" lon="0.22654">
        <ele>2295.9</ele>
        <time>2022-02-09T10:36:12Z</time>
      </trkpt>
      <trkpt lat="42.86012" lon="0.22654">
        <ele>2295.9</ele>
        <time>2022-02-09T10:36:13Z</time>
      </trkpt>
      <trkpt lat="42.86013" lon="0.22654">
        <ele>2296</ele>
        <time>2022-02-09T10:36:14Z</time>
      </trkpt>
      <trkpt lat="42.86014" lon="0.22654">
        <ele>2296.2</ele>
        <time>2022-02-09T10:36:15Z</time>
      </trkpt>
      <trkpt lat="42.86015" lon="0.22653">
        <ele>2296.4</ele>
        <time>2022-02-09T10:36:16Z</time>
      </trkpt>
      <trkpt lat="42.86015" lon="0.22653">
        <ele>2296.5</ele>
        <time>2022-02-09T10:36:17Z</time>
      </trkpt>
      <trkpt lat="42.86016" lon="0.22652">
        <ele>2296.6</ele>
        <time>2022-02-09T10:36:18Z</time>
      </trkpt>
      <trkpt lat="42.86016" lon="0.22652">
        <ele>2296.6</ele>
        <time>2022-02-09T10:36:19Z</time>
      </trkpt>
      <trkpt lat="42.86015" lon="0.22653">
        <ele>2296.7</ele>
        <time>2022-02-09T10:36:20Z</time>
      </trkpt>
      <trkpt lat="42.86016" lon="0.22652">
        <ele>2296.8</ele>
        <time>2022-02-09T10:36:21Z</time>
      </trkpt>
      <trkpt lat="42.86016" lon="0.22651">
        <ele>2297</ele>
        <time>2022-02-09T10:36:22Z</time>
      </trkpt>
      <trkpt lat="42.86017" lon="0.2265">
        <ele>2297.3</ele>
        <time>2022-02-09T10:36:23Z</time>
      </trkpt>
      <trkpt lat="42.86018" lon="0.2265">
        <ele>2297.4</ele>
        <time>2022-02-09T10:36:24Z</time>
      </trkpt>
      <trkpt lat="42.86018" lon="0.22649">
        <ele>2297.5</ele>
        <time>2022-02-09T10:36:25Z</time>
      </trkpt>
      <trkpt lat="42.86018" lon="0.22648">
        <ele>2297.7</ele>
        <time>2022-02-09T10:36:26Z</time>
      </trkpt>
      <trkpt lat="42.86018" lon="0.22648">
        <ele>2297.7</ele>
        <time>2022-02-09T10:36:27Z</time>
      </trkpt>
      <trkpt lat="42.86018" lon="0.22648">
        <ele>2297.8</ele>
        <time>2022-02-09T10:36:28Z</time>
      </trkpt>
      <trkpt lat="42.86018" lon="0.22647">
        <ele>2297.9</ele>
        <time>2022-02-09T10:36:29Z</time>
      </trkpt>
      <trkpt lat="42.86018" lon="0.22646">
        <ele>2298</ele>
        <time>2022-02-09T10:36:30Z</time>
      </trkpt>
      <trkpt lat="42.86018" lon="0.22645">
        <ele>2298.2</ele>
        <time>2022-02-09T10:36:31Z</time>
      </trkpt>
      <trkpt lat="42.86019" lon="0.22645">
        <ele>2298.5</ele>
        <time>2022-02-09T10:36:32Z</time>
      </trkpt>
      <trkpt lat="42.8602" lon="0.22645">
        <ele>2298.7</ele>
        <time>2022-02-09T10:36:33Z</time>
      </trkpt>
      <trkpt lat="42.86021" lon="0.22644">
        <ele>2298.9</ele>
        <time>2022-02-09T10:36:34Z</time>
      </trkpt>
      <trkpt lat="42.86021" lon="0.22643">
        <ele>2299.1</ele>
        <time>2022-02-09T10:36:35Z</time>
      </trkpt>
      <trkpt lat="42.86021" lon="0.22643">
        <ele>2299.1</ele>
        <time>2022-02-09T10:36:36Z</time>
      </trkpt>
      <trkpt lat="42.86021" lon="0.22643">
        <ele>2299.2</ele>
        <time>2022-02-09T10:36:37Z</time>
      </trkpt>
      <trkpt lat="42.86021" lon="0.22644">
        <ele>2299.2</ele>
        <time>2022-02-09T10:36:38Z</time>
      </trkpt>
      <trkpt lat="42.86021" lon="0.22644">
        <ele>2299.2</ele>
        <time>2022-02-09T10:36:39Z</time>
      </trkpt>
      <trkpt lat="42.86021" lon="0.22644">
        <ele>2299.2</ele>
        <time>2022-02-09T10:36:40Z</time>
      </trkpt>
      <trkpt lat="42.86021" lon="0.22644">
        <ele>2299.2</ele>
        <time>2022-02-09T10:36:41Z</time>
      </trkpt>
      <trkpt lat="42.86021" lon="0.22644">
        <ele>2299.2</ele>
        <time>2022-02-09T10:36:42Z</time>
      </trkpt>
      <trkpt lat="42.86021" lon="0.22644">
        <ele>2299.2</ele>
        <time>2022-02-09T10:36:43Z</time>
      </trkpt>
      <trkpt lat="42.86021" lon="0.22644">
        <ele>2299.2</ele>
        <time>2022-02-09T10:36:44Z</time>
      </trkpt>
      <trkpt lat="42.86021" lon="0.22644">
        <ele>2299.2</ele>
        <time>2022-02-09T10:36:45Z</time>
      </trkpt>
      <trkpt lat="42.86021" lon="0.22644">
        <ele>2299.2</ele>
        <time>2022-02-09T10:36:46Z</time>
      </trkpt>
      <trkpt lat="42.86021" lon="0.22644">
        <ele>2299.2</ele>
        <time>2022-02-09T10:36:47Z</time>
      </trkpt>
      <trkpt lat="42.86021" lon="0.22644">
        <ele>2299.2</ele>
        <time>2022-02-09T10:36:48Z</time>
      </trkpt>
      <trkpt lat="42.86021" lon="0.22644">
        <ele>2299.2</ele>
        <time>2022-02-09T10:36:49Z</time>
      </trkpt>
      <trkpt lat="42.86021" lon="0.22644">
        <ele>2299.2</ele>
        <time>2022-02-09T10:36:50Z</time>
      </trkpt>
      <trkpt lat="42.86021" lon="0.22644">
        <ele>2299.2</ele>
        <time>2022-02-09T10:36:51Z</time>
      </trkpt>
      <trkpt lat="42.86021" lon="0.22644">
        <ele>2299.2</ele>
        <time>2022-02-09T10:36:52Z</time>
      </trkpt>
      <trkpt lat="42.86021" lon="0.22644">
        <ele>2299.2</ele>
        <time>2022-02-09T10:36:53Z</time>
      </trkpt>
      <trkpt lat="42.86021" lon="0.22644">
        <ele>2299.2</ele>
        <time>2022-02-09T10:36:54Z</time>
      </trkpt>
      <trkpt lat="42.86021" lon="0.22644">
        <ele>2299.2</ele>
        <time>2022-02-09T10:36:55Z</time>
      </trkpt>
      <trkpt lat="42.86021" lon="0.22644">
        <ele>2299.2</ele>
        <time>2022-02-09T10:36:56Z</time>
      </trkpt>
      <trkpt lat="42.86021" lon="0.22644">
        <ele>2299.2</ele>
        <time>2022-02-09T10:36:57Z</time>
      </trkpt>
      <trkpt lat="42.86021" lon="0.22644">
        <ele>2299.2</ele>
        <time>2022-02-09T10:36:58Z</time>
      </trkpt>
      <trkpt lat="42.86021" lon="0.22644">
        <ele>2299.2</ele>
        <time>2022-02-09T10:36:59Z</time>
      </trkpt>
      <trkpt lat="42.86021" lon="0.22644">
        <ele>2299.2</ele>
        <time>2022-02-09T10:37:00Z</time>
      </trkpt>
      <trkpt lat="42.86021" lon="0.22644">
        <ele>2299.2</ele>
        <time>2022-02-09T10:37:01Z</time>
      </trkpt>
      <trkpt lat="42.86021" lon="0.22644">
        <ele>2299.2</ele>
        <time>2022-02-09T10:37:02Z</time>
      </trkpt>
      <trkpt lat="42.86021" lon="0.22644">
        <ele>2299.2</ele>
        <time>2022-02-09T10:37:03Z</time>
      </trkpt>
      <trkpt lat="42.86021" lon="0.22644">
        <ele>2299.2</ele>
        <time>2022-02-09T10:37:04Z</time>
      </trkpt>
      <trkpt lat="42.86021" lon="0.22644">
        <ele>2299.2</ele>
        <time>2022-02-09T10:37:05Z</time>
      </trkpt>
      <trkpt lat="42.86021" lon="0.22644">
        <ele>2299.2</ele>
        <time>2022-02-09T10:37:06Z</time>
      </trkpt>
      <trkpt lat="42.86021" lon="0.22644">
        <ele>2299.2</ele>
        <time>2022-02-09T10:37:07Z</time>
      </trkpt>
      <trkpt lat="42.86021" lon="0.22644">
        <ele>2299.2</ele>
        <time>2022-02-09T10:37:08Z</time>
      </trkpt>
      <trkpt lat="42.86021" lon="0.22644">
        <ele>2299.2</ele>
        <time>2022-02-09T10:37:09Z</time>
      </trkpt>
      <trkpt lat="42.86021" lon="0.22644">
        <ele>2299.2</ele>
        <time>2022-02-09T10:37:10Z</time>
      </trkpt>
      <trkpt lat="42.86021" lon="0.22644">
        <ele>2299.2</ele>
        <time>2022-02-09T10:37:11Z</time>
      </trkpt>
      <trkpt lat="42.86021" lon="0.22644">
        <ele>2299.2</ele>
        <time>2022-02-09T10:37:12Z</time>
      </trkpt>
      <trkpt lat="42.86021" lon="0.22644">
        <ele>2299.2</ele>
        <time>2022-02-09T10:37:13Z</time>
      </trkpt>
      <trkpt lat="42.86021" lon="0.22644">
        <ele>2299.2</ele>
        <time>2022-02-09T10:37:14Z</time>
      </trkpt>
      <trkpt lat="42.86021" lon="0.22644">
        <ele>2299.2</ele>
        <time>2022-02-09T10:37:15Z</time>
      </trkpt>
      <trkpt lat="42.86021" lon="0.22644">
        <ele>2299.2</ele>
        <time>2022-02-09T10:37:16Z</time>
      </trkpt>
      <trkpt lat="42.86021" lon="0.22644">
        <ele>2299.2</ele>
        <time>2022-02-09T10:37:17Z</time>
      </trkpt>
      <trkpt lat="42.86021" lon="0.22644">
        <ele>2299.2</ele>
        <time>2022-02-09T10:37:18Z</time>
      </trkpt>
      <trkpt lat="42.86021" lon="0.22644">
        <ele>2299.2</ele>
        <time>2022-02-09T10:37:19Z</time>
      </trkpt>
      <trkpt lat="42.86021" lon="0.22644">
        <ele>2299.2</ele>
        <time>2022-02-09T10:37:20Z</time>
      </trkpt>
      <trkpt lat="42.86021" lon="0.22644">
        <ele>2299.2</ele>
        <time>2022-02-09T10:37:21Z</time>
      </trkpt>
      <trkpt lat="42.86021" lon="0.22644">
        <ele>2299.2</ele>
        <time>2022-02-09T10:37:22Z</time>
      </trkpt>
      <trkpt lat="42.86021" lon="0.22644">
        <ele>2299.2</ele>
        <time>2022-02-09T10:37:23Z</time>
      </trkpt>
      <trkpt lat="42.86021" lon="0.22644">
        <ele>2299.2</ele>
        <time>2022-02-09T10:37:24Z</time>
      </trkpt>
      <trkpt lat="42.86021" lon="0.22644">
        <ele>2299.2</ele>
        <time>2022-02-09T10:37:25Z</time>
      </trkpt>
      <trkpt lat="42.86021" lon="0.22644">
        <ele>2299.2</ele>
        <time>2022-02-09T10:37:26Z</time>
      </trkpt>
      <trkpt lat="42.86021" lon="0.22644">
        <ele>2299.2</ele>
        <time>2022-02-09T10:37:27Z</time>
      </trkpt>
      <trkpt lat="42.86021" lon="0.22644">
        <ele>2299.2</ele>
        <time>2022-02-09T10:37:28Z</time>
      </trkpt>
      <trkpt lat="42.86021" lon="0.22644">
        <ele>2299.2</ele>
        <time>2022-02-09T10:37:29Z</time>
      </trkpt>
      <trkpt lat="42.86021" lon="0.22644">
        <ele>2299.2</ele>
        <time>2022-02-09T10:37:30Z</time>
      </trkpt>
      <trkpt lat="42.86021" lon="0.22644">
        <ele>2299.2</ele>
        <time>2022-02-09T10:37:31Z</time>
      </trkpt>
      <trkpt lat="42.86021" lon="0.22644">
        <ele>2299.2</ele>
        <time>2022-02-09T10:37:32Z</time>
      </trkpt>
      <trkpt lat="42.86021" lon="0.22644">
        <ele>2299.2</ele>
        <time>2022-02-09T10:37:33Z</time>
      </trkpt>
      <trkpt lat="42.86021" lon="0.22644">
        <ele>2299.2</ele>
        <time>2022-02-09T10:37:34Z</time>
      </trkpt>
      <trkpt lat="42.86021" lon="0.22644">
        <ele>2299.2</ele>
        <time>2022-02-09T10:37:35Z</time>
      </trkpt>
      <trkpt lat="42.86021" lon="0.22644">
        <ele>2299.2</ele>
        <time>2022-02-09T10:37:36Z</time>
      </trkpt>
      <trkpt lat="42.86021" lon="0.22644">
        <ele>2299.2</ele>
        <time>2022-02-09T10:37:37Z</time>
      </trkpt>
      <trkpt lat="42.86021" lon="0.22644">
        <ele>2299.2</ele>
        <time>2022-02-09T10:37:38Z</time>
      </trkpt>
      <trkpt lat="42.86021" lon="0.22644">
        <ele>2299.2</ele>
        <time>2022-02-09T10:37:39Z</time>
      </trkpt>
      <trkpt lat="42.86021" lon="0.22644">
        <ele>2299.2</ele>
        <time>2022-02-09T10:37:40Z</time>
      </trkpt>
      <trkpt lat="42.86021" lon="0.22644">
        <ele>2299.2</ele>
        <time>2022-02-09T10:37:41Z</time>
      </trkpt>
      <trkpt lat="42.86021" lon="0.22644">
        <ele>2299.2</ele>
        <time>2022-02-09T10:37:42Z</time>
      </trkpt>
      <trkpt lat="42.86021" lon="0.22644">
        <ele>2299.2</ele>
        <time>2022-02-09T10:37:43Z</time>
      </trkpt>
      <trkpt lat="42.86021" lon="0.22644">
        <ele>2299.2</ele>
        <time>2022-02-09T10:37:44Z</time>
      </trkpt>
      <trkpt lat="42.86021" lon="0.22644">
        <ele>2299.2</ele>
        <time>2022-02-09T10:37:45Z</time>
      </trkpt>
      <trkpt lat="42.86021" lon="0.22644">
        <ele>2299.2</ele>
        <time>2022-02-09T10:37:46Z</time>
      </trkpt>
      <trkpt lat="42.86021" lon="0.22644">
        <ele>2299.2</ele>
        <time>2022-02-09T10:37:47Z</time>
      </trkpt>
      <trkpt lat="42.86021" lon="0.22644">
        <ele>2299.2</ele>
        <time>2022-02-09T10:37:48Z</time>
      </trkpt>
      <trkpt lat="42.86021" lon="0.22644">
        <ele>2299.2</ele>
        <time>2022-02-09T10:37:49Z</time>
      </trkpt>
      <trkpt lat="42.86021" lon="0.22644">
        <ele>2299.2</ele>
        <time>2022-02-09T10:37:50Z</time>
      </trkpt>
      <trkpt lat="42.86021" lon="0.22644">
        <ele>2299.2</ele>
        <time>2022-02-09T10:37:51Z</time>
      </trkpt>
      <trkpt lat="42.86021" lon="0.22644">
        <ele>2299.2</ele>
        <time>2022-02-09T10:37:52Z</time>
      </trkpt>
      <trkpt lat="42.86021" lon="0.22644">
        <ele>2299.2</ele>
        <time>2022-02-09T10:37:53Z</time>
      </trkpt>
      <trkpt lat="42.86021" lon="0.22644">
        <ele>2299.2</ele>
        <time>2022-02-09T10:37:54Z</time>
      </trkpt>
      <trkpt lat="42.86021" lon="0.22644">
        <ele>2299.2</ele>
        <time>2022-02-09T10:37:55Z</time>
      </trkpt>
      <trkpt lat="42.86021" lon="0.22644">
        <ele>2299.2</ele>
        <time>2022-02-09T10:37:56Z</time>
      </trkpt>
      <trkpt lat="42.86021" lon="0.22644">
        <ele>2299.2</ele>
        <time>2022-02-09T10:37:57Z</time>
      </trkpt>
      <trkpt lat="42.86021" lon="0.22644">
        <ele>2299.2</ele>
        <time>2022-02-09T10:37:58Z</time>
      </trkpt>
      <trkpt lat="42.86021" lon="0.22644">
        <ele>2299.2</ele>
        <time>2022-02-09T10:37:59Z</time>
      </trkpt>
      <trkpt lat="42.86021" lon="0.22644">
        <ele>2299.2</ele>
        <time>2022-02-09T10:38:00Z</time>
      </trkpt>
      <trkpt lat="42.86021" lon="0.22644">
        <ele>2299.2</ele>
        <time>2022-02-09T10:38:01Z</time>
      </trkpt>
      <trkpt lat="42.86021" lon="0.22644">
        <ele>2299.2</ele>
        <time>2022-02-09T10:38:02Z</time>
      </trkpt>
      <trkpt lat="42.86021" lon="0.22644">
        <ele>2299.2</ele>
        <time>2022-02-09T10:38:03Z</time>
      </trkpt>
      <trkpt lat="42.86021" lon="0.22644">
        <ele>2299.2</ele>
        <time>2022-02-09T10:38:04Z</time>
      </trkpt>
      <trkpt lat="42.86021" lon="0.22644">
        <ele>2299.2</ele>
        <time>2022-02-09T10:38:05Z</time>
      </trkpt>
      <trkpt lat="42.86021" lon="0.22644">
        <ele>2299.2</ele>
        <time>2022-02-09T10:38:06Z</time>
      </trkpt>
      <trkpt lat="42.86021" lon="0.22644">
        <ele>2299.2</ele>
        <time>2022-02-09T10:38:07Z</time>
      </trkpt>
      <trkpt lat="42.86021" lon="0.22644">
        <ele>2299.2</ele>
        <time>2022-02-09T10:38:08Z</time>
      </trkpt>
      <trkpt lat="42.86021" lon="0.22644">
        <ele>2299.2</ele>
        <time>2022-02-09T10:38:09Z</time>
      </trkpt>
      <trkpt lat="42.86021" lon="0.22644">
        <ele>2299.2</ele>
        <time>2022-02-09T10:38:10Z</time>
      </trkpt>
      <trkpt lat="42.86021" lon="0.22644">
        <ele>2299.2</ele>
        <time>2022-02-09T10:38:11Z</time>
      </trkpt>
      <trkpt lat="42.86021" lon="0.22644">
        <ele>2299.2</ele>
        <time>2022-02-09T10:38:12Z</time>
      </trkpt>
      <trkpt lat="42.86021" lon="0.22644">
        <ele>2299.2</ele>
        <time>2022-02-09T10:38:13Z</time>
      </trkpt>
      <trkpt lat="42.86021" lon="0.22644">
        <ele>2299.2</ele>
        <time>2022-02-09T10:38:14Z</time>
      </trkpt>
      <trkpt lat="42.86021" lon="0.22644">
        <ele>2299.2</ele>
        <time>2022-02-09T10:38:15Z</time>
      </trkpt>
      <trkpt lat="42.86021" lon="0.22644">
        <ele>2299.2</ele>
        <time>2022-02-09T10:38:16Z</time>
      </trkpt>
      <trkpt lat="42.86021" lon="0.22644">
        <ele>2299.2</ele>
        <time>2022-02-09T10:38:17Z</time>
      </trkpt>
      <trkpt lat="42.86021" lon="0.22644">
        <ele>2299.2</ele>
        <time>2022-02-09T10:38:18Z</time>
      </trkpt>
      <trkpt lat="42.86021" lon="0.22644">
        <ele>2299.2</ele>
        <time>2022-02-09T10:38:19Z</time>
      </trkpt>
      <trkpt lat="42.86021" lon="0.22644">
        <ele>2299.2</ele>
        <time>2022-02-09T10:38:20Z</time>
      </trkpt>
      <trkpt lat="42.86021" lon="0.22644">
        <ele>2299.2</ele>
        <time>2022-02-09T10:38:21Z</time>
      </trkpt>
      <trkpt lat="42.86021" lon="0.22644">
        <ele>2299.2</ele>
        <time>2022-02-09T10:38:22Z</time>
      </trkpt>
      <trkpt lat="42.86021" lon="0.22644">
        <ele>2299.2</ele>
        <time>2022-02-09T10:38:23Z</time>
      </trkpt>
      <trkpt lat="42.86021" lon="0.22644">
        <ele>2299.2</ele>
        <time>2022-02-09T10:38:24Z</time>
      </trkpt>
      <trkpt lat="42.86021" lon="0.22644">
        <ele>2299.2</ele>
        <time>2022-02-09T10:38:25Z</time>
      </trkpt>
      <trkpt lat="42.86021" lon="0.22644">
        <ele>2299.2</ele>
        <time>2022-02-09T10:38:26Z</time>
      </trkpt>
      <trkpt lat="42.86021" lon="0.22644">
        <ele>2299.2</ele>
        <time>2022-02-09T10:38:27Z</time>
      </trkpt>
      <trkpt lat="42.86021" lon="0.22644">
        <ele>2299.2</ele>
        <time>2022-02-09T10:38:28Z</time>
      </trkpt>
      <trkpt lat="42.86021" lon="0.22644">
        <ele>2299.2</ele>
        <time>2022-02-09T10:38:29Z</time>
      </trkpt>
      <trkpt lat="42.86021" lon="0.22644">
        <ele>2299.2</ele>
        <time>2022-02-09T10:38:30Z</time>
      </trkpt>
      <trkpt lat="42.86021" lon="0.22644">
        <ele>2299.2</ele>
        <time>2022-02-09T10:38:31Z</time>
      </trkpt>
      <trkpt lat="42.86021" lon="0.22644">
        <ele>2299.2</ele>
        <time>2022-02-09T10:38:32Z</time>
      </trkpt>
      <trkpt lat="42.86021" lon="0.22644">
        <ele>2299.2</ele>
        <time>2022-02-09T10:38:33Z</time>
      </trkpt>
      <trkpt lat="42.86021" lon="0.22644">
        <ele>2299.2</ele>
        <time>2022-02-09T10:38:34Z</time>
      </trkpt>
      <trkpt lat="42.86021" lon="0.22644">
        <ele>2299.2</ele>
        <time>2022-02-09T10:38:35Z</time>
      </trkpt>
      <trkpt lat="42.86021" lon="0.22644">
        <ele>2299.2</ele>
        <time>2022-02-09T10:38:36Z</time>
      </trkpt>
      <trkpt lat="42.86021" lon="0.22644">
        <ele>2299.2</ele>
        <time>2022-02-09T10:38:37Z</time>
      </trkpt>
      <trkpt lat="42.86021" lon="0.22644">
        <ele>2299.2</ele>
        <time>2022-02-09T10:38:38Z</time>
      </trkpt>
      <trkpt lat="42.86021" lon="0.22644">
        <ele>2299.2</ele>
        <time>2022-02-09T10:38:39Z</time>
      </trkpt>
      <trkpt lat="42.86021" lon="0.22644">
        <ele>2299.3</ele>
        <time>2022-02-09T10:38:40Z</time>
      </trkpt>
      <trkpt lat="42.86022" lon="0.22644">
        <ele>2299.6</ele>
        <time>2022-02-09T10:38:41Z</time>
      </trkpt>
      <trkpt lat="42.86023" lon="0.22644">
        <ele>2299.8</ele>
        <time>2022-02-09T10:38:42Z</time>
      </trkpt>
      <trkpt lat="42.86023" lon="0.22644">
        <ele>2300</ele>
        <time>2022-02-09T10:38:43Z</time>
      </trkpt>
      <trkpt lat="42.86024" lon="0.22644">
        <ele>2300.2</ele>
        <time>2022-02-09T10:38:44Z</time>
      </trkpt>
      <trkpt lat="42.86025" lon="0.22644">
        <ele>2300.5</ele>
        <time>2022-02-09T10:38:45Z</time>
      </trkpt>
      <trkpt lat="42.86026" lon="0.22644">
        <ele>2300.7</ele>
        <time>2022-02-09T10:38:46Z</time>
      </trkpt>
      <trkpt lat="42.86026" lon="0.22644">
        <ele>2300.9</ele>
        <time>2022-02-09T10:38:47Z</time>
      </trkpt>
      <trkpt lat="42.86027" lon="0.22644">
        <ele>2301.2</ele>
        <time>2022-02-09T10:38:48Z</time>
      </trkpt>
      <trkpt lat="42.86028" lon="0.22644">
        <ele>2301.4</ele>
        <time>2022-02-09T10:38:49Z</time>
      </trkpt>
      <trkpt lat="42.86028" lon="0.22644">
        <ele>2301.6</ele>
        <time>2022-02-09T10:38:50Z</time>
      </trkpt>
      <trkpt lat="42.86029" lon="0.22644">
        <ele>2301.8</ele>
        <time>2022-02-09T10:38:51Z</time>
      </trkpt>
      <trkpt lat="42.8603" lon="0.22643">
        <ele>2302.1</ele>
        <time>2022-02-09T10:38:52Z</time>
      </trkpt>
      <trkpt lat="42.8603" lon="0.22643">
        <ele>2302.3</ele>
        <time>2022-02-09T10:38:53Z</time>
      </trkpt>
      <trkpt lat="42.86031" lon="0.22642">
        <ele>2302.5</ele>
        <time>2022-02-09T10:38:54Z</time>
      </trkpt>
      <trkpt lat="42.86032" lon="0.22642">
        <ele>2302.7</ele>
        <time>2022-02-09T10:38:55Z</time>
      </trkpt>
      <trkpt lat="42.86032" lon="0.22642">
        <ele>2302.9</ele>
        <time>2022-02-09T10:38:56Z</time>
      </trkpt>
      <trkpt lat="42.86033" lon="0.22642">
        <ele>2303.1</ele>
        <time>2022-02-09T10:38:57Z</time>
      </trkpt>
      <trkpt lat="42.86033" lon="0.22641">
        <ele>2303.2</ele>
        <time>2022-02-09T10:38:58Z</time>
      </trkpt>
      <trkpt lat="42.86034" lon="0.22641">
        <ele>2303.4</ele>
        <time>2022-02-09T10:38:59Z</time>
      </trkpt>
      <trkpt lat="42.86034" lon="0.2264">
        <ele>2303.7</ele>
        <time>2022-02-09T10:39:00Z</time>
      </trkpt>
      <trkpt lat="42.86034" lon="0.2264">
        <ele>2303.8</ele>
        <time>2022-02-09T10:39:01Z</time>
      </trkpt>
      <trkpt lat="42.86034" lon="0.22639">
        <ele>2304</ele>
        <time>2022-02-09T10:39:02Z</time>
      </trkpt>
      <trkpt lat="42.86033" lon="0.22639">
        <ele>2304.3</ele>
        <time>2022-02-09T10:39:03Z</time>
      </trkpt>
      <trkpt lat="42.86032" lon="0.22638">
        <ele>2304.5</ele>
        <time>2022-02-09T10:39:04Z</time>
      </trkpt>
      <trkpt lat="42.86032" lon="0.22637">
        <ele>2304.7</ele>
        <time>2022-02-09T10:39:05Z</time>
      </trkpt>
      <trkpt lat="42.86033" lon="0.22637">
        <ele>2304.9</ele>
        <time>2022-02-09T10:39:06Z</time>
      </trkpt>
      <trkpt lat="42.86034" lon="0.22636">
        <ele>2305</ele>
        <time>2022-02-09T10:39:07Z</time>
      </trkpt>
      <trkpt lat="42.86034" lon="0.22636">
        <ele>2305.2</ele>
        <time>2022-02-09T10:39:08Z</time>
      </trkpt>
      <trkpt lat="42.86035" lon="0.22635">
        <ele>2305.3</ele>
        <time>2022-02-09T10:39:09Z</time>
      </trkpt>
      <trkpt lat="42.86035" lon="0.22635">
        <ele>2305.4</ele>
        <time>2022-02-09T10:39:10Z</time>
      </trkpt>
      <trkpt lat="42.86036" lon="0.22635">
        <ele>2305.6</ele>
        <time>2022-02-09T10:39:11Z</time>
      </trkpt>
      <trkpt lat="42.86037" lon="0.22636">
        <ele>2305.8</ele>
        <time>2022-02-09T10:39:12Z</time>
      </trkpt>
      <trkpt lat="42.86038" lon="0.22636">
        <ele>2306</ele>
        <time>2022-02-09T10:39:13Z</time>
      </trkpt>
      <trkpt lat="42.8604" lon="0.22637">
        <ele>2306.4</ele>
        <time>2022-02-09T10:39:14Z</time>
      </trkpt>
      <trkpt lat="42.8604" lon="0.22636">
        <ele>2306.6</ele>
        <time>2022-02-09T10:39:15Z</time>
      </trkpt>
      <trkpt lat="42.86041" lon="0.22636">
        <ele>2306.8</ele>
        <time>2022-02-09T10:39:16Z</time>
      </trkpt>
      <trkpt lat="42.86043" lon="0.22636">
        <ele>2307.1</ele>
        <time>2022-02-09T10:39:17Z</time>
      </trkpt>
      <trkpt lat="42.86044" lon="0.22636">
        <ele>2307.3</ele>
        <time>2022-02-09T10:39:18Z</time>
      </trkpt>
      <trkpt lat="42.86044" lon="0.22636">
        <ele>2307.4</ele>
        <time>2022-02-09T10:39:19Z</time>
      </trkpt>
      <trkpt lat="42.86045" lon="0.22636">
        <ele>2307.5</ele>
        <time>2022-02-09T10:39:20Z</time>
      </trkpt>
      <trkpt lat="42.86046" lon="0.22635">
        <ele>2307.7</ele>
        <time>2022-02-09T10:39:21Z</time>
      </trkpt>
      <trkpt lat="42.86047" lon="0.22635">
        <ele>2307.9</ele>
        <time>2022-02-09T10:39:22Z</time>
      </trkpt>
      <trkpt lat="42.86048" lon="0.22635">
        <ele>2308</ele>
        <time>2022-02-09T10:39:23Z</time>
      </trkpt>
      <trkpt lat="42.86048" lon="0.22634">
        <ele>2308.1</ele>
        <time>2022-02-09T10:39:24Z</time>
      </trkpt>
      <trkpt lat="42.86049" lon="0.22634">
        <ele>2308.3</ele>
        <time>2022-02-09T10:39:25Z</time>
      </trkpt>
      <trkpt lat="42.8605" lon="0.22633">
        <ele>2308.4</ele>
        <time>2022-02-09T10:39:26Z</time>
      </trkpt>
      <trkpt lat="42.8605" lon="0.22633">
        <ele>2308.5</ele>
        <time>2022-02-09T10:39:27Z</time>
      </trkpt>
      <trkpt lat="42.86051" lon="0.22632">
        <ele>2308.6</ele>
        <time>2022-02-09T10:39:28Z</time>
      </trkpt>
      <trkpt lat="42.86051" lon="0.22632">
        <ele>2308.7</ele>
        <time>2022-02-09T10:39:29Z</time>
      </trkpt>
      <trkpt lat="42.86052" lon="0.22631">
        <ele>2308.8</ele>
        <time>2022-02-09T10:39:30Z</time>
      </trkpt>
      <trkpt lat="42.86052" lon="0.22631">
        <ele>2308.9</ele>
        <time>2022-02-09T10:39:31Z</time>
      </trkpt>
      <trkpt lat="42.86053" lon="0.2263">
        <ele>2309</ele>
        <time>2022-02-09T10:39:32Z</time>
      </trkpt>
      <trkpt lat="42.86053" lon="0.2263">
        <ele>2309.1</ele>
        <time>2022-02-09T10:39:33Z</time>
      </trkpt>
      <trkpt lat="42.86052" lon="0.22629">
        <ele>2309.2</ele>
        <time>2022-02-09T10:39:34Z</time>
      </trkpt>
      <trkpt lat="42.86052" lon="0.22628">
        <ele>2309.3</ele>
        <time>2022-02-09T10:39:35Z</time>
      </trkpt>
      <trkpt lat="42.86052" lon="0.22628">
        <ele>2309.4</ele>
        <time>2022-02-09T10:39:36Z</time>
      </trkpt>
      <trkpt lat="42.86053" lon="0.22627">
        <ele>2309.6</ele>
        <time>2022-02-09T10:39:37Z</time>
      </trkpt>
      <trkpt lat="42.86053" lon="0.22627">
        <ele>2309.7</ele>
        <time>2022-02-09T10:39:38Z</time>
      </trkpt>
      <trkpt lat="42.86053" lon="0.22626">
        <ele>2309.8</ele>
        <time>2022-02-09T10:39:39Z</time>
      </trkpt>
      <trkpt lat="42.86054" lon="0.22626">
        <ele>2309.9</ele>
        <time>2022-02-09T10:39:40Z</time>
      </trkpt>
      <trkpt lat="42.86054" lon="0.22625">
        <ele>2310</ele>
        <time>2022-02-09T10:39:41Z</time>
      </trkpt>
      <trkpt lat="42.86054" lon="0.22625">
        <ele>2310.1</ele>
        <time>2022-02-09T10:39:42Z</time>
      </trkpt>
      <trkpt lat="42.86055" lon="0.22625">
        <ele>2310.2</ele>
        <time>2022-02-09T10:39:43Z</time>
      </trkpt>
      <trkpt lat="42.86055" lon="0.22624">
        <ele>2310.4</ele>
        <time>2022-02-09T10:39:44Z</time>
      </trkpt>
      <trkpt lat="42.86056" lon="0.22624">
        <ele>2310.6</ele>
        <time>2022-02-09T10:39:45Z</time>
      </trkpt>
      <trkpt lat="42.86056" lon="0.22624">
        <ele>2310.7</ele>
        <time>2022-02-09T10:39:46Z</time>
      </trkpt>
      <trkpt lat="42.86057" lon="0.22623">
        <ele>2310.8</ele>
        <time>2022-02-09T10:39:47Z</time>
      </trkpt>
      <trkpt lat="42.86057" lon="0.22623">
        <ele>2311</ele>
        <time>2022-02-09T10:39:48Z</time>
      </trkpt>
      <trkpt lat="42.86057" lon="0.22622">
        <ele>2311.1</ele>
        <time>2022-02-09T10:39:49Z</time>
      </trkpt>
      <trkpt lat="42.86058" lon="0.22622">
        <ele>2311.2</ele>
        <time>2022-02-09T10:39:50Z</time>
      </trkpt>
      <trkpt lat="42.86058" lon="0.22622">
        <ele>2311.3</ele>
        <time>2022-02-09T10:39:51Z</time>
      </trkpt>
      <trkpt lat="42.86059" lon="0.22621">
        <ele>2311.5</ele>
        <time>2022-02-09T10:39:52Z</time>
      </trkpt>
      <trkpt lat="42.86059" lon="0.22621">
        <ele>2311.6</ele>
        <time>2022-02-09T10:39:53Z</time>
      </trkpt>
      <trkpt lat="42.86059" lon="0.2262">
        <ele>2311.8</ele>
        <time>2022-02-09T10:39:54Z</time>
      </trkpt>
      <trkpt lat="42.86059" lon="0.22619">
        <ele>2311.9</ele>
        <time>2022-02-09T10:39:55Z</time>
      </trkpt>
      <trkpt lat="42.8606" lon="0.22619">
        <ele>2312.1</ele>
        <time>2022-02-09T10:39:56Z</time>
      </trkpt>
      <trkpt lat="42.86061" lon="0.22618">
        <ele>2312.3</ele>
        <time>2022-02-09T10:39:57Z</time>
      </trkpt>
      <trkpt lat="42.86061" lon="0.22618">
        <ele>2312.5</ele>
        <time>2022-02-09T10:39:58Z</time>
      </trkpt>
      <trkpt lat="42.86061" lon="0.22617">
        <ele>2312.6</ele>
        <time>2022-02-09T10:39:59Z</time>
      </trkpt>
      <trkpt lat="42.86062" lon="0.22617">
        <ele>2312.8</ele>
        <time>2022-02-09T10:40:00Z</time>
      </trkpt>
      <trkpt lat="42.86062" lon="0.22617">
        <ele>2312.9</ele>
        <time>2022-02-09T10:40:01Z</time>
      </trkpt>
      <trkpt lat="42.86063" lon="0.22616">
        <ele>2313.1</ele>
        <time>2022-02-09T10:40:02Z</time>
      </trkpt>
      <trkpt lat="42.86063" lon="0.22616">
        <ele>2313.2</ele>
        <time>2022-02-09T10:40:03Z</time>
      </trkpt>
      <trkpt lat="42.86063" lon="0.22616">
        <ele>2313.3</ele>
        <time>2022-02-09T10:40:04Z</time>
      </trkpt>
      <trkpt lat="42.86064" lon="0.22615">
        <ele>2313.4</ele>
        <time>2022-02-09T10:40:05Z</time>
      </trkpt>
      <trkpt lat="42.86064" lon="0.22615">
        <ele>2313.6</ele>
        <time>2022-02-09T10:40:06Z</time>
      </trkpt>
      <trkpt lat="42.86064" lon="0.22615">
        <ele>2313.7</ele>
        <time>2022-02-09T10:40:07Z</time>
      </trkpt>
      <trkpt lat="42.86065" lon="0.22614">
        <ele>2313.9</ele>
        <time>2022-02-09T10:40:08Z</time>
      </trkpt>
      <trkpt lat="42.86065" lon="0.22614">
        <ele>2314.1</ele>
        <time>2022-02-09T10:40:09Z</time>
      </trkpt>
      <trkpt lat="42.86066" lon="0.22614">
        <ele>2314.2</ele>
        <time>2022-02-09T10:40:10Z</time>
      </trkpt>
      <trkpt lat="42.86066" lon="0.22613">
        <ele>2314.4</ele>
        <time>2022-02-09T10:40:11Z</time>
      </trkpt>
      <trkpt lat="42.86067" lon="0.22613">
        <ele>2314.6</ele>
        <time>2022-02-09T10:40:12Z</time>
      </trkpt>
      <trkpt lat="42.86068" lon="0.22613">
        <ele>2314.7</ele>
        <time>2022-02-09T10:40:13Z</time>
      </trkpt>
      <trkpt lat="42.86068" lon="0.22613">
        <ele>2314.9</ele>
        <time>2022-02-09T10:40:14Z</time>
      </trkpt>
      <trkpt lat="42.86069" lon="0.22613">
        <ele>2315</ele>
        <time>2022-02-09T10:40:15Z</time>
      </trkpt>
      <trkpt lat="42.86069" lon="0.22613">
        <ele>2315.1</ele>
        <time>2022-02-09T10:40:16Z</time>
      </trkpt>
      <trkpt lat="42.86069" lon="0.22613">
        <ele>2315.2</ele>
        <time>2022-02-09T10:40:17Z</time>
      </trkpt>
      <trkpt lat="42.8607" lon="0.22614">
        <ele>2315.4</ele>
        <time>2022-02-09T10:40:18Z</time>
      </trkpt>
      <trkpt lat="42.8607" lon="0.22614">
        <ele>2315.5</ele>
        <time>2022-02-09T10:40:19Z</time>
      </trkpt>
      <trkpt lat="42.86071" lon="0.22614">
        <ele>2315.6</ele>
        <time>2022-02-09T10:40:20Z</time>
      </trkpt>
      <trkpt lat="42.86071" lon="0.22614">
        <ele>2315.7</ele>
        <time>2022-02-09T10:40:21Z</time>
      </trkpt>
      <trkpt lat="42.86072" lon="0.22615">
        <ele>2315.9</ele>
        <time>2022-02-09T10:40:22Z</time>
      </trkpt>
      <trkpt lat="42.86072" lon="0.22615">
        <ele>2316</ele>
        <time>2022-02-09T10:40:23Z</time>
      </trkpt>
      <trkpt lat="42.86073" lon="0.22615">
        <ele>2316.2</ele>
        <time>2022-02-09T10:40:24Z</time>
      </trkpt>
      <trkpt lat="42.86074" lon="0.22615">
        <ele>2316.3</ele>
        <time>2022-02-09T10:40:25Z</time>
      </trkpt>
      <trkpt lat="42.86074" lon="0.22615">
        <ele>2316.4</ele>
        <time>2022-02-09T10:40:26Z</time>
      </trkpt>
      <trkpt lat="42.86074" lon="0.22615">
        <ele>2316.5</ele>
        <time>2022-02-09T10:40:27Z</time>
      </trkpt>
      <trkpt lat="42.86075" lon="0.22616">
        <ele>2316.6</ele>
        <time>2022-02-09T10:40:28Z</time>
      </trkpt>
      <trkpt lat="42.86076" lon="0.22616">
        <ele>2316.7</ele>
        <time>2022-02-09T10:40:29Z</time>
      </trkpt>
      <trkpt lat="42.86076" lon="0.22616">
        <ele>2316.8</ele>
        <time>2022-02-09T10:40:30Z</time>
      </trkpt>
      <trkpt lat="42.86077" lon="0.22616">
        <ele>2316.9</ele>
        <time>2022-02-09T10:40:31Z</time>
      </trkpt>
      <trkpt lat="42.86077" lon="0.22616">
        <ele>2317.1</ele>
        <time>2022-02-09T10:40:32Z</time>
      </trkpt>
      <trkpt lat="42.86078" lon="0.22615">
        <ele>2317.1</ele>
        <time>2022-02-09T10:40:33Z</time>
      </trkpt>
      <trkpt lat="42.86078" lon="0.22615">
        <ele>2317.2</ele>
        <time>2022-02-09T10:40:34Z</time>
      </trkpt>
      <trkpt lat="42.86079" lon="0.22615">
        <ele>2317.4</ele>
        <time>2022-02-09T10:40:35Z</time>
      </trkpt>
      <trkpt lat="42.86079" lon="0.22615">
        <ele>2317.4</ele>
        <time>2022-02-09T10:40:36Z</time>
      </trkpt>
      <trkpt lat="42.8608" lon="0.22614">
        <ele>2317.5</ele>
        <time>2022-02-09T10:40:37Z</time>
      </trkpt>
      <trkpt lat="42.8608" lon="0.22614">
        <ele>2317.6</ele>
        <time>2022-02-09T10:40:38Z</time>
      </trkpt>
      <trkpt lat="42.8608" lon="0.22613">
        <ele>2317.7</ele>
        <time>2022-02-09T10:40:39Z</time>
      </trkpt>
      <trkpt lat="42.86081" lon="0.22613">
        <ele>2317.7</ele>
        <time>2022-02-09T10:40:40Z</time>
      </trkpt>
      <trkpt lat="42.86081" lon="0.22612">
        <ele>2317.8</ele>
        <time>2022-02-09T10:40:41Z</time>
      </trkpt>
      <trkpt lat="42.86082" lon="0.22612">
        <ele>2317.9</ele>
        <time>2022-02-09T10:40:42Z</time>
      </trkpt>
      <trkpt lat="42.86082" lon="0.22611">
        <ele>2318</ele>
        <time>2022-02-09T10:40:43Z</time>
      </trkpt>
      <trkpt lat="42.86082" lon="0.22611">
        <ele>2318.1</ele>
        <time>2022-02-09T10:40:44Z</time>
      </trkpt>
      <trkpt lat="42.86083" lon="0.2261">
        <ele>2318.2</ele>
        <time>2022-02-09T10:40:45Z</time>
      </trkpt>
      <trkpt lat="42.86083" lon="0.2261">
        <ele>2318.3</ele>
        <time>2022-02-09T10:40:46Z</time>
      </trkpt>
      <trkpt lat="42.86083" lon="0.22609">
        <ele>2318.3</ele>
        <time>2022-02-09T10:40:47Z</time>
      </trkpt>
      <trkpt lat="42.86084" lon="0.22609">
        <ele>2318.4</ele>
        <time>2022-02-09T10:40:48Z</time>
      </trkpt>
      <trkpt lat="42.86084" lon="0.22608">
        <ele>2318.5</ele>
        <time>2022-02-09T10:40:49Z</time>
      </trkpt>
      <trkpt lat="42.86084" lon="0.22608">
        <ele>2318.6</ele>
        <time>2022-02-09T10:40:50Z</time>
      </trkpt>
      <trkpt lat="42.86084" lon="0.22607">
        <ele>2318.6</ele>
        <time>2022-02-09T10:40:51Z</time>
      </trkpt>
      <trkpt lat="42.86084" lon="0.22607">
        <ele>2318.7</ele>
        <time>2022-02-09T10:40:52Z</time>
      </trkpt>
      <trkpt lat="42.86085" lon="0.22606">
        <ele>2318.8</ele>
        <time>2022-02-09T10:40:53Z</time>
      </trkpt>
      <trkpt lat="42.86085" lon="0.22606">
        <ele>2318.9</ele>
        <time>2022-02-09T10:40:54Z</time>
      </trkpt>
      <trkpt lat="42.86086" lon="0.22605">
        <ele>2318.9</ele>
        <time>2022-02-09T10:40:55Z</time>
      </trkpt>
      <trkpt lat="42.86086" lon="0.22605">
        <ele>2319</ele>
        <time>2022-02-09T10:40:56Z</time>
      </trkpt>
      <trkpt lat="42.86086" lon="0.22605">
        <ele>2319.1</ele>
        <time>2022-02-09T10:40:57Z</time>
      </trkpt>
      <trkpt lat="42.86086" lon="0.22604">
        <ele>2319.2</ele>
        <time>2022-02-09T10:40:58Z</time>
      </trkpt>
      <trkpt lat="42.86086" lon="0.22603">
        <ele>2319.2</ele>
        <time>2022-02-09T10:40:59Z</time>
      </trkpt>
      <trkpt lat="42.86087" lon="0.22603">
        <ele>2319.3</ele>
        <time>2022-02-09T10:41:00Z</time>
      </trkpt>
      <trkpt lat="42.86087" lon="0.22602">
        <ele>2319.4</ele>
        <time>2022-02-09T10:41:01Z</time>
      </trkpt>
      <trkpt lat="42.86087" lon="0.22602">
        <ele>2319.5</ele>
        <time>2022-02-09T10:41:02Z</time>
      </trkpt>
      <trkpt lat="42.86088" lon="0.22601">
        <ele>2319.6</ele>
        <time>2022-02-09T10:41:03Z</time>
      </trkpt>
      <trkpt lat="42.86088" lon="0.22601">
        <ele>2319.7</ele>
        <time>2022-02-09T10:41:04Z</time>
      </trkpt>
      <trkpt lat="42.86088" lon="0.226">
        <ele>2319.7</ele>
        <time>2022-02-09T10:41:05Z</time>
      </trkpt>
      <trkpt lat="42.86088" lon="0.226">
        <ele>2319.8</ele>
        <time>2022-02-09T10:41:06Z</time>
      </trkpt>
      <trkpt lat="42.86089" lon="0.22599">
        <ele>2319.9</ele>
        <time>2022-02-09T10:41:07Z</time>
      </trkpt>
      <trkpt lat="42.86089" lon="0.22598">
        <ele>2320</ele>
        <time>2022-02-09T10:41:08Z</time>
      </trkpt>
      <trkpt lat="42.8609" lon="0.22598">
        <ele>2320.1</ele>
        <time>2022-02-09T10:41:09Z</time>
      </trkpt>
      <trkpt lat="42.8609" lon="0.22597">
        <ele>2320.2</ele>
        <time>2022-02-09T10:41:10Z</time>
      </trkpt>
      <trkpt lat="42.8609" lon="0.22597">
        <ele>2320.3</ele>
        <time>2022-02-09T10:41:11Z</time>
      </trkpt>
      <trkpt lat="42.86091" lon="0.22596">
        <ele>2320.4</ele>
        <time>2022-02-09T10:41:12Z</time>
      </trkpt>
      <trkpt lat="42.86091" lon="0.22596">
        <ele>2320.5</ele>
        <time>2022-02-09T10:41:13Z</time>
      </trkpt>
      <trkpt lat="42.86091" lon="0.22595">
        <ele>2320.6</ele>
        <time>2022-02-09T10:41:14Z</time>
      </trkpt>
      <trkpt lat="42.86092" lon="0.22594">
        <ele>2320.7</ele>
        <time>2022-02-09T10:41:15Z</time>
      </trkpt>
      <trkpt lat="42.86092" lon="0.22594">
        <ele>2320.8</ele>
        <time>2022-02-09T10:41:16Z</time>
      </trkpt>
      <trkpt lat="42.86093" lon="0.22593">
        <ele>2320.9</ele>
        <time>2022-02-09T10:41:17Z</time>
      </trkpt>
      <trkpt lat="42.86093" lon="0.22593">
        <ele>2321</ele>
        <time>2022-02-09T10:41:18Z</time>
      </trkpt>
      <trkpt lat="42.86093" lon="0.22592">
        <ele>2321.1</ele>
        <time>2022-02-09T10:41:19Z</time>
      </trkpt>
      <trkpt lat="42.86093" lon="0.22592">
        <ele>2321.2</ele>
        <time>2022-02-09T10:41:20Z</time>
      </trkpt>
      <trkpt lat="42.86094" lon="0.22591">
        <ele>2321.2</ele>
        <time>2022-02-09T10:41:21Z</time>
      </trkpt>
      <trkpt lat="42.86094" lon="0.22591">
        <ele>2321.3</ele>
        <time>2022-02-09T10:41:22Z</time>
      </trkpt>
      <trkpt lat="42.86094" lon="0.22591">
        <ele>2321.3</ele>
        <time>2022-02-09T10:41:23Z</time>
      </trkpt>
      <trkpt lat="42.86094" lon="0.2259">
        <ele>2321.4</ele>
        <time>2022-02-09T10:41:24Z</time>
      </trkpt>
      <trkpt lat="42.86095" lon="0.2259">
        <ele>2321.5</ele>
        <time>2022-02-09T10:41:25Z</time>
      </trkpt>
      <trkpt lat="42.86095" lon="0.2259">
        <ele>2321.5</ele>
        <time>2022-02-09T10:41:26Z</time>
      </trkpt>
      <trkpt lat="42.86095" lon="0.2259">
        <ele>2321.6</ele>
        <time>2022-02-09T10:41:27Z</time>
      </trkpt>
      <trkpt lat="42.86095" lon="0.2259">
        <ele>2321.6</ele>
        <time>2022-02-09T10:41:28Z</time>
      </trkpt>
      <trkpt lat="42.86095" lon="0.2259">
        <ele>2321.6</ele>
        <time>2022-02-09T10:41:29Z</time>
      </trkpt>
      <trkpt lat="42.86095" lon="0.2259">
        <ele>2321.6</ele>
        <time>2022-02-09T10:41:30Z</time>
      </trkpt>
      <trkpt lat="42.86095" lon="0.2259">
        <ele>2321.6</ele>
        <time>2022-02-09T10:41:31Z</time>
      </trkpt>
      <trkpt lat="42.86095" lon="0.2259">
        <ele>2321.6</ele>
        <time>2022-02-09T10:41:32Z</time>
      </trkpt>
      <trkpt lat="42.86095" lon="0.2259">
        <ele>2321.6</ele>
        <time>2022-02-09T10:41:33Z</time>
      </trkpt>
      <trkpt lat="42.86095" lon="0.2259">
        <ele>2321.6</ele>
        <time>2022-02-09T10:41:34Z</time>
      </trkpt>
      <trkpt lat="42.86095" lon="0.2259">
        <ele>2321.6</ele>
        <time>2022-02-09T10:41:35Z</time>
      </trkpt>
      <trkpt lat="42.86095" lon="0.2259">
        <ele>2321.6</ele>
        <time>2022-02-09T10:41:36Z</time>
      </trkpt>
      <trkpt lat="42.86095" lon="0.2259">
        <ele>2321.6</ele>
        <time>2022-02-09T10:41:37Z</time>
      </trkpt>
      <trkpt lat="42.86095" lon="0.2259">
        <ele>2321.6</ele>
        <time>2022-02-09T10:41:38Z</time>
      </trkpt>
      <trkpt lat="42.86095" lon="0.2259">
        <ele>2321.6</ele>
        <time>2022-02-09T10:41:39Z</time>
      </trkpt>
      <trkpt lat="42.86095" lon="0.2259">
        <ele>2321.6</ele>
        <time>2022-02-09T10:41:40Z</time>
      </trkpt>
      <trkpt lat="42.86095" lon="0.2259">
        <ele>2321.6</ele>
        <time>2022-02-09T10:41:41Z</time>
      </trkpt>
      <trkpt lat="42.86095" lon="0.2259">
        <ele>2321.6</ele>
        <time>2022-02-09T10:41:42Z</time>
      </trkpt>
      <trkpt lat="42.86096" lon="0.2259">
        <ele>2321.8</ele>
        <time>2022-02-09T10:41:43Z</time>
      </trkpt>
      <trkpt lat="42.86097" lon="0.22589">
        <ele>2321.9</ele>
        <time>2022-02-09T10:41:44Z</time>
      </trkpt>
      <trkpt lat="42.86097" lon="0.22589">
        <ele>2322.1</ele>
        <time>2022-02-09T10:41:45Z</time>
      </trkpt>
      <trkpt lat="42.86098" lon="0.22588">
        <ele>2322.2</ele>
        <time>2022-02-09T10:41:46Z</time>
      </trkpt>
      <trkpt lat="42.86098" lon="0.22588">
        <ele>2322.3</ele>
        <time>2022-02-09T10:41:47Z</time>
      </trkpt>
      <trkpt lat="42.86099" lon="0.22587">
        <ele>2322.4</ele>
        <time>2022-02-09T10:41:48Z</time>
      </trkpt>
      <trkpt lat="42.86099" lon="0.22587">
        <ele>2322.5</ele>
        <time>2022-02-09T10:41:49Z</time>
      </trkpt>
      <trkpt lat="42.861" lon="0.22586">
        <ele>2322.6</ele>
        <time>2022-02-09T10:41:50Z</time>
      </trkpt>
      <trkpt lat="42.86101" lon="0.22585">
        <ele>2322.8</ele>
        <time>2022-02-09T10:41:51Z</time>
      </trkpt>
      <trkpt lat="42.86101" lon="0.22585">
        <ele>2322.9</ele>
        <time>2022-02-09T10:41:52Z</time>
      </trkpt>
      <trkpt lat="42.86102" lon="0.22584">
        <ele>2323.1</ele>
        <time>2022-02-09T10:41:53Z</time>
      </trkpt>
      <trkpt lat="42.86102" lon="0.22583">
        <ele>2323.2</ele>
        <time>2022-02-09T10:41:54Z</time>
      </trkpt>
      <trkpt lat="42.86103" lon="0.22582">
        <ele>2323.3</ele>
        <time>2022-02-09T10:41:55Z</time>
      </trkpt>
      <trkpt lat="42.86104" lon="0.22582">
        <ele>2323.5</ele>
        <time>2022-02-09T10:41:56Z</time>
      </trkpt>
      <trkpt lat="42.86104" lon="0.22581">
        <ele>2323.6</ele>
        <time>2022-02-09T10:41:57Z</time>
      </trkpt>
      <trkpt lat="42.86105" lon="0.2258">
        <ele>2323.7</ele>
        <time>2022-02-09T10:41:58Z</time>
      </trkpt>
      <trkpt lat="42.86105" lon="0.22579">
        <ele>2323.8</ele>
        <time>2022-02-09T10:41:59Z</time>
      </trkpt>
      <trkpt lat="42.86106" lon="0.22579">
        <ele>2323.9</ele>
        <time>2022-02-09T10:42:00Z</time>
      </trkpt>
      <trkpt lat="42.86106" lon="0.22578">
        <ele>2324</ele>
        <time>2022-02-09T10:42:01Z</time>
      </trkpt>
      <trkpt lat="42.86107" lon="0.22577">
        <ele>2324.1</ele>
        <time>2022-02-09T10:42:02Z</time>
      </trkpt>
      <trkpt lat="42.86107" lon="0.22576">
        <ele>2324.3</ele>
        <time>2022-02-09T10:42:03Z</time>
      </trkpt>
      <trkpt lat="42.86108" lon="0.22575">
        <ele>2324.4</ele>
        <time>2022-02-09T10:42:04Z</time>
      </trkpt>
      <trkpt lat="42.86108" lon="0.22574">
        <ele>2324.4</ele>
        <time>2022-02-09T10:42:05Z</time>
      </trkpt>
      <trkpt lat="42.86109" lon="0.22574">
        <ele>2324.5</ele>
        <time>2022-02-09T10:42:06Z</time>
      </trkpt>
      <trkpt lat="42.86109" lon="0.22573">
        <ele>2324.5</ele>
        <time>2022-02-09T10:42:07Z</time>
      </trkpt>
      <trkpt lat="42.86109" lon="0.22572">
        <ele>2324.5</ele>
        <time>2022-02-09T10:42:08Z</time>
      </trkpt>
      <trkpt lat="42.8611" lon="0.22571">
        <ele>2324.6</ele>
        <time>2022-02-09T10:42:09Z</time>
      </trkpt>
      <trkpt lat="42.86111" lon="0.2257">
        <ele>2324.6</ele>
        <time>2022-02-09T10:42:10Z</time>
      </trkpt>
      <trkpt lat="42.86111" lon="0.22569">
        <ele>2324.6</ele>
        <time>2022-02-09T10:42:11Z</time>
      </trkpt>
      <trkpt lat="42.86112" lon="0.22568">
        <ele>2324.7</ele>
        <time>2022-02-09T10:42:12Z</time>
      </trkpt>
      <trkpt lat="42.86112" lon="0.22567">
        <ele>2324.7</ele>
        <time>2022-02-09T10:42:13Z</time>
      </trkpt>
      <trkpt lat="42.86113" lon="0.22566">
        <ele>2324.7</ele>
        <time>2022-02-09T10:42:14Z</time>
      </trkpt>
      <trkpt lat="42.86113" lon="0.22565">
        <ele>2324.8</ele>
        <time>2022-02-09T10:42:15Z</time>
      </trkpt>
      <trkpt lat="42.86114" lon="0.22564">
        <ele>2324.8</ele>
        <time>2022-02-09T10:42:16Z</time>
      </trkpt>
      <trkpt lat="42.86114" lon="0.22563">
        <ele>2324.9</ele>
        <time>2022-02-09T10:42:17Z</time>
      </trkpt>
      <trkpt lat="42.86115" lon="0.22562">
        <ele>2324.9</ele>
        <time>2022-02-09T10:42:18Z</time>
      </trkpt>
      <trkpt lat="42.86115" lon="0.22561">
        <ele>2324.9</ele>
        <time>2022-02-09T10:42:19Z</time>
      </trkpt>
      <trkpt lat="42.86116" lon="0.22561">
        <ele>2325</ele>
        <time>2022-02-09T10:42:20Z</time>
      </trkpt>
      <trkpt lat="42.86116" lon="0.2256">
        <ele>2325</ele>
        <time>2022-02-09T10:42:21Z</time>
      </trkpt>
      <trkpt lat="42.86117" lon="0.22559">
        <ele>2325.1</ele>
        <time>2022-02-09T10:42:22Z</time>
      </trkpt>
      <trkpt lat="42.86117" lon="0.22558">
        <ele>2325.1</ele>
        <time>2022-02-09T10:42:23Z</time>
      </trkpt>
      <trkpt lat="42.86118" lon="0.22557">
        <ele>2325.2</ele>
        <time>2022-02-09T10:42:24Z</time>
      </trkpt>
      <trkpt lat="42.86118" lon="0.22556">
        <ele>2325.2</ele>
        <time>2022-02-09T10:42:25Z</time>
      </trkpt>
      <trkpt lat="42.86119" lon="0.22555">
        <ele>2325.3</ele>
        <time>2022-02-09T10:42:26Z</time>
      </trkpt>
      <trkpt lat="42.86119" lon="0.22554">
        <ele>2325.3</ele>
        <time>2022-02-09T10:42:27Z</time>
      </trkpt>
      <trkpt lat="42.86119" lon="0.22553">
        <ele>2325.4</ele>
        <time>2022-02-09T10:42:28Z</time>
      </trkpt>
      <trkpt lat="42.8612" lon="0.22552">
        <ele>2325.4</ele>
        <time>2022-02-09T10:42:29Z</time>
      </trkpt>
      <trkpt lat="42.8612" lon="0.22551">
        <ele>2325.5</ele>
        <time>2022-02-09T10:42:30Z</time>
      </trkpt>
      <trkpt lat="42.86121" lon="0.2255">
        <ele>2325.5</ele>
        <time>2022-02-09T10:42:31Z</time>
      </trkpt>
      <trkpt lat="42.86121" lon="0.2255">
        <ele>2325.6</ele>
        <time>2022-02-09T10:42:32Z</time>
      </trkpt>
      <trkpt lat="42.86121" lon="0.22549">
        <ele>2325.6</ele>
        <time>2022-02-09T10:42:33Z</time>
      </trkpt>
      <trkpt lat="42.86122" lon="0.22548">
        <ele>2325.7</ele>
        <time>2022-02-09T10:42:34Z</time>
      </trkpt>
      <trkpt lat="42.86122" lon="0.22547">
        <ele>2325.7</ele>
        <time>2022-02-09T10:42:35Z</time>
      </trkpt>
      <trkpt lat="42.86122" lon="0.22547">
        <ele>2325.7</ele>
        <time>2022-02-09T10:42:36Z</time>
      </trkpt>
      <trkpt lat="42.86123" lon="0.22546">
        <ele>2325.8</ele>
        <time>2022-02-09T10:42:37Z</time>
      </trkpt>
      <trkpt lat="42.86123" lon="0.22545">
        <ele>2325.8</ele>
        <time>2022-02-09T10:42:38Z</time>
      </trkpt>
      <trkpt lat="42.86123" lon="0.22545">
        <ele>2325.9</ele>
        <time>2022-02-09T10:42:39Z</time>
      </trkpt>
      <trkpt lat="42.86124" lon="0.22544">
        <ele>2325.9</ele>
        <time>2022-02-09T10:42:40Z</time>
      </trkpt>
      <trkpt lat="42.86124" lon="0.22543">
        <ele>2326</ele>
        <time>2022-02-09T10:42:41Z</time>
      </trkpt>
      <trkpt lat="42.86124" lon="0.22543">
        <ele>2326</ele>
        <time>2022-02-09T10:42:42Z</time>
      </trkpt>
      <trkpt lat="42.86125" lon="0.22542">
        <ele>2326.1</ele>
        <time>2022-02-09T10:42:43Z</time>
      </trkpt>
      <trkpt lat="42.86125" lon="0.22542">
        <ele>2326.1</ele>
        <time>2022-02-09T10:42:44Z</time>
      </trkpt>
      <trkpt lat="42.86125" lon="0.22541">
        <ele>2326.1</ele>
        <time>2022-02-09T10:42:45Z</time>
      </trkpt>
      <trkpt lat="42.86126" lon="0.2254">
        <ele>2326.2</ele>
        <time>2022-02-09T10:42:46Z</time>
      </trkpt>
      <trkpt lat="42.86126" lon="0.2254">
        <ele>2326.2</ele>
        <time>2022-02-09T10:42:47Z</time>
      </trkpt>
      <trkpt lat="42.86127" lon="0.22539">
        <ele>2326.2</ele>
        <time>2022-02-09T10:42:48Z</time>
      </trkpt>
      <trkpt lat="42.86127" lon="0.22539">
        <ele>2326.2</ele>
        <time>2022-02-09T10:42:49Z</time>
      </trkpt>
      <trkpt lat="42.86127" lon="0.22538">
        <ele>2326.3</ele>
        <time>2022-02-09T10:42:50Z</time>
      </trkpt>
      <trkpt lat="42.86128" lon="0.22537">
        <ele>2326.3</ele>
        <time>2022-02-09T10:42:51Z</time>
      </trkpt>
      <trkpt lat="42.86128" lon="0.22537">
        <ele>2326.4</ele>
        <time>2022-02-09T10:42:52Z</time>
      </trkpt>
      <trkpt lat="42.86129" lon="0.22536">
        <ele>2326.4</ele>
        <time>2022-02-09T10:42:53Z</time>
      </trkpt>
      <trkpt lat="42.86129" lon="0.22536">
        <ele>2326.5</ele>
        <time>2022-02-09T10:42:54Z</time>
      </trkpt>
      <trkpt lat="42.86129" lon="0.22535">
        <ele>2326.5</ele>
        <time>2022-02-09T10:42:55Z</time>
      </trkpt>
      <trkpt lat="42.8613" lon="0.22534">
        <ele>2326.5</ele>
        <time>2022-02-09T10:42:56Z</time>
      </trkpt>
      <trkpt lat="42.8613" lon="0.22534">
        <ele>2326.6</ele>
        <time>2022-02-09T10:42:57Z</time>
      </trkpt>
      <trkpt lat="42.86131" lon="0.22533">
        <ele>2326.6</ele>
        <time>2022-02-09T10:42:58Z</time>
      </trkpt>
      <trkpt lat="42.86131" lon="0.22532">
        <ele>2326.7</ele>
        <time>2022-02-09T10:42:59Z</time>
      </trkpt>
      <trkpt lat="42.86131" lon="0.22532">
        <ele>2326.7</ele>
        <time>2022-02-09T10:43:00Z</time>
      </trkpt>
      <trkpt lat="42.86131" lon="0.22531">
        <ele>2326.7</ele>
        <time>2022-02-09T10:43:01Z</time>
      </trkpt>
      <trkpt lat="42.86132" lon="0.2253">
        <ele>2326.7</ele>
        <time>2022-02-09T10:43:02Z</time>
      </trkpt>
      <trkpt lat="42.86132" lon="0.22529">
        <ele>2326.8</ele>
        <time>2022-02-09T10:43:03Z</time>
      </trkpt>
      <trkpt lat="42.86133" lon="0.22529">
        <ele>2326.8</ele>
        <time>2022-02-09T10:43:04Z</time>
      </trkpt>
      <trkpt lat="42.86133" lon="0.22528">
        <ele>2326.8</ele>
        <time>2022-02-09T10:43:05Z</time>
      </trkpt>
      <trkpt lat="42.86133" lon="0.22527">
        <ele>2326.8</ele>
        <time>2022-02-09T10:43:06Z</time>
      </trkpt>
      <trkpt lat="42.86133" lon="0.22527">
        <ele>2326.8</ele>
        <time>2022-02-09T10:43:07Z</time>
      </trkpt>
      <trkpt lat="42.86134" lon="0.22526">
        <ele>2326.9</ele>
        <time>2022-02-09T10:43:08Z</time>
      </trkpt>
      <trkpt lat="42.86134" lon="0.22526">
        <ele>2326.8</ele>
        <time>2022-02-09T10:43:09Z</time>
      </trkpt>
      <trkpt lat="42.86134" lon="0.22525">
        <ele>2326.9</ele>
        <time>2022-02-09T10:43:10Z</time>
      </trkpt>
      <trkpt lat="42.86134" lon="0.22525">
        <ele>2326.8</ele>
        <time>2022-02-09T10:43:11Z</time>
      </trkpt>
      <trkpt lat="42.86135" lon="0.22524">
        <ele>2326.9</ele>
        <time>2022-02-09T10:43:12Z</time>
      </trkpt>
      <trkpt lat="42.86135" lon="0.22523">
        <ele>2326.8</ele>
        <time>2022-02-09T10:43:13Z</time>
      </trkpt>
      <trkpt lat="42.86135" lon="0.22523">
        <ele>2326.8</ele>
        <time>2022-02-09T10:43:14Z</time>
      </trkpt>
      <trkpt lat="42.86135" lon="0.22522">
        <ele>2326.9</ele>
        <time>2022-02-09T10:43:15Z</time>
      </trkpt>
      <trkpt lat="42.86136" lon="0.22521">
        <ele>2326.9</ele>
        <time>2022-02-09T10:43:16Z</time>
      </trkpt>
      <trkpt lat="42.86136" lon="0.22521">
        <ele>2326.9</ele>
        <time>2022-02-09T10:43:17Z</time>
      </trkpt>
      <trkpt lat="42.86136" lon="0.2252">
        <ele>2326.8</ele>
        <time>2022-02-09T10:43:18Z</time>
      </trkpt>
      <trkpt lat="42.86136" lon="0.2252">
        <ele>2326.9</ele>
        <time>2022-02-09T10:43:19Z</time>
      </trkpt>
      <trkpt lat="42.86137" lon="0.22519">
        <ele>2326.9</ele>
        <time>2022-02-09T10:43:20Z</time>
      </trkpt>
      <trkpt lat="42.86137" lon="0.22518">
        <ele>2326.9</ele>
        <time>2022-02-09T10:43:21Z</time>
      </trkpt>
      <trkpt lat="42.86137" lon="0.22518">
        <ele>2326.9</ele>
        <time>2022-02-09T10:43:22Z</time>
      </trkpt>
      <trkpt lat="42.86138" lon="0.22517">
        <ele>2326.9</ele>
        <time>2022-02-09T10:43:23Z</time>
      </trkpt>
      <trkpt lat="42.86138" lon="0.22517">
        <ele>2327</ele>
        <time>2022-02-09T10:43:24Z</time>
      </trkpt>
      <trkpt lat="42.86139" lon="0.22516">
        <ele>2326.9</ele>
        <time>2022-02-09T10:43:25Z</time>
      </trkpt>
      <trkpt lat="42.86139" lon="0.22516">
        <ele>2326.9</ele>
        <time>2022-02-09T10:43:26Z</time>
      </trkpt>
      <trkpt lat="42.8614" lon="0.22515">
        <ele>2327</ele>
        <time>2022-02-09T10:43:27Z</time>
      </trkpt>
      <trkpt lat="42.8614" lon="0.22515">
        <ele>2326.9</ele>
        <time>2022-02-09T10:43:28Z</time>
      </trkpt>
      <trkpt lat="42.8614" lon="0.22514">
        <ele>2327</ele>
        <time>2022-02-09T10:43:29Z</time>
      </trkpt>
      <trkpt lat="42.86141" lon="0.22513">
        <ele>2327</ele>
        <time>2022-02-09T10:43:30Z</time>
      </trkpt>
      <trkpt lat="42.86141" lon="0.22513">
        <ele>2327.1</ele>
        <time>2022-02-09T10:43:31Z</time>
      </trkpt>
      <trkpt lat="42.86141" lon="0.22512">
        <ele>2327</ele>
        <time>2022-02-09T10:43:32Z</time>
      </trkpt>
      <trkpt lat="42.86142" lon="0.22511">
        <ele>2327</ele>
        <time>2022-02-09T10:43:33Z</time>
      </trkpt>
      <trkpt lat="42.86142" lon="0.2251">
        <ele>2327.1</ele>
        <time>2022-02-09T10:43:34Z</time>
      </trkpt>
      <trkpt lat="42.86142" lon="0.22509">
        <ele>2327.1</ele>
        <time>2022-02-09T10:43:35Z</time>
      </trkpt>
      <trkpt lat="42.86142" lon="0.22509">
        <ele>2327.2</ele>
        <time>2022-02-09T10:43:36Z</time>
      </trkpt>
      <trkpt lat="42.86142" lon="0.22508">
        <ele>2327.1</ele>
        <time>2022-02-09T10:43:37Z</time>
      </trkpt>
      <trkpt lat="42.86143" lon="0.22507">
        <ele>2327.1</ele>
        <time>2022-02-09T10:43:38Z</time>
      </trkpt>
      <trkpt lat="42.86143" lon="0.22506">
        <ele>2327.2</ele>
        <time>2022-02-09T10:43:39Z</time>
      </trkpt>
      <trkpt lat="42.86143" lon="0.22505">
        <ele>2327.2</ele>
        <time>2022-02-09T10:43:40Z</time>
      </trkpt>
      <trkpt lat="42.86143" lon="0.22504">
        <ele>2327.3</ele>
        <time>2022-02-09T10:43:41Z</time>
      </trkpt>
      <trkpt lat="42.86144" lon="0.22504">
        <ele>2327.3</ele>
        <time>2022-02-09T10:43:42Z</time>
      </trkpt>
      <trkpt lat="42.86144" lon="0.22503">
        <ele>2327.4</ele>
        <time>2022-02-09T10:43:43Z</time>
      </trkpt>
      <trkpt lat="42.86144" lon="0.22502">
        <ele>2327.4</ele>
        <time>2022-02-09T10:43:44Z</time>
      </trkpt>
      <trkpt lat="42.86144" lon="0.22501">
        <ele>2327.5</ele>
        <time>2022-02-09T10:43:45Z</time>
      </trkpt>
      <trkpt lat="42.86145" lon="0.225">
        <ele>2327.6</ele>
        <time>2022-02-09T10:43:46Z</time>
      </trkpt>
      <trkpt lat="42.86145" lon="0.225">
        <ele>2327.7</ele>
        <time>2022-02-09T10:43:47Z</time>
      </trkpt>
      <trkpt lat="42.86146" lon="0.22499">
        <ele>2327.8</ele>
        <time>2022-02-09T10:43:48Z</time>
      </trkpt>
      <trkpt lat="42.86146" lon="0.22498">
        <ele>2327.9</ele>
        <time>2022-02-09T10:43:49Z</time>
      </trkpt>
      <trkpt lat="42.86146" lon="0.22497">
        <ele>2328</ele>
        <time>2022-02-09T10:43:50Z</time>
      </trkpt>
      <trkpt lat="42.86146" lon="0.22497">
        <ele>2328.1</ele>
        <time>2022-02-09T10:43:51Z</time>
      </trkpt>
      <trkpt lat="42.86147" lon="0.22496">
        <ele>2328.2</ele>
        <time>2022-02-09T10:43:52Z</time>
      </trkpt>
      <trkpt lat="42.86147" lon="0.22495">
        <ele>2328.3</ele>
        <time>2022-02-09T10:43:53Z</time>
      </trkpt>
      <trkpt lat="42.86147" lon="0.22494">
        <ele>2328.4</ele>
        <time>2022-02-09T10:43:54Z</time>
      </trkpt>
      <trkpt lat="42.86148" lon="0.22493">
        <ele>2328.5</ele>
        <time>2022-02-09T10:43:55Z</time>
      </trkpt>
      <trkpt lat="42.86148" lon="0.22492">
        <ele>2328.6</ele>
        <time>2022-02-09T10:43:56Z</time>
      </trkpt>
      <trkpt lat="42.86148" lon="0.22491">
        <ele>2328.7</ele>
        <time>2022-02-09T10:43:57Z</time>
      </trkpt>
      <trkpt lat="42.86148" lon="0.22491">
        <ele>2328.8</ele>
        <time>2022-02-09T10:43:58Z</time>
      </trkpt>
      <trkpt lat="42.86149" lon="0.2249">
        <ele>2328.9</ele>
        <time>2022-02-09T10:43:59Z</time>
      </trkpt>
      <trkpt lat="42.86149" lon="0.2249">
        <ele>2328.9</ele>
        <time>2022-02-09T10:44:00Z</time>
      </trkpt>
      <trkpt lat="42.86149" lon="0.2249">
        <ele>2329</ele>
        <time>2022-02-09T10:44:01Z</time>
      </trkpt>
      <trkpt lat="42.86149" lon="0.2249">
        <ele>2329</ele>
        <time>2022-02-09T10:44:02Z</time>
      </trkpt>
      <trkpt lat="42.86149" lon="0.2249">
        <ele>2329</ele>
        <time>2022-02-09T10:44:03Z</time>
      </trkpt>
      <trkpt lat="42.86149" lon="0.2249">
        <ele>2329</ele>
        <time>2022-02-09T10:44:04Z</time>
      </trkpt>
      <trkpt lat="42.86149" lon="0.2249">
        <ele>2329</ele>
        <time>2022-02-09T10:44:05Z</time>
      </trkpt>
      <trkpt lat="42.86149" lon="0.2249">
        <ele>2329</ele>
        <time>2022-02-09T10:44:06Z</time>
      </trkpt>
      <trkpt lat="42.86149" lon="0.2249">
        <ele>2329</ele>
        <time>2022-02-09T10:44:07Z</time>
      </trkpt>
      <trkpt lat="42.86149" lon="0.2249">
        <ele>2329</ele>
        <time>2022-02-09T10:44:08Z</time>
      </trkpt>
      <trkpt lat="42.86149" lon="0.2249">
        <ele>2329</ele>
        <time>2022-02-09T10:44:09Z</time>
      </trkpt>
      <trkpt lat="42.86149" lon="0.2249">
        <ele>2329</ele>
        <time>2022-02-09T10:44:10Z</time>
      </trkpt>
      <trkpt lat="42.86149" lon="0.2249">
        <ele>2329</ele>
        <time>2022-02-09T10:44:11Z</time>
      </trkpt>
      <trkpt lat="42.86149" lon="0.2249">
        <ele>2329</ele>
        <time>2022-02-09T10:44:12Z</time>
      </trkpt>
      <trkpt lat="42.86149" lon="0.2249">
        <ele>2329</ele>
        <time>2022-02-09T10:44:13Z</time>
      </trkpt>
      <trkpt lat="42.86149" lon="0.2249">
        <ele>2329</ele>
        <time>2022-02-09T10:44:14Z</time>
      </trkpt>
      <trkpt lat="42.86149" lon="0.2249">
        <ele>2329</ele>
        <time>2022-02-09T10:44:15Z</time>
      </trkpt>
      <trkpt lat="42.86149" lon="0.22489">
        <ele>2329.2</ele>
        <time>2022-02-09T10:44:16Z</time>
      </trkpt>
      <trkpt lat="42.8615" lon="0.22488">
        <ele>2329.2</ele>
        <time>2022-02-09T10:44:17Z</time>
      </trkpt>
      <trkpt lat="42.8615" lon="0.22488">
        <ele>2329.2</ele>
        <time>2022-02-09T10:44:18Z</time>
      </trkpt>
      <trkpt lat="42.8615" lon="0.22489">
        <ele>2329.2</ele>
        <time>2022-02-09T10:44:19Z</time>
      </trkpt>
      <trkpt lat="42.8615" lon="0.22489">
        <ele>2329.2</ele>
        <time>2022-02-09T10:44:20Z</time>
      </trkpt>
      <trkpt lat="42.8615" lon="0.22489">
        <ele>2329.2</ele>
        <time>2022-02-09T10:44:21Z</time>
      </trkpt>
      <trkpt lat="42.8615" lon="0.22489">
        <ele>2329.2</ele>
        <time>2022-02-09T10:44:22Z</time>
      </trkpt>
      <trkpt lat="42.8615" lon="0.22489">
        <ele>2329.2</ele>
        <time>2022-02-09T10:44:23Z</time>
      </trkpt>
      <trkpt lat="42.8615" lon="0.22489">
        <ele>2329.2</ele>
        <time>2022-02-09T10:44:24Z</time>
      </trkpt>
      <trkpt lat="42.8615" lon="0.22489">
        <ele>2329.2</ele>
        <time>2022-02-09T10:44:25Z</time>
      </trkpt>
      <trkpt lat="42.8615" lon="0.22489">
        <ele>2329.2</ele>
        <time>2022-02-09T10:44:26Z</time>
      </trkpt>
      <trkpt lat="42.8615" lon="0.22489">
        <ele>2329.2</ele>
        <time>2022-02-09T10:44:27Z</time>
      </trkpt>
      <trkpt lat="42.8615" lon="0.22489">
        <ele>2329.2</ele>
        <time>2022-02-09T10:44:28Z</time>
      </trkpt>
      <trkpt lat="42.8615" lon="0.22488">
        <ele>2329.3</ele>
        <time>2022-02-09T10:44:29Z</time>
      </trkpt>
      <trkpt lat="42.8615" lon="0.22488">
        <ele>2329.3</ele>
        <time>2022-02-09T10:44:30Z</time>
      </trkpt>
      <trkpt lat="42.86151" lon="0.22487">
        <ele>2329.4</ele>
        <time>2022-02-09T10:44:31Z</time>
      </trkpt>
      <trkpt lat="42.86151" lon="0.22487">
        <ele>2329.6</ele>
        <time>2022-02-09T10:44:32Z</time>
      </trkpt>
      <trkpt lat="42.86152" lon="0.22486">
        <ele>2329.7</ele>
        <time>2022-02-09T10:44:33Z</time>
      </trkpt>
      <trkpt lat="42.86153" lon="0.22485">
        <ele>2329.8</ele>
        <time>2022-02-09T10:44:34Z</time>
      </trkpt>
      <trkpt lat="42.86153" lon="0.22485">
        <ele>2330</ele>
        <time>2022-02-09T10:44:35Z</time>
      </trkpt>
      <trkpt lat="42.86154" lon="0.22484">
        <ele>2330.1</ele>
        <time>2022-02-09T10:44:36Z</time>
      </trkpt>
      <trkpt lat="42.86154" lon="0.22483">
        <ele>2330.2</ele>
        <time>2022-02-09T10:44:37Z</time>
      </trkpt>
      <trkpt lat="42.86155" lon="0.22482">
        <ele>2330.3</ele>
        <time>2022-02-09T10:44:38Z</time>
      </trkpt>
      <trkpt lat="42.86155" lon="0.22481">
        <ele>2330.4</ele>
        <time>2022-02-09T10:44:39Z</time>
      </trkpt>
      <trkpt lat="42.86155" lon="0.22481">
        <ele>2330.4</ele>
        <time>2022-02-09T10:44:40Z</time>
      </trkpt>
      <trkpt lat="42.86156" lon="0.2248">
        <ele>2330.5</ele>
        <time>2022-02-09T10:44:41Z</time>
      </trkpt>
      <trkpt lat="42.86156" lon="0.22479">
        <ele>2330.6</ele>
        <time>2022-02-09T10:44:42Z</time>
      </trkpt>
      <trkpt lat="42.86156" lon="0.22479">
        <ele>2330.6</ele>
        <time>2022-02-09T10:44:43Z</time>
      </trkpt>
      <trkpt lat="42.86156" lon="0.22479">
        <ele>2330.7</ele>
        <time>2022-02-09T10:44:44Z</time>
      </trkpt>
      <trkpt lat="42.86156" lon="0.22478">
        <ele>2330.7</ele>
        <time>2022-02-09T10:44:45Z</time>
      </trkpt>
      <trkpt lat="42.86156" lon="0.22478">
        <ele>2330.7</ele>
        <time>2022-02-09T10:44:46Z</time>
      </trkpt>
      <trkpt lat="42.86156" lon="0.22477">
        <ele>2330.8</ele>
        <time>2022-02-09T10:44:47Z</time>
      </trkpt>
      <trkpt lat="42.86157" lon="0.22476">
        <ele>2330.9</ele>
        <time>2022-02-09T10:44:48Z</time>
      </trkpt>
      <trkpt lat="42.86157" lon="0.22475">
        <ele>2331</ele>
        <time>2022-02-09T10:44:49Z</time>
      </trkpt>
      <trkpt lat="42.86157" lon="0.22474">
        <ele>2331.1</ele>
        <time>2022-02-09T10:44:50Z</time>
      </trkpt>
      <trkpt lat="42.86158" lon="0.22472">
        <ele>2331.2</ele>
        <time>2022-02-09T10:44:51Z</time>
      </trkpt>
      <trkpt lat="42.86158" lon="0.22472">
        <ele>2331.3</ele>
        <time>2022-02-09T10:44:52Z</time>
      </trkpt>
      <trkpt lat="42.86158" lon="0.22472">
        <ele>2331.4</ele>
        <time>2022-02-09T10:44:53Z</time>
      </trkpt>
      <trkpt lat="42.86158" lon="0.22472">
        <ele>2331.4</ele>
        <time>2022-02-09T10:44:54Z</time>
      </trkpt>
      <trkpt lat="42.86158" lon="0.22471">
        <ele>2331.5</ele>
        <time>2022-02-09T10:44:55Z</time>
      </trkpt>
      <trkpt lat="42.86158" lon="0.22469">
        <ele>2331.6</ele>
        <time>2022-02-09T10:44:56Z</time>
      </trkpt>
      <trkpt lat="42.86157" lon="0.22469">
        <ele>2331.7</ele>
        <time>2022-02-09T10:44:57Z</time>
      </trkpt>
      <trkpt lat="42.86157" lon="0.22468">
        <ele>2331.8</ele>
        <time>2022-02-09T10:44:58Z</time>
      </trkpt>
      <trkpt lat="42.86156" lon="0.22466">
        <ele>2331.9</ele>
        <time>2022-02-09T10:44:59Z</time>
      </trkpt>
      <trkpt lat="42.86155" lon="0.22465">
        <ele>2332.1</ele>
        <time>2022-02-09T10:45:00Z</time>
      </trkpt>
      <trkpt lat="42.86155" lon="0.22463">
        <ele>2332.3</ele>
        <time>2022-02-09T10:45:01Z</time>
      </trkpt>
      <trkpt lat="42.86154" lon="0.22461">
        <ele>2332.4</ele>
        <time>2022-02-09T10:45:02Z</time>
      </trkpt>
      <trkpt lat="42.86153" lon="0.22459">
        <ele>2332.7</ele>
        <time>2022-02-09T10:45:03Z</time>
      </trkpt>
      <trkpt lat="42.86153" lon="0.22457">
        <ele>2332.9</ele>
        <time>2022-02-09T10:45:04Z</time>
      </trkpt>
      <trkpt lat="42.86152" lon="0.22455">
        <ele>2333.1</ele>
        <time>2022-02-09T10:45:05Z</time>
      </trkpt>
      <trkpt lat="42.86153" lon="0.22453">
        <ele>2333.3</ele>
        <time>2022-02-09T10:45:06Z</time>
      </trkpt>
      <trkpt lat="42.86153" lon="0.22451">
        <ele>2333.5</ele>
        <time>2022-02-09T10:45:07Z</time>
      </trkpt>
      <trkpt lat="42.86154" lon="0.2245">
        <ele>2333.7</ele>
        <time>2022-02-09T10:45:08Z</time>
      </trkpt>
      <trkpt lat="42.86155" lon="0.22449">
        <ele>2333.9</ele>
        <time>2022-02-09T10:45:09Z</time>
      </trkpt>
      <trkpt lat="42.86156" lon="0.22448">
        <ele>2334.1</ele>
        <time>2022-02-09T10:45:10Z</time>
      </trkpt>
      <trkpt lat="42.86157" lon="0.22447">
        <ele>2334.3</ele>
        <time>2022-02-09T10:45:11Z</time>
      </trkpt>
      <trkpt lat="42.86157" lon="0.22446">
        <ele>2334.4</ele>
        <time>2022-02-09T10:45:12Z</time>
      </trkpt>
      <trkpt lat="42.86158" lon="0.22445">
        <ele>2334.6</ele>
        <time>2022-02-09T10:45:13Z</time>
      </trkpt>
      <trkpt lat="42.86158" lon="0.22445">
        <ele>2334.7</ele>
        <time>2022-02-09T10:45:14Z</time>
      </trkpt>
      <trkpt lat="42.86159" lon="0.22444">
        <ele>2334.9</ele>
        <time>2022-02-09T10:45:15Z</time>
      </trkpt>
      <trkpt lat="42.8616" lon="0.22444">
        <ele>2335.1</ele>
        <time>2022-02-09T10:45:16Z</time>
      </trkpt>
      <trkpt lat="42.8616" lon="0.22443">
        <ele>2335.2</ele>
        <time>2022-02-09T10:45:17Z</time>
      </trkpt>
      <trkpt lat="42.86161" lon="0.22443">
        <ele>2335.4</ele>
        <time>2022-02-09T10:45:18Z</time>
      </trkpt>
      <trkpt lat="42.86162" lon="0.22442">
        <ele>2335.6</ele>
        <time>2022-02-09T10:45:19Z</time>
      </trkpt>
      <trkpt lat="42.86162" lon="0.22441">
        <ele>2335.7</ele>
        <time>2022-02-09T10:45:20Z</time>
      </trkpt>
      <trkpt lat="42.86163" lon="0.2244">
        <ele>2335.9</ele>
        <time>2022-02-09T10:45:21Z</time>
      </trkpt>
      <trkpt lat="42.86164" lon="0.22439">
        <ele>2336.1</ele>
        <time>2022-02-09T10:45:22Z</time>
      </trkpt>
      <trkpt lat="42.86164" lon="0.22439">
        <ele>2336.3</ele>
        <time>2022-02-09T10:45:23Z</time>
      </trkpt>
      <trkpt lat="42.86165" lon="0.22438">
        <ele>2336.4</ele>
        <time>2022-02-09T10:45:24Z</time>
      </trkpt>
      <trkpt lat="42.86165" lon="0.22438">
        <ele>2336.5</ele>
        <time>2022-02-09T10:45:25Z</time>
      </trkpt>
      <trkpt lat="42.86166" lon="0.22437">
        <ele>2336.7</ele>
        <time>2022-02-09T10:45:26Z</time>
      </trkpt>
      <trkpt lat="42.86166" lon="0.22436">
        <ele>2336.8</ele>
        <time>2022-02-09T10:45:27Z</time>
      </trkpt>
      <trkpt lat="42.86166" lon="0.22436">
        <ele>2336.9</ele>
        <time>2022-02-09T10:45:28Z</time>
      </trkpt>
      <trkpt lat="42.86167" lon="0.22435">
        <ele>2337.1</ele>
        <time>2022-02-09T10:45:29Z</time>
      </trkpt>
      <trkpt lat="42.86167" lon="0.22435">
        <ele>2337.2</ele>
        <time>2022-02-09T10:45:30Z</time>
      </trkpt>
      <trkpt lat="42.86168" lon="0.22434">
        <ele>2337.3</ele>
        <time>2022-02-09T10:45:31Z</time>
      </trkpt>
      <trkpt lat="42.86168" lon="0.22434">
        <ele>2337.4</ele>
        <time>2022-02-09T10:45:32Z</time>
      </trkpt>
      <trkpt lat="42.86169" lon="0.22433">
        <ele>2337.5</ele>
        <time>2022-02-09T10:45:33Z</time>
      </trkpt>
      <trkpt lat="42.8617" lon="0.22433">
        <ele>2337.6</ele>
        <time>2022-02-09T10:45:34Z</time>
      </trkpt>
      <trkpt lat="42.8617" lon="0.22432">
        <ele>2337.7</ele>
        <time>2022-02-09T10:45:35Z</time>
      </trkpt>
      <trkpt lat="42.8617" lon="0.22432">
        <ele>2337.8</ele>
        <time>2022-02-09T10:45:36Z</time>
      </trkpt>
      <trkpt lat="42.86171" lon="0.22431">
        <ele>2337.9</ele>
        <time>2022-02-09T10:45:37Z</time>
      </trkpt>
      <trkpt lat="42.86172" lon="0.2243">
        <ele>2338</ele>
        <time>2022-02-09T10:45:38Z</time>
      </trkpt>
      <trkpt lat="42.86172" lon="0.22429">
        <ele>2338.2</ele>
        <time>2022-02-09T10:45:39Z</time>
      </trkpt>
      <trkpt lat="42.86172" lon="0.22427">
        <ele>2338.3</ele>
        <time>2022-02-09T10:45:40Z</time>
      </trkpt>
      <trkpt lat="42.86172" lon="0.22427">
        <ele>2338.4</ele>
        <time>2022-02-09T10:45:41Z</time>
      </trkpt>
      <trkpt lat="42.86173" lon="0.22426">
        <ele>2338.5</ele>
        <time>2022-02-09T10:45:42Z</time>
      </trkpt>
      <trkpt lat="42.86173" lon="0.22425">
        <ele>2338.7</ele>
        <time>2022-02-09T10:45:43Z</time>
      </trkpt>
      <trkpt lat="42.86174" lon="0.22425">
        <ele>2338.8</ele>
        <time>2022-02-09T10:45:44Z</time>
      </trkpt>
      <trkpt lat="42.86174" lon="0.22424">
        <ele>2338.9</ele>
        <time>2022-02-09T10:45:45Z</time>
      </trkpt>
      <trkpt lat="42.86175" lon="0.22423">
        <ele>2339</ele>
        <time>2022-02-09T10:45:46Z</time>
      </trkpt>
      <trkpt lat="42.86175" lon="0.22422">
        <ele>2339.1</ele>
        <time>2022-02-09T10:45:47Z</time>
      </trkpt>
      <trkpt lat="42.86176" lon="0.22422">
        <ele>2339.2</ele>
        <time>2022-02-09T10:45:48Z</time>
      </trkpt>
      <trkpt lat="42.86177" lon="0.22421">
        <ele>2339.3</ele>
        <time>2022-02-09T10:45:49Z</time>
      </trkpt>
      <trkpt lat="42.86177" lon="0.2242">
        <ele>2339.4</ele>
        <time>2022-02-09T10:45:50Z</time>
      </trkpt>
      <trkpt lat="42.86178" lon="0.22419">
        <ele>2339.5</ele>
        <time>2022-02-09T10:45:51Z</time>
      </trkpt>
      <trkpt lat="42.86178" lon="0.22419">
        <ele>2339.6</ele>
        <time>2022-02-09T10:45:52Z</time>
      </trkpt>
      <trkpt lat="42.86178" lon="0.22418">
        <ele>2339.7</ele>
        <time>2022-02-09T10:45:53Z</time>
      </trkpt>
      <trkpt lat="42.86179" lon="0.22418">
        <ele>2339.8</ele>
        <time>2022-02-09T10:45:54Z</time>
      </trkpt>
      <trkpt lat="42.86179" lon="0.22418">
        <ele>2339.9</ele>
        <time>2022-02-09T10:45:55Z</time>
      </trkpt>
      <trkpt lat="42.8618" lon="0.22417">
        <ele>2340</ele>
        <time>2022-02-09T10:45:56Z</time>
      </trkpt>
      <trkpt lat="42.8618" lon="0.22417">
        <ele>2340.1</ele>
        <time>2022-02-09T10:45:57Z</time>
      </trkpt>
      <trkpt lat="42.86181" lon="0.22416">
        <ele>2340.2</ele>
        <time>2022-02-09T10:45:58Z</time>
      </trkpt>
      <trkpt lat="42.86181" lon="0.22416">
        <ele>2340.2</ele>
        <time>2022-02-09T10:45:59Z</time>
      </trkpt>
      <trkpt lat="42.86181" lon="0.22415">
        <ele>2340.3</ele>
        <time>2022-02-09T10:46:00Z</time>
      </trkpt>
      <trkpt lat="42.86181" lon="0.22415">
        <ele>2340.4</ele>
        <time>2022-02-09T10:46:01Z</time>
      </trkpt>
      <trkpt lat="42.86182" lon="0.22414">
        <ele>2340.5</ele>
        <time>2022-02-09T10:46:02Z</time>
      </trkpt>
      <trkpt lat="42.86182" lon="0.22413">
        <ele>2340.6</ele>
        <time>2022-02-09T10:46:03Z</time>
      </trkpt>
      <trkpt lat="42.86182" lon="0.22413">
        <ele>2340.7</ele>
        <time>2022-02-09T10:46:04Z</time>
      </trkpt>
      <trkpt lat="42.86182" lon="0.22412">
        <ele>2340.9</ele>
        <time>2022-02-09T10:46:05Z</time>
      </trkpt>
      <trkpt lat="42.86182" lon="0.22411">
        <ele>2341</ele>
        <time>2022-02-09T10:46:06Z</time>
      </trkpt>
      <trkpt lat="42.86183" lon="0.22411">
        <ele>2341</ele>
        <time>2022-02-09T10:46:07Z</time>
      </trkpt>
      <trkpt lat="42.86183" lon="0.22411">
        <ele>2341.1</ele>
        <time>2022-02-09T10:46:08Z</time>
      </trkpt>
      <trkpt lat="42.86183" lon="0.2241">
        <ele>2341.2</ele>
        <time>2022-02-09T10:46:09Z</time>
      </trkpt>
      <trkpt lat="42.86183" lon="0.2241">
        <ele>2341.2</ele>
        <time>2022-02-09T10:46:10Z</time>
      </trkpt>
      <trkpt lat="42.86183" lon="0.2241">
        <ele>2341.2</ele>
        <time>2022-02-09T10:46:11Z</time>
      </trkpt>
      <trkpt lat="42.86183" lon="0.22409">
        <ele>2341.3</ele>
        <time>2022-02-09T10:46:12Z</time>
      </trkpt>
      <trkpt lat="42.86183" lon="0.22408">
        <ele>2341.5</ele>
        <time>2022-02-09T10:46:13Z</time>
      </trkpt>
      <trkpt lat="42.86183" lon="0.22408">
        <ele>2341.5</ele>
        <time>2022-02-09T10:46:14Z</time>
      </trkpt>
      <trkpt lat="42.86183" lon="0.22407">
        <ele>2341.7</ele>
        <time>2022-02-09T10:46:15Z</time>
      </trkpt>
      <trkpt lat="42.86184" lon="0.22407">
        <ele>2341.8</ele>
        <time>2022-02-09T10:46:16Z</time>
      </trkpt>
      <trkpt lat="42.86184" lon="0.22406">
        <ele>2341.9</ele>
        <time>2022-02-09T10:46:17Z</time>
      </trkpt>
      <trkpt lat="42.86184" lon="0.22405">
        <ele>2342</ele>
        <time>2022-02-09T10:46:18Z</time>
      </trkpt>
      <trkpt lat="42.86185" lon="0.22405">
        <ele>2342.2</ele>
        <time>2022-02-09T10:46:19Z</time>
      </trkpt>
      <trkpt lat="42.86185" lon="0.22404">
        <ele>2342.3</ele>
        <time>2022-02-09T10:46:20Z</time>
      </trkpt>
      <trkpt lat="42.86185" lon="0.22404">
        <ele>2342.4</ele>
        <time>2022-02-09T10:46:21Z</time>
      </trkpt>
      <trkpt lat="42.86186" lon="0.22403">
        <ele>2342.6</ele>
        <time>2022-02-09T10:46:22Z</time>
      </trkpt>
      <trkpt lat="42.86186" lon="0.22402">
        <ele>2342.7</ele>
        <time>2022-02-09T10:46:23Z</time>
      </trkpt>
      <trkpt lat="42.86186" lon="0.22401">
        <ele>2342.9</ele>
        <time>2022-02-09T10:46:24Z</time>
      </trkpt>
      <trkpt lat="42.86187" lon="0.224">
        <ele>2343.1</ele>
        <time>2022-02-09T10:46:25Z</time>
      </trkpt>
      <trkpt lat="42.86187" lon="0.224">
        <ele>2343.2</ele>
        <time>2022-02-09T10:46:26Z</time>
      </trkpt>
      <trkpt lat="42.86187" lon="0.22399">
        <ele>2343.3</ele>
        <time>2022-02-09T10:46:27Z</time>
      </trkpt>
      <trkpt lat="42.86188" lon="0.22399">
        <ele>2343.4</ele>
        <time>2022-02-09T10:46:28Z</time>
      </trkpt>
      <trkpt lat="42.86188" lon="0.22399">
        <ele>2343.6</ele>
        <time>2022-02-09T10:46:29Z</time>
      </trkpt>
      <trkpt lat="42.86189" lon="0.22399">
        <ele>2343.6</ele>
        <time>2022-02-09T10:46:30Z</time>
      </trkpt>
      <trkpt lat="42.86189" lon="0.22398">
        <ele>2343.7</ele>
        <time>2022-02-09T10:46:31Z</time>
      </trkpt>
      <trkpt lat="42.86189" lon="0.22398">
        <ele>2343.8</ele>
        <time>2022-02-09T10:46:32Z</time>
      </trkpt>
      <trkpt lat="42.86189" lon="0.22397">
        <ele>2343.9</ele>
        <time>2022-02-09T10:46:33Z</time>
      </trkpt>
      <trkpt lat="42.8619" lon="0.22397">
        <ele>2344.1</ele>
        <time>2022-02-09T10:46:34Z</time>
      </trkpt>
      <trkpt lat="42.8619" lon="0.22396">
        <ele>2344.2</ele>
        <time>2022-02-09T10:46:35Z</time>
      </trkpt>
      <trkpt lat="42.86191" lon="0.22395">
        <ele>2344.4</ele>
        <time>2022-02-09T10:46:36Z</time>
      </trkpt>
      <trkpt lat="42.86191" lon="0.22395">
        <ele>2344.5</ele>
        <time>2022-02-09T10:46:37Z</time>
      </trkpt>
      <trkpt lat="42.86191" lon="0.22394">
        <ele>2344.6</ele>
        <time>2022-02-09T10:46:38Z</time>
      </trkpt>
      <trkpt lat="42.86191" lon="0.22394">
        <ele>2344.7</ele>
        <time>2022-02-09T10:46:39Z</time>
      </trkpt>
      <trkpt lat="42.86191" lon="0.22393">
        <ele>2344.7</ele>
        <time>2022-02-09T10:46:40Z</time>
      </trkpt>
      <trkpt lat="42.86192" lon="0.22393">
        <ele>2344.8</ele>
        <time>2022-02-09T10:46:41Z</time>
      </trkpt>
      <trkpt lat="42.86192" lon="0.22393">
        <ele>2344.8</ele>
        <time>2022-02-09T10:46:42Z</time>
      </trkpt>
      <trkpt lat="42.86192" lon="0.22393">
        <ele>2344.8</ele>
        <time>2022-02-09T10:46:43Z</time>
      </trkpt>
      <trkpt lat="42.86192" lon="0.22393">
        <ele>2344.8</ele>
        <time>2022-02-09T10:46:44Z</time>
      </trkpt>
      <trkpt lat="42.86192" lon="0.22393">
        <ele>2344.8</ele>
        <time>2022-02-09T10:46:45Z</time>
      </trkpt>
      <trkpt lat="42.86192" lon="0.22393">
        <ele>2344.9</ele>
        <time>2022-02-09T10:46:46Z</time>
      </trkpt>
      <trkpt lat="42.86193" lon="0.22393">
        <ele>2345</ele>
        <time>2022-02-09T10:46:47Z</time>
      </trkpt>
      <trkpt lat="42.86193" lon="0.22392">
        <ele>2345.1</ele>
        <time>2022-02-09T10:46:48Z</time>
      </trkpt>
      <trkpt lat="42.86193" lon="0.22392">
        <ele>2345.2</ele>
        <time>2022-02-09T10:46:49Z</time>
      </trkpt>
      <trkpt lat="42.86194" lon="0.22392">
        <ele>2345.3</ele>
        <time>2022-02-09T10:46:50Z</time>
      </trkpt>
      <trkpt lat="42.86194" lon="0.22392">
        <ele>2345.4</ele>
        <time>2022-02-09T10:46:51Z</time>
      </trkpt>
      <trkpt lat="42.86194" lon="0.22391">
        <ele>2345.5</ele>
        <time>2022-02-09T10:46:52Z</time>
      </trkpt>
      <trkpt lat="42.86195" lon="0.22391">
        <ele>2345.6</ele>
        <time>2022-02-09T10:46:53Z</time>
      </trkpt>
      <trkpt lat="42.86195" lon="0.2239">
        <ele>2345.7</ele>
        <time>2022-02-09T10:46:54Z</time>
      </trkpt>
      <trkpt lat="42.86196" lon="0.22389">
        <ele>2345.8</ele>
        <time>2022-02-09T10:46:55Z</time>
      </trkpt>
      <trkpt lat="42.86196" lon="0.22389">
        <ele>2345.9</ele>
        <time>2022-02-09T10:46:56Z</time>
      </trkpt>
      <trkpt lat="42.86197" lon="0.22389">
        <ele>2346</ele>
        <time>2022-02-09T10:46:57Z</time>
      </trkpt>
      <trkpt lat="42.86197" lon="0.22388">
        <ele>2346.1</ele>
        <time>2022-02-09T10:46:58Z</time>
      </trkpt>
      <trkpt lat="42.86197" lon="0.22388">
        <ele>2346.2</ele>
        <time>2022-02-09T10:46:59Z</time>
      </trkpt>
      <trkpt lat="42.86198" lon="0.22387">
        <ele>2346.3</ele>
        <time>2022-02-09T10:47:00Z</time>
      </trkpt>
      <trkpt lat="42.86198" lon="0.22387">
        <ele>2346.4</ele>
        <time>2022-02-09T10:47:01Z</time>
      </trkpt>
      <trkpt lat="42.86199" lon="0.22387">
        <ele>2346.5</ele>
        <time>2022-02-09T10:47:02Z</time>
      </trkpt>
      <trkpt lat="42.86199" lon="0.22386">
        <ele>2346.6</ele>
        <time>2022-02-09T10:47:03Z</time>
      </trkpt>
      <trkpt lat="42.862" lon="0.22386">
        <ele>2346.7</ele>
        <time>2022-02-09T10:47:04Z</time>
      </trkpt>
      <trkpt lat="42.862" lon="0.22385">
        <ele>2346.8</ele>
        <time>2022-02-09T10:47:05Z</time>
      </trkpt>
      <trkpt lat="42.86201" lon="0.22385">
        <ele>2347</ele>
        <time>2022-02-09T10:47:06Z</time>
      </trkpt>
      <trkpt lat="42.86201" lon="0.22384">
        <ele>2347.1</ele>
        <time>2022-02-09T10:47:07Z</time>
      </trkpt>
      <trkpt lat="42.86201" lon="0.22384">
        <ele>2347.2</ele>
        <time>2022-02-09T10:47:08Z</time>
      </trkpt>
      <trkpt lat="42.86202" lon="0.22383">
        <ele>2347.3</ele>
        <time>2022-02-09T10:47:09Z</time>
      </trkpt>
      <trkpt lat="42.86202" lon="0.22382">
        <ele>2347.4</ele>
        <time>2022-02-09T10:47:10Z</time>
      </trkpt>
      <trkpt lat="42.86203" lon="0.22382">
        <ele>2347.5</ele>
        <time>2022-02-09T10:47:11Z</time>
      </trkpt>
      <trkpt lat="42.86203" lon="0.22381">
        <ele>2347.6</ele>
        <time>2022-02-09T10:47:12Z</time>
      </trkpt>
      <trkpt lat="42.86203" lon="0.2238">
        <ele>2347.8</ele>
        <time>2022-02-09T10:47:13Z</time>
      </trkpt>
      <trkpt lat="42.86204" lon="0.2238">
        <ele>2347.9</ele>
        <time>2022-02-09T10:47:14Z</time>
      </trkpt>
      <trkpt lat="42.86204" lon="0.22379">
        <ele>2348.1</ele>
        <time>2022-02-09T10:47:15Z</time>
      </trkpt>
      <trkpt lat="42.86205" lon="0.22379">
        <ele>2348.2</ele>
        <time>2022-02-09T10:47:16Z</time>
      </trkpt>
      <trkpt lat="42.86205" lon="0.22378">
        <ele>2348.3</ele>
        <time>2022-02-09T10:47:17Z</time>
      </trkpt>
      <trkpt lat="42.86205" lon="0.22378">
        <ele>2348.4</ele>
        <time>2022-02-09T10:47:18Z</time>
      </trkpt>
      <trkpt lat="42.86206" lon="0.22377">
        <ele>2348.6</ele>
        <time>2022-02-09T10:47:19Z</time>
      </trkpt>
      <trkpt lat="42.86206" lon="0.22377">
        <ele>2348.7</ele>
        <time>2022-02-09T10:47:20Z</time>
      </trkpt>
      <trkpt lat="42.86207" lon="0.22376">
        <ele>2348.8</ele>
        <time>2022-02-09T10:47:21Z</time>
      </trkpt>
      <trkpt lat="42.86207" lon="0.22375">
        <ele>2349</ele>
        <time>2022-02-09T10:47:22Z</time>
      </trkpt>
      <trkpt lat="42.86208" lon="0.22374">
        <ele>2349.2</ele>
        <time>2022-02-09T10:47:23Z</time>
      </trkpt>
      <trkpt lat="42.86208" lon="0.22374">
        <ele>2349.4</ele>
        <time>2022-02-09T10:47:24Z</time>
      </trkpt>
      <trkpt lat="42.86209" lon="0.22373">
        <ele>2349.5</ele>
        <time>2022-02-09T10:47:25Z</time>
      </trkpt>
      <trkpt lat="42.86209" lon="0.22373">
        <ele>2349.6</ele>
        <time>2022-02-09T10:47:26Z</time>
      </trkpt>
      <trkpt lat="42.86209" lon="0.22372">
        <ele>2349.7</ele>
        <time>2022-02-09T10:47:27Z</time>
      </trkpt>
      <trkpt lat="42.8621" lon="0.22372">
        <ele>2349.9</ele>
        <time>2022-02-09T10:47:28Z</time>
      </trkpt>
      <trkpt lat="42.86211" lon="0.22371">
        <ele>2350.1</ele>
        <time>2022-02-09T10:47:29Z</time>
      </trkpt>
      <trkpt lat="42.86211" lon="0.2237">
        <ele>2350.3</ele>
        <time>2022-02-09T10:47:30Z</time>
      </trkpt>
      <trkpt lat="42.86212" lon="0.2237">
        <ele>2350.4</ele>
        <time>2022-02-09T10:47:31Z</time>
      </trkpt>
      <trkpt lat="42.86212" lon="0.2237">
        <ele>2350.5</ele>
        <time>2022-02-09T10:47:32Z</time>
      </trkpt>
      <trkpt lat="42.86213" lon="0.22369">
        <ele>2350.7</ele>
        <time>2022-02-09T10:47:33Z</time>
      </trkpt>
      <trkpt lat="42.86213" lon="0.22368">
        <ele>2350.9</ele>
        <time>2022-02-09T10:47:34Z</time>
      </trkpt>
      <trkpt lat="42.86214" lon="0.22368">
        <ele>2351</ele>
        <time>2022-02-09T10:47:35Z</time>
      </trkpt>
      <trkpt lat="42.86214" lon="0.22367">
        <ele>2351.2</ele>
        <time>2022-02-09T10:47:36Z</time>
      </trkpt>
      <trkpt lat="42.86215" lon="0.22367">
        <ele>2351.4</ele>
        <time>2022-02-09T10:47:37Z</time>
      </trkpt>
      <trkpt lat="42.86215" lon="0.22366">
        <ele>2351.6</ele>
        <time>2022-02-09T10:47:38Z</time>
      </trkpt>
      <trkpt lat="42.86216" lon="0.22365">
        <ele>2351.8</ele>
        <time>2022-02-09T10:47:39Z</time>
      </trkpt>
      <trkpt lat="42.86216" lon="0.22364">
        <ele>2351.9</ele>
        <time>2022-02-09T10:47:40Z</time>
      </trkpt>
      <trkpt lat="42.86217" lon="0.22363">
        <ele>2352</ele>
        <time>2022-02-09T10:47:41Z</time>
      </trkpt>
      <trkpt lat="42.86217" lon="0.22363">
        <ele>2352.2</ele>
        <time>2022-02-09T10:47:42Z</time>
      </trkpt>
      <trkpt lat="42.86218" lon="0.22362">
        <ele>2352.3</ele>
        <time>2022-02-09T10:47:43Z</time>
      </trkpt>
      <trkpt lat="42.86218" lon="0.22361">
        <ele>2352.5</ele>
        <time>2022-02-09T10:47:44Z</time>
      </trkpt>
      <trkpt lat="42.86218" lon="0.22361">
        <ele>2352.6</ele>
        <time>2022-02-09T10:47:45Z</time>
      </trkpt>
      <trkpt lat="42.86219" lon="0.2236">
        <ele>2352.7</ele>
        <time>2022-02-09T10:47:46Z</time>
      </trkpt>
      <trkpt lat="42.8622" lon="0.2236">
        <ele>2352.8</ele>
        <time>2022-02-09T10:47:47Z</time>
      </trkpt>
      <trkpt lat="42.8622" lon="0.22359">
        <ele>2353</ele>
        <time>2022-02-09T10:47:48Z</time>
      </trkpt>
      <trkpt lat="42.86221" lon="0.22358">
        <ele>2353.1</ele>
        <time>2022-02-09T10:47:49Z</time>
      </trkpt>
      <trkpt lat="42.86222" lon="0.22358">
        <ele>2353.2</ele>
        <time>2022-02-09T10:47:50Z</time>
      </trkpt>
      <trkpt lat="42.86222" lon="0.22357">
        <ele>2353.3</ele>
        <time>2022-02-09T10:47:51Z</time>
      </trkpt>
      <trkpt lat="42.86222" lon="0.22357">
        <ele>2353.4</ele>
        <time>2022-02-09T10:47:52Z</time>
      </trkpt>
      <trkpt lat="42.86223" lon="0.22356">
        <ele>2353.5</ele>
        <time>2022-02-09T10:47:53Z</time>
      </trkpt>
      <trkpt lat="42.86223" lon="0.22356">
        <ele>2353.6</ele>
        <time>2022-02-09T10:47:54Z</time>
      </trkpt>
      <trkpt lat="42.86224" lon="0.22355">
        <ele>2353.7</ele>
        <time>2022-02-09T10:47:55Z</time>
      </trkpt>
      <trkpt lat="42.86224" lon="0.22355">
        <ele>2353.8</ele>
        <time>2022-02-09T10:47:56Z</time>
      </trkpt>
      <trkpt lat="42.86225" lon="0.22354">
        <ele>2353.9</ele>
        <time>2022-02-09T10:47:57Z</time>
      </trkpt>
      <trkpt lat="42.86225" lon="0.22354">
        <ele>2354</ele>
        <time>2022-02-09T10:47:58Z</time>
      </trkpt>
      <trkpt lat="42.86226" lon="0.22353">
        <ele>2354.1</ele>
        <time>2022-02-09T10:47:59Z</time>
      </trkpt>
      <trkpt lat="42.86226" lon="0.22353">
        <ele>2354.2</ele>
        <time>2022-02-09T10:48:00Z</time>
      </trkpt>
      <trkpt lat="42.86227" lon="0.22352">
        <ele>2354.3</ele>
        <time>2022-02-09T10:48:01Z</time>
      </trkpt>
      <trkpt lat="42.86227" lon="0.22352">
        <ele>2354.4</ele>
        <time>2022-02-09T10:48:02Z</time>
      </trkpt>
      <trkpt lat="42.86228" lon="0.22351">
        <ele>2354.5</ele>
        <time>2022-02-09T10:48:03Z</time>
      </trkpt>
      <trkpt lat="42.86229" lon="0.22351">
        <ele>2354.6</ele>
        <time>2022-02-09T10:48:04Z</time>
      </trkpt>
      <trkpt lat="42.86229" lon="0.2235">
        <ele>2354.7</ele>
        <time>2022-02-09T10:48:05Z</time>
      </trkpt>
      <trkpt lat="42.8623" lon="0.22349">
        <ele>2354.8</ele>
        <time>2022-02-09T10:48:06Z</time>
      </trkpt>
      <trkpt lat="42.8623" lon="0.22349">
        <ele>2355</ele>
        <time>2022-02-09T10:48:07Z</time>
      </trkpt>
      <trkpt lat="42.86231" lon="0.22348">
        <ele>2355.1</ele>
        <time>2022-02-09T10:48:08Z</time>
      </trkpt>
      <trkpt lat="42.86231" lon="0.22348">
        <ele>2355.2</ele>
        <time>2022-02-09T10:48:09Z</time>
      </trkpt>
      <trkpt lat="42.86232" lon="0.22347">
        <ele>2355.3</ele>
        <time>2022-02-09T10:48:10Z</time>
      </trkpt>
      <trkpt lat="42.86232" lon="0.22347">
        <ele>2355.4</ele>
        <time>2022-02-09T10:48:11Z</time>
      </trkpt>
      <trkpt lat="42.86233" lon="0.22347">
        <ele>2355.6</ele>
        <time>2022-02-09T10:48:12Z</time>
      </trkpt>
      <trkpt lat="42.86234" lon="0.22346">
        <ele>2355.7</ele>
        <time>2022-02-09T10:48:13Z</time>
      </trkpt>
      <trkpt lat="42.86234" lon="0.22346">
        <ele>2355.8</ele>
        <time>2022-02-09T10:48:14Z</time>
      </trkpt>
      <trkpt lat="42.86235" lon="0.22345">
        <ele>2356.1</ele>
        <time>2022-02-09T10:48:15Z</time>
      </trkpt>
      <trkpt lat="42.86236" lon="0.22345">
        <ele>2356.3</ele>
        <time>2022-02-09T10:48:16Z</time>
      </trkpt>
      <trkpt lat="42.86237" lon="0.22344">
        <ele>2356.4</ele>
        <time>2022-02-09T10:48:17Z</time>
      </trkpt>
      <trkpt lat="42.86237" lon="0.22344">
        <ele>2356.6</ele>
        <time>2022-02-09T10:48:18Z</time>
      </trkpt>
      <trkpt lat="42.86238" lon="0.22343">
        <ele>2356.7</ele>
        <time>2022-02-09T10:48:19Z</time>
      </trkpt>
      <trkpt lat="42.86238" lon="0.22343">
        <ele>2356.9</ele>
        <time>2022-02-09T10:48:20Z</time>
      </trkpt>
      <trkpt lat="42.86239" lon="0.22342">
        <ele>2357.1</ele>
        <time>2022-02-09T10:48:21Z</time>
      </trkpt>
      <trkpt lat="42.8624" lon="0.22342">
        <ele>2357.3</ele>
        <time>2022-02-09T10:48:22Z</time>
      </trkpt>
      <trkpt lat="42.8624" lon="0.22342">
        <ele>2357.4</ele>
        <time>2022-02-09T10:48:23Z</time>
      </trkpt>
      <trkpt lat="42.86241" lon="0.22342">
        <ele>2357.6</ele>
        <time>2022-02-09T10:48:24Z</time>
      </trkpt>
      <trkpt lat="42.86241" lon="0.22341">
        <ele>2357.7</ele>
        <time>2022-02-09T10:48:25Z</time>
      </trkpt>
      <trkpt lat="42.86242" lon="0.22341">
        <ele>2357.8</ele>
        <time>2022-02-09T10:48:26Z</time>
      </trkpt>
      <trkpt lat="42.86242" lon="0.2234">
        <ele>2358</ele>
        <time>2022-02-09T10:48:27Z</time>
      </trkpt>
      <trkpt lat="42.86241" lon="0.2234">
        <ele>2358.1</ele>
        <time>2022-02-09T10:48:28Z</time>
      </trkpt>
      <trkpt lat="42.86241" lon="0.22339">
        <ele>2358.3</ele>
        <time>2022-02-09T10:48:29Z</time>
      </trkpt>
      <trkpt lat="42.8624" lon="0.22338">
        <ele>2358.6</ele>
        <time>2022-02-09T10:48:30Z</time>
      </trkpt>
      <trkpt lat="42.86239" lon="0.22336">
        <ele>2359</ele>
        <time>2022-02-09T10:48:31Z</time>
      </trkpt>
      <trkpt lat="42.86238" lon="0.22335">
        <ele>2359.3</ele>
        <time>2022-02-09T10:48:32Z</time>
      </trkpt>
      <trkpt lat="42.86238" lon="0.22334">
        <ele>2359.5</ele>
        <time>2022-02-09T10:48:33Z</time>
      </trkpt>
      <trkpt lat="42.86237" lon="0.22333">
        <ele>2359.7</ele>
        <time>2022-02-09T10:48:34Z</time>
      </trkpt>
      <trkpt lat="42.86236" lon="0.22333">
        <ele>2359.9</ele>
        <time>2022-02-09T10:48:35Z</time>
      </trkpt>
      <trkpt lat="42.86236" lon="0.22332">
        <ele>2360.1</ele>
        <time>2022-02-09T10:48:36Z</time>
      </trkpt>
      <trkpt lat="42.86235" lon="0.22332">
        <ele>2360.3</ele>
        <time>2022-02-09T10:48:37Z</time>
      </trkpt>
      <trkpt lat="42.86235" lon="0.22332">
        <ele>2360.4</ele>
        <time>2022-02-09T10:48:38Z</time>
      </trkpt>
      <trkpt lat="42.86234" lon="0.22332">
        <ele>2360.5</ele>
        <time>2022-02-09T10:48:39Z</time>
      </trkpt>
      <trkpt lat="42.86233" lon="0.22332">
        <ele>2360.7</ele>
        <time>2022-02-09T10:48:40Z</time>
      </trkpt>
      <trkpt lat="42.86233" lon="0.22331">
        <ele>2360.9</ele>
        <time>2022-02-09T10:48:41Z</time>
      </trkpt>
      <trkpt lat="42.86232" lon="0.2233">
        <ele>2361.1</ele>
        <time>2022-02-09T10:48:42Z</time>
      </trkpt>
      <trkpt lat="42.86232" lon="0.2233">
        <ele>2361.3</ele>
        <time>2022-02-09T10:48:43Z</time>
      </trkpt>
      <trkpt lat="42.86232" lon="0.22329">
        <ele>2361.4</ele>
        <time>2022-02-09T10:48:44Z</time>
      </trkpt>
      <trkpt lat="42.86231" lon="0.22328">
        <ele>2361.6</ele>
        <time>2022-02-09T10:48:45Z</time>
      </trkpt>
      <trkpt lat="42.86231" lon="0.22328">
        <ele>2361.7</ele>
        <time>2022-02-09T10:48:46Z</time>
      </trkpt>
      <trkpt lat="42.8623" lon="0.22327">
        <ele>2361.9</ele>
        <time>2022-02-09T10:48:47Z</time>
      </trkpt>
      <trkpt lat="42.8623" lon="0.22326">
        <ele>2362.2</ele>
        <time>2022-02-09T10:48:48Z</time>
      </trkpt>
      <trkpt lat="42.86229" lon="0.22326">
        <ele>2362.3</ele>
        <time>2022-02-09T10:48:49Z</time>
      </trkpt>
      <trkpt lat="42.86229" lon="0.22325">
        <ele>2362.4</ele>
        <time>2022-02-09T10:48:50Z</time>
      </trkpt>
      <trkpt lat="42.86228" lon="0.22324">
        <ele>2362.6</ele>
        <time>2022-02-09T10:48:51Z</time>
      </trkpt>
      <trkpt lat="42.86228" lon="0.22324">
        <ele>2362.8</ele>
        <time>2022-02-09T10:48:52Z</time>
      </trkpt>
      <trkpt lat="42.86228" lon="0.22323">
        <ele>2363</ele>
        <time>2022-02-09T10:48:53Z</time>
      </trkpt>
      <trkpt lat="42.86228" lon="0.22322">
        <ele>2363.1</ele>
        <time>2022-02-09T10:48:54Z</time>
      </trkpt>
      <trkpt lat="42.86228" lon="0.22321">
        <ele>2363.3</ele>
        <time>2022-02-09T10:48:55Z</time>
      </trkpt>
      <trkpt lat="42.86228" lon="0.22321">
        <ele>2363.5</ele>
        <time>2022-02-09T10:48:56Z</time>
      </trkpt>
      <trkpt lat="42.86228" lon="0.2232">
        <ele>2363.6</ele>
        <time>2022-02-09T10:48:57Z</time>
      </trkpt>
      <trkpt lat="42.86227" lon="0.2232">
        <ele>2363.7</ele>
        <time>2022-02-09T10:48:58Z</time>
      </trkpt>
      <trkpt lat="42.86227" lon="0.22319">
        <ele>2363.8</ele>
        <time>2022-02-09T10:48:59Z</time>
      </trkpt>
      <trkpt lat="42.86227" lon="0.22318">
        <ele>2364</ele>
        <time>2022-02-09T10:49:00Z</time>
      </trkpt>
      <trkpt lat="42.86227" lon="0.22317">
        <ele>2364.2</ele>
        <time>2022-02-09T10:49:01Z</time>
      </trkpt>
      <trkpt lat="42.86227" lon="0.22317">
        <ele>2364.4</ele>
        <time>2022-02-09T10:49:02Z</time>
      </trkpt>
      <trkpt lat="42.86227" lon="0.22316">
        <ele>2364.5</ele>
        <time>2022-02-09T10:49:03Z</time>
      </trkpt>
      <trkpt lat="42.86226" lon="0.22315">
        <ele>2364.7</ele>
        <time>2022-02-09T10:49:04Z</time>
      </trkpt>
      <trkpt lat="42.86226" lon="0.22314">
        <ele>2364.9</ele>
        <time>2022-02-09T10:49:05Z</time>
      </trkpt>
      <trkpt lat="42.86226" lon="0.22314">
        <ele>2365.1</ele>
        <time>2022-02-09T10:49:06Z</time>
      </trkpt>
      <trkpt lat="42.86225" lon="0.22314">
        <ele>2365.1</ele>
        <time>2022-02-09T10:49:07Z</time>
      </trkpt>
      <trkpt lat="42.86225" lon="0.22313">
        <ele>2365.3</ele>
        <time>2022-02-09T10:49:08Z</time>
      </trkpt>
      <trkpt lat="42.86225" lon="0.22312">
        <ele>2365.5</ele>
        <time>2022-02-09T10:49:09Z</time>
      </trkpt>
      <trkpt lat="42.86225" lon="0.22312">
        <ele>2365.6</ele>
        <time>2022-02-09T10:49:10Z</time>
      </trkpt>
      <trkpt lat="42.86224" lon="0.22311">
        <ele>2365.8</ele>
        <time>2022-02-09T10:49:11Z</time>
      </trkpt>
      <trkpt lat="42.86224" lon="0.2231">
        <ele>2365.9</ele>
        <time>2022-02-09T10:49:12Z</time>
      </trkpt>
      <trkpt lat="42.86224" lon="0.2231">
        <ele>2366.1</ele>
        <time>2022-02-09T10:49:13Z</time>
      </trkpt>
      <trkpt lat="42.86223" lon="0.22309">
        <ele>2366.2</ele>
        <time>2022-02-09T10:49:14Z</time>
      </trkpt>
      <trkpt lat="42.86223" lon="0.22308">
        <ele>2366.3</ele>
        <time>2022-02-09T10:49:15Z</time>
      </trkpt>
      <trkpt lat="42.86223" lon="0.22308">
        <ele>2366.5</ele>
        <time>2022-02-09T10:49:16Z</time>
      </trkpt>
      <trkpt lat="42.86223" lon="0.22307">
        <ele>2366.6</ele>
        <time>2022-02-09T10:49:17Z</time>
      </trkpt>
      <trkpt lat="42.86222" lon="0.22307">
        <ele>2366.8</ele>
        <time>2022-02-09T10:49:18Z</time>
      </trkpt>
      <trkpt lat="42.86222" lon="0.22306">
        <ele>2366.9</ele>
        <time>2022-02-09T10:49:19Z</time>
      </trkpt>
      <trkpt lat="42.86222" lon="0.22305">
        <ele>2367.1</ele>
        <time>2022-02-09T10:49:20Z</time>
      </trkpt>
      <trkpt lat="42.86222" lon="0.22304">
        <ele>2367.3</ele>
        <time>2022-02-09T10:49:21Z</time>
      </trkpt>
      <trkpt lat="42.86222" lon="0.22302">
        <ele>2367.6</ele>
        <time>2022-02-09T10:49:22Z</time>
      </trkpt>
      <trkpt lat="42.86221" lon="0.22301">
        <ele>2367.9</ele>
        <time>2022-02-09T10:49:23Z</time>
      </trkpt>
      <trkpt lat="42.86221" lon="0.223">
        <ele>2368.2</ele>
        <time>2022-02-09T10:49:24Z</time>
      </trkpt>
      <trkpt lat="42.86221" lon="0.22299">
        <ele>2368.4</ele>
        <time>2022-02-09T10:49:25Z</time>
      </trkpt>
      <trkpt lat="42.86221" lon="0.22298">
        <ele>2368.6</ele>
        <time>2022-02-09T10:49:26Z</time>
      </trkpt>
      <trkpt lat="42.86221" lon="0.22296">
        <ele>2368.8</ele>
        <time>2022-02-09T10:49:27Z</time>
      </trkpt>
      <trkpt lat="42.86221" lon="0.22295">
        <ele>2369</ele>
        <time>2022-02-09T10:49:28Z</time>
      </trkpt>
      <trkpt lat="42.8622" lon="0.22294">
        <ele>2369.3</ele>
        <time>2022-02-09T10:49:29Z</time>
      </trkpt>
      <trkpt lat="42.8622" lon="0.22293">
        <ele>2369.6</ele>
        <time>2022-02-09T10:49:30Z</time>
      </trkpt>
      <trkpt lat="42.8622" lon="0.22291">
        <ele>2369.9</ele>
        <time>2022-02-09T10:49:31Z</time>
      </trkpt>
      <trkpt lat="42.8622" lon="0.2229">
        <ele>2370</ele>
        <time>2022-02-09T10:49:32Z</time>
      </trkpt>
      <trkpt lat="42.86221" lon="0.2229">
        <ele>2370.1</ele>
        <time>2022-02-09T10:49:33Z</time>
      </trkpt>
      <trkpt lat="42.8622" lon="0.2229">
        <ele>2370.2</ele>
        <time>2022-02-09T10:49:34Z</time>
      </trkpt>
      <trkpt lat="42.8622" lon="0.22289">
        <ele>2370.3</ele>
        <time>2022-02-09T10:49:35Z</time>
      </trkpt>
      <trkpt lat="42.8622" lon="0.22289">
        <ele>2370.4</ele>
        <time>2022-02-09T10:49:36Z</time>
      </trkpt>
      <trkpt lat="42.8622" lon="0.22289">
        <ele>2370.5</ele>
        <time>2022-02-09T10:49:37Z</time>
      </trkpt>
      <trkpt lat="42.8622" lon="0.22288">
        <ele>2370.6</ele>
        <time>2022-02-09T10:49:38Z</time>
      </trkpt>
      <trkpt lat="42.8622" lon="0.22287">
        <ele>2370.7</ele>
        <time>2022-02-09T10:49:39Z</time>
      </trkpt>
      <trkpt lat="42.8622" lon="0.22287">
        <ele>2370.8</ele>
        <time>2022-02-09T10:49:40Z</time>
      </trkpt>
      <trkpt lat="42.8622" lon="0.22286">
        <ele>2370.9</ele>
        <time>2022-02-09T10:49:41Z</time>
      </trkpt>
      <trkpt lat="42.8622" lon="0.22286">
        <ele>2371</ele>
        <time>2022-02-09T10:49:42Z</time>
      </trkpt>
      <trkpt lat="42.86221" lon="0.22286">
        <ele>2371.1</ele>
        <time>2022-02-09T10:49:43Z</time>
      </trkpt>
      <trkpt lat="42.86221" lon="0.22286">
        <ele>2371.2</ele>
        <time>2022-02-09T10:49:44Z</time>
      </trkpt>
      <trkpt lat="42.86221" lon="0.22286">
        <ele>2371.2</ele>
        <time>2022-02-09T10:49:45Z</time>
      </trkpt>
      <trkpt lat="42.86221" lon="0.22285">
        <ele>2371.3</ele>
        <time>2022-02-09T10:49:46Z</time>
      </trkpt>
      <trkpt lat="42.86221" lon="0.22284">
        <ele>2371.5</ele>
        <time>2022-02-09T10:49:47Z</time>
      </trkpt>
      <trkpt lat="42.86221" lon="0.22284">
        <ele>2371.6</ele>
        <time>2022-02-09T10:49:48Z</time>
      </trkpt>
      <trkpt lat="42.86221" lon="0.22283">
        <ele>2371.7</ele>
        <time>2022-02-09T10:49:49Z</time>
      </trkpt>
      <trkpt lat="42.86221" lon="0.22283">
        <ele>2371.9</ele>
        <time>2022-02-09T10:49:50Z</time>
      </trkpt>
      <trkpt lat="42.86221" lon="0.22282">
        <ele>2372</ele>
        <time>2022-02-09T10:49:51Z</time>
      </trkpt>
      <trkpt lat="42.86221" lon="0.22282">
        <ele>2372.1</ele>
        <time>2022-02-09T10:49:52Z</time>
      </trkpt>
      <trkpt lat="42.86221" lon="0.22281">
        <ele>2372.2</ele>
        <time>2022-02-09T10:49:53Z</time>
      </trkpt>
      <trkpt lat="42.86221" lon="0.2228">
        <ele>2372.3</ele>
        <time>2022-02-09T10:49:54Z</time>
      </trkpt>
      <trkpt lat="42.86221" lon="0.2228">
        <ele>2372.4</ele>
        <time>2022-02-09T10:49:55Z</time>
      </trkpt>
      <trkpt lat="42.86221" lon="0.22279">
        <ele>2372.5</ele>
        <time>2022-02-09T10:49:56Z</time>
      </trkpt>
      <trkpt lat="42.86221" lon="0.22279">
        <ele>2372.6</ele>
        <time>2022-02-09T10:49:57Z</time>
      </trkpt>
      <trkpt lat="42.86221" lon="0.22278">
        <ele>2372.7</ele>
        <time>2022-02-09T10:49:58Z</time>
      </trkpt>
      <trkpt lat="42.86222" lon="0.22278">
        <ele>2372.8</ele>
        <time>2022-02-09T10:49:59Z</time>
      </trkpt>
      <trkpt lat="42.86222" lon="0.22277">
        <ele>2372.9</ele>
        <time>2022-02-09T10:50:00Z</time>
      </trkpt>
      <trkpt lat="42.86222" lon="0.22276">
        <ele>2373</ele>
        <time>2022-02-09T10:50:01Z</time>
      </trkpt>
      <trkpt lat="42.86222" lon="0.22276">
        <ele>2373.2</ele>
        <time>2022-02-09T10:50:02Z</time>
      </trkpt>
      <trkpt lat="42.86222" lon="0.22275">
        <ele>2373.3</ele>
        <time>2022-02-09T10:50:03Z</time>
      </trkpt>
      <trkpt lat="42.86222" lon="0.22274">
        <ele>2373.5</ele>
        <time>2022-02-09T10:50:04Z</time>
      </trkpt>
      <trkpt lat="42.86222" lon="0.22273">
        <ele>2373.6</ele>
        <time>2022-02-09T10:50:05Z</time>
      </trkpt>
      <trkpt lat="42.86222" lon="0.22272">
        <ele>2373.7</ele>
        <time>2022-02-09T10:50:06Z</time>
      </trkpt>
      <trkpt lat="42.86222" lon="0.22272">
        <ele>2373.8</ele>
        <time>2022-02-09T10:50:07Z</time>
      </trkpt>
      <trkpt lat="42.86222" lon="0.22271">
        <ele>2373.9</ele>
        <time>2022-02-09T10:50:08Z</time>
      </trkpt>
      <trkpt lat="42.86222" lon="0.2227">
        <ele>2374.1</ele>
        <time>2022-02-09T10:50:09Z</time>
      </trkpt>
      <trkpt lat="42.86222" lon="0.22269">
        <ele>2374.2</ele>
        <time>2022-02-09T10:50:10Z</time>
      </trkpt>
      <trkpt lat="42.86223" lon="0.22269">
        <ele>2374.3</ele>
        <time>2022-02-09T10:50:11Z</time>
      </trkpt>
      <trkpt lat="42.86223" lon="0.22268">
        <ele>2374.4</ele>
        <time>2022-02-09T10:50:12Z</time>
      </trkpt>
      <trkpt lat="42.86223" lon="0.22267">
        <ele>2374.5</ele>
        <time>2022-02-09T10:50:13Z</time>
      </trkpt>
      <trkpt lat="42.86223" lon="0.22267">
        <ele>2374.5</ele>
        <time>2022-02-09T10:50:14Z</time>
      </trkpt>
      <trkpt lat="42.86223" lon="0.22267">
        <ele>2374.6</ele>
        <time>2022-02-09T10:50:15Z</time>
      </trkpt>
      <trkpt lat="42.86223" lon="0.22267">
        <ele>2374.7</ele>
        <time>2022-02-09T10:50:16Z</time>
      </trkpt>
      <trkpt lat="42.86224" lon="0.22267">
        <ele>2374.8</ele>
        <time>2022-02-09T10:50:17Z</time>
      </trkpt>
      <trkpt lat="42.86224" lon="0.22267">
        <ele>2374.9</ele>
        <time>2022-02-09T10:50:18Z</time>
      </trkpt>
      <trkpt lat="42.86225" lon="0.22267">
        <ele>2375</ele>
        <time>2022-02-09T10:50:19Z</time>
      </trkpt>
      <trkpt lat="42.86225" lon="0.22268">
        <ele>2375.1</ele>
        <time>2022-02-09T10:50:20Z</time>
      </trkpt>
      <trkpt lat="42.86226" lon="0.22268">
        <ele>2375.2</ele>
        <time>2022-02-09T10:50:21Z</time>
      </trkpt>
      <trkpt lat="42.86226" lon="0.22268">
        <ele>2375.4</ele>
        <time>2022-02-09T10:50:22Z</time>
      </trkpt>
      <trkpt lat="42.86227" lon="0.22268">
        <ele>2375.5</ele>
        <time>2022-02-09T10:50:23Z</time>
      </trkpt>
      <trkpt lat="42.86228" lon="0.22269">
        <ele>2375.7</ele>
        <time>2022-02-09T10:50:24Z</time>
      </trkpt>
      <trkpt lat="42.86228" lon="0.22269">
        <ele>2375.8</ele>
        <time>2022-02-09T10:50:25Z</time>
      </trkpt>
      <trkpt lat="42.86229" lon="0.2227">
        <ele>2376</ele>
        <time>2022-02-09T10:50:26Z</time>
      </trkpt>
      <trkpt lat="42.8623" lon="0.2227">
        <ele>2376.2</ele>
        <time>2022-02-09T10:50:27Z</time>
      </trkpt>
      <trkpt lat="42.8623" lon="0.2227">
        <ele>2376.4</ele>
        <time>2022-02-09T10:50:28Z</time>
      </trkpt>
      <trkpt lat="42.86231" lon="0.22271">
        <ele>2376.6</ele>
        <time>2022-02-09T10:50:29Z</time>
      </trkpt>
      <trkpt lat="42.86232" lon="0.22271">
        <ele>2376.7</ele>
        <time>2022-02-09T10:50:30Z</time>
      </trkpt>
      <trkpt lat="42.86232" lon="0.22272">
        <ele>2376.9</ele>
        <time>2022-02-09T10:50:31Z</time>
      </trkpt>
      <trkpt lat="42.86233" lon="0.22272">
        <ele>2377.2</ele>
        <time>2022-02-09T10:50:32Z</time>
      </trkpt>
      <trkpt lat="42.86234" lon="0.22273">
        <ele>2377.4</ele>
        <time>2022-02-09T10:50:33Z</time>
      </trkpt>
      <trkpt lat="42.86234" lon="0.22273">
        <ele>2377.5</ele>
        <time>2022-02-09T10:50:34Z</time>
      </trkpt>
      <trkpt lat="42.86235" lon="0.22273">
        <ele>2377.7</ele>
        <time>2022-02-09T10:50:35Z</time>
      </trkpt>
      <trkpt lat="42.86235" lon="0.22273">
        <ele>2377.8</ele>
        <time>2022-02-09T10:50:36Z</time>
      </trkpt>
      <trkpt lat="42.86236" lon="0.22274">
        <ele>2378.1</ele>
        <time>2022-02-09T10:50:37Z</time>
      </trkpt>
      <trkpt lat="42.86237" lon="0.22274">
        <ele>2378.3</ele>
        <time>2022-02-09T10:50:38Z</time>
      </trkpt>
      <trkpt lat="42.86238" lon="0.22275">
        <ele>2378.4</ele>
        <time>2022-02-09T10:50:39Z</time>
      </trkpt>
      <trkpt lat="42.86238" lon="0.22275">
        <ele>2378.6</ele>
        <time>2022-02-09T10:50:40Z</time>
      </trkpt>
      <trkpt lat="42.86239" lon="0.22275">
        <ele>2378.7</ele>
        <time>2022-02-09T10:50:41Z</time>
      </trkpt>
      <trkpt lat="42.86239" lon="0.22275">
        <ele>2378.9</ele>
        <time>2022-02-09T10:50:42Z</time>
      </trkpt>
      <trkpt lat="42.8624" lon="0.22275">
        <ele>2379</ele>
        <time>2022-02-09T10:50:43Z</time>
      </trkpt>
      <trkpt lat="42.8624" lon="0.22275">
        <ele>2379.1</ele>
        <time>2022-02-09T10:50:44Z</time>
      </trkpt>
      <trkpt lat="42.86241" lon="0.22275">
        <ele>2379.3</ele>
        <time>2022-02-09T10:50:45Z</time>
      </trkpt>
      <trkpt lat="42.86241" lon="0.22274">
        <ele>2379.4</ele>
        <time>2022-02-09T10:50:46Z</time>
      </trkpt>
      <trkpt lat="42.86242" lon="0.22274">
        <ele>2379.5</ele>
        <time>2022-02-09T10:50:47Z</time>
      </trkpt>
      <trkpt lat="42.86243" lon="0.22274">
        <ele>2379.7</ele>
        <time>2022-02-09T10:50:48Z</time>
      </trkpt>
      <trkpt lat="42.86243" lon="0.22274">
        <ele>2379.8</ele>
        <time>2022-02-09T10:50:49Z</time>
      </trkpt>
      <trkpt lat="42.86244" lon="0.22275">
        <ele>2379.9</ele>
        <time>2022-02-09T10:50:50Z</time>
      </trkpt>
      <trkpt lat="42.86244" lon="0.22275">
        <ele>2380</ele>
        <time>2022-02-09T10:50:51Z</time>
      </trkpt>
      <trkpt lat="42.86245" lon="0.22274">
        <ele>2380.2</ele>
        <time>2022-02-09T10:50:52Z</time>
      </trkpt>
      <trkpt lat="42.86245" lon="0.22274">
        <ele>2380.3</ele>
        <time>2022-02-09T10:50:53Z</time>
      </trkpt>
      <trkpt lat="42.86245" lon="0.22273">
        <ele>2380.4</ele>
        <time>2022-02-09T10:50:54Z</time>
      </trkpt>
      <trkpt lat="42.86245" lon="0.22272">
        <ele>2380.5</ele>
        <time>2022-02-09T10:50:55Z</time>
      </trkpt>
      <trkpt lat="42.86245" lon="0.22271">
        <ele>2380.7</ele>
        <time>2022-02-09T10:50:56Z</time>
      </trkpt>
      <trkpt lat="42.86246" lon="0.22271">
        <ele>2380.8</ele>
        <time>2022-02-09T10:50:57Z</time>
      </trkpt>
      <trkpt lat="42.86246" lon="0.2227">
        <ele>2380.9</ele>
        <time>2022-02-09T10:50:58Z</time>
      </trkpt>
      <trkpt lat="42.86246" lon="0.22269">
        <ele>2381.1</ele>
        <time>2022-02-09T10:50:59Z</time>
      </trkpt>
      <trkpt lat="42.86246" lon="0.22268">
        <ele>2381.2</ele>
        <time>2022-02-09T10:51:00Z</time>
      </trkpt>
      <trkpt lat="42.86246" lon="0.22267">
        <ele>2381.3</ele>
        <time>2022-02-09T10:51:01Z</time>
      </trkpt>
      <trkpt lat="42.86246" lon="0.22266">
        <ele>2381.4</ele>
        <time>2022-02-09T10:51:02Z</time>
      </trkpt>
      <trkpt lat="42.86246" lon="0.22265">
        <ele>2381.6</ele>
        <time>2022-02-09T10:51:03Z</time>
      </trkpt>
      <trkpt lat="42.86246" lon="0.22265">
        <ele>2381.7</ele>
        <time>2022-02-09T10:51:04Z</time>
      </trkpt>
      <trkpt lat="42.86246" lon="0.22264">
        <ele>2381.8</ele>
        <time>2022-02-09T10:51:05Z</time>
      </trkpt>
      <trkpt lat="42.86246" lon="0.22263">
        <ele>2381.9</ele>
        <time>2022-02-09T10:51:06Z</time>
      </trkpt>
      <trkpt lat="42.86246" lon="0.22262">
        <ele>2382.1</ele>
        <time>2022-02-09T10:51:07Z</time>
      </trkpt>
      <trkpt lat="42.86246" lon="0.22261">
        <ele>2382.2</ele>
        <time>2022-02-09T10:51:08Z</time>
      </trkpt>
      <trkpt lat="42.86246" lon="0.2226">
        <ele>2382.3</ele>
        <time>2022-02-09T10:51:09Z</time>
      </trkpt>
      <trkpt lat="42.86247" lon="0.2226">
        <ele>2382.4</ele>
        <time>2022-02-09T10:51:10Z</time>
      </trkpt>
      <trkpt lat="42.86247" lon="0.22259">
        <ele>2382.6</ele>
        <time>2022-02-09T10:51:11Z</time>
      </trkpt>
      <trkpt lat="42.86247" lon="0.22258">
        <ele>2382.7</ele>
        <time>2022-02-09T10:51:12Z</time>
      </trkpt>
      <trkpt lat="42.86247" lon="0.22257">
        <ele>2382.8</ele>
        <time>2022-02-09T10:51:13Z</time>
      </trkpt>
      <trkpt lat="42.86247" lon="0.22256">
        <ele>2383</ele>
        <time>2022-02-09T10:51:14Z</time>
      </trkpt>
      <trkpt lat="42.86247" lon="0.22255">
        <ele>2383.1</ele>
        <time>2022-02-09T10:51:15Z</time>
      </trkpt>
      <trkpt lat="42.86247" lon="0.22254">
        <ele>2383.3</ele>
        <time>2022-02-09T10:51:16Z</time>
      </trkpt>
      <trkpt lat="42.86247" lon="0.22253">
        <ele>2383.4</ele>
        <time>2022-02-09T10:51:17Z</time>
      </trkpt>
      <trkpt lat="42.86247" lon="0.22252">
        <ele>2383.6</ele>
        <time>2022-02-09T10:51:18Z</time>
      </trkpt>
      <trkpt lat="42.86248" lon="0.22251">
        <ele>2383.7</ele>
        <time>2022-02-09T10:51:19Z</time>
      </trkpt>
      <trkpt lat="42.86248" lon="0.2225">
        <ele>2383.8</ele>
        <time>2022-02-09T10:51:20Z</time>
      </trkpt>
      <trkpt lat="42.86248" lon="0.22249">
        <ele>2384</ele>
        <time>2022-02-09T10:51:21Z</time>
      </trkpt>
      <trkpt lat="42.86248" lon="0.22248">
        <ele>2384.1</ele>
        <time>2022-02-09T10:51:22Z</time>
      </trkpt>
      <trkpt lat="42.86248" lon="0.22247">
        <ele>2384.2</ele>
        <time>2022-02-09T10:51:23Z</time>
      </trkpt>
      <trkpt lat="42.86248" lon="0.22247">
        <ele>2384.3</ele>
        <time>2022-02-09T10:51:24Z</time>
      </trkpt>
      <trkpt lat="42.86249" lon="0.22247">
        <ele>2384.4</ele>
        <time>2022-02-09T10:51:25Z</time>
      </trkpt>
      <trkpt lat="42.86249" lon="0.22247">
        <ele>2384.5</ele>
        <time>2022-02-09T10:51:26Z</time>
      </trkpt>
      <trkpt lat="42.86249" lon="0.22247">
        <ele>2384.5</ele>
        <time>2022-02-09T10:51:27Z</time>
      </trkpt>
      <trkpt lat="42.8625" lon="0.22247">
        <ele>2384.6</ele>
        <time>2022-02-09T10:51:28Z</time>
      </trkpt>
      <trkpt lat="42.8625" lon="0.22247">
        <ele>2384.7</ele>
        <time>2022-02-09T10:51:29Z</time>
      </trkpt>
      <trkpt lat="42.86251" lon="0.22248">
        <ele>2384.8</ele>
        <time>2022-02-09T10:51:30Z</time>
      </trkpt>
      <trkpt lat="42.86251" lon="0.22248">
        <ele>2384.9</ele>
        <time>2022-02-09T10:51:31Z</time>
      </trkpt>
      <trkpt lat="42.86252" lon="0.22248">
        <ele>2385.1</ele>
        <time>2022-02-09T10:51:32Z</time>
      </trkpt>
      <trkpt lat="42.86252" lon="0.22249">
        <ele>2385.1</ele>
        <time>2022-02-09T10:51:33Z</time>
      </trkpt>
      <trkpt lat="42.86252" lon="0.22249">
        <ele>2385.2</ele>
        <time>2022-02-09T10:51:34Z</time>
      </trkpt>
      <trkpt lat="42.86253" lon="0.22249">
        <ele>2385.3</ele>
        <time>2022-02-09T10:51:35Z</time>
      </trkpt>
      <trkpt lat="42.86253" lon="0.22249">
        <ele>2385.4</ele>
        <time>2022-02-09T10:51:36Z</time>
      </trkpt>
      <trkpt lat="42.86254" lon="0.22249">
        <ele>2385.5</ele>
        <time>2022-02-09T10:51:37Z</time>
      </trkpt>
      <trkpt lat="42.86254" lon="0.22249">
        <ele>2385.6</ele>
        <time>2022-02-09T10:51:38Z</time>
      </trkpt>
      <trkpt lat="42.86255" lon="0.2225">
        <ele>2385.7</ele>
        <time>2022-02-09T10:51:39Z</time>
      </trkpt>
      <trkpt lat="42.86255" lon="0.2225">
        <ele>2385.8</ele>
        <time>2022-02-09T10:51:40Z</time>
      </trkpt>
      <trkpt lat="42.86256" lon="0.2225">
        <ele>2386</ele>
        <time>2022-02-09T10:51:41Z</time>
      </trkpt>
      <trkpt lat="42.86257" lon="0.2225">
        <ele>2386.1</ele>
        <time>2022-02-09T10:51:42Z</time>
      </trkpt>
      <trkpt lat="42.86257" lon="0.2225">
        <ele>2386.2</ele>
        <time>2022-02-09T10:51:43Z</time>
      </trkpt>
      <trkpt lat="42.86258" lon="0.2225">
        <ele>2386.4</ele>
        <time>2022-02-09T10:51:44Z</time>
      </trkpt>
      <trkpt lat="42.86259" lon="0.2225">
        <ele>2386.5</ele>
        <time>2022-02-09T10:51:45Z</time>
      </trkpt>
      <trkpt lat="42.86259" lon="0.2225">
        <ele>2386.6</ele>
        <time>2022-02-09T10:51:46Z</time>
      </trkpt>
      <trkpt lat="42.8626" lon="0.2225">
        <ele>2386.7</ele>
        <time>2022-02-09T10:51:47Z</time>
      </trkpt>
      <trkpt lat="42.8626" lon="0.2225">
        <ele>2386.8</ele>
        <time>2022-02-09T10:51:48Z</time>
      </trkpt>
      <trkpt lat="42.86261" lon="0.2225">
        <ele>2387</ele>
        <time>2022-02-09T10:51:49Z</time>
      </trkpt>
      <trkpt lat="42.86262" lon="0.2225">
        <ele>2387.1</ele>
        <time>2022-02-09T10:51:50Z</time>
      </trkpt>
      <trkpt lat="42.86262" lon="0.2225">
        <ele>2387.3</ele>
        <time>2022-02-09T10:51:51Z</time>
      </trkpt>
      <trkpt lat="42.86263" lon="0.2225">
        <ele>2387.4</ele>
        <time>2022-02-09T10:51:52Z</time>
      </trkpt>
      <trkpt lat="42.86264" lon="0.22251">
        <ele>2387.5</ele>
        <time>2022-02-09T10:51:53Z</time>
      </trkpt>
      <trkpt lat="42.86264" lon="0.22251">
        <ele>2387.6</ele>
        <time>2022-02-09T10:51:54Z</time>
      </trkpt>
      <trkpt lat="42.86265" lon="0.22251">
        <ele>2387.7</ele>
        <time>2022-02-09T10:51:55Z</time>
      </trkpt>
      <trkpt lat="42.86265" lon="0.22251">
        <ele>2387.9</ele>
        <time>2022-02-09T10:51:56Z</time>
      </trkpt>
      <trkpt lat="42.86266" lon="0.22251">
        <ele>2388</ele>
        <time>2022-02-09T10:51:57Z</time>
      </trkpt>
      <trkpt lat="42.86267" lon="0.22251">
        <ele>2388.1</ele>
        <time>2022-02-09T10:51:58Z</time>
      </trkpt>
      <trkpt lat="42.86267" lon="0.22251">
        <ele>2388.2</ele>
        <time>2022-02-09T10:51:59Z</time>
      </trkpt>
      <trkpt lat="42.86268" lon="0.22251">
        <ele>2388.3</ele>
        <time>2022-02-09T10:52:00Z</time>
      </trkpt>
      <trkpt lat="42.86268" lon="0.22251">
        <ele>2388.4</ele>
        <time>2022-02-09T10:52:01Z</time>
      </trkpt>
      <trkpt lat="42.86269" lon="0.22251">
        <ele>2388.5</ele>
        <time>2022-02-09T10:52:02Z</time>
      </trkpt>
      <trkpt lat="42.86269" lon="0.22251">
        <ele>2388.6</ele>
        <time>2022-02-09T10:52:03Z</time>
      </trkpt>
      <trkpt lat="42.8627" lon="0.22252">
        <ele>2388.7</ele>
        <time>2022-02-09T10:52:04Z</time>
      </trkpt>
      <trkpt lat="42.8627" lon="0.22252">
        <ele>2388.7</ele>
        <time>2022-02-09T10:52:05Z</time>
      </trkpt>
      <trkpt lat="42.86271" lon="0.22252">
        <ele>2388.8</ele>
        <time>2022-02-09T10:52:06Z</time>
      </trkpt>
      <trkpt lat="42.86271" lon="0.22252">
        <ele>2388.9</ele>
        <time>2022-02-09T10:52:07Z</time>
      </trkpt>
      <trkpt lat="42.86272" lon="0.22253">
        <ele>2389</ele>
        <time>2022-02-09T10:52:08Z</time>
      </trkpt>
      <trkpt lat="42.86273" lon="0.22253">
        <ele>2389.1</ele>
        <time>2022-02-09T10:52:09Z</time>
      </trkpt>
      <trkpt lat="42.86273" lon="0.22253">
        <ele>2389.2</ele>
        <time>2022-02-09T10:52:10Z</time>
      </trkpt>
      <trkpt lat="42.86274" lon="0.22254">
        <ele>2389.3</ele>
        <time>2022-02-09T10:52:11Z</time>
      </trkpt>
      <trkpt lat="42.86274" lon="0.22254">
        <ele>2389.4</ele>
        <time>2022-02-09T10:52:12Z</time>
      </trkpt>
      <trkpt lat="42.86275" lon="0.22254">
        <ele>2389.5</ele>
        <time>2022-02-09T10:52:13Z</time>
      </trkpt>
      <trkpt lat="42.86275" lon="0.22254">
        <ele>2389.5</ele>
        <time>2022-02-09T10:52:14Z</time>
      </trkpt>
      <trkpt lat="42.86275" lon="0.22255">
        <ele>2389.6</ele>
        <time>2022-02-09T10:52:15Z</time>
      </trkpt>
      <trkpt lat="42.86276" lon="0.22255">
        <ele>2389.7</ele>
        <time>2022-02-09T10:52:16Z</time>
      </trkpt>
      <trkpt lat="42.86276" lon="0.22255">
        <ele>2389.8</ele>
        <time>2022-02-09T10:52:17Z</time>
      </trkpt>
      <trkpt lat="42.86277" lon="0.22256">
        <ele>2389.8</ele>
        <time>2022-02-09T10:52:18Z</time>
      </trkpt>
      <trkpt lat="42.86277" lon="0.22256">
        <ele>2389.9</ele>
        <time>2022-02-09T10:52:19Z</time>
      </trkpt>
      <trkpt lat="42.86278" lon="0.22256">
        <ele>2390</ele>
        <time>2022-02-09T10:52:20Z</time>
      </trkpt>
      <trkpt lat="42.86278" lon="0.22256">
        <ele>2390.1</ele>
        <time>2022-02-09T10:52:21Z</time>
      </trkpt>
      <trkpt lat="42.86279" lon="0.22256">
        <ele>2390.2</ele>
        <time>2022-02-09T10:52:22Z</time>
      </trkpt>
      <trkpt lat="42.8628" lon="0.22256">
        <ele>2390.3</ele>
        <time>2022-02-09T10:52:23Z</time>
      </trkpt>
      <trkpt lat="42.8628" lon="0.22257">
        <ele>2390.3</ele>
        <time>2022-02-09T10:52:24Z</time>
      </trkpt>
      <trkpt lat="42.8628" lon="0.22257">
        <ele>2390.4</ele>
        <time>2022-02-09T10:52:25Z</time>
      </trkpt>
      <trkpt lat="42.86281" lon="0.22257">
        <ele>2390.5</ele>
        <time>2022-02-09T10:52:26Z</time>
      </trkpt>
      <trkpt lat="42.86282" lon="0.22257">
        <ele>2390.6</ele>
        <time>2022-02-09T10:52:27Z</time>
      </trkpt>
      <trkpt lat="42.86282" lon="0.22257">
        <ele>2390.7</ele>
        <time>2022-02-09T10:52:28Z</time>
      </trkpt>
      <trkpt lat="42.86283" lon="0.22257">
        <ele>2390.8</ele>
        <time>2022-02-09T10:52:29Z</time>
      </trkpt>
      <trkpt lat="42.86283" lon="0.22257">
        <ele>2390.9</ele>
        <time>2022-02-09T10:52:30Z</time>
      </trkpt>
      <trkpt lat="42.86284" lon="0.22257">
        <ele>2391</ele>
        <time>2022-02-09T10:52:31Z</time>
      </trkpt>
      <trkpt lat="42.86284" lon="0.22257">
        <ele>2391.1</ele>
        <time>2022-02-09T10:52:32Z</time>
      </trkpt>
      <trkpt lat="42.86285" lon="0.22257">
        <ele>2391.2</ele>
        <time>2022-02-09T10:52:33Z</time>
      </trkpt>
      <trkpt lat="42.86285" lon="0.22257">
        <ele>2391.3</ele>
        <time>2022-02-09T10:52:34Z</time>
      </trkpt>
      <trkpt lat="42.86286" lon="0.22257">
        <ele>2391.4</ele>
        <time>2022-02-09T10:52:35Z</time>
      </trkpt>
      <trkpt lat="42.86286" lon="0.22257">
        <ele>2391.5</ele>
        <time>2022-02-09T10:52:36Z</time>
      </trkpt>
      <trkpt lat="42.86287" lon="0.22257">
        <ele>2391.6</ele>
        <time>2022-02-09T10:52:37Z</time>
      </trkpt>
      <trkpt lat="42.86288" lon="0.22257">
        <ele>2391.8</ele>
        <time>2022-02-09T10:52:38Z</time>
      </trkpt>
      <trkpt lat="42.86288" lon="0.22257">
        <ele>2391.8</ele>
        <time>2022-02-09T10:52:39Z</time>
      </trkpt>
      <trkpt lat="42.86288" lon="0.22257">
        <ele>2392</ele>
        <time>2022-02-09T10:52:40Z</time>
      </trkpt>
      <trkpt lat="42.86289" lon="0.22257">
        <ele>2392.1</ele>
        <time>2022-02-09T10:52:41Z</time>
      </trkpt>
      <trkpt lat="42.86289" lon="0.22257">
        <ele>2392.3</ele>
        <time>2022-02-09T10:52:42Z</time>
      </trkpt>
      <trkpt lat="42.8629" lon="0.22258">
        <ele>2392.3</ele>
        <time>2022-02-09T10:52:43Z</time>
      </trkpt>
      <trkpt lat="42.8629" lon="0.22258">
        <ele>2392.5</ele>
        <time>2022-02-09T10:52:44Z</time>
      </trkpt>
      <trkpt lat="42.86291" lon="0.22258">
        <ele>2392.7</ele>
        <time>2022-02-09T10:52:45Z</time>
      </trkpt>
      <trkpt lat="42.86292" lon="0.22259">
        <ele>2392.9</ele>
        <time>2022-02-09T10:52:46Z</time>
      </trkpt>
      <trkpt lat="42.86292" lon="0.22259">
        <ele>2393</ele>
        <time>2022-02-09T10:52:47Z</time>
      </trkpt>
      <trkpt lat="42.86293" lon="0.22259">
        <ele>2393.2</ele>
        <time>2022-02-09T10:52:48Z</time>
      </trkpt>
      <trkpt lat="42.86293" lon="0.22259">
        <ele>2393.3</ele>
        <time>2022-02-09T10:52:49Z</time>
      </trkpt>
      <trkpt lat="42.86294" lon="0.2226">
        <ele>2393.5</ele>
        <time>2022-02-09T10:52:50Z</time>
      </trkpt>
      <trkpt lat="42.86294" lon="0.2226">
        <ele>2393.6</ele>
        <time>2022-02-09T10:52:51Z</time>
      </trkpt>
      <trkpt lat="42.86295" lon="0.2226">
        <ele>2393.8</ele>
        <time>2022-02-09T10:52:52Z</time>
      </trkpt>
      <trkpt lat="42.86295" lon="0.22261">
        <ele>2394</ele>
        <time>2022-02-09T10:52:53Z</time>
      </trkpt>
      <trkpt lat="42.86296" lon="0.22261">
        <ele>2394.1</ele>
        <time>2022-02-09T10:52:54Z</time>
      </trkpt>
      <trkpt lat="42.86296" lon="0.22261">
        <ele>2394.2</ele>
        <time>2022-02-09T10:52:55Z</time>
      </trkpt>
      <trkpt lat="42.86296" lon="0.22261">
        <ele>2394.2</ele>
        <time>2022-02-09T10:52:56Z</time>
      </trkpt>
      <trkpt lat="42.86296" lon="0.22261">
        <ele>2394.2</ele>
        <time>2022-02-09T10:52:57Z</time>
      </trkpt>
      <trkpt lat="42.86296" lon="0.22261">
        <ele>2394.2</ele>
        <time>2022-02-09T10:52:58Z</time>
      </trkpt>
      <trkpt lat="42.86296" lon="0.22261">
        <ele>2394.2</ele>
        <time>2022-02-09T10:52:59Z</time>
      </trkpt>
      <trkpt lat="42.86296" lon="0.22261">
        <ele>2394.2</ele>
        <time>2022-02-09T10:53:00Z</time>
      </trkpt>
      <trkpt lat="42.86296" lon="0.22261">
        <ele>2394.2</ele>
        <time>2022-02-09T10:53:01Z</time>
      </trkpt>
      <trkpt lat="42.86296" lon="0.22261">
        <ele>2394.2</ele>
        <time>2022-02-09T10:53:02Z</time>
      </trkpt>
      <trkpt lat="42.86296" lon="0.22261">
        <ele>2394.2</ele>
        <time>2022-02-09T10:53:03Z</time>
      </trkpt>
      <trkpt lat="42.86296" lon="0.22261">
        <ele>2394.2</ele>
        <time>2022-02-09T10:53:04Z</time>
      </trkpt>
      <trkpt lat="42.86296" lon="0.22261">
        <ele>2394.2</ele>
        <time>2022-02-09T10:53:05Z</time>
      </trkpt>
      <trkpt lat="42.86296" lon="0.22261">
        <ele>2394.2</ele>
        <time>2022-02-09T10:53:06Z</time>
      </trkpt>
      <trkpt lat="42.86296" lon="0.22261">
        <ele>2394.2</ele>
        <time>2022-02-09T10:53:07Z</time>
      </trkpt>
      <trkpt lat="42.86296" lon="0.22261">
        <ele>2394.2</ele>
        <time>2022-02-09T10:53:08Z</time>
      </trkpt>
      <trkpt lat="42.86296" lon="0.22261">
        <ele>2394.2</ele>
        <time>2022-02-09T10:53:09Z</time>
      </trkpt>
      <trkpt lat="42.86296" lon="0.22261">
        <ele>2394.2</ele>
        <time>2022-02-09T10:53:10Z</time>
      </trkpt>
      <trkpt lat="42.86296" lon="0.22261">
        <ele>2394.2</ele>
        <time>2022-02-09T10:53:11Z</time>
      </trkpt>
      <trkpt lat="42.86296" lon="0.22261">
        <ele>2394.2</ele>
        <time>2022-02-09T10:53:12Z</time>
      </trkpt>
      <trkpt lat="42.86296" lon="0.22261">
        <ele>2394.2</ele>
        <time>2022-02-09T10:53:13Z</time>
      </trkpt>
      <trkpt lat="42.86296" lon="0.22261">
        <ele>2394.2</ele>
        <time>2022-02-09T10:53:14Z</time>
      </trkpt>
      <trkpt lat="42.86296" lon="0.22261">
        <ele>2394.2</ele>
        <time>2022-02-09T10:53:15Z</time>
      </trkpt>
      <trkpt lat="42.86296" lon="0.22261">
        <ele>2394.2</ele>
        <time>2022-02-09T10:53:16Z</time>
      </trkpt>
      <trkpt lat="42.86296" lon="0.22261">
        <ele>2394.2</ele>
        <time>2022-02-09T10:53:17Z</time>
      </trkpt>
      <trkpt lat="42.86296" lon="0.22261">
        <ele>2394.2</ele>
        <time>2022-02-09T10:53:18Z</time>
      </trkpt>
      <trkpt lat="42.86296" lon="0.22261">
        <ele>2394.2</ele>
        <time>2022-02-09T10:53:19Z</time>
      </trkpt>
      <trkpt lat="42.86296" lon="0.22261">
        <ele>2394.2</ele>
        <time>2022-02-09T10:53:20Z</time>
      </trkpt>
      <trkpt lat="42.86296" lon="0.22261">
        <ele>2394.2</ele>
        <time>2022-02-09T10:53:21Z</time>
      </trkpt>
      <trkpt lat="42.86296" lon="0.22261">
        <ele>2394.2</ele>
        <time>2022-02-09T10:53:22Z</time>
      </trkpt>
      <trkpt lat="42.86296" lon="0.22261">
        <ele>2394.2</ele>
        <time>2022-02-09T10:53:23Z</time>
      </trkpt>
      <trkpt lat="42.86296" lon="0.22261">
        <ele>2394.2</ele>
        <time>2022-02-09T10:53:24Z</time>
      </trkpt>
      <trkpt lat="42.86296" lon="0.22261">
        <ele>2394.2</ele>
        <time>2022-02-09T10:53:25Z</time>
      </trkpt>
      <trkpt lat="42.86296" lon="0.22261">
        <ele>2394.2</ele>
        <time>2022-02-09T10:53:26Z</time>
      </trkpt>
      <trkpt lat="42.86296" lon="0.22261">
        <ele>2394.2</ele>
        <time>2022-02-09T10:53:27Z</time>
      </trkpt>
      <trkpt lat="42.86296" lon="0.22261">
        <ele>2394.2</ele>
        <time>2022-02-09T10:53:28Z</time>
      </trkpt>
      <trkpt lat="42.86296" lon="0.22261">
        <ele>2394.2</ele>
        <time>2022-02-09T10:53:29Z</time>
      </trkpt>
      <trkpt lat="42.86296" lon="0.22261">
        <ele>2394.2</ele>
        <time>2022-02-09T10:53:30Z</time>
      </trkpt>
      <trkpt lat="42.86296" lon="0.22261">
        <ele>2394.2</ele>
        <time>2022-02-09T10:53:31Z</time>
      </trkpt>
      <trkpt lat="42.86296" lon="0.22261">
        <ele>2394.2</ele>
        <time>2022-02-09T10:53:32Z</time>
      </trkpt>
      <trkpt lat="42.86296" lon="0.22261">
        <ele>2394.2</ele>
        <time>2022-02-09T10:53:33Z</time>
      </trkpt>
      <trkpt lat="42.86296" lon="0.22261">
        <ele>2394.2</ele>
        <time>2022-02-09T10:53:34Z</time>
      </trkpt>
      <trkpt lat="42.86296" lon="0.22261">
        <ele>2394.2</ele>
        <time>2022-02-09T10:53:35Z</time>
      </trkpt>
      <trkpt lat="42.86296" lon="0.22261">
        <ele>2394.2</ele>
        <time>2022-02-09T10:53:36Z</time>
      </trkpt>
      <trkpt lat="42.86296" lon="0.22261">
        <ele>2394.2</ele>
        <time>2022-02-09T10:53:37Z</time>
      </trkpt>
      <trkpt lat="42.86296" lon="0.22261">
        <ele>2394.2</ele>
        <time>2022-02-09T10:53:38Z</time>
      </trkpt>
      <trkpt lat="42.86296" lon="0.22261">
        <ele>2394.2</ele>
        <time>2022-02-09T10:53:39Z</time>
      </trkpt>
      <trkpt lat="42.86296" lon="0.22261">
        <ele>2394.2</ele>
        <time>2022-02-09T10:53:40Z</time>
      </trkpt>
      <trkpt lat="42.86296" lon="0.22261">
        <ele>2394.2</ele>
        <time>2022-02-09T10:53:41Z</time>
      </trkpt>
      <trkpt lat="42.86296" lon="0.22261">
        <ele>2394.2</ele>
        <time>2022-02-09T10:53:42Z</time>
      </trkpt>
      <trkpt lat="42.86296" lon="0.22261">
        <ele>2394.2</ele>
        <time>2022-02-09T10:53:43Z</time>
      </trkpt>
      <trkpt lat="42.86296" lon="0.22261">
        <ele>2394.2</ele>
        <time>2022-02-09T10:53:44Z</time>
      </trkpt>
      <trkpt lat="42.86296" lon="0.22261">
        <ele>2394.2</ele>
        <time>2022-02-09T10:53:45Z</time>
      </trkpt>
      <trkpt lat="42.86296" lon="0.22261">
        <ele>2394.2</ele>
        <time>2022-02-09T10:53:46Z</time>
      </trkpt>
      <trkpt lat="42.86296" lon="0.22261">
        <ele>2394.3</ele>
        <time>2022-02-09T10:53:47Z</time>
      </trkpt>
      <trkpt lat="42.86297" lon="0.22262">
        <ele>2394.4</ele>
        <time>2022-02-09T10:53:48Z</time>
      </trkpt>
      <trkpt lat="42.86297" lon="0.22262">
        <ele>2394.6</ele>
        <time>2022-02-09T10:53:49Z</time>
      </trkpt>
      <trkpt lat="42.86298" lon="0.22262">
        <ele>2394.8</ele>
        <time>2022-02-09T10:53:50Z</time>
      </trkpt>
      <trkpt lat="42.86298" lon="0.22263">
        <ele>2395</ele>
        <time>2022-02-09T10:53:51Z</time>
      </trkpt>
      <trkpt lat="42.86299" lon="0.22263">
        <ele>2395.2</ele>
        <time>2022-02-09T10:53:52Z</time>
      </trkpt>
      <trkpt lat="42.86299" lon="0.22263">
        <ele>2395.3</ele>
        <time>2022-02-09T10:53:53Z</time>
      </trkpt>
      <trkpt lat="42.863" lon="0.22264">
        <ele>2395.6</ele>
        <time>2022-02-09T10:53:54Z</time>
      </trkpt>
      <trkpt lat="42.863" lon="0.22264">
        <ele>2395.7</ele>
        <time>2022-02-09T10:53:55Z</time>
      </trkpt>
      <trkpt lat="42.86301" lon="0.22265">
        <ele>2395.9</ele>
        <time>2022-02-09T10:53:56Z</time>
      </trkpt>
      <trkpt lat="42.86302" lon="0.22265">
        <ele>2396.1</ele>
        <time>2022-02-09T10:53:57Z</time>
      </trkpt>
      <trkpt lat="42.86302" lon="0.22266">
        <ele>2396.3</ele>
        <time>2022-02-09T10:53:58Z</time>
      </trkpt>
      <trkpt lat="42.86303" lon="0.22266">
        <ele>2396.6</ele>
        <time>2022-02-09T10:53:59Z</time>
      </trkpt>
      <trkpt lat="42.86304" lon="0.22267">
        <ele>2396.8</ele>
        <time>2022-02-09T10:54:00Z</time>
      </trkpt>
      <trkpt lat="42.86304" lon="0.22267">
        <ele>2396.9</ele>
        <time>2022-02-09T10:54:01Z</time>
      </trkpt>
      <trkpt lat="42.86304" lon="0.22268">
        <ele>2397.1</ele>
        <time>2022-02-09T10:54:02Z</time>
      </trkpt>
      <trkpt lat="42.86305" lon="0.22268">
        <ele>2397.3</ele>
        <time>2022-02-09T10:54:03Z</time>
      </trkpt>
      <trkpt lat="42.86305" lon="0.22269">
        <ele>2397.5</ele>
        <time>2022-02-09T10:54:04Z</time>
      </trkpt>
      <trkpt lat="42.86306" lon="0.22269">
        <ele>2397.7</ele>
        <time>2022-02-09T10:54:05Z</time>
      </trkpt>
      <trkpt lat="42.86306" lon="0.2227">
        <ele>2397.8</ele>
        <time>2022-02-09T10:54:06Z</time>
      </trkpt>
      <trkpt lat="42.86307" lon="0.2227">
        <ele>2398.1</ele>
        <time>2022-02-09T10:54:07Z</time>
      </trkpt>
      <trkpt lat="42.86307" lon="0.22271">
        <ele>2398.2</ele>
        <time>2022-02-09T10:54:08Z</time>
      </trkpt>
      <trkpt lat="42.86308" lon="0.22272">
        <ele>2398.4</ele>
        <time>2022-02-09T10:54:09Z</time>
      </trkpt>
      <trkpt lat="42.86308" lon="0.22272">
        <ele>2398.6</ele>
        <time>2022-02-09T10:54:10Z</time>
      </trkpt>
      <trkpt lat="42.86308" lon="0.22272">
        <ele>2398.8</ele>
        <time>2022-02-09T10:54:11Z</time>
      </trkpt>
      <trkpt lat="42.86308" lon="0.22273">
        <ele>2398.9</ele>
        <time>2022-02-09T10:54:12Z</time>
      </trkpt>
      <trkpt lat="42.86309" lon="0.22274">
        <ele>2399.1</ele>
        <time>2022-02-09T10:54:13Z</time>
      </trkpt>
      <trkpt lat="42.86309" lon="0.22274">
        <ele>2399.2</ele>
        <time>2022-02-09T10:54:14Z</time>
      </trkpt>
      <trkpt lat="42.86309" lon="0.22274">
        <ele>2399.2</ele>
        <time>2022-02-09T10:54:15Z</time>
      </trkpt>
      <trkpt lat="42.86309" lon="0.22274">
        <ele>2399.2</ele>
        <time>2022-02-09T10:54:16Z</time>
      </trkpt>
      <trkpt lat="42.86309" lon="0.22274">
        <ele>2399.2</ele>
        <time>2022-02-09T10:54:17Z</time>
      </trkpt>
      <trkpt lat="42.86309" lon="0.22274">
        <ele>2399.2</ele>
        <time>2022-02-09T10:54:18Z</time>
      </trkpt>
      <trkpt lat="42.86309" lon="0.22274">
        <ele>2399.2</ele>
        <time>2022-02-09T10:54:19Z</time>
      </trkpt>
      <trkpt lat="42.86309" lon="0.22274">
        <ele>2399.2</ele>
        <time>2022-02-09T10:54:20Z</time>
      </trkpt>
      <trkpt lat="42.86309" lon="0.22274">
        <ele>2399.2</ele>
        <time>2022-02-09T10:54:21Z</time>
      </trkpt>
      <trkpt lat="42.86309" lon="0.22274">
        <ele>2399.2</ele>
        <time>2022-02-09T10:54:22Z</time>
      </trkpt>
      <trkpt lat="42.86309" lon="0.22274">
        <ele>2399.2</ele>
        <time>2022-02-09T10:54:23Z</time>
      </trkpt>
      <trkpt lat="42.86309" lon="0.22274">
        <ele>2399.2</ele>
        <time>2022-02-09T10:54:24Z</time>
      </trkpt>
      <trkpt lat="42.86309" lon="0.22274">
        <ele>2399.2</ele>
        <time>2022-02-09T10:54:25Z</time>
      </trkpt>
      <trkpt lat="42.86309" lon="0.22274">
        <ele>2399.2</ele>
        <time>2022-02-09T10:54:26Z</time>
      </trkpt>
      <trkpt lat="42.86309" lon="0.22274">
        <ele>2399.2</ele>
        <time>2022-02-09T10:54:27Z</time>
      </trkpt>
      <trkpt lat="42.86309" lon="0.22274">
        <ele>2399.2</ele>
        <time>2022-02-09T10:54:28Z</time>
      </trkpt>
      <trkpt lat="42.86309" lon="0.22274">
        <ele>2399.2</ele>
        <time>2022-02-09T10:54:29Z</time>
      </trkpt>
      <trkpt lat="42.86309" lon="0.22274">
        <ele>2399.2</ele>
        <time>2022-02-09T10:54:30Z</time>
      </trkpt>
      <trkpt lat="42.86309" lon="0.22274">
        <ele>2399.2</ele>
        <time>2022-02-09T10:54:31Z</time>
      </trkpt>
      <trkpt lat="42.86309" lon="0.22274">
        <ele>2399.2</ele>
        <time>2022-02-09T10:54:32Z</time>
      </trkpt>
      <trkpt lat="42.86309" lon="0.22274">
        <ele>2399.2</ele>
        <time>2022-02-09T10:54:33Z</time>
      </trkpt>
      <trkpt lat="42.86309" lon="0.22274">
        <ele>2399.2</ele>
        <time>2022-02-09T10:54:34Z</time>
      </trkpt>
      <trkpt lat="42.86309" lon="0.22274">
        <ele>2399.2</ele>
        <time>2022-02-09T10:54:35Z</time>
      </trkpt>
      <trkpt lat="42.86309" lon="0.22274">
        <ele>2399.2</ele>
        <time>2022-02-09T10:54:36Z</time>
      </trkpt>
      <trkpt lat="42.86309" lon="0.22274">
        <ele>2399.2</ele>
        <time>2022-02-09T10:54:37Z</time>
      </trkpt>
      <trkpt lat="42.86309" lon="0.22274">
        <ele>2399.2</ele>
        <time>2022-02-09T10:54:38Z</time>
      </trkpt>
      <trkpt lat="42.86309" lon="0.22274">
        <ele>2399.2</ele>
        <time>2022-02-09T10:54:39Z</time>
      </trkpt>
      <trkpt lat="42.86309" lon="0.22274">
        <ele>2399.2</ele>
        <time>2022-02-09T10:54:40Z</time>
      </trkpt>
      <trkpt lat="42.86309" lon="0.22274">
        <ele>2399.2</ele>
        <time>2022-02-09T10:54:41Z</time>
      </trkpt>
      <trkpt lat="42.86309" lon="0.22274">
        <ele>2399.2</ele>
        <time>2022-02-09T10:54:42Z</time>
      </trkpt>
      <trkpt lat="42.86309" lon="0.22274">
        <ele>2399.2</ele>
        <time>2022-02-09T10:54:43Z</time>
      </trkpt>
      <trkpt lat="42.86309" lon="0.22274">
        <ele>2399.2</ele>
        <time>2022-02-09T10:54:44Z</time>
      </trkpt>
      <trkpt lat="42.86309" lon="0.22274">
        <ele>2399.2</ele>
        <time>2022-02-09T10:54:45Z</time>
      </trkpt>
      <trkpt lat="42.86309" lon="0.22274">
        <ele>2399.2</ele>
        <time>2022-02-09T10:54:46Z</time>
      </trkpt>
      <trkpt lat="42.86309" lon="0.22274">
        <ele>2399.2</ele>
        <time>2022-02-09T10:54:47Z</time>
      </trkpt>
      <trkpt lat="42.86309" lon="0.22274">
        <ele>2399.2</ele>
        <time>2022-02-09T10:54:48Z</time>
      </trkpt>
      <trkpt lat="42.86309" lon="0.22274">
        <ele>2399.3</ele>
        <time>2022-02-09T10:54:49Z</time>
      </trkpt>
      <trkpt lat="42.86309" lon="0.22274">
        <ele>2399.4</ele>
        <time>2022-02-09T10:54:50Z</time>
      </trkpt>
      <trkpt lat="42.86309" lon="0.22273">
        <ele>2399.6</ele>
        <time>2022-02-09T10:54:51Z</time>
      </trkpt>
      <trkpt lat="42.86309" lon="0.22273">
        <ele>2399.7</ele>
        <time>2022-02-09T10:54:52Z</time>
      </trkpt>
      <trkpt lat="42.86309" lon="0.22272">
        <ele>2399.9</ele>
        <time>2022-02-09T10:54:53Z</time>
      </trkpt>
      <trkpt lat="42.8631" lon="0.22271">
        <ele>2400.1</ele>
        <time>2022-02-09T10:54:54Z</time>
      </trkpt>
      <trkpt lat="42.8631" lon="0.2227">
        <ele>2400.3</ele>
        <time>2022-02-09T10:54:55Z</time>
      </trkpt>
      <trkpt lat="42.8631" lon="0.2227">
        <ele>2400.5</ele>
        <time>2022-02-09T10:54:56Z</time>
      </trkpt>
      <trkpt lat="42.8631" lon="0.22269">
        <ele>2400.8</ele>
        <time>2022-02-09T10:54:57Z</time>
      </trkpt>
      <trkpt lat="42.8631" lon="0.22268">
        <ele>2401</ele>
        <time>2022-02-09T10:54:58Z</time>
      </trkpt>
      <trkpt lat="42.86311" lon="0.22267">
        <ele>2401.3</ele>
        <time>2022-02-09T10:54:59Z</time>
      </trkpt>
      <trkpt lat="42.86311" lon="0.22266">
        <ele>2401.5</ele>
        <time>2022-02-09T10:55:00Z</time>
      </trkpt>
      <trkpt lat="42.86311" lon="0.22265">
        <ele>2401.7</ele>
        <time>2022-02-09T10:55:01Z</time>
      </trkpt>
      <trkpt lat="42.86311" lon="0.22264">
        <ele>2402</ele>
        <time>2022-02-09T10:55:02Z</time>
      </trkpt>
      <trkpt lat="42.86311" lon="0.22263">
        <ele>2402.4</ele>
        <time>2022-02-09T10:55:03Z</time>
      </trkpt>
      <trkpt lat="42.86311" lon="0.22262">
        <ele>2402.6</ele>
        <time>2022-02-09T10:55:04Z</time>
      </trkpt>
      <trkpt lat="42.86311" lon="0.22261">
        <ele>2402.8</ele>
        <time>2022-02-09T10:55:05Z</time>
      </trkpt>
      <trkpt lat="42.86311" lon="0.2226">
        <ele>2403.1</ele>
        <time>2022-02-09T10:55:06Z</time>
      </trkpt>
      <trkpt lat="42.86311" lon="0.22259">
        <ele>2403.3</ele>
        <time>2022-02-09T10:55:07Z</time>
      </trkpt>
      <trkpt lat="42.86311" lon="0.22258">
        <ele>2403.6</ele>
        <time>2022-02-09T10:55:08Z</time>
      </trkpt>
      <trkpt lat="42.86311" lon="0.22257">
        <ele>2403.8</ele>
        <time>2022-02-09T10:55:09Z</time>
      </trkpt>
      <trkpt lat="42.86311" lon="0.22257">
        <ele>2404</ele>
        <time>2022-02-09T10:55:10Z</time>
      </trkpt>
      <trkpt lat="42.86312" lon="0.22256">
        <ele>2404.2</ele>
        <time>2022-02-09T10:55:11Z</time>
      </trkpt>
      <trkpt lat="42.86312" lon="0.22255">
        <ele>2404.4</ele>
        <time>2022-02-09T10:55:12Z</time>
      </trkpt>
      <trkpt lat="42.86312" lon="0.22254">
        <ele>2404.7</ele>
        <time>2022-02-09T10:55:13Z</time>
      </trkpt>
      <trkpt lat="42.86312" lon="0.22253">
        <ele>2404.9</ele>
        <time>2022-02-09T10:55:14Z</time>
      </trkpt>
      <trkpt lat="42.86312" lon="0.22253">
        <ele>2405.1</ele>
        <time>2022-02-09T10:55:15Z</time>
      </trkpt>
      <trkpt lat="42.86312" lon="0.22252">
        <ele>2405.3</ele>
        <time>2022-02-09T10:55:16Z</time>
      </trkpt>
      <trkpt lat="42.86313" lon="0.22251">
        <ele>2405.5</ele>
        <time>2022-02-09T10:55:17Z</time>
      </trkpt>
      <trkpt lat="42.86313" lon="0.2225">
        <ele>2405.8</ele>
        <time>2022-02-09T10:55:18Z</time>
      </trkpt>
      <trkpt lat="42.86313" lon="0.22249">
        <ele>2406</ele>
        <time>2022-02-09T10:55:19Z</time>
      </trkpt>
      <trkpt lat="42.86313" lon="0.22249">
        <ele>2406.2</ele>
        <time>2022-02-09T10:55:20Z</time>
      </trkpt>
      <trkpt lat="42.86313" lon="0.22248">
        <ele>2406.4</ele>
        <time>2022-02-09T10:55:21Z</time>
      </trkpt>
      <trkpt lat="42.86313" lon="0.22247">
        <ele>2406.6</ele>
        <time>2022-02-09T10:55:22Z</time>
      </trkpt>
      <trkpt lat="42.86313" lon="0.22246">
        <ele>2406.8</ele>
        <time>2022-02-09T10:55:23Z</time>
      </trkpt>
      <trkpt lat="42.86313" lon="0.22245">
        <ele>2407</ele>
        <time>2022-02-09T10:55:24Z</time>
      </trkpt>
      <trkpt lat="42.86313" lon="0.22245">
        <ele>2407.2</ele>
        <time>2022-02-09T10:55:25Z</time>
      </trkpt>
      <trkpt lat="42.86314" lon="0.22244">
        <ele>2407.4</ele>
        <time>2022-02-09T10:55:26Z</time>
      </trkpt>
      <trkpt lat="42.86314" lon="0.22243">
        <ele>2407.6</ele>
        <time>2022-02-09T10:55:27Z</time>
      </trkpt>
      <trkpt lat="42.86314" lon="0.22242">
        <ele>2407.8</ele>
        <time>2022-02-09T10:55:28Z</time>
      </trkpt>
      <trkpt lat="42.86314" lon="0.22242">
        <ele>2408</ele>
        <time>2022-02-09T10:55:29Z</time>
      </trkpt>
      <trkpt lat="42.86314" lon="0.22241">
        <ele>2408.2</ele>
        <time>2022-02-09T10:55:30Z</time>
      </trkpt>
      <trkpt lat="42.86314" lon="0.2224">
        <ele>2408.4</ele>
        <time>2022-02-09T10:55:31Z</time>
      </trkpt>
      <trkpt lat="42.86314" lon="0.22239">
        <ele>2408.6</ele>
        <time>2022-02-09T10:55:32Z</time>
      </trkpt>
      <trkpt lat="42.86314" lon="0.22238">
        <ele>2408.8</ele>
        <time>2022-02-09T10:55:33Z</time>
      </trkpt>
      <trkpt lat="42.86314" lon="0.22238">
        <ele>2408.9</ele>
        <time>2022-02-09T10:55:34Z</time>
      </trkpt>
      <trkpt lat="42.86314" lon="0.22237">
        <ele>2409.1</ele>
        <time>2022-02-09T10:55:35Z</time>
      </trkpt>
      <trkpt lat="42.86314" lon="0.22236">
        <ele>2409.3</ele>
        <time>2022-02-09T10:55:36Z</time>
      </trkpt>
      <trkpt lat="42.86314" lon="0.22236">
        <ele>2409.5</ele>
        <time>2022-02-09T10:55:37Z</time>
      </trkpt>
      <trkpt lat="42.86313" lon="0.22235">
        <ele>2409.7</ele>
        <time>2022-02-09T10:55:38Z</time>
      </trkpt>
      <trkpt lat="42.86313" lon="0.22234">
        <ele>2409.9</ele>
        <time>2022-02-09T10:55:39Z</time>
      </trkpt>
      <trkpt lat="42.86313" lon="0.22233">
        <ele>2410.1</ele>
        <time>2022-02-09T10:55:40Z</time>
      </trkpt>
      <trkpt lat="42.86313" lon="0.22232">
        <ele>2410.3</ele>
        <time>2022-02-09T10:55:41Z</time>
      </trkpt>
      <trkpt lat="42.86313" lon="0.22232">
        <ele>2410.4</ele>
        <time>2022-02-09T10:55:42Z</time>
      </trkpt>
      <trkpt lat="42.86314" lon="0.22232">
        <ele>2410.5</ele>
        <time>2022-02-09T10:55:43Z</time>
      </trkpt>
      <trkpt lat="42.86314" lon="0.22232">
        <ele>2410.7</ele>
        <time>2022-02-09T10:55:44Z</time>
      </trkpt>
      <trkpt lat="42.86315" lon="0.22232">
        <ele>2410.8</ele>
        <time>2022-02-09T10:55:45Z</time>
      </trkpt>
      <trkpt lat="42.86315" lon="0.22232">
        <ele>2411</ele>
        <time>2022-02-09T10:55:46Z</time>
      </trkpt>
      <trkpt lat="42.86316" lon="0.22233">
        <ele>2411.2</ele>
        <time>2022-02-09T10:55:47Z</time>
      </trkpt>
      <trkpt lat="42.86317" lon="0.22233">
        <ele>2411.4</ele>
        <time>2022-02-09T10:55:48Z</time>
      </trkpt>
      <trkpt lat="42.86317" lon="0.22233">
        <ele>2411.5</ele>
        <time>2022-02-09T10:55:49Z</time>
      </trkpt>
      <trkpt lat="42.86317" lon="0.22234">
        <ele>2411.7</ele>
        <time>2022-02-09T10:55:50Z</time>
      </trkpt>
      <trkpt lat="42.86318" lon="0.22234">
        <ele>2411.9</ele>
        <time>2022-02-09T10:55:51Z</time>
      </trkpt>
      <trkpt lat="42.86318" lon="0.22234">
        <ele>2412.1</ele>
        <time>2022-02-09T10:55:52Z</time>
      </trkpt>
      <trkpt lat="42.86319" lon="0.22235">
        <ele>2412.2</ele>
        <time>2022-02-09T10:55:53Z</time>
      </trkpt>
      <trkpt lat="42.8632" lon="0.22235">
        <ele>2412.4</ele>
        <time>2022-02-09T10:55:54Z</time>
      </trkpt>
      <trkpt lat="42.8632" lon="0.22235">
        <ele>2412.6</ele>
        <time>2022-02-09T10:55:55Z</time>
      </trkpt>
      <trkpt lat="42.8632" lon="0.22236">
        <ele>2412.7</ele>
        <time>2022-02-09T10:55:56Z</time>
      </trkpt>
      <trkpt lat="42.86321" lon="0.22236">
        <ele>2412.9</ele>
        <time>2022-02-09T10:55:57Z</time>
      </trkpt>
      <trkpt lat="42.86322" lon="0.22236">
        <ele>2413.1</ele>
        <time>2022-02-09T10:55:58Z</time>
      </trkpt>
      <trkpt lat="42.86322" lon="0.22237">
        <ele>2413.3</ele>
        <time>2022-02-09T10:55:59Z</time>
      </trkpt>
      <trkpt lat="42.86323" lon="0.22237">
        <ele>2414.4</ele>
        <time>2022-02-09T10:56:00Z</time>
      </trkpt>
      <trkpt lat="42.86323" lon="0.22237">
        <ele>2414.4</ele>
        <time>2022-02-09T10:56:01Z</time>
      </trkpt>
      <trkpt lat="42.86324" lon="0.22238">
        <ele>2414.4</ele>
        <time>2022-02-09T10:56:02Z</time>
      </trkpt>
      <trkpt lat="42.86324" lon="0.22238">
        <ele>2414.4</ele>
        <time>2022-02-09T10:56:03Z</time>
      </trkpt>
      <trkpt lat="42.86325" lon="0.22239">
        <ele>2414.4</ele>
        <time>2022-02-09T10:56:04Z</time>
      </trkpt>
      <trkpt lat="42.86325" lon="0.22239">
        <ele>2413</ele>
        <time>2022-02-09T10:56:05Z</time>
      </trkpt>
      <trkpt lat="42.86326" lon="0.22239">
        <ele>2414</ele>
        <time>2022-02-09T10:56:06Z</time>
      </trkpt>
      <trkpt lat="42.86327" lon="0.2224">
        <ele>2414</ele>
        <time>2022-02-09T10:56:07Z</time>
      </trkpt>
      <trkpt lat="42.86327" lon="0.2224">
        <ele>2414</ele>
        <time>2022-02-09T10:56:08Z</time>
      </trkpt>
      <trkpt lat="42.86328" lon="0.2224">
        <ele>2414</ele>
        <time>2022-02-09T10:56:09Z</time>
      </trkpt>
      <trkpt lat="42.86328" lon="0.22241">
        <ele>2414</ele>
        <time>2022-02-09T10:56:10Z</time>
      </trkpt>
      <trkpt lat="42.86329" lon="0.22241">
        <ele>2414</ele>
        <time>2022-02-09T10:56:11Z</time>
      </trkpt>
      <trkpt lat="42.86329" lon="0.22242">
        <ele>2415.1</ele>
        <time>2022-02-09T10:56:12Z</time>
      </trkpt>
      <trkpt lat="42.8633" lon="0.22242">
        <ele>2415.1</ele>
        <time>2022-02-09T10:56:13Z</time>
      </trkpt>
      <trkpt lat="42.86331" lon="0.22242">
        <ele>2415.1</ele>
        <time>2022-02-09T10:56:14Z</time>
      </trkpt>
      <trkpt lat="42.86331" lon="0.22243">
        <ele>2415.1</ele>
        <time>2022-02-09T10:56:15Z</time>
      </trkpt>
      <trkpt lat="42.86332" lon="0.22243">
        <ele>2413.8</ele>
        <time>2022-02-09T10:56:16Z</time>
      </trkpt>
      <trkpt lat="42.86333" lon="0.22244">
        <ele>2414.9</ele>
        <time>2022-02-09T10:56:17Z</time>
      </trkpt>
      <trkpt lat="42.86333" lon="0.22244">
        <ele>2414.9</ele>
        <time>2022-02-09T10:56:18Z</time>
      </trkpt>
      <trkpt lat="42.86334" lon="0.22244">
        <ele>2414.9</ele>
        <time>2022-02-09T10:56:19Z</time>
      </trkpt>
      <trkpt lat="42.86334" lon="0.22245">
        <ele>2414.9</ele>
        <time>2022-02-09T10:56:20Z</time>
      </trkpt>
      <trkpt lat="42.86335" lon="0.22245">
        <ele>2414.9</ele>
        <time>2022-02-09T10:56:21Z</time>
      </trkpt>
      <trkpt lat="42.86335" lon="0.22246">
        <ele>2416</ele>
        <time>2022-02-09T10:56:22Z</time>
      </trkpt>
      <trkpt lat="42.86336" lon="0.22246">
        <ele>2416</ele>
        <time>2022-02-09T10:56:23Z</time>
      </trkpt>
      <trkpt lat="42.86336" lon="0.22247">
        <ele>2416</ele>
        <time>2022-02-09T10:56:24Z</time>
      </trkpt>
      <trkpt lat="42.86337" lon="0.22247">
        <ele>2416</ele>
        <time>2022-02-09T10:56:25Z</time>
      </trkpt>
      <trkpt lat="42.86337" lon="0.22248">
        <ele>2414.8</ele>
        <time>2022-02-09T10:56:26Z</time>
      </trkpt>
      <trkpt lat="42.86338" lon="0.22248">
        <ele>2414.8</ele>
        <time>2022-02-09T10:56:27Z</time>
      </trkpt>
      <trkpt lat="42.86339" lon="0.22249">
        <ele>2415.9</ele>
        <time>2022-02-09T10:56:28Z</time>
      </trkpt>
      <trkpt lat="42.86339" lon="0.22249">
        <ele>2415.9</ele>
        <time>2022-02-09T10:56:29Z</time>
      </trkpt>
      <trkpt lat="42.8634" lon="0.2225">
        <ele>2415.9</ele>
        <time>2022-02-09T10:56:30Z</time>
      </trkpt>
      <trkpt lat="42.8634" lon="0.22251">
        <ele>2415.9</ele>
        <time>2022-02-09T10:56:31Z</time>
      </trkpt>
      <trkpt lat="42.86341" lon="0.22251">
        <ele>2415.9</ele>
        <time>2022-02-09T10:56:32Z</time>
      </trkpt>
      <trkpt lat="42.86341" lon="0.22252">
        <ele>2414.7</ele>
        <time>2022-02-09T10:56:33Z</time>
      </trkpt>
      <trkpt lat="42.86342" lon="0.22253">
        <ele>2415.8</ele>
        <time>2022-02-09T10:56:34Z</time>
      </trkpt>
      <trkpt lat="42.86342" lon="0.22253">
        <ele>2415.8</ele>
        <time>2022-02-09T10:56:35Z</time>
      </trkpt>
      <trkpt lat="42.86342" lon="0.22254">
        <ele>2415.8</ele>
        <time>2022-02-09T10:56:36Z</time>
      </trkpt>
      <trkpt lat="42.86343" lon="0.22255">
        <ele>2415.8</ele>
        <time>2022-02-09T10:56:37Z</time>
      </trkpt>
      <trkpt lat="42.86343" lon="0.22255">
        <ele>2415.8</ele>
        <time>2022-02-09T10:56:38Z</time>
      </trkpt>
      <trkpt lat="42.86344" lon="0.22256">
        <ele>2415.8</ele>
        <time>2022-02-09T10:56:39Z</time>
      </trkpt>
      <trkpt lat="42.86344" lon="0.22256">
        <ele>2414.7</ele>
        <time>2022-02-09T10:56:40Z</time>
      </trkpt>
      <trkpt lat="42.86345" lon="0.22257">
        <ele>2415.8</ele>
        <time>2022-02-09T10:56:41Z</time>
      </trkpt>
      <trkpt lat="42.86345" lon="0.22257">
        <ele>2415.8</ele>
        <time>2022-02-09T10:56:42Z</time>
      </trkpt>
      <trkpt lat="42.86346" lon="0.22258">
        <ele>2415.8</ele>
        <time>2022-02-09T10:56:43Z</time>
      </trkpt>
      <trkpt lat="42.86346" lon="0.22259">
        <ele>2415.8</ele>
        <time>2022-02-09T10:56:44Z</time>
      </trkpt>
      <trkpt lat="42.86347" lon="0.22259">
        <ele>2415.8</ele>
        <time>2022-02-09T10:56:45Z</time>
      </trkpt>
      <trkpt lat="42.86347" lon="0.2226">
        <ele>2415.8</ele>
        <time>2022-02-09T10:56:46Z</time>
      </trkpt>
      <trkpt lat="42.86347" lon="0.2226">
        <ele>2414.8</ele>
        <time>2022-02-09T10:56:47Z</time>
      </trkpt>
      <trkpt lat="42.86348" lon="0.22261">
        <ele>2414.8</ele>
        <time>2022-02-09T10:56:48Z</time>
      </trkpt>
      <trkpt lat="42.86348" lon="0.22262">
        <ele>2415.8</ele>
        <time>2022-02-09T10:56:49Z</time>
      </trkpt>
      <trkpt lat="42.86349" lon="0.22262">
        <ele>2415.8</ele>
        <time>2022-02-09T10:56:50Z</time>
      </trkpt>
      <trkpt lat="42.86349" lon="0.22263">
        <ele>2415.8</ele>
        <time>2022-02-09T10:56:51Z</time>
      </trkpt>
      <trkpt lat="42.86349" lon="0.22263">
        <ele>2415.8</ele>
        <time>2022-02-09T10:56:52Z</time>
      </trkpt>
      <trkpt lat="42.8635" lon="0.22264">
        <ele>2415.8</ele>
        <time>2022-02-09T10:56:53Z</time>
      </trkpt>
      <trkpt lat="42.86351" lon="0.22264">
        <ele>2415.8</ele>
        <time>2022-02-09T10:56:54Z</time>
      </trkpt>
      <trkpt lat="42.86351" lon="0.22264">
        <ele>2416.8</ele>
        <time>2022-02-09T10:56:55Z</time>
      </trkpt>
      <trkpt lat="42.86352" lon="0.22264">
        <ele>2416.8</ele>
        <time>2022-02-09T10:56:56Z</time>
      </trkpt>
      <trkpt lat="42.86352" lon="0.22263">
        <ele>2416.8</ele>
        <time>2022-02-09T10:56:57Z</time>
      </trkpt>
      <trkpt lat="42.86353" lon="0.22263">
        <ele>2416.8</ele>
        <time>2022-02-09T10:56:58Z</time>
      </trkpt>
      <trkpt lat="42.86353" lon="0.22262">
        <ele>2416.8</ele>
        <time>2022-02-09T10:56:59Z</time>
      </trkpt>
      <trkpt lat="42.86354" lon="0.22262">
        <ele>2416.8</ele>
        <time>2022-02-09T10:57:00Z</time>
      </trkpt>
      <trkpt lat="42.86354" lon="0.22261">
        <ele>2417.9</ele>
        <time>2022-02-09T10:57:01Z</time>
      </trkpt>
      <trkpt lat="42.86355" lon="0.22261">
        <ele>2417.9</ele>
        <time>2022-02-09T10:57:02Z</time>
      </trkpt>
      <trkpt lat="42.86355" lon="0.2226">
        <ele>2417.9</ele>
        <time>2022-02-09T10:57:03Z</time>
      </trkpt>
      <trkpt lat="42.86356" lon="0.2226">
        <ele>2418.9</ele>
        <time>2022-02-09T10:57:04Z</time>
      </trkpt>
      <trkpt lat="42.86356" lon="0.22259">
        <ele>2418.9</ele>
        <time>2022-02-09T10:57:05Z</time>
      </trkpt>
      <trkpt lat="42.86357" lon="0.22259">
        <ele>2418.9</ele>
        <time>2022-02-09T10:57:06Z</time>
      </trkpt>
      <trkpt lat="42.86357" lon="0.22258">
        <ele>2418.9</ele>
        <time>2022-02-09T10:57:07Z</time>
      </trkpt>
      <trkpt lat="42.86358" lon="0.22258">
        <ele>2420</ele>
        <time>2022-02-09T10:57:08Z</time>
      </trkpt>
      <trkpt lat="42.86358" lon="0.22258">
        <ele>2420</ele>
        <time>2022-02-09T10:57:09Z</time>
      </trkpt>
      <trkpt lat="42.86359" lon="0.22258">
        <ele>2420</ele>
        <time>2022-02-09T10:57:10Z</time>
      </trkpt>
      <trkpt lat="42.86359" lon="0.22258">
        <ele>2420</ele>
        <time>2022-02-09T10:57:11Z</time>
      </trkpt>
      <trkpt lat="42.8636" lon="0.22258">
        <ele>2420</ele>
        <time>2022-02-09T10:57:12Z</time>
      </trkpt>
      <trkpt lat="42.8636" lon="0.22258">
        <ele>2420</ele>
        <time>2022-02-09T10:57:13Z</time>
      </trkpt>
      <trkpt lat="42.86361" lon="0.22258">
        <ele>2421.2</ele>
        <time>2022-02-09T10:57:14Z</time>
      </trkpt>
      <trkpt lat="42.86362" lon="0.22259">
        <ele>2421.2</ele>
        <time>2022-02-09T10:57:15Z</time>
      </trkpt>
      <trkpt lat="42.86362" lon="0.22259">
        <ele>2421.2</ele>
        <time>2022-02-09T10:57:16Z</time>
      </trkpt>
      <trkpt lat="42.86363" lon="0.22259">
        <ele>2421.2</ele>
        <time>2022-02-09T10:57:17Z</time>
      </trkpt>
      <trkpt lat="42.86363" lon="0.22259">
        <ele>2421.2</ele>
        <time>2022-02-09T10:57:18Z</time>
      </trkpt>
      <trkpt lat="42.86364" lon="0.2226">
        <ele>2422.5</ele>
        <time>2022-02-09T10:57:19Z</time>
      </trkpt>
      <trkpt lat="42.86364" lon="0.2226">
        <ele>2422.5</ele>
        <time>2022-02-09T10:57:20Z</time>
      </trkpt>
      <trkpt lat="42.86365" lon="0.2226">
        <ele>2422.5</ele>
        <time>2022-02-09T10:57:21Z</time>
      </trkpt>
      <trkpt lat="42.86365" lon="0.2226">
        <ele>2422.5</ele>
        <time>2022-02-09T10:57:22Z</time>
      </trkpt>
      <trkpt lat="42.86366" lon="0.2226">
        <ele>2421.5</ele>
        <time>2022-02-09T10:57:23Z</time>
      </trkpt>
      <trkpt lat="42.86367" lon="0.2226">
        <ele>2421.5</ele>
        <time>2022-02-09T10:57:24Z</time>
      </trkpt>
      <trkpt lat="42.86367" lon="0.2226">
        <ele>2422.7</ele>
        <time>2022-02-09T10:57:25Z</time>
      </trkpt>
      <trkpt lat="42.86368" lon="0.2226">
        <ele>2422.7</ele>
        <time>2022-02-09T10:57:26Z</time>
      </trkpt>
      <trkpt lat="42.86369" lon="0.2226">
        <ele>2422.7</ele>
        <time>2022-02-09T10:57:27Z</time>
      </trkpt>
      <trkpt lat="42.86369" lon="0.22261">
        <ele>2422.7</ele>
        <time>2022-02-09T10:57:28Z</time>
      </trkpt>
      <trkpt lat="42.8637" lon="0.22261">
        <ele>2422.7</ele>
        <time>2022-02-09T10:57:29Z</time>
      </trkpt>
      <trkpt lat="42.8637" lon="0.22261">
        <ele>2423.8</ele>
        <time>2022-02-09T10:57:30Z</time>
      </trkpt>
      <trkpt lat="42.86371" lon="0.22261">
        <ele>2423.8</ele>
        <time>2022-02-09T10:57:31Z</time>
      </trkpt>
      <trkpt lat="42.86372" lon="0.22261">
        <ele>2423.8</ele>
        <time>2022-02-09T10:57:32Z</time>
      </trkpt>
      <trkpt lat="42.86372" lon="0.22261">
        <ele>2423.8</ele>
        <time>2022-02-09T10:57:33Z</time>
      </trkpt>
      <trkpt lat="42.86373" lon="0.22261">
        <ele>2424.8</ele>
        <time>2022-02-09T10:57:34Z</time>
      </trkpt>
      <trkpt lat="42.86374" lon="0.22262">
        <ele>2424.8</ele>
        <time>2022-02-09T10:57:35Z</time>
      </trkpt>
      <trkpt lat="42.86374" lon="0.22262">
        <ele>2424.8</ele>
        <time>2022-02-09T10:57:36Z</time>
      </trkpt>
      <trkpt lat="42.86375" lon="0.22262">
        <ele>2424.8</ele>
        <time>2022-02-09T10:57:37Z</time>
      </trkpt>
      <trkpt lat="42.86376" lon="0.22262">
        <ele>2424.8</ele>
        <time>2022-02-09T10:57:38Z</time>
      </trkpt>
      <trkpt lat="42.86377" lon="0.22262">
        <ele>2425.8</ele>
        <time>2022-02-09T10:57:39Z</time>
      </trkpt>
      <trkpt lat="42.86377" lon="0.22262">
        <ele>2425.8</ele>
        <time>2022-02-09T10:57:40Z</time>
      </trkpt>
      <trkpt lat="42.86377" lon="0.22261">
        <ele>2425.8</ele>
        <time>2022-02-09T10:57:41Z</time>
      </trkpt>
      <trkpt lat="42.86377" lon="0.22261">
        <ele>2425.8</ele>
        <time>2022-02-09T10:57:42Z</time>
      </trkpt>
      <trkpt lat="42.86377" lon="0.22261">
        <ele>2425.8</ele>
        <time>2022-02-09T10:57:43Z</time>
      </trkpt>
      <trkpt lat="42.86377" lon="0.22261">
        <ele>2425.8</ele>
        <time>2022-02-09T10:57:44Z</time>
      </trkpt>
      <trkpt lat="42.86377" lon="0.22261">
        <ele>2425.8</ele>
        <time>2022-02-09T10:57:45Z</time>
      </trkpt>
      <trkpt lat="42.86377" lon="0.22261">
        <ele>2425.8</ele>
        <time>2022-02-09T10:57:46Z</time>
      </trkpt>
      <trkpt lat="42.86377" lon="0.22261">
        <ele>2425.8</ele>
        <time>2022-02-09T10:57:47Z</time>
      </trkpt>
      <trkpt lat="42.86377" lon="0.22261">
        <ele>2425.8</ele>
        <time>2022-02-09T10:57:48Z</time>
      </trkpt>
      <trkpt lat="42.86377" lon="0.22261">
        <ele>2425.8</ele>
        <time>2022-02-09T10:57:49Z</time>
      </trkpt>
      <trkpt lat="42.86377" lon="0.22261">
        <ele>2425.8</ele>
        <time>2022-02-09T10:57:50Z</time>
      </trkpt>
      <trkpt lat="42.86377" lon="0.22261">
        <ele>2425.8</ele>
        <time>2022-02-09T10:57:51Z</time>
      </trkpt>
      <trkpt lat="42.86377" lon="0.22261">
        <ele>2425.8</ele>
        <time>2022-02-09T10:57:52Z</time>
      </trkpt>
      <trkpt lat="42.86377" lon="0.22261">
        <ele>2425.8</ele>
        <time>2022-02-09T10:57:53Z</time>
      </trkpt>
      <trkpt lat="42.86377" lon="0.22261">
        <ele>2425.8</ele>
        <time>2022-02-09T10:57:54Z</time>
      </trkpt>
      <trkpt lat="42.86378" lon="0.22262">
        <ele>2425.8</ele>
        <time>2022-02-09T10:57:55Z</time>
      </trkpt>
      <trkpt lat="42.86378" lon="0.22262">
        <ele>2425.8</ele>
        <time>2022-02-09T10:57:56Z</time>
      </trkpt>
      <trkpt lat="42.86378" lon="0.22262">
        <ele>2425.8</ele>
        <time>2022-02-09T10:57:57Z</time>
      </trkpt>
      <trkpt lat="42.86378" lon="0.22262">
        <ele>2425.8</ele>
        <time>2022-02-09T10:57:58Z</time>
      </trkpt>
      <trkpt lat="42.86378" lon="0.22262">
        <ele>2425.8</ele>
        <time>2022-02-09T10:57:59Z</time>
      </trkpt>
      <trkpt lat="42.86378" lon="0.22262">
        <ele>2425.8</ele>
        <time>2022-02-09T10:58:00Z</time>
      </trkpt>
      <trkpt lat="42.86378" lon="0.22262">
        <ele>2425.8</ele>
        <time>2022-02-09T10:58:01Z</time>
      </trkpt>
      <trkpt lat="42.86378" lon="0.22262">
        <ele>2425.8</ele>
        <time>2022-02-09T10:58:02Z</time>
      </trkpt>
      <trkpt lat="42.86378" lon="0.22262">
        <ele>2425.8</ele>
        <time>2022-02-09T10:58:03Z</time>
      </trkpt>
      <trkpt lat="42.86378" lon="0.22262">
        <ele>2425.8</ele>
        <time>2022-02-09T10:58:04Z</time>
      </trkpt>
      <trkpt lat="42.86378" lon="0.22262">
        <ele>2425.8</ele>
        <time>2022-02-09T10:58:05Z</time>
      </trkpt>
      <trkpt lat="42.86378" lon="0.22262">
        <ele>2425.8</ele>
        <time>2022-02-09T10:58:06Z</time>
      </trkpt>
      <trkpt lat="42.86378" lon="0.22262">
        <ele>2425.8</ele>
        <time>2022-02-09T10:58:07Z</time>
      </trkpt>
      <trkpt lat="42.86378" lon="0.22262">
        <ele>2425.8</ele>
        <time>2022-02-09T10:58:08Z</time>
      </trkpt>
      <trkpt lat="42.86378" lon="0.22262">
        <ele>2425.8</ele>
        <time>2022-02-09T10:58:09Z</time>
      </trkpt>
      <trkpt lat="42.86378" lon="0.22262">
        <ele>2425.8</ele>
        <time>2022-02-09T10:58:10Z</time>
      </trkpt>
      <trkpt lat="42.86378" lon="0.22262">
        <ele>2425.8</ele>
        <time>2022-02-09T10:58:11Z</time>
      </trkpt>
      <trkpt lat="42.86378" lon="0.22262">
        <ele>2425.8</ele>
        <time>2022-02-09T10:58:12Z</time>
      </trkpt>
      <trkpt lat="42.86378" lon="0.22262">
        <ele>2425.8</ele>
        <time>2022-02-09T10:58:13Z</time>
      </trkpt>
      <trkpt lat="42.86378" lon="0.22262">
        <ele>2425.8</ele>
        <time>2022-02-09T10:58:14Z</time>
      </trkpt>
      <trkpt lat="42.86378" lon="0.22262">
        <ele>2425.8</ele>
        <time>2022-02-09T10:58:15Z</time>
      </trkpt>
      <trkpt lat="42.86378" lon="0.22262">
        <ele>2425.8</ele>
        <time>2022-02-09T10:58:16Z</time>
      </trkpt>
      <trkpt lat="42.86378" lon="0.22262">
        <ele>2425.8</ele>
        <time>2022-02-09T10:58:17Z</time>
      </trkpt>
      <trkpt lat="42.86378" lon="0.22262">
        <ele>2425.8</ele>
        <time>2022-02-09T10:58:18Z</time>
      </trkpt>
      <trkpt lat="42.86378" lon="0.22262">
        <ele>2425.8</ele>
        <time>2022-02-09T10:58:19Z</time>
      </trkpt>
      <trkpt lat="42.86378" lon="0.22262">
        <ele>2425.8</ele>
        <time>2022-02-09T10:58:20Z</time>
      </trkpt>
      <trkpt lat="42.86378" lon="0.22262">
        <ele>2425.8</ele>
        <time>2022-02-09T10:58:21Z</time>
      </trkpt>
      <trkpt lat="42.86378" lon="0.22262">
        <ele>2425.8</ele>
        <time>2022-02-09T10:58:22Z</time>
      </trkpt>
      <trkpt lat="42.86378" lon="0.22262">
        <ele>2425.8</ele>
        <time>2022-02-09T10:58:23Z</time>
      </trkpt>
      <trkpt lat="42.86378" lon="0.22262">
        <ele>2425.8</ele>
        <time>2022-02-09T10:58:24Z</time>
      </trkpt>
      <trkpt lat="42.86378" lon="0.22262">
        <ele>2425.8</ele>
        <time>2022-02-09T10:58:25Z</time>
      </trkpt>
      <trkpt lat="42.86378" lon="0.22262">
        <ele>2425.8</ele>
        <time>2022-02-09T10:58:26Z</time>
      </trkpt>
      <trkpt lat="42.86378" lon="0.22262">
        <ele>2425.8</ele>
        <time>2022-02-09T10:58:27Z</time>
      </trkpt>
      <trkpt lat="42.86378" lon="0.22262">
        <ele>2425.8</ele>
        <time>2022-02-09T10:58:28Z</time>
      </trkpt>
      <trkpt lat="42.86378" lon="0.22262">
        <ele>2425.8</ele>
        <time>2022-02-09T10:58:29Z</time>
      </trkpt>
      <trkpt lat="42.86378" lon="0.22262">
        <ele>2425.8</ele>
        <time>2022-02-09T10:58:30Z</time>
      </trkpt>
      <trkpt lat="42.86378" lon="0.22262">
        <ele>2425.8</ele>
        <time>2022-02-09T10:58:31Z</time>
      </trkpt>
      <trkpt lat="42.86378" lon="0.22262">
        <ele>2425.8</ele>
        <time>2022-02-09T10:58:32Z</time>
      </trkpt>
      <trkpt lat="42.86378" lon="0.22262">
        <ele>2425.8</ele>
        <time>2022-02-09T10:58:33Z</time>
      </trkpt>
      <trkpt lat="42.86378" lon="0.22262">
        <ele>2425.8</ele>
        <time>2022-02-09T10:58:34Z</time>
      </trkpt>
      <trkpt lat="42.86378" lon="0.22262">
        <ele>2425.8</ele>
        <time>2022-02-09T10:58:35Z</time>
      </trkpt>
      <trkpt lat="42.86378" lon="0.22262">
        <ele>2425.8</ele>
        <time>2022-02-09T10:58:36Z</time>
      </trkpt>
      <trkpt lat="42.86378" lon="0.22262">
        <ele>2425.8</ele>
        <time>2022-02-09T10:58:37Z</time>
      </trkpt>
      <trkpt lat="42.86378" lon="0.22262">
        <ele>2425.8</ele>
        <time>2022-02-09T10:58:38Z</time>
      </trkpt>
      <trkpt lat="42.86378" lon="0.22262">
        <ele>2425.8</ele>
        <time>2022-02-09T10:58:39Z</time>
      </trkpt>
      <trkpt lat="42.86378" lon="0.22262">
        <ele>2425.8</ele>
        <time>2022-02-09T10:58:40Z</time>
      </trkpt>
      <trkpt lat="42.86378" lon="0.22262">
        <ele>2425.8</ele>
        <time>2022-02-09T10:58:41Z</time>
      </trkpt>
      <trkpt lat="42.86378" lon="0.22262">
        <ele>2425.8</ele>
        <time>2022-02-09T10:58:42Z</time>
      </trkpt>
      <trkpt lat="42.86378" lon="0.22262">
        <ele>2425.8</ele>
        <time>2022-02-09T10:58:43Z</time>
      </trkpt>
      <trkpt lat="42.86378" lon="0.22262">
        <ele>2425.8</ele>
        <time>2022-02-09T10:58:44Z</time>
      </trkpt>
      <trkpt lat="42.86378" lon="0.22262">
        <ele>2425.8</ele>
        <time>2022-02-09T10:58:45Z</time>
      </trkpt>
      <trkpt lat="42.86378" lon="0.22262">
        <ele>2425.8</ele>
        <time>2022-02-09T10:58:46Z</time>
      </trkpt>
      <trkpt lat="42.86378" lon="0.22262">
        <ele>2425.8</ele>
        <time>2022-02-09T10:58:47Z</time>
      </trkpt>
      <trkpt lat="42.86378" lon="0.22262">
        <ele>2425.8</ele>
        <time>2022-02-09T10:58:48Z</time>
      </trkpt>
      <trkpt lat="42.86378" lon="0.22262">
        <ele>2425.8</ele>
        <time>2022-02-09T10:58:49Z</time>
      </trkpt>
      <trkpt lat="42.86378" lon="0.22262">
        <ele>2425.8</ele>
        <time>2022-02-09T10:58:50Z</time>
      </trkpt>
      <trkpt lat="42.86378" lon="0.22262">
        <ele>2425.8</ele>
        <time>2022-02-09T10:58:51Z</time>
      </trkpt>
      <trkpt lat="42.86378" lon="0.22262">
        <ele>2425.8</ele>
        <time>2022-02-09T10:58:52Z</time>
      </trkpt>
      <trkpt lat="42.86378" lon="0.22262">
        <ele>2425.8</ele>
        <time>2022-02-09T10:58:53Z</time>
      </trkpt>
      <trkpt lat="42.86378" lon="0.22262">
        <ele>2425.8</ele>
        <time>2022-02-09T10:58:54Z</time>
      </trkpt>
      <trkpt lat="42.86378" lon="0.22262">
        <ele>2425.8</ele>
        <time>2022-02-09T10:58:55Z</time>
      </trkpt>
      <trkpt lat="42.86378" lon="0.22262">
        <ele>2425.8</ele>
        <time>2022-02-09T10:58:56Z</time>
      </trkpt>
      <trkpt lat="42.86378" lon="0.22262">
        <ele>2425.8</ele>
        <time>2022-02-09T10:58:57Z</time>
      </trkpt>
      <trkpt lat="42.86378" lon="0.22262">
        <ele>2425.8</ele>
        <time>2022-02-09T10:58:58Z</time>
      </trkpt>
      <trkpt lat="42.86378" lon="0.22262">
        <ele>2425.8</ele>
        <time>2022-02-09T10:58:59Z</time>
      </trkpt>
      <trkpt lat="42.86378" lon="0.22262">
        <ele>2425.8</ele>
        <time>2022-02-09T10:59:00Z</time>
      </trkpt>
      <trkpt lat="42.86378" lon="0.22262">
        <ele>2425.8</ele>
        <time>2022-02-09T10:59:01Z</time>
      </trkpt>
      <trkpt lat="42.86378" lon="0.22262">
        <ele>2425.8</ele>
        <time>2022-02-09T10:59:02Z</time>
      </trkpt>
      <trkpt lat="42.86378" lon="0.22262">
        <ele>2425.8</ele>
        <time>2022-02-09T10:59:03Z</time>
      </trkpt>
      <trkpt lat="42.86378" lon="0.22262">
        <ele>2425.8</ele>
        <time>2022-02-09T10:59:04Z</time>
      </trkpt>
      <trkpt lat="42.86378" lon="0.22262">
        <ele>2425.8</ele>
        <time>2022-02-09T10:59:05Z</time>
      </trkpt>
      <trkpt lat="42.86378" lon="0.22262">
        <ele>2425.8</ele>
        <time>2022-02-09T10:59:06Z</time>
      </trkpt>
      <trkpt lat="42.86378" lon="0.22262">
        <ele>2425.8</ele>
        <time>2022-02-09T10:59:07Z</time>
      </trkpt>
      <trkpt lat="42.86378" lon="0.22262">
        <ele>2425.8</ele>
        <time>2022-02-09T10:59:08Z</time>
      </trkpt>
      <trkpt lat="42.86378" lon="0.22262">
        <ele>2425.8</ele>
        <time>2022-02-09T10:59:09Z</time>
      </trkpt>
      <trkpt lat="42.86378" lon="0.22262">
        <ele>2425.8</ele>
        <time>2022-02-09T10:59:10Z</time>
      </trkpt>
      <trkpt lat="42.86378" lon="0.22262">
        <ele>2425.8</ele>
        <time>2022-02-09T10:59:11Z</time>
      </trkpt>
      <trkpt lat="42.86378" lon="0.22262">
        <ele>2425.8</ele>
        <time>2022-02-09T10:59:12Z</time>
      </trkpt>
      <trkpt lat="42.86378" lon="0.22262">
        <ele>2425.8</ele>
        <time>2022-02-09T10:59:13Z</time>
      </trkpt>
      <trkpt lat="42.86378" lon="0.22262">
        <ele>2425.8</ele>
        <time>2022-02-09T10:59:14Z</time>
      </trkpt>
      <trkpt lat="42.86378" lon="0.22262">
        <ele>2425.8</ele>
        <time>2022-02-09T10:59:15Z</time>
      </trkpt>
      <trkpt lat="42.86378" lon="0.22262">
        <ele>2425.8</ele>
        <time>2022-02-09T10:59:16Z</time>
      </trkpt>
      <trkpt lat="42.86378" lon="0.22262">
        <ele>2425.8</ele>
        <time>2022-02-09T10:59:17Z</time>
      </trkpt>
      <trkpt lat="42.86378" lon="0.22262">
        <ele>2425.8</ele>
        <time>2022-02-09T10:59:18Z</time>
      </trkpt>
      <trkpt lat="42.86378" lon="0.22262">
        <ele>2425.8</ele>
        <time>2022-02-09T10:59:19Z</time>
      </trkpt>
      <trkpt lat="42.86378" lon="0.22262">
        <ele>2425.8</ele>
        <time>2022-02-09T10:59:20Z</time>
      </trkpt>
      <trkpt lat="42.86378" lon="0.22262">
        <ele>2425.8</ele>
        <time>2022-02-09T10:59:21Z</time>
      </trkpt>
      <trkpt lat="42.86378" lon="0.22262">
        <ele>2425.8</ele>
        <time>2022-02-09T10:59:22Z</time>
      </trkpt>
      <trkpt lat="42.86378" lon="0.22262">
        <ele>2425.8</ele>
        <time>2022-02-09T10:59:23Z</time>
      </trkpt>
      <trkpt lat="42.86378" lon="0.22262">
        <ele>2425.8</ele>
        <time>2022-02-09T10:59:24Z</time>
      </trkpt>
      <trkpt lat="42.86378" lon="0.22262">
        <ele>2425.8</ele>
        <time>2022-02-09T10:59:25Z</time>
      </trkpt>
      <trkpt lat="42.86378" lon="0.22262">
        <ele>2425.8</ele>
        <time>2022-02-09T10:59:26Z</time>
      </trkpt>
      <trkpt lat="42.86378" lon="0.22262">
        <ele>2425.8</ele>
        <time>2022-02-09T10:59:27Z</time>
      </trkpt>
      <trkpt lat="42.86378" lon="0.22262">
        <ele>2425.8</ele>
        <time>2022-02-09T10:59:28Z</time>
      </trkpt>
      <trkpt lat="42.86378" lon="0.22262">
        <ele>2425.8</ele>
        <time>2022-02-09T10:59:29Z</time>
      </trkpt>
      <trkpt lat="42.86378" lon="0.22262">
        <ele>2425.8</ele>
        <time>2022-02-09T10:59:30Z</time>
      </trkpt>
      <trkpt lat="42.86378" lon="0.22262">
        <ele>2425.8</ele>
        <time>2022-02-09T10:59:31Z</time>
      </trkpt>
      <trkpt lat="42.86378" lon="0.22262">
        <ele>2425.8</ele>
        <time>2022-02-09T10:59:32Z</time>
      </trkpt>
      <trkpt lat="42.86378" lon="0.22262">
        <ele>2425.8</ele>
        <time>2022-02-09T10:59:33Z</time>
      </trkpt>
      <trkpt lat="42.86378" lon="0.22262">
        <ele>2425.8</ele>
        <time>2022-02-09T10:59:34Z</time>
      </trkpt>
      <trkpt lat="42.86378" lon="0.22262">
        <ele>2425.8</ele>
        <time>2022-02-09T10:59:35Z</time>
      </trkpt>
      <trkpt lat="42.86378" lon="0.22262">
        <ele>2425.8</ele>
        <time>2022-02-09T10:59:36Z</time>
      </trkpt>
      <trkpt lat="42.86378" lon="0.22262">
        <ele>2425.8</ele>
        <time>2022-02-09T10:59:37Z</time>
      </trkpt>
      <trkpt lat="42.86378" lon="0.22262">
        <ele>2425.8</ele>
        <time>2022-02-09T10:59:38Z</time>
      </trkpt>
      <trkpt lat="42.86378" lon="0.22262">
        <ele>2425.8</ele>
        <time>2022-02-09T10:59:39Z</time>
      </trkpt>
      <trkpt lat="42.86378" lon="0.22262">
        <ele>2425.8</ele>
        <time>2022-02-09T10:59:40Z</time>
      </trkpt>
      <trkpt lat="42.86378" lon="0.22262">
        <ele>2425.8</ele>
        <time>2022-02-09T10:59:41Z</time>
      </trkpt>
      <trkpt lat="42.86378" lon="0.22262">
        <ele>2425.8</ele>
        <time>2022-02-09T10:59:42Z</time>
      </trkpt>
      <trkpt lat="42.86378" lon="0.22262">
        <ele>2425.8</ele>
        <time>2022-02-09T10:59:43Z</time>
      </trkpt>
      <trkpt lat="42.86378" lon="0.22262">
        <ele>2425.8</ele>
        <time>2022-02-09T10:59:44Z</time>
      </trkpt>
      <trkpt lat="42.86378" lon="0.22262">
        <ele>2425.8</ele>
        <time>2022-02-09T10:59:45Z</time>
      </trkpt>
      <trkpt lat="42.86378" lon="0.22262">
        <ele>2425.8</ele>
        <time>2022-02-09T10:59:46Z</time>
      </trkpt>
      <trkpt lat="42.86378" lon="0.22262">
        <ele>2425.8</ele>
        <time>2022-02-09T10:59:47Z</time>
      </trkpt>
      <trkpt lat="42.86378" lon="0.22262">
        <ele>2425.8</ele>
        <time>2022-02-09T10:59:48Z</time>
      </trkpt>
      <trkpt lat="42.86378" lon="0.22262">
        <ele>2425.8</ele>
        <time>2022-02-09T10:59:49Z</time>
      </trkpt>
      <trkpt lat="42.86378" lon="0.22262">
        <ele>2425.8</ele>
        <time>2022-02-09T10:59:50Z</time>
      </trkpt>
      <trkpt lat="42.86378" lon="0.22262">
        <ele>2425.8</ele>
        <time>2022-02-09T10:59:51Z</time>
      </trkpt>
      <trkpt lat="42.86378" lon="0.22262">
        <ele>2425.8</ele>
        <time>2022-02-09T10:59:52Z</time>
      </trkpt>
      <trkpt lat="42.86378" lon="0.22262">
        <ele>2425.8</ele>
        <time>2022-02-09T10:59:53Z</time>
      </trkpt>
      <trkpt lat="42.86378" lon="0.22262">
        <ele>2425.8</ele>
        <time>2022-02-09T10:59:54Z</time>
      </trkpt>
      <trkpt lat="42.86378" lon="0.22262">
        <ele>2425.8</ele>
        <time>2022-02-09T10:59:55Z</time>
      </trkpt>
      <trkpt lat="42.86378" lon="0.22262">
        <ele>2425.8</ele>
        <time>2022-02-09T10:59:56Z</time>
      </trkpt>
      <trkpt lat="42.86378" lon="0.22262">
        <ele>2425.8</ele>
        <time>2022-02-09T10:59:57Z</time>
      </trkpt>
      <trkpt lat="42.86378" lon="0.22262">
        <ele>2425.8</ele>
        <time>2022-02-09T10:59:58Z</time>
      </trkpt>
      <trkpt lat="42.86378" lon="0.22262">
        <ele>2425.8</ele>
        <time>2022-02-09T10:59:59Z</time>
      </trkpt>
      <trkpt lat="42.86378" lon="0.22262">
        <ele>2425.8</ele>
        <time>2022-02-09T11:00:00Z</time>
      </trkpt>
      <trkpt lat="42.86378" lon="0.22262">
        <ele>2425.8</ele>
        <time>2022-02-09T11:00:01Z</time>
      </trkpt>
      <trkpt lat="42.86378" lon="0.22262">
        <ele>2425.8</ele>
        <time>2022-02-09T11:00:02Z</time>
      </trkpt>
      <trkpt lat="42.86378" lon="0.22262">
        <ele>2425.8</ele>
        <time>2022-02-09T11:00:03Z</time>
      </trkpt>
      <trkpt lat="42.86378" lon="0.22262">
        <ele>2425.8</ele>
        <time>2022-02-09T11:00:04Z</time>
      </trkpt>
      <trkpt lat="42.86378" lon="0.22262">
        <ele>2425.8</ele>
        <time>2022-02-09T11:00:05Z</time>
      </trkpt>
      <trkpt lat="42.86378" lon="0.22262">
        <ele>2425.8</ele>
        <time>2022-02-09T11:00:06Z</time>
      </trkpt>
      <trkpt lat="42.86378" lon="0.22262">
        <ele>2425.8</ele>
        <time>2022-02-09T11:00:07Z</time>
      </trkpt>
      <trkpt lat="42.86378" lon="0.22262">
        <ele>2425.8</ele>
        <time>2022-02-09T11:00:08Z</time>
      </trkpt>
      <trkpt lat="42.86378" lon="0.22262">
        <ele>2425.8</ele>
        <time>2022-02-09T11:00:09Z</time>
      </trkpt>
      <trkpt lat="42.86378" lon="0.22262">
        <ele>2425.8</ele>
        <time>2022-02-09T11:00:10Z</time>
      </trkpt>
      <trkpt lat="42.86378" lon="0.22262">
        <ele>2425.8</ele>
        <time>2022-02-09T11:00:11Z</time>
      </trkpt>
      <trkpt lat="42.86378" lon="0.22262">
        <ele>2425.8</ele>
        <time>2022-02-09T11:00:12Z</time>
      </trkpt>
      <trkpt lat="42.86378" lon="0.22262">
        <ele>2425.8</ele>
        <time>2022-02-09T11:00:13Z</time>
      </trkpt>
      <trkpt lat="42.86378" lon="0.22262">
        <ele>2425.8</ele>
        <time>2022-02-09T11:00:14Z</time>
      </trkpt>
      <trkpt lat="42.86378" lon="0.22262">
        <ele>2425.8</ele>
        <time>2022-02-09T11:00:15Z</time>
      </trkpt>
      <trkpt lat="42.86378" lon="0.22262">
        <ele>2425.8</ele>
        <time>2022-02-09T11:00:16Z</time>
      </trkpt>
      <trkpt lat="42.86378" lon="0.22262">
        <ele>2425.8</ele>
        <time>2022-02-09T11:00:17Z</time>
      </trkpt>
      <trkpt lat="42.86378" lon="0.22262">
        <ele>2425.8</ele>
        <time>2022-02-09T11:00:18Z</time>
      </trkpt>
      <trkpt lat="42.86378" lon="0.22262">
        <ele>2425.8</ele>
        <time>2022-02-09T11:00:19Z</time>
      </trkpt>
      <trkpt lat="42.86378" lon="0.22262">
        <ele>2425.8</ele>
        <time>2022-02-09T11:00:20Z</time>
      </trkpt>
      <trkpt lat="42.86378" lon="0.22262">
        <ele>2425.8</ele>
        <time>2022-02-09T11:00:21Z</time>
      </trkpt>
      <trkpt lat="42.86378" lon="0.22262">
        <ele>2425.8</ele>
        <time>2022-02-09T11:00:22Z</time>
      </trkpt>
      <trkpt lat="42.86378" lon="0.22262">
        <ele>2425.8</ele>
        <time>2022-02-09T11:00:23Z</time>
      </trkpt>
      <trkpt lat="42.86378" lon="0.22262">
        <ele>2425.8</ele>
        <time>2022-02-09T11:00:24Z</time>
      </trkpt>
      <trkpt lat="42.86378" lon="0.22262">
        <ele>2425.8</ele>
        <time>2022-02-09T11:00:25Z</time>
      </trkpt>
      <trkpt lat="42.86378" lon="0.22262">
        <ele>2425.8</ele>
        <time>2022-02-09T11:00:26Z</time>
      </trkpt>
      <trkpt lat="42.86378" lon="0.22262">
        <ele>2425.8</ele>
        <time>2022-02-09T11:00:27Z</time>
      </trkpt>
      <trkpt lat="42.86378" lon="0.22262">
        <ele>2425.8</ele>
        <time>2022-02-09T11:00:28Z</time>
      </trkpt>
      <trkpt lat="42.86378" lon="0.22262">
        <ele>2425.8</ele>
        <time>2022-02-09T11:00:29Z</time>
      </trkpt>
      <trkpt lat="42.86378" lon="0.22262">
        <ele>2425.8</ele>
        <time>2022-02-09T11:00:30Z</time>
      </trkpt>
      <trkpt lat="42.86378" lon="0.22262">
        <ele>2425.8</ele>
        <time>2022-02-09T11:00:31Z</time>
      </trkpt>
      <trkpt lat="42.86378" lon="0.22262">
        <ele>2425.8</ele>
        <time>2022-02-09T11:00:32Z</time>
      </trkpt>
      <trkpt lat="42.86378" lon="0.22262">
        <ele>2425.8</ele>
        <time>2022-02-09T11:00:33Z</time>
      </trkpt>
      <trkpt lat="42.86378" lon="0.22262">
        <ele>2425.8</ele>
        <time>2022-02-09T11:00:34Z</time>
      </trkpt>
      <trkpt lat="42.86378" lon="0.22262">
        <ele>2425.8</ele>
        <time>2022-02-09T11:00:35Z</time>
      </trkpt>
      <trkpt lat="42.86378" lon="0.22262">
        <ele>2425.8</ele>
        <time>2022-02-09T11:00:36Z</time>
      </trkpt>
      <trkpt lat="42.86378" lon="0.22262">
        <ele>2425.8</ele>
        <time>2022-02-09T11:00:37Z</time>
      </trkpt>
      <trkpt lat="42.86378" lon="0.22262">
        <ele>2425.8</ele>
        <time>2022-02-09T11:00:38Z</time>
      </trkpt>
      <trkpt lat="42.86378" lon="0.22262">
        <ele>2425.8</ele>
        <time>2022-02-09T11:00:39Z</time>
      </trkpt>
      <trkpt lat="42.86378" lon="0.22262">
        <ele>2425.8</ele>
        <time>2022-02-09T11:00:40Z</time>
      </trkpt>
      <trkpt lat="42.86378" lon="0.22262">
        <ele>2425.8</ele>
        <time>2022-02-09T11:00:41Z</time>
      </trkpt>
      <trkpt lat="42.86378" lon="0.22262">
        <ele>2425.8</ele>
        <time>2022-02-09T11:00:42Z</time>
      </trkpt>
      <trkpt lat="42.86378" lon="0.22262">
        <ele>2425.8</ele>
        <time>2022-02-09T11:00:43Z</time>
      </trkpt>
      <trkpt lat="42.86378" lon="0.22262">
        <ele>2425.8</ele>
        <time>2022-02-09T11:00:44Z</time>
      </trkpt>
      <trkpt lat="42.86378" lon="0.22262">
        <ele>2425.8</ele>
        <time>2022-02-09T11:00:45Z</time>
      </trkpt>
      <trkpt lat="42.86378" lon="0.22262">
        <ele>2425.8</ele>
        <time>2022-02-09T11:00:46Z</time>
      </trkpt>
      <trkpt lat="42.86378" lon="0.22262">
        <ele>2425.8</ele>
        <time>2022-02-09T11:00:47Z</time>
      </trkpt>
      <trkpt lat="42.86378" lon="0.22262">
        <ele>2425.8</ele>
        <time>2022-02-09T11:00:48Z</time>
      </trkpt>
      <trkpt lat="42.86378" lon="0.22262">
        <ele>2425.8</ele>
        <time>2022-02-09T11:00:49Z</time>
      </trkpt>
      <trkpt lat="42.86378" lon="0.22262">
        <ele>2425.8</ele>
        <time>2022-02-09T11:00:50Z</time>
      </trkpt>
      <trkpt lat="42.86378" lon="0.22262">
        <ele>2425.8</ele>
        <time>2022-02-09T11:00:51Z</time>
      </trkpt>
      <trkpt lat="42.86378" lon="0.22262">
        <ele>2425.8</ele>
        <time>2022-02-09T11:00:52Z</time>
      </trkpt>
      <trkpt lat="42.86378" lon="0.22262">
        <ele>2425.8</ele>
        <time>2022-02-09T11:00:53Z</time>
      </trkpt>
      <trkpt lat="42.86378" lon="0.22262">
        <ele>2425.8</ele>
        <time>2022-02-09T11:00:54Z</time>
      </trkpt>
      <trkpt lat="42.86378" lon="0.22262">
        <ele>2425.8</ele>
        <time>2022-02-09T11:00:55Z</time>
      </trkpt>
      <trkpt lat="42.86378" lon="0.22262">
        <ele>2425.8</ele>
        <time>2022-02-09T11:00:56Z</time>
      </trkpt>
      <trkpt lat="42.86378" lon="0.22262">
        <ele>2425.8</ele>
        <time>2022-02-09T11:00:57Z</time>
      </trkpt>
      <trkpt lat="42.86378" lon="0.22262">
        <ele>2425.8</ele>
        <time>2022-02-09T11:00:58Z</time>
      </trkpt>
      <trkpt lat="42.86378" lon="0.22262">
        <ele>2425.8</ele>
        <time>2022-02-09T11:00:59Z</time>
      </trkpt>
      <trkpt lat="42.86378" lon="0.22262">
        <ele>2425.8</ele>
        <time>2022-02-09T11:01:00Z</time>
      </trkpt>
      <trkpt lat="42.86378" lon="0.22262">
        <ele>2425.8</ele>
        <time>2022-02-09T11:01:01Z</time>
      </trkpt>
      <trkpt lat="42.86378" lon="0.22262">
        <ele>2425.8</ele>
        <time>2022-02-09T11:01:02Z</time>
      </trkpt>
      <trkpt lat="42.86378" lon="0.22262">
        <ele>2425.8</ele>
        <time>2022-02-09T11:01:03Z</time>
      </trkpt>
      <trkpt lat="42.86378" lon="0.22262">
        <ele>2425.8</ele>
        <time>2022-02-09T11:01:04Z</time>
      </trkpt>
      <trkpt lat="42.86378" lon="0.22262">
        <ele>2425.8</ele>
        <time>2022-02-09T11:01:05Z</time>
      </trkpt>
      <trkpt lat="42.86378" lon="0.22262">
        <ele>2425.8</ele>
        <time>2022-02-09T11:01:06Z</time>
      </trkpt>
      <trkpt lat="42.86378" lon="0.22262">
        <ele>2425.8</ele>
        <time>2022-02-09T11:01:07Z</time>
      </trkpt>
      <trkpt lat="42.86378" lon="0.22262">
        <ele>2425.8</ele>
        <time>2022-02-09T11:01:08Z</time>
      </trkpt>
      <trkpt lat="42.86378" lon="0.22262">
        <ele>2425.8</ele>
        <time>2022-02-09T11:01:09Z</time>
      </trkpt>
      <trkpt lat="42.86378" lon="0.22262">
        <ele>2425.8</ele>
        <time>2022-02-09T11:01:10Z</time>
      </trkpt>
      <trkpt lat="42.86378" lon="0.22262">
        <ele>2425.8</ele>
        <time>2022-02-09T11:01:11Z</time>
      </trkpt>
      <trkpt lat="42.86378" lon="0.22262">
        <ele>2425.8</ele>
        <time>2022-02-09T11:01:12Z</time>
      </trkpt>
      <trkpt lat="42.86378" lon="0.22262">
        <ele>2425.8</ele>
        <time>2022-02-09T11:01:13Z</time>
      </trkpt>
      <trkpt lat="42.86378" lon="0.22262">
        <ele>2425.8</ele>
        <time>2022-02-09T11:01:14Z</time>
      </trkpt>
      <trkpt lat="42.86378" lon="0.22262">
        <ele>2425.8</ele>
        <time>2022-02-09T11:01:15Z</time>
      </trkpt>
      <trkpt lat="42.86378" lon="0.22262">
        <ele>2425.8</ele>
        <time>2022-02-09T11:01:16Z</time>
      </trkpt>
      <trkpt lat="42.86378" lon="0.22262">
        <ele>2425.8</ele>
        <time>2022-02-09T11:01:17Z</time>
      </trkpt>
      <trkpt lat="42.86378" lon="0.22262">
        <ele>2425.8</ele>
        <time>2022-02-09T11:01:18Z</time>
      </trkpt>
      <trkpt lat="42.86378" lon="0.22262">
        <ele>2425.8</ele>
        <time>2022-02-09T11:01:19Z</time>
      </trkpt>
      <trkpt lat="42.86378" lon="0.22262">
        <ele>2425.8</ele>
        <time>2022-02-09T11:01:20Z</time>
      </trkpt>
      <trkpt lat="42.86378" lon="0.22262">
        <ele>2425.8</ele>
        <time>2022-02-09T11:01:21Z</time>
      </trkpt>
      <trkpt lat="42.86378" lon="0.22262">
        <ele>2425.8</ele>
        <time>2022-02-09T11:01:22Z</time>
      </trkpt>
      <trkpt lat="42.86378" lon="0.22262">
        <ele>2425.8</ele>
        <time>2022-02-09T11:01:23Z</time>
      </trkpt>
      <trkpt lat="42.86378" lon="0.22262">
        <ele>2425.8</ele>
        <time>2022-02-09T11:01:24Z</time>
      </trkpt>
      <trkpt lat="42.86378" lon="0.22262">
        <ele>2425.8</ele>
        <time>2022-02-09T11:01:25Z</time>
      </trkpt>
      <trkpt lat="42.86378" lon="0.22262">
        <ele>2425.8</ele>
        <time>2022-02-09T11:01:26Z</time>
      </trkpt>
      <trkpt lat="42.86378" lon="0.22262">
        <ele>2425.8</ele>
        <time>2022-02-09T11:01:27Z</time>
      </trkpt>
      <trkpt lat="42.86378" lon="0.22262">
        <ele>2425.8</ele>
        <time>2022-02-09T11:01:28Z</time>
      </trkpt>
      <trkpt lat="42.86378" lon="0.22262">
        <ele>2425.8</ele>
        <time>2022-02-09T11:01:29Z</time>
      </trkpt>
      <trkpt lat="42.86378" lon="0.22262">
        <ele>2425.8</ele>
        <time>2022-02-09T11:01:30Z</time>
      </trkpt>
      <trkpt lat="42.86378" lon="0.22262">
        <ele>2425.8</ele>
        <time>2022-02-09T11:01:31Z</time>
      </trkpt>
      <trkpt lat="42.86378" lon="0.22262">
        <ele>2425.8</ele>
        <time>2022-02-09T11:01:32Z</time>
      </trkpt>
      <trkpt lat="42.86378" lon="0.22262">
        <ele>2425.8</ele>
        <time>2022-02-09T11:01:33Z</time>
      </trkpt>
      <trkpt lat="42.86378" lon="0.22262">
        <ele>2425.8</ele>
        <time>2022-02-09T11:01:34Z</time>
      </trkpt>
      <trkpt lat="42.86378" lon="0.22262">
        <ele>2425.8</ele>
        <time>2022-02-09T11:01:35Z</time>
      </trkpt>
      <trkpt lat="42.86378" lon="0.22262">
        <ele>2425.8</ele>
        <time>2022-02-09T11:01:36Z</time>
      </trkpt>
      <trkpt lat="42.86378" lon="0.22262">
        <ele>2425.8</ele>
        <time>2022-02-09T11:01:37Z</time>
      </trkpt>
      <trkpt lat="42.86378" lon="0.22262">
        <ele>2425.8</ele>
        <time>2022-02-09T11:01:38Z</time>
      </trkpt>
      <trkpt lat="42.86378" lon="0.22262">
        <ele>2425.8</ele>
        <time>2022-02-09T11:01:39Z</time>
      </trkpt>
      <trkpt lat="42.86378" lon="0.22262">
        <ele>2425.8</ele>
        <time>2022-02-09T11:01:40Z</time>
      </trkpt>
      <trkpt lat="42.86378" lon="0.22262">
        <ele>2425.8</ele>
        <time>2022-02-09T11:01:41Z</time>
      </trkpt>
      <trkpt lat="42.86378" lon="0.22262">
        <ele>2425.8</ele>
        <time>2022-02-09T11:01:42Z</time>
      </trkpt>
      <trkpt lat="42.86378" lon="0.22262">
        <ele>2425.8</ele>
        <time>2022-02-09T11:01:43Z</time>
      </trkpt>
      <trkpt lat="42.86378" lon="0.22262">
        <ele>2425.8</ele>
        <time>2022-02-09T11:01:44Z</time>
      </trkpt>
      <trkpt lat="42.86378" lon="0.22262">
        <ele>2425.8</ele>
        <time>2022-02-09T11:01:45Z</time>
      </trkpt>
      <trkpt lat="42.86378" lon="0.22262">
        <ele>2425.8</ele>
        <time>2022-02-09T11:01:46Z</time>
      </trkpt>
      <trkpt lat="42.86378" lon="0.22262">
        <ele>2425.8</ele>
        <time>2022-02-09T11:01:47Z</time>
      </trkpt>
      <trkpt lat="42.86378" lon="0.22262">
        <ele>2425.8</ele>
        <time>2022-02-09T11:01:48Z</time>
      </trkpt>
      <trkpt lat="42.86378" lon="0.22262">
        <ele>2425.8</ele>
        <time>2022-02-09T11:01:49Z</time>
      </trkpt>
      <trkpt lat="42.86378" lon="0.22262">
        <ele>2425.8</ele>
        <time>2022-02-09T11:01:50Z</time>
      </trkpt>
      <trkpt lat="42.86378" lon="0.22262">
        <ele>2425.8</ele>
        <time>2022-02-09T11:01:51Z</time>
      </trkpt>
      <trkpt lat="42.86378" lon="0.22262">
        <ele>2425.8</ele>
        <time>2022-02-09T11:01:52Z</time>
      </trkpt>
      <trkpt lat="42.86378" lon="0.22262">
        <ele>2425.8</ele>
        <time>2022-02-09T11:01:53Z</time>
      </trkpt>
      <trkpt lat="42.86378" lon="0.22262">
        <ele>2425.8</ele>
        <time>2022-02-09T11:01:54Z</time>
      </trkpt>
      <trkpt lat="42.86378" lon="0.22262">
        <ele>2425.8</ele>
        <time>2022-02-09T11:01:55Z</time>
      </trkpt>
      <trkpt lat="42.86378" lon="0.22262">
        <ele>2425.8</ele>
        <time>2022-02-09T11:01:56Z</time>
      </trkpt>
      <trkpt lat="42.86378" lon="0.22262">
        <ele>2425.8</ele>
        <time>2022-02-09T11:01:57Z</time>
      </trkpt>
      <trkpt lat="42.86378" lon="0.22262">
        <ele>2425.8</ele>
        <time>2022-02-09T11:01:58Z</time>
      </trkpt>
      <trkpt lat="42.86378" lon="0.22262">
        <ele>2425.8</ele>
        <time>2022-02-09T11:01:59Z</time>
      </trkpt>
      <trkpt lat="42.86378" lon="0.22262">
        <ele>2425.8</ele>
        <time>2022-02-09T11:02:00Z</time>
      </trkpt>
      <trkpt lat="42.86378" lon="0.22262">
        <ele>2425.8</ele>
        <time>2022-02-09T11:02:01Z</time>
      </trkpt>
      <trkpt lat="42.86378" lon="0.22262">
        <ele>2425.8</ele>
        <time>2022-02-09T11:02:02Z</time>
      </trkpt>
      <trkpt lat="42.86378" lon="0.22262">
        <ele>2425.8</ele>
        <time>2022-02-09T11:02:03Z</time>
      </trkpt>
      <trkpt lat="42.86378" lon="0.22262">
        <ele>2425.8</ele>
        <time>2022-02-09T11:02:04Z</time>
      </trkpt>
      <trkpt lat="42.86378" lon="0.22262">
        <ele>2425.8</ele>
        <time>2022-02-09T11:02:05Z</time>
      </trkpt>
      <trkpt lat="42.86378" lon="0.22262">
        <ele>2425.8</ele>
        <time>2022-02-09T11:02:06Z</time>
      </trkpt>
      <trkpt lat="42.86378" lon="0.22262">
        <ele>2425.8</ele>
        <time>2022-02-09T11:02:07Z</time>
      </trkpt>
      <trkpt lat="42.86378" lon="0.22262">
        <ele>2425.8</ele>
        <time>2022-02-09T11:02:08Z</time>
      </trkpt>
      <trkpt lat="42.86378" lon="0.22262">
        <ele>2425.8</ele>
        <time>2022-02-09T11:02:09Z</time>
      </trkpt>
      <trkpt lat="42.86378" lon="0.22262">
        <ele>2425.8</ele>
        <time>2022-02-09T11:02:10Z</time>
      </trkpt>
      <trkpt lat="42.86378" lon="0.22262">
        <ele>2425.8</ele>
        <time>2022-02-09T11:02:11Z</time>
      </trkpt>
      <trkpt lat="42.86378" lon="0.22262">
        <ele>2425.8</ele>
        <time>2022-02-09T11:02:12Z</time>
      </trkpt>
      <trkpt lat="42.86378" lon="0.22262">
        <ele>2425.8</ele>
        <time>2022-02-09T11:02:13Z</time>
      </trkpt>
      <trkpt lat="42.86378" lon="0.22262">
        <ele>2425.8</ele>
        <time>2022-02-09T11:02:14Z</time>
      </trkpt>
      <trkpt lat="42.86378" lon="0.22262">
        <ele>2425.8</ele>
        <time>2022-02-09T11:02:15Z</time>
      </trkpt>
      <trkpt lat="42.86378" lon="0.22262">
        <ele>2425.8</ele>
        <time>2022-02-09T11:02:16Z</time>
      </trkpt>
      <trkpt lat="42.86378" lon="0.22262">
        <ele>2425.8</ele>
        <time>2022-02-09T11:02:17Z</time>
      </trkpt>
      <trkpt lat="42.86378" lon="0.22262">
        <ele>2425.8</ele>
        <time>2022-02-09T11:02:18Z</time>
      </trkpt>
      <trkpt lat="42.86378" lon="0.22262">
        <ele>2425.8</ele>
        <time>2022-02-09T11:02:19Z</time>
      </trkpt>
      <trkpt lat="42.86378" lon="0.22262">
        <ele>2425.8</ele>
        <time>2022-02-09T11:02:20Z</time>
      </trkpt>
      <trkpt lat="42.86378" lon="0.22261">
        <ele>2425.8</ele>
        <time>2022-02-09T11:02:21Z</time>
      </trkpt>
      <trkpt lat="42.86378" lon="0.22261">
        <ele>2425.9</ele>
        <time>2022-02-09T11:02:22Z</time>
      </trkpt>
      <trkpt lat="42.86378" lon="0.22261">
        <ele>2426.1</ele>
        <time>2022-02-09T11:02:23Z</time>
      </trkpt>
      <trkpt lat="42.86378" lon="0.22261">
        <ele>2426.2</ele>
        <time>2022-02-09T11:02:24Z</time>
      </trkpt>
      <trkpt lat="42.86378" lon="0.22261">
        <ele>2426.4</ele>
        <time>2022-02-09T11:02:25Z</time>
      </trkpt>
      <trkpt lat="42.86378" lon="0.22261">
        <ele>2426.5</ele>
        <time>2022-02-09T11:02:26Z</time>
      </trkpt>
      <trkpt lat="42.86378" lon="0.22261">
        <ele>2426.7</ele>
        <time>2022-02-09T11:02:27Z</time>
      </trkpt>
      <trkpt lat="42.86378" lon="0.22261">
        <ele>2426.8</ele>
        <time>2022-02-09T11:02:28Z</time>
      </trkpt>
      <trkpt lat="42.86378" lon="0.22261">
        <ele>2426.9</ele>
        <time>2022-02-09T11:02:29Z</time>
      </trkpt>
      <trkpt lat="42.86378" lon="0.22261">
        <ele>2427.1</ele>
        <time>2022-02-09T11:02:30Z</time>
      </trkpt>
      <trkpt lat="42.86378" lon="0.22261">
        <ele>2427.2</ele>
        <time>2022-02-09T11:02:31Z</time>
      </trkpt>
      <trkpt lat="42.86378" lon="0.22261">
        <ele>2427.4</ele>
        <time>2022-02-09T11:02:32Z</time>
      </trkpt>
      <trkpt lat="42.86378" lon="0.22261">
        <ele>2427.5</ele>
        <time>2022-02-09T11:02:33Z</time>
      </trkpt>
      <trkpt lat="42.86378" lon="0.22261">
        <ele>2427.7</ele>
        <time>2022-02-09T11:02:34Z</time>
      </trkpt>
      <trkpt lat="42.86378" lon="0.22261">
        <ele>2427.8</ele>
        <time>2022-02-09T11:02:35Z</time>
      </trkpt>
      <trkpt lat="42.86378" lon="0.22261">
        <ele>2427.9</ele>
        <time>2022-02-09T11:02:36Z</time>
      </trkpt>
      <trkpt lat="42.86378" lon="0.22261">
        <ele>2428.1</ele>
        <time>2022-02-09T11:02:37Z</time>
      </trkpt>
      <trkpt lat="42.86378" lon="0.22261">
        <ele>2428.2</ele>
        <time>2022-02-09T11:02:38Z</time>
      </trkpt>
      <trkpt lat="42.86378" lon="0.22261">
        <ele>2428.4</ele>
        <time>2022-02-09T11:02:39Z</time>
      </trkpt>
      <trkpt lat="42.86378" lon="0.22261">
        <ele>2428.5</ele>
        <time>2022-02-09T11:02:40Z</time>
      </trkpt>
      <trkpt lat="42.86378" lon="0.22261">
        <ele>2428.7</ele>
        <time>2022-02-09T11:02:41Z</time>
      </trkpt>
      <trkpt lat="42.86378" lon="0.22261">
        <ele>2428.8</ele>
        <time>2022-02-09T11:02:42Z</time>
      </trkpt>
      <trkpt lat="42.86378" lon="0.22261">
        <ele>2428.9</ele>
        <time>2022-02-09T11:02:43Z</time>
      </trkpt>
      <trkpt lat="42.86378" lon="0.22261">
        <ele>2429.1</ele>
        <time>2022-02-09T11:02:44Z</time>
      </trkpt>
      <trkpt lat="42.86378" lon="0.22261">
        <ele>2429.2</ele>
        <time>2022-02-09T11:02:45Z</time>
      </trkpt>
      <trkpt lat="42.86379" lon="0.22261">
        <ele>2429.4</ele>
        <time>2022-02-09T11:02:46Z</time>
      </trkpt>
      <trkpt lat="42.86379" lon="0.2226">
        <ele>2431.4</ele>
        <time>2022-02-09T11:02:47Z</time>
      </trkpt>
      <trkpt lat="42.8638" lon="0.2226">
        <ele>2431.6</ele>
        <time>2022-02-09T11:02:48Z</time>
      </trkpt>
      <trkpt lat="42.8638" lon="0.22259">
        <ele>2431.7</ele>
        <time>2022-02-09T11:02:49Z</time>
      </trkpt>
      <trkpt lat="42.8638" lon="0.22258">
        <ele>2431.9</ele>
        <time>2022-02-09T11:02:50Z</time>
      </trkpt>
      <trkpt lat="42.8638" lon="0.22257">
        <ele>2432</ele>
        <time>2022-02-09T11:02:51Z</time>
      </trkpt>
      <trkpt lat="42.8638" lon="0.22256">
        <ele>2433.2</ele>
        <time>2022-02-09T11:02:52Z</time>
      </trkpt>
      <trkpt lat="42.8638" lon="0.22255">
        <ele>2433.4</ele>
        <time>2022-02-09T11:02:53Z</time>
      </trkpt>
      <trkpt lat="42.86379" lon="0.22253">
        <ele>2432.5</ele>
        <time>2022-02-09T11:02:54Z</time>
      </trkpt>
      <trkpt lat="42.86379" lon="0.22253">
        <ele>2432.6</ele>
        <time>2022-02-09T11:02:55Z</time>
      </trkpt>
      <trkpt lat="42.86378" lon="0.22252">
        <ele>2432.7</ele>
        <time>2022-02-09T11:02:56Z</time>
      </trkpt>
      <trkpt lat="42.86378" lon="0.22251">
        <ele>2434</ele>
        <time>2022-02-09T11:02:57Z</time>
      </trkpt>
      <trkpt lat="42.86377" lon="0.2225">
        <ele>2434.1</ele>
        <time>2022-02-09T11:02:58Z</time>
      </trkpt>
      <trkpt lat="42.86377" lon="0.22249">
        <ele>2434.3</ele>
        <time>2022-02-09T11:02:59Z</time>
      </trkpt>
      <trkpt lat="42.86377" lon="0.22248">
        <ele>2434.4</ele>
        <time>2022-02-09T11:03:00Z</time>
      </trkpt>
      <trkpt lat="42.86376" lon="0.22247">
        <ele>2435.7</ele>
        <time>2022-02-09T11:03:01Z</time>
      </trkpt>
      <trkpt lat="42.86376" lon="0.22246">
        <ele>2434.9</ele>
        <time>2022-02-09T11:03:02Z</time>
      </trkpt>
      <trkpt lat="42.86376" lon="0.22245">
        <ele>2435</ele>
        <time>2022-02-09T11:03:03Z</time>
      </trkpt>
      <trkpt lat="42.86375" lon="0.22244">
        <ele>2435.2</ele>
        <time>2022-02-09T11:03:04Z</time>
      </trkpt>
      <trkpt lat="42.86375" lon="0.22244">
        <ele>2435.3</ele>
        <time>2022-02-09T11:03:05Z</time>
      </trkpt>
      <trkpt lat="42.86374" lon="0.22243">
        <ele>2436.6</ele>
        <time>2022-02-09T11:03:06Z</time>
      </trkpt>
      <trkpt lat="42.86374" lon="0.22242">
        <ele>2436.7</ele>
        <time>2022-02-09T11:03:07Z</time>
      </trkpt>
      <trkpt lat="42.86373" lon="0.22241">
        <ele>2436.9</ele>
        <time>2022-02-09T11:03:08Z</time>
      </trkpt>
      <trkpt lat="42.86373" lon="0.2224">
        <ele>2437</ele>
        <time>2022-02-09T11:03:09Z</time>
      </trkpt>
      <trkpt lat="42.86373" lon="0.22239">
        <ele>2436.2</ele>
        <time>2022-02-09T11:03:10Z</time>
      </trkpt>
      <trkpt lat="42.86372" lon="0.22239">
        <ele>2437.5</ele>
        <time>2022-02-09T11:03:11Z</time>
      </trkpt>
      <trkpt lat="42.86372" lon="0.22238">
        <ele>2437.6</ele>
        <time>2022-02-09T11:03:12Z</time>
      </trkpt>
      <trkpt lat="42.86372" lon="0.22237">
        <ele>2437.8</ele>
        <time>2022-02-09T11:03:13Z</time>
      </trkpt>
      <trkpt lat="42.86371" lon="0.22236">
        <ele>2437.9</ele>
        <time>2022-02-09T11:03:14Z</time>
      </trkpt>
      <trkpt lat="42.86371" lon="0.22235">
        <ele>2438.1</ele>
        <time>2022-02-09T11:03:15Z</time>
      </trkpt>
      <trkpt lat="42.86371" lon="0.22234">
        <ele>2439.3</ele>
        <time>2022-02-09T11:03:16Z</time>
      </trkpt>
      <trkpt lat="42.8637" lon="0.22234">
        <ele>2439.5</ele>
        <time>2022-02-09T11:03:17Z</time>
      </trkpt>
      <trkpt lat="42.8637" lon="0.22233">
        <ele>2439.6</ele>
        <time>2022-02-09T11:03:18Z</time>
      </trkpt>
      <trkpt lat="42.86369" lon="0.22232">
        <ele>2438.7</ele>
        <time>2022-02-09T11:03:19Z</time>
      </trkpt>
      <trkpt lat="42.86369" lon="0.22231">
        <ele>2438.8</ele>
        <time>2022-02-09T11:03:20Z</time>
      </trkpt>
      <trkpt lat="42.86369" lon="0.2223">
        <ele>2440.1</ele>
        <time>2022-02-09T11:03:21Z</time>
      </trkpt>
      <trkpt lat="42.86369" lon="0.22229">
        <ele>2440.2</ele>
        <time>2022-02-09T11:03:22Z</time>
      </trkpt>
      <trkpt lat="42.86369" lon="0.22228">
        <ele>2440.4</ele>
        <time>2022-02-09T11:03:23Z</time>
      </trkpt>
      <trkpt lat="42.86369" lon="0.22227">
        <ele>2440.5</ele>
        <time>2022-02-09T11:03:24Z</time>
      </trkpt>
      <trkpt lat="42.86369" lon="0.22226">
        <ele>2440.7</ele>
        <time>2022-02-09T11:03:25Z</time>
      </trkpt>
      <trkpt lat="42.86369" lon="0.22225">
        <ele>2441.9</ele>
        <time>2022-02-09T11:03:26Z</time>
      </trkpt>
      <trkpt lat="42.86369" lon="0.22224">
        <ele>2442</ele>
        <time>2022-02-09T11:03:27Z</time>
      </trkpt>
      <trkpt lat="42.86369" lon="0.22223">
        <ele>2442.1</ele>
        <time>2022-02-09T11:03:28Z</time>
      </trkpt>
      <trkpt lat="42.86369" lon="0.22222">
        <ele>2443.3</ele>
        <time>2022-02-09T11:03:29Z</time>
      </trkpt>
      <trkpt lat="42.86369" lon="0.22221">
        <ele>2443.5</ele>
        <time>2022-02-09T11:03:30Z</time>
      </trkpt>
      <trkpt lat="42.86369" lon="0.2222">
        <ele>2443.6</ele>
        <time>2022-02-09T11:03:31Z</time>
      </trkpt>
      <trkpt lat="42.86369" lon="0.22219">
        <ele>2443.8</ele>
        <time>2022-02-09T11:03:32Z</time>
      </trkpt>
      <trkpt lat="42.86369" lon="0.22218">
        <ele>2443.9</ele>
        <time>2022-02-09T11:03:33Z</time>
      </trkpt>
      <trkpt lat="42.86369" lon="0.22217">
        <ele>2445.1</ele>
        <time>2022-02-09T11:03:34Z</time>
      </trkpt>
      <trkpt lat="42.86369" lon="0.22216">
        <ele>2445.3</ele>
        <time>2022-02-09T11:03:35Z</time>
      </trkpt>
      <trkpt lat="42.86369" lon="0.22215">
        <ele>2445.4</ele>
        <time>2022-02-09T11:03:36Z</time>
      </trkpt>
      <trkpt lat="42.86369" lon="0.22214">
        <ele>2445.5</ele>
        <time>2022-02-09T11:03:37Z</time>
      </trkpt>
      <trkpt lat="42.86368" lon="0.22213">
        <ele>2446.8</ele>
        <time>2022-02-09T11:03:38Z</time>
      </trkpt>
      <trkpt lat="42.86368" lon="0.22212">
        <ele>2446.9</ele>
        <time>2022-02-09T11:03:39Z</time>
      </trkpt>
      <trkpt lat="42.86368" lon="0.22211">
        <ele>2447.1</ele>
        <time>2022-02-09T11:03:40Z</time>
      </trkpt>
      <trkpt lat="42.86367" lon="0.2221">
        <ele>2447.2</ele>
        <time>2022-02-09T11:03:41Z</time>
      </trkpt>
      <trkpt lat="42.86367" lon="0.22209">
        <ele>2446.4</ele>
        <time>2022-02-09T11:03:42Z</time>
      </trkpt>
      <trkpt lat="42.86366" lon="0.22208">
        <ele>2447.6</ele>
        <time>2022-02-09T11:03:43Z</time>
      </trkpt>
      <trkpt lat="42.86366" lon="0.22207">
        <ele>2447.8</ele>
        <time>2022-02-09T11:03:44Z</time>
      </trkpt>
      <trkpt lat="42.86365" lon="0.22206">
        <ele>2447.9</ele>
        <time>2022-02-09T11:03:45Z</time>
      </trkpt>
      <trkpt lat="42.86365" lon="0.22205">
        <ele>2448.1</ele>
        <time>2022-02-09T11:03:46Z</time>
      </trkpt>
      <trkpt lat="42.86364" lon="0.22204">
        <ele>2449.4</ele>
        <time>2022-02-09T11:03:47Z</time>
      </trkpt>
      <trkpt lat="42.86364" lon="0.22204">
        <ele>2449.5</ele>
        <time>2022-02-09T11:03:48Z</time>
      </trkpt>
      <trkpt lat="42.86363" lon="0.22203">
        <ele>2448.8</ele>
        <time>2022-02-09T11:03:49Z</time>
      </trkpt>
      <trkpt lat="42.86363" lon="0.22202">
        <ele>2448.9</ele>
        <time>2022-02-09T11:03:50Z</time>
      </trkpt>
      <trkpt lat="42.86363" lon="0.22201">
        <ele>2449.1</ele>
        <time>2022-02-09T11:03:51Z</time>
      </trkpt>
      <trkpt lat="42.86362" lon="0.22201">
        <ele>2449.2</ele>
        <time>2022-02-09T11:03:52Z</time>
      </trkpt>
      <trkpt lat="42.86362" lon="0.222">
        <ele>2450.6</ele>
        <time>2022-02-09T11:03:53Z</time>
      </trkpt>
      <trkpt lat="42.86361" lon="0.22199">
        <ele>2450.8</ele>
        <time>2022-02-09T11:03:54Z</time>
      </trkpt>
      <trkpt lat="42.86361" lon="0.22198">
        <ele>2450.9</ele>
        <time>2022-02-09T11:03:55Z</time>
      </trkpt>
      <trkpt lat="42.86361" lon="0.22197">
        <ele>2451.1</ele>
        <time>2022-02-09T11:03:56Z</time>
      </trkpt>
      <trkpt lat="42.8636" lon="0.22197">
        <ele>2450.3</ele>
        <time>2022-02-09T11:03:57Z</time>
      </trkpt>
      <trkpt lat="42.8636" lon="0.22196">
        <ele>2450.5</ele>
        <time>2022-02-09T11:03:58Z</time>
      </trkpt>
      <trkpt lat="42.8636" lon="0.22196">
        <ele>2450.6</ele>
        <time>2022-02-09T11:03:59Z</time>
      </trkpt>
      <trkpt lat="42.8636" lon="0.22196">
        <ele>2450.8</ele>
        <time>2022-02-09T11:04:00Z</time>
      </trkpt>
      <trkpt lat="42.86359" lon="0.22196">
        <ele>2452.2</ele>
        <time>2022-02-09T11:04:01Z</time>
      </trkpt>
      <trkpt lat="42.86359" lon="0.22195">
        <ele>2452.2</ele>
        <time>2022-02-09T11:04:02Z</time>
      </trkpt>
      <trkpt lat="42.86359" lon="0.22194">
        <ele>2452.2</ele>
        <time>2022-02-09T11:04:03Z</time>
      </trkpt>
      <trkpt lat="42.86358" lon="0.22194">
        <ele>2452.2</ele>
        <time>2022-02-09T11:04:04Z</time>
      </trkpt>
      <trkpt lat="42.86357" lon="0.22193">
        <ele>2452.2</ele>
        <time>2022-02-09T11:04:05Z</time>
      </trkpt>
      <trkpt lat="42.86357" lon="0.22192">
        <ele>2451.4</ele>
        <time>2022-02-09T11:04:06Z</time>
      </trkpt>
      <trkpt lat="42.86356" lon="0.22191">
        <ele>2452.8</ele>
        <time>2022-02-09T11:04:07Z</time>
      </trkpt>
      <trkpt lat="42.86356" lon="0.22191">
        <ele>2452.8</ele>
        <time>2022-02-09T11:04:08Z</time>
      </trkpt>
      <trkpt lat="42.86355" lon="0.2219">
        <ele>2452.8</ele>
        <time>2022-02-09T11:04:09Z</time>
      </trkpt>
      <trkpt lat="42.86355" lon="0.22189">
        <ele>2452.8</ele>
        <time>2022-02-09T11:04:10Z</time>
      </trkpt>
      <trkpt lat="42.86355" lon="0.22188">
        <ele>2452.8</ele>
        <time>2022-02-09T11:04:11Z</time>
      </trkpt>
      <trkpt lat="42.86354" lon="0.22188">
        <ele>2452.8</ele>
        <time>2022-02-09T11:04:12Z</time>
      </trkpt>
      <trkpt lat="42.86354" lon="0.22187">
        <ele>2453.4</ele>
        <time>2022-02-09T11:04:13Z</time>
      </trkpt>
      <trkpt lat="42.86353" lon="0.22186">
        <ele>2453.4</ele>
        <time>2022-02-09T11:04:14Z</time>
      </trkpt>
      <trkpt lat="42.86353" lon="0.22186">
        <ele>2453.4</ele>
        <time>2022-02-09T11:04:15Z</time>
      </trkpt>
      <trkpt lat="42.86353" lon="0.22185">
        <ele>2453.4</ele>
        <time>2022-02-09T11:04:16Z</time>
      </trkpt>
      <trkpt lat="42.86352" lon="0.22184">
        <ele>2453.4</ele>
        <time>2022-02-09T11:04:17Z</time>
      </trkpt>
      <trkpt lat="42.86352" lon="0.22183">
        <ele>2454.6</ele>
        <time>2022-02-09T11:04:18Z</time>
      </trkpt>
      <trkpt lat="42.86352" lon="0.22182">
        <ele>2454.6</ele>
        <time>2022-02-09T11:04:19Z</time>
      </trkpt>
      <trkpt lat="42.86352" lon="0.22181">
        <ele>2454.6</ele>
        <time>2022-02-09T11:04:20Z</time>
      </trkpt>
      <trkpt lat="42.86351" lon="0.2218">
        <ele>2454.6</ele>
        <time>2022-02-09T11:04:21Z</time>
      </trkpt>
      <trkpt lat="42.86351" lon="0.22179">
        <ele>2454.6</ele>
        <time>2022-02-09T11:04:22Z</time>
      </trkpt>
      <trkpt lat="42.86351" lon="0.22178">
        <ele>2455.7</ele>
        <time>2022-02-09T11:04:23Z</time>
      </trkpt>
      <trkpt lat="42.86351" lon="0.22177">
        <ele>2455.1</ele>
        <time>2022-02-09T11:04:24Z</time>
      </trkpt>
      <trkpt lat="42.8635" lon="0.22176">
        <ele>2455.1</ele>
        <time>2022-02-09T11:04:25Z</time>
      </trkpt>
      <trkpt lat="42.8635" lon="0.22175">
        <ele>2455.1</ele>
        <time>2022-02-09T11:04:26Z</time>
      </trkpt>
      <trkpt lat="42.8635" lon="0.22174">
        <ele>2455.1</ele>
        <time>2022-02-09T11:04:27Z</time>
      </trkpt>
      <trkpt lat="42.86349" lon="0.22173">
        <ele>2456.2</ele>
        <time>2022-02-09T11:04:28Z</time>
      </trkpt>
      <trkpt lat="42.86349" lon="0.22172">
        <ele>2456.2</ele>
        <time>2022-02-09T11:04:29Z</time>
      </trkpt>
      <trkpt lat="42.86348" lon="0.22171">
        <ele>2456.2</ele>
        <time>2022-02-09T11:04:30Z</time>
      </trkpt>
      <trkpt lat="42.86348" lon="0.2217">
        <ele>2457.4</ele>
        <time>2022-02-09T11:04:31Z</time>
      </trkpt>
      <trkpt lat="42.86348" lon="0.22169">
        <ele>2457.4</ele>
        <time>2022-02-09T11:04:32Z</time>
      </trkpt>
      <trkpt lat="42.86347" lon="0.22169">
        <ele>2456.7</ele>
        <time>2022-02-09T11:04:33Z</time>
      </trkpt>
      <trkpt lat="42.86347" lon="0.22168">
        <ele>2456.7</ele>
        <time>2022-02-09T11:04:34Z</time>
      </trkpt>
      <trkpt lat="42.86347" lon="0.22167">
        <ele>2456.7</ele>
        <time>2022-02-09T11:04:35Z</time>
      </trkpt>
      <trkpt lat="42.86346" lon="0.22166">
        <ele>2456.7</ele>
        <time>2022-02-09T11:04:36Z</time>
      </trkpt>
      <trkpt lat="42.86346" lon="0.22166">
        <ele>2457.9</ele>
        <time>2022-02-09T11:04:37Z</time>
      </trkpt>
      <trkpt lat="42.86346" lon="0.22165">
        <ele>2457.9</ele>
        <time>2022-02-09T11:04:38Z</time>
      </trkpt>
      <trkpt lat="42.86346" lon="0.22164">
        <ele>2457.9</ele>
        <time>2022-02-09T11:04:39Z</time>
      </trkpt>
      <trkpt lat="42.86346" lon="0.22163">
        <ele>2457.9</ele>
        <time>2022-02-09T11:04:40Z</time>
      </trkpt>
      <trkpt lat="42.86345" lon="0.22162">
        <ele>2457.9</ele>
        <time>2022-02-09T11:04:41Z</time>
      </trkpt>
      <trkpt lat="42.86345" lon="0.22161">
        <ele>2459.2</ele>
        <time>2022-02-09T11:04:42Z</time>
      </trkpt>
      <trkpt lat="42.86345" lon="0.2216">
        <ele>2459.2</ele>
        <time>2022-02-09T11:04:43Z</time>
      </trkpt>
      <trkpt lat="42.86345" lon="0.22159">
        <ele>2459.2</ele>
        <time>2022-02-09T11:04:44Z</time>
      </trkpt>
      <trkpt lat="42.86345" lon="0.22159">
        <ele>2458.5</ele>
        <time>2022-02-09T11:04:45Z</time>
      </trkpt>
      <trkpt lat="42.86345" lon="0.22158">
        <ele>2459.2</ele>
        <time>2022-02-09T11:04:46Z</time>
      </trkpt>
      <trkpt lat="42.86345" lon="0.22158">
        <ele>2459.2</ele>
        <time>2022-02-09T11:04:47Z</time>
      </trkpt>
      <trkpt lat="42.86344" lon="0.22158">
        <ele>2458.5</ele>
        <time>2022-02-09T11:04:48Z</time>
      </trkpt>
      <trkpt lat="42.86344" lon="0.22157">
        <ele>2458.5</ele>
        <time>2022-02-09T11:04:49Z</time>
      </trkpt>
      <trkpt lat="42.86343" lon="0.22157">
        <ele>2459.8</ele>
        <time>2022-02-09T11:04:50Z</time>
      </trkpt>
      <trkpt lat="42.86343" lon="0.22156">
        <ele>2459.8</ele>
        <time>2022-02-09T11:04:51Z</time>
      </trkpt>
      <trkpt lat="42.86343" lon="0.22155">
        <ele>2459.8</ele>
        <time>2022-02-09T11:04:52Z</time>
      </trkpt>
      <trkpt lat="42.86343" lon="0.22155">
        <ele>2459.8</ele>
        <time>2022-02-09T11:04:53Z</time>
      </trkpt>
      <trkpt lat="42.86343" lon="0.22154">
        <ele>2459.8</ele>
        <time>2022-02-09T11:04:54Z</time>
      </trkpt>
      <trkpt lat="42.86342" lon="0.22153">
        <ele>2459.8</ele>
        <time>2022-02-09T11:04:55Z</time>
      </trkpt>
      <trkpt lat="42.86342" lon="0.22152">
        <ele>2461.2</ele>
        <time>2022-02-09T11:04:56Z</time>
      </trkpt>
      <trkpt lat="42.86342" lon="0.22152">
        <ele>2461.2</ele>
        <time>2022-02-09T11:04:57Z</time>
      </trkpt>
      <trkpt lat="42.86341" lon="0.22151">
        <ele>2460.5</ele>
        <time>2022-02-09T11:04:58Z</time>
      </trkpt>
      <trkpt lat="42.86341" lon="0.2215">
        <ele>2460.5</ele>
        <time>2022-02-09T11:04:59Z</time>
      </trkpt>
      <trkpt lat="42.86341" lon="0.2215">
        <ele>2460.5</ele>
        <time>2022-02-09T11:05:00Z</time>
      </trkpt>
      <trkpt lat="42.86341" lon="0.22149">
        <ele>2460.5</ele>
        <time>2022-02-09T11:05:01Z</time>
      </trkpt>
      <trkpt lat="42.86342" lon="0.22149">
        <ele>2462.6</ele>
        <time>2022-02-09T11:05:02Z</time>
      </trkpt>
      <trkpt lat="42.86342" lon="0.22148">
        <ele>2462.6</ele>
        <time>2022-02-09T11:05:03Z</time>
      </trkpt>
      <trkpt lat="42.86343" lon="0.22148">
        <ele>2462.6</ele>
        <time>2022-02-09T11:05:04Z</time>
      </trkpt>
      <trkpt lat="42.86343" lon="0.22147">
        <ele>2462.6</ele>
        <time>2022-02-09T11:05:05Z</time>
      </trkpt>
      <trkpt lat="42.86344" lon="0.22147">
        <ele>2462.6</ele>
        <time>2022-02-09T11:05:06Z</time>
      </trkpt>
      <trkpt lat="42.86344" lon="0.22147">
        <ele>2462.6</ele>
        <time>2022-02-09T11:05:07Z</time>
      </trkpt>
      <trkpt lat="42.86345" lon="0.22147">
        <ele>2463.3</ele>
        <time>2022-02-09T11:05:08Z</time>
      </trkpt>
      <trkpt lat="42.86346" lon="0.22147">
        <ele>2463.3</ele>
        <time>2022-02-09T11:05:09Z</time>
      </trkpt>
      <trkpt lat="42.86346" lon="0.22146">
        <ele>2463.3</ele>
        <time>2022-02-09T11:05:10Z</time>
      </trkpt>
      <trkpt lat="42.86347" lon="0.22146">
        <ele>2463.3</ele>
        <time>2022-02-09T11:05:11Z</time>
      </trkpt>
      <trkpt lat="42.86348" lon="0.22146">
        <ele>2463.3</ele>
        <time>2022-02-09T11:05:12Z</time>
      </trkpt>
      <trkpt lat="42.86348" lon="0.22146">
        <ele>2463.9</ele>
        <time>2022-02-09T11:05:13Z</time>
      </trkpt>
      <trkpt lat="42.86349" lon="0.22146">
        <ele>2463.9</ele>
        <time>2022-02-09T11:05:14Z</time>
      </trkpt>
      <trkpt lat="42.86349" lon="0.22146">
        <ele>2463.9</ele>
        <time>2022-02-09T11:05:15Z</time>
      </trkpt>
      <trkpt lat="42.8635" lon="0.22146">
        <ele>2463.9</ele>
        <time>2022-02-09T11:05:16Z</time>
      </trkpt>
      <trkpt lat="42.86351" lon="0.22146">
        <ele>2463.9</ele>
        <time>2022-02-09T11:05:17Z</time>
      </trkpt>
      <trkpt lat="42.86351" lon="0.22146">
        <ele>2464.5</ele>
        <time>2022-02-09T11:05:18Z</time>
      </trkpt>
      <trkpt lat="42.86352" lon="0.22146">
        <ele>2464.5</ele>
        <time>2022-02-09T11:05:19Z</time>
      </trkpt>
      <trkpt lat="42.86352" lon="0.22146">
        <ele>2464.5</ele>
        <time>2022-02-09T11:05:20Z</time>
      </trkpt>
      <trkpt lat="42.86353" lon="0.22146">
        <ele>2464.5</ele>
        <time>2022-02-09T11:05:21Z</time>
      </trkpt>
      <trkpt lat="42.86354" lon="0.22145">
        <ele>2464.5</ele>
        <time>2022-02-09T11:05:22Z</time>
      </trkpt>
      <trkpt lat="42.86354" lon="0.22145">
        <ele>2464.5</ele>
        <time>2022-02-09T11:05:23Z</time>
      </trkpt>
      <trkpt lat="42.86355" lon="0.22145">
        <ele>2465.1</ele>
        <time>2022-02-09T11:05:24Z</time>
      </trkpt>
      <trkpt lat="42.86355" lon="0.22145">
        <ele>2465.1</ele>
        <time>2022-02-09T11:05:25Z</time>
      </trkpt>
      <trkpt lat="42.86356" lon="0.22145">
        <ele>2465.1</ele>
        <time>2022-02-09T11:05:26Z</time>
      </trkpt>
      <trkpt lat="42.86357" lon="0.22145">
        <ele>2465.1</ele>
        <time>2022-02-09T11:05:27Z</time>
      </trkpt>
      <trkpt lat="42.86357" lon="0.22145">
        <ele>2465.1</ele>
        <time>2022-02-09T11:05:28Z</time>
      </trkpt>
      <trkpt lat="42.86358" lon="0.22144">
        <ele>2465.8</ele>
        <time>2022-02-09T11:05:29Z</time>
      </trkpt>
      <trkpt lat="42.86358" lon="0.22144">
        <ele>2467.1</ele>
        <time>2022-02-09T11:05:30Z</time>
      </trkpt>
      <trkpt lat="42.86359" lon="0.22144">
        <ele>2467.1</ele>
        <time>2022-02-09T11:05:31Z</time>
      </trkpt>
      <trkpt lat="42.8636" lon="0.22143">
        <ele>2467.1</ele>
        <time>2022-02-09T11:05:32Z</time>
      </trkpt>
      <trkpt lat="42.86361" lon="0.22143">
        <ele>2467.8</ele>
        <time>2022-02-09T11:05:33Z</time>
      </trkpt>
      <trkpt lat="42.86361" lon="0.22143">
        <ele>2467.8</ele>
        <time>2022-02-09T11:05:34Z</time>
      </trkpt>
      <trkpt lat="42.86362" lon="0.22143">
        <ele>2467.8</ele>
        <time>2022-02-09T11:05:35Z</time>
      </trkpt>
      <trkpt lat="42.86362" lon="0.22142">
        <ele>2467.8</ele>
        <time>2022-02-09T11:05:36Z</time>
      </trkpt>
      <trkpt lat="42.86363" lon="0.22142">
        <ele>2467.8</ele>
        <time>2022-02-09T11:05:37Z</time>
      </trkpt>
      <trkpt lat="42.86364" lon="0.22142">
        <ele>2468.5</ele>
        <time>2022-02-09T11:05:38Z</time>
      </trkpt>
      <trkpt lat="42.86364" lon="0.22141">
        <ele>2468.5</ele>
        <time>2022-02-09T11:05:39Z</time>
      </trkpt>
      <trkpt lat="42.86365" lon="0.22141">
        <ele>2468.5</ele>
        <time>2022-02-09T11:05:40Z</time>
      </trkpt>
      <trkpt lat="42.86366" lon="0.22141">
        <ele>2468.5</ele>
        <time>2022-02-09T11:05:41Z</time>
      </trkpt>
      <trkpt lat="42.86366" lon="0.22141">
        <ele>2468.5</ele>
        <time>2022-02-09T11:05:42Z</time>
      </trkpt>
      <trkpt lat="42.86367" lon="0.2214">
        <ele>2469.2</ele>
        <time>2022-02-09T11:05:43Z</time>
      </trkpt>
      <trkpt lat="42.86368" lon="0.2214">
        <ele>2470.4</ele>
        <time>2022-02-09T11:05:44Z</time>
      </trkpt>
      <trkpt lat="42.86368" lon="0.22139">
        <ele>2470.4</ele>
        <time>2022-02-09T11:05:45Z</time>
      </trkpt>
      <trkpt lat="42.86369" lon="0.22139">
        <ele>2470.4</ele>
        <time>2022-02-09T11:05:46Z</time>
      </trkpt>
      <trkpt lat="42.8637" lon="0.22138">
        <ele>2470.4</ele>
        <time>2022-02-09T11:05:47Z</time>
      </trkpt>
      <trkpt lat="42.8637" lon="0.22138">
        <ele>2471.1</ele>
        <time>2022-02-09T11:05:48Z</time>
      </trkpt>
      <trkpt lat="42.86371" lon="0.22137">
        <ele>2471.1</ele>
        <time>2022-02-09T11:05:49Z</time>
      </trkpt>
      <trkpt lat="42.86371" lon="0.22137">
        <ele>2471.1</ele>
        <time>2022-02-09T11:05:50Z</time>
      </trkpt>
      <trkpt lat="42.86372" lon="0.22136">
        <ele>2471.1</ele>
        <time>2022-02-09T11:05:51Z</time>
      </trkpt>
      <trkpt lat="42.86372" lon="0.22136">
        <ele>2472.2</ele>
        <time>2022-02-09T11:05:52Z</time>
      </trkpt>
      <trkpt lat="42.86373" lon="0.22135">
        <ele>2472.2</ele>
        <time>2022-02-09T11:05:53Z</time>
      </trkpt>
      <trkpt lat="42.86373" lon="0.22134">
        <ele>2472.8</ele>
        <time>2022-02-09T11:05:54Z</time>
      </trkpt>
      <trkpt lat="42.86374" lon="0.22134">
        <ele>2472.8</ele>
        <time>2022-02-09T11:05:55Z</time>
      </trkpt>
      <trkpt lat="42.86374" lon="0.22133">
        <ele>2472.8</ele>
        <time>2022-02-09T11:05:56Z</time>
      </trkpt>
      <trkpt lat="42.86375" lon="0.22133">
        <ele>2472.8</ele>
        <time>2022-02-09T11:05:57Z</time>
      </trkpt>
      <trkpt lat="42.86376" lon="0.22132">
        <ele>2472.8</ele>
        <time>2022-02-09T11:05:58Z</time>
      </trkpt>
      <trkpt lat="42.86376" lon="0.22131">
        <ele>2473.9</ele>
        <time>2022-02-09T11:05:59Z</time>
      </trkpt>
      <trkpt lat="42.86377" lon="0.22131">
        <ele>2474.5</ele>
        <time>2022-02-09T11:06:00Z</time>
      </trkpt>
      <trkpt lat="42.86377" lon="0.2213">
        <ele>2474.5</ele>
        <time>2022-02-09T11:06:01Z</time>
      </trkpt>
      <trkpt lat="42.86378" lon="0.2213">
        <ele>2474.5</ele>
        <time>2022-02-09T11:06:02Z</time>
      </trkpt>
      <trkpt lat="42.86378" lon="0.22129">
        <ele>2474.5</ele>
        <time>2022-02-09T11:06:03Z</time>
      </trkpt>
      <trkpt lat="42.86379" lon="0.22129">
        <ele>2474.6</ele>
        <time>2022-02-09T11:06:04Z</time>
      </trkpt>
      <trkpt lat="42.86379" lon="0.22128">
        <ele>2474.8</ele>
        <time>2022-02-09T11:06:05Z</time>
      </trkpt>
      <trkpt lat="42.8638" lon="0.22128">
        <ele>2475</ele>
        <time>2022-02-09T11:06:06Z</time>
      </trkpt>
      <trkpt lat="42.8638" lon="0.22127">
        <ele>2475.1</ele>
        <time>2022-02-09T11:06:07Z</time>
      </trkpt>
      <trkpt lat="42.86381" lon="0.22126">
        <ele>2475.3</ele>
        <time>2022-02-09T11:06:08Z</time>
      </trkpt>
      <trkpt lat="42.86381" lon="0.22126">
        <ele>2475.5</ele>
        <time>2022-02-09T11:06:09Z</time>
      </trkpt>
      <trkpt lat="42.86382" lon="0.22125">
        <ele>2475.7</ele>
        <time>2022-02-09T11:06:10Z</time>
      </trkpt>
      <trkpt lat="42.86382" lon="0.22125">
        <ele>2475.8</ele>
        <time>2022-02-09T11:06:11Z</time>
      </trkpt>
      <trkpt lat="42.86383" lon="0.22124">
        <ele>2476</ele>
        <time>2022-02-09T11:06:12Z</time>
      </trkpt>
      <trkpt lat="42.86383" lon="0.22123">
        <ele>2476.1</ele>
        <time>2022-02-09T11:06:13Z</time>
      </trkpt>
      <trkpt lat="42.86384" lon="0.22123">
        <ele>2476.2</ele>
        <time>2022-02-09T11:06:14Z</time>
      </trkpt>
      <trkpt lat="42.86384" lon="0.22122">
        <ele>2476.4</ele>
        <time>2022-02-09T11:06:15Z</time>
      </trkpt>
      <trkpt lat="42.86384" lon="0.22121">
        <ele>2476.5</ele>
        <time>2022-02-09T11:06:16Z</time>
      </trkpt>
      <trkpt lat="42.86385" lon="0.22121">
        <ele>2476.6</ele>
        <time>2022-02-09T11:06:17Z</time>
      </trkpt>
      <trkpt lat="42.86385" lon="0.2212">
        <ele>2476.7</ele>
        <time>2022-02-09T11:06:18Z</time>
      </trkpt>
      <trkpt lat="42.86386" lon="0.22119">
        <ele>2476.9</ele>
        <time>2022-02-09T11:06:19Z</time>
      </trkpt>
      <trkpt lat="42.86386" lon="0.22119">
        <ele>2477</ele>
        <time>2022-02-09T11:06:20Z</time>
      </trkpt>
      <trkpt lat="42.86386" lon="0.22118">
        <ele>2477.1</ele>
        <time>2022-02-09T11:06:21Z</time>
      </trkpt>
      <trkpt lat="42.86387" lon="0.22117">
        <ele>2477.3</ele>
        <time>2022-02-09T11:06:22Z</time>
      </trkpt>
      <trkpt lat="42.86387" lon="0.22116">
        <ele>2477.4</ele>
        <time>2022-02-09T11:06:23Z</time>
      </trkpt>
      <trkpt lat="42.86388" lon="0.22116">
        <ele>2477.5</ele>
        <time>2022-02-09T11:06:24Z</time>
      </trkpt>
      <trkpt lat="42.86388" lon="0.22115">
        <ele>2477.6</ele>
        <time>2022-02-09T11:06:25Z</time>
      </trkpt>
      <trkpt lat="42.86389" lon="0.22114">
        <ele>2477.7</ele>
        <time>2022-02-09T11:06:26Z</time>
      </trkpt>
      <trkpt lat="42.86389" lon="0.22114">
        <ele>2477.8</ele>
        <time>2022-02-09T11:06:27Z</time>
      </trkpt>
      <trkpt lat="42.86389" lon="0.22113">
        <ele>2477.9</ele>
        <time>2022-02-09T11:06:28Z</time>
      </trkpt>
      <trkpt lat="42.8639" lon="0.22112">
        <ele>2478</ele>
        <time>2022-02-09T11:06:29Z</time>
      </trkpt>
      <trkpt lat="42.8639" lon="0.22112">
        <ele>2478.1</ele>
        <time>2022-02-09T11:06:30Z</time>
      </trkpt>
      <trkpt lat="42.86391" lon="0.22111">
        <ele>2478.2</ele>
        <time>2022-02-09T11:06:31Z</time>
      </trkpt>
      <trkpt lat="42.86391" lon="0.2211">
        <ele>2478.3</ele>
        <time>2022-02-09T11:06:32Z</time>
      </trkpt>
      <trkpt lat="42.86391" lon="0.2211">
        <ele>2478.5</ele>
        <time>2022-02-09T11:06:33Z</time>
      </trkpt>
      <trkpt lat="42.86392" lon="0.22109">
        <ele>2478.6</ele>
        <time>2022-02-09T11:06:34Z</time>
      </trkpt>
      <trkpt lat="42.86392" lon="0.22108">
        <ele>2478.7</ele>
        <time>2022-02-09T11:06:35Z</time>
      </trkpt>
      <trkpt lat="42.86393" lon="0.22107">
        <ele>2478.9</ele>
        <time>2022-02-09T11:06:36Z</time>
      </trkpt>
      <trkpt lat="42.86393" lon="0.22107">
        <ele>2479</ele>
        <time>2022-02-09T11:06:37Z</time>
      </trkpt>
      <trkpt lat="42.86394" lon="0.22106">
        <ele>2479.1</ele>
        <time>2022-02-09T11:06:38Z</time>
      </trkpt>
      <trkpt lat="42.86394" lon="0.22105">
        <ele>2479.2</ele>
        <time>2022-02-09T11:06:39Z</time>
      </trkpt>
      <trkpt lat="42.86394" lon="0.22104">
        <ele>2479.4</ele>
        <time>2022-02-09T11:06:40Z</time>
      </trkpt>
      <trkpt lat="42.86395" lon="0.22103">
        <ele>2479.6</ele>
        <time>2022-02-09T11:06:41Z</time>
      </trkpt>
      <trkpt lat="42.86395" lon="0.22102">
        <ele>2479.7</ele>
        <time>2022-02-09T11:06:42Z</time>
      </trkpt>
      <trkpt lat="42.86395" lon="0.22102">
        <ele>2479.9</ele>
        <time>2022-02-09T11:06:43Z</time>
      </trkpt>
      <trkpt lat="42.86396" lon="0.22101">
        <ele>2480</ele>
        <time>2022-02-09T11:06:44Z</time>
      </trkpt>
      <trkpt lat="42.86396" lon="0.221">
        <ele>2480.2</ele>
        <time>2022-02-09T11:06:45Z</time>
      </trkpt>
      <trkpt lat="42.86396" lon="0.22099">
        <ele>2480.3</ele>
        <time>2022-02-09T11:06:46Z</time>
      </trkpt>
      <trkpt lat="42.86396" lon="0.22098">
        <ele>2480.5</ele>
        <time>2022-02-09T11:06:47Z</time>
      </trkpt>
      <trkpt lat="42.86397" lon="0.22097">
        <ele>2480.6</ele>
        <time>2022-02-09T11:06:48Z</time>
      </trkpt>
      <trkpt lat="42.86397" lon="0.22097">
        <ele>2480.8</ele>
        <time>2022-02-09T11:06:49Z</time>
      </trkpt>
      <trkpt lat="42.86397" lon="0.22096">
        <ele>2481</ele>
        <time>2022-02-09T11:06:50Z</time>
      </trkpt>
      <trkpt lat="42.86397" lon="0.22095">
        <ele>2481.2</ele>
        <time>2022-02-09T11:06:51Z</time>
      </trkpt>
      <trkpt lat="42.86397" lon="0.22094">
        <ele>2481.4</ele>
        <time>2022-02-09T11:06:52Z</time>
      </trkpt>
      <trkpt lat="42.86398" lon="0.22093">
        <ele>2481.6</ele>
        <time>2022-02-09T11:06:53Z</time>
      </trkpt>
      <trkpt lat="42.86398" lon="0.22092">
        <ele>2481.8</ele>
        <time>2022-02-09T11:06:54Z</time>
      </trkpt>
      <trkpt lat="42.86398" lon="0.22091">
        <ele>2482</ele>
        <time>2022-02-09T11:06:55Z</time>
      </trkpt>
      <trkpt lat="42.86398" lon="0.2209">
        <ele>2482.2</ele>
        <time>2022-02-09T11:06:56Z</time>
      </trkpt>
      <trkpt lat="42.86398" lon="0.2209">
        <ele>2482.4</ele>
        <time>2022-02-09T11:06:57Z</time>
      </trkpt>
      <trkpt lat="42.86398" lon="0.22089">
        <ele>2482.6</ele>
        <time>2022-02-09T11:06:58Z</time>
      </trkpt>
      <trkpt lat="42.86398" lon="0.22087">
        <ele>2483</ele>
        <time>2022-02-09T11:06:59Z</time>
      </trkpt>
      <trkpt lat="42.86398" lon="0.22086">
        <ele>2483.3</ele>
        <time>2022-02-09T11:07:00Z</time>
      </trkpt>
      <trkpt lat="42.86398" lon="0.22085">
        <ele>2483.5</ele>
        <time>2022-02-09T11:07:01Z</time>
      </trkpt>
      <trkpt lat="42.86398" lon="0.22084">
        <ele>2483.8</ele>
        <time>2022-02-09T11:07:02Z</time>
      </trkpt>
      <trkpt lat="42.86398" lon="0.22083">
        <ele>2484</ele>
        <time>2022-02-09T11:07:03Z</time>
      </trkpt>
      <trkpt lat="42.86398" lon="0.22082">
        <ele>2484.3</ele>
        <time>2022-02-09T11:07:04Z</time>
      </trkpt>
      <trkpt lat="42.86398" lon="0.2208">
        <ele>2484.6</ele>
        <time>2022-02-09T11:07:05Z</time>
      </trkpt>
      <trkpt lat="42.86398" lon="0.22079">
        <ele>2484.9</ele>
        <time>2022-02-09T11:07:06Z</time>
      </trkpt>
      <trkpt lat="42.86398" lon="0.22079">
        <ele>2485.1</ele>
        <time>2022-02-09T11:07:07Z</time>
      </trkpt>
      <trkpt lat="42.86398" lon="0.22078">
        <ele>2485.3</ele>
        <time>2022-02-09T11:07:08Z</time>
      </trkpt>
      <trkpt lat="42.86397" lon="0.22077">
        <ele>2485.5</ele>
        <time>2022-02-09T11:07:09Z</time>
      </trkpt>
      <trkpt lat="42.86397" lon="0.22076">
        <ele>2485.6</ele>
        <time>2022-02-09T11:07:10Z</time>
      </trkpt>
      <trkpt lat="42.86397" lon="0.22076">
        <ele>2485.8</ele>
        <time>2022-02-09T11:07:11Z</time>
      </trkpt>
      <trkpt lat="42.86397" lon="0.22075">
        <ele>2486.1</ele>
        <time>2022-02-09T11:07:12Z</time>
      </trkpt>
      <trkpt lat="42.86396" lon="0.22074">
        <ele>2486.8</ele>
        <time>2022-02-09T11:07:13Z</time>
      </trkpt>
      <trkpt lat="42.86396" lon="0.22074">
        <ele>2486.8</ele>
        <time>2022-02-09T11:07:14Z</time>
      </trkpt>
      <trkpt lat="42.86396" lon="0.22073">
        <ele>2486.9</ele>
        <time>2022-02-09T11:07:15Z</time>
      </trkpt>
      <trkpt lat="42.86396" lon="0.22072">
        <ele>2486.9</ele>
        <time>2022-02-09T11:07:16Z</time>
      </trkpt>
      <trkpt lat="42.86396" lon="0.22072">
        <ele>2487</ele>
        <time>2022-02-09T11:07:17Z</time>
      </trkpt>
      <trkpt lat="42.86396" lon="0.22072">
        <ele>2487</ele>
        <time>2022-02-09T11:07:18Z</time>
      </trkpt>
      <trkpt lat="42.86397" lon="0.22071">
        <ele>2487.1</ele>
        <time>2022-02-09T11:07:19Z</time>
      </trkpt>
      <trkpt lat="42.86398" lon="0.22071">
        <ele>2487.1</ele>
        <time>2022-02-09T11:07:20Z</time>
      </trkpt>
      <trkpt lat="42.86398" lon="0.22071">
        <ele>2487.2</ele>
        <time>2022-02-09T11:07:21Z</time>
      </trkpt>
      <trkpt lat="42.86399" lon="0.22071">
        <ele>2487.3</ele>
        <time>2022-02-09T11:07:22Z</time>
      </trkpt>
      <trkpt lat="42.86399" lon="0.22071">
        <ele>2487.3</ele>
        <time>2022-02-09T11:07:23Z</time>
      </trkpt>
      <trkpt lat="42.864" lon="0.22071">
        <ele>2487.4</ele>
        <time>2022-02-09T11:07:24Z</time>
      </trkpt>
      <trkpt lat="42.864" lon="0.22071">
        <ele>2487.5</ele>
        <time>2022-02-09T11:07:25Z</time>
      </trkpt>
      <trkpt lat="42.86401" lon="0.2207">
        <ele>2487.6</ele>
        <time>2022-02-09T11:07:26Z</time>
      </trkpt>
      <trkpt lat="42.86402" lon="0.2207">
        <ele>2487.7</ele>
        <time>2022-02-09T11:07:27Z</time>
      </trkpt>
      <trkpt lat="42.86402" lon="0.22071">
        <ele>2487.8</ele>
        <time>2022-02-09T11:07:28Z</time>
      </trkpt>
      <trkpt lat="42.86403" lon="0.22071">
        <ele>2487.9</ele>
        <time>2022-02-09T11:07:29Z</time>
      </trkpt>
      <trkpt lat="42.86404" lon="0.22071">
        <ele>2488</ele>
        <time>2022-02-09T11:07:30Z</time>
      </trkpt>
      <trkpt lat="42.86404" lon="0.22071">
        <ele>2488.2</ele>
        <time>2022-02-09T11:07:31Z</time>
      </trkpt>
      <trkpt lat="42.86405" lon="0.22071">
        <ele>2488.3</ele>
        <time>2022-02-09T11:07:32Z</time>
      </trkpt>
      <trkpt lat="42.86406" lon="0.22071">
        <ele>2488.4</ele>
        <time>2022-02-09T11:07:33Z</time>
      </trkpt>
      <trkpt lat="42.86406" lon="0.22071">
        <ele>2488.5</ele>
        <time>2022-02-09T11:07:34Z</time>
      </trkpt>
      <trkpt lat="42.86407" lon="0.22071">
        <ele>2488.6</ele>
        <time>2022-02-09T11:07:35Z</time>
      </trkpt>
      <trkpt lat="42.86407" lon="0.22071">
        <ele>2488.7</ele>
        <time>2022-02-09T11:07:36Z</time>
      </trkpt>
      <trkpt lat="42.86408" lon="0.22071">
        <ele>2488.9</ele>
        <time>2022-02-09T11:07:37Z</time>
      </trkpt>
      <trkpt lat="42.86409" lon="0.22071">
        <ele>2489</ele>
        <time>2022-02-09T11:07:38Z</time>
      </trkpt>
      <trkpt lat="42.86409" lon="0.22072">
        <ele>2489.2</ele>
        <time>2022-02-09T11:07:39Z</time>
      </trkpt>
      <trkpt lat="42.8641" lon="0.22072">
        <ele>2489.3</ele>
        <time>2022-02-09T11:07:40Z</time>
      </trkpt>
      <trkpt lat="42.8641" lon="0.22072">
        <ele>2489.4</ele>
        <time>2022-02-09T11:07:41Z</time>
      </trkpt>
      <trkpt lat="42.86411" lon="0.22072">
        <ele>2489.5</ele>
        <time>2022-02-09T11:07:42Z</time>
      </trkpt>
      <trkpt lat="42.86411" lon="0.22072">
        <ele>2489.7</ele>
        <time>2022-02-09T11:07:43Z</time>
      </trkpt>
      <trkpt lat="42.86412" lon="0.22072">
        <ele>2489.8</ele>
        <time>2022-02-09T11:07:44Z</time>
      </trkpt>
      <trkpt lat="42.86412" lon="0.22072">
        <ele>2489.9</ele>
        <time>2022-02-09T11:07:45Z</time>
      </trkpt>
      <trkpt lat="42.86413" lon="0.22073">
        <ele>2490.1</ele>
        <time>2022-02-09T11:07:46Z</time>
      </trkpt>
      <trkpt lat="42.86414" lon="0.22073">
        <ele>2490.2</ele>
        <time>2022-02-09T11:07:47Z</time>
      </trkpt>
      <trkpt lat="42.86414" lon="0.22073">
        <ele>2490.3</ele>
        <time>2022-02-09T11:07:48Z</time>
      </trkpt>
      <trkpt lat="42.86415" lon="0.22073">
        <ele>2490.5</ele>
        <time>2022-02-09T11:07:49Z</time>
      </trkpt>
      <trkpt lat="42.86415" lon="0.22074">
        <ele>2490.6</ele>
        <time>2022-02-09T11:07:50Z</time>
      </trkpt>
      <trkpt lat="42.86416" lon="0.22074">
        <ele>2490.7</ele>
        <time>2022-02-09T11:07:51Z</time>
      </trkpt>
      <trkpt lat="42.86416" lon="0.22074">
        <ele>2490.8</ele>
        <time>2022-02-09T11:07:52Z</time>
      </trkpt>
      <trkpt lat="42.86417" lon="0.22075">
        <ele>2491</ele>
        <time>2022-02-09T11:07:53Z</time>
      </trkpt>
      <trkpt lat="42.86417" lon="0.22075">
        <ele>2491.1</ele>
        <time>2022-02-09T11:07:54Z</time>
      </trkpt>
      <trkpt lat="42.86418" lon="0.22075">
        <ele>2491.2</ele>
        <time>2022-02-09T11:07:55Z</time>
      </trkpt>
      <trkpt lat="42.86419" lon="0.22076">
        <ele>2491.3</ele>
        <time>2022-02-09T11:07:56Z</time>
      </trkpt>
      <trkpt lat="42.86419" lon="0.22076">
        <ele>2491.5</ele>
        <time>2022-02-09T11:07:57Z</time>
      </trkpt>
      <trkpt lat="42.8642" lon="0.22076">
        <ele>2491.6</ele>
        <time>2022-02-09T11:07:58Z</time>
      </trkpt>
      <trkpt lat="42.8642" lon="0.22077">
        <ele>2491.7</ele>
        <time>2022-02-09T11:07:59Z</time>
      </trkpt>
      <trkpt lat="42.86421" lon="0.22077">
        <ele>2491.8</ele>
        <time>2022-02-09T11:08:00Z</time>
      </trkpt>
      <trkpt lat="42.86421" lon="0.22077">
        <ele>2491.9</ele>
        <time>2022-02-09T11:08:01Z</time>
      </trkpt>
      <trkpt lat="42.86422" lon="0.22078">
        <ele>2492</ele>
        <time>2022-02-09T11:08:02Z</time>
      </trkpt>
      <trkpt lat="42.86422" lon="0.22078">
        <ele>2492.1</ele>
        <time>2022-02-09T11:08:03Z</time>
      </trkpt>
      <trkpt lat="42.86423" lon="0.22079">
        <ele>2492.2</ele>
        <time>2022-02-09T11:08:04Z</time>
      </trkpt>
      <trkpt lat="42.86423" lon="0.22079">
        <ele>2492.3</ele>
        <time>2022-02-09T11:08:05Z</time>
      </trkpt>
      <trkpt lat="42.86423" lon="0.2208">
        <ele>2492.4</ele>
        <time>2022-02-09T11:08:06Z</time>
      </trkpt>
      <trkpt lat="42.86424" lon="0.22081">
        <ele>2492.5</ele>
        <time>2022-02-09T11:08:07Z</time>
      </trkpt>
      <trkpt lat="42.86424" lon="0.22081">
        <ele>2492.6</ele>
        <time>2022-02-09T11:08:08Z</time>
      </trkpt>
      <trkpt lat="42.86424" lon="0.22081">
        <ele>2492.6</ele>
        <time>2022-02-09T11:08:09Z</time>
      </trkpt>
      <trkpt lat="42.86425" lon="0.2208">
        <ele>2492.8</ele>
        <time>2022-02-09T11:08:10Z</time>
      </trkpt>
      <trkpt lat="42.86426" lon="0.22079">
        <ele>2493</ele>
        <time>2022-02-09T11:08:11Z</time>
      </trkpt>
      <trkpt lat="42.86427" lon="0.22079">
        <ele>2493.2</ele>
        <time>2022-02-09T11:08:12Z</time>
      </trkpt>
      <trkpt lat="42.86428" lon="0.22078">
        <ele>2493.3</ele>
        <time>2022-02-09T11:08:13Z</time>
      </trkpt>
      <trkpt lat="42.86428" lon="0.22078">
        <ele>2493.4</ele>
        <time>2022-02-09T11:08:14Z</time>
      </trkpt>
      <trkpt lat="42.86428" lon="0.22077">
        <ele>2493.5</ele>
        <time>2022-02-09T11:08:15Z</time>
      </trkpt>
      <trkpt lat="42.86428" lon="0.22076">
        <ele>2493.6</ele>
        <time>2022-02-09T11:08:16Z</time>
      </trkpt>
      <trkpt lat="42.86428" lon="0.22076">
        <ele>2493.7</ele>
        <time>2022-02-09T11:08:17Z</time>
      </trkpt>
      <trkpt lat="42.86429" lon="0.22075">
        <ele>2493.9</ele>
        <time>2022-02-09T11:08:18Z</time>
      </trkpt>
      <trkpt lat="42.86429" lon="0.22074">
        <ele>2494</ele>
        <time>2022-02-09T11:08:19Z</time>
      </trkpt>
      <trkpt lat="42.86429" lon="0.22073">
        <ele>2494.1</ele>
        <time>2022-02-09T11:08:20Z</time>
      </trkpt>
      <trkpt lat="42.86429" lon="0.22072">
        <ele>2494.3</ele>
        <time>2022-02-09T11:08:21Z</time>
      </trkpt>
      <trkpt lat="42.86429" lon="0.22071">
        <ele>2494.4</ele>
        <time>2022-02-09T11:08:22Z</time>
      </trkpt>
      <trkpt lat="42.86429" lon="0.2207">
        <ele>2494.5</ele>
        <time>2022-02-09T11:08:23Z</time>
      </trkpt>
      <trkpt lat="42.86429" lon="0.22069">
        <ele>2494.8</ele>
        <time>2022-02-09T11:08:24Z</time>
      </trkpt>
      <trkpt lat="42.86429" lon="0.22068">
        <ele>2495</ele>
        <time>2022-02-09T11:08:25Z</time>
      </trkpt>
      <trkpt lat="42.86429" lon="0.22067">
        <ele>2495.2</ele>
        <time>2022-02-09T11:08:26Z</time>
      </trkpt>
      <trkpt lat="42.86429" lon="0.22066">
        <ele>2495.4</ele>
        <time>2022-02-09T11:08:27Z</time>
      </trkpt>
      <trkpt lat="42.86429" lon="0.22065">
        <ele>2495.6</ele>
        <time>2022-02-09T11:08:28Z</time>
      </trkpt>
      <trkpt lat="42.86429" lon="0.22064">
        <ele>2495.8</ele>
        <time>2022-02-09T11:08:29Z</time>
      </trkpt>
      <trkpt lat="42.86429" lon="0.22063">
        <ele>2496</ele>
        <time>2022-02-09T11:08:30Z</time>
      </trkpt>
      <trkpt lat="42.86429" lon="0.22062">
        <ele>2496.3</ele>
        <time>2022-02-09T11:08:31Z</time>
      </trkpt>
      <trkpt lat="42.86429" lon="0.22061">
        <ele>2496.5</ele>
        <time>2022-02-09T11:08:32Z</time>
      </trkpt>
      <trkpt lat="42.86429" lon="0.2206">
        <ele>2496.7</ele>
        <time>2022-02-09T11:08:33Z</time>
      </trkpt>
      <trkpt lat="42.86429" lon="0.2206">
        <ele>2496.9</ele>
        <time>2022-02-09T11:08:34Z</time>
      </trkpt>
      <trkpt lat="42.86429" lon="0.22059">
        <ele>2497</ele>
        <time>2022-02-09T11:08:35Z</time>
      </trkpt>
      <trkpt lat="42.8643" lon="0.22059">
        <ele>2497.2</ele>
        <time>2022-02-09T11:08:36Z</time>
      </trkpt>
      <trkpt lat="42.8643" lon="0.22058">
        <ele>2497.3</ele>
        <time>2022-02-09T11:08:37Z</time>
      </trkpt>
      <trkpt lat="42.8643" lon="0.22058">
        <ele>2497.4</ele>
        <time>2022-02-09T11:08:38Z</time>
      </trkpt>
      <trkpt lat="42.86431" lon="0.22058">
        <ele>2497.5</ele>
        <time>2022-02-09T11:08:39Z</time>
      </trkpt>
      <trkpt lat="42.86431" lon="0.22058">
        <ele>2497.7</ele>
        <time>2022-02-09T11:08:40Z</time>
      </trkpt>
      <trkpt lat="42.86432" lon="0.22058">
        <ele>2497.9</ele>
        <time>2022-02-09T11:08:41Z</time>
      </trkpt>
      <trkpt lat="42.86432" lon="0.22058">
        <ele>2498</ele>
        <time>2022-02-09T11:08:42Z</time>
      </trkpt>
      <trkpt lat="42.86432" lon="0.22058">
        <ele>2498.1</ele>
        <time>2022-02-09T11:08:43Z</time>
      </trkpt>
      <trkpt lat="42.86433" lon="0.22058">
        <ele>2498.3</ele>
        <time>2022-02-09T11:08:44Z</time>
      </trkpt>
      <trkpt lat="42.86433" lon="0.22058">
        <ele>2498.5</ele>
        <time>2022-02-09T11:08:45Z</time>
      </trkpt>
      <trkpt lat="42.86434" lon="0.22058">
        <ele>2498.7</ele>
        <time>2022-02-09T11:08:46Z</time>
      </trkpt>
      <trkpt lat="42.86435" lon="0.22058">
        <ele>2498.9</ele>
        <time>2022-02-09T11:08:47Z</time>
      </trkpt>
      <trkpt lat="42.86435" lon="0.22058">
        <ele>2499.1</ele>
        <time>2022-02-09T11:08:48Z</time>
      </trkpt>
      <trkpt lat="42.86436" lon="0.22058">
        <ele>2499.3</ele>
        <time>2022-02-09T11:08:49Z</time>
      </trkpt>
      <trkpt lat="42.86436" lon="0.22058">
        <ele>2499.6</ele>
        <time>2022-02-09T11:08:50Z</time>
      </trkpt>
      <trkpt lat="42.86437" lon="0.22058">
        <ele>2499.8</ele>
        <time>2022-02-09T11:08:51Z</time>
      </trkpt>
      <trkpt lat="42.86438" lon="0.22058">
        <ele>2500</ele>
        <time>2022-02-09T11:08:52Z</time>
      </trkpt>
      <trkpt lat="42.86438" lon="0.22058">
        <ele>2500.3</ele>
        <time>2022-02-09T11:08:53Z</time>
      </trkpt>
      <trkpt lat="42.86439" lon="0.22058">
        <ele>2500.5</ele>
        <time>2022-02-09T11:08:54Z</time>
      </trkpt>
      <trkpt lat="42.86439" lon="0.22059">
        <ele>2500.7</ele>
        <time>2022-02-09T11:08:55Z</time>
      </trkpt>
      <trkpt lat="42.8644" lon="0.22059">
        <ele>2500.9</ele>
        <time>2022-02-09T11:08:56Z</time>
      </trkpt>
      <trkpt lat="42.8644" lon="0.22059">
        <ele>2501</ele>
        <time>2022-02-09T11:08:57Z</time>
      </trkpt>
      <trkpt lat="42.86441" lon="0.22059">
        <ele>2501.3</ele>
        <time>2022-02-09T11:08:58Z</time>
      </trkpt>
      <trkpt lat="42.86442" lon="0.22059">
        <ele>2501.5</ele>
        <time>2022-02-09T11:08:59Z</time>
      </trkpt>
      <trkpt lat="42.86442" lon="0.22059">
        <ele>2501.7</ele>
        <time>2022-02-09T11:09:00Z</time>
      </trkpt>
      <trkpt lat="42.86443" lon="0.22058">
        <ele>2501.8</ele>
        <time>2022-02-09T11:09:01Z</time>
      </trkpt>
      <trkpt lat="42.86443" lon="0.22058">
        <ele>2502</ele>
        <time>2022-02-09T11:09:02Z</time>
      </trkpt>
      <trkpt lat="42.86444" lon="0.22058">
        <ele>2502.2</ele>
        <time>2022-02-09T11:09:03Z</time>
      </trkpt>
      <trkpt lat="42.86444" lon="0.22057">
        <ele>2502.4</ele>
        <time>2022-02-09T11:09:04Z</time>
      </trkpt>
      <trkpt lat="42.86445" lon="0.22057">
        <ele>2502.6</ele>
        <time>2022-02-09T11:09:05Z</time>
      </trkpt>
      <trkpt lat="42.86445" lon="0.22056">
        <ele>2502.8</ele>
        <time>2022-02-09T11:09:06Z</time>
      </trkpt>
      <trkpt lat="42.86446" lon="0.22056">
        <ele>2503</ele>
        <time>2022-02-09T11:09:07Z</time>
      </trkpt>
      <trkpt lat="42.86446" lon="0.22055">
        <ele>2503.1</ele>
        <time>2022-02-09T11:09:08Z</time>
      </trkpt>
      <trkpt lat="42.86446" lon="0.22055">
        <ele>2503.3</ele>
        <time>2022-02-09T11:09:09Z</time>
      </trkpt>
      <trkpt lat="42.86447" lon="0.22055">
        <ele>2503.5</ele>
        <time>2022-02-09T11:09:10Z</time>
      </trkpt>
      <trkpt lat="42.86447" lon="0.22054">
        <ele>2503.6</ele>
        <time>2022-02-09T11:09:11Z</time>
      </trkpt>
      <trkpt lat="42.86448" lon="0.22054">
        <ele>2503.8</ele>
        <time>2022-02-09T11:09:12Z</time>
      </trkpt>
      <trkpt lat="42.86448" lon="0.22053">
        <ele>2504</ele>
        <time>2022-02-09T11:09:13Z</time>
      </trkpt>
      <trkpt lat="42.86449" lon="0.22053">
        <ele>2504.2</ele>
        <time>2022-02-09T11:09:14Z</time>
      </trkpt>
      <trkpt lat="42.86449" lon="0.22052">
        <ele>2504.3</ele>
        <time>2022-02-09T11:09:15Z</time>
      </trkpt>
      <trkpt lat="42.8645" lon="0.22052">
        <ele>2504.4</ele>
        <time>2022-02-09T11:09:16Z</time>
      </trkpt>
      <trkpt lat="42.86451" lon="0.22052">
        <ele>2504.6</ele>
        <time>2022-02-09T11:09:17Z</time>
      </trkpt>
      <trkpt lat="42.86451" lon="0.22052">
        <ele>2504.7</ele>
        <time>2022-02-09T11:09:18Z</time>
      </trkpt>
      <trkpt lat="42.86452" lon="0.22051">
        <ele>2504.8</ele>
        <time>2022-02-09T11:09:19Z</time>
      </trkpt>
      <trkpt lat="42.86452" lon="0.22051">
        <ele>2505</ele>
        <time>2022-02-09T11:09:20Z</time>
      </trkpt>
      <trkpt lat="42.86453" lon="0.22051">
        <ele>2505.1</ele>
        <time>2022-02-09T11:09:21Z</time>
      </trkpt>
      <trkpt lat="42.86453" lon="0.22051">
        <ele>2505.3</ele>
        <time>2022-02-09T11:09:22Z</time>
      </trkpt>
      <trkpt lat="42.86454" lon="0.2205">
        <ele>2505.4</ele>
        <time>2022-02-09T11:09:23Z</time>
      </trkpt>
      <trkpt lat="42.86454" lon="0.2205">
        <ele>2505.5</ele>
        <time>2022-02-09T11:09:24Z</time>
      </trkpt>
      <trkpt lat="42.86455" lon="0.22049">
        <ele>2505.6</ele>
        <time>2022-02-09T11:09:25Z</time>
      </trkpt>
      <trkpt lat="42.86455" lon="0.22049">
        <ele>2505.7</ele>
        <time>2022-02-09T11:09:26Z</time>
      </trkpt>
      <trkpt lat="42.86456" lon="0.22049">
        <ele>2505.8</ele>
        <time>2022-02-09T11:09:27Z</time>
      </trkpt>
      <trkpt lat="42.86456" lon="0.22048">
        <ele>2505.9</ele>
        <time>2022-02-09T11:09:28Z</time>
      </trkpt>
      <trkpt lat="42.86457" lon="0.22048">
        <ele>2506</ele>
        <time>2022-02-09T11:09:29Z</time>
      </trkpt>
      <trkpt lat="42.86457" lon="0.22048">
        <ele>2506.1</ele>
        <time>2022-02-09T11:09:30Z</time>
      </trkpt>
      <trkpt lat="42.86458" lon="0.22047">
        <ele>2506.2</ele>
        <time>2022-02-09T11:09:31Z</time>
      </trkpt>
      <trkpt lat="42.86458" lon="0.22047">
        <ele>2506.2</ele>
        <time>2022-02-09T11:09:32Z</time>
      </trkpt>
      <trkpt lat="42.86459" lon="0.22047">
        <ele>2506.3</ele>
        <time>2022-02-09T11:09:33Z</time>
      </trkpt>
      <trkpt lat="42.8646" lon="0.22046">
        <ele>2506.4</ele>
        <time>2022-02-09T11:09:34Z</time>
      </trkpt>
      <trkpt lat="42.8646" lon="0.22046">
        <ele>2506.4</ele>
        <time>2022-02-09T11:09:35Z</time>
      </trkpt>
      <trkpt lat="42.8646" lon="0.22045">
        <ele>2506.5</ele>
        <time>2022-02-09T11:09:36Z</time>
      </trkpt>
      <trkpt lat="42.86461" lon="0.22045">
        <ele>2506.5</ele>
        <time>2022-02-09T11:09:37Z</time>
      </trkpt>
      <trkpt lat="42.86461" lon="0.22045">
        <ele>2506.6</ele>
        <time>2022-02-09T11:09:38Z</time>
      </trkpt>
      <trkpt lat="42.86462" lon="0.22044">
        <ele>2506.6</ele>
        <time>2022-02-09T11:09:39Z</time>
      </trkpt>
      <trkpt lat="42.86462" lon="0.22044">
        <ele>2506.7</ele>
        <time>2022-02-09T11:09:40Z</time>
      </trkpt>
      <trkpt lat="42.86463" lon="0.22043">
        <ele>2506.7</ele>
        <time>2022-02-09T11:09:41Z</time>
      </trkpt>
      <trkpt lat="42.86464" lon="0.22043">
        <ele>2506.7</ele>
        <time>2022-02-09T11:09:42Z</time>
      </trkpt>
      <trkpt lat="42.86464" lon="0.22042">
        <ele>2506.8</ele>
        <time>2022-02-09T11:09:43Z</time>
      </trkpt>
      <trkpt lat="42.86465" lon="0.22042">
        <ele>2506.8</ele>
        <time>2022-02-09T11:09:44Z</time>
      </trkpt>
      <trkpt lat="42.86465" lon="0.22042">
        <ele>2506.8</ele>
        <time>2022-02-09T11:09:45Z</time>
      </trkpt>
      <trkpt lat="42.86466" lon="0.22042">
        <ele>2506.9</ele>
        <time>2022-02-09T11:09:46Z</time>
      </trkpt>
      <trkpt lat="42.86467" lon="0.22041">
        <ele>2506.9</ele>
        <time>2022-02-09T11:09:47Z</time>
      </trkpt>
      <trkpt lat="42.86467" lon="0.22041">
        <ele>2506.9</ele>
        <time>2022-02-09T11:09:48Z</time>
      </trkpt>
      <trkpt lat="42.86468" lon="0.22041">
        <ele>2506.9</ele>
        <time>2022-02-09T11:09:49Z</time>
      </trkpt>
      <trkpt lat="42.86468" lon="0.22041">
        <ele>2506.9</ele>
        <time>2022-02-09T11:09:50Z</time>
      </trkpt>
      <trkpt lat="42.86469" lon="0.22041">
        <ele>2507</ele>
        <time>2022-02-09T11:09:51Z</time>
      </trkpt>
      <trkpt lat="42.8647" lon="0.2204">
        <ele>2507</ele>
        <time>2022-02-09T11:09:52Z</time>
      </trkpt>
      <trkpt lat="42.8647" lon="0.2204">
        <ele>2507</ele>
        <time>2022-02-09T11:09:53Z</time>
      </trkpt>
      <trkpt lat="42.86471" lon="0.2204">
        <ele>2507</ele>
        <time>2022-02-09T11:09:54Z</time>
      </trkpt>
      <trkpt lat="42.86472" lon="0.22039">
        <ele>2507</ele>
        <time>2022-02-09T11:09:55Z</time>
      </trkpt>
      <trkpt lat="42.86472" lon="0.22039">
        <ele>2507.1</ele>
        <time>2022-02-09T11:09:56Z</time>
      </trkpt>
      <trkpt lat="42.86473" lon="0.22039">
        <ele>2507.1</ele>
        <time>2022-02-09T11:09:57Z</time>
      </trkpt>
      <trkpt lat="42.86473" lon="0.22038">
        <ele>2507.1</ele>
        <time>2022-02-09T11:09:58Z</time>
      </trkpt>
      <trkpt lat="42.86474" lon="0.22038">
        <ele>2507.1</ele>
        <time>2022-02-09T11:09:59Z</time>
      </trkpt>
      <trkpt lat="42.86474" lon="0.22038">
        <ele>2507.1</ele>
        <time>2022-02-09T11:10:00Z</time>
      </trkpt>
      <trkpt lat="42.86474" lon="0.22038">
        <ele>2507.1</ele>
        <time>2022-02-09T11:10:01Z</time>
      </trkpt>
      <trkpt lat="42.86474" lon="0.22038">
        <ele>2507.1</ele>
        <time>2022-02-09T11:10:02Z</time>
      </trkpt>
      <trkpt lat="42.86474" lon="0.22038">
        <ele>2507.1</ele>
        <time>2022-02-09T11:10:03Z</time>
      </trkpt>
      <trkpt lat="42.86474" lon="0.22038">
        <ele>2507.1</ele>
        <time>2022-02-09T11:10:04Z</time>
      </trkpt>
      <trkpt lat="42.86474" lon="0.22038">
        <ele>2507.1</ele>
        <time>2022-02-09T11:10:05Z</time>
      </trkpt>
      <trkpt lat="42.86474" lon="0.22038">
        <ele>2507.1</ele>
        <time>2022-02-09T11:10:06Z</time>
      </trkpt>
      <trkpt lat="42.86474" lon="0.22038">
        <ele>2507.1</ele>
        <time>2022-02-09T11:10:07Z</time>
      </trkpt>
      <trkpt lat="42.86474" lon="0.22038">
        <ele>2507.1</ele>
        <time>2022-02-09T11:10:08Z</time>
      </trkpt>
      <trkpt lat="42.86474" lon="0.22038">
        <ele>2507.1</ele>
        <time>2022-02-09T11:10:09Z</time>
      </trkpt>
      <trkpt lat="42.86474" lon="0.22038">
        <ele>2507.1</ele>
        <time>2022-02-09T11:10:10Z</time>
      </trkpt>
      <trkpt lat="42.86474" lon="0.22038">
        <ele>2507.1</ele>
        <time>2022-02-09T11:10:11Z</time>
      </trkpt>
      <trkpt lat="42.86474" lon="0.22038">
        <ele>2507.1</ele>
        <time>2022-02-09T11:10:12Z</time>
      </trkpt>
      <trkpt lat="42.86474" lon="0.22038">
        <ele>2507.1</ele>
        <time>2022-02-09T11:10:13Z</time>
      </trkpt>
      <trkpt lat="42.86474" lon="0.22038">
        <ele>2507.1</ele>
        <time>2022-02-09T11:10:14Z</time>
      </trkpt>
      <trkpt lat="42.86474" lon="0.22038">
        <ele>2507.1</ele>
        <time>2022-02-09T11:10:15Z</time>
      </trkpt>
      <trkpt lat="42.86474" lon="0.22038">
        <ele>2507.1</ele>
        <time>2022-02-09T11:10:16Z</time>
      </trkpt>
      <trkpt lat="42.86474" lon="0.22038">
        <ele>2507.1</ele>
        <time>2022-02-09T11:10:17Z</time>
      </trkpt>
      <trkpt lat="42.86474" lon="0.22038">
        <ele>2507.1</ele>
        <time>2022-02-09T11:10:18Z</time>
      </trkpt>
      <trkpt lat="42.86474" lon="0.22038">
        <ele>2507.1</ele>
        <time>2022-02-09T11:10:19Z</time>
      </trkpt>
      <trkpt lat="42.86474" lon="0.22038">
        <ele>2507.1</ele>
        <time>2022-02-09T11:10:20Z</time>
      </trkpt>
      <trkpt lat="42.86474" lon="0.22038">
        <ele>2507.1</ele>
        <time>2022-02-09T11:10:21Z</time>
      </trkpt>
      <trkpt lat="42.86474" lon="0.22038">
        <ele>2507.1</ele>
        <time>2022-02-09T11:10:22Z</time>
      </trkpt>
      <trkpt lat="42.86474" lon="0.22038">
        <ele>2507.1</ele>
        <time>2022-02-09T11:10:23Z</time>
      </trkpt>
      <trkpt lat="42.86474" lon="0.22038">
        <ele>2507.1</ele>
        <time>2022-02-09T11:10:24Z</time>
      </trkpt>
      <trkpt lat="42.86474" lon="0.22038">
        <ele>2507.1</ele>
        <time>2022-02-09T11:10:25Z</time>
      </trkpt>
      <trkpt lat="42.86474" lon="0.22038">
        <ele>2507.1</ele>
        <time>2022-02-09T11:10:26Z</time>
      </trkpt>
      <trkpt lat="42.86474" lon="0.22038">
        <ele>2507.1</ele>
        <time>2022-02-09T11:10:27Z</time>
      </trkpt>
      <trkpt lat="42.86474" lon="0.22038">
        <ele>2507.1</ele>
        <time>2022-02-09T11:10:28Z</time>
      </trkpt>
      <trkpt lat="42.86474" lon="0.22038">
        <ele>2507.1</ele>
        <time>2022-02-09T11:10:29Z</time>
      </trkpt>
      <trkpt lat="42.86474" lon="0.22038">
        <ele>2507.1</ele>
        <time>2022-02-09T11:10:30Z</time>
      </trkpt>
      <trkpt lat="42.86474" lon="0.22038">
        <ele>2507.1</ele>
        <time>2022-02-09T11:10:31Z</time>
      </trkpt>
      <trkpt lat="42.86474" lon="0.22038">
        <ele>2507.1</ele>
        <time>2022-02-09T11:10:32Z</time>
      </trkpt>
      <trkpt lat="42.86474" lon="0.22038">
        <ele>2507.1</ele>
        <time>2022-02-09T11:10:33Z</time>
      </trkpt>
      <trkpt lat="42.86474" lon="0.22038">
        <ele>2507.1</ele>
        <time>2022-02-09T11:10:34Z</time>
      </trkpt>
      <trkpt lat="42.86474" lon="0.22038">
        <ele>2507.1</ele>
        <time>2022-02-09T11:10:35Z</time>
      </trkpt>
      <trkpt lat="42.86474" lon="0.22038">
        <ele>2507.1</ele>
        <time>2022-02-09T11:10:36Z</time>
      </trkpt>
      <trkpt lat="42.86474" lon="0.22038">
        <ele>2507.1</ele>
        <time>2022-02-09T11:10:37Z</time>
      </trkpt>
      <trkpt lat="42.86474" lon="0.22038">
        <ele>2507.1</ele>
        <time>2022-02-09T11:10:38Z</time>
      </trkpt>
      <trkpt lat="42.86474" lon="0.22038">
        <ele>2507.1</ele>
        <time>2022-02-09T11:10:39Z</time>
      </trkpt>
      <trkpt lat="42.86474" lon="0.22038">
        <ele>2507.1</ele>
        <time>2022-02-09T11:10:40Z</time>
      </trkpt>
      <trkpt lat="42.86474" lon="0.22038">
        <ele>2507.1</ele>
        <time>2022-02-09T11:10:41Z</time>
      </trkpt>
      <trkpt lat="42.86474" lon="0.22038">
        <ele>2507.1</ele>
        <time>2022-02-09T11:10:42Z</time>
      </trkpt>
      <trkpt lat="42.86474" lon="0.22038">
        <ele>2507.1</ele>
        <time>2022-02-09T11:10:43Z</time>
      </trkpt>
      <trkpt lat="42.86474" lon="0.22038">
        <ele>2507.1</ele>
        <time>2022-02-09T11:10:44Z</time>
      </trkpt>
      <trkpt lat="42.86474" lon="0.22038">
        <ele>2507.1</ele>
        <time>2022-02-09T11:10:45Z</time>
      </trkpt>
      <trkpt lat="42.86474" lon="0.22038">
        <ele>2507.1</ele>
        <time>2022-02-09T11:10:46Z</time>
      </trkpt>
      <trkpt lat="42.86474" lon="0.22038">
        <ele>2507.1</ele>
        <time>2022-02-09T11:10:47Z</time>
      </trkpt>
      <trkpt lat="42.86474" lon="0.22038">
        <ele>2507.1</ele>
        <time>2022-02-09T11:10:48Z</time>
      </trkpt>
      <trkpt lat="42.86474" lon="0.22038">
        <ele>2507.1</ele>
        <time>2022-02-09T11:10:49Z</time>
      </trkpt>
      <trkpt lat="42.86474" lon="0.22038">
        <ele>2507.1</ele>
        <time>2022-02-09T11:10:50Z</time>
      </trkpt>
      <trkpt lat="42.86474" lon="0.22038">
        <ele>2507.1</ele>
        <time>2022-02-09T11:10:51Z</time>
      </trkpt>
      <trkpt lat="42.86474" lon="0.22038">
        <ele>2507.1</ele>
        <time>2022-02-09T11:10:52Z</time>
      </trkpt>
      <trkpt lat="42.86474" lon="0.22038">
        <ele>2507.1</ele>
        <time>2022-02-09T11:10:53Z</time>
      </trkpt>
      <trkpt lat="42.86474" lon="0.22038">
        <ele>2507.1</ele>
        <time>2022-02-09T11:10:54Z</time>
      </trkpt>
      <trkpt lat="42.86474" lon="0.22038">
        <ele>2507.1</ele>
        <time>2022-02-09T11:10:55Z</time>
      </trkpt>
      <trkpt lat="42.86474" lon="0.22038">
        <ele>2507.1</ele>
        <time>2022-02-09T11:10:56Z</time>
      </trkpt>
      <trkpt lat="42.86474" lon="0.22038">
        <ele>2507.1</ele>
        <time>2022-02-09T11:10:57Z</time>
      </trkpt>
      <trkpt lat="42.86474" lon="0.22038">
        <ele>2507.1</ele>
        <time>2022-02-09T11:10:58Z</time>
      </trkpt>
      <trkpt lat="42.86474" lon="0.22038">
        <ele>2507.1</ele>
        <time>2022-02-09T11:10:59Z</time>
      </trkpt>
      <trkpt lat="42.86474" lon="0.22038">
        <ele>2507.1</ele>
        <time>2022-02-09T11:11:00Z</time>
      </trkpt>
      <trkpt lat="42.86474" lon="0.22038">
        <ele>2507.1</ele>
        <time>2022-02-09T11:11:01Z</time>
      </trkpt>
      <trkpt lat="42.86474" lon="0.22038">
        <ele>2507.1</ele>
        <time>2022-02-09T11:11:02Z</time>
      </trkpt>
      <trkpt lat="42.86474" lon="0.22038">
        <ele>2507.1</ele>
        <time>2022-02-09T11:11:03Z</time>
      </trkpt>
      <trkpt lat="42.86474" lon="0.22038">
        <ele>2507.1</ele>
        <time>2022-02-09T11:11:04Z</time>
      </trkpt>
      <trkpt lat="42.86474" lon="0.22038">
        <ele>2507.1</ele>
        <time>2022-02-09T11:11:05Z</time>
      </trkpt>
      <trkpt lat="42.86474" lon="0.22038">
        <ele>2507.1</ele>
        <time>2022-02-09T11:11:06Z</time>
      </trkpt>
      <trkpt lat="42.86474" lon="0.22038">
        <ele>2507.1</ele>
        <time>2022-02-09T11:11:07Z</time>
      </trkpt>
      <trkpt lat="42.86474" lon="0.22038">
        <ele>2507.1</ele>
        <time>2022-02-09T11:11:08Z</time>
      </trkpt>
      <trkpt lat="42.86474" lon="0.22038">
        <ele>2507.1</ele>
        <time>2022-02-09T11:11:09Z</time>
      </trkpt>
      <trkpt lat="42.86474" lon="0.22038">
        <ele>2507.1</ele>
        <time>2022-02-09T11:11:10Z</time>
      </trkpt>
      <trkpt lat="42.86474" lon="0.22038">
        <ele>2507.1</ele>
        <time>2022-02-09T11:11:11Z</time>
      </trkpt>
      <trkpt lat="42.86474" lon="0.22038">
        <ele>2507.1</ele>
        <time>2022-02-09T11:11:12Z</time>
      </trkpt>
      <trkpt lat="42.86474" lon="0.22038">
        <ele>2507.1</ele>
        <time>2022-02-09T11:11:13Z</time>
      </trkpt>
      <trkpt lat="42.86474" lon="0.22038">
        <ele>2507.1</ele>
        <time>2022-02-09T11:11:14Z</time>
      </trkpt>
      <trkpt lat="42.86474" lon="0.22038">
        <ele>2507.1</ele>
        <time>2022-02-09T11:11:15Z</time>
      </trkpt>
      <trkpt lat="42.86474" lon="0.22038">
        <ele>2507.1</ele>
        <time>2022-02-09T11:11:16Z</time>
      </trkpt>
      <trkpt lat="42.86474" lon="0.22038">
        <ele>2507.1</ele>
        <time>2022-02-09T11:11:17Z</time>
      </trkpt>
      <trkpt lat="42.86474" lon="0.22038">
        <ele>2507.1</ele>
        <time>2022-02-09T11:11:18Z</time>
      </trkpt>
      <trkpt lat="42.86474" lon="0.22038">
        <ele>2507.1</ele>
        <time>2022-02-09T11:11:19Z</time>
      </trkpt>
      <trkpt lat="42.86474" lon="0.22038">
        <ele>2507.1</ele>
        <time>2022-02-09T11:11:20Z</time>
      </trkpt>
      <trkpt lat="42.86474" lon="0.22038">
        <ele>2507.1</ele>
        <time>2022-02-09T11:11:21Z</time>
      </trkpt>
      <trkpt lat="42.86474" lon="0.22038">
        <ele>2507.1</ele>
        <time>2022-02-09T11:11:22Z</time>
      </trkpt>
      <trkpt lat="42.86474" lon="0.22038">
        <ele>2507.1</ele>
        <time>2022-02-09T11:11:23Z</time>
      </trkpt>
      <trkpt lat="42.86474" lon="0.22038">
        <ele>2507.1</ele>
        <time>2022-02-09T11:11:24Z</time>
      </trkpt>
      <trkpt lat="42.86474" lon="0.22038">
        <ele>2507.1</ele>
        <time>2022-02-09T11:11:25Z</time>
      </trkpt>
      <trkpt lat="42.86474" lon="0.22038">
        <ele>2507.1</ele>
        <time>2022-02-09T11:11:26Z</time>
      </trkpt>
      <trkpt lat="42.86474" lon="0.22038">
        <ele>2507.1</ele>
        <time>2022-02-09T11:11:27Z</time>
      </trkpt>
      <trkpt lat="42.86474" lon="0.22038">
        <ele>2507.1</ele>
        <time>2022-02-09T11:11:28Z</time>
      </trkpt>
      <trkpt lat="42.86474" lon="0.22038">
        <ele>2507.1</ele>
        <time>2022-02-09T11:11:29Z</time>
      </trkpt>
      <trkpt lat="42.86474" lon="0.22038">
        <ele>2507.1</ele>
        <time>2022-02-09T11:11:30Z</time>
      </trkpt>
      <trkpt lat="42.86474" lon="0.22038">
        <ele>2507.1</ele>
        <time>2022-02-09T11:11:31Z</time>
      </trkpt>
      <trkpt lat="42.86474" lon="0.22038">
        <ele>2507.1</ele>
        <time>2022-02-09T11:11:32Z</time>
      </trkpt>
      <trkpt lat="42.86474" lon="0.22038">
        <ele>2507.1</ele>
        <time>2022-02-09T11:11:33Z</time>
      </trkpt>
      <trkpt lat="42.86474" lon="0.22038">
        <ele>2507.1</ele>
        <time>2022-02-09T11:11:34Z</time>
      </trkpt>
      <trkpt lat="42.86474" lon="0.22038">
        <ele>2507.1</ele>
        <time>2022-02-09T11:11:35Z</time>
      </trkpt>
      <trkpt lat="42.86474" lon="0.22038">
        <ele>2507.1</ele>
        <time>2022-02-09T11:11:36Z</time>
      </trkpt>
      <trkpt lat="42.86474" lon="0.22038">
        <ele>2507.1</ele>
        <time>2022-02-09T11:11:37Z</time>
      </trkpt>
      <trkpt lat="42.86474" lon="0.22038">
        <ele>2507.1</ele>
        <time>2022-02-09T11:11:38Z</time>
      </trkpt>
      <trkpt lat="42.86474" lon="0.22038">
        <ele>2507.1</ele>
        <time>2022-02-09T11:11:39Z</time>
      </trkpt>
      <trkpt lat="42.86474" lon="0.22038">
        <ele>2507.1</ele>
        <time>2022-02-09T11:11:40Z</time>
      </trkpt>
      <trkpt lat="42.86474" lon="0.22038">
        <ele>2507.1</ele>
        <time>2022-02-09T11:11:41Z</time>
      </trkpt>
      <trkpt lat="42.86474" lon="0.22038">
        <ele>2507.1</ele>
        <time>2022-02-09T11:11:42Z</time>
      </trkpt>
      <trkpt lat="42.86474" lon="0.22038">
        <ele>2507.1</ele>
        <time>2022-02-09T11:11:43Z</time>
      </trkpt>
      <trkpt lat="42.86474" lon="0.22038">
        <ele>2507.1</ele>
        <time>2022-02-09T11:11:44Z</time>
      </trkpt>
      <trkpt lat="42.86474" lon="0.22038">
        <ele>2507.1</ele>
        <time>2022-02-09T11:11:45Z</time>
      </trkpt>
      <trkpt lat="42.86474" lon="0.22038">
        <ele>2507.1</ele>
        <time>2022-02-09T11:11:46Z</time>
      </trkpt>
      <trkpt lat="42.86474" lon="0.22038">
        <ele>2507.1</ele>
        <time>2022-02-09T11:11:47Z</time>
      </trkpt>
      <trkpt lat="42.86474" lon="0.22038">
        <ele>2507.1</ele>
        <time>2022-02-09T11:11:48Z</time>
      </trkpt>
      <trkpt lat="42.86474" lon="0.22038">
        <ele>2507.1</ele>
        <time>2022-02-09T11:11:49Z</time>
      </trkpt>
      <trkpt lat="42.86474" lon="0.22038">
        <ele>2507.1</ele>
        <time>2022-02-09T11:11:50Z</time>
      </trkpt>
      <trkpt lat="42.86474" lon="0.22038">
        <ele>2507.1</ele>
        <time>2022-02-09T11:11:51Z</time>
      </trkpt>
      <trkpt lat="42.86474" lon="0.22038">
        <ele>2507.1</ele>
        <time>2022-02-09T11:11:52Z</time>
      </trkpt>
      <trkpt lat="42.86474" lon="0.22038">
        <ele>2507.1</ele>
        <time>2022-02-09T11:11:53Z</time>
      </trkpt>
      <trkpt lat="42.86474" lon="0.22038">
        <ele>2507.1</ele>
        <time>2022-02-09T11:11:54Z</time>
      </trkpt>
      <trkpt lat="42.86474" lon="0.22038">
        <ele>2507.1</ele>
        <time>2022-02-09T11:11:55Z</time>
      </trkpt>
      <trkpt lat="42.86474" lon="0.22038">
        <ele>2507.1</ele>
        <time>2022-02-09T11:11:56Z</time>
      </trkpt>
      <trkpt lat="42.86474" lon="0.22038">
        <ele>2507.1</ele>
        <time>2022-02-09T11:11:57Z</time>
      </trkpt>
      <trkpt lat="42.86474" lon="0.22038">
        <ele>2507.1</ele>
        <time>2022-02-09T11:11:58Z</time>
      </trkpt>
      <trkpt lat="42.86474" lon="0.22038">
        <ele>2507.1</ele>
        <time>2022-02-09T11:11:59Z</time>
      </trkpt>
      <trkpt lat="42.86474" lon="0.22038">
        <ele>2507.1</ele>
        <time>2022-02-09T11:12:00Z</time>
      </trkpt>
      <trkpt lat="42.86474" lon="0.22038">
        <ele>2507.1</ele>
        <time>2022-02-09T11:12:01Z</time>
      </trkpt>
      <trkpt lat="42.86474" lon="0.22038">
        <ele>2507.1</ele>
        <time>2022-02-09T11:12:02Z</time>
      </trkpt>
      <trkpt lat="42.86474" lon="0.22038">
        <ele>2507.1</ele>
        <time>2022-02-09T11:12:03Z</time>
      </trkpt>
      <trkpt lat="42.86474" lon="0.22038">
        <ele>2507.1</ele>
        <time>2022-02-09T11:12:04Z</time>
      </trkpt>
      <trkpt lat="42.86474" lon="0.22038">
        <ele>2507.1</ele>
        <time>2022-02-09T11:12:05Z</time>
      </trkpt>
      <trkpt lat="42.86474" lon="0.22038">
        <ele>2507.1</ele>
        <time>2022-02-09T11:12:06Z</time>
      </trkpt>
      <trkpt lat="42.86474" lon="0.22038">
        <ele>2507.1</ele>
        <time>2022-02-09T11:12:07Z</time>
      </trkpt>
      <trkpt lat="42.86474" lon="0.22038">
        <ele>2507.1</ele>
        <time>2022-02-09T11:12:08Z</time>
      </trkpt>
      <trkpt lat="42.86474" lon="0.22038">
        <ele>2507.1</ele>
        <time>2022-02-09T11:12:09Z</time>
      </trkpt>
      <trkpt lat="42.86474" lon="0.22038">
        <ele>2507.1</ele>
        <time>2022-02-09T11:12:10Z</time>
      </trkpt>
      <trkpt lat="42.86474" lon="0.22038">
        <ele>2507.1</ele>
        <time>2022-02-09T11:12:11Z</time>
      </trkpt>
      <trkpt lat="42.86474" lon="0.22038">
        <ele>2507.1</ele>
        <time>2022-02-09T11:12:12Z</time>
      </trkpt>
      <trkpt lat="42.86474" lon="0.22038">
        <ele>2507.1</ele>
        <time>2022-02-09T11:12:13Z</time>
      </trkpt>
      <trkpt lat="42.86474" lon="0.22038">
        <ele>2507.1</ele>
        <time>2022-02-09T11:12:14Z</time>
      </trkpt>
      <trkpt lat="42.86474" lon="0.22038">
        <ele>2507.1</ele>
        <time>2022-02-09T11:12:15Z</time>
      </trkpt>
      <trkpt lat="42.86474" lon="0.22038">
        <ele>2507.1</ele>
        <time>2022-02-09T11:12:16Z</time>
      </trkpt>
      <trkpt lat="42.86474" lon="0.22038">
        <ele>2507.1</ele>
        <time>2022-02-09T11:12:17Z</time>
      </trkpt>
      <trkpt lat="42.86474" lon="0.22038">
        <ele>2507.1</ele>
        <time>2022-02-09T11:12:18Z</time>
      </trkpt>
      <trkpt lat="42.86474" lon="0.22038">
        <ele>2507.1</ele>
        <time>2022-02-09T11:12:19Z</time>
      </trkpt>
      <trkpt lat="42.86474" lon="0.22038">
        <ele>2507.1</ele>
        <time>2022-02-09T11:12:20Z</time>
      </trkpt>
      <trkpt lat="42.86474" lon="0.22038">
        <ele>2507.1</ele>
        <time>2022-02-09T11:12:21Z</time>
      </trkpt>
      <trkpt lat="42.86474" lon="0.22038">
        <ele>2507.1</ele>
        <time>2022-02-09T11:12:22Z</time>
      </trkpt>
      <trkpt lat="42.86474" lon="0.22038">
        <ele>2507.1</ele>
        <time>2022-02-09T11:12:23Z</time>
      </trkpt>
      <trkpt lat="42.86474" lon="0.22038">
        <ele>2507.1</ele>
        <time>2022-02-09T11:12:24Z</time>
      </trkpt>
      <trkpt lat="42.86474" lon="0.22038">
        <ele>2507.1</ele>
        <time>2022-02-09T11:12:25Z</time>
      </trkpt>
      <trkpt lat="42.86474" lon="0.22038">
        <ele>2507.1</ele>
        <time>2022-02-09T11:12:26Z</time>
      </trkpt>
      <trkpt lat="42.86474" lon="0.22038">
        <ele>2507.1</ele>
        <time>2022-02-09T11:12:27Z</time>
      </trkpt>
      <trkpt lat="42.86474" lon="0.22038">
        <ele>2507.1</ele>
        <time>2022-02-09T11:12:28Z</time>
      </trkpt>
      <trkpt lat="42.86474" lon="0.22038">
        <ele>2507.1</ele>
        <time>2022-02-09T11:12:29Z</time>
      </trkpt>
      <trkpt lat="42.86474" lon="0.22038">
        <ele>2507.1</ele>
        <time>2022-02-09T11:12:30Z</time>
      </trkpt>
      <trkpt lat="42.86474" lon="0.22038">
        <ele>2507.1</ele>
        <time>2022-02-09T11:12:31Z</time>
      </trkpt>
      <trkpt lat="42.86474" lon="0.22038">
        <ele>2507.1</ele>
        <time>2022-02-09T11:12:32Z</time>
      </trkpt>
      <trkpt lat="42.86474" lon="0.22038">
        <ele>2507.1</ele>
        <time>2022-02-09T11:12:33Z</time>
      </trkpt>
      <trkpt lat="42.86474" lon="0.22038">
        <ele>2507.1</ele>
        <time>2022-02-09T11:12:34Z</time>
      </trkpt>
      <trkpt lat="42.86474" lon="0.22038">
        <ele>2507.1</ele>
        <time>2022-02-09T11:12:35Z</time>
      </trkpt>
      <trkpt lat="42.86474" lon="0.22038">
        <ele>2507.1</ele>
        <time>2022-02-09T11:12:36Z</time>
      </trkpt>
      <trkpt lat="42.86474" lon="0.22038">
        <ele>2507.1</ele>
        <time>2022-02-09T11:12:37Z</time>
      </trkpt>
      <trkpt lat="42.86474" lon="0.22038">
        <ele>2507.1</ele>
        <time>2022-02-09T11:12:38Z</time>
      </trkpt>
      <trkpt lat="42.86474" lon="0.22038">
        <ele>2507.1</ele>
        <time>2022-02-09T11:12:39Z</time>
      </trkpt>
      <trkpt lat="42.86474" lon="0.22038">
        <ele>2507.1</ele>
        <time>2022-02-09T11:12:40Z</time>
      </trkpt>
      <trkpt lat="42.86474" lon="0.22038">
        <ele>2507.1</ele>
        <time>2022-02-09T11:12:41Z</time>
      </trkpt>
      <trkpt lat="42.86474" lon="0.22038">
        <ele>2507.1</ele>
        <time>2022-02-09T11:12:42Z</time>
      </trkpt>
      <trkpt lat="42.86474" lon="0.22038">
        <ele>2507.1</ele>
        <time>2022-02-09T11:12:43Z</time>
      </trkpt>
      <trkpt lat="42.86474" lon="0.22038">
        <ele>2507.1</ele>
        <time>2022-02-09T11:12:44Z</time>
      </trkpt>
      <trkpt lat="42.86474" lon="0.22038">
        <ele>2507.1</ele>
        <time>2022-02-09T11:12:45Z</time>
      </trkpt>
      <trkpt lat="42.86474" lon="0.22038">
        <ele>2507.1</ele>
        <time>2022-02-09T11:12:46Z</time>
      </trkpt>
      <trkpt lat="42.86474" lon="0.22038">
        <ele>2507.1</ele>
        <time>2022-02-09T11:12:47Z</time>
      </trkpt>
      <trkpt lat="42.86474" lon="0.22038">
        <ele>2507.1</ele>
        <time>2022-02-09T11:12:48Z</time>
      </trkpt>
      <trkpt lat="42.86474" lon="0.22038">
        <ele>2507.1</ele>
        <time>2022-02-09T11:12:49Z</time>
      </trkpt>
      <trkpt lat="42.86474" lon="0.22038">
        <ele>2507.1</ele>
        <time>2022-02-09T11:12:50Z</time>
      </trkpt>
      <trkpt lat="42.86474" lon="0.22038">
        <ele>2507.1</ele>
        <time>2022-02-09T11:12:51Z</time>
      </trkpt>
      <trkpt lat="42.86474" lon="0.22038">
        <ele>2507.1</ele>
        <time>2022-02-09T11:12:52Z</time>
      </trkpt>
      <trkpt lat="42.86474" lon="0.22038">
        <ele>2507.1</ele>
        <time>2022-02-09T11:12:53Z</time>
      </trkpt>
      <trkpt lat="42.86474" lon="0.22038">
        <ele>2507.1</ele>
        <time>2022-02-09T11:12:54Z</time>
      </trkpt>
      <trkpt lat="42.86474" lon="0.22038">
        <ele>2507.1</ele>
        <time>2022-02-09T11:12:55Z</time>
      </trkpt>
      <trkpt lat="42.86474" lon="0.22038">
        <ele>2507.1</ele>
        <time>2022-02-09T11:12:56Z</time>
      </trkpt>
      <trkpt lat="42.86474" lon="0.22038">
        <ele>2507.1</ele>
        <time>2022-02-09T11:12:57Z</time>
      </trkpt>
      <trkpt lat="42.86474" lon="0.22038">
        <ele>2507.1</ele>
        <time>2022-02-09T11:12:58Z</time>
      </trkpt>
      <trkpt lat="42.86474" lon="0.22038">
        <ele>2507.1</ele>
        <time>2022-02-09T11:12:59Z</time>
      </trkpt>
      <trkpt lat="42.86474" lon="0.22038">
        <ele>2507.1</ele>
        <time>2022-02-09T11:13:00Z</time>
      </trkpt>
      <trkpt lat="42.86474" lon="0.22038">
        <ele>2507.1</ele>
        <time>2022-02-09T11:13:01Z</time>
      </trkpt>
      <trkpt lat="42.86474" lon="0.22038">
        <ele>2507.1</ele>
        <time>2022-02-09T11:13:02Z</time>
      </trkpt>
      <trkpt lat="42.86474" lon="0.22038">
        <ele>2507.1</ele>
        <time>2022-02-09T11:13:03Z</time>
      </trkpt>
      <trkpt lat="42.86474" lon="0.22038">
        <ele>2507.1</ele>
        <time>2022-02-09T11:13:04Z</time>
      </trkpt>
      <trkpt lat="42.86474" lon="0.22038">
        <ele>2507.1</ele>
        <time>2022-02-09T11:13:05Z</time>
      </trkpt>
      <trkpt lat="42.86474" lon="0.22038">
        <ele>2507.1</ele>
        <time>2022-02-09T11:13:06Z</time>
      </trkpt>
      <trkpt lat="42.86474" lon="0.22038">
        <ele>2507.1</ele>
        <time>2022-02-09T11:13:07Z</time>
      </trkpt>
      <trkpt lat="42.86474" lon="0.22038">
        <ele>2507.1</ele>
        <time>2022-02-09T11:13:08Z</time>
      </trkpt>
      <trkpt lat="42.86474" lon="0.22038">
        <ele>2507.1</ele>
        <time>2022-02-09T11:13:09Z</time>
      </trkpt>
      <trkpt lat="42.86474" lon="0.22038">
        <ele>2507.1</ele>
        <time>2022-02-09T11:13:10Z</time>
      </trkpt>
      <trkpt lat="42.86474" lon="0.22038">
        <ele>2507.1</ele>
        <time>2022-02-09T11:13:11Z</time>
      </trkpt>
      <trkpt lat="42.86474" lon="0.22038">
        <ele>2507.1</ele>
        <time>2022-02-09T11:13:12Z</time>
      </trkpt>
      <trkpt lat="42.86474" lon="0.22038">
        <ele>2507.1</ele>
        <time>2022-02-09T11:13:13Z</time>
      </trkpt>
      <trkpt lat="42.86474" lon="0.22038">
        <ele>2507.1</ele>
        <time>2022-02-09T11:13:14Z</time>
      </trkpt>
      <trkpt lat="42.86474" lon="0.22038">
        <ele>2507.1</ele>
        <time>2022-02-09T11:13:15Z</time>
      </trkpt>
      <trkpt lat="42.86474" lon="0.22038">
        <ele>2507.1</ele>
        <time>2022-02-09T11:13:16Z</time>
      </trkpt>
      <trkpt lat="42.86474" lon="0.22038">
        <ele>2507.1</ele>
        <time>2022-02-09T11:13:17Z</time>
      </trkpt>
      <trkpt lat="42.86474" lon="0.22038">
        <ele>2507.1</ele>
        <time>2022-02-09T11:13:18Z</time>
      </trkpt>
      <trkpt lat="42.86474" lon="0.22038">
        <ele>2507.1</ele>
        <time>2022-02-09T11:13:19Z</time>
      </trkpt>
      <trkpt lat="42.86474" lon="0.22038">
        <ele>2507.1</ele>
        <time>2022-02-09T11:13:20Z</time>
      </trkpt>
      <trkpt lat="42.86474" lon="0.22038">
        <ele>2507.1</ele>
        <time>2022-02-09T11:13:21Z</time>
      </trkpt>
      <trkpt lat="42.86474" lon="0.22038">
        <ele>2507.1</ele>
        <time>2022-02-09T11:13:22Z</time>
      </trkpt>
      <trkpt lat="42.86474" lon="0.22038">
        <ele>2507.1</ele>
        <time>2022-02-09T11:13:23Z</time>
      </trkpt>
      <trkpt lat="42.86474" lon="0.22038">
        <ele>2507.1</ele>
        <time>2022-02-09T11:13:24Z</time>
      </trkpt>
      <trkpt lat="42.86474" lon="0.22038">
        <ele>2507.1</ele>
        <time>2022-02-09T11:13:25Z</time>
      </trkpt>
      <trkpt lat="42.86474" lon="0.22038">
        <ele>2507.1</ele>
        <time>2022-02-09T11:13:26Z</time>
      </trkpt>
      <trkpt lat="42.86474" lon="0.22038">
        <ele>2507.1</ele>
        <time>2022-02-09T11:13:27Z</time>
      </trkpt>
      <trkpt lat="42.86474" lon="0.22038">
        <ele>2507.1</ele>
        <time>2022-02-09T11:13:28Z</time>
      </trkpt>
      <trkpt lat="42.86474" lon="0.22038">
        <ele>2507.1</ele>
        <time>2022-02-09T11:13:29Z</time>
      </trkpt>
      <trkpt lat="42.86474" lon="0.22038">
        <ele>2507.1</ele>
        <time>2022-02-09T11:13:30Z</time>
      </trkpt>
      <trkpt lat="42.86474" lon="0.22038">
        <ele>2507.1</ele>
        <time>2022-02-09T11:13:31Z</time>
      </trkpt>
      <trkpt lat="42.86474" lon="0.22038">
        <ele>2507.1</ele>
        <time>2022-02-09T11:13:32Z</time>
      </trkpt>
      <trkpt lat="42.86474" lon="0.22038">
        <ele>2507.1</ele>
        <time>2022-02-09T11:13:33Z</time>
      </trkpt>
      <trkpt lat="42.86474" lon="0.22038">
        <ele>2507.1</ele>
        <time>2022-02-09T11:13:34Z</time>
      </trkpt>
      <trkpt lat="42.86474" lon="0.22038">
        <ele>2507.1</ele>
        <time>2022-02-09T11:13:35Z</time>
      </trkpt>
      <trkpt lat="42.86474" lon="0.22038">
        <ele>2507.1</ele>
        <time>2022-02-09T11:13:36Z</time>
      </trkpt>
      <trkpt lat="42.86474" lon="0.22038">
        <ele>2507.1</ele>
        <time>2022-02-09T11:13:37Z</time>
      </trkpt>
      <trkpt lat="42.86474" lon="0.22038">
        <ele>2507.1</ele>
        <time>2022-02-09T11:13:38Z</time>
      </trkpt>
      <trkpt lat="42.86474" lon="0.22038">
        <ele>2507.1</ele>
        <time>2022-02-09T11:13:39Z</time>
      </trkpt>
      <trkpt lat="42.86474" lon="0.22038">
        <ele>2507.1</ele>
        <time>2022-02-09T11:13:40Z</time>
      </trkpt>
      <trkpt lat="42.86474" lon="0.22038">
        <ele>2507.1</ele>
        <time>2022-02-09T11:13:41Z</time>
      </trkpt>
      <trkpt lat="42.86474" lon="0.22038">
        <ele>2507.1</ele>
        <time>2022-02-09T11:13:42Z</time>
      </trkpt>
      <trkpt lat="42.86474" lon="0.22038">
        <ele>2507.1</ele>
        <time>2022-02-09T11:13:43Z</time>
      </trkpt>
      <trkpt lat="42.86474" lon="0.22038">
        <ele>2507.1</ele>
        <time>2022-02-09T11:13:44Z</time>
      </trkpt>
      <trkpt lat="42.86474" lon="0.22038">
        <ele>2507.1</ele>
        <time>2022-02-09T11:13:45Z</time>
      </trkpt>
      <trkpt lat="42.86474" lon="0.22038">
        <ele>2507.1</ele>
        <time>2022-02-09T11:13:46Z</time>
      </trkpt>
      <trkpt lat="42.86474" lon="0.22038">
        <ele>2507.1</ele>
        <time>2022-02-09T11:13:47Z</time>
      </trkpt>
      <trkpt lat="42.86474" lon="0.22038">
        <ele>2507.1</ele>
        <time>2022-02-09T11:13:48Z</time>
      </trkpt>
      <trkpt lat="42.86474" lon="0.22038">
        <ele>2507.1</ele>
        <time>2022-02-09T11:13:49Z</time>
      </trkpt>
      <trkpt lat="42.86474" lon="0.22038">
        <ele>2507.1</ele>
        <time>2022-02-09T11:13:50Z</time>
      </trkpt>
      <trkpt lat="42.86474" lon="0.22038">
        <ele>2507.1</ele>
        <time>2022-02-09T11:13:51Z</time>
      </trkpt>
      <trkpt lat="42.86474" lon="0.22038">
        <ele>2507.1</ele>
        <time>2022-02-09T11:13:52Z</time>
      </trkpt>
      <trkpt lat="42.86474" lon="0.22038">
        <ele>2507.1</ele>
        <time>2022-02-09T11:13:53Z</time>
      </trkpt>
      <trkpt lat="42.86474" lon="0.22038">
        <ele>2507.1</ele>
        <time>2022-02-09T11:13:54Z</time>
      </trkpt>
      <trkpt lat="42.86474" lon="0.22038">
        <ele>2507.1</ele>
        <time>2022-02-09T11:13:55Z</time>
      </trkpt>
      <trkpt lat="42.86474" lon="0.22038">
        <ele>2507.1</ele>
        <time>2022-02-09T11:13:56Z</time>
      </trkpt>
      <trkpt lat="42.86474" lon="0.22038">
        <ele>2507.1</ele>
        <time>2022-02-09T11:13:57Z</time>
      </trkpt>
      <trkpt lat="42.86474" lon="0.22038">
        <ele>2507.1</ele>
        <time>2022-02-09T11:13:58Z</time>
      </trkpt>
      <trkpt lat="42.86474" lon="0.22038">
        <ele>2507.1</ele>
        <time>2022-02-09T11:13:59Z</time>
      </trkpt>
      <trkpt lat="42.86474" lon="0.22038">
        <ele>2507.1</ele>
        <time>2022-02-09T11:14:00Z</time>
      </trkpt>
      <trkpt lat="42.86474" lon="0.22038">
        <ele>2507.1</ele>
        <time>2022-02-09T11:14:01Z</time>
      </trkpt>
      <trkpt lat="42.86474" lon="0.22038">
        <ele>2507.1</ele>
        <time>2022-02-09T11:14:02Z</time>
      </trkpt>
      <trkpt lat="42.86474" lon="0.22038">
        <ele>2507.1</ele>
        <time>2022-02-09T11:14:03Z</time>
      </trkpt>
      <trkpt lat="42.86474" lon="0.22038">
        <ele>2507.1</ele>
        <time>2022-02-09T11:14:04Z</time>
      </trkpt>
      <trkpt lat="42.86474" lon="0.22038">
        <ele>2507.1</ele>
        <time>2022-02-09T11:14:05Z</time>
      </trkpt>
      <trkpt lat="42.86474" lon="0.22038">
        <ele>2507.1</ele>
        <time>2022-02-09T11:14:06Z</time>
      </trkpt>
      <trkpt lat="42.86474" lon="0.22038">
        <ele>2507.1</ele>
        <time>2022-02-09T11:14:07Z</time>
      </trkpt>
      <trkpt lat="42.86474" lon="0.22038">
        <ele>2507.1</ele>
        <time>2022-02-09T11:14:08Z</time>
      </trkpt>
      <trkpt lat="42.86474" lon="0.22038">
        <ele>2507.1</ele>
        <time>2022-02-09T11:14:09Z</time>
      </trkpt>
      <trkpt lat="42.86474" lon="0.22038">
        <ele>2507.1</ele>
        <time>2022-02-09T11:14:10Z</time>
      </trkpt>
      <trkpt lat="42.86474" lon="0.22038">
        <ele>2507.1</ele>
        <time>2022-02-09T11:14:11Z</time>
      </trkpt>
      <trkpt lat="42.86474" lon="0.22038">
        <ele>2507.1</ele>
        <time>2022-02-09T11:14:12Z</time>
      </trkpt>
      <trkpt lat="42.86474" lon="0.22038">
        <ele>2507.1</ele>
        <time>2022-02-09T11:14:13Z</time>
      </trkpt>
      <trkpt lat="42.86474" lon="0.22038">
        <ele>2507.1</ele>
        <time>2022-02-09T11:14:14Z</time>
      </trkpt>
      <trkpt lat="42.86474" lon="0.22038">
        <ele>2507.1</ele>
        <time>2022-02-09T11:14:15Z</time>
      </trkpt>
      <trkpt lat="42.86474" lon="0.22038">
        <ele>2507.1</ele>
        <time>2022-02-09T11:14:16Z</time>
      </trkpt>
      <trkpt lat="42.86474" lon="0.22038">
        <ele>2507.1</ele>
        <time>2022-02-09T11:14:17Z</time>
      </trkpt>
      <trkpt lat="42.86474" lon="0.22038">
        <ele>2507.1</ele>
        <time>2022-02-09T11:14:18Z</time>
      </trkpt>
      <trkpt lat="42.86474" lon="0.22038">
        <ele>2507.1</ele>
        <time>2022-02-09T11:14:19Z</time>
      </trkpt>
      <trkpt lat="42.86474" lon="0.22038">
        <ele>2507.1</ele>
        <time>2022-02-09T11:14:20Z</time>
      </trkpt>
      <trkpt lat="42.86474" lon="0.22038">
        <ele>2507.1</ele>
        <time>2022-02-09T11:14:21Z</time>
      </trkpt>
      <trkpt lat="42.86474" lon="0.22038">
        <ele>2507.1</ele>
        <time>2022-02-09T11:14:22Z</time>
      </trkpt>
      <trkpt lat="42.86474" lon="0.22038">
        <ele>2507.1</ele>
        <time>2022-02-09T11:14:23Z</time>
      </trkpt>
      <trkpt lat="42.86474" lon="0.22038">
        <ele>2507.1</ele>
        <time>2022-02-09T11:14:24Z</time>
      </trkpt>
      <trkpt lat="42.86474" lon="0.22038">
        <ele>2507.1</ele>
        <time>2022-02-09T11:14:25Z</time>
      </trkpt>
      <trkpt lat="42.86474" lon="0.22038">
        <ele>2507.1</ele>
        <time>2022-02-09T11:14:26Z</time>
      </trkpt>
      <trkpt lat="42.86474" lon="0.22038">
        <ele>2507.1</ele>
        <time>2022-02-09T11:14:27Z</time>
      </trkpt>
      <trkpt lat="42.86474" lon="0.22038">
        <ele>2507.1</ele>
        <time>2022-02-09T11:14:28Z</time>
      </trkpt>
      <trkpt lat="42.86474" lon="0.22038">
        <ele>2507.1</ele>
        <time>2022-02-09T11:14:29Z</time>
      </trkpt>
      <trkpt lat="42.86474" lon="0.22038">
        <ele>2507.1</ele>
        <time>2022-02-09T11:14:30Z</time>
      </trkpt>
      <trkpt lat="42.86474" lon="0.22038">
        <ele>2507.1</ele>
        <time>2022-02-09T11:14:31Z</time>
      </trkpt>
      <trkpt lat="42.86474" lon="0.22038">
        <ele>2507.1</ele>
        <time>2022-02-09T11:14:32Z</time>
      </trkpt>
      <trkpt lat="42.86474" lon="0.22038">
        <ele>2507.1</ele>
        <time>2022-02-09T11:14:33Z</time>
      </trkpt>
      <trkpt lat="42.86474" lon="0.22038">
        <ele>2507.1</ele>
        <time>2022-02-09T11:14:34Z</time>
      </trkpt>
      <trkpt lat="42.86474" lon="0.22037">
        <ele>2507.1</ele>
        <time>2022-02-09T11:14:35Z</time>
      </trkpt>
      <trkpt lat="42.86475" lon="0.22035">
        <ele>2507.1</ele>
        <time>2022-02-09T11:14:36Z</time>
      </trkpt>
      <trkpt lat="42.86476" lon="0.22035">
        <ele>2507.2</ele>
        <time>2022-02-09T11:14:37Z</time>
      </trkpt>
      <trkpt lat="42.86476" lon="0.22035">
        <ele>2507.2</ele>
        <time>2022-02-09T11:14:38Z</time>
      </trkpt>
      <trkpt lat="42.86477" lon="0.22034">
        <ele>2507.2</ele>
        <time>2022-02-09T11:14:39Z</time>
      </trkpt>
      <trkpt lat="42.86477" lon="0.22034">
        <ele>2507.2</ele>
        <time>2022-02-09T11:14:40Z</time>
      </trkpt>
      <trkpt lat="42.86477" lon="0.22033">
        <ele>2507.2</ele>
        <time>2022-02-09T11:14:41Z</time>
      </trkpt>
      <trkpt lat="42.86478" lon="0.22033">
        <ele>2507.2</ele>
        <time>2022-02-09T11:14:42Z</time>
      </trkpt>
      <trkpt lat="42.86479" lon="0.22033">
        <ele>2507.3</ele>
        <time>2022-02-09T11:14:43Z</time>
      </trkpt>
      <trkpt lat="42.86479" lon="0.22032">
        <ele>2507.3</ele>
        <time>2022-02-09T11:14:44Z</time>
      </trkpt>
      <trkpt lat="42.8648" lon="0.22032">
        <ele>2507.3</ele>
        <time>2022-02-09T11:14:45Z</time>
      </trkpt>
      <trkpt lat="42.86481" lon="0.22031">
        <ele>2507.4</ele>
        <time>2022-02-09T11:14:46Z</time>
      </trkpt>
      <trkpt lat="42.86481" lon="0.22031">
        <ele>2507.4</ele>
        <time>2022-02-09T11:14:47Z</time>
      </trkpt>
      <trkpt lat="42.86482" lon="0.2203">
        <ele>2507.4</ele>
        <time>2022-02-09T11:14:48Z</time>
      </trkpt>
      <trkpt lat="42.86482" lon="0.2203">
        <ele>2507.4</ele>
        <time>2022-02-09T11:14:49Z</time>
      </trkpt>
      <trkpt lat="42.86483" lon="0.22029">
        <ele>2507.5</ele>
        <time>2022-02-09T11:14:50Z</time>
      </trkpt>
      <trkpt lat="42.86484" lon="0.22029">
        <ele>2507.5</ele>
        <time>2022-02-09T11:14:51Z</time>
      </trkpt>
      <trkpt lat="42.86484" lon="0.22028">
        <ele>2507.6</ele>
        <time>2022-02-09T11:14:52Z</time>
      </trkpt>
      <trkpt lat="42.86485" lon="0.22028">
        <ele>2507.6</ele>
        <time>2022-02-09T11:14:53Z</time>
      </trkpt>
      <trkpt lat="42.86486" lon="0.22028">
        <ele>2507.7</ele>
        <time>2022-02-09T11:14:54Z</time>
      </trkpt>
      <trkpt lat="42.86486" lon="0.22027">
        <ele>2507.7</ele>
        <time>2022-02-09T11:14:55Z</time>
      </trkpt>
      <trkpt lat="42.86487" lon="0.22027">
        <ele>2507.8</ele>
        <time>2022-02-09T11:14:56Z</time>
      </trkpt>
      <trkpt lat="42.86488" lon="0.22026">
        <ele>2507.8</ele>
        <time>2022-02-09T11:14:57Z</time>
      </trkpt>
      <trkpt lat="42.86488" lon="0.22026">
        <ele>2507.9</ele>
        <time>2022-02-09T11:14:58Z</time>
      </trkpt>
      <trkpt lat="42.86489" lon="0.22025">
        <ele>2507.9</ele>
        <time>2022-02-09T11:14:59Z</time>
      </trkpt>
      <trkpt lat="42.8649" lon="0.22025">
        <ele>2508</ele>
        <time>2022-02-09T11:15:00Z</time>
      </trkpt>
      <trkpt lat="42.8649" lon="0.22025">
        <ele>2508</ele>
        <time>2022-02-09T11:15:01Z</time>
      </trkpt>
      <trkpt lat="42.86491" lon="0.22024">
        <ele>2508.1</ele>
        <time>2022-02-09T11:15:02Z</time>
      </trkpt>
      <trkpt lat="42.86492" lon="0.22024">
        <ele>2508.2</ele>
        <time>2022-02-09T11:15:03Z</time>
      </trkpt>
      <trkpt lat="42.86492" lon="0.22024">
        <ele>2508.2</ele>
        <time>2022-02-09T11:15:04Z</time>
      </trkpt>
      <trkpt lat="42.86493" lon="0.22023">
        <ele>2508.3</ele>
        <time>2022-02-09T11:15:05Z</time>
      </trkpt>
      <trkpt lat="42.86494" lon="0.22023">
        <ele>2508.3</ele>
        <time>2022-02-09T11:15:06Z</time>
      </trkpt>
      <trkpt lat="42.86494" lon="0.22022">
        <ele>2508.4</ele>
        <time>2022-02-09T11:15:07Z</time>
      </trkpt>
      <trkpt lat="42.86495" lon="0.22022">
        <ele>2508.5</ele>
        <time>2022-02-09T11:15:08Z</time>
      </trkpt>
      <trkpt lat="42.86496" lon="0.22021">
        <ele>2508.5</ele>
        <time>2022-02-09T11:15:09Z</time>
      </trkpt>
      <trkpt lat="42.86496" lon="0.22021">
        <ele>2508.6</ele>
        <time>2022-02-09T11:15:10Z</time>
      </trkpt>
      <trkpt lat="42.86497" lon="0.22021">
        <ele>2508.6</ele>
        <time>2022-02-09T11:15:11Z</time>
      </trkpt>
      <trkpt lat="42.86497" lon="0.2202">
        <ele>2508.7</ele>
        <time>2022-02-09T11:15:12Z</time>
      </trkpt>
      <trkpt lat="42.86498" lon="0.2202">
        <ele>2508.8</ele>
        <time>2022-02-09T11:15:13Z</time>
      </trkpt>
      <trkpt lat="42.86499" lon="0.22019">
        <ele>2508.9</ele>
        <time>2022-02-09T11:15:14Z</time>
      </trkpt>
      <trkpt lat="42.86499" lon="0.22019">
        <ele>2508.9</ele>
        <time>2022-02-09T11:15:15Z</time>
      </trkpt>
      <trkpt lat="42.865" lon="0.22019">
        <ele>2509</ele>
        <time>2022-02-09T11:15:16Z</time>
      </trkpt>
      <trkpt lat="42.865" lon="0.22018">
        <ele>2509</ele>
        <time>2022-02-09T11:15:17Z</time>
      </trkpt>
      <trkpt lat="42.86501" lon="0.22018">
        <ele>2509.1</ele>
        <time>2022-02-09T11:15:18Z</time>
      </trkpt>
      <trkpt lat="42.86501" lon="0.22017">
        <ele>2509.2</ele>
        <time>2022-02-09T11:15:19Z</time>
      </trkpt>
      <trkpt lat="42.86502" lon="0.22017">
        <ele>2509.2</ele>
        <time>2022-02-09T11:15:20Z</time>
      </trkpt>
      <trkpt lat="42.86502" lon="0.22017">
        <ele>2509.3</ele>
        <time>2022-02-09T11:15:21Z</time>
      </trkpt>
      <trkpt lat="42.86503" lon="0.22016">
        <ele>2509.4</ele>
        <time>2022-02-09T11:15:22Z</time>
      </trkpt>
      <trkpt lat="42.86503" lon="0.22016">
        <ele>2509.4</ele>
        <time>2022-02-09T11:15:23Z</time>
      </trkpt>
      <trkpt lat="42.86503" lon="0.22016">
        <ele>2509.4</ele>
        <time>2022-02-09T11:15:24Z</time>
      </trkpt>
      <trkpt lat="42.86504" lon="0.22016">
        <ele>2509.5</ele>
        <time>2022-02-09T11:15:25Z</time>
      </trkpt>
      <trkpt lat="42.86504" lon="0.22015">
        <ele>2509.6</ele>
        <time>2022-02-09T11:15:26Z</time>
      </trkpt>
      <trkpt lat="42.86505" lon="0.22015">
        <ele>2509.6</ele>
        <time>2022-02-09T11:15:27Z</time>
      </trkpt>
      <trkpt lat="42.86505" lon="0.22015">
        <ele>2509.7</ele>
        <time>2022-02-09T11:15:28Z</time>
      </trkpt>
      <trkpt lat="42.86506" lon="0.22014">
        <ele>2509.8</ele>
        <time>2022-02-09T11:15:29Z</time>
      </trkpt>
      <trkpt lat="42.86506" lon="0.22014">
        <ele>2509.9</ele>
        <time>2022-02-09T11:15:30Z</time>
      </trkpt>
      <trkpt lat="42.86507" lon="0.22013">
        <ele>2509.9</ele>
        <time>2022-02-09T11:15:31Z</time>
      </trkpt>
      <trkpt lat="42.86507" lon="0.22013">
        <ele>2510</ele>
        <time>2022-02-09T11:15:32Z</time>
      </trkpt>
      <trkpt lat="42.86508" lon="0.22012">
        <ele>2510.1</ele>
        <time>2022-02-09T11:15:33Z</time>
      </trkpt>
      <trkpt lat="42.86508" lon="0.22012">
        <ele>2510.2</ele>
        <time>2022-02-09T11:15:34Z</time>
      </trkpt>
      <trkpt lat="42.86509" lon="0.22011">
        <ele>2510.3</ele>
        <time>2022-02-09T11:15:35Z</time>
      </trkpt>
      <trkpt lat="42.8651" lon="0.22011">
        <ele>2510.3</ele>
        <time>2022-02-09T11:15:36Z</time>
      </trkpt>
      <trkpt lat="42.8651" lon="0.2201">
        <ele>2510.4</ele>
        <time>2022-02-09T11:15:37Z</time>
      </trkpt>
      <trkpt lat="42.86511" lon="0.2201">
        <ele>2510.5</ele>
        <time>2022-02-09T11:15:38Z</time>
      </trkpt>
      <trkpt lat="42.86511" lon="0.22009">
        <ele>2510.6</ele>
        <time>2022-02-09T11:15:39Z</time>
      </trkpt>
      <trkpt lat="42.86512" lon="0.22009">
        <ele>2510.6</ele>
        <time>2022-02-09T11:15:40Z</time>
      </trkpt>
      <trkpt lat="42.86512" lon="0.22008">
        <ele>2510.7</ele>
        <time>2022-02-09T11:15:41Z</time>
      </trkpt>
      <trkpt lat="42.86513" lon="0.22008">
        <ele>2510.8</ele>
        <time>2022-02-09T11:15:42Z</time>
      </trkpt>
      <trkpt lat="42.86514" lon="0.22007">
        <ele>2510.9</ele>
        <time>2022-02-09T11:15:43Z</time>
      </trkpt>
      <trkpt lat="42.86514" lon="0.22007">
        <ele>2510.9</ele>
        <time>2022-02-09T11:15:44Z</time>
      </trkpt>
      <trkpt lat="42.86515" lon="0.22006">
        <ele>2511</ele>
        <time>2022-02-09T11:15:45Z</time>
      </trkpt>
      <trkpt lat="42.86515" lon="0.22006">
        <ele>2511.1</ele>
        <time>2022-02-09T11:15:46Z</time>
      </trkpt>
      <trkpt lat="42.86516" lon="0.22005">
        <ele>2511.1</ele>
        <time>2022-02-09T11:15:47Z</time>
      </trkpt>
      <trkpt lat="42.86517" lon="0.22005">
        <ele>2511.2</ele>
        <time>2022-02-09T11:15:48Z</time>
      </trkpt>
      <trkpt lat="42.86517" lon="0.22005">
        <ele>2511.2</ele>
        <time>2022-02-09T11:15:49Z</time>
      </trkpt>
      <trkpt lat="42.86518" lon="0.22004">
        <ele>2511.3</ele>
        <time>2022-02-09T11:15:50Z</time>
      </trkpt>
      <trkpt lat="42.86518" lon="0.22004">
        <ele>2511.4</ele>
        <time>2022-02-09T11:15:51Z</time>
      </trkpt>
      <trkpt lat="42.86519" lon="0.22004">
        <ele>2511.4</ele>
        <time>2022-02-09T11:15:52Z</time>
      </trkpt>
      <trkpt lat="42.8652" lon="0.22004">
        <ele>2511.5</ele>
        <time>2022-02-09T11:15:53Z</time>
      </trkpt>
      <trkpt lat="42.8652" lon="0.22003">
        <ele>2511.6</ele>
        <time>2022-02-09T11:15:54Z</time>
      </trkpt>
      <trkpt lat="42.86521" lon="0.22003">
        <ele>2511.7</ele>
        <time>2022-02-09T11:15:55Z</time>
      </trkpt>
      <trkpt lat="42.86522" lon="0.22003">
        <ele>2511.7</ele>
        <time>2022-02-09T11:15:56Z</time>
      </trkpt>
      <trkpt lat="42.86522" lon="0.22003">
        <ele>2511.8</ele>
        <time>2022-02-09T11:15:57Z</time>
      </trkpt>
      <trkpt lat="42.86523" lon="0.22002">
        <ele>2511.9</ele>
        <time>2022-02-09T11:15:58Z</time>
      </trkpt>
      <trkpt lat="42.86524" lon="0.22002">
        <ele>2512</ele>
        <time>2022-02-09T11:15:59Z</time>
      </trkpt>
      <trkpt lat="42.86525" lon="0.22002">
        <ele>2512.2</ele>
        <time>2022-02-09T11:16:00Z</time>
      </trkpt>
      <trkpt lat="42.86526" lon="0.22002">
        <ele>2512.3</ele>
        <time>2022-02-09T11:16:01Z</time>
      </trkpt>
      <trkpt lat="42.86526" lon="0.22001">
        <ele>2512.3</ele>
        <time>2022-02-09T11:16:02Z</time>
      </trkpt>
      <trkpt lat="42.86527" lon="0.22001">
        <ele>2512.4</ele>
        <time>2022-02-09T11:16:03Z</time>
      </trkpt>
      <trkpt lat="42.86528" lon="0.22001">
        <ele>2512.6</ele>
        <time>2022-02-09T11:16:04Z</time>
      </trkpt>
      <trkpt lat="42.86528" lon="0.22001">
        <ele>2512.6</ele>
        <time>2022-02-09T11:16:05Z</time>
      </trkpt>
      <trkpt lat="42.86529" lon="0.22001">
        <ele>2512.8</ele>
        <time>2022-02-09T11:16:06Z</time>
      </trkpt>
      <trkpt lat="42.8653" lon="0.22001">
        <ele>2512.9</ele>
        <time>2022-02-09T11:16:07Z</time>
      </trkpt>
      <trkpt lat="42.86531" lon="0.22001">
        <ele>2513</ele>
        <time>2022-02-09T11:16:08Z</time>
      </trkpt>
      <trkpt lat="42.86532" lon="0.22001">
        <ele>2513.1</ele>
        <time>2022-02-09T11:16:09Z</time>
      </trkpt>
      <trkpt lat="42.86533" lon="0.22001">
        <ele>2513.2</ele>
        <time>2022-02-09T11:16:10Z</time>
      </trkpt>
      <trkpt lat="42.86533" lon="0.22">
        <ele>2513.3</ele>
        <time>2022-02-09T11:16:11Z</time>
      </trkpt>
      <trkpt lat="42.86534" lon="0.22">
        <ele>2513.4</ele>
        <time>2022-02-09T11:16:12Z</time>
      </trkpt>
      <trkpt lat="42.86535" lon="0.22">
        <ele>2513.5</ele>
        <time>2022-02-09T11:16:13Z</time>
      </trkpt>
      <trkpt lat="42.86536" lon="0.22">
        <ele>2513.6</ele>
        <time>2022-02-09T11:16:14Z</time>
      </trkpt>
      <trkpt lat="42.86536" lon="0.21999">
        <ele>2513.7</ele>
        <time>2022-02-09T11:16:15Z</time>
      </trkpt>
      <trkpt lat="42.86537" lon="0.21999">
        <ele>2513.8</ele>
        <time>2022-02-09T11:16:16Z</time>
      </trkpt>
      <trkpt lat="42.86538" lon="0.21999">
        <ele>2513.9</ele>
        <time>2022-02-09T11:16:17Z</time>
      </trkpt>
      <trkpt lat="42.86539" lon="0.21999">
        <ele>2514</ele>
        <time>2022-02-09T11:16:18Z</time>
      </trkpt>
      <trkpt lat="42.86539" lon="0.21999">
        <ele>2514.1</ele>
        <time>2022-02-09T11:16:19Z</time>
      </trkpt>
      <trkpt lat="42.8654" lon="0.21998">
        <ele>2514.2</ele>
        <time>2022-02-09T11:16:20Z</time>
      </trkpt>
      <trkpt lat="42.86541" lon="0.21998">
        <ele>2514.3</ele>
        <time>2022-02-09T11:16:21Z</time>
      </trkpt>
      <trkpt lat="42.86542" lon="0.21998">
        <ele>2514.4</ele>
        <time>2022-02-09T11:16:22Z</time>
      </trkpt>
      <trkpt lat="42.86543" lon="0.21998">
        <ele>2514.4</ele>
        <time>2022-02-09T11:16:23Z</time>
      </trkpt>
      <trkpt lat="42.86544" lon="0.21998">
        <ele>2514.5</ele>
        <time>2022-02-09T11:16:24Z</time>
      </trkpt>
      <trkpt lat="42.86545" lon="0.21998">
        <ele>2514.6</ele>
        <time>2022-02-09T11:16:25Z</time>
      </trkpt>
      <trkpt lat="42.86546" lon="0.21997">
        <ele>2514.7</ele>
        <time>2022-02-09T11:16:26Z</time>
      </trkpt>
      <trkpt lat="42.86546" lon="0.21997">
        <ele>2514.8</ele>
        <time>2022-02-09T11:16:27Z</time>
      </trkpt>
      <trkpt lat="42.86547" lon="0.21997">
        <ele>2514.8</ele>
        <time>2022-02-09T11:16:28Z</time>
      </trkpt>
      <trkpt lat="42.86548" lon="0.21996">
        <ele>2514.9</ele>
        <time>2022-02-09T11:16:29Z</time>
      </trkpt>
      <trkpt lat="42.86549" lon="0.21996">
        <ele>2514.9</ele>
        <time>2022-02-09T11:16:30Z</time>
      </trkpt>
      <trkpt lat="42.86549" lon="0.21996">
        <ele>2515</ele>
        <time>2022-02-09T11:16:31Z</time>
      </trkpt>
      <trkpt lat="42.8655" lon="0.21996">
        <ele>2515</ele>
        <time>2022-02-09T11:16:32Z</time>
      </trkpt>
      <trkpt lat="42.86551" lon="0.21996">
        <ele>2515.1</ele>
        <time>2022-02-09T11:16:33Z</time>
      </trkpt>
      <trkpt lat="42.86552" lon="0.21995">
        <ele>2515.2</ele>
        <time>2022-02-09T11:16:34Z</time>
      </trkpt>
      <trkpt lat="42.86552" lon="0.21995">
        <ele>2515.2</ele>
        <time>2022-02-09T11:16:35Z</time>
      </trkpt>
      <trkpt lat="42.86553" lon="0.21995">
        <ele>2515.2</ele>
        <time>2022-02-09T11:16:36Z</time>
      </trkpt>
      <trkpt lat="42.86554" lon="0.21995">
        <ele>2515.3</ele>
        <time>2022-02-09T11:16:37Z</time>
      </trkpt>
      <trkpt lat="42.86555" lon="0.21995">
        <ele>2515.3</ele>
        <time>2022-02-09T11:16:38Z</time>
      </trkpt>
      <trkpt lat="42.86556" lon="0.21995">
        <ele>2515.4</ele>
        <time>2022-02-09T11:16:39Z</time>
      </trkpt>
      <trkpt lat="42.86556" lon="0.21995">
        <ele>2515.4</ele>
        <time>2022-02-09T11:16:40Z</time>
      </trkpt>
      <trkpt lat="42.86557" lon="0.21995">
        <ele>2515.5</ele>
        <time>2022-02-09T11:16:41Z</time>
      </trkpt>
      <trkpt lat="42.86558" lon="0.21995">
        <ele>2515.5</ele>
        <time>2022-02-09T11:16:42Z</time>
      </trkpt>
      <trkpt lat="42.86559" lon="0.21995">
        <ele>2515.5</ele>
        <time>2022-02-09T11:16:43Z</time>
      </trkpt>
      <trkpt lat="42.8656" lon="0.21995">
        <ele>2515.6</ele>
        <time>2022-02-09T11:16:44Z</time>
      </trkpt>
      <trkpt lat="42.8656" lon="0.21994">
        <ele>2515.6</ele>
        <time>2022-02-09T11:16:45Z</time>
      </trkpt>
      <trkpt lat="42.86561" lon="0.21994">
        <ele>2515.6</ele>
        <time>2022-02-09T11:16:46Z</time>
      </trkpt>
      <trkpt lat="42.86562" lon="0.21994">
        <ele>2515.7</ele>
        <time>2022-02-09T11:16:47Z</time>
      </trkpt>
      <trkpt lat="42.86563" lon="0.21994">
        <ele>2515.7</ele>
        <time>2022-02-09T11:16:48Z</time>
      </trkpt>
      <trkpt lat="42.86564" lon="0.21994">
        <ele>2515.7</ele>
        <time>2022-02-09T11:16:49Z</time>
      </trkpt>
      <trkpt lat="42.86565" lon="0.21994">
        <ele>2515.8</ele>
        <time>2022-02-09T11:16:50Z</time>
      </trkpt>
      <trkpt lat="42.86565" lon="0.21994">
        <ele>2515.8</ele>
        <time>2022-02-09T11:16:51Z</time>
      </trkpt>
      <trkpt lat="42.86566" lon="0.21994">
        <ele>2515.8</ele>
        <time>2022-02-09T11:16:52Z</time>
      </trkpt>
      <trkpt lat="42.86567" lon="0.21994">
        <ele>2515.9</ele>
        <time>2022-02-09T11:16:53Z</time>
      </trkpt>
      <trkpt lat="42.86568" lon="0.21994">
        <ele>2515.9</ele>
        <time>2022-02-09T11:16:54Z</time>
      </trkpt>
      <trkpt lat="42.86569" lon="0.21994">
        <ele>2515.9</ele>
        <time>2022-02-09T11:16:55Z</time>
      </trkpt>
      <trkpt lat="42.8657" lon="0.21993">
        <ele>2516</ele>
        <time>2022-02-09T11:16:56Z</time>
      </trkpt>
      <trkpt lat="42.8657" lon="0.21993">
        <ele>2516</ele>
        <time>2022-02-09T11:16:57Z</time>
      </trkpt>
      <trkpt lat="42.86571" lon="0.21993">
        <ele>2516</ele>
        <time>2022-02-09T11:16:58Z</time>
      </trkpt>
      <trkpt lat="42.86571" lon="0.21993">
        <ele>2516.1</ele>
        <time>2022-02-09T11:16:59Z</time>
      </trkpt>
      <trkpt lat="42.86572" lon="0.21993">
        <ele>2516.1</ele>
        <time>2022-02-09T11:17:00Z</time>
      </trkpt>
      <trkpt lat="42.86573" lon="0.21993">
        <ele>2516.2</ele>
        <time>2022-02-09T11:17:01Z</time>
      </trkpt>
      <trkpt lat="42.86574" lon="0.21992">
        <ele>2516.2</ele>
        <time>2022-02-09T11:17:02Z</time>
      </trkpt>
      <trkpt lat="42.86574" lon="0.21992">
        <ele>2516.2</ele>
        <time>2022-02-09T11:17:03Z</time>
      </trkpt>
      <trkpt lat="42.86575" lon="0.21992">
        <ele>2516.3</ele>
        <time>2022-02-09T11:17:04Z</time>
      </trkpt>
      <trkpt lat="42.86576" lon="0.21992">
        <ele>2516.3</ele>
        <time>2022-02-09T11:17:05Z</time>
      </trkpt>
      <trkpt lat="42.86576" lon="0.21992">
        <ele>2516.4</ele>
        <time>2022-02-09T11:17:06Z</time>
      </trkpt>
      <trkpt lat="42.86577" lon="0.21991">
        <ele>2516.5</ele>
        <time>2022-02-09T11:17:07Z</time>
      </trkpt>
      <trkpt lat="42.86578" lon="0.21991">
        <ele>2516.6</ele>
        <time>2022-02-09T11:17:08Z</time>
      </trkpt>
      <trkpt lat="42.86579" lon="0.21991">
        <ele>2516.7</ele>
        <time>2022-02-09T11:17:09Z</time>
      </trkpt>
      <trkpt lat="42.86579" lon="0.21991">
        <ele>2516.7</ele>
        <time>2022-02-09T11:17:10Z</time>
      </trkpt>
      <trkpt lat="42.8658" lon="0.21991">
        <ele>2516.8</ele>
        <time>2022-02-09T11:17:11Z</time>
      </trkpt>
      <trkpt lat="42.86581" lon="0.21991">
        <ele>2516.9</ele>
        <time>2022-02-09T11:17:12Z</time>
      </trkpt>
      <trkpt lat="42.86581" lon="0.21991">
        <ele>2517.1</ele>
        <time>2022-02-09T11:17:13Z</time>
      </trkpt>
      <trkpt lat="42.86582" lon="0.2199">
        <ele>2517.2</ele>
        <time>2022-02-09T11:17:14Z</time>
      </trkpt>
      <trkpt lat="42.86583" lon="0.2199">
        <ele>2517.2</ele>
        <time>2022-02-09T11:17:15Z</time>
      </trkpt>
      <trkpt lat="42.86583" lon="0.2199">
        <ele>2517.4</ele>
        <time>2022-02-09T11:17:16Z</time>
      </trkpt>
      <trkpt lat="42.86584" lon="0.2199">
        <ele>2517.5</ele>
        <time>2022-02-09T11:17:17Z</time>
      </trkpt>
      <trkpt lat="42.86585" lon="0.2199">
        <ele>2517.6</ele>
        <time>2022-02-09T11:17:18Z</time>
      </trkpt>
      <trkpt lat="42.86586" lon="0.2199">
        <ele>2517.8</ele>
        <time>2022-02-09T11:17:19Z</time>
      </trkpt>
      <trkpt lat="42.86586" lon="0.2199">
        <ele>2517.9</ele>
        <time>2022-02-09T11:17:20Z</time>
      </trkpt>
      <trkpt lat="42.86587" lon="0.2199">
        <ele>2518</ele>
        <time>2022-02-09T11:17:21Z</time>
      </trkpt>
      <trkpt lat="42.86587" lon="0.21989">
        <ele>2518.1</ele>
        <time>2022-02-09T11:17:22Z</time>
      </trkpt>
      <trkpt lat="42.86588" lon="0.21989">
        <ele>2518.3</ele>
        <time>2022-02-09T11:17:23Z</time>
      </trkpt>
      <trkpt lat="42.86589" lon="0.21989">
        <ele>2518.5</ele>
        <time>2022-02-09T11:17:24Z</time>
      </trkpt>
      <trkpt lat="42.8659" lon="0.21989">
        <ele>2518.6</ele>
        <time>2022-02-09T11:17:25Z</time>
      </trkpt>
      <trkpt lat="42.86591" lon="0.21989">
        <ele>2518.8</ele>
        <time>2022-02-09T11:17:26Z</time>
      </trkpt>
      <trkpt lat="42.86591" lon="0.21989">
        <ele>2518.9</ele>
        <time>2022-02-09T11:17:27Z</time>
      </trkpt>
      <trkpt lat="42.86592" lon="0.21989">
        <ele>2519.1</ele>
        <time>2022-02-09T11:17:28Z</time>
      </trkpt>
      <trkpt lat="42.86593" lon="0.21989">
        <ele>2519.2</ele>
        <time>2022-02-09T11:17:29Z</time>
      </trkpt>
      <trkpt lat="42.86594" lon="0.21989">
        <ele>2519.4</ele>
        <time>2022-02-09T11:17:30Z</time>
      </trkpt>
      <trkpt lat="42.86594" lon="0.21989">
        <ele>2519.5</ele>
        <time>2022-02-09T11:17:31Z</time>
      </trkpt>
      <trkpt lat="42.86595" lon="0.21989">
        <ele>2519.7</ele>
        <time>2022-02-09T11:17:32Z</time>
      </trkpt>
      <trkpt lat="42.86596" lon="0.21989">
        <ele>2519.8</ele>
        <time>2022-02-09T11:17:33Z</time>
      </trkpt>
      <trkpt lat="42.86597" lon="0.21989">
        <ele>2519.9</ele>
        <time>2022-02-09T11:17:34Z</time>
      </trkpt>
      <trkpt lat="42.86597" lon="0.21989">
        <ele>2520.1</ele>
        <time>2022-02-09T11:17:35Z</time>
      </trkpt>
      <trkpt lat="42.86598" lon="0.21989">
        <ele>2520.2</ele>
        <time>2022-02-09T11:17:36Z</time>
      </trkpt>
      <trkpt lat="42.86599" lon="0.21989">
        <ele>2520.4</ele>
        <time>2022-02-09T11:17:37Z</time>
      </trkpt>
      <trkpt lat="42.866" lon="0.21989">
        <ele>2520.5</ele>
        <time>2022-02-09T11:17:38Z</time>
      </trkpt>
      <trkpt lat="42.866" lon="0.21989">
        <ele>2520.6</ele>
        <time>2022-02-09T11:17:39Z</time>
      </trkpt>
      <trkpt lat="42.86601" lon="0.21989">
        <ele>2520.8</ele>
        <time>2022-02-09T11:17:40Z</time>
      </trkpt>
      <trkpt lat="42.86602" lon="0.21989">
        <ele>2521</ele>
        <time>2022-02-09T11:17:41Z</time>
      </trkpt>
      <trkpt lat="42.86603" lon="0.21989">
        <ele>2521.1</ele>
        <time>2022-02-09T11:17:42Z</time>
      </trkpt>
      <trkpt lat="42.86604" lon="0.21989">
        <ele>2521.2</ele>
        <time>2022-02-09T11:17:43Z</time>
      </trkpt>
      <trkpt lat="42.86604" lon="0.21988">
        <ele>2521.4</ele>
        <time>2022-02-09T11:17:44Z</time>
      </trkpt>
      <trkpt lat="42.86605" lon="0.21988">
        <ele>2521.5</ele>
        <time>2022-02-09T11:17:45Z</time>
      </trkpt>
      <trkpt lat="42.86606" lon="0.21988">
        <ele>2521.6</ele>
        <time>2022-02-09T11:17:46Z</time>
      </trkpt>
      <trkpt lat="42.86606" lon="0.21988">
        <ele>2521.8</ele>
        <time>2022-02-09T11:17:47Z</time>
      </trkpt>
      <trkpt lat="42.86607" lon="0.21987">
        <ele>2521.9</ele>
        <time>2022-02-09T11:17:48Z</time>
      </trkpt>
      <trkpt lat="42.86608" lon="0.21987">
        <ele>2522</ele>
        <time>2022-02-09T11:17:49Z</time>
      </trkpt>
      <trkpt lat="42.86608" lon="0.21987">
        <ele>2522.2</ele>
        <time>2022-02-09T11:17:50Z</time>
      </trkpt>
      <trkpt lat="42.86609" lon="0.21987">
        <ele>2522.3</ele>
        <time>2022-02-09T11:17:51Z</time>
      </trkpt>
      <trkpt lat="42.8661" lon="0.21986">
        <ele>2522.4</ele>
        <time>2022-02-09T11:17:52Z</time>
      </trkpt>
      <trkpt lat="42.8661" lon="0.21986">
        <ele>2522.5</ele>
        <time>2022-02-09T11:17:53Z</time>
      </trkpt>
      <trkpt lat="42.86611" lon="0.21986">
        <ele>2522.7</ele>
        <time>2022-02-09T11:17:54Z</time>
      </trkpt>
      <trkpt lat="42.86612" lon="0.21985">
        <ele>2522.8</ele>
        <time>2022-02-09T11:17:55Z</time>
      </trkpt>
      <trkpt lat="42.86613" lon="0.21985">
        <ele>2522.9</ele>
        <time>2022-02-09T11:17:56Z</time>
      </trkpt>
      <trkpt lat="42.86613" lon="0.21985">
        <ele>2523</ele>
        <time>2022-02-09T11:17:57Z</time>
      </trkpt>
      <trkpt lat="42.86614" lon="0.21984">
        <ele>2523.2</ele>
        <time>2022-02-09T11:17:58Z</time>
      </trkpt>
      <trkpt lat="42.86615" lon="0.21984">
        <ele>2523.3</ele>
        <time>2022-02-09T11:17:59Z</time>
      </trkpt>
      <trkpt lat="42.86615" lon="0.21984">
        <ele>2523.4</ele>
        <time>2022-02-09T11:18:00Z</time>
      </trkpt>
      <trkpt lat="42.86616" lon="0.21983">
        <ele>2523.5</ele>
        <time>2022-02-09T11:18:01Z</time>
      </trkpt>
      <trkpt lat="42.86617" lon="0.21983">
        <ele>2523.6</ele>
        <time>2022-02-09T11:18:02Z</time>
      </trkpt>
      <trkpt lat="42.86617" lon="0.21982">
        <ele>2523.7</ele>
        <time>2022-02-09T11:18:03Z</time>
      </trkpt>
      <trkpt lat="42.86618" lon="0.21982">
        <ele>2523.9</ele>
        <time>2022-02-09T11:18:04Z</time>
      </trkpt>
      <trkpt lat="42.86619" lon="0.21982">
        <ele>2524</ele>
        <time>2022-02-09T11:18:05Z</time>
      </trkpt>
      <trkpt lat="42.86619" lon="0.21981">
        <ele>2524</ele>
        <time>2022-02-09T11:18:06Z</time>
      </trkpt>
      <trkpt lat="42.8662" lon="0.21981">
        <ele>2524.1</ele>
        <time>2022-02-09T11:18:07Z</time>
      </trkpt>
      <trkpt lat="42.86621" lon="0.2198">
        <ele>2524.3</ele>
        <time>2022-02-09T11:18:08Z</time>
      </trkpt>
      <trkpt lat="42.86621" lon="0.2198">
        <ele>2524.4</ele>
        <time>2022-02-09T11:18:09Z</time>
      </trkpt>
      <trkpt lat="42.86622" lon="0.21979">
        <ele>2524.5</ele>
        <time>2022-02-09T11:18:10Z</time>
      </trkpt>
      <trkpt lat="42.86623" lon="0.21979">
        <ele>2524.6</ele>
        <time>2022-02-09T11:18:11Z</time>
      </trkpt>
      <trkpt lat="42.86623" lon="0.21978">
        <ele>2524.7</ele>
        <time>2022-02-09T11:18:12Z</time>
      </trkpt>
      <trkpt lat="42.86624" lon="0.21978">
        <ele>2524.8</ele>
        <time>2022-02-09T11:18:13Z</time>
      </trkpt>
      <trkpt lat="42.86625" lon="0.21977">
        <ele>2524.9</ele>
        <time>2022-02-09T11:18:14Z</time>
      </trkpt>
      <trkpt lat="42.86625" lon="0.21977">
        <ele>2525</ele>
        <time>2022-02-09T11:18:15Z</time>
      </trkpt>
      <trkpt lat="42.86626" lon="0.21976">
        <ele>2525.1</ele>
        <time>2022-02-09T11:18:16Z</time>
      </trkpt>
      <trkpt lat="42.86626" lon="0.21976">
        <ele>2525.2</ele>
        <time>2022-02-09T11:18:17Z</time>
      </trkpt>
      <trkpt lat="42.86627" lon="0.21975">
        <ele>2525.4</ele>
        <time>2022-02-09T11:18:18Z</time>
      </trkpt>
      <trkpt lat="42.86628" lon="0.21975">
        <ele>2525.5</ele>
        <time>2022-02-09T11:18:19Z</time>
      </trkpt>
      <trkpt lat="42.86629" lon="0.21974">
        <ele>2525.7</ele>
        <time>2022-02-09T11:18:20Z</time>
      </trkpt>
      <trkpt lat="42.86629" lon="0.21974">
        <ele>2525.8</ele>
        <time>2022-02-09T11:18:21Z</time>
      </trkpt>
      <trkpt lat="42.8663" lon="0.21974">
        <ele>2526</ele>
        <time>2022-02-09T11:18:22Z</time>
      </trkpt>
      <trkpt lat="42.86631" lon="0.21973">
        <ele>2526.1</ele>
        <time>2022-02-09T11:18:23Z</time>
      </trkpt>
      <trkpt lat="42.86631" lon="0.21973">
        <ele>2526.3</ele>
        <time>2022-02-09T11:18:24Z</time>
      </trkpt>
      <trkpt lat="42.86632" lon="0.21973">
        <ele>2526.5</ele>
        <time>2022-02-09T11:18:25Z</time>
      </trkpt>
      <trkpt lat="42.86633" lon="0.21972">
        <ele>2526.7</ele>
        <time>2022-02-09T11:18:26Z</time>
      </trkpt>
      <trkpt lat="42.86634" lon="0.21972">
        <ele>2526.8</ele>
        <time>2022-02-09T11:18:27Z</time>
      </trkpt>
      <trkpt lat="42.86634" lon="0.21972">
        <ele>2526.9</ele>
        <time>2022-02-09T11:18:28Z</time>
      </trkpt>
      <trkpt lat="42.86635" lon="0.21972">
        <ele>2527.1</ele>
        <time>2022-02-09T11:18:29Z</time>
      </trkpt>
      <trkpt lat="42.86636" lon="0.21972">
        <ele>2527.3</ele>
        <time>2022-02-09T11:18:30Z</time>
      </trkpt>
      <trkpt lat="42.86636" lon="0.21971">
        <ele>2527.5</ele>
        <time>2022-02-09T11:18:31Z</time>
      </trkpt>
      <trkpt lat="42.86637" lon="0.21971">
        <ele>2527.6</ele>
        <time>2022-02-09T11:18:32Z</time>
      </trkpt>
      <trkpt lat="42.86637" lon="0.21971">
        <ele>2527.8</ele>
        <time>2022-02-09T11:18:33Z</time>
      </trkpt>
      <trkpt lat="42.86638" lon="0.2197">
        <ele>2528</ele>
        <time>2022-02-09T11:18:34Z</time>
      </trkpt>
      <trkpt lat="42.86639" lon="0.2197">
        <ele>2528.2</ele>
        <time>2022-02-09T11:18:35Z</time>
      </trkpt>
      <trkpt lat="42.86639" lon="0.21969">
        <ele>2528.4</ele>
        <time>2022-02-09T11:18:36Z</time>
      </trkpt>
      <trkpt lat="42.8664" lon="0.21969">
        <ele>2528.6</ele>
        <time>2022-02-09T11:18:37Z</time>
      </trkpt>
      <trkpt lat="42.86641" lon="0.21968">
        <ele>2528.8</ele>
        <time>2022-02-09T11:18:38Z</time>
      </trkpt>
      <trkpt lat="42.86641" lon="0.21967">
        <ele>2529</ele>
        <time>2022-02-09T11:18:39Z</time>
      </trkpt>
      <trkpt lat="42.86642" lon="0.21967">
        <ele>2529.1</ele>
        <time>2022-02-09T11:18:40Z</time>
      </trkpt>
      <trkpt lat="42.86642" lon="0.21966">
        <ele>2529.4</ele>
        <time>2022-02-09T11:18:41Z</time>
      </trkpt>
      <trkpt lat="42.86643" lon="0.21965">
        <ele>2529.6</ele>
        <time>2022-02-09T11:18:42Z</time>
      </trkpt>
      <trkpt lat="42.86643" lon="0.21965">
        <ele>2529.7</ele>
        <time>2022-02-09T11:18:43Z</time>
      </trkpt>
      <trkpt lat="42.86644" lon="0.21964">
        <ele>2529.9</ele>
        <time>2022-02-09T11:18:44Z</time>
      </trkpt>
      <trkpt lat="42.86644" lon="0.21963">
        <ele>2530.1</ele>
        <time>2022-02-09T11:18:45Z</time>
      </trkpt>
      <trkpt lat="42.86645" lon="0.21962">
        <ele>2530.3</ele>
        <time>2022-02-09T11:18:46Z</time>
      </trkpt>
      <trkpt lat="42.86646" lon="0.21961">
        <ele>2530.5</ele>
        <time>2022-02-09T11:18:47Z</time>
      </trkpt>
      <trkpt lat="42.86646" lon="0.21961">
        <ele>2530.6</ele>
        <time>2022-02-09T11:18:48Z</time>
      </trkpt>
      <trkpt lat="42.86646" lon="0.2196">
        <ele>2530.8</ele>
        <time>2022-02-09T11:18:49Z</time>
      </trkpt>
      <trkpt lat="42.86647" lon="0.21959">
        <ele>2531</ele>
        <time>2022-02-09T11:18:50Z</time>
      </trkpt>
      <trkpt lat="42.86648" lon="0.21958">
        <ele>2531.2</ele>
        <time>2022-02-09T11:18:51Z</time>
      </trkpt>
      <trkpt lat="42.86648" lon="0.21958">
        <ele>2531.3</ele>
        <time>2022-02-09T11:18:52Z</time>
      </trkpt>
      <trkpt lat="42.86648" lon="0.21957">
        <ele>2531.5</ele>
        <time>2022-02-09T11:18:53Z</time>
      </trkpt>
      <trkpt lat="42.86649" lon="0.21956">
        <ele>2531.7</ele>
        <time>2022-02-09T11:18:54Z</time>
      </trkpt>
      <trkpt lat="42.86649" lon="0.21955">
        <ele>2531.9</ele>
        <time>2022-02-09T11:18:55Z</time>
      </trkpt>
      <trkpt lat="42.8665" lon="0.21954">
        <ele>2532.1</ele>
        <time>2022-02-09T11:18:56Z</time>
      </trkpt>
      <trkpt lat="42.8665" lon="0.21954">
        <ele>2532.3</ele>
        <time>2022-02-09T11:18:57Z</time>
      </trkpt>
      <trkpt lat="42.86651" lon="0.21953">
        <ele>2532.5</ele>
        <time>2022-02-09T11:18:58Z</time>
      </trkpt>
      <trkpt lat="42.86651" lon="0.21952">
        <ele>2532.7</ele>
        <time>2022-02-09T11:18:59Z</time>
      </trkpt>
      <trkpt lat="42.86651" lon="0.21951">
        <ele>2532.9</ele>
        <time>2022-02-09T11:19:00Z</time>
      </trkpt>
      <trkpt lat="42.86652" lon="0.2195">
        <ele>2533.1</ele>
        <time>2022-02-09T11:19:01Z</time>
      </trkpt>
      <trkpt lat="42.86652" lon="0.2195">
        <ele>2533.3</ele>
        <time>2022-02-09T11:19:02Z</time>
      </trkpt>
      <trkpt lat="42.86653" lon="0.21949">
        <ele>2533.4</ele>
        <time>2022-02-09T11:19:03Z</time>
      </trkpt>
      <trkpt lat="42.86653" lon="0.21949">
        <ele>2533.6</ele>
        <time>2022-02-09T11:19:04Z</time>
      </trkpt>
      <trkpt lat="42.86653" lon="0.21948">
        <ele>2533.7</ele>
        <time>2022-02-09T11:19:05Z</time>
      </trkpt>
      <trkpt lat="42.86653" lon="0.21947">
        <ele>2533.9</ele>
        <time>2022-02-09T11:19:06Z</time>
      </trkpt>
      <trkpt lat="42.86654" lon="0.21947">
        <ele>2534.1</ele>
        <time>2022-02-09T11:19:07Z</time>
      </trkpt>
      <trkpt lat="42.86654" lon="0.21946">
        <ele>2534.3</ele>
        <time>2022-02-09T11:19:08Z</time>
      </trkpt>
      <trkpt lat="42.86654" lon="0.21945">
        <ele>2534.3</ele>
        <time>2022-02-09T11:19:09Z</time>
      </trkpt>
      <trkpt lat="42.86655" lon="0.21944">
        <ele>2534.3</ele>
        <time>2022-02-09T11:19:10Z</time>
      </trkpt>
      <trkpt lat="42.86655" lon="0.21943">
        <ele>2534.3</ele>
        <time>2022-02-09T11:19:11Z</time>
      </trkpt>
      <trkpt lat="42.86655" lon="0.21942">
        <ele>2534.4</ele>
        <time>2022-02-09T11:19:12Z</time>
      </trkpt>
      <trkpt lat="42.86656" lon="0.21942">
        <ele>2534.4</ele>
        <time>2022-02-09T11:19:13Z</time>
      </trkpt>
      <trkpt lat="42.86656" lon="0.21941">
        <ele>2534.6</ele>
        <time>2022-02-09T11:19:14Z</time>
      </trkpt>
      <trkpt lat="42.86656" lon="0.2194">
        <ele>2534.6</ele>
        <time>2022-02-09T11:19:15Z</time>
      </trkpt>
      <trkpt lat="42.86656" lon="0.21939">
        <ele>2534.6</ele>
        <time>2022-02-09T11:19:16Z</time>
      </trkpt>
      <trkpt lat="42.86657" lon="0.21938">
        <ele>2534.8</ele>
        <time>2022-02-09T11:19:17Z</time>
      </trkpt>
      <trkpt lat="42.86657" lon="0.21937">
        <ele>2534.8</ele>
        <time>2022-02-09T11:19:18Z</time>
      </trkpt>
      <trkpt lat="42.86657" lon="0.21936">
        <ele>2534.8</ele>
        <time>2022-02-09T11:19:19Z</time>
      </trkpt>
      <trkpt lat="42.86658" lon="0.21935">
        <ele>2534.8</ele>
        <time>2022-02-09T11:19:20Z</time>
      </trkpt>
      <trkpt lat="42.86658" lon="0.21935">
        <ele>2534.8</ele>
        <time>2022-02-09T11:19:21Z</time>
      </trkpt>
      <trkpt lat="42.86658" lon="0.21934">
        <ele>2535</ele>
        <time>2022-02-09T11:19:22Z</time>
      </trkpt>
      <trkpt lat="42.86659" lon="0.21933">
        <ele>2535</ele>
        <time>2022-02-09T11:19:23Z</time>
      </trkpt>
      <trkpt lat="42.86659" lon="0.21932">
        <ele>2535</ele>
        <time>2022-02-09T11:19:24Z</time>
      </trkpt>
      <trkpt lat="42.86659" lon="0.21932">
        <ele>2535</ele>
        <time>2022-02-09T11:19:25Z</time>
      </trkpt>
      <trkpt lat="42.86659" lon="0.21931">
        <ele>2535.2</ele>
        <time>2022-02-09T11:19:26Z</time>
      </trkpt>
      <trkpt lat="42.86659" lon="0.2193">
        <ele>2535.4</ele>
        <time>2022-02-09T11:19:27Z</time>
      </trkpt>
      <trkpt lat="42.8666" lon="0.21929">
        <ele>2535.4</ele>
        <time>2022-02-09T11:19:28Z</time>
      </trkpt>
      <trkpt lat="42.8666" lon="0.21928">
        <ele>2535.4</ele>
        <time>2022-02-09T11:19:29Z</time>
      </trkpt>
      <trkpt lat="42.8666" lon="0.21927">
        <ele>2535.4</ele>
        <time>2022-02-09T11:19:30Z</time>
      </trkpt>
      <trkpt lat="42.8666" lon="0.21926">
        <ele>2535.4</ele>
        <time>2022-02-09T11:19:31Z</time>
      </trkpt>
      <trkpt lat="42.86661" lon="0.21926">
        <ele>2535.4</ele>
        <time>2022-02-09T11:19:32Z</time>
      </trkpt>
      <trkpt lat="42.86661" lon="0.21925">
        <ele>2535.7</ele>
        <time>2022-02-09T11:19:33Z</time>
      </trkpt>
      <trkpt lat="42.86661" lon="0.21924">
        <ele>2535.7</ele>
        <time>2022-02-09T11:19:34Z</time>
      </trkpt>
      <trkpt lat="42.86661" lon="0.21923">
        <ele>2535.7</ele>
        <time>2022-02-09T11:19:35Z</time>
      </trkpt>
      <trkpt lat="42.86662" lon="0.21921">
        <ele>2535.9</ele>
        <time>2022-02-09T11:19:36Z</time>
      </trkpt>
      <trkpt lat="42.86662" lon="0.21919">
        <ele>2535.9</ele>
        <time>2022-02-09T11:19:37Z</time>
      </trkpt>
      <trkpt lat="42.86662" lon="0.21918">
        <ele>2536.2</ele>
        <time>2022-02-09T11:19:38Z</time>
      </trkpt>
      <trkpt lat="42.86662" lon="0.21918">
        <ele>2536.2</ele>
        <time>2022-02-09T11:19:39Z</time>
      </trkpt>
      <trkpt lat="42.86662" lon="0.21917">
        <ele>2536.2</ele>
        <time>2022-02-09T11:19:40Z</time>
      </trkpt>
      <trkpt lat="42.86662" lon="0.21916">
        <ele>2536.2</ele>
        <time>2022-02-09T11:19:41Z</time>
      </trkpt>
      <trkpt lat="42.86662" lon="0.21916">
        <ele>2536.2</ele>
        <time>2022-02-09T11:19:42Z</time>
      </trkpt>
      <trkpt lat="42.86662" lon="0.21915">
        <ele>2536.2</ele>
        <time>2022-02-09T11:19:43Z</time>
      </trkpt>
      <trkpt lat="42.86662" lon="0.21914">
        <ele>2536.2</ele>
        <time>2022-02-09T11:19:44Z</time>
      </trkpt>
      <trkpt lat="42.86663" lon="0.21913">
        <ele>2536.5</ele>
        <time>2022-02-09T11:19:45Z</time>
      </trkpt>
      <trkpt lat="42.86663" lon="0.21913">
        <ele>2536.8</ele>
        <time>2022-02-09T11:19:46Z</time>
      </trkpt>
      <trkpt lat="42.86663" lon="0.21912">
        <ele>2536.8</ele>
        <time>2022-02-09T11:19:47Z</time>
      </trkpt>
      <trkpt lat="42.86663" lon="0.21911">
        <ele>2536.8</ele>
        <time>2022-02-09T11:19:48Z</time>
      </trkpt>
      <trkpt lat="42.86664" lon="0.2191">
        <ele>2536.8</ele>
        <time>2022-02-09T11:19:49Z</time>
      </trkpt>
      <trkpt lat="42.86664" lon="0.21909">
        <ele>2536.8</ele>
        <time>2022-02-09T11:19:50Z</time>
      </trkpt>
      <trkpt lat="42.86665" lon="0.21909">
        <ele>2536.8</ele>
        <time>2022-02-09T11:19:51Z</time>
      </trkpt>
      <trkpt lat="42.86665" lon="0.21908">
        <ele>2537.1</ele>
        <time>2022-02-09T11:19:52Z</time>
      </trkpt>
      <trkpt lat="42.86665" lon="0.21907">
        <ele>2537.1</ele>
        <time>2022-02-09T11:19:53Z</time>
      </trkpt>
      <trkpt lat="42.86666" lon="0.21907">
        <ele>2537.4</ele>
        <time>2022-02-09T11:19:54Z</time>
      </trkpt>
      <trkpt lat="42.86666" lon="0.21906">
        <ele>2537.4</ele>
        <time>2022-02-09T11:19:55Z</time>
      </trkpt>
      <trkpt lat="42.86667" lon="0.21905">
        <ele>2537.4</ele>
        <time>2022-02-09T11:19:56Z</time>
      </trkpt>
      <trkpt lat="42.86667" lon="0.21904">
        <ele>2537.4</ele>
        <time>2022-02-09T11:19:57Z</time>
      </trkpt>
      <trkpt lat="42.86667" lon="0.21904">
        <ele>2537.8</ele>
        <time>2022-02-09T11:19:58Z</time>
      </trkpt>
      <trkpt lat="42.86668" lon="0.21903">
        <ele>2537.8</ele>
        <time>2022-02-09T11:19:59Z</time>
      </trkpt>
      <trkpt lat="42.86668" lon="0.21902">
        <ele>2537.8</ele>
        <time>2022-02-09T11:20:00Z</time>
      </trkpt>
      <trkpt lat="42.86668" lon="0.21901">
        <ele>2537.8</ele>
        <time>2022-02-09T11:20:01Z</time>
      </trkpt>
      <trkpt lat="42.86669" lon="0.21901">
        <ele>2538.1</ele>
        <time>2022-02-09T11:20:02Z</time>
      </trkpt>
      <trkpt lat="42.86669" lon="0.219">
        <ele>2538.1</ele>
        <time>2022-02-09T11:20:03Z</time>
      </trkpt>
      <trkpt lat="42.8667" lon="0.21899">
        <ele>2538.5</ele>
        <time>2022-02-09T11:20:04Z</time>
      </trkpt>
      <trkpt lat="42.86671" lon="0.21899">
        <ele>2538.5</ele>
        <time>2022-02-09T11:20:05Z</time>
      </trkpt>
      <trkpt lat="42.86672" lon="0.21898">
        <ele>2538.5</ele>
        <time>2022-02-09T11:20:06Z</time>
      </trkpt>
      <trkpt lat="42.86672" lon="0.21897">
        <ele>2538.9</ele>
        <time>2022-02-09T11:20:07Z</time>
      </trkpt>
      <trkpt lat="42.86672" lon="0.21896">
        <ele>2538.9</ele>
        <time>2022-02-09T11:20:08Z</time>
      </trkpt>
      <trkpt lat="42.86672" lon="0.21895">
        <ele>2539.3</ele>
        <time>2022-02-09T11:20:09Z</time>
      </trkpt>
      <trkpt lat="42.86673" lon="0.21894">
        <ele>2539.3</ele>
        <time>2022-02-09T11:20:10Z</time>
      </trkpt>
      <trkpt lat="42.86673" lon="0.21893">
        <ele>2539.3</ele>
        <time>2022-02-09T11:20:11Z</time>
      </trkpt>
      <trkpt lat="42.86673" lon="0.21892">
        <ele>2539.3</ele>
        <time>2022-02-09T11:20:12Z</time>
      </trkpt>
      <trkpt lat="42.86674" lon="0.21892">
        <ele>2539.3</ele>
        <time>2022-02-09T11:20:13Z</time>
      </trkpt>
      <trkpt lat="42.86674" lon="0.21891">
        <ele>2539.9</ele>
        <time>2022-02-09T11:20:14Z</time>
      </trkpt>
      <trkpt lat="42.86674" lon="0.2189">
        <ele>2539.9</ele>
        <time>2022-02-09T11:20:15Z</time>
      </trkpt>
      <trkpt lat="42.86675" lon="0.21889">
        <ele>2539.9</ele>
        <time>2022-02-09T11:20:16Z</time>
      </trkpt>
      <trkpt lat="42.86675" lon="0.21888">
        <ele>2540.3</ele>
        <time>2022-02-09T11:20:17Z</time>
      </trkpt>
      <trkpt lat="42.86676" lon="0.21887">
        <ele>2540.3</ele>
        <time>2022-02-09T11:20:18Z</time>
      </trkpt>
      <trkpt lat="42.86676" lon="0.21886">
        <ele>2540.8</ele>
        <time>2022-02-09T11:20:19Z</time>
      </trkpt>
      <trkpt lat="42.86677" lon="0.21886">
        <ele>2540.8</ele>
        <time>2022-02-09T11:20:20Z</time>
      </trkpt>
      <trkpt lat="42.86677" lon="0.21885">
        <ele>2540.8</ele>
        <time>2022-02-09T11:20:21Z</time>
      </trkpt>
      <trkpt lat="42.86677" lon="0.21884">
        <ele>2540.8</ele>
        <time>2022-02-09T11:20:22Z</time>
      </trkpt>
      <trkpt lat="42.86677" lon="0.21883">
        <ele>2540.8</ele>
        <time>2022-02-09T11:20:23Z</time>
      </trkpt>
      <trkpt lat="42.86678" lon="0.21882">
        <ele>2541.4</ele>
        <time>2022-02-09T11:20:24Z</time>
      </trkpt>
      <trkpt lat="42.86678" lon="0.21881">
        <ele>2541.8</ele>
        <time>2022-02-09T11:20:25Z</time>
      </trkpt>
      <trkpt lat="42.86679" lon="0.2188">
        <ele>2541.8</ele>
        <time>2022-02-09T11:20:26Z</time>
      </trkpt>
      <trkpt lat="42.86679" lon="0.21879">
        <ele>2541.8</ele>
        <time>2022-02-09T11:20:27Z</time>
      </trkpt>
      <trkpt lat="42.8668" lon="0.21878">
        <ele>2542.4</ele>
        <time>2022-02-09T11:20:28Z</time>
      </trkpt>
      <trkpt lat="42.8668" lon="0.21877">
        <ele>2542.4</ele>
        <time>2022-02-09T11:20:29Z</time>
      </trkpt>
      <trkpt lat="42.8668" lon="0.21876">
        <ele>2542.4</ele>
        <time>2022-02-09T11:20:30Z</time>
      </trkpt>
      <trkpt lat="42.86681" lon="0.21875">
        <ele>2542.4</ele>
        <time>2022-02-09T11:20:31Z</time>
      </trkpt>
      <trkpt lat="42.86681" lon="0.21874">
        <ele>2543</ele>
        <time>2022-02-09T11:20:32Z</time>
      </trkpt>
      <trkpt lat="42.86681" lon="0.21873">
        <ele>2543.5</ele>
        <time>2022-02-09T11:20:33Z</time>
      </trkpt>
      <trkpt lat="42.86681" lon="0.21872">
        <ele>2543.5</ele>
        <time>2022-02-09T11:20:34Z</time>
      </trkpt>
      <trkpt lat="42.86681" lon="0.21871">
        <ele>2543.5</ele>
        <time>2022-02-09T11:20:35Z</time>
      </trkpt>
      <trkpt lat="42.86681" lon="0.2187">
        <ele>2543.5</ele>
        <time>2022-02-09T11:20:36Z</time>
      </trkpt>
      <trkpt lat="42.86682" lon="0.21869">
        <ele>2544.1</ele>
        <time>2022-02-09T11:20:37Z</time>
      </trkpt>
      <trkpt lat="42.86682" lon="0.21869">
        <ele>2544.1</ele>
        <time>2022-02-09T11:20:38Z</time>
      </trkpt>
      <trkpt lat="42.86683" lon="0.21868">
        <ele>2544.1</ele>
        <time>2022-02-09T11:20:39Z</time>
      </trkpt>
      <trkpt lat="42.86684" lon="0.21867">
        <ele>2544.1</ele>
        <time>2022-02-09T11:20:40Z</time>
      </trkpt>
      <trkpt lat="42.86684" lon="0.21866">
        <ele>2544.1</ele>
        <time>2022-02-09T11:20:41Z</time>
      </trkpt>
      <trkpt lat="42.86684" lon="0.21865">
        <ele>2544.6</ele>
        <time>2022-02-09T11:20:42Z</time>
      </trkpt>
      <trkpt lat="42.86684" lon="0.21865">
        <ele>2544.6</ele>
        <time>2022-02-09T11:20:43Z</time>
      </trkpt>
      <trkpt lat="42.86684" lon="0.21864">
        <ele>2544.6</ele>
        <time>2022-02-09T11:20:44Z</time>
      </trkpt>
      <trkpt lat="42.86684" lon="0.21863">
        <ele>2544.6</ele>
        <time>2022-02-09T11:20:45Z</time>
      </trkpt>
      <trkpt lat="42.86685" lon="0.21863">
        <ele>2545.2</ele>
        <time>2022-02-09T11:20:46Z</time>
      </trkpt>
      <trkpt lat="42.86685" lon="0.21862">
        <ele>2545.2</ele>
        <time>2022-02-09T11:20:47Z</time>
      </trkpt>
      <trkpt lat="42.86686" lon="0.21861">
        <ele>2545.8</ele>
        <time>2022-02-09T11:20:48Z</time>
      </trkpt>
      <trkpt lat="42.86686" lon="0.2186">
        <ele>2545.8</ele>
        <time>2022-02-09T11:20:49Z</time>
      </trkpt>
      <trkpt lat="42.86687" lon="0.21859">
        <ele>2545.8</ele>
        <time>2022-02-09T11:20:50Z</time>
      </trkpt>
      <trkpt lat="42.86687" lon="0.21859">
        <ele>2545.8</ele>
        <time>2022-02-09T11:20:51Z</time>
      </trkpt>
      <trkpt lat="42.86687" lon="0.21858">
        <ele>2545.8</ele>
        <time>2022-02-09T11:20:52Z</time>
      </trkpt>
      <trkpt lat="42.86688" lon="0.21857">
        <ele>2546.5</ele>
        <time>2022-02-09T11:20:53Z</time>
      </trkpt>
      <trkpt lat="42.86688" lon="0.21856">
        <ele>2547.1</ele>
        <time>2022-02-09T11:20:54Z</time>
      </trkpt>
      <trkpt lat="42.86688" lon="0.21856">
        <ele>2547.1</ele>
        <time>2022-02-09T11:20:55Z</time>
      </trkpt>
      <trkpt lat="42.86689" lon="0.21855">
        <ele>2547.1</ele>
        <time>2022-02-09T11:20:56Z</time>
      </trkpt>
      <trkpt lat="42.86689" lon="0.21854">
        <ele>2547.1</ele>
        <time>2022-02-09T11:20:57Z</time>
      </trkpt>
      <trkpt lat="42.8669" lon="0.21852">
        <ele>2547.8</ele>
        <time>2022-02-09T11:20:58Z</time>
      </trkpt>
      <trkpt lat="42.8669" lon="0.21852">
        <ele>2547.8</ele>
        <time>2022-02-09T11:20:59Z</time>
      </trkpt>
      <trkpt lat="42.86689" lon="0.21851">
        <ele>2547.8</ele>
        <time>2022-02-09T11:21:00Z</time>
      </trkpt>
      <trkpt lat="42.86689" lon="0.21851">
        <ele>2547.8</ele>
        <time>2022-02-09T11:21:01Z</time>
      </trkpt>
      <trkpt lat="42.86689" lon="0.21851">
        <ele>2547.8</ele>
        <time>2022-02-09T11:21:02Z</time>
      </trkpt>
      <trkpt lat="42.8669" lon="0.21851">
        <ele>2547.8</ele>
        <time>2022-02-09T11:21:03Z</time>
      </trkpt>
      <trkpt lat="42.86691" lon="0.2185">
        <ele>2548.4</ele>
        <time>2022-02-09T11:21:04Z</time>
      </trkpt>
      <trkpt lat="42.86691" lon="0.21849">
        <ele>2548.4</ele>
        <time>2022-02-09T11:21:05Z</time>
      </trkpt>
      <trkpt lat="42.86691" lon="0.21848">
        <ele>2549.1</ele>
        <time>2022-02-09T11:21:06Z</time>
      </trkpt>
      <trkpt lat="42.86691" lon="0.21847">
        <ele>2549.1</ele>
        <time>2022-02-09T11:21:07Z</time>
      </trkpt>
      <trkpt lat="42.86691" lon="0.21846">
        <ele>2549.1</ele>
        <time>2022-02-09T11:21:08Z</time>
      </trkpt>
      <trkpt lat="42.86692" lon="0.21845">
        <ele>2549.1</ele>
        <time>2022-02-09T11:21:09Z</time>
      </trkpt>
      <trkpt lat="42.86693" lon="0.21845">
        <ele>2549.1</ele>
        <time>2022-02-09T11:21:10Z</time>
      </trkpt>
      <trkpt lat="42.86693" lon="0.21844">
        <ele>2549.9</ele>
        <time>2022-02-09T11:21:11Z</time>
      </trkpt>
      <trkpt lat="42.86693" lon="0.21843">
        <ele>2549.9</ele>
        <time>2022-02-09T11:21:12Z</time>
      </trkpt>
      <trkpt lat="42.86694" lon="0.21842">
        <ele>2549.9</ele>
        <time>2022-02-09T11:21:13Z</time>
      </trkpt>
      <trkpt lat="42.86694" lon="0.21841">
        <ele>2550.6</ele>
        <time>2022-02-09T11:21:14Z</time>
      </trkpt>
      <trkpt lat="42.86694" lon="0.2184">
        <ele>2550.6</ele>
        <time>2022-02-09T11:21:15Z</time>
      </trkpt>
      <trkpt lat="42.86694" lon="0.21839">
        <ele>2551.3</ele>
        <time>2022-02-09T11:21:16Z</time>
      </trkpt>
      <trkpt lat="42.86694" lon="0.21838">
        <ele>2551.3</ele>
        <time>2022-02-09T11:21:17Z</time>
      </trkpt>
      <trkpt lat="42.86694" lon="0.21837">
        <ele>2551.3</ele>
        <time>2022-02-09T11:21:18Z</time>
      </trkpt>
      <trkpt lat="42.86694" lon="0.21836">
        <ele>2551.3</ele>
        <time>2022-02-09T11:21:19Z</time>
      </trkpt>
      <trkpt lat="42.86694" lon="0.21835">
        <ele>2552.1</ele>
        <time>2022-02-09T11:21:20Z</time>
      </trkpt>
      <trkpt lat="42.86695" lon="0.21834">
        <ele>2552.1</ele>
        <time>2022-02-09T11:21:21Z</time>
      </trkpt>
      <trkpt lat="42.86695" lon="0.21833">
        <ele>2552.1</ele>
        <time>2022-02-09T11:21:22Z</time>
      </trkpt>
      <trkpt lat="42.86695" lon="0.21832">
        <ele>2552.1</ele>
        <time>2022-02-09T11:21:23Z</time>
      </trkpt>
      <trkpt lat="42.86696" lon="0.21832">
        <ele>2552.1</ele>
        <time>2022-02-09T11:21:24Z</time>
      </trkpt>
      <trkpt lat="42.86696" lon="0.21831">
        <ele>2552.9</ele>
        <time>2022-02-09T11:21:25Z</time>
      </trkpt>
      <trkpt lat="42.86697" lon="0.2183">
        <ele>2552.9</ele>
        <time>2022-02-09T11:21:26Z</time>
      </trkpt>
      <trkpt lat="42.86697" lon="0.21829">
        <ele>2553.6</ele>
        <time>2022-02-09T11:21:27Z</time>
      </trkpt>
      <trkpt lat="42.86697" lon="0.21828">
        <ele>2553.6</ele>
        <time>2022-02-09T11:21:28Z</time>
      </trkpt>
      <trkpt lat="42.86698" lon="0.21828">
        <ele>2553.6</ele>
        <time>2022-02-09T11:21:29Z</time>
      </trkpt>
      <trkpt lat="42.86699" lon="0.21827">
        <ele>2553.6</ele>
        <time>2022-02-09T11:21:30Z</time>
      </trkpt>
      <trkpt lat="42.86699" lon="0.21827">
        <ele>2553.6</ele>
        <time>2022-02-09T11:21:31Z</time>
      </trkpt>
      <trkpt lat="42.867" lon="0.21827">
        <ele>2554.3</ele>
        <time>2022-02-09T11:21:32Z</time>
      </trkpt>
      <trkpt lat="42.86701" lon="0.21827">
        <ele>2555</ele>
        <time>2022-02-09T11:21:33Z</time>
      </trkpt>
      <trkpt lat="42.86701" lon="0.21827">
        <ele>2555</ele>
        <time>2022-02-09T11:21:34Z</time>
      </trkpt>
      <trkpt lat="42.86702" lon="0.21827">
        <ele>2554.2</ele>
        <time>2022-02-09T11:21:35Z</time>
      </trkpt>
      <trkpt lat="42.86703" lon="0.21827">
        <ele>2554.2</ele>
        <time>2022-02-09T11:21:36Z</time>
      </trkpt>
      <trkpt lat="42.86703" lon="0.21827">
        <ele>2555.5</ele>
        <time>2022-02-09T11:21:37Z</time>
      </trkpt>
      <trkpt lat="42.86704" lon="0.21826">
        <ele>2555.5</ele>
        <time>2022-02-09T11:21:38Z</time>
      </trkpt>
      <trkpt lat="42.86704" lon="0.21826">
        <ele>2555.5</ele>
        <time>2022-02-09T11:21:39Z</time>
      </trkpt>
      <trkpt lat="42.86703" lon="0.21826">
        <ele>2555.5</ele>
        <time>2022-02-09T11:21:40Z</time>
      </trkpt>
      <trkpt lat="42.86703" lon="0.21826">
        <ele>2555</ele>
        <time>2022-02-09T11:21:41Z</time>
      </trkpt>
      <trkpt lat="42.86703" lon="0.21826">
        <ele>2555</ele>
        <time>2022-02-09T11:21:42Z</time>
      </trkpt>
      <trkpt lat="42.86703" lon="0.21826">
        <ele>2555</ele>
        <time>2022-02-09T11:21:43Z</time>
      </trkpt>
      <trkpt lat="42.86703" lon="0.21826">
        <ele>2555</ele>
        <time>2022-02-09T11:21:44Z</time>
      </trkpt>
      <trkpt lat="42.86703" lon="0.21826">
        <ele>2555.5</ele>
        <time>2022-02-09T11:21:45Z</time>
      </trkpt>
      <trkpt lat="42.86703" lon="0.21827">
        <ele>2555</ele>
        <time>2022-02-09T11:21:46Z</time>
      </trkpt>
      <trkpt lat="42.86703" lon="0.21828">
        <ele>2554.2</ele>
        <time>2022-02-09T11:21:47Z</time>
      </trkpt>
      <trkpt lat="42.86704" lon="0.21829">
        <ele>2554.8</ele>
        <time>2022-02-09T11:21:48Z</time>
      </trkpt>
      <trkpt lat="42.86705" lon="0.21829">
        <ele>2554.8</ele>
        <time>2022-02-09T11:21:49Z</time>
      </trkpt>
      <trkpt lat="42.86705" lon="0.21828">
        <ele>2554.8</ele>
        <time>2022-02-09T11:21:50Z</time>
      </trkpt>
      <trkpt lat="42.86705" lon="0.21828">
        <ele>2554.8</ele>
        <time>2022-02-09T11:21:51Z</time>
      </trkpt>
      <trkpt lat="42.86706" lon="0.21828">
        <ele>2554.8</ele>
        <time>2022-02-09T11:21:52Z</time>
      </trkpt>
      <trkpt lat="42.86706" lon="0.21828">
        <ele>2554.8</ele>
        <time>2022-02-09T11:21:53Z</time>
      </trkpt>
      <trkpt lat="42.86706" lon="0.21827">
        <ele>2554.8</ele>
        <time>2022-02-09T11:21:54Z</time>
      </trkpt>
      <trkpt lat="42.86707" lon="0.21828">
        <ele>2555.3</ele>
        <time>2022-02-09T11:21:55Z</time>
      </trkpt>
      <trkpt lat="42.86707" lon="0.21828">
        <ele>2555.3</ele>
        <time>2022-02-09T11:21:56Z</time>
      </trkpt>
      <trkpt lat="42.86708" lon="0.21828">
        <ele>2555.3</ele>
        <time>2022-02-09T11:21:57Z</time>
      </trkpt>
      <trkpt lat="42.86708" lon="0.21828">
        <ele>2555.3</ele>
        <time>2022-02-09T11:21:58Z</time>
      </trkpt>
      <trkpt lat="42.86709" lon="0.21828">
        <ele>2555.3</ele>
        <time>2022-02-09T11:21:59Z</time>
      </trkpt>
      <trkpt lat="42.86709" lon="0.21829">
        <ele>2555.3</ele>
        <time>2022-02-09T11:22:00Z</time>
      </trkpt>
      <trkpt lat="42.8671" lon="0.21829">
        <ele>2555.8</ele>
        <time>2022-02-09T11:22:01Z</time>
      </trkpt>
      <trkpt lat="42.8671" lon="0.21829">
        <ele>2555.8</ele>
        <time>2022-02-09T11:22:02Z</time>
      </trkpt>
      <trkpt lat="42.86711" lon="0.21829">
        <ele>2555.8</ele>
        <time>2022-02-09T11:22:03Z</time>
      </trkpt>
      <trkpt lat="42.86711" lon="0.21829">
        <ele>2555.8</ele>
        <time>2022-02-09T11:22:04Z</time>
      </trkpt>
      <trkpt lat="42.86712" lon="0.21829">
        <ele>2555.8</ele>
        <time>2022-02-09T11:22:05Z</time>
      </trkpt>
      <trkpt lat="42.86712" lon="0.2183">
        <ele>2555.8</ele>
        <time>2022-02-09T11:22:06Z</time>
      </trkpt>
      <trkpt lat="42.86713" lon="0.2183">
        <ele>2556.4</ele>
        <time>2022-02-09T11:22:07Z</time>
      </trkpt>
      <trkpt lat="42.86714" lon="0.2183">
        <ele>2556.4</ele>
        <time>2022-02-09T11:22:08Z</time>
      </trkpt>
      <trkpt lat="42.86714" lon="0.2183">
        <ele>2556.4</ele>
        <time>2022-02-09T11:22:09Z</time>
      </trkpt>
      <trkpt lat="42.86715" lon="0.2183">
        <ele>2556.4</ele>
        <time>2022-02-09T11:22:10Z</time>
      </trkpt>
      <trkpt lat="42.86716" lon="0.2183">
        <ele>2556.4</ele>
        <time>2022-02-09T11:22:11Z</time>
      </trkpt>
      <trkpt lat="42.86716" lon="0.2183">
        <ele>2556.9</ele>
        <time>2022-02-09T11:22:12Z</time>
      </trkpt>
      <trkpt lat="42.86717" lon="0.2183">
        <ele>2556.9</ele>
        <time>2022-02-09T11:22:13Z</time>
      </trkpt>
      <trkpt lat="42.86717" lon="0.2183">
        <ele>2556.9</ele>
        <time>2022-02-09T11:22:14Z</time>
      </trkpt>
      <trkpt lat="42.86718" lon="0.21831">
        <ele>2556.9</ele>
        <time>2022-02-09T11:22:15Z</time>
      </trkpt>
      <trkpt lat="42.86719" lon="0.21831">
        <ele>2556.9</ele>
        <time>2022-02-09T11:22:16Z</time>
      </trkpt>
      <trkpt lat="42.86719" lon="0.21831">
        <ele>2557.5</ele>
        <time>2022-02-09T11:22:17Z</time>
      </trkpt>
      <trkpt lat="42.8672" lon="0.21831">
        <ele>2557.5</ele>
        <time>2022-02-09T11:22:18Z</time>
      </trkpt>
      <trkpt lat="42.8672" lon="0.21831">
        <ele>2557.5</ele>
        <time>2022-02-09T11:22:19Z</time>
      </trkpt>
      <trkpt lat="42.86721" lon="0.21831">
        <ele>2556.7</ele>
        <time>2022-02-09T11:22:20Z</time>
      </trkpt>
      <trkpt lat="42.86722" lon="0.21831">
        <ele>2556.7</ele>
        <time>2022-02-09T11:22:21Z</time>
      </trkpt>
      <trkpt lat="42.86723" lon="0.21832">
        <ele>2557.2</ele>
        <time>2022-02-09T11:22:22Z</time>
      </trkpt>
      <trkpt lat="42.86723" lon="0.21832">
        <ele>2557.2</ele>
        <time>2022-02-09T11:22:23Z</time>
      </trkpt>
      <trkpt lat="42.86724" lon="0.21832">
        <ele>2557.2</ele>
        <time>2022-02-09T11:22:24Z</time>
      </trkpt>
      <trkpt lat="42.86724" lon="0.21832">
        <ele>2557.2</ele>
        <time>2022-02-09T11:22:25Z</time>
      </trkpt>
      <trkpt lat="42.86725" lon="0.21832">
        <ele>2557.2</ele>
        <time>2022-02-09T11:22:26Z</time>
      </trkpt>
      <trkpt lat="42.86725" lon="0.21833">
        <ele>2557.8</ele>
        <time>2022-02-09T11:22:27Z</time>
      </trkpt>
      <trkpt lat="42.86726" lon="0.21833">
        <ele>2557.8</ele>
        <time>2022-02-09T11:22:28Z</time>
      </trkpt>
      <trkpt lat="42.86726" lon="0.21833">
        <ele>2557.8</ele>
        <time>2022-02-09T11:22:29Z</time>
      </trkpt>
      <trkpt lat="42.86727" lon="0.21833">
        <ele>2557.8</ele>
        <time>2022-02-09T11:22:30Z</time>
      </trkpt>
      <trkpt lat="42.86728" lon="0.21833">
        <ele>2557.8</ele>
        <time>2022-02-09T11:22:31Z</time>
      </trkpt>
      <trkpt lat="42.86728" lon="0.21833">
        <ele>2557.8</ele>
        <time>2022-02-09T11:22:32Z</time>
      </trkpt>
      <trkpt lat="42.86729" lon="0.21834">
        <ele>2558.4</ele>
        <time>2022-02-09T11:22:33Z</time>
      </trkpt>
      <trkpt lat="42.8673" lon="0.21834">
        <ele>2558.4</ele>
        <time>2022-02-09T11:22:34Z</time>
      </trkpt>
      <trkpt lat="42.8673" lon="0.21834">
        <ele>2558.4</ele>
        <time>2022-02-09T11:22:35Z</time>
      </trkpt>
      <trkpt lat="42.86731" lon="0.21834">
        <ele>2558.4</ele>
        <time>2022-02-09T11:22:36Z</time>
      </trkpt>
      <trkpt lat="42.86732" lon="0.21834">
        <ele>2558.9</ele>
        <time>2022-02-09T11:22:37Z</time>
      </trkpt>
      <trkpt lat="42.86732" lon="0.21835">
        <ele>2558.9</ele>
        <time>2022-02-09T11:22:38Z</time>
      </trkpt>
      <trkpt lat="42.86733" lon="0.21835">
        <ele>2558.5</ele>
        <time>2022-02-09T11:22:39Z</time>
      </trkpt>
      <trkpt lat="42.86733" lon="0.21835">
        <ele>2558</ele>
        <time>2022-02-09T11:22:40Z</time>
      </trkpt>
      <trkpt lat="42.86734" lon="0.21835">
        <ele>2557.6</ele>
        <time>2022-02-09T11:22:41Z</time>
      </trkpt>
      <trkpt lat="42.86734" lon="0.21835">
        <ele>2557.2</ele>
        <time>2022-02-09T11:22:42Z</time>
      </trkpt>
      <trkpt lat="42.86735" lon="0.21835">
        <ele>2557.3</ele>
        <time>2022-02-09T11:22:43Z</time>
      </trkpt>
      <trkpt lat="42.86736" lon="0.21836">
        <ele>2556</ele>
        <time>2022-02-09T11:22:44Z</time>
      </trkpt>
      <trkpt lat="42.86737" lon="0.21836">
        <ele>2555.6</ele>
        <time>2022-02-09T11:22:45Z</time>
      </trkpt>
      <trkpt lat="42.86737" lon="0.21836">
        <ele>2555.1</ele>
        <time>2022-02-09T11:22:46Z</time>
      </trkpt>
      <trkpt lat="42.86738" lon="0.21836">
        <ele>2555.2</ele>
        <time>2022-02-09T11:22:47Z</time>
      </trkpt>
      <trkpt lat="42.86739" lon="0.21836">
        <ele>2554.8</ele>
        <time>2022-02-09T11:22:48Z</time>
      </trkpt>
      <trkpt lat="42.86739" lon="0.21837">
        <ele>2554.3</ele>
        <time>2022-02-09T11:22:49Z</time>
      </trkpt>
      <trkpt lat="42.86739" lon="0.21837">
        <ele>2553.9</ele>
        <time>2022-02-09T11:22:50Z</time>
      </trkpt>
      <trkpt lat="42.86739" lon="0.21837">
        <ele>2553.5</ele>
        <time>2022-02-09T11:22:51Z</time>
      </trkpt>
      <trkpt lat="42.86739" lon="0.21837">
        <ele>2553</ele>
        <time>2022-02-09T11:22:52Z</time>
      </trkpt>
      <trkpt lat="42.8674" lon="0.21837">
        <ele>2552.6</ele>
        <time>2022-02-09T11:22:53Z</time>
      </trkpt>
      <trkpt lat="42.86741" lon="0.21837">
        <ele>2552.2</ele>
        <time>2022-02-09T11:22:54Z</time>
      </trkpt>
      <trkpt lat="42.86741" lon="0.21837">
        <ele>2552.3</ele>
        <time>2022-02-09T11:22:55Z</time>
      </trkpt>
      <trkpt lat="42.86742" lon="0.21838">
        <ele>2551.9</ele>
        <time>2022-02-09T11:22:56Z</time>
      </trkpt>
      <trkpt lat="42.86742" lon="0.21838">
        <ele>2551.5</ele>
        <time>2022-02-09T11:22:57Z</time>
      </trkpt>
      <trkpt lat="42.86743" lon="0.21838">
        <ele>2551</ele>
        <time>2022-02-09T11:22:58Z</time>
      </trkpt>
      <trkpt lat="42.86744" lon="0.21838">
        <ele>2550.6</ele>
        <time>2022-02-09T11:22:59Z</time>
      </trkpt>
      <trkpt lat="42.86744" lon="0.21839">
        <ele>2550.8</ele>
        <time>2022-02-09T11:23:00Z</time>
      </trkpt>
      <trkpt lat="42.86745" lon="0.21839">
        <ele>2550.3</ele>
        <time>2022-02-09T11:23:01Z</time>
      </trkpt>
      <trkpt lat="42.86745" lon="0.21839">
        <ele>2549.9</ele>
        <time>2022-02-09T11:23:02Z</time>
      </trkpt>
      <trkpt lat="42.86746" lon="0.2184">
        <ele>2549.5</ele>
        <time>2022-02-09T11:23:03Z</time>
      </trkpt>
      <trkpt lat="42.86746" lon="0.2184">
        <ele>2548.1</ele>
        <time>2022-02-09T11:23:04Z</time>
      </trkpt>
      <trkpt lat="42.86747" lon="0.2184">
        <ele>2547.7</ele>
        <time>2022-02-09T11:23:05Z</time>
      </trkpt>
      <trkpt lat="42.86747" lon="0.21841">
        <ele>2547.3</ele>
        <time>2022-02-09T11:23:06Z</time>
      </trkpt>
      <trkpt lat="42.86748" lon="0.21841">
        <ele>2547.6</ele>
        <time>2022-02-09T11:23:07Z</time>
      </trkpt>
      <trkpt lat="42.86748" lon="0.21841">
        <ele>2547.2</ele>
        <time>2022-02-09T11:23:08Z</time>
      </trkpt>
      <trkpt lat="42.86749" lon="0.21842">
        <ele>2546.7</ele>
        <time>2022-02-09T11:23:09Z</time>
      </trkpt>
      <trkpt lat="42.86749" lon="0.21842">
        <ele>2546.3</ele>
        <time>2022-02-09T11:23:10Z</time>
      </trkpt>
      <trkpt lat="42.8675" lon="0.21842">
        <ele>2545.9</ele>
        <time>2022-02-09T11:23:11Z</time>
      </trkpt>
      <trkpt lat="42.86751" lon="0.21842">
        <ele>2546.3</ele>
        <time>2022-02-09T11:23:12Z</time>
      </trkpt>
      <trkpt lat="42.86751" lon="0.21843">
        <ele>2545.9</ele>
        <time>2022-02-09T11:23:13Z</time>
      </trkpt>
      <trkpt lat="42.86752" lon="0.21843">
        <ele>2545.5</ele>
        <time>2022-02-09T11:23:14Z</time>
      </trkpt>
      <trkpt lat="42.86752" lon="0.21843">
        <ele>2545</ele>
        <time>2022-02-09T11:23:15Z</time>
      </trkpt>
      <trkpt lat="42.86753" lon="0.21843">
        <ele>2544.6</ele>
        <time>2022-02-09T11:23:16Z</time>
      </trkpt>
      <trkpt lat="42.86753" lon="0.21844">
        <ele>2544.2</ele>
        <time>2022-02-09T11:23:17Z</time>
      </trkpt>
      <trkpt lat="42.86754" lon="0.21844">
        <ele>2544.7</ele>
        <time>2022-02-09T11:23:18Z</time>
      </trkpt>
      <trkpt lat="42.86754" lon="0.21844">
        <ele>2543.3</ele>
        <time>2022-02-09T11:23:19Z</time>
      </trkpt>
      <trkpt lat="42.86755" lon="0.21844">
        <ele>2542.9</ele>
        <time>2022-02-09T11:23:20Z</time>
      </trkpt>
      <trkpt lat="42.86755" lon="0.21845">
        <ele>2542.5</ele>
        <time>2022-02-09T11:23:21Z</time>
      </trkpt>
      <trkpt lat="42.86756" lon="0.21845">
        <ele>2542</ele>
        <time>2022-02-09T11:23:22Z</time>
      </trkpt>
      <trkpt lat="42.86756" lon="0.21845">
        <ele>2541.6</ele>
        <time>2022-02-09T11:23:23Z</time>
      </trkpt>
      <trkpt lat="42.86757" lon="0.21845">
        <ele>2542.2</ele>
        <time>2022-02-09T11:23:24Z</time>
      </trkpt>
      <trkpt lat="42.86757" lon="0.21846">
        <ele>2541.8</ele>
        <time>2022-02-09T11:23:25Z</time>
      </trkpt>
      <trkpt lat="42.86758" lon="0.21846">
        <ele>2541.4</ele>
        <time>2022-02-09T11:23:26Z</time>
      </trkpt>
      <trkpt lat="42.86759" lon="0.21846">
        <ele>2540.9</ele>
        <time>2022-02-09T11:23:27Z</time>
      </trkpt>
      <trkpt lat="42.86759" lon="0.21846">
        <ele>2540.5</ele>
        <time>2022-02-09T11:23:28Z</time>
      </trkpt>
      <trkpt lat="42.8676" lon="0.21847">
        <ele>2541.1</ele>
        <time>2022-02-09T11:23:29Z</time>
      </trkpt>
      <trkpt lat="42.86761" lon="0.21847">
        <ele>2540.6</ele>
        <time>2022-02-09T11:23:30Z</time>
      </trkpt>
      <trkpt lat="42.86761" lon="0.21847">
        <ele>2540.2</ele>
        <time>2022-02-09T11:23:31Z</time>
      </trkpt>
      <trkpt lat="42.86762" lon="0.21847">
        <ele>2539.8</ele>
        <time>2022-02-09T11:23:32Z</time>
      </trkpt>
      <trkpt lat="42.86763" lon="0.21848">
        <ele>2539.3</ele>
        <time>2022-02-09T11:23:33Z</time>
      </trkpt>
      <trkpt lat="42.86763" lon="0.21848">
        <ele>2540</ele>
        <time>2022-02-09T11:23:34Z</time>
      </trkpt>
      <trkpt lat="42.86764" lon="0.21848">
        <ele>2538.7</ele>
        <time>2022-02-09T11:23:35Z</time>
      </trkpt>
      <trkpt lat="42.86764" lon="0.21849">
        <ele>2538.2</ele>
        <time>2022-02-09T11:23:36Z</time>
      </trkpt>
      <trkpt lat="42.86765" lon="0.21849">
        <ele>2537.8</ele>
        <time>2022-02-09T11:23:37Z</time>
      </trkpt>
      <trkpt lat="42.86765" lon="0.2185">
        <ele>2537.4</ele>
        <time>2022-02-09T11:23:38Z</time>
      </trkpt>
      <trkpt lat="42.86766" lon="0.2185">
        <ele>2536.9</ele>
        <time>2022-02-09T11:23:39Z</time>
      </trkpt>
      <trkpt lat="42.86767" lon="0.2185">
        <ele>2537.6</ele>
        <time>2022-02-09T11:23:40Z</time>
      </trkpt>
      <trkpt lat="42.86767" lon="0.21851">
        <ele>2537.1</ele>
        <time>2022-02-09T11:23:41Z</time>
      </trkpt>
      <trkpt lat="42.86768" lon="0.21851">
        <ele>2536.7</ele>
        <time>2022-02-09T11:23:42Z</time>
      </trkpt>
      <trkpt lat="42.86769" lon="0.21851">
        <ele>2536.3</ele>
        <time>2022-02-09T11:23:43Z</time>
      </trkpt>
      <trkpt lat="42.86769" lon="0.21852">
        <ele>2535.8</ele>
        <time>2022-02-09T11:23:44Z</time>
      </trkpt>
      <trkpt lat="42.8677" lon="0.21852">
        <ele>2536.6</ele>
        <time>2022-02-09T11:23:45Z</time>
      </trkpt>
      <trkpt lat="42.8677" lon="0.21852">
        <ele>2536.2</ele>
        <time>2022-02-09T11:23:46Z</time>
      </trkpt>
      <trkpt lat="42.86771" lon="0.21853">
        <ele>2534.9</ele>
        <time>2022-02-09T11:23:47Z</time>
      </trkpt>
      <trkpt lat="42.86771" lon="0.21853">
        <ele>2534.5</ele>
        <time>2022-02-09T11:23:48Z</time>
      </trkpt>
      <trkpt lat="42.86772" lon="0.21853">
        <ele>2534.1</ele>
        <time>2022-02-09T11:23:49Z</time>
      </trkpt>
      <trkpt lat="42.86772" lon="0.21854">
        <ele>2533.6</ele>
        <time>2022-02-09T11:23:50Z</time>
      </trkpt>
      <trkpt lat="42.86773" lon="0.21854">
        <ele>2534.6</ele>
        <time>2022-02-09T11:23:51Z</time>
      </trkpt>
      <trkpt lat="42.86774" lon="0.21854">
        <ele>2534.2</ele>
        <time>2022-02-09T11:23:52Z</time>
      </trkpt>
      <trkpt lat="42.86774" lon="0.21855">
        <ele>2533.7</ele>
        <time>2022-02-09T11:23:53Z</time>
      </trkpt>
      <trkpt lat="42.86774" lon="0.21855">
        <ele>2533.3</ele>
        <time>2022-02-09T11:23:54Z</time>
      </trkpt>
      <trkpt lat="42.86775" lon="0.21855">
        <ele>2532.9</ele>
        <time>2022-02-09T11:23:55Z</time>
      </trkpt>
      <trkpt lat="42.86776" lon="0.21856">
        <ele>2532.4</ele>
        <time>2022-02-09T11:23:56Z</time>
      </trkpt>
      <trkpt lat="42.86776" lon="0.21856">
        <ele>2533.6</ele>
        <time>2022-02-09T11:23:57Z</time>
      </trkpt>
      <trkpt lat="42.86777" lon="0.21857">
        <ele>2533.2</ele>
        <time>2022-02-09T11:23:58Z</time>
      </trkpt>
      <trkpt lat="42.86777" lon="0.21857">
        <ele>2531.9</ele>
        <time>2022-02-09T11:23:59Z</time>
      </trkpt>
      <trkpt lat="42.86778" lon="0.21857">
        <ele>2531.5</ele>
        <time>2022-02-09T11:24:00Z</time>
      </trkpt>
      <trkpt lat="42.86779" lon="0.21858">
        <ele>2531.1</ele>
        <time>2022-02-09T11:24:01Z</time>
      </trkpt>
      <trkpt lat="42.86779" lon="0.21858">
        <ele>2532.4</ele>
        <time>2022-02-09T11:24:02Z</time>
      </trkpt>
      <trkpt lat="42.8678" lon="0.21858">
        <ele>2532</ele>
        <time>2022-02-09T11:24:03Z</time>
      </trkpt>
      <trkpt lat="42.8678" lon="0.21859">
        <ele>2531.6</ele>
        <time>2022-02-09T11:24:04Z</time>
      </trkpt>
      <trkpt lat="42.86781" lon="0.21859">
        <ele>2531.1</ele>
        <time>2022-02-09T11:24:05Z</time>
      </trkpt>
      <trkpt lat="42.86781" lon="0.21859">
        <ele>2530.7</ele>
        <time>2022-02-09T11:24:06Z</time>
      </trkpt>
      <trkpt lat="42.86782" lon="0.2186">
        <ele>2532.2</ele>
        <time>2022-02-09T11:24:07Z</time>
      </trkpt>
      <trkpt lat="42.86782" lon="0.2186">
        <ele>2531.7</ele>
        <time>2022-02-09T11:24:08Z</time>
      </trkpt>
      <trkpt lat="42.86782" lon="0.2186">
        <ele>2531.3</ele>
        <time>2022-02-09T11:24:09Z</time>
      </trkpt>
      <trkpt lat="42.86783" lon="0.2186">
        <ele>2530.9</ele>
        <time>2022-02-09T11:24:10Z</time>
      </trkpt>
      <trkpt lat="42.86783" lon="0.2186">
        <ele>2530.4</ele>
        <time>2022-02-09T11:24:11Z</time>
      </trkpt>
      <trkpt lat="42.86783" lon="0.2186">
        <ele>2530</ele>
        <time>2022-02-09T11:24:12Z</time>
      </trkpt>
      <trkpt lat="42.86783" lon="0.2186">
        <ele>2529.6</ele>
        <time>2022-02-09T11:24:13Z</time>
      </trkpt>
      <trkpt lat="42.86783" lon="0.2186">
        <ele>2529.1</ele>
        <time>2022-02-09T11:24:14Z</time>
      </trkpt>
      <trkpt lat="42.86783" lon="0.2186">
        <ele>2528.7</ele>
        <time>2022-02-09T11:24:15Z</time>
      </trkpt>
      <trkpt lat="42.86783" lon="0.2186">
        <ele>2528.3</ele>
        <time>2022-02-09T11:24:16Z</time>
      </trkpt>
      <trkpt lat="42.86783" lon="0.2186">
        <ele>2527.8</ele>
        <time>2022-02-09T11:24:17Z</time>
      </trkpt>
      <trkpt lat="42.86783" lon="0.2186">
        <ele>2527.4</ele>
        <time>2022-02-09T11:24:18Z</time>
      </trkpt>
      <trkpt lat="42.86783" lon="0.2186">
        <ele>2527.4</ele>
        <time>2022-02-09T11:24:19Z</time>
      </trkpt>
      <trkpt lat="42.86783" lon="0.2186">
        <ele>2527.4</ele>
        <time>2022-02-09T11:24:20Z</time>
      </trkpt>
      <trkpt lat="42.86783" lon="0.2186">
        <ele>2527.4</ele>
        <time>2022-02-09T11:24:21Z</time>
      </trkpt>
      <trkpt lat="42.86782" lon="0.21858">
        <ele>2527.4</ele>
        <time>2022-02-09T11:24:22Z</time>
      </trkpt>
      <trkpt lat="42.86782" lon="0.21857">
        <ele>2527.4</ele>
        <time>2022-02-09T11:24:23Z</time>
      </trkpt>
      <trkpt lat="42.86782" lon="0.21856">
        <ele>2526.3</ele>
        <time>2022-02-09T11:24:24Z</time>
      </trkpt>
      <trkpt lat="42.86782" lon="0.21855">
        <ele>2526.3</ele>
        <time>2022-02-09T11:24:25Z</time>
      </trkpt>
      <trkpt lat="42.86781" lon="0.21854">
        <ele>2526.3</ele>
        <time>2022-02-09T11:24:26Z</time>
      </trkpt>
      <trkpt lat="42.86781" lon="0.21853">
        <ele>2526.3</ele>
        <time>2022-02-09T11:24:27Z</time>
      </trkpt>
      <trkpt lat="42.86781" lon="0.21853">
        <ele>2526.3</ele>
        <time>2022-02-09T11:24:28Z</time>
      </trkpt>
      <trkpt lat="42.86781" lon="0.21852">
        <ele>2527.1</ele>
        <time>2022-02-09T11:24:29Z</time>
      </trkpt>
      <trkpt lat="42.8678" lon="0.2185">
        <ele>2527.1</ele>
        <time>2022-02-09T11:24:30Z</time>
      </trkpt>
      <trkpt lat="42.8678" lon="0.21849">
        <ele>2527.1</ele>
        <time>2022-02-09T11:24:31Z</time>
      </trkpt>
      <trkpt lat="42.8678" lon="0.21848">
        <ele>2527.9</ele>
        <time>2022-02-09T11:24:32Z</time>
      </trkpt>
      <trkpt lat="42.86779" lon="0.21847">
        <ele>2527.9</ele>
        <time>2022-02-09T11:24:33Z</time>
      </trkpt>
      <trkpt lat="42.86779" lon="0.21846">
        <ele>2527.9</ele>
        <time>2022-02-09T11:24:34Z</time>
      </trkpt>
      <trkpt lat="42.86779" lon="0.21845">
        <ele>2527.9</ele>
        <time>2022-02-09T11:24:35Z</time>
      </trkpt>
      <trkpt lat="42.86779" lon="0.21844">
        <ele>2527</ele>
        <time>2022-02-09T11:24:36Z</time>
      </trkpt>
      <trkpt lat="42.86778" lon="0.21843">
        <ele>2527</ele>
        <time>2022-02-09T11:24:37Z</time>
      </trkpt>
      <trkpt lat="42.86778" lon="0.21842">
        <ele>2527</ele>
        <time>2022-02-09T11:24:38Z</time>
      </trkpt>
      <trkpt lat="42.86778" lon="0.21841">
        <ele>2527</ele>
        <time>2022-02-09T11:24:39Z</time>
      </trkpt>
      <trkpt lat="42.86777" lon="0.2184">
        <ele>2527</ele>
        <time>2022-02-09T11:24:40Z</time>
      </trkpt>
      <trkpt lat="42.86777" lon="0.21839">
        <ele>2527.9</ele>
        <time>2022-02-09T11:24:41Z</time>
      </trkpt>
      <trkpt lat="42.86777" lon="0.21838">
        <ele>2527.9</ele>
        <time>2022-02-09T11:24:42Z</time>
      </trkpt>
      <trkpt lat="42.86776" lon="0.21837">
        <ele>2527.9</ele>
        <time>2022-02-09T11:24:43Z</time>
      </trkpt>
      <trkpt lat="42.86776" lon="0.21836">
        <ele>2527.9</ele>
        <time>2022-02-09T11:24:44Z</time>
      </trkpt>
      <trkpt lat="42.86776" lon="0.21836">
        <ele>2527.9</ele>
        <time>2022-02-09T11:24:45Z</time>
      </trkpt>
      <trkpt lat="42.86776" lon="0.21835">
        <ele>2528.9</ele>
        <time>2022-02-09T11:24:46Z</time>
      </trkpt>
      <trkpt lat="42.86776" lon="0.21834">
        <ele>2528.9</ele>
        <time>2022-02-09T11:24:47Z</time>
      </trkpt>
      <trkpt lat="42.86775" lon="0.21833">
        <ele>2527.3</ele>
        <time>2022-02-09T11:24:48Z</time>
      </trkpt>
      <trkpt lat="42.86775" lon="0.21832">
        <ele>2527.3</ele>
        <time>2022-02-09T11:24:49Z</time>
      </trkpt>
      <trkpt lat="42.86775" lon="0.21831">
        <ele>2527.3</ele>
        <time>2022-02-09T11:24:50Z</time>
      </trkpt>
      <trkpt lat="42.86775" lon="0.2183">
        <ele>2528.2</ele>
        <time>2022-02-09T11:24:51Z</time>
      </trkpt>
      <trkpt lat="42.86775" lon="0.2183">
        <ele>2528.2</ele>
        <time>2022-02-09T11:24:52Z</time>
      </trkpt>
      <trkpt lat="42.86774" lon="0.21829">
        <ele>2528.2</ele>
        <time>2022-02-09T11:24:53Z</time>
      </trkpt>
      <trkpt lat="42.86774" lon="0.21828">
        <ele>2528.2</ele>
        <time>2022-02-09T11:24:54Z</time>
      </trkpt>
      <trkpt lat="42.86774" lon="0.21827">
        <ele>2528.2</ele>
        <time>2022-02-09T11:24:55Z</time>
      </trkpt>
      <trkpt lat="42.86774" lon="0.21826">
        <ele>2529.1</ele>
        <time>2022-02-09T11:24:56Z</time>
      </trkpt>
      <trkpt lat="42.86774" lon="0.21825">
        <ele>2529.1</ele>
        <time>2022-02-09T11:24:57Z</time>
      </trkpt>
      <trkpt lat="42.86773" lon="0.21824">
        <ele>2529.1</ele>
        <time>2022-02-09T11:24:58Z</time>
      </trkpt>
      <trkpt lat="42.86773" lon="0.21823">
        <ele>2529.1</ele>
        <time>2022-02-09T11:24:59Z</time>
      </trkpt>
      <trkpt lat="42.86773" lon="0.21822">
        <ele>2530</ele>
        <time>2022-02-09T11:25:00Z</time>
      </trkpt>
      <trkpt lat="42.86772" lon="0.21822">
        <ele>2530</ele>
        <time>2022-02-09T11:25:01Z</time>
      </trkpt>
      <trkpt lat="42.86772" lon="0.21821">
        <ele>2528.7</ele>
        <time>2022-02-09T11:25:02Z</time>
      </trkpt>
      <trkpt lat="42.86772" lon="0.2182">
        <ele>2528.7</ele>
        <time>2022-02-09T11:25:03Z</time>
      </trkpt>
      <trkpt lat="42.86772" lon="0.21819">
        <ele>2528.7</ele>
        <time>2022-02-09T11:25:04Z</time>
      </trkpt>
      <trkpt lat="42.86772" lon="0.21818">
        <ele>2529.5</ele>
        <time>2022-02-09T11:25:05Z</time>
      </trkpt>
      <trkpt lat="42.86771" lon="0.21817">
        <ele>2529.5</ele>
        <time>2022-02-09T11:25:06Z</time>
      </trkpt>
      <trkpt lat="42.86771" lon="0.21816">
        <ele>2529.5</ele>
        <time>2022-02-09T11:25:07Z</time>
      </trkpt>
      <trkpt lat="42.86771" lon="0.21816">
        <ele>2529.5</ele>
        <time>2022-02-09T11:25:08Z</time>
      </trkpt>
      <trkpt lat="42.86771" lon="0.21815">
        <ele>2529.5</ele>
        <time>2022-02-09T11:25:09Z</time>
      </trkpt>
      <trkpt lat="42.8677" lon="0.21814">
        <ele>2530.4</ele>
        <time>2022-02-09T11:25:10Z</time>
      </trkpt>
      <trkpt lat="42.8677" lon="0.21813">
        <ele>2530.4</ele>
        <time>2022-02-09T11:25:11Z</time>
      </trkpt>
      <trkpt lat="42.8677" lon="0.21812">
        <ele>2530.4</ele>
        <time>2022-02-09T11:25:12Z</time>
      </trkpt>
      <trkpt lat="42.86769" lon="0.21811">
        <ele>2530.4</ele>
        <time>2022-02-09T11:25:13Z</time>
      </trkpt>
      <trkpt lat="42.86769" lon="0.2181">
        <ele>2529.3</ele>
        <time>2022-02-09T11:25:14Z</time>
      </trkpt>
      <trkpt lat="42.86769" lon="0.2181">
        <ele>2530.2</ele>
        <time>2022-02-09T11:25:15Z</time>
      </trkpt>
      <trkpt lat="42.86768" lon="0.21809">
        <ele>2530.2</ele>
        <time>2022-02-09T11:25:16Z</time>
      </trkpt>
      <trkpt lat="42.86768" lon="0.21808">
        <ele>2530.2</ele>
        <time>2022-02-09T11:25:17Z</time>
      </trkpt>
      <trkpt lat="42.86767" lon="0.21807">
        <ele>2530.2</ele>
        <time>2022-02-09T11:25:18Z</time>
      </trkpt>
      <trkpt lat="42.86767" lon="0.21807">
        <ele>2530.2</ele>
        <time>2022-02-09T11:25:19Z</time>
      </trkpt>
      <trkpt lat="42.86767" lon="0.21806">
        <ele>2530.2</ele>
        <time>2022-02-09T11:25:20Z</time>
      </trkpt>
      <trkpt lat="42.86767" lon="0.21805">
        <ele>2531.1</ele>
        <time>2022-02-09T11:25:21Z</time>
      </trkpt>
      <trkpt lat="42.86766" lon="0.21805">
        <ele>2530.1</ele>
        <time>2022-02-09T11:25:22Z</time>
      </trkpt>
      <trkpt lat="42.86766" lon="0.21804">
        <ele>2530.1</ele>
        <time>2022-02-09T11:25:23Z</time>
      </trkpt>
      <trkpt lat="42.86766" lon="0.21803">
        <ele>2530.1</ele>
        <time>2022-02-09T11:25:24Z</time>
      </trkpt>
      <trkpt lat="42.86765" lon="0.21802">
        <ele>2530.1</ele>
        <time>2022-02-09T11:25:25Z</time>
      </trkpt>
      <trkpt lat="42.86765" lon="0.21802">
        <ele>2530.1</ele>
        <time>2022-02-09T11:25:26Z</time>
      </trkpt>
      <trkpt lat="42.86764" lon="0.21801">
        <ele>2531</ele>
        <time>2022-02-09T11:25:27Z</time>
      </trkpt>
      <trkpt lat="42.86764" lon="0.218">
        <ele>2531</ele>
        <time>2022-02-09T11:25:28Z</time>
      </trkpt>
      <trkpt lat="42.86764" lon="0.21799">
        <ele>2531</ele>
        <time>2022-02-09T11:25:29Z</time>
      </trkpt>
      <trkpt lat="42.86764" lon="0.21798">
        <ele>2531</ele>
        <time>2022-02-09T11:25:30Z</time>
      </trkpt>
      <trkpt lat="42.86763" lon="0.21797">
        <ele>2531</ele>
        <time>2022-02-09T11:25:31Z</time>
      </trkpt>
      <trkpt lat="42.86763" lon="0.21796">
        <ele>2531.9</ele>
        <time>2022-02-09T11:25:32Z</time>
      </trkpt>
      <trkpt lat="42.86763" lon="0.21795">
        <ele>2531.9</ele>
        <time>2022-02-09T11:25:33Z</time>
      </trkpt>
      <trkpt lat="42.86763" lon="0.21794">
        <ele>2531.9</ele>
        <time>2022-02-09T11:25:34Z</time>
      </trkpt>
      <trkpt lat="42.86763" lon="0.21793">
        <ele>2531</ele>
        <time>2022-02-09T11:25:35Z</time>
      </trkpt>
      <trkpt lat="42.86763" lon="0.21793">
        <ele>2531</ele>
        <time>2022-02-09T11:25:36Z</time>
      </trkpt>
      <trkpt lat="42.86762" lon="0.21792">
        <ele>2531.9</ele>
        <time>2022-02-09T11:25:37Z</time>
      </trkpt>
      <trkpt lat="42.86762" lon="0.21791">
        <ele>2531.9</ele>
        <time>2022-02-09T11:25:38Z</time>
      </trkpt>
      <trkpt lat="42.86762" lon="0.2179">
        <ele>2531.9</ele>
        <time>2022-02-09T11:25:39Z</time>
      </trkpt>
      <trkpt lat="42.86761" lon="0.21789">
        <ele>2531.9</ele>
        <time>2022-02-09T11:25:40Z</time>
      </trkpt>
      <trkpt lat="42.86761" lon="0.21789">
        <ele>2531.9</ele>
        <time>2022-02-09T11:25:41Z</time>
      </trkpt>
      <trkpt lat="42.8676" lon="0.21788">
        <ele>2532.8</ele>
        <time>2022-02-09T11:25:42Z</time>
      </trkpt>
      <trkpt lat="42.8676" lon="0.21787">
        <ele>2532.8</ele>
        <time>2022-02-09T11:25:43Z</time>
      </trkpt>
      <trkpt lat="42.8676" lon="0.21786">
        <ele>2532.8</ele>
        <time>2022-02-09T11:25:44Z</time>
      </trkpt>
      <trkpt lat="42.86759" lon="0.21785">
        <ele>2531.8</ele>
        <time>2022-02-09T11:25:45Z</time>
      </trkpt>
      <trkpt lat="42.86759" lon="0.21784">
        <ele>2531.8</ele>
        <time>2022-02-09T11:25:46Z</time>
      </trkpt>
      <trkpt lat="42.86759" lon="0.21783">
        <ele>2532.6</ele>
        <time>2022-02-09T11:25:47Z</time>
      </trkpt>
      <trkpt lat="42.86759" lon="0.21782">
        <ele>2532.6</ele>
        <time>2022-02-09T11:25:48Z</time>
      </trkpt>
      <trkpt lat="42.86758" lon="0.21781">
        <ele>2532.6</ele>
        <time>2022-02-09T11:25:49Z</time>
      </trkpt>
      <trkpt lat="42.86758" lon="0.2178">
        <ele>2532.6</ele>
        <time>2022-02-09T11:25:50Z</time>
      </trkpt>
      <trkpt lat="42.86758" lon="0.21779">
        <ele>2533.4</ele>
        <time>2022-02-09T11:25:51Z</time>
      </trkpt>
      <trkpt lat="42.86757" lon="0.21778">
        <ele>2533.4</ele>
        <time>2022-02-09T11:25:52Z</time>
      </trkpt>
      <trkpt lat="42.86757" lon="0.21778">
        <ele>2533.4</ele>
        <time>2022-02-09T11:25:53Z</time>
      </trkpt>
      <trkpt lat="42.86757" lon="0.21777">
        <ele>2532.4</ele>
        <time>2022-02-09T11:25:54Z</time>
      </trkpt>
      <trkpt lat="42.86757" lon="0.21776">
        <ele>2532.4</ele>
        <time>2022-02-09T11:25:55Z</time>
      </trkpt>
      <trkpt lat="42.86756" lon="0.21775">
        <ele>2533.1</ele>
        <time>2022-02-09T11:25:56Z</time>
      </trkpt>
      <trkpt lat="42.86756" lon="0.21774">
        <ele>2533.1</ele>
        <time>2022-02-09T11:25:57Z</time>
      </trkpt>
      <trkpt lat="42.86756" lon="0.21773">
        <ele>2533.1</ele>
        <time>2022-02-09T11:25:58Z</time>
      </trkpt>
      <trkpt lat="42.86756" lon="0.21772">
        <ele>2533.1</ele>
        <time>2022-02-09T11:25:59Z</time>
      </trkpt>
      <trkpt lat="42.86755" lon="0.21771">
        <ele>2533.1</ele>
        <time>2022-02-09T11:26:00Z</time>
      </trkpt>
      <trkpt lat="42.86755" lon="0.21771">
        <ele>2533.8</ele>
        <time>2022-02-09T11:26:01Z</time>
      </trkpt>
      <trkpt lat="42.86755" lon="0.2177">
        <ele>2533.8</ele>
        <time>2022-02-09T11:26:02Z</time>
      </trkpt>
      <trkpt lat="42.86755" lon="0.21769">
        <ele>2533.8</ele>
        <time>2022-02-09T11:26:03Z</time>
      </trkpt>
      <trkpt lat="42.86755" lon="0.21768">
        <ele>2533.8</ele>
        <time>2022-02-09T11:26:04Z</time>
      </trkpt>
      <trkpt lat="42.86755" lon="0.21767">
        <ele>2533.8</ele>
        <time>2022-02-09T11:26:05Z</time>
      </trkpt>
      <trkpt lat="42.86755" lon="0.21767">
        <ele>2533.8</ele>
        <time>2022-02-09T11:26:06Z</time>
      </trkpt>
      <trkpt lat="42.86755" lon="0.21766">
        <ele>2534.5</ele>
        <time>2022-02-09T11:26:07Z</time>
      </trkpt>
      <trkpt lat="42.86755" lon="0.21765">
        <ele>2534.5</ele>
        <time>2022-02-09T11:26:08Z</time>
      </trkpt>
      <trkpt lat="42.86755" lon="0.21764">
        <ele>2534.5</ele>
        <time>2022-02-09T11:26:09Z</time>
      </trkpt>
      <trkpt lat="42.86754" lon="0.21763">
        <ele>2534.5</ele>
        <time>2022-02-09T11:26:10Z</time>
      </trkpt>
      <trkpt lat="42.86754" lon="0.21763">
        <ele>2534.5</ele>
        <time>2022-02-09T11:26:11Z</time>
      </trkpt>
      <trkpt lat="42.86754" lon="0.21762">
        <ele>2535.1</ele>
        <time>2022-02-09T11:26:12Z</time>
      </trkpt>
      <trkpt lat="42.86754" lon="0.21761">
        <ele>2535.1</ele>
        <time>2022-02-09T11:26:13Z</time>
      </trkpt>
      <trkpt lat="42.86754" lon="0.21761">
        <ele>2535.1</ele>
        <time>2022-02-09T11:26:14Z</time>
      </trkpt>
      <trkpt lat="42.86754" lon="0.2176">
        <ele>2534.1</ele>
        <time>2022-02-09T11:26:15Z</time>
      </trkpt>
      <trkpt lat="42.86754" lon="0.21759">
        <ele>2534.1</ele>
        <time>2022-02-09T11:26:16Z</time>
      </trkpt>
      <trkpt lat="42.86754" lon="0.21758">
        <ele>2534.1</ele>
        <time>2022-02-09T11:26:17Z</time>
      </trkpt>
      <trkpt lat="42.86753" lon="0.21758">
        <ele>2534.7</ele>
        <time>2022-02-09T11:26:18Z</time>
      </trkpt>
      <trkpt lat="42.86753" lon="0.21757">
        <ele>2534.7</ele>
        <time>2022-02-09T11:26:19Z</time>
      </trkpt>
      <trkpt lat="42.86753" lon="0.21756">
        <ele>2534.7</ele>
        <time>2022-02-09T11:26:20Z</time>
      </trkpt>
      <trkpt lat="42.86753" lon="0.21755">
        <ele>2534.7</ele>
        <time>2022-02-09T11:26:21Z</time>
      </trkpt>
      <trkpt lat="42.86753" lon="0.21755">
        <ele>2534.7</ele>
        <time>2022-02-09T11:26:22Z</time>
      </trkpt>
      <trkpt lat="42.86753" lon="0.21754">
        <ele>2535.4</ele>
        <time>2022-02-09T11:26:23Z</time>
      </trkpt>
      <trkpt lat="42.86753" lon="0.21753">
        <ele>2535.4</ele>
        <time>2022-02-09T11:26:24Z</time>
      </trkpt>
      <trkpt lat="42.86753" lon="0.21752">
        <ele>2535.4</ele>
        <time>2022-02-09T11:26:25Z</time>
      </trkpt>
      <trkpt lat="42.86753" lon="0.21751">
        <ele>2535.4</ele>
        <time>2022-02-09T11:26:26Z</time>
      </trkpt>
      <trkpt lat="42.86753" lon="0.2175">
        <ele>2535.4</ele>
        <time>2022-02-09T11:26:27Z</time>
      </trkpt>
      <trkpt lat="42.86753" lon="0.2175">
        <ele>2535.4</ele>
        <time>2022-02-09T11:26:28Z</time>
      </trkpt>
      <trkpt lat="42.86753" lon="0.21749">
        <ele>2536.1</ele>
        <time>2022-02-09T11:26:29Z</time>
      </trkpt>
      <trkpt lat="42.86754" lon="0.21748">
        <ele>2536.1</ele>
        <time>2022-02-09T11:26:30Z</time>
      </trkpt>
      <trkpt lat="42.86754" lon="0.21747">
        <ele>2536.1</ele>
        <time>2022-02-09T11:26:31Z</time>
      </trkpt>
      <trkpt lat="42.86754" lon="0.21746">
        <ele>2537.2</ele>
        <time>2022-02-09T11:26:32Z</time>
      </trkpt>
      <trkpt lat="42.86754" lon="0.21746">
        <ele>2537.2</ele>
        <time>2022-02-09T11:26:33Z</time>
      </trkpt>
      <trkpt lat="42.86754" lon="0.21745">
        <ele>2537.8</ele>
        <time>2022-02-09T11:26:34Z</time>
      </trkpt>
      <trkpt lat="42.86754" lon="0.21744">
        <ele>2537.8</ele>
        <time>2022-02-09T11:26:35Z</time>
      </trkpt>
      <trkpt lat="42.86754" lon="0.21743">
        <ele>2537.8</ele>
        <time>2022-02-09T11:26:36Z</time>
      </trkpt>
      <trkpt lat="42.86754" lon="0.21743">
        <ele>2537.8</ele>
        <time>2022-02-09T11:26:37Z</time>
      </trkpt>
      <trkpt lat="42.86755" lon="0.21742">
        <ele>2537.8</ele>
        <time>2022-02-09T11:26:38Z</time>
      </trkpt>
      <trkpt lat="42.86755" lon="0.21741">
        <ele>2537.8</ele>
        <time>2022-02-09T11:26:39Z</time>
      </trkpt>
      <trkpt lat="42.86755" lon="0.2174">
        <ele>2538.4</ele>
        <time>2022-02-09T11:26:40Z</time>
      </trkpt>
      <trkpt lat="42.86755" lon="0.2174">
        <ele>2538.4</ele>
        <time>2022-02-09T11:26:41Z</time>
      </trkpt>
      <trkpt lat="42.86756" lon="0.21739">
        <ele>2538.4</ele>
        <time>2022-02-09T11:26:42Z</time>
      </trkpt>
      <trkpt lat="42.86756" lon="0.21738">
        <ele>2538.4</ele>
        <time>2022-02-09T11:26:43Z</time>
      </trkpt>
      <trkpt lat="42.86756" lon="0.21737">
        <ele>2538.4</ele>
        <time>2022-02-09T11:26:44Z</time>
      </trkpt>
      <trkpt lat="42.86757" lon="0.21737">
        <ele>2539</ele>
        <time>2022-02-09T11:26:45Z</time>
      </trkpt>
      <trkpt lat="42.86757" lon="0.21736">
        <ele>2540.1</ele>
        <time>2022-02-09T11:26:46Z</time>
      </trkpt>
      <trkpt lat="42.86757" lon="0.21735">
        <ele>2540.1</ele>
        <time>2022-02-09T11:26:47Z</time>
      </trkpt>
      <trkpt lat="42.86757" lon="0.21734">
        <ele>2540.1</ele>
        <time>2022-02-09T11:26:48Z</time>
      </trkpt>
      <trkpt lat="42.86757" lon="0.21733">
        <ele>2540.1</ele>
        <time>2022-02-09T11:26:49Z</time>
      </trkpt>
      <trkpt lat="42.86758" lon="0.21733">
        <ele>2540.1</ele>
        <time>2022-02-09T11:26:50Z</time>
      </trkpt>
      <trkpt lat="42.86758" lon="0.21732">
        <ele>2540.6</ele>
        <time>2022-02-09T11:26:51Z</time>
      </trkpt>
      <trkpt lat="42.86758" lon="0.21732">
        <ele>2540.6</ele>
        <time>2022-02-09T11:26:52Z</time>
      </trkpt>
      <trkpt lat="42.86758" lon="0.21731">
        <ele>2540.6</ele>
        <time>2022-02-09T11:26:53Z</time>
      </trkpt>
      <trkpt lat="42.86758" lon="0.2173">
        <ele>2540.6</ele>
        <time>2022-02-09T11:26:54Z</time>
      </trkpt>
      <trkpt lat="42.86758" lon="0.21729">
        <ele>2540.6</ele>
        <time>2022-02-09T11:26:55Z</time>
      </trkpt>
      <trkpt lat="42.86758" lon="0.21729">
        <ele>2540.6</ele>
        <time>2022-02-09T11:26:56Z</time>
      </trkpt>
      <trkpt lat="42.86759" lon="0.21728">
        <ele>2540.6</ele>
        <time>2022-02-09T11:26:57Z</time>
      </trkpt>
      <trkpt lat="42.86759" lon="0.21727">
        <ele>2541</ele>
        <time>2022-02-09T11:26:58Z</time>
      </trkpt>
      <trkpt lat="42.86759" lon="0.21727">
        <ele>2541</ele>
        <time>2022-02-09T11:26:59Z</time>
      </trkpt>
      <trkpt lat="42.86759" lon="0.21726">
        <ele>2541</ele>
        <time>2022-02-09T11:27:00Z</time>
      </trkpt>
      <trkpt lat="42.8676" lon="0.21725">
        <ele>2541</ele>
        <time>2022-02-09T11:27:01Z</time>
      </trkpt>
      <trkpt lat="42.8676" lon="0.21725">
        <ele>2542.1</ele>
        <time>2022-02-09T11:27:02Z</time>
      </trkpt>
      <trkpt lat="42.8676" lon="0.21724">
        <ele>2542.5</ele>
        <time>2022-02-09T11:27:03Z</time>
      </trkpt>
      <trkpt lat="42.86761" lon="0.21723">
        <ele>2542.5</ele>
        <time>2022-02-09T11:27:04Z</time>
      </trkpt>
      <trkpt lat="42.86761" lon="0.21722">
        <ele>2542.5</ele>
        <time>2022-02-09T11:27:05Z</time>
      </trkpt>
      <trkpt lat="42.86761" lon="0.21721">
        <ele>2542.5</ele>
        <time>2022-02-09T11:27:06Z</time>
      </trkpt>
      <trkpt lat="42.86762" lon="0.21721">
        <ele>2542.5</ele>
        <time>2022-02-09T11:27:07Z</time>
      </trkpt>
      <trkpt lat="42.86762" lon="0.2172">
        <ele>2542.5</ele>
        <time>2022-02-09T11:27:08Z</time>
      </trkpt>
      <trkpt lat="42.86762" lon="0.21719">
        <ele>2542.9</ele>
        <time>2022-02-09T11:27:09Z</time>
      </trkpt>
      <trkpt lat="42.86763" lon="0.21718">
        <ele>2542.9</ele>
        <time>2022-02-09T11:27:10Z</time>
      </trkpt>
      <trkpt lat="42.86763" lon="0.21717">
        <ele>2543.9</ele>
        <time>2022-02-09T11:27:11Z</time>
      </trkpt>
      <trkpt lat="42.86764" lon="0.21717">
        <ele>2543.9</ele>
        <time>2022-02-09T11:27:12Z</time>
      </trkpt>
      <trkpt lat="42.86764" lon="0.21716">
        <ele>2543.9</ele>
        <time>2022-02-09T11:27:13Z</time>
      </trkpt>
      <trkpt lat="42.86764" lon="0.21715">
        <ele>2544.3</ele>
        <time>2022-02-09T11:27:14Z</time>
      </trkpt>
      <trkpt lat="42.86764" lon="0.21714">
        <ele>2544.3</ele>
        <time>2022-02-09T11:27:15Z</time>
      </trkpt>
      <trkpt lat="42.86765" lon="0.21714">
        <ele>2544.3</ele>
        <time>2022-02-09T11:27:16Z</time>
      </trkpt>
      <trkpt lat="42.86765" lon="0.21714">
        <ele>2544.3</ele>
        <time>2022-02-09T11:27:17Z</time>
      </trkpt>
      <trkpt lat="42.86765" lon="0.21714">
        <ele>2544.3</ele>
        <time>2022-02-09T11:27:18Z</time>
      </trkpt>
      <trkpt lat="42.86765" lon="0.21714">
        <ele>2544.3</ele>
        <time>2022-02-09T11:27:19Z</time>
      </trkpt>
      <trkpt lat="42.86765" lon="0.21714">
        <ele>2544.3</ele>
        <time>2022-02-09T11:27:20Z</time>
      </trkpt>
      <trkpt lat="42.86765" lon="0.21714">
        <ele>2544.3</ele>
        <time>2022-02-09T11:27:21Z</time>
      </trkpt>
      <trkpt lat="42.86765" lon="0.21714">
        <ele>2544.3</ele>
        <time>2022-02-09T11:27:22Z</time>
      </trkpt>
      <trkpt lat="42.86765" lon="0.21714">
        <ele>2544.3</ele>
        <time>2022-02-09T11:27:23Z</time>
      </trkpt>
      <trkpt lat="42.86765" lon="0.21714">
        <ele>2544.3</ele>
        <time>2022-02-09T11:27:24Z</time>
      </trkpt>
      <trkpt lat="42.86765" lon="0.21714">
        <ele>2544.3</ele>
        <time>2022-02-09T11:27:25Z</time>
      </trkpt>
      <trkpt lat="42.86765" lon="0.21714">
        <ele>2544.3</ele>
        <time>2022-02-09T11:27:26Z</time>
      </trkpt>
      <trkpt lat="42.86765" lon="0.21714">
        <ele>2544.3</ele>
        <time>2022-02-09T11:27:27Z</time>
      </trkpt>
      <trkpt lat="42.86765" lon="0.21714">
        <ele>2544.3</ele>
        <time>2022-02-09T11:27:28Z</time>
      </trkpt>
      <trkpt lat="42.86765" lon="0.21714">
        <ele>2544.3</ele>
        <time>2022-02-09T11:27:29Z</time>
      </trkpt>
      <trkpt lat="42.86765" lon="0.21714">
        <ele>2544.3</ele>
        <time>2022-02-09T11:27:30Z</time>
      </trkpt>
      <trkpt lat="42.86765" lon="0.21714">
        <ele>2544.3</ele>
        <time>2022-02-09T11:27:31Z</time>
      </trkpt>
      <trkpt lat="42.86765" lon="0.21714">
        <ele>2544.3</ele>
        <time>2022-02-09T11:27:32Z</time>
      </trkpt>
      <trkpt lat="42.86765" lon="0.21714">
        <ele>2544.3</ele>
        <time>2022-02-09T11:27:33Z</time>
      </trkpt>
      <trkpt lat="42.86765" lon="0.21714">
        <ele>2544.3</ele>
        <time>2022-02-09T11:27:34Z</time>
      </trkpt>
      <trkpt lat="42.86765" lon="0.21714">
        <ele>2544.3</ele>
        <time>2022-02-09T11:27:35Z</time>
      </trkpt>
      <trkpt lat="42.86765" lon="0.21714">
        <ele>2544.3</ele>
        <time>2022-02-09T11:27:36Z</time>
      </trkpt>
      <trkpt lat="42.86765" lon="0.21714">
        <ele>2544.3</ele>
        <time>2022-02-09T11:27:37Z</time>
      </trkpt>
      <trkpt lat="42.86765" lon="0.21714">
        <ele>2544.3</ele>
        <time>2022-02-09T11:27:38Z</time>
      </trkpt>
      <trkpt lat="42.86765" lon="0.21714">
        <ele>2544.3</ele>
        <time>2022-02-09T11:27:39Z</time>
      </trkpt>
      <trkpt lat="42.86765" lon="0.21714">
        <ele>2544.3</ele>
        <time>2022-02-09T11:27:40Z</time>
      </trkpt>
      <trkpt lat="42.86765" lon="0.21714">
        <ele>2544.3</ele>
        <time>2022-02-09T11:27:41Z</time>
      </trkpt>
      <trkpt lat="42.86765" lon="0.21714">
        <ele>2544.3</ele>
        <time>2022-02-09T11:27:42Z</time>
      </trkpt>
      <trkpt lat="42.86765" lon="0.21714">
        <ele>2544.3</ele>
        <time>2022-02-09T11:27:43Z</time>
      </trkpt>
      <trkpt lat="42.86765" lon="0.21714">
        <ele>2544.3</ele>
        <time>2022-02-09T11:27:44Z</time>
      </trkpt>
      <trkpt lat="42.86765" lon="0.21714">
        <ele>2544.3</ele>
        <time>2022-02-09T11:27:45Z</time>
      </trkpt>
      <trkpt lat="42.86765" lon="0.21714">
        <ele>2544.3</ele>
        <time>2022-02-09T11:27:46Z</time>
      </trkpt>
      <trkpt lat="42.86765" lon="0.21714">
        <ele>2544.3</ele>
        <time>2022-02-09T11:27:47Z</time>
      </trkpt>
      <trkpt lat="42.86765" lon="0.21714">
        <ele>2544.3</ele>
        <time>2022-02-09T11:27:48Z</time>
      </trkpt>
      <trkpt lat="42.86765" lon="0.21714">
        <ele>2544.3</ele>
        <time>2022-02-09T11:27:49Z</time>
      </trkpt>
      <trkpt lat="42.86765" lon="0.21714">
        <ele>2544.3</ele>
        <time>2022-02-09T11:27:50Z</time>
      </trkpt>
      <trkpt lat="42.86765" lon="0.21714">
        <ele>2544.3</ele>
        <time>2022-02-09T11:27:51Z</time>
      </trkpt>
      <trkpt lat="42.86765" lon="0.21714">
        <ele>2544.3</ele>
        <time>2022-02-09T11:27:52Z</time>
      </trkpt>
      <trkpt lat="42.86765" lon="0.21714">
        <ele>2544.3</ele>
        <time>2022-02-09T11:27:53Z</time>
      </trkpt>
      <trkpt lat="42.86765" lon="0.21714">
        <ele>2544.3</ele>
        <time>2022-02-09T11:27:54Z</time>
      </trkpt>
      <trkpt lat="42.86765" lon="0.21714">
        <ele>2544.3</ele>
        <time>2022-02-09T11:27:55Z</time>
      </trkpt>
      <trkpt lat="42.86765" lon="0.21714">
        <ele>2544.3</ele>
        <time>2022-02-09T11:27:56Z</time>
      </trkpt>
      <trkpt lat="42.86765" lon="0.21714">
        <ele>2544.3</ele>
        <time>2022-02-09T11:27:57Z</time>
      </trkpt>
      <trkpt lat="42.86765" lon="0.21714">
        <ele>2544.3</ele>
        <time>2022-02-09T11:27:58Z</time>
      </trkpt>
      <trkpt lat="42.86765" lon="0.21714">
        <ele>2544.3</ele>
        <time>2022-02-09T11:27:59Z</time>
      </trkpt>
      <trkpt lat="42.86765" lon="0.21714">
        <ele>2544.3</ele>
        <time>2022-02-09T11:28:00Z</time>
      </trkpt>
      <trkpt lat="42.86765" lon="0.21714">
        <ele>2544.3</ele>
        <time>2022-02-09T11:28:01Z</time>
      </trkpt>
      <trkpt lat="42.86765" lon="0.21714">
        <ele>2544.3</ele>
        <time>2022-02-09T11:28:02Z</time>
      </trkpt>
      <trkpt lat="42.86765" lon="0.21714">
        <ele>2544.3</ele>
        <time>2022-02-09T11:28:03Z</time>
      </trkpt>
      <trkpt lat="42.86765" lon="0.21714">
        <ele>2544.3</ele>
        <time>2022-02-09T11:28:04Z</time>
      </trkpt>
      <trkpt lat="42.86765" lon="0.21714">
        <ele>2544.3</ele>
        <time>2022-02-09T11:28:05Z</time>
      </trkpt>
      <trkpt lat="42.86765" lon="0.21714">
        <ele>2544.3</ele>
        <time>2022-02-09T11:28:06Z</time>
      </trkpt>
      <trkpt lat="42.86765" lon="0.21714">
        <ele>2544.3</ele>
        <time>2022-02-09T11:28:07Z</time>
      </trkpt>
      <trkpt lat="42.86765" lon="0.21714">
        <ele>2544.3</ele>
        <time>2022-02-09T11:28:08Z</time>
      </trkpt>
      <trkpt lat="42.86765" lon="0.21714">
        <ele>2544.3</ele>
        <time>2022-02-09T11:28:09Z</time>
      </trkpt>
      <trkpt lat="42.86765" lon="0.21714">
        <ele>2544.3</ele>
        <time>2022-02-09T11:28:10Z</time>
      </trkpt>
      <trkpt lat="42.86765" lon="0.21714">
        <ele>2544.3</ele>
        <time>2022-02-09T11:28:11Z</time>
      </trkpt>
      <trkpt lat="42.86765" lon="0.21714">
        <ele>2544.3</ele>
        <time>2022-02-09T11:28:12Z</time>
      </trkpt>
      <trkpt lat="42.86765" lon="0.21714">
        <ele>2544.3</ele>
        <time>2022-02-09T11:28:13Z</time>
      </trkpt>
      <trkpt lat="42.86765" lon="0.21714">
        <ele>2544.3</ele>
        <time>2022-02-09T11:28:14Z</time>
      </trkpt>
      <trkpt lat="42.86765" lon="0.21714">
        <ele>2544.3</ele>
        <time>2022-02-09T11:28:15Z</time>
      </trkpt>
      <trkpt lat="42.86765" lon="0.21714">
        <ele>2544.3</ele>
        <time>2022-02-09T11:28:16Z</time>
      </trkpt>
      <trkpt lat="42.86765" lon="0.21714">
        <ele>2544.3</ele>
        <time>2022-02-09T11:28:17Z</time>
      </trkpt>
      <trkpt lat="42.86765" lon="0.21714">
        <ele>2544.3</ele>
        <time>2022-02-09T11:28:18Z</time>
      </trkpt>
      <trkpt lat="42.86765" lon="0.21714">
        <ele>2544.3</ele>
        <time>2022-02-09T11:28:19Z</time>
      </trkpt>
      <trkpt lat="42.86765" lon="0.21714">
        <ele>2544.3</ele>
        <time>2022-02-09T11:28:20Z</time>
      </trkpt>
      <trkpt lat="42.86765" lon="0.21714">
        <ele>2544.3</ele>
        <time>2022-02-09T11:28:21Z</time>
      </trkpt>
      <trkpt lat="42.86765" lon="0.21714">
        <ele>2544.3</ele>
        <time>2022-02-09T11:28:22Z</time>
      </trkpt>
      <trkpt lat="42.86765" lon="0.21714">
        <ele>2544.3</ele>
        <time>2022-02-09T11:28:23Z</time>
      </trkpt>
      <trkpt lat="42.86765" lon="0.21714">
        <ele>2544.3</ele>
        <time>2022-02-09T11:28:24Z</time>
      </trkpt>
      <trkpt lat="42.86765" lon="0.21714">
        <ele>2544.3</ele>
        <time>2022-02-09T11:28:25Z</time>
      </trkpt>
      <trkpt lat="42.86765" lon="0.21714">
        <ele>2544.3</ele>
        <time>2022-02-09T11:28:26Z</time>
      </trkpt>
      <trkpt lat="42.86765" lon="0.21714">
        <ele>2544.3</ele>
        <time>2022-02-09T11:28:27Z</time>
      </trkpt>
      <trkpt lat="42.86765" lon="0.21714">
        <ele>2544.3</ele>
        <time>2022-02-09T11:28:28Z</time>
      </trkpt>
      <trkpt lat="42.86765" lon="0.21714">
        <ele>2544.3</ele>
        <time>2022-02-09T11:28:29Z</time>
      </trkpt>
      <trkpt lat="42.86765" lon="0.21714">
        <ele>2544.3</ele>
        <time>2022-02-09T11:28:30Z</time>
      </trkpt>
      <trkpt lat="42.86765" lon="0.21714">
        <ele>2544.3</ele>
        <time>2022-02-09T11:28:31Z</time>
      </trkpt>
      <trkpt lat="42.86765" lon="0.21714">
        <ele>2544.3</ele>
        <time>2022-02-09T11:28:32Z</time>
      </trkpt>
      <trkpt lat="42.86765" lon="0.21714">
        <ele>2544.3</ele>
        <time>2022-02-09T11:28:33Z</time>
      </trkpt>
      <trkpt lat="42.86765" lon="0.21714">
        <ele>2544.3</ele>
        <time>2022-02-09T11:28:34Z</time>
      </trkpt>
      <trkpt lat="42.86765" lon="0.21714">
        <ele>2544.3</ele>
        <time>2022-02-09T11:28:35Z</time>
      </trkpt>
      <trkpt lat="42.86765" lon="0.21714">
        <ele>2544.3</ele>
        <time>2022-02-09T11:28:36Z</time>
      </trkpt>
      <trkpt lat="42.86765" lon="0.21714">
        <ele>2544.3</ele>
        <time>2022-02-09T11:28:37Z</time>
      </trkpt>
      <trkpt lat="42.86765" lon="0.21714">
        <ele>2544.3</ele>
        <time>2022-02-09T11:28:38Z</time>
      </trkpt>
      <trkpt lat="42.86765" lon="0.21714">
        <ele>2544.3</ele>
        <time>2022-02-09T11:28:39Z</time>
      </trkpt>
      <trkpt lat="42.86765" lon="0.21714">
        <ele>2544.3</ele>
        <time>2022-02-09T11:28:40Z</time>
      </trkpt>
      <trkpt lat="42.86765" lon="0.21714">
        <ele>2544.3</ele>
        <time>2022-02-09T11:28:41Z</time>
      </trkpt>
      <trkpt lat="42.86765" lon="0.21714">
        <ele>2544.3</ele>
        <time>2022-02-09T11:28:42Z</time>
      </trkpt>
      <trkpt lat="42.86765" lon="0.21714">
        <ele>2544.3</ele>
        <time>2022-02-09T11:28:43Z</time>
      </trkpt>
      <trkpt lat="42.86765" lon="0.21714">
        <ele>2544.3</ele>
        <time>2022-02-09T11:28:44Z</time>
      </trkpt>
      <trkpt lat="42.86765" lon="0.21714">
        <ele>2544.3</ele>
        <time>2022-02-09T11:28:45Z</time>
      </trkpt>
      <trkpt lat="42.86765" lon="0.21714">
        <ele>2544.3</ele>
        <time>2022-02-09T11:28:46Z</time>
      </trkpt>
      <trkpt lat="42.86765" lon="0.21714">
        <ele>2544.3</ele>
        <time>2022-02-09T11:28:47Z</time>
      </trkpt>
      <trkpt lat="42.86765" lon="0.21714">
        <ele>2544.3</ele>
        <time>2022-02-09T11:28:48Z</time>
      </trkpt>
      <trkpt lat="42.86765" lon="0.21714">
        <ele>2544.3</ele>
        <time>2022-02-09T11:28:49Z</time>
      </trkpt>
      <trkpt lat="42.86765" lon="0.21714">
        <ele>2544.3</ele>
        <time>2022-02-09T11:28:50Z</time>
      </trkpt>
      <trkpt lat="42.86765" lon="0.21714">
        <ele>2544.3</ele>
        <time>2022-02-09T11:28:51Z</time>
      </trkpt>
      <trkpt lat="42.86765" lon="0.21714">
        <ele>2544.3</ele>
        <time>2022-02-09T11:28:52Z</time>
      </trkpt>
      <trkpt lat="42.86765" lon="0.21714">
        <ele>2544.3</ele>
        <time>2022-02-09T11:28:53Z</time>
      </trkpt>
      <trkpt lat="42.86765" lon="0.21714">
        <ele>2544.3</ele>
        <time>2022-02-09T11:28:54Z</time>
      </trkpt>
      <trkpt lat="42.86765" lon="0.21714">
        <ele>2544.3</ele>
        <time>2022-02-09T11:28:55Z</time>
      </trkpt>
      <trkpt lat="42.86765" lon="0.21714">
        <ele>2544.3</ele>
        <time>2022-02-09T11:28:56Z</time>
      </trkpt>
      <trkpt lat="42.86765" lon="0.21714">
        <ele>2544.3</ele>
        <time>2022-02-09T11:28:57Z</time>
      </trkpt>
      <trkpt lat="42.86765" lon="0.21714">
        <ele>2544.3</ele>
        <time>2022-02-09T11:28:58Z</time>
      </trkpt>
      <trkpt lat="42.86765" lon="0.21714">
        <ele>2544.3</ele>
        <time>2022-02-09T11:28:59Z</time>
      </trkpt>
      <trkpt lat="42.86765" lon="0.21714">
        <ele>2544.3</ele>
        <time>2022-02-09T11:29:00Z</time>
      </trkpt>
      <trkpt lat="42.86765" lon="0.21714">
        <ele>2544.3</ele>
        <time>2022-02-09T11:29:01Z</time>
      </trkpt>
      <trkpt lat="42.86765" lon="0.21714">
        <ele>2544.3</ele>
        <time>2022-02-09T11:29:02Z</time>
      </trkpt>
      <trkpt lat="42.86765" lon="0.21714">
        <ele>2544.3</ele>
        <time>2022-02-09T11:29:03Z</time>
      </trkpt>
      <trkpt lat="42.86765" lon="0.21714">
        <ele>2544.3</ele>
        <time>2022-02-09T11:29:04Z</time>
      </trkpt>
      <trkpt lat="42.86765" lon="0.21714">
        <ele>2544.3</ele>
        <time>2022-02-09T11:29:05Z</time>
      </trkpt>
      <trkpt lat="42.86765" lon="0.21714">
        <ele>2544.3</ele>
        <time>2022-02-09T11:29:06Z</time>
      </trkpt>
      <trkpt lat="42.86765" lon="0.21714">
        <ele>2544.3</ele>
        <time>2022-02-09T11:29:07Z</time>
      </trkpt>
      <trkpt lat="42.86765" lon="0.21714">
        <ele>2544.3</ele>
        <time>2022-02-09T11:29:08Z</time>
      </trkpt>
      <trkpt lat="42.86765" lon="0.21714">
        <ele>2544.3</ele>
        <time>2022-02-09T11:29:09Z</time>
      </trkpt>
      <trkpt lat="42.86765" lon="0.21714">
        <ele>2544.3</ele>
        <time>2022-02-09T11:29:10Z</time>
      </trkpt>
      <trkpt lat="42.86765" lon="0.21714">
        <ele>2544.3</ele>
        <time>2022-02-09T11:29:11Z</time>
      </trkpt>
      <trkpt lat="42.86765" lon="0.21714">
        <ele>2544.3</ele>
        <time>2022-02-09T11:29:12Z</time>
      </trkpt>
      <trkpt lat="42.86765" lon="0.21714">
        <ele>2544.3</ele>
        <time>2022-02-09T11:29:13Z</time>
      </trkpt>
      <trkpt lat="42.86765" lon="0.21714">
        <ele>2544.3</ele>
        <time>2022-02-09T11:29:14Z</time>
      </trkpt>
      <trkpt lat="42.86765" lon="0.21714">
        <ele>2544.3</ele>
        <time>2022-02-09T11:29:15Z</time>
      </trkpt>
      <trkpt lat="42.86765" lon="0.21714">
        <ele>2544.3</ele>
        <time>2022-02-09T11:29:16Z</time>
      </trkpt>
      <trkpt lat="42.86765" lon="0.21714">
        <ele>2544.3</ele>
        <time>2022-02-09T11:29:17Z</time>
      </trkpt>
      <trkpt lat="42.86765" lon="0.21714">
        <ele>2544.3</ele>
        <time>2022-02-09T11:29:18Z</time>
      </trkpt>
      <trkpt lat="42.86765" lon="0.21714">
        <ele>2544.3</ele>
        <time>2022-02-09T11:29:19Z</time>
      </trkpt>
      <trkpt lat="42.86765" lon="0.21714">
        <ele>2544.3</ele>
        <time>2022-02-09T11:29:20Z</time>
      </trkpt>
      <trkpt lat="42.86765" lon="0.21714">
        <ele>2544.3</ele>
        <time>2022-02-09T11:29:21Z</time>
      </trkpt>
      <trkpt lat="42.86765" lon="0.21714">
        <ele>2544.3</ele>
        <time>2022-02-09T11:29:22Z</time>
      </trkpt>
      <trkpt lat="42.86765" lon="0.21714">
        <ele>2544.3</ele>
        <time>2022-02-09T11:29:23Z</time>
      </trkpt>
      <trkpt lat="42.86765" lon="0.21714">
        <ele>2544.3</ele>
        <time>2022-02-09T11:29:24Z</time>
      </trkpt>
      <trkpt lat="42.86765" lon="0.21714">
        <ele>2544.3</ele>
        <time>2022-02-09T11:29:25Z</time>
      </trkpt>
      <trkpt lat="42.86765" lon="0.21714">
        <ele>2544.3</ele>
        <time>2022-02-09T11:29:26Z</time>
      </trkpt>
      <trkpt lat="42.86765" lon="0.21714">
        <ele>2544.3</ele>
        <time>2022-02-09T11:29:27Z</time>
      </trkpt>
      <trkpt lat="42.86765" lon="0.21714">
        <ele>2544.3</ele>
        <time>2022-02-09T11:29:28Z</time>
      </trkpt>
      <trkpt lat="42.86765" lon="0.21714">
        <ele>2544.3</ele>
        <time>2022-02-09T11:29:29Z</time>
      </trkpt>
      <trkpt lat="42.86765" lon="0.21714">
        <ele>2544.3</ele>
        <time>2022-02-09T11:29:30Z</time>
      </trkpt>
      <trkpt lat="42.86765" lon="0.21714">
        <ele>2544.3</ele>
        <time>2022-02-09T11:29:31Z</time>
      </trkpt>
      <trkpt lat="42.86765" lon="0.21714">
        <ele>2544.3</ele>
        <time>2022-02-09T11:29:32Z</time>
      </trkpt>
      <trkpt lat="42.86765" lon="0.21714">
        <ele>2544.3</ele>
        <time>2022-02-09T11:29:33Z</time>
      </trkpt>
      <trkpt lat="42.86765" lon="0.21714">
        <ele>2544.3</ele>
        <time>2022-02-09T11:29:34Z</time>
      </trkpt>
      <trkpt lat="42.86765" lon="0.21714">
        <ele>2544.3</ele>
        <time>2022-02-09T11:29:35Z</time>
      </trkpt>
      <trkpt lat="42.86765" lon="0.21714">
        <ele>2544.3</ele>
        <time>2022-02-09T11:29:36Z</time>
      </trkpt>
      <trkpt lat="42.86765" lon="0.21714">
        <ele>2544.3</ele>
        <time>2022-02-09T11:29:37Z</time>
      </trkpt>
      <trkpt lat="42.86765" lon="0.21714">
        <ele>2544.3</ele>
        <time>2022-02-09T11:29:38Z</time>
      </trkpt>
      <trkpt lat="42.86765" lon="0.21714">
        <ele>2544.3</ele>
        <time>2022-02-09T11:29:39Z</time>
      </trkpt>
      <trkpt lat="42.86765" lon="0.21714">
        <ele>2544.3</ele>
        <time>2022-02-09T11:29:40Z</time>
      </trkpt>
      <trkpt lat="42.86765" lon="0.21714">
        <ele>2544.3</ele>
        <time>2022-02-09T11:29:41Z</time>
      </trkpt>
      <trkpt lat="42.86765" lon="0.21714">
        <ele>2544.3</ele>
        <time>2022-02-09T11:29:42Z</time>
      </trkpt>
      <trkpt lat="42.86765" lon="0.21714">
        <ele>2544.3</ele>
        <time>2022-02-09T11:29:43Z</time>
      </trkpt>
      <trkpt lat="42.86765" lon="0.21714">
        <ele>2544.3</ele>
        <time>2022-02-09T11:29:44Z</time>
      </trkpt>
      <trkpt lat="42.86765" lon="0.21714">
        <ele>2544.3</ele>
        <time>2022-02-09T11:29:45Z</time>
      </trkpt>
      <trkpt lat="42.86765" lon="0.21714">
        <ele>2544.3</ele>
        <time>2022-02-09T11:29:46Z</time>
      </trkpt>
      <trkpt lat="42.86765" lon="0.21714">
        <ele>2544.3</ele>
        <time>2022-02-09T11:29:47Z</time>
      </trkpt>
      <trkpt lat="42.86765" lon="0.21714">
        <ele>2544.3</ele>
        <time>2022-02-09T11:29:48Z</time>
      </trkpt>
      <trkpt lat="42.86765" lon="0.21714">
        <ele>2544.3</ele>
        <time>2022-02-09T11:29:49Z</time>
      </trkpt>
      <trkpt lat="42.86765" lon="0.21714">
        <ele>2544.3</ele>
        <time>2022-02-09T11:29:50Z</time>
      </trkpt>
      <trkpt lat="42.86765" lon="0.21714">
        <ele>2544.3</ele>
        <time>2022-02-09T11:29:51Z</time>
      </trkpt>
      <trkpt lat="42.86765" lon="0.21714">
        <ele>2544.3</ele>
        <time>2022-02-09T11:29:52Z</time>
      </trkpt>
      <trkpt lat="42.86765" lon="0.21714">
        <ele>2544.3</ele>
        <time>2022-02-09T11:29:53Z</time>
      </trkpt>
      <trkpt lat="42.86765" lon="0.21714">
        <ele>2544.3</ele>
        <time>2022-02-09T11:29:54Z</time>
      </trkpt>
      <trkpt lat="42.86765" lon="0.21714">
        <ele>2544.3</ele>
        <time>2022-02-09T11:29:55Z</time>
      </trkpt>
      <trkpt lat="42.86765" lon="0.21714">
        <ele>2544.3</ele>
        <time>2022-02-09T11:29:56Z</time>
      </trkpt>
      <trkpt lat="42.86765" lon="0.21714">
        <ele>2544.3</ele>
        <time>2022-02-09T11:29:57Z</time>
      </trkpt>
      <trkpt lat="42.86765" lon="0.21714">
        <ele>2544.3</ele>
        <time>2022-02-09T11:29:58Z</time>
      </trkpt>
      <trkpt lat="42.86765" lon="0.21714">
        <ele>2544.3</ele>
        <time>2022-02-09T11:29:59Z</time>
      </trkpt>
      <trkpt lat="42.86765" lon="0.21714">
        <ele>2544.3</ele>
        <time>2022-02-09T11:30:00Z</time>
      </trkpt>
      <trkpt lat="42.86765" lon="0.21714">
        <ele>2544.3</ele>
        <time>2022-02-09T11:30:01Z</time>
      </trkpt>
      <trkpt lat="42.86765" lon="0.21714">
        <ele>2544.3</ele>
        <time>2022-02-09T11:30:02Z</time>
      </trkpt>
      <trkpt lat="42.86765" lon="0.21714">
        <ele>2544.3</ele>
        <time>2022-02-09T11:30:03Z</time>
      </trkpt>
      <trkpt lat="42.86765" lon="0.21714">
        <ele>2544.3</ele>
        <time>2022-02-09T11:30:04Z</time>
      </trkpt>
      <trkpt lat="42.86765" lon="0.21714">
        <ele>2544.3</ele>
        <time>2022-02-09T11:30:05Z</time>
      </trkpt>
      <trkpt lat="42.86765" lon="0.21714">
        <ele>2544.3</ele>
        <time>2022-02-09T11:30:06Z</time>
      </trkpt>
      <trkpt lat="42.86765" lon="0.21714">
        <ele>2544.3</ele>
        <time>2022-02-09T11:30:07Z</time>
      </trkpt>
      <trkpt lat="42.86765" lon="0.21714">
        <ele>2544.3</ele>
        <time>2022-02-09T11:30:08Z</time>
      </trkpt>
      <trkpt lat="42.86765" lon="0.21714">
        <ele>2544.3</ele>
        <time>2022-02-09T11:30:09Z</time>
      </trkpt>
      <trkpt lat="42.86765" lon="0.21714">
        <ele>2544.3</ele>
        <time>2022-02-09T11:30:10Z</time>
      </trkpt>
      <trkpt lat="42.86765" lon="0.21714">
        <ele>2544.3</ele>
        <time>2022-02-09T11:30:11Z</time>
      </trkpt>
      <trkpt lat="42.86765" lon="0.21714">
        <ele>2544.3</ele>
        <time>2022-02-09T11:30:12Z</time>
      </trkpt>
      <trkpt lat="42.86765" lon="0.21714">
        <ele>2544.3</ele>
        <time>2022-02-09T11:30:13Z</time>
      </trkpt>
      <trkpt lat="42.86765" lon="0.21714">
        <ele>2544.3</ele>
        <time>2022-02-09T11:30:14Z</time>
      </trkpt>
      <trkpt lat="42.86765" lon="0.21714">
        <ele>2544.3</ele>
        <time>2022-02-09T11:30:15Z</time>
      </trkpt>
      <trkpt lat="42.86765" lon="0.21714">
        <ele>2544.3</ele>
        <time>2022-02-09T11:30:16Z</time>
      </trkpt>
      <trkpt lat="42.86765" lon="0.21714">
        <ele>2544.3</ele>
        <time>2022-02-09T11:30:17Z</time>
      </trkpt>
      <trkpt lat="42.86765" lon="0.21714">
        <ele>2544.3</ele>
        <time>2022-02-09T11:30:18Z</time>
      </trkpt>
      <trkpt lat="42.86765" lon="0.21714">
        <ele>2544.3</ele>
        <time>2022-02-09T11:30:19Z</time>
      </trkpt>
      <trkpt lat="42.86765" lon="0.21714">
        <ele>2544.3</ele>
        <time>2022-02-09T11:30:20Z</time>
      </trkpt>
      <trkpt lat="42.86765" lon="0.21714">
        <ele>2544.3</ele>
        <time>2022-02-09T11:30:21Z</time>
      </trkpt>
      <trkpt lat="42.86765" lon="0.21714">
        <ele>2544.3</ele>
        <time>2022-02-09T11:30:22Z</time>
      </trkpt>
      <trkpt lat="42.86765" lon="0.21714">
        <ele>2544.3</ele>
        <time>2022-02-09T11:30:23Z</time>
      </trkpt>
      <trkpt lat="42.86765" lon="0.21714">
        <ele>2544.3</ele>
        <time>2022-02-09T11:30:24Z</time>
      </trkpt>
      <trkpt lat="42.86765" lon="0.21714">
        <ele>2544.3</ele>
        <time>2022-02-09T11:30:25Z</time>
      </trkpt>
      <trkpt lat="42.86765" lon="0.21714">
        <ele>2544.3</ele>
        <time>2022-02-09T11:30:26Z</time>
      </trkpt>
      <trkpt lat="42.86765" lon="0.21714">
        <ele>2544.3</ele>
        <time>2022-02-09T11:30:27Z</time>
      </trkpt>
      <trkpt lat="42.86765" lon="0.21714">
        <ele>2544.3</ele>
        <time>2022-02-09T11:30:28Z</time>
      </trkpt>
      <trkpt lat="42.86765" lon="0.21714">
        <ele>2544.3</ele>
        <time>2022-02-09T11:30:29Z</time>
      </trkpt>
      <trkpt lat="42.86765" lon="0.21714">
        <ele>2544.3</ele>
        <time>2022-02-09T11:30:30Z</time>
      </trkpt>
      <trkpt lat="42.86765" lon="0.21714">
        <ele>2544.3</ele>
        <time>2022-02-09T11:30:31Z</time>
      </trkpt>
      <trkpt lat="42.86765" lon="0.21714">
        <ele>2544.3</ele>
        <time>2022-02-09T11:30:32Z</time>
      </trkpt>
      <trkpt lat="42.86765" lon="0.21714">
        <ele>2544.3</ele>
        <time>2022-02-09T11:30:33Z</time>
      </trkpt>
      <trkpt lat="42.86765" lon="0.21714">
        <ele>2544.3</ele>
        <time>2022-02-09T11:30:34Z</time>
      </trkpt>
      <trkpt lat="42.86765" lon="0.21714">
        <ele>2544.3</ele>
        <time>2022-02-09T11:30:35Z</time>
      </trkpt>
      <trkpt lat="42.86765" lon="0.21714">
        <ele>2544.3</ele>
        <time>2022-02-09T11:30:36Z</time>
      </trkpt>
      <trkpt lat="42.86765" lon="0.21714">
        <ele>2544.3</ele>
        <time>2022-02-09T11:30:37Z</time>
      </trkpt>
      <trkpt lat="42.86765" lon="0.21714">
        <ele>2544.3</ele>
        <time>2022-02-09T11:30:38Z</time>
      </trkpt>
      <trkpt lat="42.86765" lon="0.21714">
        <ele>2544.3</ele>
        <time>2022-02-09T11:30:39Z</time>
      </trkpt>
      <trkpt lat="42.86765" lon="0.21714">
        <ele>2544.3</ele>
        <time>2022-02-09T11:30:40Z</time>
      </trkpt>
      <trkpt lat="42.86765" lon="0.21714">
        <ele>2544.3</ele>
        <time>2022-02-09T11:30:41Z</time>
      </trkpt>
      <trkpt lat="42.86765" lon="0.21714">
        <ele>2544.3</ele>
        <time>2022-02-09T11:30:42Z</time>
      </trkpt>
      <trkpt lat="42.86765" lon="0.21714">
        <ele>2544.3</ele>
        <time>2022-02-09T11:30:43Z</time>
      </trkpt>
      <trkpt lat="42.86765" lon="0.21714">
        <ele>2544.3</ele>
        <time>2022-02-09T11:30:44Z</time>
      </trkpt>
      <trkpt lat="42.86765" lon="0.21714">
        <ele>2544.3</ele>
        <time>2022-02-09T11:30:45Z</time>
      </trkpt>
      <trkpt lat="42.86765" lon="0.21714">
        <ele>2544.3</ele>
        <time>2022-02-09T11:30:46Z</time>
      </trkpt>
      <trkpt lat="42.86765" lon="0.21714">
        <ele>2544.3</ele>
        <time>2022-02-09T11:30:47Z</time>
      </trkpt>
      <trkpt lat="42.86765" lon="0.21714">
        <ele>2544.3</ele>
        <time>2022-02-09T11:30:48Z</time>
      </trkpt>
      <trkpt lat="42.86765" lon="0.21714">
        <ele>2544.3</ele>
        <time>2022-02-09T11:30:49Z</time>
      </trkpt>
      <trkpt lat="42.86765" lon="0.21714">
        <ele>2544.3</ele>
        <time>2022-02-09T11:30:50Z</time>
      </trkpt>
      <trkpt lat="42.86765" lon="0.21714">
        <ele>2544.3</ele>
        <time>2022-02-09T11:30:51Z</time>
      </trkpt>
      <trkpt lat="42.86765" lon="0.21714">
        <ele>2544.3</ele>
        <time>2022-02-09T11:30:52Z</time>
      </trkpt>
      <trkpt lat="42.86765" lon="0.21714">
        <ele>2544.3</ele>
        <time>2022-02-09T11:30:53Z</time>
      </trkpt>
      <trkpt lat="42.86765" lon="0.21714">
        <ele>2544.3</ele>
        <time>2022-02-09T11:30:54Z</time>
      </trkpt>
      <trkpt lat="42.86765" lon="0.21714">
        <ele>2544.3</ele>
        <time>2022-02-09T11:30:55Z</time>
      </trkpt>
      <trkpt lat="42.86765" lon="0.21714">
        <ele>2544.3</ele>
        <time>2022-02-09T11:30:56Z</time>
      </trkpt>
      <trkpt lat="42.86765" lon="0.21714">
        <ele>2544.3</ele>
        <time>2022-02-09T11:30:57Z</time>
      </trkpt>
      <trkpt lat="42.86765" lon="0.21714">
        <ele>2544.3</ele>
        <time>2022-02-09T11:30:58Z</time>
      </trkpt>
      <trkpt lat="42.86765" lon="0.21714">
        <ele>2544.3</ele>
        <time>2022-02-09T11:30:59Z</time>
      </trkpt>
      <trkpt lat="42.86765" lon="0.21714">
        <ele>2544.3</ele>
        <time>2022-02-09T11:31:00Z</time>
      </trkpt>
      <trkpt lat="42.86765" lon="0.21714">
        <ele>2544.3</ele>
        <time>2022-02-09T11:31:01Z</time>
      </trkpt>
      <trkpt lat="42.86765" lon="0.21714">
        <ele>2544.3</ele>
        <time>2022-02-09T11:31:02Z</time>
      </trkpt>
      <trkpt lat="42.86765" lon="0.21714">
        <ele>2544.3</ele>
        <time>2022-02-09T11:31:03Z</time>
      </trkpt>
      <trkpt lat="42.86765" lon="0.21714">
        <ele>2544.3</ele>
        <time>2022-02-09T11:31:04Z</time>
      </trkpt>
      <trkpt lat="42.86765" lon="0.21714">
        <ele>2544.3</ele>
        <time>2022-02-09T11:31:05Z</time>
      </trkpt>
      <trkpt lat="42.86765" lon="0.21714">
        <ele>2544.3</ele>
        <time>2022-02-09T11:31:06Z</time>
      </trkpt>
      <trkpt lat="42.86765" lon="0.21714">
        <ele>2544.3</ele>
        <time>2022-02-09T11:31:07Z</time>
      </trkpt>
      <trkpt lat="42.86765" lon="0.21714">
        <ele>2544.3</ele>
        <time>2022-02-09T11:31:08Z</time>
      </trkpt>
      <trkpt lat="42.86765" lon="0.21714">
        <ele>2544.3</ele>
        <time>2022-02-09T11:31:09Z</time>
      </trkpt>
      <trkpt lat="42.86765" lon="0.21714">
        <ele>2544.3</ele>
        <time>2022-02-09T11:31:10Z</time>
      </trkpt>
      <trkpt lat="42.86765" lon="0.21714">
        <ele>2544.3</ele>
        <time>2022-02-09T11:31:11Z</time>
      </trkpt>
      <trkpt lat="42.86765" lon="0.21714">
        <ele>2544.3</ele>
        <time>2022-02-09T11:31:12Z</time>
      </trkpt>
      <trkpt lat="42.86765" lon="0.21714">
        <ele>2544.3</ele>
        <time>2022-02-09T11:31:13Z</time>
      </trkpt>
      <trkpt lat="42.86765" lon="0.21714">
        <ele>2544.3</ele>
        <time>2022-02-09T11:31:14Z</time>
      </trkpt>
      <trkpt lat="42.86765" lon="0.21714">
        <ele>2544.3</ele>
        <time>2022-02-09T11:31:15Z</time>
      </trkpt>
      <trkpt lat="42.86765" lon="0.21714">
        <ele>2544.3</ele>
        <time>2022-02-09T11:31:16Z</time>
      </trkpt>
      <trkpt lat="42.86765" lon="0.21714">
        <ele>2544.3</ele>
        <time>2022-02-09T11:31:17Z</time>
      </trkpt>
      <trkpt lat="42.86765" lon="0.21714">
        <ele>2544.3</ele>
        <time>2022-02-09T11:31:18Z</time>
      </trkpt>
      <trkpt lat="42.86765" lon="0.21714">
        <ele>2544.3</ele>
        <time>2022-02-09T11:31:19Z</time>
      </trkpt>
      <trkpt lat="42.86765" lon="0.21714">
        <ele>2544.3</ele>
        <time>2022-02-09T11:31:20Z</time>
      </trkpt>
      <trkpt lat="42.86765" lon="0.21714">
        <ele>2544.3</ele>
        <time>2022-02-09T11:31:21Z</time>
      </trkpt>
      <trkpt lat="42.86765" lon="0.21714">
        <ele>2544.3</ele>
        <time>2022-02-09T11:31:22Z</time>
      </trkpt>
      <trkpt lat="42.86765" lon="0.21714">
        <ele>2544.3</ele>
        <time>2022-02-09T11:31:23Z</time>
      </trkpt>
      <trkpt lat="42.86765" lon="0.21714">
        <ele>2544.3</ele>
        <time>2022-02-09T11:31:24Z</time>
      </trkpt>
      <trkpt lat="42.86765" lon="0.21714">
        <ele>2544.3</ele>
        <time>2022-02-09T11:31:25Z</time>
      </trkpt>
      <trkpt lat="42.86765" lon="0.21714">
        <ele>2544.3</ele>
        <time>2022-02-09T11:31:26Z</time>
      </trkpt>
      <trkpt lat="42.86765" lon="0.21714">
        <ele>2544.3</ele>
        <time>2022-02-09T11:31:27Z</time>
      </trkpt>
      <trkpt lat="42.86765" lon="0.21714">
        <ele>2544.3</ele>
        <time>2022-02-09T11:31:28Z</time>
      </trkpt>
      <trkpt lat="42.86765" lon="0.21714">
        <ele>2544.3</ele>
        <time>2022-02-09T11:31:29Z</time>
      </trkpt>
      <trkpt lat="42.86765" lon="0.21714">
        <ele>2544.3</ele>
        <time>2022-02-09T11:31:30Z</time>
      </trkpt>
      <trkpt lat="42.86765" lon="0.21714">
        <ele>2544.3</ele>
        <time>2022-02-09T11:31:31Z</time>
      </trkpt>
      <trkpt lat="42.86765" lon="0.21714">
        <ele>2544.3</ele>
        <time>2022-02-09T11:31:32Z</time>
      </trkpt>
      <trkpt lat="42.86765" lon="0.21714">
        <ele>2544.3</ele>
        <time>2022-02-09T11:31:33Z</time>
      </trkpt>
      <trkpt lat="42.86765" lon="0.21714">
        <ele>2544.3</ele>
        <time>2022-02-09T11:31:34Z</time>
      </trkpt>
      <trkpt lat="42.86765" lon="0.21714">
        <ele>2544.3</ele>
        <time>2022-02-09T11:31:35Z</time>
      </trkpt>
      <trkpt lat="42.86765" lon="0.21714">
        <ele>2544.3</ele>
        <time>2022-02-09T11:31:36Z</time>
      </trkpt>
      <trkpt lat="42.86765" lon="0.21714">
        <ele>2544.3</ele>
        <time>2022-02-09T11:31:37Z</time>
      </trkpt>
      <trkpt lat="42.86765" lon="0.21714">
        <ele>2544.3</ele>
        <time>2022-02-09T11:31:38Z</time>
      </trkpt>
      <trkpt lat="42.86765" lon="0.21714">
        <ele>2544.3</ele>
        <time>2022-02-09T11:31:39Z</time>
      </trkpt>
      <trkpt lat="42.86765" lon="0.21714">
        <ele>2544.3</ele>
        <time>2022-02-09T11:31:40Z</time>
      </trkpt>
      <trkpt lat="42.86765" lon="0.21714">
        <ele>2544.3</ele>
        <time>2022-02-09T11:31:41Z</time>
      </trkpt>
      <trkpt lat="42.86765" lon="0.21714">
        <ele>2544.3</ele>
        <time>2022-02-09T11:31:42Z</time>
      </trkpt>
      <trkpt lat="42.86765" lon="0.21714">
        <ele>2544.3</ele>
        <time>2022-02-09T11:31:43Z</time>
      </trkpt>
      <trkpt lat="42.86765" lon="0.21714">
        <ele>2544.3</ele>
        <time>2022-02-09T11:31:44Z</time>
      </trkpt>
      <trkpt lat="42.86765" lon="0.21714">
        <ele>2544.3</ele>
        <time>2022-02-09T11:31:45Z</time>
      </trkpt>
      <trkpt lat="42.86765" lon="0.21714">
        <ele>2544.3</ele>
        <time>2022-02-09T11:31:46Z</time>
      </trkpt>
      <trkpt lat="42.86765" lon="0.21714">
        <ele>2544.3</ele>
        <time>2022-02-09T11:31:47Z</time>
      </trkpt>
      <trkpt lat="42.86765" lon="0.21714">
        <ele>2544.3</ele>
        <time>2022-02-09T11:31:48Z</time>
      </trkpt>
      <trkpt lat="42.86765" lon="0.21714">
        <ele>2544.3</ele>
        <time>2022-02-09T11:31:49Z</time>
      </trkpt>
      <trkpt lat="42.86765" lon="0.21714">
        <ele>2544.3</ele>
        <time>2022-02-09T11:31:50Z</time>
      </trkpt>
      <trkpt lat="42.86765" lon="0.21714">
        <ele>2544.3</ele>
        <time>2022-02-09T11:31:51Z</time>
      </trkpt>
      <trkpt lat="42.86765" lon="0.21714">
        <ele>2544.3</ele>
        <time>2022-02-09T11:31:52Z</time>
      </trkpt>
      <trkpt lat="42.86765" lon="0.21714">
        <ele>2544.3</ele>
        <time>2022-02-09T11:31:53Z</time>
      </trkpt>
      <trkpt lat="42.86765" lon="0.21714">
        <ele>2544.3</ele>
        <time>2022-02-09T11:31:54Z</time>
      </trkpt>
      <trkpt lat="42.86765" lon="0.21714">
        <ele>2544.3</ele>
        <time>2022-02-09T11:31:55Z</time>
      </trkpt>
      <trkpt lat="42.86765" lon="0.21714">
        <ele>2544.3</ele>
        <time>2022-02-09T11:31:56Z</time>
      </trkpt>
      <trkpt lat="42.86765" lon="0.21714">
        <ele>2544.3</ele>
        <time>2022-02-09T11:31:57Z</time>
      </trkpt>
      <trkpt lat="42.86765" lon="0.21714">
        <ele>2544.3</ele>
        <time>2022-02-09T11:31:58Z</time>
      </trkpt>
      <trkpt lat="42.86765" lon="0.21714">
        <ele>2544.3</ele>
        <time>2022-02-09T11:31:59Z</time>
      </trkpt>
      <trkpt lat="42.86765" lon="0.21714">
        <ele>2544.3</ele>
        <time>2022-02-09T11:32:00Z</time>
      </trkpt>
      <trkpt lat="42.86765" lon="0.21714">
        <ele>2544.3</ele>
        <time>2022-02-09T11:32:01Z</time>
      </trkpt>
      <trkpt lat="42.86765" lon="0.21714">
        <ele>2544.3</ele>
        <time>2022-02-09T11:32:02Z</time>
      </trkpt>
      <trkpt lat="42.86765" lon="0.21714">
        <ele>2544.3</ele>
        <time>2022-02-09T11:32:03Z</time>
      </trkpt>
      <trkpt lat="42.86765" lon="0.21714">
        <ele>2544.3</ele>
        <time>2022-02-09T11:32:04Z</time>
      </trkpt>
      <trkpt lat="42.86765" lon="0.21714">
        <ele>2544.3</ele>
        <time>2022-02-09T11:32:05Z</time>
      </trkpt>
      <trkpt lat="42.86765" lon="0.21714">
        <ele>2544.3</ele>
        <time>2022-02-09T11:32:06Z</time>
      </trkpt>
      <trkpt lat="42.86765" lon="0.21714">
        <ele>2544.3</ele>
        <time>2022-02-09T11:32:07Z</time>
      </trkpt>
      <trkpt lat="42.86765" lon="0.21714">
        <ele>2544.3</ele>
        <time>2022-02-09T11:32:08Z</time>
      </trkpt>
      <trkpt lat="42.86765" lon="0.21714">
        <ele>2544.3</ele>
        <time>2022-02-09T11:32:09Z</time>
      </trkpt>
      <trkpt lat="42.86765" lon="0.21714">
        <ele>2544.3</ele>
        <time>2022-02-09T11:32:10Z</time>
      </trkpt>
      <trkpt lat="42.86765" lon="0.21714">
        <ele>2544.3</ele>
        <time>2022-02-09T11:32:11Z</time>
      </trkpt>
      <trkpt lat="42.86765" lon="0.21714">
        <ele>2544.3</ele>
        <time>2022-02-09T11:32:12Z</time>
      </trkpt>
      <trkpt lat="42.86765" lon="0.21714">
        <ele>2544.3</ele>
        <time>2022-02-09T11:32:13Z</time>
      </trkpt>
      <trkpt lat="42.86765" lon="0.21714">
        <ele>2544.3</ele>
        <time>2022-02-09T11:32:14Z</time>
      </trkpt>
      <trkpt lat="42.86765" lon="0.21714">
        <ele>2544.3</ele>
        <time>2022-02-09T11:32:15Z</time>
      </trkpt>
      <trkpt lat="42.86765" lon="0.21714">
        <ele>2544.3</ele>
        <time>2022-02-09T11:32:16Z</time>
      </trkpt>
      <trkpt lat="42.86765" lon="0.21714">
        <ele>2544.3</ele>
        <time>2022-02-09T11:32:17Z</time>
      </trkpt>
      <trkpt lat="42.86765" lon="0.21714">
        <ele>2544.3</ele>
        <time>2022-02-09T11:32:18Z</time>
      </trkpt>
      <trkpt lat="42.86765" lon="0.21714">
        <ele>2544.3</ele>
        <time>2022-02-09T11:32:19Z</time>
      </trkpt>
      <trkpt lat="42.86765" lon="0.21714">
        <ele>2544.3</ele>
        <time>2022-02-09T11:32:20Z</time>
      </trkpt>
      <trkpt lat="42.86765" lon="0.21714">
        <ele>2544.3</ele>
        <time>2022-02-09T11:32:21Z</time>
      </trkpt>
      <trkpt lat="42.86765" lon="0.21714">
        <ele>2544.3</ele>
        <time>2022-02-09T11:32:22Z</time>
      </trkpt>
      <trkpt lat="42.86765" lon="0.21714">
        <ele>2544.3</ele>
        <time>2022-02-09T11:32:23Z</time>
      </trkpt>
      <trkpt lat="42.86765" lon="0.21714">
        <ele>2544.3</ele>
        <time>2022-02-09T11:32:24Z</time>
      </trkpt>
      <trkpt lat="42.86765" lon="0.21714">
        <ele>2544.3</ele>
        <time>2022-02-09T11:32:25Z</time>
      </trkpt>
      <trkpt lat="42.86765" lon="0.21714">
        <ele>2544.3</ele>
        <time>2022-02-09T11:32:26Z</time>
      </trkpt>
      <trkpt lat="42.86765" lon="0.21714">
        <ele>2544.3</ele>
        <time>2022-02-09T11:32:27Z</time>
      </trkpt>
      <trkpt lat="42.86765" lon="0.21714">
        <ele>2544.3</ele>
        <time>2022-02-09T11:32:28Z</time>
      </trkpt>
      <trkpt lat="42.86765" lon="0.21714">
        <ele>2544.3</ele>
        <time>2022-02-09T11:32:29Z</time>
      </trkpt>
      <trkpt lat="42.86765" lon="0.21714">
        <ele>2544.3</ele>
        <time>2022-02-09T11:32:30Z</time>
      </trkpt>
      <trkpt lat="42.86765" lon="0.21714">
        <ele>2544.3</ele>
        <time>2022-02-09T11:32:31Z</time>
      </trkpt>
      <trkpt lat="42.86765" lon="0.21714">
        <ele>2544.3</ele>
        <time>2022-02-09T11:32:32Z</time>
      </trkpt>
      <trkpt lat="42.86765" lon="0.21714">
        <ele>2544.3</ele>
        <time>2022-02-09T11:32:33Z</time>
      </trkpt>
      <trkpt lat="42.86765" lon="0.21714">
        <ele>2544.3</ele>
        <time>2022-02-09T11:32:34Z</time>
      </trkpt>
      <trkpt lat="42.86765" lon="0.21714">
        <ele>2544.3</ele>
        <time>2022-02-09T11:32:35Z</time>
      </trkpt>
      <trkpt lat="42.86765" lon="0.21714">
        <ele>2544.3</ele>
        <time>2022-02-09T11:32:36Z</time>
      </trkpt>
      <trkpt lat="42.86765" lon="0.21714">
        <ele>2544.3</ele>
        <time>2022-02-09T11:32:37Z</time>
      </trkpt>
      <trkpt lat="42.86765" lon="0.21714">
        <ele>2544.3</ele>
        <time>2022-02-09T11:32:38Z</time>
      </trkpt>
      <trkpt lat="42.86765" lon="0.21714">
        <ele>2544.3</ele>
        <time>2022-02-09T11:32:39Z</time>
      </trkpt>
      <trkpt lat="42.86765" lon="0.21714">
        <ele>2544.3</ele>
        <time>2022-02-09T11:32:40Z</time>
      </trkpt>
      <trkpt lat="42.86765" lon="0.21714">
        <ele>2544.3</ele>
        <time>2022-02-09T11:32:41Z</time>
      </trkpt>
      <trkpt lat="42.86765" lon="0.21714">
        <ele>2544.3</ele>
        <time>2022-02-09T11:32:42Z</time>
      </trkpt>
      <trkpt lat="42.86765" lon="0.21714">
        <ele>2544.3</ele>
        <time>2022-02-09T11:32:43Z</time>
      </trkpt>
      <trkpt lat="42.86765" lon="0.21714">
        <ele>2544.3</ele>
        <time>2022-02-09T11:32:44Z</time>
      </trkpt>
      <trkpt lat="42.86765" lon="0.21714">
        <ele>2544.3</ele>
        <time>2022-02-09T11:32:45Z</time>
      </trkpt>
      <trkpt lat="42.86765" lon="0.21714">
        <ele>2544.3</ele>
        <time>2022-02-09T11:32:46Z</time>
      </trkpt>
      <trkpt lat="42.86765" lon="0.21714">
        <ele>2544.3</ele>
        <time>2022-02-09T11:32:47Z</time>
      </trkpt>
      <trkpt lat="42.86765" lon="0.21714">
        <ele>2544.3</ele>
        <time>2022-02-09T11:32:48Z</time>
      </trkpt>
      <trkpt lat="42.86765" lon="0.21714">
        <ele>2544.3</ele>
        <time>2022-02-09T11:32:49Z</time>
      </trkpt>
      <trkpt lat="42.86765" lon="0.21714">
        <ele>2544.3</ele>
        <time>2022-02-09T11:32:50Z</time>
      </trkpt>
      <trkpt lat="42.86765" lon="0.21714">
        <ele>2544.3</ele>
        <time>2022-02-09T11:32:51Z</time>
      </trkpt>
      <trkpt lat="42.86765" lon="0.21714">
        <ele>2544.3</ele>
        <time>2022-02-09T11:32:52Z</time>
      </trkpt>
      <trkpt lat="42.86765" lon="0.21714">
        <ele>2544.3</ele>
        <time>2022-02-09T11:32:53Z</time>
      </trkpt>
      <trkpt lat="42.86765" lon="0.21714">
        <ele>2544.3</ele>
        <time>2022-02-09T11:32:54Z</time>
      </trkpt>
      <trkpt lat="42.86765" lon="0.21714">
        <ele>2544.3</ele>
        <time>2022-02-09T11:32:55Z</time>
      </trkpt>
      <trkpt lat="42.86765" lon="0.21714">
        <ele>2544.3</ele>
        <time>2022-02-09T11:32:56Z</time>
      </trkpt>
      <trkpt lat="42.86765" lon="0.21714">
        <ele>2544.3</ele>
        <time>2022-02-09T11:32:57Z</time>
      </trkpt>
      <trkpt lat="42.86765" lon="0.21714">
        <ele>2544.3</ele>
        <time>2022-02-09T11:32:58Z</time>
      </trkpt>
      <trkpt lat="42.86765" lon="0.21714">
        <ele>2544.3</ele>
        <time>2022-02-09T11:32:59Z</time>
      </trkpt>
      <trkpt lat="42.86765" lon="0.21714">
        <ele>2544.3</ele>
        <time>2022-02-09T11:33:00Z</time>
      </trkpt>
      <trkpt lat="42.86765" lon="0.21714">
        <ele>2544.3</ele>
        <time>2022-02-09T11:33:01Z</time>
      </trkpt>
      <trkpt lat="42.86765" lon="0.21714">
        <ele>2544.3</ele>
        <time>2022-02-09T11:33:02Z</time>
      </trkpt>
      <trkpt lat="42.86765" lon="0.21714">
        <ele>2544.3</ele>
        <time>2022-02-09T11:33:03Z</time>
      </trkpt>
      <trkpt lat="42.86765" lon="0.21714">
        <ele>2544.3</ele>
        <time>2022-02-09T11:33:04Z</time>
      </trkpt>
      <trkpt lat="42.86765" lon="0.21714">
        <ele>2544.3</ele>
        <time>2022-02-09T11:33:05Z</time>
      </trkpt>
      <trkpt lat="42.86765" lon="0.21714">
        <ele>2544.3</ele>
        <time>2022-02-09T11:33:06Z</time>
      </trkpt>
      <trkpt lat="42.86765" lon="0.21714">
        <ele>2544.3</ele>
        <time>2022-02-09T11:33:07Z</time>
      </trkpt>
      <trkpt lat="42.86765" lon="0.21714">
        <ele>2544.3</ele>
        <time>2022-02-09T11:33:08Z</time>
      </trkpt>
      <trkpt lat="42.86765" lon="0.21714">
        <ele>2544.3</ele>
        <time>2022-02-09T11:33:09Z</time>
      </trkpt>
      <trkpt lat="42.86765" lon="0.21714">
        <ele>2544.3</ele>
        <time>2022-02-09T11:33:10Z</time>
      </trkpt>
      <trkpt lat="42.86765" lon="0.21714">
        <ele>2544.3</ele>
        <time>2022-02-09T11:33:11Z</time>
      </trkpt>
      <trkpt lat="42.86765" lon="0.21714">
        <ele>2544.3</ele>
        <time>2022-02-09T11:33:12Z</time>
      </trkpt>
      <trkpt lat="42.86765" lon="0.21714">
        <ele>2544.3</ele>
        <time>2022-02-09T11:33:13Z</time>
      </trkpt>
      <trkpt lat="42.86765" lon="0.21714">
        <ele>2544.3</ele>
        <time>2022-02-09T11:33:14Z</time>
      </trkpt>
      <trkpt lat="42.86765" lon="0.21714">
        <ele>2544.3</ele>
        <time>2022-02-09T11:33:15Z</time>
      </trkpt>
      <trkpt lat="42.86765" lon="0.21714">
        <ele>2544.3</ele>
        <time>2022-02-09T11:33:16Z</time>
      </trkpt>
      <trkpt lat="42.86765" lon="0.21714">
        <ele>2544.3</ele>
        <time>2022-02-09T11:33:17Z</time>
      </trkpt>
      <trkpt lat="42.86765" lon="0.21714">
        <ele>2544.3</ele>
        <time>2022-02-09T11:33:18Z</time>
      </trkpt>
      <trkpt lat="42.86765" lon="0.21714">
        <ele>2544.3</ele>
        <time>2022-02-09T11:33:19Z</time>
      </trkpt>
      <trkpt lat="42.86765" lon="0.21714">
        <ele>2544.3</ele>
        <time>2022-02-09T11:33:20Z</time>
      </trkpt>
      <trkpt lat="42.86765" lon="0.21714">
        <ele>2544.3</ele>
        <time>2022-02-09T11:33:21Z</time>
      </trkpt>
      <trkpt lat="42.86765" lon="0.21714">
        <ele>2544.3</ele>
        <time>2022-02-09T11:33:22Z</time>
      </trkpt>
      <trkpt lat="42.86765" lon="0.21714">
        <ele>2544.3</ele>
        <time>2022-02-09T11:33:23Z</time>
      </trkpt>
      <trkpt lat="42.86765" lon="0.21714">
        <ele>2544.3</ele>
        <time>2022-02-09T11:33:24Z</time>
      </trkpt>
      <trkpt lat="42.86765" lon="0.21714">
        <ele>2544.3</ele>
        <time>2022-02-09T11:33:25Z</time>
      </trkpt>
      <trkpt lat="42.86765" lon="0.21714">
        <ele>2544.3</ele>
        <time>2022-02-09T11:33:26Z</time>
      </trkpt>
      <trkpt lat="42.86765" lon="0.21714">
        <ele>2544.3</ele>
        <time>2022-02-09T11:33:27Z</time>
      </trkpt>
      <trkpt lat="42.86765" lon="0.21714">
        <ele>2544.3</ele>
        <time>2022-02-09T11:33:28Z</time>
      </trkpt>
      <trkpt lat="42.86765" lon="0.21714">
        <ele>2544.3</ele>
        <time>2022-02-09T11:33:29Z</time>
      </trkpt>
      <trkpt lat="42.86765" lon="0.21714">
        <ele>2544.3</ele>
        <time>2022-02-09T11:33:30Z</time>
      </trkpt>
      <trkpt lat="42.86765" lon="0.21714">
        <ele>2544.3</ele>
        <time>2022-02-09T11:33:31Z</time>
      </trkpt>
      <trkpt lat="42.86765" lon="0.21714">
        <ele>2544.3</ele>
        <time>2022-02-09T11:33:32Z</time>
      </trkpt>
      <trkpt lat="42.86765" lon="0.21714">
        <ele>2544.3</ele>
        <time>2022-02-09T11:33:33Z</time>
      </trkpt>
      <trkpt lat="42.86765" lon="0.21714">
        <ele>2544.3</ele>
        <time>2022-02-09T11:33:34Z</time>
      </trkpt>
      <trkpt lat="42.86765" lon="0.21714">
        <ele>2544.3</ele>
        <time>2022-02-09T11:33:35Z</time>
      </trkpt>
      <trkpt lat="42.86765" lon="0.21714">
        <ele>2544.3</ele>
        <time>2022-02-09T11:33:36Z</time>
      </trkpt>
      <trkpt lat="42.86765" lon="0.21714">
        <ele>2544.3</ele>
        <time>2022-02-09T11:33:37Z</time>
      </trkpt>
      <trkpt lat="42.86765" lon="0.21714">
        <ele>2544.3</ele>
        <time>2022-02-09T11:33:38Z</time>
      </trkpt>
      <trkpt lat="42.86765" lon="0.21714">
        <ele>2544.3</ele>
        <time>2022-02-09T11:33:39Z</time>
      </trkpt>
      <trkpt lat="42.86765" lon="0.21714">
        <ele>2544.3</ele>
        <time>2022-02-09T11:33:40Z</time>
      </trkpt>
      <trkpt lat="42.86765" lon="0.21714">
        <ele>2544.3</ele>
        <time>2022-02-09T11:33:41Z</time>
      </trkpt>
      <trkpt lat="42.86765" lon="0.21714">
        <ele>2544.3</ele>
        <time>2022-02-09T11:33:42Z</time>
      </trkpt>
      <trkpt lat="42.86765" lon="0.21714">
        <ele>2544.3</ele>
        <time>2022-02-09T11:33:43Z</time>
      </trkpt>
      <trkpt lat="42.86765" lon="0.21714">
        <ele>2544.3</ele>
        <time>2022-02-09T11:33:44Z</time>
      </trkpt>
      <trkpt lat="42.86765" lon="0.21714">
        <ele>2544.3</ele>
        <time>2022-02-09T11:33:45Z</time>
      </trkpt>
      <trkpt lat="42.86765" lon="0.21714">
        <ele>2544.3</ele>
        <time>2022-02-09T11:33:46Z</time>
      </trkpt>
      <trkpt lat="42.86765" lon="0.21714">
        <ele>2544.3</ele>
        <time>2022-02-09T11:33:47Z</time>
      </trkpt>
      <trkpt lat="42.86765" lon="0.21714">
        <ele>2544.3</ele>
        <time>2022-02-09T11:33:48Z</time>
      </trkpt>
      <trkpt lat="42.86765" lon="0.21714">
        <ele>2544.3</ele>
        <time>2022-02-09T11:33:49Z</time>
      </trkpt>
      <trkpt lat="42.86765" lon="0.21714">
        <ele>2544.3</ele>
        <time>2022-02-09T11:33:50Z</time>
      </trkpt>
      <trkpt lat="42.86765" lon="0.21714">
        <ele>2544.3</ele>
        <time>2022-02-09T11:33:51Z</time>
      </trkpt>
      <trkpt lat="42.86765" lon="0.21714">
        <ele>2544.3</ele>
        <time>2022-02-09T11:33:52Z</time>
      </trkpt>
      <trkpt lat="42.86765" lon="0.21714">
        <ele>2544.3</ele>
        <time>2022-02-09T11:33:53Z</time>
      </trkpt>
      <trkpt lat="42.86765" lon="0.21714">
        <ele>2544.3</ele>
        <time>2022-02-09T11:33:54Z</time>
      </trkpt>
      <trkpt lat="42.86765" lon="0.21714">
        <ele>2544.3</ele>
        <time>2022-02-09T11:33:55Z</time>
      </trkpt>
      <trkpt lat="42.86766" lon="0.21713">
        <ele>2544.3</ele>
        <time>2022-02-09T11:33:56Z</time>
      </trkpt>
      <trkpt lat="42.86767" lon="0.21712">
        <ele>2545.2</ele>
        <time>2022-02-09T11:33:57Z</time>
      </trkpt>
      <trkpt lat="42.86767" lon="0.21712">
        <ele>2545.2</ele>
        <time>2022-02-09T11:33:58Z</time>
      </trkpt>
      <trkpt lat="42.86767" lon="0.21711">
        <ele>2545.2</ele>
        <time>2022-02-09T11:33:59Z</time>
      </trkpt>
      <trkpt lat="42.86768" lon="0.2171">
        <ele>2545.7</ele>
        <time>2022-02-09T11:34:00Z</time>
      </trkpt>
      <trkpt lat="42.86768" lon="0.2171">
        <ele>2545.7</ele>
        <time>2022-02-09T11:34:01Z</time>
      </trkpt>
      <trkpt lat="42.86769" lon="0.21709">
        <ele>2545.7</ele>
        <time>2022-02-09T11:34:02Z</time>
      </trkpt>
      <trkpt lat="42.86769" lon="0.21708">
        <ele>2545.7</ele>
        <time>2022-02-09T11:34:03Z</time>
      </trkpt>
      <trkpt lat="42.86769" lon="0.21707">
        <ele>2546.7</ele>
        <time>2022-02-09T11:34:04Z</time>
      </trkpt>
      <trkpt lat="42.8677" lon="0.21707">
        <ele>2547.1</ele>
        <time>2022-02-09T11:34:05Z</time>
      </trkpt>
      <trkpt lat="42.8677" lon="0.21706">
        <ele>2547.1</ele>
        <time>2022-02-09T11:34:06Z</time>
      </trkpt>
      <trkpt lat="42.8677" lon="0.21705">
        <ele>2547.1</ele>
        <time>2022-02-09T11:34:07Z</time>
      </trkpt>
      <trkpt lat="42.86771" lon="0.21704">
        <ele>2547.1</ele>
        <time>2022-02-09T11:34:08Z</time>
      </trkpt>
      <trkpt lat="42.86771" lon="0.21704">
        <ele>2547.1</ele>
        <time>2022-02-09T11:34:09Z</time>
      </trkpt>
      <trkpt lat="42.86771" lon="0.21703">
        <ele>2547.1</ele>
        <time>2022-02-09T11:34:10Z</time>
      </trkpt>
      <trkpt lat="42.86772" lon="0.21702">
        <ele>2547.6</ele>
        <time>2022-02-09T11:34:11Z</time>
      </trkpt>
      <trkpt lat="42.86772" lon="0.21701">
        <ele>2547.6</ele>
        <time>2022-02-09T11:34:12Z</time>
      </trkpt>
      <trkpt lat="42.86773" lon="0.21701">
        <ele>2548.7</ele>
        <time>2022-02-09T11:34:13Z</time>
      </trkpt>
      <trkpt lat="42.86773" lon="0.217">
        <ele>2548.7</ele>
        <time>2022-02-09T11:34:14Z</time>
      </trkpt>
      <trkpt lat="42.86774" lon="0.217">
        <ele>2548.7</ele>
        <time>2022-02-09T11:34:15Z</time>
      </trkpt>
      <trkpt lat="42.86774" lon="0.21701">
        <ele>2548.7</ele>
        <time>2022-02-09T11:34:16Z</time>
      </trkpt>
      <trkpt lat="42.86775" lon="0.21701">
        <ele>2548.7</ele>
        <time>2022-02-09T11:34:17Z</time>
      </trkpt>
      <trkpt lat="42.86775" lon="0.21702">
        <ele>2548.7</ele>
        <time>2022-02-09T11:34:18Z</time>
      </trkpt>
      <trkpt lat="42.86776" lon="0.21703">
        <ele>2549.6</ele>
        <time>2022-02-09T11:34:19Z</time>
      </trkpt>
      <trkpt lat="42.86777" lon="0.21704">
        <ele>2549.6</ele>
        <time>2022-02-09T11:34:20Z</time>
      </trkpt>
      <trkpt lat="42.86778" lon="0.21704">
        <ele>2549.6</ele>
        <time>2022-02-09T11:34:21Z</time>
      </trkpt>
      <trkpt lat="42.86778" lon="0.21704">
        <ele>2549.6</ele>
        <time>2022-02-09T11:34:22Z</time>
      </trkpt>
      <trkpt lat="42.86779" lon="0.21705">
        <ele>2551</ele>
        <time>2022-02-09T11:34:23Z</time>
      </trkpt>
      <trkpt lat="42.8678" lon="0.21705">
        <ele>2551</ele>
        <time>2022-02-09T11:34:24Z</time>
      </trkpt>
      <trkpt lat="42.8678" lon="0.21705">
        <ele>2551</ele>
        <time>2022-02-09T11:34:25Z</time>
      </trkpt>
      <trkpt lat="42.8678" lon="0.21705">
        <ele>2551</ele>
        <time>2022-02-09T11:34:26Z</time>
      </trkpt>
      <trkpt lat="42.86779" lon="0.21705">
        <ele>2551</ele>
        <time>2022-02-09T11:34:27Z</time>
      </trkpt>
      <trkpt lat="42.86779" lon="0.21706">
        <ele>2549.6</ele>
        <time>2022-02-09T11:34:28Z</time>
      </trkpt>
      <trkpt lat="42.86779" lon="0.21706">
        <ele>2549.6</ele>
        <time>2022-02-09T11:34:29Z</time>
      </trkpt>
      <trkpt lat="42.86779" lon="0.21706">
        <ele>2549.6</ele>
        <time>2022-02-09T11:34:30Z</time>
      </trkpt>
      <trkpt lat="42.86779" lon="0.21706">
        <ele>2549.6</ele>
        <time>2022-02-09T11:34:31Z</time>
      </trkpt>
      <trkpt lat="42.86779" lon="0.21706">
        <ele>2549.6</ele>
        <time>2022-02-09T11:34:32Z</time>
      </trkpt>
      <trkpt lat="42.86779" lon="0.21706">
        <ele>2549.6</ele>
        <time>2022-02-09T11:34:33Z</time>
      </trkpt>
      <trkpt lat="42.86779" lon="0.21706">
        <ele>2549.6</ele>
        <time>2022-02-09T11:34:34Z</time>
      </trkpt>
      <trkpt lat="42.86779" lon="0.21706">
        <ele>2549.6</ele>
        <time>2022-02-09T11:34:35Z</time>
      </trkpt>
      <trkpt lat="42.86779" lon="0.21706">
        <ele>2549.6</ele>
        <time>2022-02-09T11:34:36Z</time>
      </trkpt>
      <trkpt lat="42.86779" lon="0.21706">
        <ele>2549.6</ele>
        <time>2022-02-09T11:34:37Z</time>
      </trkpt>
      <trkpt lat="42.86779" lon="0.21706">
        <ele>2549.6</ele>
        <time>2022-02-09T11:34:38Z</time>
      </trkpt>
      <trkpt lat="42.86779" lon="0.21706">
        <ele>2549.6</ele>
        <time>2022-02-09T11:34:39Z</time>
      </trkpt>
      <trkpt lat="42.86779" lon="0.21706">
        <ele>2549.6</ele>
        <time>2022-02-09T11:34:40Z</time>
      </trkpt>
      <trkpt lat="42.86779" lon="0.21706">
        <ele>2549.6</ele>
        <time>2022-02-09T11:34:41Z</time>
      </trkpt>
      <trkpt lat="42.86778" lon="0.21706">
        <ele>2549.6</ele>
        <time>2022-02-09T11:34:42Z</time>
      </trkpt>
      <trkpt lat="42.86778" lon="0.21706">
        <ele>2549.6</ele>
        <time>2022-02-09T11:34:43Z</time>
      </trkpt>
      <trkpt lat="42.86778" lon="0.21706">
        <ele>2549.6</ele>
        <time>2022-02-09T11:34:44Z</time>
      </trkpt>
      <trkpt lat="42.86779" lon="0.21706">
        <ele>2551</ele>
        <time>2022-02-09T11:34:45Z</time>
      </trkpt>
      <trkpt lat="42.86779" lon="0.21706">
        <ele>2551</ele>
        <time>2022-02-09T11:34:46Z</time>
      </trkpt>
      <trkpt lat="42.8678" lon="0.21705">
        <ele>2551</ele>
        <time>2022-02-09T11:34:47Z</time>
      </trkpt>
      <trkpt lat="42.8678" lon="0.21704">
        <ele>2551</ele>
        <time>2022-02-09T11:34:48Z</time>
      </trkpt>
      <trkpt lat="42.8678" lon="0.21703">
        <ele>2551</ele>
        <time>2022-02-09T11:34:49Z</time>
      </trkpt>
      <trkpt lat="42.86781" lon="0.21703">
        <ele>2551</ele>
        <time>2022-02-09T11:34:50Z</time>
      </trkpt>
      <trkpt lat="42.86781" lon="0.21702">
        <ele>2551.4</ele>
        <time>2022-02-09T11:34:51Z</time>
      </trkpt>
      <trkpt lat="42.86782" lon="0.21701">
        <ele>2551.4</ele>
        <time>2022-02-09T11:34:52Z</time>
      </trkpt>
      <trkpt lat="42.86782" lon="0.217">
        <ele>2552.9</ele>
        <time>2022-02-09T11:34:53Z</time>
      </trkpt>
      <trkpt lat="42.86782" lon="0.21699">
        <ele>2552.9</ele>
        <time>2022-02-09T11:34:54Z</time>
      </trkpt>
      <trkpt lat="42.86783" lon="0.21698">
        <ele>2552.9</ele>
        <time>2022-02-09T11:34:55Z</time>
      </trkpt>
      <trkpt lat="42.86783" lon="0.21698">
        <ele>2553.4</ele>
        <time>2022-02-09T11:34:56Z</time>
      </trkpt>
      <trkpt lat="42.86783" lon="0.21697">
        <ele>2553.4</ele>
        <time>2022-02-09T11:34:57Z</time>
      </trkpt>
      <trkpt lat="42.86784" lon="0.21696">
        <ele>2553.4</ele>
        <time>2022-02-09T11:34:58Z</time>
      </trkpt>
      <trkpt lat="42.86784" lon="0.21695">
        <ele>2553.4</ele>
        <time>2022-02-09T11:34:59Z</time>
      </trkpt>
      <trkpt lat="42.86785" lon="0.21694">
        <ele>2553.4</ele>
        <time>2022-02-09T11:35:00Z</time>
      </trkpt>
      <trkpt lat="42.86785" lon="0.21693">
        <ele>2555.2</ele>
        <time>2022-02-09T11:35:01Z</time>
      </trkpt>
      <trkpt lat="42.86786" lon="0.21693">
        <ele>2555.2</ele>
        <time>2022-02-09T11:35:02Z</time>
      </trkpt>
      <trkpt lat="42.86786" lon="0.21692">
        <ele>2555.2</ele>
        <time>2022-02-09T11:35:03Z</time>
      </trkpt>
      <trkpt lat="42.86786" lon="0.21691">
        <ele>2555.2</ele>
        <time>2022-02-09T11:35:04Z</time>
      </trkpt>
      <trkpt lat="42.86787" lon="0.2169">
        <ele>2555.2</ele>
        <time>2022-02-09T11:35:05Z</time>
      </trkpt>
      <trkpt lat="42.86787" lon="0.2169">
        <ele>2555.2</ele>
        <time>2022-02-09T11:35:06Z</time>
      </trkpt>
      <trkpt lat="42.86788" lon="0.21689">
        <ele>2555.6</ele>
        <time>2022-02-09T11:35:07Z</time>
      </trkpt>
      <trkpt lat="42.86788" lon="0.21688">
        <ele>2557</ele>
        <time>2022-02-09T11:35:08Z</time>
      </trkpt>
      <trkpt lat="42.86788" lon="0.21687">
        <ele>2557</ele>
        <time>2022-02-09T11:35:09Z</time>
      </trkpt>
      <trkpt lat="42.86789" lon="0.21687">
        <ele>2557</ele>
        <time>2022-02-09T11:35:10Z</time>
      </trkpt>
      <trkpt lat="42.86789" lon="0.21686">
        <ele>2557</ele>
        <time>2022-02-09T11:35:11Z</time>
      </trkpt>
      <trkpt lat="42.8679" lon="0.21686">
        <ele>2557</ele>
        <time>2022-02-09T11:35:12Z</time>
      </trkpt>
      <trkpt lat="42.8679" lon="0.21685">
        <ele>2557.4</ele>
        <time>2022-02-09T11:35:13Z</time>
      </trkpt>
      <trkpt lat="42.8679" lon="0.21684">
        <ele>2557.4</ele>
        <time>2022-02-09T11:35:14Z</time>
      </trkpt>
      <trkpt lat="42.86791" lon="0.21683">
        <ele>2557.4</ele>
        <time>2022-02-09T11:35:15Z</time>
      </trkpt>
      <trkpt lat="42.86791" lon="0.21683">
        <ele>2557.4</ele>
        <time>2022-02-09T11:35:16Z</time>
      </trkpt>
      <trkpt lat="42.86791" lon="0.21682">
        <ele>2557.4</ele>
        <time>2022-02-09T11:35:17Z</time>
      </trkpt>
      <trkpt lat="42.86791" lon="0.21681">
        <ele>2559.6</ele>
        <time>2022-02-09T11:35:18Z</time>
      </trkpt>
      <trkpt lat="42.86792" lon="0.2168">
        <ele>2560</ele>
        <time>2022-02-09T11:35:19Z</time>
      </trkpt>
      <trkpt lat="42.86792" lon="0.2168">
        <ele>2560</ele>
        <time>2022-02-09T11:35:20Z</time>
      </trkpt>
      <trkpt lat="42.86793" lon="0.21679">
        <ele>2560</ele>
        <time>2022-02-09T11:35:21Z</time>
      </trkpt>
      <trkpt lat="42.86793" lon="0.21678">
        <ele>2560</ele>
        <time>2022-02-09T11:35:22Z</time>
      </trkpt>
      <trkpt lat="42.86793" lon="0.21677">
        <ele>2560</ele>
        <time>2022-02-09T11:35:23Z</time>
      </trkpt>
      <trkpt lat="42.86794" lon="0.21677">
        <ele>2560.4</ele>
        <time>2022-02-09T11:35:24Z</time>
      </trkpt>
      <trkpt lat="42.86794" lon="0.21676">
        <ele>2560.4</ele>
        <time>2022-02-09T11:35:25Z</time>
      </trkpt>
      <trkpt lat="42.86794" lon="0.21675">
        <ele>2560.4</ele>
        <time>2022-02-09T11:35:26Z</time>
      </trkpt>
      <trkpt lat="42.86794" lon="0.21674">
        <ele>2561.9</ele>
        <time>2022-02-09T11:35:27Z</time>
      </trkpt>
      <trkpt lat="42.86795" lon="0.21674">
        <ele>2561.9</ele>
        <time>2022-02-09T11:35:28Z</time>
      </trkpt>
      <trkpt lat="42.86795" lon="0.21673">
        <ele>2561.9</ele>
        <time>2022-02-09T11:35:29Z</time>
      </trkpt>
      <trkpt lat="42.86795" lon="0.21672">
        <ele>2562.4</ele>
        <time>2022-02-09T11:35:30Z</time>
      </trkpt>
      <trkpt lat="42.86796" lon="0.21672">
        <ele>2562.4</ele>
        <time>2022-02-09T11:35:31Z</time>
      </trkpt>
      <trkpt lat="42.86796" lon="0.21671">
        <ele>2562.4</ele>
        <time>2022-02-09T11:35:32Z</time>
      </trkpt>
      <trkpt lat="42.86796" lon="0.2167">
        <ele>2562.4</ele>
        <time>2022-02-09T11:35:33Z</time>
      </trkpt>
      <trkpt lat="42.86796" lon="0.21669">
        <ele>2562.4</ele>
        <time>2022-02-09T11:35:34Z</time>
      </trkpt>
      <trkpt lat="42.86797" lon="0.21669">
        <ele>2562.4</ele>
        <time>2022-02-09T11:35:35Z</time>
      </trkpt>
      <trkpt lat="42.86797" lon="0.21668">
        <ele>2562.9</ele>
        <time>2022-02-09T11:35:36Z</time>
      </trkpt>
      <trkpt lat="42.86797" lon="0.21667">
        <ele>2562.9</ele>
        <time>2022-02-09T11:35:37Z</time>
      </trkpt>
      <trkpt lat="42.86798" lon="0.21666">
        <ele>2562.9</ele>
        <time>2022-02-09T11:35:38Z</time>
      </trkpt>
      <trkpt lat="42.86798" lon="0.21666">
        <ele>2564.7</ele>
        <time>2022-02-09T11:35:39Z</time>
      </trkpt>
      <trkpt lat="42.86798" lon="0.21665">
        <ele>2564.7</ele>
        <time>2022-02-09T11:35:40Z</time>
      </trkpt>
      <trkpt lat="42.86798" lon="0.21664">
        <ele>2564.7</ele>
        <time>2022-02-09T11:35:41Z</time>
      </trkpt>
      <trkpt lat="42.86799" lon="0.21664">
        <ele>2565.2</ele>
        <time>2022-02-09T11:35:42Z</time>
      </trkpt>
      <trkpt lat="42.86799" lon="0.21663">
        <ele>2565.2</ele>
        <time>2022-02-09T11:35:43Z</time>
      </trkpt>
      <trkpt lat="42.86799" lon="0.21662">
        <ele>2565.2</ele>
        <time>2022-02-09T11:35:44Z</time>
      </trkpt>
      <trkpt lat="42.86799" lon="0.21662">
        <ele>2565.2</ele>
        <time>2022-02-09T11:35:45Z</time>
      </trkpt>
      <trkpt lat="42.868" lon="0.21661">
        <ele>2565.2</ele>
        <time>2022-02-09T11:35:46Z</time>
      </trkpt>
      <trkpt lat="42.868" lon="0.2166">
        <ele>2565.2</ele>
        <time>2022-02-09T11:35:47Z</time>
      </trkpt>
      <trkpt lat="42.86801" lon="0.21659">
        <ele>2565.7</ele>
        <time>2022-02-09T11:35:48Z</time>
      </trkpt>
      <trkpt lat="42.86801" lon="0.21658">
        <ele>2567.7</ele>
        <time>2022-02-09T11:35:49Z</time>
      </trkpt>
      <trkpt lat="42.86801" lon="0.21658">
        <ele>2567.7</ele>
        <time>2022-02-09T11:35:50Z</time>
      </trkpt>
      <trkpt lat="42.86802" lon="0.21657">
        <ele>2567.7</ele>
        <time>2022-02-09T11:35:51Z</time>
      </trkpt>
      <trkpt lat="42.86802" lon="0.21656">
        <ele>2567.7</ele>
        <time>2022-02-09T11:35:52Z</time>
      </trkpt>
      <trkpt lat="42.86802" lon="0.21655">
        <ele>2567.7</ele>
        <time>2022-02-09T11:35:53Z</time>
      </trkpt>
      <trkpt lat="42.86802" lon="0.21654">
        <ele>2568.2</ele>
        <time>2022-02-09T11:35:54Z</time>
      </trkpt>
      <trkpt lat="42.86802" lon="0.21654">
        <ele>2568.2</ele>
        <time>2022-02-09T11:35:55Z</time>
      </trkpt>
      <trkpt lat="42.86802" lon="0.21653">
        <ele>2568.2</ele>
        <time>2022-02-09T11:35:56Z</time>
      </trkpt>
      <trkpt lat="42.86803" lon="0.21653">
        <ele>2568.2</ele>
        <time>2022-02-09T11:35:57Z</time>
      </trkpt>
      <trkpt lat="42.86803" lon="0.21652">
        <ele>2568.2</ele>
        <time>2022-02-09T11:35:58Z</time>
      </trkpt>
      <trkpt lat="42.86803" lon="0.21651">
        <ele>2568.2</ele>
        <time>2022-02-09T11:35:59Z</time>
      </trkpt>
      <trkpt lat="42.86803" lon="0.21651">
        <ele>2568.6</ele>
        <time>2022-02-09T11:36:00Z</time>
      </trkpt>
      <trkpt lat="42.86803" lon="0.2165">
        <ele>2568.6</ele>
        <time>2022-02-09T11:36:01Z</time>
      </trkpt>
      <trkpt lat="42.86804" lon="0.21649">
        <ele>2568.6</ele>
        <time>2022-02-09T11:36:02Z</time>
      </trkpt>
      <trkpt lat="42.86804" lon="0.21649">
        <ele>2568.6</ele>
        <time>2022-02-09T11:36:03Z</time>
      </trkpt>
      <trkpt lat="42.86804" lon="0.21648">
        <ele>2570.7</ele>
        <time>2022-02-09T11:36:04Z</time>
      </trkpt>
      <trkpt lat="42.86804" lon="0.21647">
        <ele>2570.7</ele>
        <time>2022-02-09T11:36:05Z</time>
      </trkpt>
      <trkpt lat="42.86804" lon="0.21647">
        <ele>2570.7</ele>
        <time>2022-02-09T11:36:06Z</time>
      </trkpt>
      <trkpt lat="42.86805" lon="0.21646">
        <ele>2571.2</ele>
        <time>2022-02-09T11:36:07Z</time>
      </trkpt>
      <trkpt lat="42.86805" lon="0.21645">
        <ele>2571.2</ele>
        <time>2022-02-09T11:36:08Z</time>
      </trkpt>
      <trkpt lat="42.86805" lon="0.21645">
        <ele>2571.2</ele>
        <time>2022-02-09T11:36:09Z</time>
      </trkpt>
      <trkpt lat="42.86805" lon="0.21644">
        <ele>2571.2</ele>
        <time>2022-02-09T11:36:10Z</time>
      </trkpt>
      <trkpt lat="42.86806" lon="0.21643">
        <ele>2571.2</ele>
        <time>2022-02-09T11:36:11Z</time>
      </trkpt>
      <trkpt lat="42.86806" lon="0.21643">
        <ele>2571.2</ele>
        <time>2022-02-09T11:36:12Z</time>
      </trkpt>
      <trkpt lat="42.86806" lon="0.21642">
        <ele>2571.6</ele>
        <time>2022-02-09T11:36:13Z</time>
      </trkpt>
      <trkpt lat="42.86807" lon="0.21641">
        <ele>2571.6</ele>
        <time>2022-02-09T11:36:14Z</time>
      </trkpt>
      <trkpt lat="42.86807" lon="0.21641">
        <ele>2571.6</ele>
        <time>2022-02-09T11:36:15Z</time>
      </trkpt>
      <trkpt lat="42.86807" lon="0.2164">
        <ele>2571.6</ele>
        <time>2022-02-09T11:36:16Z</time>
      </trkpt>
      <trkpt lat="42.86807" lon="0.21639">
        <ele>2573.8</ele>
        <time>2022-02-09T11:36:17Z</time>
      </trkpt>
      <trkpt lat="42.86807" lon="0.21639">
        <ele>2573.8</ele>
        <time>2022-02-09T11:36:18Z</time>
      </trkpt>
      <trkpt lat="42.86808" lon="0.21638">
        <ele>2573.8</ele>
        <time>2022-02-09T11:36:19Z</time>
      </trkpt>
      <trkpt lat="42.86808" lon="0.21637">
        <ele>2574.2</ele>
        <time>2022-02-09T11:36:20Z</time>
      </trkpt>
      <trkpt lat="42.86808" lon="0.21637">
        <ele>2574.2</ele>
        <time>2022-02-09T11:36:21Z</time>
      </trkpt>
      <trkpt lat="42.86809" lon="0.21636">
        <ele>2574.2</ele>
        <time>2022-02-09T11:36:22Z</time>
      </trkpt>
      <trkpt lat="42.86809" lon="0.21635">
        <ele>2574.2</ele>
        <time>2022-02-09T11:36:23Z</time>
      </trkpt>
      <trkpt lat="42.86809" lon="0.21634">
        <ele>2574.2</ele>
        <time>2022-02-09T11:36:24Z</time>
      </trkpt>
      <trkpt lat="42.8681" lon="0.21634">
        <ele>2574.2</ele>
        <time>2022-02-09T11:36:25Z</time>
      </trkpt>
      <trkpt lat="42.8681" lon="0.21633">
        <ele>2574.7</ele>
        <time>2022-02-09T11:36:26Z</time>
      </trkpt>
      <trkpt lat="42.8681" lon="0.21632">
        <ele>2574.7</ele>
        <time>2022-02-09T11:36:27Z</time>
      </trkpt>
      <trkpt lat="42.86811" lon="0.21632">
        <ele>2576.8</ele>
        <time>2022-02-09T11:36:28Z</time>
      </trkpt>
      <trkpt lat="42.86811" lon="0.21631">
        <ele>2576.8</ele>
        <time>2022-02-09T11:36:29Z</time>
      </trkpt>
      <trkpt lat="42.86811" lon="0.2163">
        <ele>2576.8</ele>
        <time>2022-02-09T11:36:30Z</time>
      </trkpt>
      <trkpt lat="42.86811" lon="0.21629">
        <ele>2576.8</ele>
        <time>2022-02-09T11:36:31Z</time>
      </trkpt>
      <trkpt lat="42.86811" lon="0.21629">
        <ele>2577.3</ele>
        <time>2022-02-09T11:36:32Z</time>
      </trkpt>
      <trkpt lat="42.86811" lon="0.21628">
        <ele>2577.3</ele>
        <time>2022-02-09T11:36:33Z</time>
      </trkpt>
      <trkpt lat="42.86812" lon="0.21627">
        <ele>2577.3</ele>
        <time>2022-02-09T11:36:34Z</time>
      </trkpt>
      <trkpt lat="42.86812" lon="0.21627">
        <ele>2577.3</ele>
        <time>2022-02-09T11:36:35Z</time>
      </trkpt>
      <trkpt lat="42.86812" lon="0.21626">
        <ele>2577.3</ele>
        <time>2022-02-09T11:36:36Z</time>
      </trkpt>
      <trkpt lat="42.86812" lon="0.21625">
        <ele>2577.3</ele>
        <time>2022-02-09T11:36:37Z</time>
      </trkpt>
      <trkpt lat="42.86812" lon="0.21625">
        <ele>2577.8</ele>
        <time>2022-02-09T11:36:38Z</time>
      </trkpt>
      <trkpt lat="42.86812" lon="0.21624">
        <ele>2577.8</ele>
        <time>2022-02-09T11:36:39Z</time>
      </trkpt>
      <trkpt lat="42.86813" lon="0.21624">
        <ele>2577.8</ele>
        <time>2022-02-09T11:36:40Z</time>
      </trkpt>
      <trkpt lat="42.86813" lon="0.21624">
        <ele>2577.8</ele>
        <time>2022-02-09T11:36:41Z</time>
      </trkpt>
      <trkpt lat="42.86814" lon="0.21624">
        <ele>2579.8</ele>
        <time>2022-02-09T11:36:42Z</time>
      </trkpt>
      <trkpt lat="42.86814" lon="0.21625">
        <ele>2579.8</ele>
        <time>2022-02-09T11:36:43Z</time>
      </trkpt>
      <trkpt lat="42.86814" lon="0.21625">
        <ele>2579.8</ele>
        <time>2022-02-09T11:36:44Z</time>
      </trkpt>
      <trkpt lat="42.86815" lon="0.21626">
        <ele>2579.3</ele>
        <time>2022-02-09T11:36:45Z</time>
      </trkpt>
      <trkpt lat="42.86815" lon="0.21627">
        <ele>2579.3</ele>
        <time>2022-02-09T11:36:46Z</time>
      </trkpt>
      <trkpt lat="42.86816" lon="0.21627">
        <ele>2579.3</ele>
        <time>2022-02-09T11:36:47Z</time>
      </trkpt>
      <trkpt lat="42.86816" lon="0.21628">
        <ele>2579.3</ele>
        <time>2022-02-09T11:36:48Z</time>
      </trkpt>
      <trkpt lat="42.86816" lon="0.21628">
        <ele>2579.3</ele>
        <time>2022-02-09T11:36:49Z</time>
      </trkpt>
      <trkpt lat="42.86817" lon="0.21628">
        <ele>2581.3</ele>
        <time>2022-02-09T11:36:50Z</time>
      </trkpt>
      <trkpt lat="42.86817" lon="0.21629">
        <ele>2581.3</ele>
        <time>2022-02-09T11:36:51Z</time>
      </trkpt>
      <trkpt lat="42.86817" lon="0.2163">
        <ele>2580.8</ele>
        <time>2022-02-09T11:36:52Z</time>
      </trkpt>
      <trkpt lat="42.86818" lon="0.2163">
        <ele>2580.8</ele>
        <time>2022-02-09T11:36:53Z</time>
      </trkpt>
      <trkpt lat="42.86818" lon="0.2163">
        <ele>2580.8</ele>
        <time>2022-02-09T11:36:54Z</time>
      </trkpt>
      <trkpt lat="42.86818" lon="0.21631">
        <ele>2580.8</ele>
        <time>2022-02-09T11:36:55Z</time>
      </trkpt>
      <trkpt lat="42.86819" lon="0.21631">
        <ele>2580.8</ele>
        <time>2022-02-09T11:36:56Z</time>
      </trkpt>
      <trkpt lat="42.86819" lon="0.21631">
        <ele>2580.8</ele>
        <time>2022-02-09T11:36:57Z</time>
      </trkpt>
      <trkpt lat="42.86819" lon="0.2163">
        <ele>2580.8</ele>
        <time>2022-02-09T11:36:58Z</time>
      </trkpt>
      <trkpt lat="42.8682" lon="0.2163">
        <ele>2582.9</ele>
        <time>2022-02-09T11:36:59Z</time>
      </trkpt>
      <trkpt lat="42.8682" lon="0.21629">
        <ele>2583.4</ele>
        <time>2022-02-09T11:37:00Z</time>
      </trkpt>
      <trkpt lat="42.8682" lon="0.21628">
        <ele>2583.4</ele>
        <time>2022-02-09T11:37:01Z</time>
      </trkpt>
      <trkpt lat="42.8682" lon="0.21627">
        <ele>2583.4</ele>
        <time>2022-02-09T11:37:02Z</time>
      </trkpt>
      <trkpt lat="42.8682" lon="0.21626">
        <ele>2583.4</ele>
        <time>2022-02-09T11:37:03Z</time>
      </trkpt>
      <trkpt lat="42.86821" lon="0.21625">
        <ele>2583.4</ele>
        <time>2022-02-09T11:37:04Z</time>
      </trkpt>
      <trkpt lat="42.86821" lon="0.21625">
        <ele>2584</ele>
        <time>2022-02-09T11:37:05Z</time>
      </trkpt>
      <trkpt lat="42.86821" lon="0.21624">
        <ele>2584</ele>
        <time>2022-02-09T11:37:06Z</time>
      </trkpt>
      <trkpt lat="42.86821" lon="0.21623">
        <ele>2584</ele>
        <time>2022-02-09T11:37:07Z</time>
      </trkpt>
      <trkpt lat="42.86821" lon="0.21622">
        <ele>2584</ele>
        <time>2022-02-09T11:37:08Z</time>
      </trkpt>
      <trkpt lat="42.86822" lon="0.21622">
        <ele>2584</ele>
        <time>2022-02-09T11:37:09Z</time>
      </trkpt>
      <trkpt lat="42.86822" lon="0.21621">
        <ele>2584.6</ele>
        <time>2022-02-09T11:37:10Z</time>
      </trkpt>
      <trkpt lat="42.86822" lon="0.2162">
        <ele>2584.6</ele>
        <time>2022-02-09T11:37:11Z</time>
      </trkpt>
      <trkpt lat="42.86822" lon="0.21619">
        <ele>2584.6</ele>
        <time>2022-02-09T11:37:12Z</time>
      </trkpt>
      <trkpt lat="42.86822" lon="0.21618">
        <ele>2584.6</ele>
        <time>2022-02-09T11:37:13Z</time>
      </trkpt>
      <trkpt lat="42.86823" lon="0.21618">
        <ele>2584.6</ele>
        <time>2022-02-09T11:37:14Z</time>
      </trkpt>
      <trkpt lat="42.86823" lon="0.21617">
        <ele>2584.6</ele>
        <time>2022-02-09T11:37:15Z</time>
      </trkpt>
      <trkpt lat="42.86823" lon="0.21616">
        <ele>2585.3</ele>
        <time>2022-02-09T11:37:16Z</time>
      </trkpt>
      <trkpt lat="42.86823" lon="0.21615">
        <ele>2585.3</ele>
        <time>2022-02-09T11:37:17Z</time>
      </trkpt>
      <trkpt lat="42.86823" lon="0.21614">
        <ele>2585.3</ele>
        <time>2022-02-09T11:37:18Z</time>
      </trkpt>
      <trkpt lat="42.86823" lon="0.21613">
        <ele>2585.3</ele>
        <time>2022-02-09T11:37:19Z</time>
      </trkpt>
      <trkpt lat="42.86823" lon="0.21613">
        <ele>2585.3</ele>
        <time>2022-02-09T11:37:20Z</time>
      </trkpt>
      <trkpt lat="42.86823" lon="0.21612">
        <ele>2588.3</ele>
        <time>2022-02-09T11:37:21Z</time>
      </trkpt>
      <trkpt lat="42.86823" lon="0.21611">
        <ele>2588.3</ele>
        <time>2022-02-09T11:37:22Z</time>
      </trkpt>
      <trkpt lat="42.86823" lon="0.2161">
        <ele>2588.3</ele>
        <time>2022-02-09T11:37:23Z</time>
      </trkpt>
      <trkpt lat="42.86823" lon="0.21609">
        <ele>2588.3</ele>
        <time>2022-02-09T11:37:24Z</time>
      </trkpt>
      <trkpt lat="42.86823" lon="0.21609">
        <ele>2588.3</ele>
        <time>2022-02-09T11:37:25Z</time>
      </trkpt>
      <trkpt lat="42.86823" lon="0.21608">
        <ele>2588.9</ele>
        <time>2022-02-09T11:37:26Z</time>
      </trkpt>
      <trkpt lat="42.86824" lon="0.21607">
        <ele>2588.9</ele>
        <time>2022-02-09T11:37:27Z</time>
      </trkpt>
      <trkpt lat="42.86824" lon="0.21606">
        <ele>2588.9</ele>
        <time>2022-02-09T11:37:28Z</time>
      </trkpt>
      <trkpt lat="42.86824" lon="0.21605">
        <ele>2588.9</ele>
        <time>2022-02-09T11:37:29Z</time>
      </trkpt>
      <trkpt lat="42.86824" lon="0.21604">
        <ele>2588.9</ele>
        <time>2022-02-09T11:37:30Z</time>
      </trkpt>
      <trkpt lat="42.86824" lon="0.21604">
        <ele>2588.9</ele>
        <time>2022-02-09T11:37:31Z</time>
      </trkpt>
      <trkpt lat="42.86824" lon="0.21603">
        <ele>2589.6</ele>
        <time>2022-02-09T11:37:32Z</time>
      </trkpt>
      <trkpt lat="42.86825" lon="0.21602">
        <ele>2589.6</ele>
        <time>2022-02-09T11:37:33Z</time>
      </trkpt>
      <trkpt lat="42.86825" lon="0.21602">
        <ele>2589.6</ele>
        <time>2022-02-09T11:37:34Z</time>
      </trkpt>
      <trkpt lat="42.86825" lon="0.21601">
        <ele>2589.6</ele>
        <time>2022-02-09T11:37:35Z</time>
      </trkpt>
      <trkpt lat="42.86825" lon="0.216">
        <ele>2589.6</ele>
        <time>2022-02-09T11:37:36Z</time>
      </trkpt>
      <trkpt lat="42.86825" lon="0.21599">
        <ele>2590.4</ele>
        <time>2022-02-09T11:37:37Z</time>
      </trkpt>
      <trkpt lat="42.86825" lon="0.21598">
        <ele>2590.4</ele>
        <time>2022-02-09T11:37:38Z</time>
      </trkpt>
      <trkpt lat="42.86825" lon="0.21597">
        <ele>2590.4</ele>
        <time>2022-02-09T11:37:39Z</time>
      </trkpt>
      <trkpt lat="42.86825" lon="0.21596">
        <ele>2590.4</ele>
        <time>2022-02-09T11:37:40Z</time>
      </trkpt>
      <trkpt lat="42.86825" lon="0.21595">
        <ele>2590.4</ele>
        <time>2022-02-09T11:37:41Z</time>
      </trkpt>
      <trkpt lat="42.86826" lon="0.21595">
        <ele>2591.1</ele>
        <time>2022-02-09T11:37:42Z</time>
      </trkpt>
      <trkpt lat="42.86826" lon="0.21594">
        <ele>2591.1</ele>
        <time>2022-02-09T11:37:43Z</time>
      </trkpt>
      <trkpt lat="42.86826" lon="0.21593">
        <ele>2591.1</ele>
        <time>2022-02-09T11:37:44Z</time>
      </trkpt>
      <trkpt lat="42.86826" lon="0.21592">
        <ele>2591.1</ele>
        <time>2022-02-09T11:37:45Z</time>
      </trkpt>
      <trkpt lat="42.86826" lon="0.21591">
        <ele>2591.1</ele>
        <time>2022-02-09T11:37:46Z</time>
      </trkpt>
      <trkpt lat="42.86826" lon="0.2159">
        <ele>2591.8</ele>
        <time>2022-02-09T11:37:47Z</time>
      </trkpt>
      <trkpt lat="42.86826" lon="0.21589">
        <ele>2591.8</ele>
        <time>2022-02-09T11:37:48Z</time>
      </trkpt>
      <trkpt lat="42.86826" lon="0.21588">
        <ele>2594.2</ele>
        <time>2022-02-09T11:37:49Z</time>
      </trkpt>
      <trkpt lat="42.86826" lon="0.21587">
        <ele>2594.2</ele>
        <time>2022-02-09T11:37:50Z</time>
      </trkpt>
      <trkpt lat="42.86826" lon="0.21586">
        <ele>2595</ele>
        <time>2022-02-09T11:37:51Z</time>
      </trkpt>
      <trkpt lat="42.86826" lon="0.21585">
        <ele>2595</ele>
        <time>2022-02-09T11:37:52Z</time>
      </trkpt>
      <trkpt lat="42.86826" lon="0.21584">
        <ele>2595</ele>
        <time>2022-02-09T11:37:53Z</time>
      </trkpt>
      <trkpt lat="42.86826" lon="0.21583">
        <ele>2595</ele>
        <time>2022-02-09T11:37:54Z</time>
      </trkpt>
      <trkpt lat="42.86826" lon="0.21582">
        <ele>2595.9</ele>
        <time>2022-02-09T11:37:55Z</time>
      </trkpt>
      <trkpt lat="42.86826" lon="0.21581">
        <ele>2595.9</ele>
        <time>2022-02-09T11:37:56Z</time>
      </trkpt>
      <trkpt lat="42.86826" lon="0.2158">
        <ele>2595.9</ele>
        <time>2022-02-09T11:37:57Z</time>
      </trkpt>
      <trkpt lat="42.86826" lon="0.21579">
        <ele>2595.9</ele>
        <time>2022-02-09T11:37:58Z</time>
      </trkpt>
      <trkpt lat="42.86826" lon="0.21578">
        <ele>2595.9</ele>
        <time>2022-02-09T11:37:59Z</time>
      </trkpt>
      <trkpt lat="42.86826" lon="0.21577">
        <ele>2596.8</ele>
        <time>2022-02-09T11:38:00Z</time>
      </trkpt>
      <trkpt lat="42.86826" lon="0.21576">
        <ele>2596.8</ele>
        <time>2022-02-09T11:38:01Z</time>
      </trkpt>
      <trkpt lat="42.86826" lon="0.21576">
        <ele>2596.8</ele>
        <time>2022-02-09T11:38:02Z</time>
      </trkpt>
      <trkpt lat="42.86826" lon="0.21575">
        <ele>2596.8</ele>
        <time>2022-02-09T11:38:03Z</time>
      </trkpt>
      <trkpt lat="42.86826" lon="0.21574">
        <ele>2596.8</ele>
        <time>2022-02-09T11:38:04Z</time>
      </trkpt>
      <trkpt lat="42.86826" lon="0.21573">
        <ele>2597.7</ele>
        <time>2022-02-09T11:38:05Z</time>
      </trkpt>
      <trkpt lat="42.86826" lon="0.21572">
        <ele>2597.7</ele>
        <time>2022-02-09T11:38:06Z</time>
      </trkpt>
      <trkpt lat="42.86826" lon="0.21571">
        <ele>2597.7</ele>
        <time>2022-02-09T11:38:07Z</time>
      </trkpt>
      <trkpt lat="42.86826" lon="0.2157">
        <ele>2597.7</ele>
        <time>2022-02-09T11:38:08Z</time>
      </trkpt>
      <trkpt lat="42.86826" lon="0.21569">
        <ele>2598.5</ele>
        <time>2022-02-09T11:38:09Z</time>
      </trkpt>
      <trkpt lat="42.86826" lon="0.21568">
        <ele>2598.5</ele>
        <time>2022-02-09T11:38:10Z</time>
      </trkpt>
      <trkpt lat="42.86826" lon="0.21567">
        <ele>2598.5</ele>
        <time>2022-02-09T11:38:11Z</time>
      </trkpt>
      <trkpt lat="42.86826" lon="0.21566">
        <ele>2598.5</ele>
        <time>2022-02-09T11:38:12Z</time>
      </trkpt>
      <trkpt lat="42.86827" lon="0.21565">
        <ele>2598.5</ele>
        <time>2022-02-09T11:38:13Z</time>
      </trkpt>
      <trkpt lat="42.86827" lon="0.21564">
        <ele>2599.4</ele>
        <time>2022-02-09T11:38:14Z</time>
      </trkpt>
      <trkpt lat="42.86827" lon="0.21563">
        <ele>2599.4</ele>
        <time>2022-02-09T11:38:15Z</time>
      </trkpt>
      <trkpt lat="42.86827" lon="0.21562">
        <ele>2599.4</ele>
        <time>2022-02-09T11:38:16Z</time>
      </trkpt>
      <trkpt lat="42.86827" lon="0.21561">
        <ele>2599.4</ele>
        <time>2022-02-09T11:38:17Z</time>
      </trkpt>
      <trkpt lat="42.86828" lon="0.2156">
        <ele>2600.3</ele>
        <time>2022-02-09T11:38:18Z</time>
      </trkpt>
      <trkpt lat="42.86828" lon="0.21559">
        <ele>2600.3</ele>
        <time>2022-02-09T11:38:19Z</time>
      </trkpt>
      <trkpt lat="42.86828" lon="0.21559">
        <ele>2600.3</ele>
        <time>2022-02-09T11:38:20Z</time>
      </trkpt>
      <trkpt lat="42.86828" lon="0.21558">
        <ele>2600.3</ele>
        <time>2022-02-09T11:38:21Z</time>
      </trkpt>
      <trkpt lat="42.86828" lon="0.21557">
        <ele>2600.3</ele>
        <time>2022-02-09T11:38:22Z</time>
      </trkpt>
      <trkpt lat="42.86828" lon="0.21556">
        <ele>2601.1</ele>
        <time>2022-02-09T11:38:23Z</time>
      </trkpt>
      <trkpt lat="42.86828" lon="0.21555">
        <ele>2601.1</ele>
        <time>2022-02-09T11:38:24Z</time>
      </trkpt>
      <trkpt lat="42.86828" lon="0.21554">
        <ele>2601.1</ele>
        <time>2022-02-09T11:38:25Z</time>
      </trkpt>
      <trkpt lat="42.86828" lon="0.21553">
        <ele>2601.1</ele>
        <time>2022-02-09T11:38:26Z</time>
      </trkpt>
      <trkpt lat="42.86828" lon="0.21552">
        <ele>2601.1</ele>
        <time>2022-02-09T11:38:27Z</time>
      </trkpt>
      <trkpt lat="42.86828" lon="0.21551">
        <ele>2601.9</ele>
        <time>2022-02-09T11:38:28Z</time>
      </trkpt>
      <trkpt lat="42.86828" lon="0.21551">
        <ele>2601.9</ele>
        <time>2022-02-09T11:38:29Z</time>
      </trkpt>
      <trkpt lat="42.86828" lon="0.2155">
        <ele>2601.9</ele>
        <time>2022-02-09T11:38:30Z</time>
      </trkpt>
      <trkpt lat="42.86828" lon="0.21549">
        <ele>2601.9</ele>
        <time>2022-02-09T11:38:31Z</time>
      </trkpt>
      <trkpt lat="42.86828" lon="0.21548">
        <ele>2601.9</ele>
        <time>2022-02-09T11:38:32Z</time>
      </trkpt>
      <trkpt lat="42.86828" lon="0.21547">
        <ele>2602.6</ele>
        <time>2022-02-09T11:38:33Z</time>
      </trkpt>
      <trkpt lat="42.86828" lon="0.21546">
        <ele>2602.6</ele>
        <time>2022-02-09T11:38:34Z</time>
      </trkpt>
      <trkpt lat="42.86828" lon="0.21546">
        <ele>2602.6</ele>
        <time>2022-02-09T11:38:35Z</time>
      </trkpt>
      <trkpt lat="42.86828" lon="0.21545">
        <ele>2602.6</ele>
        <time>2022-02-09T11:38:36Z</time>
      </trkpt>
      <trkpt lat="42.86828" lon="0.21544">
        <ele>2602.6</ele>
        <time>2022-02-09T11:38:37Z</time>
      </trkpt>
      <trkpt lat="42.86828" lon="0.21543">
        <ele>2603.3</ele>
        <time>2022-02-09T11:38:38Z</time>
      </trkpt>
      <trkpt lat="42.86828" lon="0.21543">
        <ele>2603.3</ele>
        <time>2022-02-09T11:38:39Z</time>
      </trkpt>
      <trkpt lat="42.86828" lon="0.21542">
        <ele>2603.3</ele>
        <time>2022-02-09T11:38:40Z</time>
      </trkpt>
      <trkpt lat="42.86828" lon="0.21541">
        <ele>2603.3</ele>
        <time>2022-02-09T11:38:41Z</time>
      </trkpt>
      <trkpt lat="42.86828" lon="0.2154">
        <ele>2603.3</ele>
        <time>2022-02-09T11:38:42Z</time>
      </trkpt>
      <trkpt lat="42.86828" lon="0.2154">
        <ele>2603.3</ele>
        <time>2022-02-09T11:38:43Z</time>
      </trkpt>
      <trkpt lat="42.86828" lon="0.21539">
        <ele>2604.1</ele>
        <time>2022-02-09T11:38:44Z</time>
      </trkpt>
      <trkpt lat="42.86827" lon="0.21538">
        <ele>2604.1</ele>
        <time>2022-02-09T11:38:45Z</time>
      </trkpt>
      <trkpt lat="42.86827" lon="0.21537">
        <ele>2604.1</ele>
        <time>2022-02-09T11:38:46Z</time>
      </trkpt>
      <trkpt lat="42.86827" lon="0.21537">
        <ele>2604.1</ele>
        <time>2022-02-09T11:38:47Z</time>
      </trkpt>
      <trkpt lat="42.86827" lon="0.21536">
        <ele>2604.1</ele>
        <time>2022-02-09T11:38:48Z</time>
      </trkpt>
      <trkpt lat="42.86827" lon="0.21535">
        <ele>2604.9</ele>
        <time>2022-02-09T11:38:49Z</time>
      </trkpt>
      <trkpt lat="42.86827" lon="0.21534">
        <ele>2604.9</ele>
        <time>2022-02-09T11:38:50Z</time>
      </trkpt>
      <trkpt lat="42.86827" lon="0.21533">
        <ele>2604.9</ele>
        <time>2022-02-09T11:38:51Z</time>
      </trkpt>
      <trkpt lat="42.86827" lon="0.21532">
        <ele>2604.9</ele>
        <time>2022-02-09T11:38:52Z</time>
      </trkpt>
      <trkpt lat="42.86827" lon="0.21531">
        <ele>2604.9</ele>
        <time>2022-02-09T11:38:53Z</time>
      </trkpt>
      <trkpt lat="42.86827" lon="0.2153">
        <ele>2605.7</ele>
        <time>2022-02-09T11:38:54Z</time>
      </trkpt>
      <trkpt lat="42.86827" lon="0.21529">
        <ele>2605.7</ele>
        <time>2022-02-09T11:38:55Z</time>
      </trkpt>
      <trkpt lat="42.86826" lon="0.21528">
        <ele>2605.7</ele>
        <time>2022-02-09T11:38:56Z</time>
      </trkpt>
      <trkpt lat="42.86826" lon="0.21527">
        <ele>2605.7</ele>
        <time>2022-02-09T11:38:57Z</time>
      </trkpt>
      <trkpt lat="42.86826" lon="0.21526">
        <ele>2606.6</ele>
        <time>2022-02-09T11:38:58Z</time>
      </trkpt>
      <trkpt lat="42.86826" lon="0.21525">
        <ele>2606.6</ele>
        <time>2022-02-09T11:38:59Z</time>
      </trkpt>
      <trkpt lat="42.86826" lon="0.21524">
        <ele>2606.6</ele>
        <time>2022-02-09T11:39:00Z</time>
      </trkpt>
      <trkpt lat="42.86826" lon="0.21524">
        <ele>2606.6</ele>
        <time>2022-02-09T11:39:01Z</time>
      </trkpt>
      <trkpt lat="42.86826" lon="0.21523">
        <ele>2606.6</ele>
        <time>2022-02-09T11:39:02Z</time>
      </trkpt>
      <trkpt lat="42.86826" lon="0.21522">
        <ele>2607.5</ele>
        <time>2022-02-09T11:39:03Z</time>
      </trkpt>
      <trkpt lat="42.86826" lon="0.21521">
        <ele>2607.5</ele>
        <time>2022-02-09T11:39:04Z</time>
      </trkpt>
      <trkpt lat="42.86826" lon="0.2152">
        <ele>2607.5</ele>
        <time>2022-02-09T11:39:05Z</time>
      </trkpt>
      <trkpt lat="42.86826" lon="0.21519">
        <ele>2605.5</ele>
        <time>2022-02-09T11:39:06Z</time>
      </trkpt>
      <trkpt lat="42.86826" lon="0.21518">
        <ele>2605.5</ele>
        <time>2022-02-09T11:39:07Z</time>
      </trkpt>
      <trkpt lat="42.86826" lon="0.21518">
        <ele>2606.4</ele>
        <time>2022-02-09T11:39:08Z</time>
      </trkpt>
      <trkpt lat="42.86826" lon="0.21517">
        <ele>2606.4</ele>
        <time>2022-02-09T11:39:09Z</time>
      </trkpt>
      <trkpt lat="42.86826" lon="0.21516">
        <ele>2606.4</ele>
        <time>2022-02-09T11:39:10Z</time>
      </trkpt>
      <trkpt lat="42.86826" lon="0.21515">
        <ele>2608.4</ele>
        <time>2022-02-09T11:39:11Z</time>
      </trkpt>
      <trkpt lat="42.86828" lon="0.21513">
        <ele>2609.2</ele>
        <time>2022-02-09T11:39:12Z</time>
      </trkpt>
      <trkpt lat="42.8683" lon="0.2151">
        <ele>2611.1</ele>
        <time>2022-02-09T11:39:13Z</time>
      </trkpt>
      <trkpt lat="42.86831" lon="0.21508">
        <ele>2611.9</ele>
        <time>2022-02-09T11:39:14Z</time>
      </trkpt>
      <trkpt lat="42.86831" lon="0.21507">
        <ele>2611.9</ele>
        <time>2022-02-09T11:39:15Z</time>
      </trkpt>
      <trkpt lat="42.8683" lon="0.21507">
        <ele>2611.9</ele>
        <time>2022-02-09T11:39:16Z</time>
      </trkpt>
      <trkpt lat="42.86829" lon="0.21506">
        <ele>2611.9</ele>
        <time>2022-02-09T11:39:17Z</time>
      </trkpt>
      <trkpt lat="42.86829" lon="0.21505">
        <ele>2610</ele>
        <time>2022-02-09T11:39:18Z</time>
      </trkpt>
      <trkpt lat="42.86828" lon="0.21505">
        <ele>2610.9</ele>
        <time>2022-02-09T11:39:19Z</time>
      </trkpt>
      <trkpt lat="42.86828" lon="0.21504">
        <ele>2610.9</ele>
        <time>2022-02-09T11:39:20Z</time>
      </trkpt>
      <trkpt lat="42.86828" lon="0.21504">
        <ele>2610.9</ele>
        <time>2022-02-09T11:39:21Z</time>
      </trkpt>
      <trkpt lat="42.86828" lon="0.21503">
        <ele>2610.9</ele>
        <time>2022-02-09T11:39:22Z</time>
      </trkpt>
      <trkpt lat="42.86828" lon="0.21503">
        <ele>2610.9</ele>
        <time>2022-02-09T11:39:23Z</time>
      </trkpt>
      <trkpt lat="42.86827" lon="0.21502">
        <ele>2610.9</ele>
        <time>2022-02-09T11:39:24Z</time>
      </trkpt>
      <trkpt lat="42.86827" lon="0.21501">
        <ele>2610.9</ele>
        <time>2022-02-09T11:39:25Z</time>
      </trkpt>
      <trkpt lat="42.86827" lon="0.21501">
        <ele>2610.9</ele>
        <time>2022-02-09T11:39:26Z</time>
      </trkpt>
      <trkpt lat="42.86826" lon="0.215">
        <ele>2611.7</ele>
        <time>2022-02-09T11:39:27Z</time>
      </trkpt>
      <trkpt lat="42.86826" lon="0.21499">
        <ele>2609.9</ele>
        <time>2022-02-09T11:39:28Z</time>
      </trkpt>
      <trkpt lat="42.86825" lon="0.21499">
        <ele>2609.9</ele>
        <time>2022-02-09T11:39:29Z</time>
      </trkpt>
      <trkpt lat="42.86825" lon="0.21498">
        <ele>2609.9</ele>
        <time>2022-02-09T11:39:30Z</time>
      </trkpt>
      <trkpt lat="42.86825" lon="0.21497">
        <ele>2609.9</ele>
        <time>2022-02-09T11:39:31Z</time>
      </trkpt>
      <trkpt lat="42.86825" lon="0.21497">
        <ele>2609.9</ele>
        <time>2022-02-09T11:39:32Z</time>
      </trkpt>
      <trkpt lat="42.86825" lon="0.21496">
        <ele>2610.8</ele>
        <time>2022-02-09T11:39:33Z</time>
      </trkpt>
      <trkpt lat="42.86825" lon="0.21495">
        <ele>2610.8</ele>
        <time>2022-02-09T11:39:34Z</time>
      </trkpt>
      <trkpt lat="42.86825" lon="0.21494">
        <ele>2610.8</ele>
        <time>2022-02-09T11:39:35Z</time>
      </trkpt>
      <trkpt lat="42.86825" lon="0.21493">
        <ele>2610.8</ele>
        <time>2022-02-09T11:39:36Z</time>
      </trkpt>
      <trkpt lat="42.86826" lon="0.21493">
        <ele>2610.8</ele>
        <time>2022-02-09T11:39:37Z</time>
      </trkpt>
      <trkpt lat="42.86825" lon="0.21492">
        <ele>2611.6</ele>
        <time>2022-02-09T11:39:38Z</time>
      </trkpt>
      <trkpt lat="42.86825" lon="0.21491">
        <ele>2611.6</ele>
        <time>2022-02-09T11:39:39Z</time>
      </trkpt>
      <trkpt lat="42.86825" lon="0.2149">
        <ele>2611.6</ele>
        <time>2022-02-09T11:39:40Z</time>
      </trkpt>
      <trkpt lat="42.86825" lon="0.2149">
        <ele>2611.6</ele>
        <time>2022-02-09T11:39:41Z</time>
      </trkpt>
      <trkpt lat="42.86825" lon="0.21489">
        <ele>2611.6</ele>
        <time>2022-02-09T11:39:42Z</time>
      </trkpt>
      <trkpt lat="42.86825" lon="0.21488">
        <ele>2612.5</ele>
        <time>2022-02-09T11:39:43Z</time>
      </trkpt>
      <trkpt lat="42.86825" lon="0.21487">
        <ele>2612.5</ele>
        <time>2022-02-09T11:39:44Z</time>
      </trkpt>
      <trkpt lat="42.86825" lon="0.21485">
        <ele>2612.5</ele>
        <time>2022-02-09T11:39:45Z</time>
      </trkpt>
      <trkpt lat="42.86825" lon="0.21485">
        <ele>2612.5</ele>
        <time>2022-02-09T11:39:46Z</time>
      </trkpt>
      <trkpt lat="42.86825" lon="0.21484">
        <ele>2612.5</ele>
        <time>2022-02-09T11:39:47Z</time>
      </trkpt>
      <trkpt lat="42.86825" lon="0.21483">
        <ele>2613.3</ele>
        <time>2022-02-09T11:39:48Z</time>
      </trkpt>
      <trkpt lat="42.86825" lon="0.21482">
        <ele>2613.3</ele>
        <time>2022-02-09T11:39:49Z</time>
      </trkpt>
      <trkpt lat="42.86825" lon="0.21481">
        <ele>2613.3</ele>
        <time>2022-02-09T11:39:50Z</time>
      </trkpt>
      <trkpt lat="42.86825" lon="0.2148">
        <ele>2613.3</ele>
        <time>2022-02-09T11:39:51Z</time>
      </trkpt>
      <trkpt lat="42.86825" lon="0.21479">
        <ele>2614.1</ele>
        <time>2022-02-09T11:39:52Z</time>
      </trkpt>
      <trkpt lat="42.86825" lon="0.21478">
        <ele>2614.1</ele>
        <time>2022-02-09T11:39:53Z</time>
      </trkpt>
      <trkpt lat="42.86825" lon="0.21477">
        <ele>2614.1</ele>
        <time>2022-02-09T11:39:54Z</time>
      </trkpt>
      <trkpt lat="42.86825" lon="0.21476">
        <ele>2614.1</ele>
        <time>2022-02-09T11:39:55Z</time>
      </trkpt>
      <trkpt lat="42.86825" lon="0.21475">
        <ele>2614.1</ele>
        <time>2022-02-09T11:39:56Z</time>
      </trkpt>
      <trkpt lat="42.86825" lon="0.21474">
        <ele>2614.9</ele>
        <time>2022-02-09T11:39:57Z</time>
      </trkpt>
      <trkpt lat="42.86825" lon="0.21473">
        <ele>2614.9</ele>
        <time>2022-02-09T11:39:58Z</time>
      </trkpt>
      <trkpt lat="42.86825" lon="0.21472">
        <ele>2614.9</ele>
        <time>2022-02-09T11:39:59Z</time>
      </trkpt>
      <trkpt lat="42.86824" lon="0.21471">
        <ele>2614.9</ele>
        <time>2022-02-09T11:40:00Z</time>
      </trkpt>
      <trkpt lat="42.86824" lon="0.21471">
        <ele>2614.9</ele>
        <time>2022-02-09T11:40:01Z</time>
      </trkpt>
      <trkpt lat="42.86824" lon="0.2147">
        <ele>2615.6</ele>
        <time>2022-02-09T11:40:02Z</time>
      </trkpt>
      <trkpt lat="42.86824" lon="0.21469">
        <ele>2615.6</ele>
        <time>2022-02-09T11:40:03Z</time>
      </trkpt>
      <trkpt lat="42.86824" lon="0.21469">
        <ele>2615.6</ele>
        <time>2022-02-09T11:40:04Z</time>
      </trkpt>
      <trkpt lat="42.86824" lon="0.21468">
        <ele>2615.6</ele>
        <time>2022-02-09T11:40:05Z</time>
      </trkpt>
      <trkpt lat="42.86824" lon="0.21467">
        <ele>2615.6</ele>
        <time>2022-02-09T11:40:06Z</time>
      </trkpt>
      <trkpt lat="42.86824" lon="0.21466">
        <ele>2616.3</ele>
        <time>2022-02-09T11:40:07Z</time>
      </trkpt>
      <trkpt lat="42.86824" lon="0.21466">
        <ele>2616.3</ele>
        <time>2022-02-09T11:40:08Z</time>
      </trkpt>
      <trkpt lat="42.86824" lon="0.21465">
        <ele>2616.3</ele>
        <time>2022-02-09T11:40:09Z</time>
      </trkpt>
      <trkpt lat="42.86824" lon="0.21464">
        <ele>2616.3</ele>
        <time>2022-02-09T11:40:10Z</time>
      </trkpt>
      <trkpt lat="42.86824" lon="0.21463">
        <ele>2616.3</ele>
        <time>2022-02-09T11:40:11Z</time>
      </trkpt>
      <trkpt lat="42.86824" lon="0.21463">
        <ele>2616.3</ele>
        <time>2022-02-09T11:40:12Z</time>
      </trkpt>
      <trkpt lat="42.86824" lon="0.21462">
        <ele>2616.9</ele>
        <time>2022-02-09T11:40:13Z</time>
      </trkpt>
      <trkpt lat="42.86824" lon="0.21461">
        <ele>2616.9</ele>
        <time>2022-02-09T11:40:14Z</time>
      </trkpt>
      <trkpt lat="42.86824" lon="0.2146">
        <ele>2616.9</ele>
        <time>2022-02-09T11:40:15Z</time>
      </trkpt>
      <trkpt lat="42.86824" lon="0.2146">
        <ele>2616.9</ele>
        <time>2022-02-09T11:40:16Z</time>
      </trkpt>
      <trkpt lat="42.86824" lon="0.21459">
        <ele>2616.9</ele>
        <time>2022-02-09T11:40:17Z</time>
      </trkpt>
      <trkpt lat="42.86824" lon="0.21458">
        <ele>2616.9</ele>
        <time>2022-02-09T11:40:18Z</time>
      </trkpt>
      <trkpt lat="42.86824" lon="0.21457">
        <ele>2617.5</ele>
        <time>2022-02-09T11:40:19Z</time>
      </trkpt>
      <trkpt lat="42.86824" lon="0.21456">
        <ele>2617.5</ele>
        <time>2022-02-09T11:40:20Z</time>
      </trkpt>
      <trkpt lat="42.86824" lon="0.21455">
        <ele>2617.5</ele>
        <time>2022-02-09T11:40:21Z</time>
      </trkpt>
      <trkpt lat="42.86824" lon="0.21455">
        <ele>2617.5</ele>
        <time>2022-02-09T11:40:22Z</time>
      </trkpt>
      <trkpt lat="42.86824" lon="0.21454">
        <ele>2617.5</ele>
        <time>2022-02-09T11:40:23Z</time>
      </trkpt>
      <trkpt lat="42.86824" lon="0.21453">
        <ele>2617.5</ele>
        <time>2022-02-09T11:40:24Z</time>
      </trkpt>
      <trkpt lat="42.86824" lon="0.21453">
        <ele>2618.1</ele>
        <time>2022-02-09T11:40:25Z</time>
      </trkpt>
      <trkpt lat="42.86824" lon="0.21452">
        <ele>2618.1</ele>
        <time>2022-02-09T11:40:26Z</time>
      </trkpt>
      <trkpt lat="42.86824" lon="0.21451">
        <ele>2618.1</ele>
        <time>2022-02-09T11:40:27Z</time>
      </trkpt>
      <trkpt lat="42.86824" lon="0.2145">
        <ele>2618.1</ele>
        <time>2022-02-09T11:40:28Z</time>
      </trkpt>
      <trkpt lat="42.86824" lon="0.2145">
        <ele>2618.1</ele>
        <time>2022-02-09T11:40:29Z</time>
      </trkpt>
      <trkpt lat="42.86823" lon="0.21449">
        <ele>2618.7</ele>
        <time>2022-02-09T11:40:30Z</time>
      </trkpt>
      <trkpt lat="42.86823" lon="0.21448">
        <ele>2618.7</ele>
        <time>2022-02-09T11:40:31Z</time>
      </trkpt>
      <trkpt lat="42.86823" lon="0.21447">
        <ele>2618.7</ele>
        <time>2022-02-09T11:40:32Z</time>
      </trkpt>
      <trkpt lat="42.86823" lon="0.21446">
        <ele>2618.7</ele>
        <time>2022-02-09T11:40:33Z</time>
      </trkpt>
      <trkpt lat="42.86823" lon="0.21446">
        <ele>2618.7</ele>
        <time>2022-02-09T11:40:34Z</time>
      </trkpt>
      <trkpt lat="42.86823" lon="0.21445">
        <ele>2618.7</ele>
        <time>2022-02-09T11:40:35Z</time>
      </trkpt>
      <trkpt lat="42.86823" lon="0.21444">
        <ele>2618.3</ele>
        <time>2022-02-09T11:40:36Z</time>
      </trkpt>
      <trkpt lat="42.86823" lon="0.21443">
        <ele>2618.3</ele>
        <time>2022-02-09T11:40:37Z</time>
      </trkpt>
      <trkpt lat="42.86823" lon="0.21443">
        <ele>2618.3</ele>
        <time>2022-02-09T11:40:38Z</time>
      </trkpt>
      <trkpt lat="42.86823" lon="0.21442">
        <ele>2618.3</ele>
        <time>2022-02-09T11:40:39Z</time>
      </trkpt>
      <trkpt lat="42.86823" lon="0.21441">
        <ele>2618.3</ele>
        <time>2022-02-09T11:40:40Z</time>
      </trkpt>
      <trkpt lat="42.86823" lon="0.2144">
        <ele>2619</ele>
        <time>2022-02-09T11:40:41Z</time>
      </trkpt>
      <trkpt lat="42.86823" lon="0.2144">
        <ele>2619</ele>
        <time>2022-02-09T11:40:42Z</time>
      </trkpt>
      <trkpt lat="42.86823" lon="0.21439">
        <ele>2619</ele>
        <time>2022-02-09T11:40:43Z</time>
      </trkpt>
      <trkpt lat="42.86823" lon="0.21438">
        <ele>2619</ele>
        <time>2022-02-09T11:40:44Z</time>
      </trkpt>
      <trkpt lat="42.86823" lon="0.21437">
        <ele>2619</ele>
        <time>2022-02-09T11:40:45Z</time>
      </trkpt>
      <trkpt lat="42.86822" lon="0.21436">
        <ele>2619.7</ele>
        <time>2022-02-09T11:40:46Z</time>
      </trkpt>
      <trkpt lat="42.86822" lon="0.21435">
        <ele>2619.7</ele>
        <time>2022-02-09T11:40:47Z</time>
      </trkpt>
      <trkpt lat="42.86822" lon="0.21434">
        <ele>2619.7</ele>
        <time>2022-02-09T11:40:48Z</time>
      </trkpt>
      <trkpt lat="42.86822" lon="0.21434">
        <ele>2619.7</ele>
        <time>2022-02-09T11:40:49Z</time>
      </trkpt>
      <trkpt lat="42.86822" lon="0.21433">
        <ele>2619.7</ele>
        <time>2022-02-09T11:40:50Z</time>
      </trkpt>
      <trkpt lat="42.86822" lon="0.21432">
        <ele>2620.3</ele>
        <time>2022-02-09T11:40:51Z</time>
      </trkpt>
      <trkpt lat="42.86822" lon="0.21431">
        <ele>2620.3</ele>
        <time>2022-02-09T11:40:52Z</time>
      </trkpt>
      <trkpt lat="42.86821" lon="0.2143">
        <ele>2620.3</ele>
        <time>2022-02-09T11:40:53Z</time>
      </trkpt>
      <trkpt lat="42.86821" lon="0.2143">
        <ele>2620.3</ele>
        <time>2022-02-09T11:40:54Z</time>
      </trkpt>
      <trkpt lat="42.86821" lon="0.21429">
        <ele>2620.3</ele>
        <time>2022-02-09T11:40:55Z</time>
      </trkpt>
      <trkpt lat="42.86821" lon="0.21428">
        <ele>2620.3</ele>
        <time>2022-02-09T11:40:56Z</time>
      </trkpt>
      <trkpt lat="42.8682" lon="0.21427">
        <ele>2620.9</ele>
        <time>2022-02-09T11:40:57Z</time>
      </trkpt>
      <trkpt lat="42.8682" lon="0.21426">
        <ele>2620.9</ele>
        <time>2022-02-09T11:40:58Z</time>
      </trkpt>
      <trkpt lat="42.8682" lon="0.21425">
        <ele>2620.9</ele>
        <time>2022-02-09T11:40:59Z</time>
      </trkpt>
      <trkpt lat="42.8682" lon="0.21425">
        <ele>2620.9</ele>
        <time>2022-02-09T11:41:00Z</time>
      </trkpt>
      <trkpt lat="42.8682" lon="0.21424">
        <ele>2620.9</ele>
        <time>2022-02-09T11:41:01Z</time>
      </trkpt>
      <trkpt lat="42.86819" lon="0.21423">
        <ele>2620.7</ele>
        <time>2022-02-09T11:41:02Z</time>
      </trkpt>
      <trkpt lat="42.86819" lon="0.21422">
        <ele>2620.7</ele>
        <time>2022-02-09T11:41:03Z</time>
      </trkpt>
      <trkpt lat="42.86819" lon="0.21422">
        <ele>2620.7</ele>
        <time>2022-02-09T11:41:04Z</time>
      </trkpt>
      <trkpt lat="42.86819" lon="0.21421">
        <ele>2620.7</ele>
        <time>2022-02-09T11:41:05Z</time>
      </trkpt>
      <trkpt lat="42.86818" lon="0.2142">
        <ele>2620.7</ele>
        <time>2022-02-09T11:41:06Z</time>
      </trkpt>
      <trkpt lat="42.86818" lon="0.21419">
        <ele>2621.3</ele>
        <time>2022-02-09T11:41:07Z</time>
      </trkpt>
      <trkpt lat="42.86818" lon="0.21418">
        <ele>2621.3</ele>
        <time>2022-02-09T11:41:08Z</time>
      </trkpt>
      <trkpt lat="42.86818" lon="0.21417">
        <ele>2621.3</ele>
        <time>2022-02-09T11:41:09Z</time>
      </trkpt>
      <trkpt lat="42.86818" lon="0.21417">
        <ele>2621.3</ele>
        <time>2022-02-09T11:41:10Z</time>
      </trkpt>
      <trkpt lat="42.86818" lon="0.21416">
        <ele>2621.3</ele>
        <time>2022-02-09T11:41:11Z</time>
      </trkpt>
      <trkpt lat="42.86818" lon="0.21415">
        <ele>2621.3</ele>
        <time>2022-02-09T11:41:12Z</time>
      </trkpt>
      <trkpt lat="42.86818" lon="0.21415">
        <ele>2621.8</ele>
        <time>2022-02-09T11:41:13Z</time>
      </trkpt>
      <trkpt lat="42.86817" lon="0.21414">
        <ele>2621.8</ele>
        <time>2022-02-09T11:41:14Z</time>
      </trkpt>
      <trkpt lat="42.86817" lon="0.21413">
        <ele>2621.8</ele>
        <time>2022-02-09T11:41:15Z</time>
      </trkpt>
      <trkpt lat="42.86817" lon="0.21413">
        <ele>2621.8</ele>
        <time>2022-02-09T11:41:16Z</time>
      </trkpt>
      <trkpt lat="42.86817" lon="0.21412">
        <ele>2621.8</ele>
        <time>2022-02-09T11:41:17Z</time>
      </trkpt>
      <trkpt lat="42.86817" lon="0.21411">
        <ele>2621.8</ele>
        <time>2022-02-09T11:41:18Z</time>
      </trkpt>
      <trkpt lat="42.86817" lon="0.2141">
        <ele>2622.3</ele>
        <time>2022-02-09T11:41:19Z</time>
      </trkpt>
      <trkpt lat="42.86816" lon="0.2141">
        <ele>2621.7</ele>
        <time>2022-02-09T11:41:20Z</time>
      </trkpt>
      <trkpt lat="42.86816" lon="0.21409">
        <ele>2621.7</ele>
        <time>2022-02-09T11:41:21Z</time>
      </trkpt>
      <trkpt lat="42.86816" lon="0.21408">
        <ele>2621.7</ele>
        <time>2022-02-09T11:41:22Z</time>
      </trkpt>
      <trkpt lat="42.86816" lon="0.21407">
        <ele>2621.7</ele>
        <time>2022-02-09T11:41:23Z</time>
      </trkpt>
      <trkpt lat="42.86816" lon="0.21407">
        <ele>2621.7</ele>
        <time>2022-02-09T11:41:24Z</time>
      </trkpt>
      <trkpt lat="42.86816" lon="0.21406">
        <ele>2622.1</ele>
        <time>2022-02-09T11:41:25Z</time>
      </trkpt>
      <trkpt lat="42.86815" lon="0.21405">
        <ele>2622.1</ele>
        <time>2022-02-09T11:41:26Z</time>
      </trkpt>
      <trkpt lat="42.86815" lon="0.21405">
        <ele>2622.1</ele>
        <time>2022-02-09T11:41:27Z</time>
      </trkpt>
      <trkpt lat="42.86815" lon="0.21404">
        <ele>2622.1</ele>
        <time>2022-02-09T11:41:28Z</time>
      </trkpt>
      <trkpt lat="42.86815" lon="0.21403">
        <ele>2622.1</ele>
        <time>2022-02-09T11:41:29Z</time>
      </trkpt>
      <trkpt lat="42.86814" lon="0.21402">
        <ele>2622.1</ele>
        <time>2022-02-09T11:41:30Z</time>
      </trkpt>
      <trkpt lat="42.86814" lon="0.21402">
        <ele>2622.5</ele>
        <time>2022-02-09T11:41:31Z</time>
      </trkpt>
      <trkpt lat="42.86813" lon="0.21402">
        <ele>2622</ele>
        <time>2022-02-09T11:41:32Z</time>
      </trkpt>
      <trkpt lat="42.86811" lon="0.21402">
        <ele>2621.5</ele>
        <time>2022-02-09T11:41:33Z</time>
      </trkpt>
      <trkpt lat="42.86812" lon="0.21401">
        <ele>2622</ele>
        <time>2022-02-09T11:41:34Z</time>
      </trkpt>
      <trkpt lat="42.86812" lon="0.214">
        <ele>2622</ele>
        <time>2022-02-09T11:41:35Z</time>
      </trkpt>
      <trkpt lat="42.86812" lon="0.21399">
        <ele>2622</ele>
        <time>2022-02-09T11:41:36Z</time>
      </trkpt>
      <trkpt lat="42.86811" lon="0.21398">
        <ele>2622</ele>
        <time>2022-02-09T11:41:37Z</time>
      </trkpt>
      <trkpt lat="42.86811" lon="0.21397">
        <ele>2622.4</ele>
        <time>2022-02-09T11:41:38Z</time>
      </trkpt>
      <trkpt lat="42.86811" lon="0.21397">
        <ele>2622.4</ele>
        <time>2022-02-09T11:41:39Z</time>
      </trkpt>
      <trkpt lat="42.86811" lon="0.21396">
        <ele>2622.4</ele>
        <time>2022-02-09T11:41:40Z</time>
      </trkpt>
      <trkpt lat="42.86812" lon="0.21396">
        <ele>2622.4</ele>
        <time>2022-02-09T11:41:41Z</time>
      </trkpt>
      <trkpt lat="42.86812" lon="0.21396">
        <ele>2622.4</ele>
        <time>2022-02-09T11:41:42Z</time>
      </trkpt>
      <trkpt lat="42.86812" lon="0.21396">
        <ele>2622.4</ele>
        <time>2022-02-09T11:41:43Z</time>
      </trkpt>
      <trkpt lat="42.86812" lon="0.21396">
        <ele>2622.4</ele>
        <time>2022-02-09T11:41:44Z</time>
      </trkpt>
      <trkpt lat="42.86812" lon="0.21395">
        <ele>2622.4</ele>
        <time>2022-02-09T11:41:45Z</time>
      </trkpt>
      <trkpt lat="42.86812" lon="0.21394">
        <ele>2622.4</ele>
        <time>2022-02-09T11:41:46Z</time>
      </trkpt>
      <trkpt lat="42.86812" lon="0.21394">
        <ele>2622.4</ele>
        <time>2022-02-09T11:41:47Z</time>
      </trkpt>
      <trkpt lat="42.86812" lon="0.21393">
        <ele>2622.7</ele>
        <time>2022-02-09T11:41:48Z</time>
      </trkpt>
      <trkpt lat="42.86812" lon="0.21392">
        <ele>2622.7</ele>
        <time>2022-02-09T11:41:49Z</time>
      </trkpt>
      <trkpt lat="42.86812" lon="0.21392">
        <ele>2622.7</ele>
        <time>2022-02-09T11:41:50Z</time>
      </trkpt>
      <trkpt lat="42.86812" lon="0.21391">
        <ele>2622.7</ele>
        <time>2022-02-09T11:41:51Z</time>
      </trkpt>
      <trkpt lat="42.86811" lon="0.2139">
        <ele>2622.7</ele>
        <time>2022-02-09T11:41:52Z</time>
      </trkpt>
      <trkpt lat="42.86811" lon="0.2139">
        <ele>2622.7</ele>
        <time>2022-02-09T11:41:53Z</time>
      </trkpt>
      <trkpt lat="42.86811" lon="0.21389">
        <ele>2623</ele>
        <time>2022-02-09T11:41:54Z</time>
      </trkpt>
      <trkpt lat="42.86811" lon="0.21388">
        <ele>2623</ele>
        <time>2022-02-09T11:41:55Z</time>
      </trkpt>
      <trkpt lat="42.86811" lon="0.21387">
        <ele>2623</ele>
        <time>2022-02-09T11:41:56Z</time>
      </trkpt>
      <trkpt lat="42.86811" lon="0.21387">
        <ele>2623</ele>
        <time>2022-02-09T11:41:57Z</time>
      </trkpt>
      <trkpt lat="42.86811" lon="0.21386">
        <ele>2623</ele>
        <time>2022-02-09T11:41:58Z</time>
      </trkpt>
      <trkpt lat="42.86811" lon="0.21385">
        <ele>2623</ele>
        <time>2022-02-09T11:41:59Z</time>
      </trkpt>
      <trkpt lat="42.8681" lon="0.21384">
        <ele>2623.2</ele>
        <time>2022-02-09T11:42:00Z</time>
      </trkpt>
      <trkpt lat="42.8681" lon="0.21384">
        <ele>2623.2</ele>
        <time>2022-02-09T11:42:01Z</time>
      </trkpt>
      <trkpt lat="42.8681" lon="0.21383">
        <ele>2623.2</ele>
        <time>2022-02-09T11:42:02Z</time>
      </trkpt>
      <trkpt lat="42.8681" lon="0.21382">
        <ele>2622.9</ele>
        <time>2022-02-09T11:42:03Z</time>
      </trkpt>
      <trkpt lat="42.8681" lon="0.21381">
        <ele>2622.9</ele>
        <time>2022-02-09T11:42:04Z</time>
      </trkpt>
      <trkpt lat="42.8681" lon="0.2138">
        <ele>2623.1</ele>
        <time>2022-02-09T11:42:05Z</time>
      </trkpt>
      <trkpt lat="42.8681" lon="0.2138">
        <ele>2623.1</ele>
        <time>2022-02-09T11:42:06Z</time>
      </trkpt>
      <trkpt lat="42.8681" lon="0.21379">
        <ele>2623.1</ele>
        <time>2022-02-09T11:42:07Z</time>
      </trkpt>
      <trkpt lat="42.8681" lon="0.21378">
        <ele>2623.1</ele>
        <time>2022-02-09T11:42:08Z</time>
      </trkpt>
      <trkpt lat="42.86809" lon="0.21377">
        <ele>2623.1</ele>
        <time>2022-02-09T11:42:09Z</time>
      </trkpt>
      <trkpt lat="42.86809" lon="0.21376">
        <ele>2623.1</ele>
        <time>2022-02-09T11:42:10Z</time>
      </trkpt>
      <trkpt lat="42.86809" lon="0.21376">
        <ele>2623.3</ele>
        <time>2022-02-09T11:42:11Z</time>
      </trkpt>
      <trkpt lat="42.86809" lon="0.21375">
        <ele>2623.3</ele>
        <time>2022-02-09T11:42:12Z</time>
      </trkpt>
      <trkpt lat="42.86809" lon="0.21374">
        <ele>2623.3</ele>
        <time>2022-02-09T11:42:13Z</time>
      </trkpt>
      <trkpt lat="42.86809" lon="0.21373">
        <ele>2623.3</ele>
        <time>2022-02-09T11:42:14Z</time>
      </trkpt>
      <trkpt lat="42.86809" lon="0.21373">
        <ele>2623.3</ele>
        <time>2022-02-09T11:42:15Z</time>
      </trkpt>
      <trkpt lat="42.86809" lon="0.21372">
        <ele>2623.4</ele>
        <time>2022-02-09T11:42:16Z</time>
      </trkpt>
      <trkpt lat="42.86809" lon="0.21371">
        <ele>2623.4</ele>
        <time>2022-02-09T11:42:17Z</time>
      </trkpt>
      <trkpt lat="42.86809" lon="0.2137">
        <ele>2623.4</ele>
        <time>2022-02-09T11:42:18Z</time>
      </trkpt>
      <trkpt lat="42.86808" lon="0.2137">
        <ele>2623.4</ele>
        <time>2022-02-09T11:42:19Z</time>
      </trkpt>
      <trkpt lat="42.86808" lon="0.21369">
        <ele>2623.4</ele>
        <time>2022-02-09T11:42:20Z</time>
      </trkpt>
      <trkpt lat="42.86808" lon="0.21368">
        <ele>2623.4</ele>
        <time>2022-02-09T11:42:21Z</time>
      </trkpt>
      <trkpt lat="42.86808" lon="0.21368">
        <ele>2623.4</ele>
        <time>2022-02-09T11:42:22Z</time>
      </trkpt>
      <trkpt lat="42.86808" lon="0.21367">
        <ele>2623.4</ele>
        <time>2022-02-09T11:42:23Z</time>
      </trkpt>
      <trkpt lat="42.86808" lon="0.21366">
        <ele>2623.4</ele>
        <time>2022-02-09T11:42:24Z</time>
      </trkpt>
      <trkpt lat="42.86808" lon="0.21365">
        <ele>2623.4</ele>
        <time>2022-02-09T11:42:25Z</time>
      </trkpt>
      <trkpt lat="42.86808" lon="0.21365">
        <ele>2623.4</ele>
        <time>2022-02-09T11:42:26Z</time>
      </trkpt>
      <trkpt lat="42.86808" lon="0.21364">
        <ele>2623.4</ele>
        <time>2022-02-09T11:42:27Z</time>
      </trkpt>
      <trkpt lat="42.86808" lon="0.21363">
        <ele>2623.4</ele>
        <time>2022-02-09T11:42:28Z</time>
      </trkpt>
      <trkpt lat="42.86808" lon="0.21363">
        <ele>2623.4</ele>
        <time>2022-02-09T11:42:29Z</time>
      </trkpt>
      <trkpt lat="42.86808" lon="0.21362">
        <ele>2623.4</ele>
        <time>2022-02-09T11:42:30Z</time>
      </trkpt>
      <trkpt lat="42.86808" lon="0.21361">
        <ele>2623.4</ele>
        <time>2022-02-09T11:42:31Z</time>
      </trkpt>
      <trkpt lat="42.86808" lon="0.2136">
        <ele>2623.4</ele>
        <time>2022-02-09T11:42:32Z</time>
      </trkpt>
      <trkpt lat="42.86808" lon="0.2136">
        <ele>2623.4</ele>
        <time>2022-02-09T11:42:33Z</time>
      </trkpt>
      <trkpt lat="42.86808" lon="0.2136">
        <ele>2623.4</ele>
        <time>2022-02-09T11:42:34Z</time>
      </trkpt>
      <trkpt lat="42.86808" lon="0.2136">
        <ele>2623.4</ele>
        <time>2022-02-09T11:42:35Z</time>
      </trkpt>
      <trkpt lat="42.86808" lon="0.2136">
        <ele>2623.4</ele>
        <time>2022-02-09T11:42:36Z</time>
      </trkpt>
      <trkpt lat="42.86808" lon="0.2136">
        <ele>2623.4</ele>
        <time>2022-02-09T11:42:37Z</time>
      </trkpt>
      <trkpt lat="42.86808" lon="0.2136">
        <ele>2623.4</ele>
        <time>2022-02-09T11:42:38Z</time>
      </trkpt>
      <trkpt lat="42.86808" lon="0.2136">
        <ele>2623.4</ele>
        <time>2022-02-09T11:42:39Z</time>
      </trkpt>
      <trkpt lat="42.86808" lon="0.2136">
        <ele>2623.4</ele>
        <time>2022-02-09T11:42:40Z</time>
      </trkpt>
      <trkpt lat="42.86807" lon="0.21359">
        <ele>2623.4</ele>
        <time>2022-02-09T11:42:41Z</time>
      </trkpt>
      <trkpt lat="42.86807" lon="0.21357">
        <ele>2623.4</ele>
        <time>2022-02-09T11:42:42Z</time>
      </trkpt>
      <trkpt lat="42.86807" lon="0.21357">
        <ele>2623.4</ele>
        <time>2022-02-09T11:42:43Z</time>
      </trkpt>
      <trkpt lat="42.86807" lon="0.21356">
        <ele>2623.4</ele>
        <time>2022-02-09T11:42:44Z</time>
      </trkpt>
      <trkpt lat="42.86807" lon="0.21356">
        <ele>2623.4</ele>
        <time>2022-02-09T11:42:45Z</time>
      </trkpt>
      <trkpt lat="42.86807" lon="0.21355">
        <ele>2623.4</ele>
        <time>2022-02-09T11:42:46Z</time>
      </trkpt>
      <trkpt lat="42.86807" lon="0.21355">
        <ele>2623.4</ele>
        <time>2022-02-09T11:42:47Z</time>
      </trkpt>
      <trkpt lat="42.86807" lon="0.21355">
        <ele>2623.4</ele>
        <time>2022-02-09T11:42:48Z</time>
      </trkpt>
      <trkpt lat="42.86807" lon="0.21355">
        <ele>2623.4</ele>
        <time>2022-02-09T11:42:49Z</time>
      </trkpt>
      <trkpt lat="42.86807" lon="0.21355">
        <ele>2623.4</ele>
        <time>2022-02-09T11:42:50Z</time>
      </trkpt>
      <trkpt lat="42.86807" lon="0.21355">
        <ele>2623.4</ele>
        <time>2022-02-09T11:42:51Z</time>
      </trkpt>
      <trkpt lat="42.86807" lon="0.21355">
        <ele>2623.4</ele>
        <time>2022-02-09T11:42:52Z</time>
      </trkpt>
      <trkpt lat="42.86807" lon="0.21355">
        <ele>2623.4</ele>
        <time>2022-02-09T11:42:53Z</time>
      </trkpt>
      <trkpt lat="42.86807" lon="0.21354">
        <ele>2623.3</ele>
        <time>2022-02-09T11:42:54Z</time>
      </trkpt>
      <trkpt lat="42.86809" lon="0.21353">
        <ele>2623.3</ele>
        <time>2022-02-09T11:42:55Z</time>
      </trkpt>
      <trkpt lat="42.86809" lon="0.21352">
        <ele>2623.7</ele>
        <time>2022-02-09T11:42:56Z</time>
      </trkpt>
      <trkpt lat="42.86809" lon="0.21352">
        <ele>2624.1</ele>
        <time>2022-02-09T11:42:57Z</time>
      </trkpt>
      <trkpt lat="42.86809" lon="0.21352">
        <ele>2624.5</ele>
        <time>2022-02-09T11:42:58Z</time>
      </trkpt>
      <trkpt lat="42.86809" lon="0.21352">
        <ele>2624.9</ele>
        <time>2022-02-09T11:42:59Z</time>
      </trkpt>
      <trkpt lat="42.86809" lon="0.21352">
        <ele>2625.3</ele>
        <time>2022-02-09T11:43:00Z</time>
      </trkpt>
      <trkpt lat="42.86809" lon="0.21352">
        <ele>2625.7</ele>
        <time>2022-02-09T11:43:01Z</time>
      </trkpt>
      <trkpt lat="42.86809" lon="0.21352">
        <ele>2626.1</ele>
        <time>2022-02-09T11:43:02Z</time>
      </trkpt>
      <trkpt lat="42.86809" lon="0.21352">
        <ele>2626.5</ele>
        <time>2022-02-09T11:43:03Z</time>
      </trkpt>
      <trkpt lat="42.8681" lon="0.21352">
        <ele>2626.9</ele>
        <time>2022-02-09T11:43:04Z</time>
      </trkpt>
      <trkpt lat="42.8681" lon="0.21352">
        <ele>2627.1</ele>
        <time>2022-02-09T11:43:05Z</time>
      </trkpt>
      <trkpt lat="42.86811" lon="0.21352">
        <ele>2627.5</ele>
        <time>2022-02-09T11:43:06Z</time>
      </trkpt>
      <trkpt lat="42.86811" lon="0.21352">
        <ele>2627.9</ele>
        <time>2022-02-09T11:43:07Z</time>
      </trkpt>
      <trkpt lat="42.86812" lon="0.21353">
        <ele>2628.3</ele>
        <time>2022-02-09T11:43:08Z</time>
      </trkpt>
      <trkpt lat="42.86813" lon="0.21353">
        <ele>2628.7</ele>
        <time>2022-02-09T11:43:09Z</time>
      </trkpt>
      <trkpt lat="42.86814" lon="0.21353">
        <ele>2628.9</ele>
        <time>2022-02-09T11:43:10Z</time>
      </trkpt>
      <trkpt lat="42.86814" lon="0.21353">
        <ele>2629.3</ele>
        <time>2022-02-09T11:43:11Z</time>
      </trkpt>
      <trkpt lat="42.86815" lon="0.21354">
        <ele>2629.7</ele>
        <time>2022-02-09T11:43:12Z</time>
      </trkpt>
      <trkpt lat="42.86815" lon="0.21354">
        <ele>2630.1</ele>
        <time>2022-02-09T11:43:13Z</time>
      </trkpt>
      <trkpt lat="42.86816" lon="0.21355">
        <ele>2630.5</ele>
        <time>2022-02-09T11:43:14Z</time>
      </trkpt>
      <trkpt lat="42.86817" lon="0.21355">
        <ele>2630.9</ele>
        <time>2022-02-09T11:43:15Z</time>
      </trkpt>
      <trkpt lat="42.86817" lon="0.21356">
        <ele>2631.2</ele>
        <time>2022-02-09T11:43:16Z</time>
      </trkpt>
      <trkpt lat="42.86818" lon="0.21356">
        <ele>2631.6</ele>
        <time>2022-02-09T11:43:17Z</time>
      </trkpt>
      <trkpt lat="42.86818" lon="0.21357">
        <ele>2632</ele>
        <time>2022-02-09T11:43:18Z</time>
      </trkpt>
      <trkpt lat="42.86819" lon="0.21357">
        <ele>2632.3</ele>
        <time>2022-02-09T11:43:19Z</time>
      </trkpt>
      <trkpt lat="42.86819" lon="0.21357">
        <ele>2632.6</ele>
        <time>2022-02-09T11:43:20Z</time>
      </trkpt>
      <trkpt lat="42.8682" lon="0.21357">
        <ele>2632.9</ele>
        <time>2022-02-09T11:43:21Z</time>
      </trkpt>
      <trkpt lat="42.86821" lon="0.21357">
        <ele>2633.3</ele>
        <time>2022-02-09T11:43:22Z</time>
      </trkpt>
      <trkpt lat="42.86821" lon="0.21358">
        <ele>2633.7</ele>
        <time>2022-02-09T11:43:23Z</time>
      </trkpt>
      <trkpt lat="42.86821" lon="0.21358">
        <ele>2634.1</ele>
        <time>2022-02-09T11:43:24Z</time>
      </trkpt>
      <trkpt lat="42.86822" lon="0.21358">
        <ele>2634.4</ele>
        <time>2022-02-09T11:43:25Z</time>
      </trkpt>
      <trkpt lat="42.86823" lon="0.21358">
        <ele>2634.7</ele>
        <time>2022-02-09T11:43:26Z</time>
      </trkpt>
      <trkpt lat="42.86823" lon="0.21359">
        <ele>2635.1</ele>
        <time>2022-02-09T11:43:27Z</time>
      </trkpt>
      <trkpt lat="42.86824" lon="0.21359">
        <ele>2635.5</ele>
        <time>2022-02-09T11:43:28Z</time>
      </trkpt>
      <trkpt lat="42.86825" lon="0.21359">
        <ele>2635.9</ele>
        <time>2022-02-09T11:43:29Z</time>
      </trkpt>
      <trkpt lat="42.86826" lon="0.2136">
        <ele>2636.2</ele>
        <time>2022-02-09T11:43:30Z</time>
      </trkpt>
      <trkpt lat="42.86826" lon="0.2136">
        <ele>2636.6</ele>
        <time>2022-02-09T11:43:31Z</time>
      </trkpt>
      <trkpt lat="42.86827" lon="0.21361">
        <ele>2636.9</ele>
        <time>2022-02-09T11:43:32Z</time>
      </trkpt>
      <trkpt lat="42.86828" lon="0.21361">
        <ele>2637.3</ele>
        <time>2022-02-09T11:43:33Z</time>
      </trkpt>
      <trkpt lat="42.86829" lon="0.21361">
        <ele>2637.6</ele>
        <time>2022-02-09T11:43:34Z</time>
      </trkpt>
      <trkpt lat="42.86829" lon="0.21362">
        <ele>2637.9</ele>
        <time>2022-02-09T11:43:35Z</time>
      </trkpt>
      <trkpt lat="42.8683" lon="0.21362">
        <ele>2638.3</ele>
        <time>2022-02-09T11:43:36Z</time>
      </trkpt>
      <trkpt lat="42.86831" lon="0.21363">
        <ele>2638.7</ele>
        <time>2022-02-09T11:43:37Z</time>
      </trkpt>
      <trkpt lat="42.86831" lon="0.21363">
        <ele>2639</ele>
        <time>2022-02-09T11:43:38Z</time>
      </trkpt>
      <trkpt lat="42.86832" lon="0.21364">
        <ele>2639.6</ele>
        <time>2022-02-09T11:43:39Z</time>
      </trkpt>
      <trkpt lat="42.86832" lon="0.21364">
        <ele>2639.9</ele>
        <time>2022-02-09T11:43:40Z</time>
      </trkpt>
      <trkpt lat="42.86833" lon="0.21364">
        <ele>2640.3</ele>
        <time>2022-02-09T11:43:41Z</time>
      </trkpt>
      <trkpt lat="42.86834" lon="0.21365">
        <ele>2640.7</ele>
        <time>2022-02-09T11:43:42Z</time>
      </trkpt>
      <trkpt lat="42.86835" lon="0.21365">
        <ele>2641.1</ele>
        <time>2022-02-09T11:43:43Z</time>
      </trkpt>
      <trkpt lat="42.86835" lon="0.21366">
        <ele>2641.5</ele>
        <time>2022-02-09T11:43:44Z</time>
      </trkpt>
      <trkpt lat="42.86836" lon="0.21366">
        <ele>2641.9</ele>
        <time>2022-02-09T11:43:45Z</time>
      </trkpt>
      <trkpt lat="42.86837" lon="0.21367">
        <ele>2642.2</ele>
        <time>2022-02-09T11:43:46Z</time>
      </trkpt>
      <trkpt lat="42.86837" lon="0.21367">
        <ele>2642.6</ele>
        <time>2022-02-09T11:43:47Z</time>
      </trkpt>
      <trkpt lat="42.86838" lon="0.21368">
        <ele>2643</ele>
        <time>2022-02-09T11:43:48Z</time>
      </trkpt>
      <trkpt lat="42.86838" lon="0.21368">
        <ele>2643.7</ele>
        <time>2022-02-09T11:43:49Z</time>
      </trkpt>
      <trkpt lat="42.86839" lon="0.21369">
        <ele>2644.1</ele>
        <time>2022-02-09T11:43:50Z</time>
      </trkpt>
      <trkpt lat="42.8684" lon="0.21369">
        <ele>2644.5</ele>
        <time>2022-02-09T11:43:51Z</time>
      </trkpt>
      <trkpt lat="42.8684" lon="0.2137">
        <ele>2644.9</ele>
        <time>2022-02-09T11:43:52Z</time>
      </trkpt>
      <trkpt lat="42.86841" lon="0.2137">
        <ele>2645.3</ele>
        <time>2022-02-09T11:43:53Z</time>
      </trkpt>
      <trkpt lat="42.86841" lon="0.21371">
        <ele>2645.7</ele>
        <time>2022-02-09T11:43:54Z</time>
      </trkpt>
      <trkpt lat="42.86842" lon="0.21371">
        <ele>2646.1</ele>
        <time>2022-02-09T11:43:55Z</time>
      </trkpt>
      <trkpt lat="42.86842" lon="0.21372">
        <ele>2646.5</ele>
        <time>2022-02-09T11:43:56Z</time>
      </trkpt>
      <trkpt lat="42.86843" lon="0.21372">
        <ele>2647.2</ele>
        <time>2022-02-09T11:43:57Z</time>
      </trkpt>
      <trkpt lat="42.86843" lon="0.21373">
        <ele>2647.6</ele>
        <time>2022-02-09T11:43:58Z</time>
      </trkpt>
      <trkpt lat="42.86844" lon="0.21373">
        <ele>2648</ele>
        <time>2022-02-09T11:43:59Z</time>
      </trkpt>
      <trkpt lat="42.86845" lon="0.21374">
        <ele>2648.5</ele>
        <time>2022-02-09T11:44:00Z</time>
      </trkpt>
      <trkpt lat="42.86845" lon="0.21374">
        <ele>2648.9</ele>
        <time>2022-02-09T11:44:01Z</time>
      </trkpt>
      <trkpt lat="42.86846" lon="0.21375">
        <ele>2649.3</ele>
        <time>2022-02-09T11:44:02Z</time>
      </trkpt>
      <trkpt lat="42.86846" lon="0.21375">
        <ele>2649.7</ele>
        <time>2022-02-09T11:44:03Z</time>
      </trkpt>
      <trkpt lat="42.86847" lon="0.21376">
        <ele>2650.2</ele>
        <time>2022-02-09T11:44:04Z</time>
      </trkpt>
      <trkpt lat="42.86848" lon="0.21376">
        <ele>2650.6</ele>
        <time>2022-02-09T11:44:05Z</time>
      </trkpt>
      <trkpt lat="42.86848" lon="0.21377">
        <ele>2651.3</ele>
        <time>2022-02-09T11:44:06Z</time>
      </trkpt>
      <trkpt lat="42.86849" lon="0.21377">
        <ele>2651.8</ele>
        <time>2022-02-09T11:44:07Z</time>
      </trkpt>
      <trkpt lat="42.8685" lon="0.21378">
        <ele>2652.2</ele>
        <time>2022-02-09T11:44:08Z</time>
      </trkpt>
      <trkpt lat="42.8685" lon="0.21378">
        <ele>2652.7</ele>
        <time>2022-02-09T11:44:09Z</time>
      </trkpt>
      <trkpt lat="42.86851" lon="0.21378">
        <ele>2653.1</ele>
        <time>2022-02-09T11:44:10Z</time>
      </trkpt>
      <trkpt lat="42.86851" lon="0.21379">
        <ele>2653.5</ele>
        <time>2022-02-09T11:44:11Z</time>
      </trkpt>
      <trkpt lat="42.86852" lon="0.21379">
        <ele>2654</ele>
        <time>2022-02-09T11:44:12Z</time>
      </trkpt>
      <trkpt lat="42.86853" lon="0.2138">
        <ele>2654.4</ele>
        <time>2022-02-09T11:44:13Z</time>
      </trkpt>
      <trkpt lat="42.86853" lon="0.2138">
        <ele>2654.9</ele>
        <time>2022-02-09T11:44:14Z</time>
      </trkpt>
      <trkpt lat="42.86854" lon="0.2138">
        <ele>2655.3</ele>
        <time>2022-02-09T11:44:15Z</time>
      </trkpt>
      <trkpt lat="42.86855" lon="0.21381">
        <ele>2656.3</ele>
        <time>2022-02-09T11:44:16Z</time>
      </trkpt>
      <trkpt lat="42.86856" lon="0.21381">
        <ele>2656.7</ele>
        <time>2022-02-09T11:44:17Z</time>
      </trkpt>
      <trkpt lat="42.86857" lon="0.21381">
        <ele>2657.2</ele>
        <time>2022-02-09T11:44:18Z</time>
      </trkpt>
      <trkpt lat="42.86858" lon="0.21381">
        <ele>2657.6</ele>
        <time>2022-02-09T11:44:19Z</time>
      </trkpt>
      <trkpt lat="42.86858" lon="0.21382">
        <ele>2658.1</ele>
        <time>2022-02-09T11:44:20Z</time>
      </trkpt>
      <trkpt lat="42.86859" lon="0.21382">
        <ele>2658.5</ele>
        <time>2022-02-09T11:44:21Z</time>
      </trkpt>
      <trkpt lat="42.8686" lon="0.21382">
        <ele>2659</ele>
        <time>2022-02-09T11:44:22Z</time>
      </trkpt>
      <trkpt lat="42.86861" lon="0.21383">
        <ele>2659.5</ele>
        <time>2022-02-09T11:44:23Z</time>
      </trkpt>
      <trkpt lat="42.86863" lon="0.21383">
        <ele>2659.9</ele>
        <time>2022-02-09T11:44:24Z</time>
      </trkpt>
      <trkpt lat="42.86864" lon="0.21384">
        <ele>2660.4</ele>
        <time>2022-02-09T11:44:25Z</time>
      </trkpt>
      <trkpt lat="42.86865" lon="0.21384">
        <ele>2660.9</ele>
        <time>2022-02-09T11:44:26Z</time>
      </trkpt>
      <trkpt lat="42.86867" lon="0.21385">
        <ele>2662</ele>
        <time>2022-02-09T11:44:27Z</time>
      </trkpt>
      <trkpt lat="42.86868" lon="0.21385">
        <ele>2662.4</ele>
        <time>2022-02-09T11:44:28Z</time>
      </trkpt>
      <trkpt lat="42.86868" lon="0.21386">
        <ele>2662.9</ele>
        <time>2022-02-09T11:44:29Z</time>
      </trkpt>
      <trkpt lat="42.86869" lon="0.21386">
        <ele>2663.4</ele>
        <time>2022-02-09T11:44:30Z</time>
      </trkpt>
      <trkpt lat="42.8687" lon="0.21387">
        <ele>2663.9</ele>
        <time>2022-02-09T11:44:31Z</time>
      </trkpt>
      <trkpt lat="42.86871" lon="0.21387">
        <ele>2664.4</ele>
        <time>2022-02-09T11:44:32Z</time>
      </trkpt>
      <trkpt lat="42.86872" lon="0.21388">
        <ele>2664.9</ele>
        <time>2022-02-09T11:44:33Z</time>
      </trkpt>
      <trkpt lat="42.86872" lon="0.21388">
        <ele>2665.4</ele>
        <time>2022-02-09T11:44:34Z</time>
      </trkpt>
      <trkpt lat="42.86873" lon="0.21388">
        <ele>2666</ele>
        <time>2022-02-09T11:44:35Z</time>
      </trkpt>
      <trkpt lat="42.86874" lon="0.21389">
        <ele>2666</ele>
        <time>2022-02-09T11:44:36Z</time>
      </trkpt>
      <trkpt lat="42.86875" lon="0.2139">
        <ele>2666.8</ele>
        <time>2022-02-09T11:44:37Z</time>
      </trkpt>
      <trkpt lat="42.86876" lon="0.2139">
        <ele>2666.8</ele>
        <time>2022-02-09T11:44:38Z</time>
      </trkpt>
      <trkpt lat="42.86877" lon="0.2139">
        <ele>2666.8</ele>
        <time>2022-02-09T11:44:39Z</time>
      </trkpt>
      <trkpt lat="42.86877" lon="0.21391">
        <ele>2666.8</ele>
        <time>2022-02-09T11:44:40Z</time>
      </trkpt>
      <trkpt lat="42.86878" lon="0.21391">
        <ele>2666.8</ele>
        <time>2022-02-09T11:44:41Z</time>
      </trkpt>
      <trkpt lat="42.86879" lon="0.21391">
        <ele>2666.8</ele>
        <time>2022-02-09T11:44:42Z</time>
      </trkpt>
      <trkpt lat="42.8688" lon="0.21392">
        <ele>2666.9</ele>
        <time>2022-02-09T11:44:43Z</time>
      </trkpt>
      <trkpt lat="42.86881" lon="0.21392">
        <ele>2666.9</ele>
        <time>2022-02-09T11:44:44Z</time>
      </trkpt>
      <trkpt lat="42.86881" lon="0.21392">
        <ele>2666.9</ele>
        <time>2022-02-09T11:44:45Z</time>
      </trkpt>
      <trkpt lat="42.86882" lon="0.21393">
        <ele>2666.9</ele>
        <time>2022-02-09T11:44:46Z</time>
      </trkpt>
      <trkpt lat="42.86883" lon="0.21393">
        <ele>2666.9</ele>
        <time>2022-02-09T11:44:47Z</time>
      </trkpt>
      <trkpt lat="42.86884" lon="0.21393">
        <ele>2666.9</ele>
        <time>2022-02-09T11:44:48Z</time>
      </trkpt>
      <trkpt lat="42.86884" lon="0.21394">
        <ele>2667.8</ele>
        <time>2022-02-09T11:44:49Z</time>
      </trkpt>
      <trkpt lat="42.86885" lon="0.21394">
        <ele>2667.8</ele>
        <time>2022-02-09T11:44:50Z</time>
      </trkpt>
      <trkpt lat="42.86886" lon="0.21394">
        <ele>2667.8</ele>
        <time>2022-02-09T11:44:51Z</time>
      </trkpt>
      <trkpt lat="42.86886" lon="0.21395">
        <ele>2667.8</ele>
        <time>2022-02-09T11:44:52Z</time>
      </trkpt>
      <trkpt lat="42.86887" lon="0.21395">
        <ele>2667.8</ele>
        <time>2022-02-09T11:44:53Z</time>
      </trkpt>
      <trkpt lat="42.86887" lon="0.21396">
        <ele>2667.8</ele>
        <time>2022-02-09T11:44:54Z</time>
      </trkpt>
      <trkpt lat="42.86888" lon="0.21396">
        <ele>2667.8</ele>
        <time>2022-02-09T11:44:55Z</time>
      </trkpt>
      <trkpt lat="42.86889" lon="0.21397">
        <ele>2667.8</ele>
        <time>2022-02-09T11:44:56Z</time>
      </trkpt>
      <trkpt lat="42.8689" lon="0.21397">
        <ele>2667.8</ele>
        <time>2022-02-09T11:44:57Z</time>
      </trkpt>
      <trkpt lat="42.8689" lon="0.21398">
        <ele>2668.7</ele>
        <time>2022-02-09T11:44:58Z</time>
      </trkpt>
      <trkpt lat="42.86891" lon="0.21398">
        <ele>2668.7</ele>
        <time>2022-02-09T11:44:59Z</time>
      </trkpt>
      <trkpt lat="42.86891" lon="0.21399">
        <ele>2668.7</ele>
        <time>2022-02-09T11:45:00Z</time>
      </trkpt>
      <trkpt lat="42.86892" lon="0.214">
        <ele>2668.8</ele>
        <time>2022-02-09T11:45:01Z</time>
      </trkpt>
      <trkpt lat="42.86893" lon="0.214">
        <ele>2668.8</ele>
        <time>2022-02-09T11:45:02Z</time>
      </trkpt>
      <trkpt lat="42.86893" lon="0.21401">
        <ele>2668.8</ele>
        <time>2022-02-09T11:45:03Z</time>
      </trkpt>
      <trkpt lat="42.86893" lon="0.21402">
        <ele>2668.8</ele>
        <time>2022-02-09T11:45:04Z</time>
      </trkpt>
      <trkpt lat="42.86894" lon="0.21402">
        <ele>2669.6</ele>
        <time>2022-02-09T11:45:05Z</time>
      </trkpt>
      <trkpt lat="42.86894" lon="0.21403">
        <ele>2669.6</ele>
        <time>2022-02-09T11:45:06Z</time>
      </trkpt>
      <trkpt lat="42.86894" lon="0.21404">
        <ele>2669.6</ele>
        <time>2022-02-09T11:45:07Z</time>
      </trkpt>
      <trkpt lat="42.86895" lon="0.21404">
        <ele>2669.6</ele>
        <time>2022-02-09T11:45:08Z</time>
      </trkpt>
      <trkpt lat="42.86895" lon="0.21405">
        <ele>2669.6</ele>
        <time>2022-02-09T11:45:09Z</time>
      </trkpt>
      <trkpt lat="42.86896" lon="0.21406">
        <ele>2669.6</ele>
        <time>2022-02-09T11:45:10Z</time>
      </trkpt>
      <trkpt lat="42.86896" lon="0.21407">
        <ele>2670.4</ele>
        <time>2022-02-09T11:45:11Z</time>
      </trkpt>
      <trkpt lat="42.86897" lon="0.21407">
        <ele>2670.4</ele>
        <time>2022-02-09T11:45:12Z</time>
      </trkpt>
      <trkpt lat="42.86897" lon="0.21408">
        <ele>2670.4</ele>
        <time>2022-02-09T11:45:13Z</time>
      </trkpt>
      <trkpt lat="42.86897" lon="0.21409">
        <ele>2670.4</ele>
        <time>2022-02-09T11:45:14Z</time>
      </trkpt>
      <trkpt lat="42.86898" lon="0.2141">
        <ele>2670.4</ele>
        <time>2022-02-09T11:45:15Z</time>
      </trkpt>
      <trkpt lat="42.86898" lon="0.21411">
        <ele>2671.2</ele>
        <time>2022-02-09T11:45:16Z</time>
      </trkpt>
      <trkpt lat="42.86898" lon="0.21411">
        <ele>2671.3</ele>
        <time>2022-02-09T11:45:17Z</time>
      </trkpt>
      <trkpt lat="42.86899" lon="0.21412">
        <ele>2671.3</ele>
        <time>2022-02-09T11:45:18Z</time>
      </trkpt>
      <trkpt lat="42.86899" lon="0.21413">
        <ele>2671.3</ele>
        <time>2022-02-09T11:45:19Z</time>
      </trkpt>
      <trkpt lat="42.869" lon="0.21414">
        <ele>2671.3</ele>
        <time>2022-02-09T11:45:20Z</time>
      </trkpt>
      <trkpt lat="42.869" lon="0.21414">
        <ele>2671.3</ele>
        <time>2022-02-09T11:45:21Z</time>
      </trkpt>
      <trkpt lat="42.869" lon="0.21415">
        <ele>2672.1</ele>
        <time>2022-02-09T11:45:22Z</time>
      </trkpt>
      <trkpt lat="42.86901" lon="0.21416">
        <ele>2672.1</ele>
        <time>2022-02-09T11:45:23Z</time>
      </trkpt>
      <trkpt lat="42.86901" lon="0.21417">
        <ele>2672.1</ele>
        <time>2022-02-09T11:45:24Z</time>
      </trkpt>
      <trkpt lat="42.86902" lon="0.21417">
        <ele>2672.2</ele>
        <time>2022-02-09T11:45:25Z</time>
      </trkpt>
      <trkpt lat="42.86902" lon="0.21418">
        <ele>2672.2</ele>
        <time>2022-02-09T11:45:26Z</time>
      </trkpt>
      <trkpt lat="42.86902" lon="0.21419">
        <ele>2672.2</ele>
        <time>2022-02-09T11:45:27Z</time>
      </trkpt>
      <trkpt lat="42.86903" lon="0.2142">
        <ele>2673</ele>
        <time>2022-02-09T11:45:28Z</time>
      </trkpt>
      <trkpt lat="42.86903" lon="0.2142">
        <ele>2673</ele>
        <time>2022-02-09T11:45:29Z</time>
      </trkpt>
      <trkpt lat="42.86903" lon="0.21421">
        <ele>2673</ele>
        <time>2022-02-09T11:45:30Z</time>
      </trkpt>
      <trkpt lat="42.86904" lon="0.21422">
        <ele>2673</ele>
        <time>2022-02-09T11:45:31Z</time>
      </trkpt>
      <trkpt lat="42.86904" lon="0.21423">
        <ele>2673</ele>
        <time>2022-02-09T11:45:32Z</time>
      </trkpt>
      <trkpt lat="42.86904" lon="0.21423">
        <ele>2673</ele>
        <time>2022-02-09T11:45:33Z</time>
      </trkpt>
      <trkpt lat="42.86905" lon="0.21424">
        <ele>2673.8</ele>
        <time>2022-02-09T11:45:34Z</time>
      </trkpt>
      <trkpt lat="42.86905" lon="0.21425">
        <ele>2673.8</ele>
        <time>2022-02-09T11:45:35Z</time>
      </trkpt>
      <trkpt lat="42.86906" lon="0.21426">
        <ele>2673.8</ele>
        <time>2022-02-09T11:45:36Z</time>
      </trkpt>
      <trkpt lat="42.86906" lon="0.21426">
        <ele>2673.8</ele>
        <time>2022-02-09T11:45:37Z</time>
      </trkpt>
      <trkpt lat="42.86906" lon="0.21427">
        <ele>2673.8</ele>
        <time>2022-02-09T11:45:38Z</time>
      </trkpt>
      <trkpt lat="42.86907" lon="0.21428">
        <ele>2673.8</ele>
        <time>2022-02-09T11:45:39Z</time>
      </trkpt>
      <trkpt lat="42.86907" lon="0.21428">
        <ele>2674.6</ele>
        <time>2022-02-09T11:45:40Z</time>
      </trkpt>
      <trkpt lat="42.86907" lon="0.21429">
        <ele>2674.6</ele>
        <time>2022-02-09T11:45:41Z</time>
      </trkpt>
      <trkpt lat="42.86908" lon="0.21429">
        <ele>2674.6</ele>
        <time>2022-02-09T11:45:42Z</time>
      </trkpt>
      <trkpt lat="42.86908" lon="0.2143">
        <ele>2674.6</ele>
        <time>2022-02-09T11:45:43Z</time>
      </trkpt>
      <trkpt lat="42.86909" lon="0.21431">
        <ele>2674.6</ele>
        <time>2022-02-09T11:45:44Z</time>
      </trkpt>
      <trkpt lat="42.86909" lon="0.21432">
        <ele>2674.6</ele>
        <time>2022-02-09T11:45:45Z</time>
      </trkpt>
      <trkpt lat="42.86909" lon="0.21432">
        <ele>2675.4</ele>
        <time>2022-02-09T11:45:46Z</time>
      </trkpt>
      <trkpt lat="42.8691" lon="0.21433">
        <ele>2675.4</ele>
        <time>2022-02-09T11:45:47Z</time>
      </trkpt>
      <trkpt lat="42.8691" lon="0.21434">
        <ele>2675.4</ele>
        <time>2022-02-09T11:45:48Z</time>
      </trkpt>
      <trkpt lat="42.8691" lon="0.21435">
        <ele>2675.4</ele>
        <time>2022-02-09T11:45:49Z</time>
      </trkpt>
      <trkpt lat="42.8691" lon="0.21435">
        <ele>2675.4</ele>
        <time>2022-02-09T11:45:50Z</time>
      </trkpt>
      <trkpt lat="42.86911" lon="0.21436">
        <ele>2675.4</ele>
        <time>2022-02-09T11:45:51Z</time>
      </trkpt>
      <trkpt lat="42.86911" lon="0.21437">
        <ele>2676.1</ele>
        <time>2022-02-09T11:45:52Z</time>
      </trkpt>
      <trkpt lat="42.86911" lon="0.21437">
        <ele>2676.1</ele>
        <time>2022-02-09T11:45:53Z</time>
      </trkpt>
      <trkpt lat="42.86911" lon="0.21438">
        <ele>2676.1</ele>
        <time>2022-02-09T11:45:54Z</time>
      </trkpt>
      <trkpt lat="42.86912" lon="0.21439">
        <ele>2676.1</ele>
        <time>2022-02-09T11:45:55Z</time>
      </trkpt>
      <trkpt lat="42.86912" lon="0.21439">
        <ele>2676.1</ele>
        <time>2022-02-09T11:45:56Z</time>
      </trkpt>
      <trkpt lat="42.86912" lon="0.2144">
        <ele>2676.1</ele>
        <time>2022-02-09T11:45:57Z</time>
      </trkpt>
      <trkpt lat="42.86912" lon="0.21441">
        <ele>2676.8</ele>
        <time>2022-02-09T11:45:58Z</time>
      </trkpt>
      <trkpt lat="42.86912" lon="0.21441">
        <ele>2676.8</ele>
        <time>2022-02-09T11:45:59Z</time>
      </trkpt>
      <trkpt lat="42.86913" lon="0.21442">
        <ele>2676.8</ele>
        <time>2022-02-09T11:46:00Z</time>
      </trkpt>
      <trkpt lat="42.86913" lon="0.21443">
        <ele>2676.8</ele>
        <time>2022-02-09T11:46:01Z</time>
      </trkpt>
      <trkpt lat="42.86913" lon="0.21443">
        <ele>2676.8</ele>
        <time>2022-02-09T11:46:02Z</time>
      </trkpt>
      <trkpt lat="42.86913" lon="0.21444">
        <ele>2676.8</ele>
        <time>2022-02-09T11:46:03Z</time>
      </trkpt>
      <trkpt lat="42.86914" lon="0.21445">
        <ele>2676.8</ele>
        <time>2022-02-09T11:46:04Z</time>
      </trkpt>
      <trkpt lat="42.86914" lon="0.21445">
        <ele>2677.4</ele>
        <time>2022-02-09T11:46:05Z</time>
      </trkpt>
      <trkpt lat="42.86914" lon="0.21446">
        <ele>2677.4</ele>
        <time>2022-02-09T11:46:06Z</time>
      </trkpt>
      <trkpt lat="42.86914" lon="0.21447">
        <ele>2677.4</ele>
        <time>2022-02-09T11:46:07Z</time>
      </trkpt>
      <trkpt lat="42.86914" lon="0.21447">
        <ele>2677.4</ele>
        <time>2022-02-09T11:46:08Z</time>
      </trkpt>
      <trkpt lat="42.86915" lon="0.21448">
        <ele>2677.4</ele>
        <time>2022-02-09T11:46:09Z</time>
      </trkpt>
      <trkpt lat="42.86915" lon="0.21449">
        <ele>2677.4</ele>
        <time>2022-02-09T11:46:10Z</time>
      </trkpt>
      <trkpt lat="42.86915" lon="0.21449">
        <ele>2678</ele>
        <time>2022-02-09T11:46:11Z</time>
      </trkpt>
      <trkpt lat="42.86915" lon="0.2145">
        <ele>2678</ele>
        <time>2022-02-09T11:46:12Z</time>
      </trkpt>
      <trkpt lat="42.86916" lon="0.21451">
        <ele>2678</ele>
        <time>2022-02-09T11:46:13Z</time>
      </trkpt>
      <trkpt lat="42.86916" lon="0.21452">
        <ele>2678</ele>
        <time>2022-02-09T11:46:14Z</time>
      </trkpt>
      <trkpt lat="42.86917" lon="0.21452">
        <ele>2678</ele>
        <time>2022-02-09T11:46:15Z</time>
      </trkpt>
      <trkpt lat="42.86917" lon="0.21453">
        <ele>2678</ele>
        <time>2022-02-09T11:46:16Z</time>
      </trkpt>
      <trkpt lat="42.86917" lon="0.21454">
        <ele>2678.5</ele>
        <time>2022-02-09T11:46:17Z</time>
      </trkpt>
      <trkpt lat="42.86918" lon="0.21454">
        <ele>2678.5</ele>
        <time>2022-02-09T11:46:18Z</time>
      </trkpt>
      <trkpt lat="42.86918" lon="0.21455">
        <ele>2678.5</ele>
        <time>2022-02-09T11:46:19Z</time>
      </trkpt>
      <trkpt lat="42.86918" lon="0.21456">
        <ele>2678.5</ele>
        <time>2022-02-09T11:46:20Z</time>
      </trkpt>
      <trkpt lat="42.86919" lon="0.21457">
        <ele>2678.5</ele>
        <time>2022-02-09T11:46:21Z</time>
      </trkpt>
      <trkpt lat="42.86919" lon="0.21458">
        <ele>2678.5</ele>
        <time>2022-02-09T11:46:22Z</time>
      </trkpt>
      <trkpt lat="42.86919" lon="0.21458">
        <ele>2678.9</ele>
        <time>2022-02-09T11:46:23Z</time>
      </trkpt>
      <trkpt lat="42.8692" lon="0.21459">
        <ele>2678.9</ele>
        <time>2022-02-09T11:46:24Z</time>
      </trkpt>
      <trkpt lat="42.8692" lon="0.2146">
        <ele>2678.9</ele>
        <time>2022-02-09T11:46:25Z</time>
      </trkpt>
      <trkpt lat="42.8692" lon="0.2146">
        <ele>2678.9</ele>
        <time>2022-02-09T11:46:26Z</time>
      </trkpt>
      <trkpt lat="42.8692" lon="0.21461">
        <ele>2678.9</ele>
        <time>2022-02-09T11:46:27Z</time>
      </trkpt>
      <trkpt lat="42.86921" lon="0.21462">
        <ele>2678.9</ele>
        <time>2022-02-09T11:46:28Z</time>
      </trkpt>
      <trkpt lat="42.86921" lon="0.21462">
        <ele>2679.3</ele>
        <time>2022-02-09T11:46:29Z</time>
      </trkpt>
      <trkpt lat="42.86921" lon="0.21463">
        <ele>2679.3</ele>
        <time>2022-02-09T11:46:30Z</time>
      </trkpt>
      <trkpt lat="42.86922" lon="0.21464">
        <ele>2679.3</ele>
        <time>2022-02-09T11:46:31Z</time>
      </trkpt>
      <trkpt lat="42.86922" lon="0.21464">
        <ele>2679.3</ele>
        <time>2022-02-09T11:46:32Z</time>
      </trkpt>
      <trkpt lat="42.86922" lon="0.21465">
        <ele>2679.3</ele>
        <time>2022-02-09T11:46:33Z</time>
      </trkpt>
      <trkpt lat="42.86923" lon="0.21466">
        <ele>2679.3</ele>
        <time>2022-02-09T11:46:34Z</time>
      </trkpt>
      <trkpt lat="42.86923" lon="0.21466">
        <ele>2679.3</ele>
        <time>2022-02-09T11:46:35Z</time>
      </trkpt>
      <trkpt lat="42.86923" lon="0.21467">
        <ele>2679.7</ele>
        <time>2022-02-09T11:46:36Z</time>
      </trkpt>
      <trkpt lat="42.86923" lon="0.21467">
        <ele>2679.6</ele>
        <time>2022-02-09T11:46:37Z</time>
      </trkpt>
      <trkpt lat="42.86924" lon="0.21468">
        <ele>2679.6</ele>
        <time>2022-02-09T11:46:38Z</time>
      </trkpt>
      <trkpt lat="42.86924" lon="0.21469">
        <ele>2679.6</ele>
        <time>2022-02-09T11:46:39Z</time>
      </trkpt>
      <trkpt lat="42.86924" lon="0.21469">
        <ele>2679.6</ele>
        <time>2022-02-09T11:46:40Z</time>
      </trkpt>
      <trkpt lat="42.86925" lon="0.2147">
        <ele>2679.6</ele>
        <time>2022-02-09T11:46:41Z</time>
      </trkpt>
      <trkpt lat="42.86925" lon="0.21471">
        <ele>2680</ele>
        <time>2022-02-09T11:46:42Z</time>
      </trkpt>
      <trkpt lat="42.86925" lon="0.21472">
        <ele>2680</ele>
        <time>2022-02-09T11:46:43Z</time>
      </trkpt>
      <trkpt lat="42.86925" lon="0.21472">
        <ele>2680</ele>
        <time>2022-02-09T11:46:44Z</time>
      </trkpt>
      <trkpt lat="42.86926" lon="0.21473">
        <ele>2680</ele>
        <time>2022-02-09T11:46:45Z</time>
      </trkpt>
      <trkpt lat="42.86926" lon="0.21474">
        <ele>2680</ele>
        <time>2022-02-09T11:46:46Z</time>
      </trkpt>
      <trkpt lat="42.86926" lon="0.21474">
        <ele>2680</ele>
        <time>2022-02-09T11:46:47Z</time>
      </trkpt>
      <trkpt lat="42.86926" lon="0.21475">
        <ele>2680.3</ele>
        <time>2022-02-09T11:46:48Z</time>
      </trkpt>
      <trkpt lat="42.86926" lon="0.21476">
        <ele>2680.3</ele>
        <time>2022-02-09T11:46:49Z</time>
      </trkpt>
      <trkpt lat="42.86927" lon="0.21477">
        <ele>2680.2</ele>
        <time>2022-02-09T11:46:50Z</time>
      </trkpt>
      <trkpt lat="42.86927" lon="0.21477">
        <ele>2680.2</ele>
        <time>2022-02-09T11:46:51Z</time>
      </trkpt>
      <trkpt lat="42.86927" lon="0.21478">
        <ele>2680.2</ele>
        <time>2022-02-09T11:46:52Z</time>
      </trkpt>
      <trkpt lat="42.86928" lon="0.21479">
        <ele>2680.2</ele>
        <time>2022-02-09T11:46:53Z</time>
      </trkpt>
      <trkpt lat="42.86928" lon="0.2148">
        <ele>2680.6</ele>
        <time>2022-02-09T11:46:54Z</time>
      </trkpt>
      <trkpt lat="42.86928" lon="0.2148">
        <ele>2680.6</ele>
        <time>2022-02-09T11:46:55Z</time>
      </trkpt>
      <trkpt lat="42.86928" lon="0.21481">
        <ele>2680.6</ele>
        <time>2022-02-09T11:46:56Z</time>
      </trkpt>
      <trkpt lat="42.86928" lon="0.21482">
        <ele>2680.6</ele>
        <time>2022-02-09T11:46:57Z</time>
      </trkpt>
      <trkpt lat="42.86929" lon="0.21482">
        <ele>2680.6</ele>
        <time>2022-02-09T11:46:58Z</time>
      </trkpt>
      <trkpt lat="42.86929" lon="0.21483">
        <ele>2680.6</ele>
        <time>2022-02-09T11:46:59Z</time>
      </trkpt>
      <trkpt lat="42.86929" lon="0.21484">
        <ele>2680.9</ele>
        <time>2022-02-09T11:47:00Z</time>
      </trkpt>
      <trkpt lat="42.86929" lon="0.21484">
        <ele>2680.9</ele>
        <time>2022-02-09T11:47:01Z</time>
      </trkpt>
      <trkpt lat="42.8693" lon="0.21485">
        <ele>2680.9</ele>
        <time>2022-02-09T11:47:02Z</time>
      </trkpt>
      <trkpt lat="42.8693" lon="0.21486">
        <ele>2680.7</ele>
        <time>2022-02-09T11:47:03Z</time>
      </trkpt>
      <trkpt lat="42.8693" lon="0.21486">
        <ele>2680.7</ele>
        <time>2022-02-09T11:47:04Z</time>
      </trkpt>
      <trkpt lat="42.8693" lon="0.21487">
        <ele>2680.7</ele>
        <time>2022-02-09T11:47:05Z</time>
      </trkpt>
      <trkpt lat="42.86931" lon="0.21488">
        <ele>2681</ele>
        <time>2022-02-09T11:47:06Z</time>
      </trkpt>
      <trkpt lat="42.86931" lon="0.21489">
        <ele>2681</ele>
        <time>2022-02-09T11:47:07Z</time>
      </trkpt>
      <trkpt lat="42.86931" lon="0.21489">
        <ele>2681</ele>
        <time>2022-02-09T11:47:08Z</time>
      </trkpt>
      <trkpt lat="42.86931" lon="0.2149">
        <ele>2681</ele>
        <time>2022-02-09T11:47:09Z</time>
      </trkpt>
      <trkpt lat="42.86931" lon="0.21491">
        <ele>2681</ele>
        <time>2022-02-09T11:47:10Z</time>
      </trkpt>
      <trkpt lat="42.86932" lon="0.21491">
        <ele>2681</ele>
        <time>2022-02-09T11:47:11Z</time>
      </trkpt>
      <trkpt lat="42.86932" lon="0.21492">
        <ele>2681</ele>
        <time>2022-02-09T11:47:12Z</time>
      </trkpt>
      <trkpt lat="42.86932" lon="0.21493">
        <ele>2681.3</ele>
        <time>2022-02-09T11:47:13Z</time>
      </trkpt>
      <trkpt lat="42.86933" lon="0.21494">
        <ele>2681.3</ele>
        <time>2022-02-09T11:47:14Z</time>
      </trkpt>
      <trkpt lat="42.86933" lon="0.21494">
        <ele>2681.1</ele>
        <time>2022-02-09T11:47:15Z</time>
      </trkpt>
      <trkpt lat="42.86933" lon="0.21495">
        <ele>2681.1</ele>
        <time>2022-02-09T11:47:16Z</time>
      </trkpt>
      <trkpt lat="42.86933" lon="0.21496">
        <ele>2681.1</ele>
        <time>2022-02-09T11:47:17Z</time>
      </trkpt>
      <trkpt lat="42.86934" lon="0.21497">
        <ele>2681.4</ele>
        <time>2022-02-09T11:47:18Z</time>
      </trkpt>
      <trkpt lat="42.86934" lon="0.21498">
        <ele>2681.4</ele>
        <time>2022-02-09T11:47:19Z</time>
      </trkpt>
      <trkpt lat="42.86934" lon="0.21498">
        <ele>2681.4</ele>
        <time>2022-02-09T11:47:20Z</time>
      </trkpt>
      <trkpt lat="42.86935" lon="0.21499">
        <ele>2681.4</ele>
        <time>2022-02-09T11:47:21Z</time>
      </trkpt>
      <trkpt lat="42.86935" lon="0.21499">
        <ele>2681.4</ele>
        <time>2022-02-09T11:47:22Z</time>
      </trkpt>
      <trkpt lat="42.86935" lon="0.215">
        <ele>2681.4</ele>
        <time>2022-02-09T11:47:23Z</time>
      </trkpt>
      <trkpt lat="42.86935" lon="0.21501">
        <ele>2681.4</ele>
        <time>2022-02-09T11:47:24Z</time>
      </trkpt>
      <trkpt lat="42.86936" lon="0.21501">
        <ele>2681.4</ele>
        <time>2022-02-09T11:47:25Z</time>
      </trkpt>
      <trkpt lat="42.86937" lon="0.21501">
        <ele>2681.4</ele>
        <time>2022-02-09T11:47:26Z</time>
      </trkpt>
      <trkpt lat="42.86937" lon="0.21502">
        <ele>2681.4</ele>
        <time>2022-02-09T11:47:27Z</time>
      </trkpt>
      <trkpt lat="42.86937" lon="0.21502">
        <ele>2681.4</ele>
        <time>2022-02-09T11:47:28Z</time>
      </trkpt>
      <trkpt lat="42.86937" lon="0.21503">
        <ele>2681.4</ele>
        <time>2022-02-09T11:47:29Z</time>
      </trkpt>
      <trkpt lat="42.86938" lon="0.21504">
        <ele>2681.4</ele>
        <time>2022-02-09T11:47:30Z</time>
      </trkpt>
      <trkpt lat="42.86938" lon="0.21505">
        <ele>2681.4</ele>
        <time>2022-02-09T11:47:31Z</time>
      </trkpt>
      <trkpt lat="42.86939" lon="0.21506">
        <ele>2681.7</ele>
        <time>2022-02-09T11:47:32Z</time>
      </trkpt>
      <trkpt lat="42.86939" lon="0.21507">
        <ele>2681.7</ele>
        <time>2022-02-09T11:47:33Z</time>
      </trkpt>
      <trkpt lat="42.86939" lon="0.21507">
        <ele>2681.4</ele>
        <time>2022-02-09T11:47:34Z</time>
      </trkpt>
      <trkpt lat="42.8694" lon="0.21508">
        <ele>2681.4</ele>
        <time>2022-02-09T11:47:35Z</time>
      </trkpt>
      <trkpt lat="42.8694" lon="0.21508">
        <ele>2681.4</ele>
        <time>2022-02-09T11:47:36Z</time>
      </trkpt>
      <trkpt lat="42.86941" lon="0.21508">
        <ele>2681.4</ele>
        <time>2022-02-09T11:47:37Z</time>
      </trkpt>
      <trkpt lat="42.86941" lon="0.21509">
        <ele>2681.4</ele>
        <time>2022-02-09T11:47:38Z</time>
      </trkpt>
      <trkpt lat="42.86941" lon="0.2151">
        <ele>2681.7</ele>
        <time>2022-02-09T11:47:39Z</time>
      </trkpt>
      <trkpt lat="42.86941" lon="0.2151">
        <ele>2681.7</ele>
        <time>2022-02-09T11:47:40Z</time>
      </trkpt>
      <trkpt lat="42.86942" lon="0.21511">
        <ele>2681.7</ele>
        <time>2022-02-09T11:47:41Z</time>
      </trkpt>
      <trkpt lat="42.86942" lon="0.21512">
        <ele>2681.7</ele>
        <time>2022-02-09T11:47:42Z</time>
      </trkpt>
      <trkpt lat="42.86943" lon="0.21512">
        <ele>2681.4</ele>
        <time>2022-02-09T11:47:43Z</time>
      </trkpt>
      <trkpt lat="42.86944" lon="0.21513">
        <ele>2681.4</ele>
        <time>2022-02-09T11:47:44Z</time>
      </trkpt>
      <trkpt lat="42.86944" lon="0.21513">
        <ele>2681.4</ele>
        <time>2022-02-09T11:47:45Z</time>
      </trkpt>
      <trkpt lat="42.86945" lon="0.21513">
        <ele>2681.4</ele>
        <time>2022-02-09T11:47:46Z</time>
      </trkpt>
      <trkpt lat="42.86945" lon="0.21513">
        <ele>2681.4</ele>
        <time>2022-02-09T11:47:47Z</time>
      </trkpt>
      <trkpt lat="42.86946" lon="0.21513">
        <ele>2681</ele>
        <time>2022-02-09T11:47:48Z</time>
      </trkpt>
      <trkpt lat="42.86946" lon="0.21513">
        <ele>2681</ele>
        <time>2022-02-09T11:47:49Z</time>
      </trkpt>
      <trkpt lat="42.86947" lon="0.21512">
        <ele>2681</ele>
        <time>2022-02-09T11:47:50Z</time>
      </trkpt>
      <trkpt lat="42.86947" lon="0.21512">
        <ele>2681</ele>
        <time>2022-02-09T11:47:51Z</time>
      </trkpt>
      <trkpt lat="42.86948" lon="0.21511">
        <ele>2681</ele>
        <time>2022-02-09T11:47:52Z</time>
      </trkpt>
      <trkpt lat="42.86948" lon="0.2151">
        <ele>2681</ele>
        <time>2022-02-09T11:47:53Z</time>
      </trkpt>
      <trkpt lat="42.86948" lon="0.21509">
        <ele>2680.8</ele>
        <time>2022-02-09T11:47:54Z</time>
      </trkpt>
      <trkpt lat="42.86948" lon="0.21508">
        <ele>2680.8</ele>
        <time>2022-02-09T11:47:55Z</time>
      </trkpt>
      <trkpt lat="42.86948" lon="0.21507">
        <ele>2680.8</ele>
        <time>2022-02-09T11:47:56Z</time>
      </trkpt>
      <trkpt lat="42.86949" lon="0.21507">
        <ele>2680.3</ele>
        <time>2022-02-09T11:47:57Z</time>
      </trkpt>
      <trkpt lat="42.86949" lon="0.21506">
        <ele>2680.3</ele>
        <time>2022-02-09T11:47:58Z</time>
      </trkpt>
      <trkpt lat="42.86949" lon="0.21505">
        <ele>2680</ele>
        <time>2022-02-09T11:47:59Z</time>
      </trkpt>
      <trkpt lat="42.86949" lon="0.21504">
        <ele>2680</ele>
        <time>2022-02-09T11:48:00Z</time>
      </trkpt>
      <trkpt lat="42.86949" lon="0.21503">
        <ele>2680</ele>
        <time>2022-02-09T11:48:01Z</time>
      </trkpt>
      <trkpt lat="42.86949" lon="0.21503">
        <ele>2680</ele>
        <time>2022-02-09T11:48:02Z</time>
      </trkpt>
      <trkpt lat="42.86949" lon="0.21502">
        <ele>2680</ele>
        <time>2022-02-09T11:48:03Z</time>
      </trkpt>
      <trkpt lat="42.8695" lon="0.21501">
        <ele>2680</ele>
        <time>2022-02-09T11:48:04Z</time>
      </trkpt>
      <trkpt lat="42.8695" lon="0.215">
        <ele>2679.7</ele>
        <time>2022-02-09T11:48:05Z</time>
      </trkpt>
      <trkpt lat="42.86951" lon="0.215">
        <ele>2679.7</ele>
        <time>2022-02-09T11:48:06Z</time>
      </trkpt>
      <trkpt lat="42.86951" lon="0.21499">
        <ele>2679.7</ele>
        <time>2022-02-09T11:48:07Z</time>
      </trkpt>
      <trkpt lat="42.86951" lon="0.21498">
        <ele>2679.7</ele>
        <time>2022-02-09T11:48:08Z</time>
      </trkpt>
      <trkpt lat="42.86952" lon="0.21498">
        <ele>2679.7</ele>
        <time>2022-02-09T11:48:09Z</time>
      </trkpt>
      <trkpt lat="42.86952" lon="0.21497">
        <ele>2679.2</ele>
        <time>2022-02-09T11:48:10Z</time>
      </trkpt>
      <trkpt lat="42.86952" lon="0.21496">
        <ele>2678.8</ele>
        <time>2022-02-09T11:48:11Z</time>
      </trkpt>
      <trkpt lat="42.86953" lon="0.21496">
        <ele>2678.8</ele>
        <time>2022-02-09T11:48:12Z</time>
      </trkpt>
      <trkpt lat="42.86953" lon="0.21495">
        <ele>2678.8</ele>
        <time>2022-02-09T11:48:13Z</time>
      </trkpt>
      <trkpt lat="42.86953" lon="0.21494">
        <ele>2678.8</ele>
        <time>2022-02-09T11:48:14Z</time>
      </trkpt>
      <trkpt lat="42.86954" lon="0.21493">
        <ele>2678.8</ele>
        <time>2022-02-09T11:48:15Z</time>
      </trkpt>
      <trkpt lat="42.86954" lon="0.21493">
        <ele>2678.8</ele>
        <time>2022-02-09T11:48:16Z</time>
      </trkpt>
      <trkpt lat="42.86954" lon="0.21492">
        <ele>2678.8</ele>
        <time>2022-02-09T11:48:17Z</time>
      </trkpt>
      <trkpt lat="42.86955" lon="0.21492">
        <ele>2678.4</ele>
        <time>2022-02-09T11:48:18Z</time>
      </trkpt>
      <trkpt lat="42.86955" lon="0.21491">
        <ele>2677.7</ele>
        <time>2022-02-09T11:48:19Z</time>
      </trkpt>
      <trkpt lat="42.86955" lon="0.21491">
        <ele>2677.7</ele>
        <time>2022-02-09T11:48:20Z</time>
      </trkpt>
      <trkpt lat="42.86956" lon="0.2149">
        <ele>2677.7</ele>
        <time>2022-02-09T11:48:21Z</time>
      </trkpt>
      <trkpt lat="42.86956" lon="0.2149">
        <ele>2677.7</ele>
        <time>2022-02-09T11:48:22Z</time>
      </trkpt>
      <trkpt lat="42.86956" lon="0.2149">
        <ele>2677.7</ele>
        <time>2022-02-09T11:48:23Z</time>
      </trkpt>
      <trkpt lat="42.86956" lon="0.2149">
        <ele>2677.7</ele>
        <time>2022-02-09T11:48:24Z</time>
      </trkpt>
      <trkpt lat="42.86956" lon="0.2149">
        <ele>2677.7</ele>
        <time>2022-02-09T11:48:25Z</time>
      </trkpt>
      <trkpt lat="42.86956" lon="0.2149">
        <ele>2677.7</ele>
        <time>2022-02-09T11:48:26Z</time>
      </trkpt>
      <trkpt lat="42.86956" lon="0.2149">
        <ele>2677.7</ele>
        <time>2022-02-09T11:48:27Z</time>
      </trkpt>
      <trkpt lat="42.86956" lon="0.2149">
        <ele>2677.7</ele>
        <time>2022-02-09T11:48:28Z</time>
      </trkpt>
      <trkpt lat="42.86956" lon="0.2149">
        <ele>2677.7</ele>
        <time>2022-02-09T11:48:29Z</time>
      </trkpt>
      <trkpt lat="42.86956" lon="0.2149">
        <ele>2677.7</ele>
        <time>2022-02-09T11:48:30Z</time>
      </trkpt>
      <trkpt lat="42.86956" lon="0.2149">
        <ele>2677.7</ele>
        <time>2022-02-09T11:48:31Z</time>
      </trkpt>
      <trkpt lat="42.86956" lon="0.2149">
        <ele>2677.7</ele>
        <time>2022-02-09T11:48:32Z</time>
      </trkpt>
      <trkpt lat="42.86956" lon="0.2149">
        <ele>2677.7</ele>
        <time>2022-02-09T11:48:33Z</time>
      </trkpt>
      <trkpt lat="42.86956" lon="0.2149">
        <ele>2677.7</ele>
        <time>2022-02-09T11:48:34Z</time>
      </trkpt>
      <trkpt lat="42.86956" lon="0.2149">
        <ele>2677.7</ele>
        <time>2022-02-09T11:48:35Z</time>
      </trkpt>
      <trkpt lat="42.86956" lon="0.2149">
        <ele>2677.7</ele>
        <time>2022-02-09T11:48:36Z</time>
      </trkpt>
      <trkpt lat="42.86956" lon="0.2149">
        <ele>2677.7</ele>
        <time>2022-02-09T11:48:37Z</time>
      </trkpt>
      <trkpt lat="42.86956" lon="0.2149">
        <ele>2677.7</ele>
        <time>2022-02-09T11:48:38Z</time>
      </trkpt>
      <trkpt lat="42.86956" lon="0.2149">
        <ele>2677.7</ele>
        <time>2022-02-09T11:48:39Z</time>
      </trkpt>
      <trkpt lat="42.86956" lon="0.2149">
        <ele>2677.7</ele>
        <time>2022-02-09T11:48:40Z</time>
      </trkpt>
      <trkpt lat="42.86956" lon="0.2149">
        <ele>2677.7</ele>
        <time>2022-02-09T11:48:41Z</time>
      </trkpt>
      <trkpt lat="42.86956" lon="0.2149">
        <ele>2677.7</ele>
        <time>2022-02-09T11:48:42Z</time>
      </trkpt>
      <trkpt lat="42.86956" lon="0.2149">
        <ele>2677.7</ele>
        <time>2022-02-09T11:48:43Z</time>
      </trkpt>
      <trkpt lat="42.86956" lon="0.2149">
        <ele>2677.7</ele>
        <time>2022-02-09T11:48:44Z</time>
      </trkpt>
      <trkpt lat="42.86956" lon="0.2149">
        <ele>2677.7</ele>
        <time>2022-02-09T11:48:45Z</time>
      </trkpt>
      <trkpt lat="42.86956" lon="0.2149">
        <ele>2677.7</ele>
        <time>2022-02-09T11:48:46Z</time>
      </trkpt>
      <trkpt lat="42.86956" lon="0.2149">
        <ele>2677.7</ele>
        <time>2022-02-09T11:48:47Z</time>
      </trkpt>
      <trkpt lat="42.86956" lon="0.2149">
        <ele>2677.7</ele>
        <time>2022-02-09T11:48:48Z</time>
      </trkpt>
      <trkpt lat="42.86956" lon="0.2149">
        <ele>2677.7</ele>
        <time>2022-02-09T11:48:49Z</time>
      </trkpt>
      <trkpt lat="42.86956" lon="0.2149">
        <ele>2677.7</ele>
        <time>2022-02-09T11:48:50Z</time>
      </trkpt>
      <trkpt lat="42.86956" lon="0.21489">
        <ele>2677.7</ele>
        <time>2022-02-09T11:48:51Z</time>
      </trkpt>
      <trkpt lat="42.86957" lon="0.21489">
        <ele>2677.7</ele>
        <time>2022-02-09T11:48:52Z</time>
      </trkpt>
      <trkpt lat="42.86957" lon="0.21489">
        <ele>2677.7</ele>
        <time>2022-02-09T11:48:53Z</time>
      </trkpt>
      <trkpt lat="42.86957" lon="0.21489">
        <ele>2677.7</ele>
        <time>2022-02-09T11:48:54Z</time>
      </trkpt>
      <trkpt lat="42.86957" lon="0.21489">
        <ele>2677.7</ele>
        <time>2022-02-09T11:48:55Z</time>
      </trkpt>
      <trkpt lat="42.86957" lon="0.21489">
        <ele>2677.7</ele>
        <time>2022-02-09T11:48:56Z</time>
      </trkpt>
      <trkpt lat="42.86957" lon="0.21489">
        <ele>2677.7</ele>
        <time>2022-02-09T11:48:57Z</time>
      </trkpt>
      <trkpt lat="42.86957" lon="0.21489">
        <ele>2677.7</ele>
        <time>2022-02-09T11:48:58Z</time>
      </trkpt>
      <trkpt lat="42.86957" lon="0.21489">
        <ele>2677.7</ele>
        <time>2022-02-09T11:48:59Z</time>
      </trkpt>
      <trkpt lat="42.86957" lon="0.21489">
        <ele>2677.7</ele>
        <time>2022-02-09T11:49:00Z</time>
      </trkpt>
      <trkpt lat="42.86957" lon="0.21489">
        <ele>2677.7</ele>
        <time>2022-02-09T11:49:01Z</time>
      </trkpt>
      <trkpt lat="42.86957" lon="0.21489">
        <ele>2677.7</ele>
        <time>2022-02-09T11:49:02Z</time>
      </trkpt>
      <trkpt lat="42.86957" lon="0.21489">
        <ele>2677.7</ele>
        <time>2022-02-09T11:49:03Z</time>
      </trkpt>
      <trkpt lat="42.86957" lon="0.21489">
        <ele>2677.7</ele>
        <time>2022-02-09T11:49:04Z</time>
      </trkpt>
      <trkpt lat="42.86957" lon="0.21489">
        <ele>2677.7</ele>
        <time>2022-02-09T11:49:05Z</time>
      </trkpt>
      <trkpt lat="42.86957" lon="0.21489">
        <ele>2677.7</ele>
        <time>2022-02-09T11:49:06Z</time>
      </trkpt>
      <trkpt lat="42.86957" lon="0.21489">
        <ele>2677.7</ele>
        <time>2022-02-09T11:49:07Z</time>
      </trkpt>
      <trkpt lat="42.86957" lon="0.21489">
        <ele>2677.7</ele>
        <time>2022-02-09T11:49:08Z</time>
      </trkpt>
      <trkpt lat="42.86957" lon="0.21489">
        <ele>2677.7</ele>
        <time>2022-02-09T11:49:09Z</time>
      </trkpt>
      <trkpt lat="42.86957" lon="0.21489">
        <ele>2677.7</ele>
        <time>2022-02-09T11:49:10Z</time>
      </trkpt>
      <trkpt lat="42.86957" lon="0.21489">
        <ele>2677.7</ele>
        <time>2022-02-09T11:49:11Z</time>
      </trkpt>
      <trkpt lat="42.86957" lon="0.21489">
        <ele>2677.7</ele>
        <time>2022-02-09T11:49:12Z</time>
      </trkpt>
      <trkpt lat="42.86957" lon="0.21489">
        <ele>2677.7</ele>
        <time>2022-02-09T11:49:13Z</time>
      </trkpt>
      <trkpt lat="42.86957" lon="0.21489">
        <ele>2677.7</ele>
        <time>2022-02-09T11:49:14Z</time>
      </trkpt>
      <trkpt lat="42.86957" lon="0.21489">
        <ele>2677.7</ele>
        <time>2022-02-09T11:49:15Z</time>
      </trkpt>
      <trkpt lat="42.86957" lon="0.21489">
        <ele>2677.7</ele>
        <time>2022-02-09T11:49:16Z</time>
      </trkpt>
      <trkpt lat="42.86957" lon="0.21489">
        <ele>2677.7</ele>
        <time>2022-02-09T11:49:17Z</time>
      </trkpt>
      <trkpt lat="42.86957" lon="0.21489">
        <ele>2677.7</ele>
        <time>2022-02-09T11:49:18Z</time>
      </trkpt>
      <trkpt lat="42.86957" lon="0.21489">
        <ele>2677.7</ele>
        <time>2022-02-09T11:49:19Z</time>
      </trkpt>
      <trkpt lat="42.86957" lon="0.21489">
        <ele>2677.7</ele>
        <time>2022-02-09T11:49:20Z</time>
      </trkpt>
      <trkpt lat="42.86957" lon="0.21489">
        <ele>2677.7</ele>
        <time>2022-02-09T11:49:21Z</time>
      </trkpt>
      <trkpt lat="42.86957" lon="0.21489">
        <ele>2677.7</ele>
        <time>2022-02-09T11:49:22Z</time>
      </trkpt>
      <trkpt lat="42.86957" lon="0.21489">
        <ele>2677.7</ele>
        <time>2022-02-09T11:49:23Z</time>
      </trkpt>
      <trkpt lat="42.86957" lon="0.21489">
        <ele>2677.7</ele>
        <time>2022-02-09T11:49:24Z</time>
      </trkpt>
      <trkpt lat="42.86957" lon="0.21489">
        <ele>2677.7</ele>
        <time>2022-02-09T11:49:25Z</time>
      </trkpt>
      <trkpt lat="42.86957" lon="0.21489">
        <ele>2677.7</ele>
        <time>2022-02-09T11:49:26Z</time>
      </trkpt>
      <trkpt lat="42.86957" lon="0.21489">
        <ele>2677.7</ele>
        <time>2022-02-09T11:49:27Z</time>
      </trkpt>
      <trkpt lat="42.86957" lon="0.21489">
        <ele>2677.7</ele>
        <time>2022-02-09T11:49:28Z</time>
      </trkpt>
      <trkpt lat="42.86957" lon="0.21489">
        <ele>2677.7</ele>
        <time>2022-02-09T11:49:29Z</time>
      </trkpt>
      <trkpt lat="42.86957" lon="0.21489">
        <ele>2677.7</ele>
        <time>2022-02-09T11:49:30Z</time>
      </trkpt>
      <trkpt lat="42.86957" lon="0.21489">
        <ele>2677.7</ele>
        <time>2022-02-09T11:49:31Z</time>
      </trkpt>
      <trkpt lat="42.86957" lon="0.21489">
        <ele>2677.7</ele>
        <time>2022-02-09T11:49:32Z</time>
      </trkpt>
      <trkpt lat="42.86957" lon="0.21489">
        <ele>2677.7</ele>
        <time>2022-02-09T11:49:33Z</time>
      </trkpt>
      <trkpt lat="42.86957" lon="0.21489">
        <ele>2677.7</ele>
        <time>2022-02-09T11:49:34Z</time>
      </trkpt>
      <trkpt lat="42.86957" lon="0.21489">
        <ele>2677.7</ele>
        <time>2022-02-09T11:49:35Z</time>
      </trkpt>
      <trkpt lat="42.86957" lon="0.21489">
        <ele>2677.7</ele>
        <time>2022-02-09T11:49:36Z</time>
      </trkpt>
      <trkpt lat="42.86957" lon="0.21489">
        <ele>2677.7</ele>
        <time>2022-02-09T11:49:37Z</time>
      </trkpt>
      <trkpt lat="42.86957" lon="0.21489">
        <ele>2677.7</ele>
        <time>2022-02-09T11:49:38Z</time>
      </trkpt>
      <trkpt lat="42.86957" lon="0.21489">
        <ele>2677.7</ele>
        <time>2022-02-09T11:49:39Z</time>
      </trkpt>
      <trkpt lat="42.86957" lon="0.21489">
        <ele>2677.7</ele>
        <time>2022-02-09T11:49:40Z</time>
      </trkpt>
      <trkpt lat="42.86957" lon="0.21489">
        <ele>2677.7</ele>
        <time>2022-02-09T11:49:41Z</time>
      </trkpt>
      <trkpt lat="42.86957" lon="0.21489">
        <ele>2677.7</ele>
        <time>2022-02-09T11:49:42Z</time>
      </trkpt>
      <trkpt lat="42.86957" lon="0.21489">
        <ele>2677.7</ele>
        <time>2022-02-09T11:49:43Z</time>
      </trkpt>
      <trkpt lat="42.86957" lon="0.21489">
        <ele>2677.7</ele>
        <time>2022-02-09T11:49:44Z</time>
      </trkpt>
      <trkpt lat="42.86957" lon="0.21489">
        <ele>2677.7</ele>
        <time>2022-02-09T11:49:45Z</time>
      </trkpt>
      <trkpt lat="42.86957" lon="0.21489">
        <ele>2677.7</ele>
        <time>2022-02-09T11:49:46Z</time>
      </trkpt>
      <trkpt lat="42.86957" lon="0.21489">
        <ele>2677.7</ele>
        <time>2022-02-09T11:49:47Z</time>
      </trkpt>
      <trkpt lat="42.86957" lon="0.21489">
        <ele>2677.7</ele>
        <time>2022-02-09T11:49:48Z</time>
      </trkpt>
      <trkpt lat="42.86957" lon="0.21489">
        <ele>2677.7</ele>
        <time>2022-02-09T11:49:49Z</time>
      </trkpt>
      <trkpt lat="42.86957" lon="0.21489">
        <ele>2677.7</ele>
        <time>2022-02-09T11:49:50Z</time>
      </trkpt>
      <trkpt lat="42.86957" lon="0.21489">
        <ele>2677.7</ele>
        <time>2022-02-09T11:49:51Z</time>
      </trkpt>
      <trkpt lat="42.86957" lon="0.21489">
        <ele>2677.7</ele>
        <time>2022-02-09T11:49:52Z</time>
      </trkpt>
      <trkpt lat="42.86957" lon="0.21489">
        <ele>2677.7</ele>
        <time>2022-02-09T11:49:53Z</time>
      </trkpt>
      <trkpt lat="42.86957" lon="0.21489">
        <ele>2677.7</ele>
        <time>2022-02-09T11:49:54Z</time>
      </trkpt>
      <trkpt lat="42.86957" lon="0.21489">
        <ele>2677.7</ele>
        <time>2022-02-09T11:49:55Z</time>
      </trkpt>
      <trkpt lat="42.86957" lon="0.21489">
        <ele>2677.7</ele>
        <time>2022-02-09T11:49:56Z</time>
      </trkpt>
      <trkpt lat="42.86957" lon="0.21489">
        <ele>2677.7</ele>
        <time>2022-02-09T11:49:57Z</time>
      </trkpt>
      <trkpt lat="42.86957" lon="0.21489">
        <ele>2677.7</ele>
        <time>2022-02-09T11:49:58Z</time>
      </trkpt>
      <trkpt lat="42.86957" lon="0.21489">
        <ele>2677.7</ele>
        <time>2022-02-09T11:49:59Z</time>
      </trkpt>
      <trkpt lat="42.86957" lon="0.21489">
        <ele>2677.7</ele>
        <time>2022-02-09T11:50:00Z</time>
      </trkpt>
      <trkpt lat="42.86957" lon="0.21489">
        <ele>2677.7</ele>
        <time>2022-02-09T11:50:01Z</time>
      </trkpt>
      <trkpt lat="42.86957" lon="0.21489">
        <ele>2677.7</ele>
        <time>2022-02-09T11:50:02Z</time>
      </trkpt>
      <trkpt lat="42.86957" lon="0.21489">
        <ele>2677.7</ele>
        <time>2022-02-09T11:50:03Z</time>
      </trkpt>
      <trkpt lat="42.86957" lon="0.21489">
        <ele>2677.7</ele>
        <time>2022-02-09T11:50:04Z</time>
      </trkpt>
      <trkpt lat="42.86957" lon="0.21489">
        <ele>2677.7</ele>
        <time>2022-02-09T11:50:05Z</time>
      </trkpt>
      <trkpt lat="42.86957" lon="0.21489">
        <ele>2677.7</ele>
        <time>2022-02-09T11:50:06Z</time>
      </trkpt>
      <trkpt lat="42.86957" lon="0.21489">
        <ele>2677.7</ele>
        <time>2022-02-09T11:50:07Z</time>
      </trkpt>
      <trkpt lat="42.86957" lon="0.21489">
        <ele>2677.7</ele>
        <time>2022-02-09T11:50:08Z</time>
      </trkpt>
      <trkpt lat="42.86957" lon="0.21489">
        <ele>2677.7</ele>
        <time>2022-02-09T11:50:09Z</time>
      </trkpt>
      <trkpt lat="42.86957" lon="0.21489">
        <ele>2677.7</ele>
        <time>2022-02-09T11:50:10Z</time>
      </trkpt>
      <trkpt lat="42.86957" lon="0.21489">
        <ele>2677.7</ele>
        <time>2022-02-09T11:50:11Z</time>
      </trkpt>
      <trkpt lat="42.86957" lon="0.21489">
        <ele>2677.7</ele>
        <time>2022-02-09T11:50:12Z</time>
      </trkpt>
      <trkpt lat="42.86957" lon="0.21489">
        <ele>2677.7</ele>
        <time>2022-02-09T11:50:13Z</time>
      </trkpt>
      <trkpt lat="42.86957" lon="0.21489">
        <ele>2677.7</ele>
        <time>2022-02-09T11:50:14Z</time>
      </trkpt>
      <trkpt lat="42.86957" lon="0.21489">
        <ele>2677.7</ele>
        <time>2022-02-09T11:50:15Z</time>
      </trkpt>
      <trkpt lat="42.86957" lon="0.21489">
        <ele>2677.7</ele>
        <time>2022-02-09T11:50:16Z</time>
      </trkpt>
      <trkpt lat="42.86957" lon="0.21489">
        <ele>2677.7</ele>
        <time>2022-02-09T11:50:17Z</time>
      </trkpt>
      <trkpt lat="42.86957" lon="0.21489">
        <ele>2677.7</ele>
        <time>2022-02-09T11:50:18Z</time>
      </trkpt>
      <trkpt lat="42.86957" lon="0.21489">
        <ele>2677.7</ele>
        <time>2022-02-09T11:50:19Z</time>
      </trkpt>
      <trkpt lat="42.86957" lon="0.21489">
        <ele>2677.7</ele>
        <time>2022-02-09T11:50:20Z</time>
      </trkpt>
      <trkpt lat="42.86957" lon="0.21489">
        <ele>2677.7</ele>
        <time>2022-02-09T11:50:21Z</time>
      </trkpt>
      <trkpt lat="42.86957" lon="0.21489">
        <ele>2677.7</ele>
        <time>2022-02-09T11:50:22Z</time>
      </trkpt>
      <trkpt lat="42.86957" lon="0.21489">
        <ele>2677.7</ele>
        <time>2022-02-09T11:50:23Z</time>
      </trkpt>
      <trkpt lat="42.86957" lon="0.21489">
        <ele>2677.7</ele>
        <time>2022-02-09T11:50:24Z</time>
      </trkpt>
      <trkpt lat="42.86957" lon="0.21489">
        <ele>2677.7</ele>
        <time>2022-02-09T11:50:25Z</time>
      </trkpt>
      <trkpt lat="42.86957" lon="0.21489">
        <ele>2677.7</ele>
        <time>2022-02-09T11:50:26Z</time>
      </trkpt>
      <trkpt lat="42.86957" lon="0.21489">
        <ele>2677.7</ele>
        <time>2022-02-09T11:50:27Z</time>
      </trkpt>
      <trkpt lat="42.86957" lon="0.21489">
        <ele>2677.7</ele>
        <time>2022-02-09T11:50:28Z</time>
      </trkpt>
      <trkpt lat="42.86957" lon="0.21489">
        <ele>2677.7</ele>
        <time>2022-02-09T11:50:29Z</time>
      </trkpt>
      <trkpt lat="42.86957" lon="0.21489">
        <ele>2677.7</ele>
        <time>2022-02-09T11:50:30Z</time>
      </trkpt>
      <trkpt lat="42.86957" lon="0.21489">
        <ele>2677.7</ele>
        <time>2022-02-09T11:50:31Z</time>
      </trkpt>
      <trkpt lat="42.86957" lon="0.21489">
        <ele>2677.7</ele>
        <time>2022-02-09T11:50:32Z</time>
      </trkpt>
      <trkpt lat="42.86957" lon="0.21489">
        <ele>2677.7</ele>
        <time>2022-02-09T11:50:33Z</time>
      </trkpt>
      <trkpt lat="42.86957" lon="0.21489">
        <ele>2677.7</ele>
        <time>2022-02-09T11:50:34Z</time>
      </trkpt>
      <trkpt lat="42.86957" lon="0.21489">
        <ele>2677.7</ele>
        <time>2022-02-09T11:50:35Z</time>
      </trkpt>
      <trkpt lat="42.86957" lon="0.21489">
        <ele>2677.7</ele>
        <time>2022-02-09T11:50:36Z</time>
      </trkpt>
      <trkpt lat="42.86957" lon="0.21489">
        <ele>2677.7</ele>
        <time>2022-02-09T11:50:37Z</time>
      </trkpt>
      <trkpt lat="42.86957" lon="0.21489">
        <ele>2677.7</ele>
        <time>2022-02-09T11:50:38Z</time>
      </trkpt>
      <trkpt lat="42.86957" lon="0.21489">
        <ele>2677.7</ele>
        <time>2022-02-09T11:50:39Z</time>
      </trkpt>
      <trkpt lat="42.86957" lon="0.21489">
        <ele>2677.7</ele>
        <time>2022-02-09T11:50:40Z</time>
      </trkpt>
      <trkpt lat="42.86957" lon="0.21489">
        <ele>2677.7</ele>
        <time>2022-02-09T11:50:41Z</time>
      </trkpt>
      <trkpt lat="42.86957" lon="0.21489">
        <ele>2677.7</ele>
        <time>2022-02-09T11:50:42Z</time>
      </trkpt>
      <trkpt lat="42.86957" lon="0.21489">
        <ele>2677.7</ele>
        <time>2022-02-09T11:50:43Z</time>
      </trkpt>
      <trkpt lat="42.86957" lon="0.21489">
        <ele>2677.7</ele>
        <time>2022-02-09T11:50:44Z</time>
      </trkpt>
      <trkpt lat="42.86957" lon="0.21489">
        <ele>2677.7</ele>
        <time>2022-02-09T11:50:45Z</time>
      </trkpt>
      <trkpt lat="42.86957" lon="0.21489">
        <ele>2677.7</ele>
        <time>2022-02-09T11:50:46Z</time>
      </trkpt>
      <trkpt lat="42.86957" lon="0.21489">
        <ele>2677.7</ele>
        <time>2022-02-09T11:50:47Z</time>
      </trkpt>
      <trkpt lat="42.86957" lon="0.21489">
        <ele>2677.7</ele>
        <time>2022-02-09T11:50:48Z</time>
      </trkpt>
      <trkpt lat="42.86957" lon="0.21489">
        <ele>2677.7</ele>
        <time>2022-02-09T11:50:49Z</time>
      </trkpt>
      <trkpt lat="42.86957" lon="0.21489">
        <ele>2677.7</ele>
        <time>2022-02-09T11:50:50Z</time>
      </trkpt>
      <trkpt lat="42.86957" lon="0.21489">
        <ele>2677.7</ele>
        <time>2022-02-09T11:50:51Z</time>
      </trkpt>
      <trkpt lat="42.86957" lon="0.21489">
        <ele>2677.7</ele>
        <time>2022-02-09T11:50:52Z</time>
      </trkpt>
      <trkpt lat="42.86957" lon="0.21489">
        <ele>2677.7</ele>
        <time>2022-02-09T11:50:53Z</time>
      </trkpt>
      <trkpt lat="42.86957" lon="0.21489">
        <ele>2677.7</ele>
        <time>2022-02-09T11:50:54Z</time>
      </trkpt>
      <trkpt lat="42.86957" lon="0.21489">
        <ele>2677.7</ele>
        <time>2022-02-09T11:50:55Z</time>
      </trkpt>
      <trkpt lat="42.86957" lon="0.21489">
        <ele>2677.7</ele>
        <time>2022-02-09T11:50:56Z</time>
      </trkpt>
      <trkpt lat="42.86957" lon="0.21489">
        <ele>2677.7</ele>
        <time>2022-02-09T11:50:57Z</time>
      </trkpt>
      <trkpt lat="42.86957" lon="0.21489">
        <ele>2677.7</ele>
        <time>2022-02-09T11:50:58Z</time>
      </trkpt>
      <trkpt lat="42.86957" lon="0.21489">
        <ele>2677.7</ele>
        <time>2022-02-09T11:50:59Z</time>
      </trkpt>
      <trkpt lat="42.86957" lon="0.21489">
        <ele>2677.7</ele>
        <time>2022-02-09T11:51:00Z</time>
      </trkpt>
      <trkpt lat="42.86957" lon="0.21489">
        <ele>2677.7</ele>
        <time>2022-02-09T11:51:01Z</time>
      </trkpt>
      <trkpt lat="42.86957" lon="0.21489">
        <ele>2677.7</ele>
        <time>2022-02-09T11:51:02Z</time>
      </trkpt>
      <trkpt lat="42.86957" lon="0.21489">
        <ele>2677.7</ele>
        <time>2022-02-09T11:51:03Z</time>
      </trkpt>
      <trkpt lat="42.86957" lon="0.21489">
        <ele>2677.7</ele>
        <time>2022-02-09T11:51:04Z</time>
      </trkpt>
      <trkpt lat="42.86957" lon="0.21489">
        <ele>2677.7</ele>
        <time>2022-02-09T11:51:05Z</time>
      </trkpt>
      <trkpt lat="42.86957" lon="0.21489">
        <ele>2677.7</ele>
        <time>2022-02-09T11:51:06Z</time>
      </trkpt>
      <trkpt lat="42.86957" lon="0.21489">
        <ele>2677.7</ele>
        <time>2022-02-09T11:51:07Z</time>
      </trkpt>
      <trkpt lat="42.86957" lon="0.21489">
        <ele>2677.7</ele>
        <time>2022-02-09T11:51:08Z</time>
      </trkpt>
      <trkpt lat="42.86957" lon="0.21489">
        <ele>2677.7</ele>
        <time>2022-02-09T11:51:09Z</time>
      </trkpt>
      <trkpt lat="42.86957" lon="0.21489">
        <ele>2677.7</ele>
        <time>2022-02-09T11:51:10Z</time>
      </trkpt>
      <trkpt lat="42.86957" lon="0.21489">
        <ele>2677.7</ele>
        <time>2022-02-09T11:51:11Z</time>
      </trkpt>
      <trkpt lat="42.86957" lon="0.21489">
        <ele>2677.7</ele>
        <time>2022-02-09T11:51:12Z</time>
      </trkpt>
      <trkpt lat="42.86957" lon="0.21489">
        <ele>2677.7</ele>
        <time>2022-02-09T11:51:13Z</time>
      </trkpt>
      <trkpt lat="42.86957" lon="0.21489">
        <ele>2677.7</ele>
        <time>2022-02-09T11:51:14Z</time>
      </trkpt>
      <trkpt lat="42.86957" lon="0.21489">
        <ele>2677.7</ele>
        <time>2022-02-09T11:51:15Z</time>
      </trkpt>
      <trkpt lat="42.86957" lon="0.21489">
        <ele>2677.7</ele>
        <time>2022-02-09T11:51:16Z</time>
      </trkpt>
      <trkpt lat="42.86957" lon="0.21489">
        <ele>2677.7</ele>
        <time>2022-02-09T11:51:17Z</time>
      </trkpt>
      <trkpt lat="42.86957" lon="0.21489">
        <ele>2677.7</ele>
        <time>2022-02-09T11:51:18Z</time>
      </trkpt>
      <trkpt lat="42.86957" lon="0.21489">
        <ele>2677.7</ele>
        <time>2022-02-09T11:51:19Z</time>
      </trkpt>
      <trkpt lat="42.86957" lon="0.21489">
        <ele>2677.7</ele>
        <time>2022-02-09T11:51:20Z</time>
      </trkpt>
      <trkpt lat="42.86957" lon="0.21489">
        <ele>2677.7</ele>
        <time>2022-02-09T11:51:21Z</time>
      </trkpt>
      <trkpt lat="42.86957" lon="0.21489">
        <ele>2677.7</ele>
        <time>2022-02-09T11:51:22Z</time>
      </trkpt>
      <trkpt lat="42.86957" lon="0.21489">
        <ele>2677.7</ele>
        <time>2022-02-09T11:51:23Z</time>
      </trkpt>
      <trkpt lat="42.86957" lon="0.21489">
        <ele>2677.7</ele>
        <time>2022-02-09T11:51:24Z</time>
      </trkpt>
      <trkpt lat="42.86957" lon="0.21489">
        <ele>2677.7</ele>
        <time>2022-02-09T11:51:25Z</time>
      </trkpt>
      <trkpt lat="42.86957" lon="0.21489">
        <ele>2677.7</ele>
        <time>2022-02-09T11:51:26Z</time>
      </trkpt>
      <trkpt lat="42.86957" lon="0.21489">
        <ele>2677.7</ele>
        <time>2022-02-09T11:51:27Z</time>
      </trkpt>
      <trkpt lat="42.86957" lon="0.21489">
        <ele>2677.7</ele>
        <time>2022-02-09T11:51:28Z</time>
      </trkpt>
      <trkpt lat="42.86957" lon="0.21489">
        <ele>2677.7</ele>
        <time>2022-02-09T11:51:29Z</time>
      </trkpt>
      <trkpt lat="42.86957" lon="0.21489">
        <ele>2677.7</ele>
        <time>2022-02-09T11:51:30Z</time>
      </trkpt>
      <trkpt lat="42.86957" lon="0.21489">
        <ele>2677.7</ele>
        <time>2022-02-09T11:51:31Z</time>
      </trkpt>
      <trkpt lat="42.86957" lon="0.21489">
        <ele>2677.7</ele>
        <time>2022-02-09T11:51:32Z</time>
      </trkpt>
      <trkpt lat="42.86957" lon="0.21489">
        <ele>2677.7</ele>
        <time>2022-02-09T11:51:33Z</time>
      </trkpt>
      <trkpt lat="42.86957" lon="0.21489">
        <ele>2677.7</ele>
        <time>2022-02-09T11:51:34Z</time>
      </trkpt>
      <trkpt lat="42.86957" lon="0.21489">
        <ele>2677.7</ele>
        <time>2022-02-09T11:51:35Z</time>
      </trkpt>
      <trkpt lat="42.86957" lon="0.21489">
        <ele>2677.7</ele>
        <time>2022-02-09T11:51:36Z</time>
      </trkpt>
      <trkpt lat="42.86957" lon="0.21489">
        <ele>2677.7</ele>
        <time>2022-02-09T11:51:37Z</time>
      </trkpt>
      <trkpt lat="42.86957" lon="0.21489">
        <ele>2677.7</ele>
        <time>2022-02-09T11:51:38Z</time>
      </trkpt>
      <trkpt lat="42.86957" lon="0.21489">
        <ele>2677.7</ele>
        <time>2022-02-09T11:51:39Z</time>
      </trkpt>
      <trkpt lat="42.86957" lon="0.21489">
        <ele>2677.7</ele>
        <time>2022-02-09T11:51:40Z</time>
      </trkpt>
      <trkpt lat="42.86957" lon="0.21489">
        <ele>2677.7</ele>
        <time>2022-02-09T11:51:41Z</time>
      </trkpt>
      <trkpt lat="42.86957" lon="0.21489">
        <ele>2677.7</ele>
        <time>2022-02-09T11:51:42Z</time>
      </trkpt>
      <trkpt lat="42.86957" lon="0.21489">
        <ele>2677.7</ele>
        <time>2022-02-09T11:51:43Z</time>
      </trkpt>
      <trkpt lat="42.86957" lon="0.21488">
        <ele>2677.7</ele>
        <time>2022-02-09T11:51:44Z</time>
      </trkpt>
      <trkpt lat="42.86958" lon="0.21488">
        <ele>2677.7</ele>
        <time>2022-02-09T11:51:45Z</time>
      </trkpt>
      <trkpt lat="42.86958" lon="0.21487">
        <ele>2676.3</ele>
        <time>2022-02-09T11:51:46Z</time>
      </trkpt>
      <trkpt lat="42.86958" lon="0.21487">
        <ele>2676.3</ele>
        <time>2022-02-09T11:51:47Z</time>
      </trkpt>
      <trkpt lat="42.86958" lon="0.21487">
        <ele>2676.3</ele>
        <time>2022-02-09T11:51:48Z</time>
      </trkpt>
      <trkpt lat="42.86958" lon="0.21487">
        <ele>2676.3</ele>
        <time>2022-02-09T11:51:49Z</time>
      </trkpt>
      <trkpt lat="42.86958" lon="0.21487">
        <ele>2676.3</ele>
        <time>2022-02-09T11:51:50Z</time>
      </trkpt>
      <trkpt lat="42.86958" lon="0.21487">
        <ele>2676.3</ele>
        <time>2022-02-09T11:51:51Z</time>
      </trkpt>
      <trkpt lat="42.86958" lon="0.21487">
        <ele>2676.3</ele>
        <time>2022-02-09T11:51:52Z</time>
      </trkpt>
      <trkpt lat="42.86958" lon="0.21487">
        <ele>2676.3</ele>
        <time>2022-02-09T11:51:53Z</time>
      </trkpt>
      <trkpt lat="42.86958" lon="0.21487">
        <ele>2676.3</ele>
        <time>2022-02-09T11:51:54Z</time>
      </trkpt>
      <trkpt lat="42.86958" lon="0.21487">
        <ele>2676.3</ele>
        <time>2022-02-09T11:51:55Z</time>
      </trkpt>
      <trkpt lat="42.86958" lon="0.21487">
        <ele>2676.3</ele>
        <time>2022-02-09T11:51:56Z</time>
      </trkpt>
      <trkpt lat="42.86958" lon="0.21487">
        <ele>2676.3</ele>
        <time>2022-02-09T11:51:57Z</time>
      </trkpt>
      <trkpt lat="42.86958" lon="0.21487">
        <ele>2676.3</ele>
        <time>2022-02-09T11:51:58Z</time>
      </trkpt>
      <trkpt lat="42.86958" lon="0.21487">
        <ele>2676.3</ele>
        <time>2022-02-09T11:51:59Z</time>
      </trkpt>
      <trkpt lat="42.86958" lon="0.21487">
        <ele>2676.3</ele>
        <time>2022-02-09T11:52:00Z</time>
      </trkpt>
      <trkpt lat="42.86958" lon="0.21487">
        <ele>2676.3</ele>
        <time>2022-02-09T11:52:01Z</time>
      </trkpt>
      <trkpt lat="42.86958" lon="0.21487">
        <ele>2676.3</ele>
        <time>2022-02-09T11:52:02Z</time>
      </trkpt>
      <trkpt lat="42.86958" lon="0.21487">
        <ele>2676.3</ele>
        <time>2022-02-09T11:52:03Z</time>
      </trkpt>
      <trkpt lat="42.86958" lon="0.21487">
        <ele>2676.3</ele>
        <time>2022-02-09T11:52:04Z</time>
      </trkpt>
      <trkpt lat="42.86958" lon="0.21487">
        <ele>2676.3</ele>
        <time>2022-02-09T11:52:05Z</time>
      </trkpt>
      <trkpt lat="42.86958" lon="0.21487">
        <ele>2676.3</ele>
        <time>2022-02-09T11:52:06Z</time>
      </trkpt>
      <trkpt lat="42.86958" lon="0.21487">
        <ele>2676.3</ele>
        <time>2022-02-09T11:52:07Z</time>
      </trkpt>
      <trkpt lat="42.86958" lon="0.21487">
        <ele>2676.3</ele>
        <time>2022-02-09T11:52:08Z</time>
      </trkpt>
      <trkpt lat="42.86958" lon="0.21487">
        <ele>2676.3</ele>
        <time>2022-02-09T11:52:09Z</time>
      </trkpt>
      <trkpt lat="42.86958" lon="0.21487">
        <ele>2676.3</ele>
        <time>2022-02-09T11:52:10Z</time>
      </trkpt>
      <trkpt lat="42.86958" lon="0.21487">
        <ele>2676.3</ele>
        <time>2022-02-09T11:52:11Z</time>
      </trkpt>
      <trkpt lat="42.86958" lon="0.21487">
        <ele>2676.3</ele>
        <time>2022-02-09T11:52:12Z</time>
      </trkpt>
      <trkpt lat="42.86958" lon="0.21487">
        <ele>2676.3</ele>
        <time>2022-02-09T11:52:13Z</time>
      </trkpt>
      <trkpt lat="42.86958" lon="0.21487">
        <ele>2676.3</ele>
        <time>2022-02-09T11:52:14Z</time>
      </trkpt>
      <trkpt lat="42.86958" lon="0.21487">
        <ele>2676.3</ele>
        <time>2022-02-09T11:52:15Z</time>
      </trkpt>
      <trkpt lat="42.86958" lon="0.21487">
        <ele>2676.3</ele>
        <time>2022-02-09T11:52:16Z</time>
      </trkpt>
      <trkpt lat="42.86958" lon="0.21487">
        <ele>2676.3</ele>
        <time>2022-02-09T11:52:17Z</time>
      </trkpt>
      <trkpt lat="42.86958" lon="0.21487">
        <ele>2676.3</ele>
        <time>2022-02-09T11:52:18Z</time>
      </trkpt>
      <trkpt lat="42.86958" lon="0.21487">
        <ele>2676.3</ele>
        <time>2022-02-09T11:52:19Z</time>
      </trkpt>
      <trkpt lat="42.86958" lon="0.21487">
        <ele>2676.3</ele>
        <time>2022-02-09T11:52:20Z</time>
      </trkpt>
      <trkpt lat="42.86958" lon="0.21487">
        <ele>2676.3</ele>
        <time>2022-02-09T11:52:21Z</time>
      </trkpt>
      <trkpt lat="42.86958" lon="0.21487">
        <ele>2676.3</ele>
        <time>2022-02-09T11:52:22Z</time>
      </trkpt>
      <trkpt lat="42.86958" lon="0.21487">
        <ele>2676.3</ele>
        <time>2022-02-09T11:52:23Z</time>
      </trkpt>
      <trkpt lat="42.86958" lon="0.21487">
        <ele>2676.3</ele>
        <time>2022-02-09T11:52:24Z</time>
      </trkpt>
      <trkpt lat="42.86958" lon="0.21487">
        <ele>2676.3</ele>
        <time>2022-02-09T11:52:25Z</time>
      </trkpt>
      <trkpt lat="42.86958" lon="0.21487">
        <ele>2676.3</ele>
        <time>2022-02-09T11:52:26Z</time>
      </trkpt>
      <trkpt lat="42.86958" lon="0.21487">
        <ele>2676.3</ele>
        <time>2022-02-09T11:52:27Z</time>
      </trkpt>
      <trkpt lat="42.86958" lon="0.21487">
        <ele>2676.3</ele>
        <time>2022-02-09T11:52:28Z</time>
      </trkpt>
      <trkpt lat="42.86958" lon="0.21487">
        <ele>2676.3</ele>
        <time>2022-02-09T11:52:29Z</time>
      </trkpt>
      <trkpt lat="42.86958" lon="0.21487">
        <ele>2676.3</ele>
        <time>2022-02-09T11:52:30Z</time>
      </trkpt>
      <trkpt lat="42.86958" lon="0.21487">
        <ele>2676.3</ele>
        <time>2022-02-09T11:52:31Z</time>
      </trkpt>
      <trkpt lat="42.86958" lon="0.21487">
        <ele>2676.3</ele>
        <time>2022-02-09T11:52:32Z</time>
      </trkpt>
      <trkpt lat="42.86958" lon="0.21487">
        <ele>2676.3</ele>
        <time>2022-02-09T11:52:33Z</time>
      </trkpt>
      <trkpt lat="42.86958" lon="0.21487">
        <ele>2676.3</ele>
        <time>2022-02-09T11:52:34Z</time>
      </trkpt>
      <trkpt lat="42.86958" lon="0.21487">
        <ele>2676.3</ele>
        <time>2022-02-09T11:52:35Z</time>
      </trkpt>
      <trkpt lat="42.86958" lon="0.21487">
        <ele>2676.3</ele>
        <time>2022-02-09T11:52:36Z</time>
      </trkpt>
      <trkpt lat="42.86958" lon="0.21487">
        <ele>2676.3</ele>
        <time>2022-02-09T11:52:37Z</time>
      </trkpt>
      <trkpt lat="42.86958" lon="0.21487">
        <ele>2676.3</ele>
        <time>2022-02-09T11:52:38Z</time>
      </trkpt>
      <trkpt lat="42.86958" lon="0.21487">
        <ele>2676.3</ele>
        <time>2022-02-09T11:52:39Z</time>
      </trkpt>
      <trkpt lat="42.86958" lon="0.21487">
        <ele>2676.3</ele>
        <time>2022-02-09T11:52:40Z</time>
      </trkpt>
      <trkpt lat="42.86958" lon="0.21487">
        <ele>2676.3</ele>
        <time>2022-02-09T11:52:41Z</time>
      </trkpt>
      <trkpt lat="42.86958" lon="0.21487">
        <ele>2676.3</ele>
        <time>2022-02-09T11:52:42Z</time>
      </trkpt>
      <trkpt lat="42.86958" lon="0.21487">
        <ele>2676.3</ele>
        <time>2022-02-09T11:52:43Z</time>
      </trkpt>
      <trkpt lat="42.86958" lon="0.21487">
        <ele>2676.3</ele>
        <time>2022-02-09T11:52:44Z</time>
      </trkpt>
      <trkpt lat="42.86958" lon="0.21487">
        <ele>2676.3</ele>
        <time>2022-02-09T11:52:45Z</time>
      </trkpt>
      <trkpt lat="42.86958" lon="0.21487">
        <ele>2676.3</ele>
        <time>2022-02-09T11:52:46Z</time>
      </trkpt>
      <trkpt lat="42.86958" lon="0.21487">
        <ele>2676.3</ele>
        <time>2022-02-09T11:52:47Z</time>
      </trkpt>
      <trkpt lat="42.86958" lon="0.21487">
        <ele>2676.3</ele>
        <time>2022-02-09T11:52:48Z</time>
      </trkpt>
      <trkpt lat="42.86958" lon="0.21487">
        <ele>2676.3</ele>
        <time>2022-02-09T11:52:49Z</time>
      </trkpt>
      <trkpt lat="42.86958" lon="0.21487">
        <ele>2676.3</ele>
        <time>2022-02-09T11:52:50Z</time>
      </trkpt>
      <trkpt lat="42.86958" lon="0.21487">
        <ele>2676.3</ele>
        <time>2022-02-09T11:52:51Z</time>
      </trkpt>
      <trkpt lat="42.86958" lon="0.21487">
        <ele>2676.3</ele>
        <time>2022-02-09T11:52:52Z</time>
      </trkpt>
      <trkpt lat="42.86958" lon="0.21487">
        <ele>2676.3</ele>
        <time>2022-02-09T11:52:53Z</time>
      </trkpt>
      <trkpt lat="42.86958" lon="0.21487">
        <ele>2676.3</ele>
        <time>2022-02-09T11:52:54Z</time>
      </trkpt>
      <trkpt lat="42.86958" lon="0.21487">
        <ele>2676.3</ele>
        <time>2022-02-09T11:52:55Z</time>
      </trkpt>
      <trkpt lat="42.86958" lon="0.21487">
        <ele>2676.3</ele>
        <time>2022-02-09T11:52:56Z</time>
      </trkpt>
      <trkpt lat="42.86958" lon="0.21487">
        <ele>2676.3</ele>
        <time>2022-02-09T11:52:57Z</time>
      </trkpt>
      <trkpt lat="42.86958" lon="0.21487">
        <ele>2676.3</ele>
        <time>2022-02-09T11:52:58Z</time>
      </trkpt>
      <trkpt lat="42.86958" lon="0.21487">
        <ele>2676.3</ele>
        <time>2022-02-09T11:52:59Z</time>
      </trkpt>
      <trkpt lat="42.86958" lon="0.21487">
        <ele>2676.3</ele>
        <time>2022-02-09T11:53:00Z</time>
      </trkpt>
      <trkpt lat="42.86958" lon="0.21487">
        <ele>2676.3</ele>
        <time>2022-02-09T11:53:01Z</time>
      </trkpt>
      <trkpt lat="42.86958" lon="0.21487">
        <ele>2676.3</ele>
        <time>2022-02-09T11:53:02Z</time>
      </trkpt>
      <trkpt lat="42.86958" lon="0.21487">
        <ele>2676.3</ele>
        <time>2022-02-09T11:53:03Z</time>
      </trkpt>
      <trkpt lat="42.86958" lon="0.21487">
        <ele>2676.3</ele>
        <time>2022-02-09T11:53:04Z</time>
      </trkpt>
      <trkpt lat="42.86958" lon="0.21487">
        <ele>2676.3</ele>
        <time>2022-02-09T11:53:05Z</time>
      </trkpt>
      <trkpt lat="42.86958" lon="0.21487">
        <ele>2676.3</ele>
        <time>2022-02-09T11:53:06Z</time>
      </trkpt>
      <trkpt lat="42.86958" lon="0.21487">
        <ele>2676.3</ele>
        <time>2022-02-09T11:53:07Z</time>
      </trkpt>
      <trkpt lat="42.86958" lon="0.21487">
        <ele>2676.3</ele>
        <time>2022-02-09T11:53:08Z</time>
      </trkpt>
      <trkpt lat="42.86958" lon="0.21487">
        <ele>2676.3</ele>
        <time>2022-02-09T11:53:09Z</time>
      </trkpt>
      <trkpt lat="42.86958" lon="0.21487">
        <ele>2676.3</ele>
        <time>2022-02-09T11:53:10Z</time>
      </trkpt>
      <trkpt lat="42.86958" lon="0.21487">
        <ele>2676.3</ele>
        <time>2022-02-09T11:53:11Z</time>
      </trkpt>
      <trkpt lat="42.86958" lon="0.21487">
        <ele>2676.3</ele>
        <time>2022-02-09T11:53:12Z</time>
      </trkpt>
      <trkpt lat="42.86958" lon="0.21487">
        <ele>2676.3</ele>
        <time>2022-02-09T11:53:13Z</time>
      </trkpt>
      <trkpt lat="42.86958" lon="0.21487">
        <ele>2676.3</ele>
        <time>2022-02-09T11:53:14Z</time>
      </trkpt>
      <trkpt lat="42.86958" lon="0.21487">
        <ele>2676.3</ele>
        <time>2022-02-09T11:53:15Z</time>
      </trkpt>
      <trkpt lat="42.86958" lon="0.21487">
        <ele>2676.3</ele>
        <time>2022-02-09T11:53:16Z</time>
      </trkpt>
      <trkpt lat="42.86958" lon="0.21487">
        <ele>2676.3</ele>
        <time>2022-02-09T11:53:17Z</time>
      </trkpt>
      <trkpt lat="42.86958" lon="0.21487">
        <ele>2676.3</ele>
        <time>2022-02-09T11:53:18Z</time>
      </trkpt>
      <trkpt lat="42.86958" lon="0.21487">
        <ele>2676.3</ele>
        <time>2022-02-09T11:53:19Z</time>
      </trkpt>
      <trkpt lat="42.86958" lon="0.21487">
        <ele>2676.3</ele>
        <time>2022-02-09T11:53:20Z</time>
      </trkpt>
      <trkpt lat="42.86958" lon="0.21487">
        <ele>2676.3</ele>
        <time>2022-02-09T11:53:21Z</time>
      </trkpt>
      <trkpt lat="42.86958" lon="0.21487">
        <ele>2676.3</ele>
        <time>2022-02-09T11:53:22Z</time>
      </trkpt>
      <trkpt lat="42.86958" lon="0.21487">
        <ele>2676.3</ele>
        <time>2022-02-09T11:53:23Z</time>
      </trkpt>
      <trkpt lat="42.86958" lon="0.21487">
        <ele>2676.3</ele>
        <time>2022-02-09T11:53:24Z</time>
      </trkpt>
      <trkpt lat="42.86958" lon="0.21487">
        <ele>2676.3</ele>
        <time>2022-02-09T11:53:25Z</time>
      </trkpt>
      <trkpt lat="42.86958" lon="0.21487">
        <ele>2676.3</ele>
        <time>2022-02-09T11:53:26Z</time>
      </trkpt>
      <trkpt lat="42.86958" lon="0.21487">
        <ele>2676.3</ele>
        <time>2022-02-09T11:53:27Z</time>
      </trkpt>
      <trkpt lat="42.86958" lon="0.21487">
        <ele>2676.3</ele>
        <time>2022-02-09T11:53:28Z</time>
      </trkpt>
      <trkpt lat="42.86958" lon="0.21487">
        <ele>2676.3</ele>
        <time>2022-02-09T11:53:29Z</time>
      </trkpt>
      <trkpt lat="42.86958" lon="0.21487">
        <ele>2676.3</ele>
        <time>2022-02-09T11:53:30Z</time>
      </trkpt>
      <trkpt lat="42.86958" lon="0.21487">
        <ele>2676.3</ele>
        <time>2022-02-09T11:53:31Z</time>
      </trkpt>
      <trkpt lat="42.86958" lon="0.21487">
        <ele>2676.3</ele>
        <time>2022-02-09T11:53:32Z</time>
      </trkpt>
      <trkpt lat="42.86958" lon="0.21487">
        <ele>2676.3</ele>
        <time>2022-02-09T11:53:33Z</time>
      </trkpt>
      <trkpt lat="42.86958" lon="0.21487">
        <ele>2676.3</ele>
        <time>2022-02-09T11:53:34Z</time>
      </trkpt>
      <trkpt lat="42.86958" lon="0.21487">
        <ele>2676.3</ele>
        <time>2022-02-09T11:53:35Z</time>
      </trkpt>
      <trkpt lat="42.86958" lon="0.21487">
        <ele>2676.3</ele>
        <time>2022-02-09T11:53:36Z</time>
      </trkpt>
      <trkpt lat="42.86958" lon="0.21487">
        <ele>2676.3</ele>
        <time>2022-02-09T11:53:37Z</time>
      </trkpt>
      <trkpt lat="42.86958" lon="0.21487">
        <ele>2676.3</ele>
        <time>2022-02-09T11:53:38Z</time>
      </trkpt>
      <trkpt lat="42.86958" lon="0.21487">
        <ele>2676.3</ele>
        <time>2022-02-09T11:53:39Z</time>
      </trkpt>
      <trkpt lat="42.86958" lon="0.21487">
        <ele>2676.3</ele>
        <time>2022-02-09T11:53:40Z</time>
      </trkpt>
      <trkpt lat="42.86958" lon="0.21487">
        <ele>2676.3</ele>
        <time>2022-02-09T11:53:41Z</time>
      </trkpt>
      <trkpt lat="42.86958" lon="0.21487">
        <ele>2676.3</ele>
        <time>2022-02-09T11:53:42Z</time>
      </trkpt>
      <trkpt lat="42.86958" lon="0.21487">
        <ele>2676.3</ele>
        <time>2022-02-09T11:53:43Z</time>
      </trkpt>
      <trkpt lat="42.86958" lon="0.21487">
        <ele>2676.3</ele>
        <time>2022-02-09T11:53:44Z</time>
      </trkpt>
      <trkpt lat="42.86958" lon="0.21487">
        <ele>2676.3</ele>
        <time>2022-02-09T11:53:45Z</time>
      </trkpt>
      <trkpt lat="42.86958" lon="0.21487">
        <ele>2676.3</ele>
        <time>2022-02-09T11:53:46Z</time>
      </trkpt>
      <trkpt lat="42.86958" lon="0.21487">
        <ele>2676.3</ele>
        <time>2022-02-09T11:53:47Z</time>
      </trkpt>
      <trkpt lat="42.86958" lon="0.21487">
        <ele>2676.3</ele>
        <time>2022-02-09T11:53:48Z</time>
      </trkpt>
      <trkpt lat="42.86958" lon="0.21487">
        <ele>2676.3</ele>
        <time>2022-02-09T11:53:49Z</time>
      </trkpt>
      <trkpt lat="42.86958" lon="0.21487">
        <ele>2676.3</ele>
        <time>2022-02-09T11:53:50Z</time>
      </trkpt>
      <trkpt lat="42.86958" lon="0.21487">
        <ele>2676.3</ele>
        <time>2022-02-09T11:53:51Z</time>
      </trkpt>
      <trkpt lat="42.86958" lon="0.21487">
        <ele>2676.3</ele>
        <time>2022-02-09T11:53:52Z</time>
      </trkpt>
      <trkpt lat="42.86958" lon="0.21487">
        <ele>2676.3</ele>
        <time>2022-02-09T11:53:53Z</time>
      </trkpt>
      <trkpt lat="42.86958" lon="0.21487">
        <ele>2676.3</ele>
        <time>2022-02-09T11:53:54Z</time>
      </trkpt>
      <trkpt lat="42.86958" lon="0.21487">
        <ele>2676.3</ele>
        <time>2022-02-09T11:53:55Z</time>
      </trkpt>
      <trkpt lat="42.86958" lon="0.21487">
        <ele>2676.3</ele>
        <time>2022-02-09T11:53:56Z</time>
      </trkpt>
      <trkpt lat="42.86958" lon="0.21487">
        <ele>2676.3</ele>
        <time>2022-02-09T11:53:57Z</time>
      </trkpt>
      <trkpt lat="42.86958" lon="0.21487">
        <ele>2676.3</ele>
        <time>2022-02-09T11:53:58Z</time>
      </trkpt>
      <trkpt lat="42.86958" lon="0.21487">
        <ele>2676.3</ele>
        <time>2022-02-09T11:53:59Z</time>
      </trkpt>
      <trkpt lat="42.86958" lon="0.21487">
        <ele>2676.3</ele>
        <time>2022-02-09T11:54:00Z</time>
      </trkpt>
      <trkpt lat="42.86958" lon="0.21487">
        <ele>2676.3</ele>
        <time>2022-02-09T11:54:01Z</time>
      </trkpt>
      <trkpt lat="42.86958" lon="0.21487">
        <ele>2676.3</ele>
        <time>2022-02-09T11:54:02Z</time>
      </trkpt>
      <trkpt lat="42.86958" lon="0.21487">
        <ele>2676.3</ele>
        <time>2022-02-09T11:54:03Z</time>
      </trkpt>
      <trkpt lat="42.86958" lon="0.21487">
        <ele>2676.3</ele>
        <time>2022-02-09T11:54:04Z</time>
      </trkpt>
      <trkpt lat="42.86958" lon="0.21487">
        <ele>2676.3</ele>
        <time>2022-02-09T11:54:05Z</time>
      </trkpt>
      <trkpt lat="42.86958" lon="0.21487">
        <ele>2676.3</ele>
        <time>2022-02-09T11:54:06Z</time>
      </trkpt>
      <trkpt lat="42.86958" lon="0.21487">
        <ele>2676.3</ele>
        <time>2022-02-09T11:54:07Z</time>
      </trkpt>
      <trkpt lat="42.86958" lon="0.21487">
        <ele>2676.3</ele>
        <time>2022-02-09T11:54:08Z</time>
      </trkpt>
      <trkpt lat="42.86958" lon="0.21487">
        <ele>2676.3</ele>
        <time>2022-02-09T11:54:09Z</time>
      </trkpt>
      <trkpt lat="42.86958" lon="0.21487">
        <ele>2676.3</ele>
        <time>2022-02-09T11:54:10Z</time>
      </trkpt>
      <trkpt lat="42.86958" lon="0.21487">
        <ele>2676.3</ele>
        <time>2022-02-09T11:54:11Z</time>
      </trkpt>
      <trkpt lat="42.86958" lon="0.21487">
        <ele>2676.3</ele>
        <time>2022-02-09T11:54:12Z</time>
      </trkpt>
      <trkpt lat="42.86958" lon="0.21487">
        <ele>2676.3</ele>
        <time>2022-02-09T11:54:13Z</time>
      </trkpt>
      <trkpt lat="42.86958" lon="0.21487">
        <ele>2676.3</ele>
        <time>2022-02-09T11:54:14Z</time>
      </trkpt>
      <trkpt lat="42.86958" lon="0.21487">
        <ele>2676.3</ele>
        <time>2022-02-09T11:54:15Z</time>
      </trkpt>
      <trkpt lat="42.86958" lon="0.21487">
        <ele>2676.3</ele>
        <time>2022-02-09T11:54:16Z</time>
      </trkpt>
      <trkpt lat="42.86958" lon="0.21487">
        <ele>2676.3</ele>
        <time>2022-02-09T11:54:17Z</time>
      </trkpt>
      <trkpt lat="42.86958" lon="0.21487">
        <ele>2676.3</ele>
        <time>2022-02-09T11:54:18Z</time>
      </trkpt>
      <trkpt lat="42.86958" lon="0.21487">
        <ele>2676.3</ele>
        <time>2022-02-09T11:54:19Z</time>
      </trkpt>
      <trkpt lat="42.86958" lon="0.21487">
        <ele>2676.3</ele>
        <time>2022-02-09T11:54:20Z</time>
      </trkpt>
      <trkpt lat="42.86958" lon="0.21487">
        <ele>2676.3</ele>
        <time>2022-02-09T11:54:21Z</time>
      </trkpt>
      <trkpt lat="42.86958" lon="0.21487">
        <ele>2676.3</ele>
        <time>2022-02-09T11:54:22Z</time>
      </trkpt>
      <trkpt lat="42.86958" lon="0.21487">
        <ele>2676.3</ele>
        <time>2022-02-09T11:54:23Z</time>
      </trkpt>
      <trkpt lat="42.86958" lon="0.21487">
        <ele>2676.3</ele>
        <time>2022-02-09T11:54:24Z</time>
      </trkpt>
      <trkpt lat="42.86958" lon="0.21487">
        <ele>2676.3</ele>
        <time>2022-02-09T11:54:25Z</time>
      </trkpt>
      <trkpt lat="42.86958" lon="0.21487">
        <ele>2676.3</ele>
        <time>2022-02-09T11:54:26Z</time>
      </trkpt>
      <trkpt lat="42.86958" lon="0.21487">
        <ele>2676.3</ele>
        <time>2022-02-09T11:54:27Z</time>
      </trkpt>
      <trkpt lat="42.86958" lon="0.21487">
        <ele>2676.3</ele>
        <time>2022-02-09T11:54:28Z</time>
      </trkpt>
      <trkpt lat="42.86958" lon="0.21487">
        <ele>2676.3</ele>
        <time>2022-02-09T11:54:29Z</time>
      </trkpt>
      <trkpt lat="42.86958" lon="0.21488">
        <ele>2676.3</ele>
        <time>2022-02-09T11:54:30Z</time>
      </trkpt>
      <trkpt lat="42.86957" lon="0.21488">
        <ele>2677.7</ele>
        <time>2022-02-09T11:54:31Z</time>
      </trkpt>
      <trkpt lat="42.86957" lon="0.2149">
        <ele>2677.7</ele>
        <time>2022-02-09T11:54:32Z</time>
      </trkpt>
      <trkpt lat="42.86956" lon="0.21491">
        <ele>2677.7</ele>
        <time>2022-02-09T11:54:33Z</time>
      </trkpt>
      <trkpt lat="42.86956" lon="0.21492">
        <ele>2678.1</ele>
        <time>2022-02-09T11:54:34Z</time>
      </trkpt>
      <trkpt lat="42.86956" lon="0.21494">
        <ele>2678.1</ele>
        <time>2022-02-09T11:54:35Z</time>
      </trkpt>
      <trkpt lat="42.86956" lon="0.21495">
        <ele>2678.1</ele>
        <time>2022-02-09T11:54:36Z</time>
      </trkpt>
      <trkpt lat="42.86956" lon="0.21496">
        <ele>2678.5</ele>
        <time>2022-02-09T11:54:37Z</time>
      </trkpt>
      <trkpt lat="42.86956" lon="0.21497">
        <ele>2678.5</ele>
        <time>2022-02-09T11:54:38Z</time>
      </trkpt>
      <trkpt lat="42.86957" lon="0.21498">
        <ele>2678.5</ele>
        <time>2022-02-09T11:54:39Z</time>
      </trkpt>
      <trkpt lat="42.86958" lon="0.21498">
        <ele>2678.5</ele>
        <time>2022-02-09T11:54:40Z</time>
      </trkpt>
      <trkpt lat="42.86959" lon="0.21497">
        <ele>2677.6</ele>
        <time>2022-02-09T11:54:41Z</time>
      </trkpt>
      <trkpt lat="42.86959" lon="0.21497">
        <ele>2677.6</ele>
        <time>2022-02-09T11:54:42Z</time>
      </trkpt>
      <trkpt lat="42.86959" lon="0.21496">
        <ele>2677.2</ele>
        <time>2022-02-09T11:54:43Z</time>
      </trkpt>
      <trkpt lat="42.8696" lon="0.21495">
        <ele>2677.2</ele>
        <time>2022-02-09T11:54:44Z</time>
      </trkpt>
      <trkpt lat="42.8696" lon="0.21495">
        <ele>2677.2</ele>
        <time>2022-02-09T11:54:45Z</time>
      </trkpt>
      <trkpt lat="42.8696" lon="0.21494">
        <ele>2677.2</ele>
        <time>2022-02-09T11:54:46Z</time>
      </trkpt>
      <trkpt lat="42.86961" lon="0.21493">
        <ele>2677.2</ele>
        <time>2022-02-09T11:54:47Z</time>
      </trkpt>
      <trkpt lat="42.86961" lon="0.21492">
        <ele>2676.8</ele>
        <time>2022-02-09T11:54:48Z</time>
      </trkpt>
      <trkpt lat="42.8696" lon="0.21491">
        <ele>2676.8</ele>
        <time>2022-02-09T11:54:49Z</time>
      </trkpt>
      <trkpt lat="42.8696" lon="0.2149">
        <ele>2676.8</ele>
        <time>2022-02-09T11:54:50Z</time>
      </trkpt>
      <trkpt lat="42.8696" lon="0.21489">
        <ele>2676.8</ele>
        <time>2022-02-09T11:54:51Z</time>
      </trkpt>
      <trkpt lat="42.8696" lon="0.21488">
        <ele>2676.8</ele>
        <time>2022-02-09T11:54:52Z</time>
      </trkpt>
      <trkpt lat="42.86959" lon="0.21488">
        <ele>2676.3</ele>
        <time>2022-02-09T11:54:53Z</time>
      </trkpt>
      <trkpt lat="42.86959" lon="0.21487">
        <ele>2676.3</ele>
        <time>2022-02-09T11:54:54Z</time>
      </trkpt>
      <trkpt lat="42.86959" lon="0.21487">
        <ele>2676.3</ele>
        <time>2022-02-09T11:54:55Z</time>
      </trkpt>
      <trkpt lat="42.86959" lon="0.21487">
        <ele>2676.3</ele>
        <time>2022-02-09T11:54:56Z</time>
      </trkpt>
      <trkpt lat="42.86959" lon="0.21487">
        <ele>2676.3</ele>
        <time>2022-02-09T11:54:57Z</time>
      </trkpt>
      <trkpt lat="42.86959" lon="0.21487">
        <ele>2676.3</ele>
        <time>2022-02-09T11:54:58Z</time>
      </trkpt>
      <trkpt lat="42.86959" lon="0.21487">
        <ele>2676.3</ele>
        <time>2022-02-09T11:54:59Z</time>
      </trkpt>
      <trkpt lat="42.86959" lon="0.21487">
        <ele>2676.3</ele>
        <time>2022-02-09T11:55:00Z</time>
      </trkpt>
      <trkpt lat="42.86958" lon="0.21487">
        <ele>2676.3</ele>
        <time>2022-02-09T11:55:01Z</time>
      </trkpt>
      <trkpt lat="42.86958" lon="0.21488">
        <ele>2677.2</ele>
        <time>2022-02-09T11:55:02Z</time>
      </trkpt>
      <trkpt lat="42.86957" lon="0.21489">
        <ele>2677.7</ele>
        <time>2022-02-09T11:55:03Z</time>
      </trkpt>
      <trkpt lat="42.86957" lon="0.21489">
        <ele>2677.7</ele>
        <time>2022-02-09T11:55:04Z</time>
      </trkpt>
      <trkpt lat="42.86957" lon="0.21488">
        <ele>2677.7</ele>
        <time>2022-02-09T11:55:05Z</time>
      </trkpt>
      <trkpt lat="42.86957" lon="0.21488">
        <ele>2677.2</ele>
        <time>2022-02-09T11:55:06Z</time>
      </trkpt>
      <trkpt lat="42.86957" lon="0.21488">
        <ele>2677.2</ele>
        <time>2022-02-09T11:55:07Z</time>
      </trkpt>
      <trkpt lat="42.86957" lon="0.21488">
        <ele>2677.2</ele>
        <time>2022-02-09T11:55:08Z</time>
      </trkpt>
      <trkpt lat="42.86957" lon="0.21488">
        <ele>2677.2</ele>
        <time>2022-02-09T11:55:09Z</time>
      </trkpt>
      <trkpt lat="42.86957" lon="0.21488">
        <ele>2677.2</ele>
        <time>2022-02-09T11:55:10Z</time>
      </trkpt>
      <trkpt lat="42.86957" lon="0.21488">
        <ele>2677.2</ele>
        <time>2022-02-09T11:55:11Z</time>
      </trkpt>
      <trkpt lat="42.86957" lon="0.21488">
        <ele>2677.2</ele>
        <time>2022-02-09T11:55:12Z</time>
      </trkpt>
      <trkpt lat="42.86957" lon="0.21488">
        <ele>2677.2</ele>
        <time>2022-02-09T11:55:13Z</time>
      </trkpt>
      <trkpt lat="42.86957" lon="0.21488">
        <ele>2677.2</ele>
        <time>2022-02-09T11:55:14Z</time>
      </trkpt>
      <trkpt lat="42.86957" lon="0.21488">
        <ele>2677.2</ele>
        <time>2022-02-09T11:55:15Z</time>
      </trkpt>
      <trkpt lat="42.86957" lon="0.21488">
        <ele>2677.2</ele>
        <time>2022-02-09T11:55:16Z</time>
      </trkpt>
      <trkpt lat="42.86957" lon="0.21488">
        <ele>2677.2</ele>
        <time>2022-02-09T11:55:17Z</time>
      </trkpt>
      <trkpt lat="42.86957" lon="0.21488">
        <ele>2677.2</ele>
        <time>2022-02-09T11:55:18Z</time>
      </trkpt>
      <trkpt lat="42.86957" lon="0.21488">
        <ele>2677.2</ele>
        <time>2022-02-09T11:55:19Z</time>
      </trkpt>
      <trkpt lat="42.86957" lon="0.21488">
        <ele>2677.2</ele>
        <time>2022-02-09T11:55:20Z</time>
      </trkpt>
      <trkpt lat="42.86957" lon="0.21488">
        <ele>2677.2</ele>
        <time>2022-02-09T11:55:21Z</time>
      </trkpt>
      <trkpt lat="42.86957" lon="0.21488">
        <ele>2677.2</ele>
        <time>2022-02-09T11:55:22Z</time>
      </trkpt>
      <trkpt lat="42.86957" lon="0.21488">
        <ele>2677.2</ele>
        <time>2022-02-09T11:55:23Z</time>
      </trkpt>
      <trkpt lat="42.86957" lon="0.21488">
        <ele>2677.2</ele>
        <time>2022-02-09T11:55:24Z</time>
      </trkpt>
      <trkpt lat="42.86957" lon="0.21488">
        <ele>2677.2</ele>
        <time>2022-02-09T11:55:25Z</time>
      </trkpt>
      <trkpt lat="42.86957" lon="0.21488">
        <ele>2677.2</ele>
        <time>2022-02-09T11:55:26Z</time>
      </trkpt>
      <trkpt lat="42.86957" lon="0.21488">
        <ele>2677.2</ele>
        <time>2022-02-09T11:55:27Z</time>
      </trkpt>
      <trkpt lat="42.86957" lon="0.21488">
        <ele>2677.2</ele>
        <time>2022-02-09T11:55:28Z</time>
      </trkpt>
      <trkpt lat="42.86957" lon="0.21488">
        <ele>2677.2</ele>
        <time>2022-02-09T11:55:29Z</time>
      </trkpt>
      <trkpt lat="42.86957" lon="0.21488">
        <ele>2677.2</ele>
        <time>2022-02-09T11:55:30Z</time>
      </trkpt>
      <trkpt lat="42.86957" lon="0.21488">
        <ele>2677.2</ele>
        <time>2022-02-09T11:55:31Z</time>
      </trkpt>
      <trkpt lat="42.86957" lon="0.21488">
        <ele>2677.2</ele>
        <time>2022-02-09T11:55:32Z</time>
      </trkpt>
      <trkpt lat="42.86957" lon="0.21488">
        <ele>2677.2</ele>
        <time>2022-02-09T11:55:33Z</time>
      </trkpt>
      <trkpt lat="42.86957" lon="0.21488">
        <ele>2677.2</ele>
        <time>2022-02-09T11:55:34Z</time>
      </trkpt>
      <trkpt lat="42.86957" lon="0.21488">
        <ele>2677.2</ele>
        <time>2022-02-09T11:55:35Z</time>
      </trkpt>
      <trkpt lat="42.86957" lon="0.21488">
        <ele>2677.2</ele>
        <time>2022-02-09T11:55:36Z</time>
      </trkpt>
      <trkpt lat="42.86957" lon="0.21488">
        <ele>2677.2</ele>
        <time>2022-02-09T11:55:37Z</time>
      </trkpt>
      <trkpt lat="42.86957" lon="0.21488">
        <ele>2677.2</ele>
        <time>2022-02-09T11:55:38Z</time>
      </trkpt>
      <trkpt lat="42.86957" lon="0.21488">
        <ele>2677.2</ele>
        <time>2022-02-09T11:55:39Z</time>
      </trkpt>
      <trkpt lat="42.86957" lon="0.21488">
        <ele>2677.2</ele>
        <time>2022-02-09T11:55:40Z</time>
      </trkpt>
      <trkpt lat="42.86957" lon="0.21488">
        <ele>2677.2</ele>
        <time>2022-02-09T11:55:41Z</time>
      </trkpt>
      <trkpt lat="42.86957" lon="0.21488">
        <ele>2677.2</ele>
        <time>2022-02-09T11:55:42Z</time>
      </trkpt>
      <trkpt lat="42.86957" lon="0.21488">
        <ele>2677.2</ele>
        <time>2022-02-09T11:55:43Z</time>
      </trkpt>
      <trkpt lat="42.86957" lon="0.21488">
        <ele>2677.2</ele>
        <time>2022-02-09T11:55:44Z</time>
      </trkpt>
      <trkpt lat="42.86957" lon="0.21488">
        <ele>2677.2</ele>
        <time>2022-02-09T11:55:45Z</time>
      </trkpt>
      <trkpt lat="42.86957" lon="0.21488">
        <ele>2677.2</ele>
        <time>2022-02-09T11:55:46Z</time>
      </trkpt>
      <trkpt lat="42.86957" lon="0.21488">
        <ele>2677.2</ele>
        <time>2022-02-09T11:55:47Z</time>
      </trkpt>
      <trkpt lat="42.86957" lon="0.21488">
        <ele>2677.2</ele>
        <time>2022-02-09T11:55:48Z</time>
      </trkpt>
      <trkpt lat="42.86957" lon="0.21488">
        <ele>2677.2</ele>
        <time>2022-02-09T11:55:49Z</time>
      </trkpt>
      <trkpt lat="42.86957" lon="0.21488">
        <ele>2677.2</ele>
        <time>2022-02-09T11:55:50Z</time>
      </trkpt>
      <trkpt lat="42.86957" lon="0.21488">
        <ele>2677.2</ele>
        <time>2022-02-09T11:55:51Z</time>
      </trkpt>
      <trkpt lat="42.86957" lon="0.21488">
        <ele>2677.2</ele>
        <time>2022-02-09T11:55:52Z</time>
      </trkpt>
      <trkpt lat="42.86957" lon="0.21488">
        <ele>2677.2</ele>
        <time>2022-02-09T11:55:53Z</time>
      </trkpt>
      <trkpt lat="42.86957" lon="0.21488">
        <ele>2677.2</ele>
        <time>2022-02-09T11:55:54Z</time>
      </trkpt>
      <trkpt lat="42.86957" lon="0.21488">
        <ele>2677.2</ele>
        <time>2022-02-09T11:55:55Z</time>
      </trkpt>
      <trkpt lat="42.86957" lon="0.21488">
        <ele>2677.2</ele>
        <time>2022-02-09T11:55:56Z</time>
      </trkpt>
      <trkpt lat="42.86957" lon="0.21488">
        <ele>2677.2</ele>
        <time>2022-02-09T11:55:57Z</time>
      </trkpt>
      <trkpt lat="42.86957" lon="0.21488">
        <ele>2677.2</ele>
        <time>2022-02-09T11:55:58Z</time>
      </trkpt>
      <trkpt lat="42.86957" lon="0.21488">
        <ele>2677.2</ele>
        <time>2022-02-09T11:55:59Z</time>
      </trkpt>
      <trkpt lat="42.86957" lon="0.21488">
        <ele>2677.2</ele>
        <time>2022-02-09T11:56:00Z</time>
      </trkpt>
      <trkpt lat="42.86957" lon="0.21488">
        <ele>2677.2</ele>
        <time>2022-02-09T11:56:01Z</time>
      </trkpt>
      <trkpt lat="42.86957" lon="0.21488">
        <ele>2677.2</ele>
        <time>2022-02-09T11:56:02Z</time>
      </trkpt>
      <trkpt lat="42.86957" lon="0.21488">
        <ele>2677.2</ele>
        <time>2022-02-09T11:56:03Z</time>
      </trkpt>
      <trkpt lat="42.86957" lon="0.21488">
        <ele>2677.2</ele>
        <time>2022-02-09T11:56:04Z</time>
      </trkpt>
      <trkpt lat="42.86957" lon="0.21488">
        <ele>2677.2</ele>
        <time>2022-02-09T11:56:05Z</time>
      </trkpt>
      <trkpt lat="42.86957" lon="0.21488">
        <ele>2677.2</ele>
        <time>2022-02-09T11:56:06Z</time>
      </trkpt>
      <trkpt lat="42.86957" lon="0.21488">
        <ele>2677.2</ele>
        <time>2022-02-09T11:56:07Z</time>
      </trkpt>
      <trkpt lat="42.86957" lon="0.21488">
        <ele>2677.2</ele>
        <time>2022-02-09T11:56:08Z</time>
      </trkpt>
      <trkpt lat="42.86957" lon="0.21488">
        <ele>2677.2</ele>
        <time>2022-02-09T11:56:09Z</time>
      </trkpt>
      <trkpt lat="42.86957" lon="0.21488">
        <ele>2677.2</ele>
        <time>2022-02-09T11:56:10Z</time>
      </trkpt>
      <trkpt lat="42.86957" lon="0.21488">
        <ele>2677.2</ele>
        <time>2022-02-09T11:56:11Z</time>
      </trkpt>
      <trkpt lat="42.86957" lon="0.21488">
        <ele>2677.2</ele>
        <time>2022-02-09T11:56:12Z</time>
      </trkpt>
      <trkpt lat="42.86957" lon="0.21488">
        <ele>2677.2</ele>
        <time>2022-02-09T11:56:13Z</time>
      </trkpt>
      <trkpt lat="42.86957" lon="0.21488">
        <ele>2677.2</ele>
        <time>2022-02-09T11:56:14Z</time>
      </trkpt>
      <trkpt lat="42.86957" lon="0.21488">
        <ele>2677.2</ele>
        <time>2022-02-09T11:56:15Z</time>
      </trkpt>
      <trkpt lat="42.86957" lon="0.21488">
        <ele>2677.2</ele>
        <time>2022-02-09T11:56:16Z</time>
      </trkpt>
      <trkpt lat="42.86957" lon="0.21488">
        <ele>2677.2</ele>
        <time>2022-02-09T11:56:17Z</time>
      </trkpt>
      <trkpt lat="42.86957" lon="0.21488">
        <ele>2677.2</ele>
        <time>2022-02-09T11:56:18Z</time>
      </trkpt>
      <trkpt lat="42.86957" lon="0.21488">
        <ele>2677.2</ele>
        <time>2022-02-09T11:56:19Z</time>
      </trkpt>
      <trkpt lat="42.86957" lon="0.21488">
        <ele>2677.2</ele>
        <time>2022-02-09T11:56:20Z</time>
      </trkpt>
      <trkpt lat="42.86957" lon="0.21488">
        <ele>2677.2</ele>
        <time>2022-02-09T11:56:21Z</time>
      </trkpt>
      <trkpt lat="42.86957" lon="0.21488">
        <ele>2677.2</ele>
        <time>2022-02-09T11:56:22Z</time>
      </trkpt>
      <trkpt lat="42.86957" lon="0.21488">
        <ele>2677.2</ele>
        <time>2022-02-09T11:56:23Z</time>
      </trkpt>
      <trkpt lat="42.86957" lon="0.21488">
        <ele>2677.2</ele>
        <time>2022-02-09T11:56:24Z</time>
      </trkpt>
      <trkpt lat="42.86957" lon="0.21488">
        <ele>2677.2</ele>
        <time>2022-02-09T11:56:25Z</time>
      </trkpt>
      <trkpt lat="42.86957" lon="0.21488">
        <ele>2677.2</ele>
        <time>2022-02-09T11:56:26Z</time>
      </trkpt>
      <trkpt lat="42.86957" lon="0.21488">
        <ele>2677.2</ele>
        <time>2022-02-09T11:56:27Z</time>
      </trkpt>
      <trkpt lat="42.86957" lon="0.21488">
        <ele>2677.2</ele>
        <time>2022-02-09T11:56:28Z</time>
      </trkpt>
      <trkpt lat="42.86957" lon="0.21488">
        <ele>2677.2</ele>
        <time>2022-02-09T11:56:29Z</time>
      </trkpt>
      <trkpt lat="42.86957" lon="0.21488">
        <ele>2677.2</ele>
        <time>2022-02-09T11:56:30Z</time>
      </trkpt>
      <trkpt lat="42.86957" lon="0.21488">
        <ele>2677.2</ele>
        <time>2022-02-09T11:56:31Z</time>
      </trkpt>
      <trkpt lat="42.86957" lon="0.21488">
        <ele>2677.2</ele>
        <time>2022-02-09T11:56:32Z</time>
      </trkpt>
      <trkpt lat="42.86957" lon="0.21488">
        <ele>2677.2</ele>
        <time>2022-02-09T11:56:33Z</time>
      </trkpt>
      <trkpt lat="42.86957" lon="0.21488">
        <ele>2677.2</ele>
        <time>2022-02-09T11:56:34Z</time>
      </trkpt>
      <trkpt lat="42.86957" lon="0.21488">
        <ele>2677.2</ele>
        <time>2022-02-09T11:56:35Z</time>
      </trkpt>
      <trkpt lat="42.86957" lon="0.21488">
        <ele>2677.2</ele>
        <time>2022-02-09T11:56:36Z</time>
      </trkpt>
      <trkpt lat="42.86957" lon="0.21488">
        <ele>2677.2</ele>
        <time>2022-02-09T11:56:37Z</time>
      </trkpt>
      <trkpt lat="42.86957" lon="0.21488">
        <ele>2677.2</ele>
        <time>2022-02-09T11:56:38Z</time>
      </trkpt>
      <trkpt lat="42.86957" lon="0.21488">
        <ele>2677.2</ele>
        <time>2022-02-09T11:56:39Z</time>
      </trkpt>
      <trkpt lat="42.86957" lon="0.21488">
        <ele>2677.2</ele>
        <time>2022-02-09T11:56:40Z</time>
      </trkpt>
      <trkpt lat="42.86957" lon="0.21488">
        <ele>2677.2</ele>
        <time>2022-02-09T11:56:41Z</time>
      </trkpt>
      <trkpt lat="42.86957" lon="0.21488">
        <ele>2677.2</ele>
        <time>2022-02-09T11:56:42Z</time>
      </trkpt>
      <trkpt lat="42.86957" lon="0.21488">
        <ele>2677.2</ele>
        <time>2022-02-09T11:56:43Z</time>
      </trkpt>
      <trkpt lat="42.86957" lon="0.21488">
        <ele>2677.2</ele>
        <time>2022-02-09T11:56:44Z</time>
      </trkpt>
      <trkpt lat="42.86957" lon="0.21488">
        <ele>2677.2</ele>
        <time>2022-02-09T11:56:45Z</time>
      </trkpt>
      <trkpt lat="42.86957" lon="0.21488">
        <ele>2677.2</ele>
        <time>2022-02-09T11:56:46Z</time>
      </trkpt>
      <trkpt lat="42.86957" lon="0.21488">
        <ele>2677.2</ele>
        <time>2022-02-09T11:56:47Z</time>
      </trkpt>
      <trkpt lat="42.86957" lon="0.21488">
        <ele>2677.2</ele>
        <time>2022-02-09T11:56:48Z</time>
      </trkpt>
      <trkpt lat="42.86957" lon="0.21488">
        <ele>2677.2</ele>
        <time>2022-02-09T11:56:49Z</time>
      </trkpt>
      <trkpt lat="42.86957" lon="0.21488">
        <ele>2677.2</ele>
        <time>2022-02-09T11:56:50Z</time>
      </trkpt>
      <trkpt lat="42.86957" lon="0.21488">
        <ele>2677.2</ele>
        <time>2022-02-09T11:56:51Z</time>
      </trkpt>
      <trkpt lat="42.86957" lon="0.21488">
        <ele>2677.2</ele>
        <time>2022-02-09T11:56:52Z</time>
      </trkpt>
      <trkpt lat="42.86957" lon="0.21488">
        <ele>2677.2</ele>
        <time>2022-02-09T11:56:53Z</time>
      </trkpt>
      <trkpt lat="42.86957" lon="0.21488">
        <ele>2677.2</ele>
        <time>2022-02-09T11:56:54Z</time>
      </trkpt>
      <trkpt lat="42.86957" lon="0.21488">
        <ele>2677.2</ele>
        <time>2022-02-09T11:56:55Z</time>
      </trkpt>
      <trkpt lat="42.86957" lon="0.21488">
        <ele>2677.2</ele>
        <time>2022-02-09T11:56:56Z</time>
      </trkpt>
      <trkpt lat="42.86957" lon="0.21488">
        <ele>2677.2</ele>
        <time>2022-02-09T11:56:57Z</time>
      </trkpt>
      <trkpt lat="42.86957" lon="0.21488">
        <ele>2677.2</ele>
        <time>2022-02-09T11:56:58Z</time>
      </trkpt>
      <trkpt lat="42.86957" lon="0.21488">
        <ele>2677.2</ele>
        <time>2022-02-09T11:56:59Z</time>
      </trkpt>
      <trkpt lat="42.86957" lon="0.21488">
        <ele>2677.2</ele>
        <time>2022-02-09T11:57:00Z</time>
      </trkpt>
      <trkpt lat="42.86957" lon="0.21488">
        <ele>2677.2</ele>
        <time>2022-02-09T11:57:01Z</time>
      </trkpt>
      <trkpt lat="42.86957" lon="0.21488">
        <ele>2677.2</ele>
        <time>2022-02-09T11:57:02Z</time>
      </trkpt>
      <trkpt lat="42.86957" lon="0.21488">
        <ele>2677.2</ele>
        <time>2022-02-09T11:57:03Z</time>
      </trkpt>
      <trkpt lat="42.86957" lon="0.21488">
        <ele>2677.2</ele>
        <time>2022-02-09T11:57:04Z</time>
      </trkpt>
      <trkpt lat="42.86957" lon="0.21488">
        <ele>2677.2</ele>
        <time>2022-02-09T11:57:05Z</time>
      </trkpt>
      <trkpt lat="42.86957" lon="0.21488">
        <ele>2677.2</ele>
        <time>2022-02-09T11:57:06Z</time>
      </trkpt>
      <trkpt lat="42.86957" lon="0.21488">
        <ele>2677.2</ele>
        <time>2022-02-09T11:57:07Z</time>
      </trkpt>
      <trkpt lat="42.86957" lon="0.21488">
        <ele>2677.2</ele>
        <time>2022-02-09T11:57:08Z</time>
      </trkpt>
      <trkpt lat="42.86957" lon="0.21488">
        <ele>2677.2</ele>
        <time>2022-02-09T11:57:09Z</time>
      </trkpt>
      <trkpt lat="42.86957" lon="0.21488">
        <ele>2677.2</ele>
        <time>2022-02-09T11:57:10Z</time>
      </trkpt>
      <trkpt lat="42.86957" lon="0.21488">
        <ele>2677.2</ele>
        <time>2022-02-09T11:57:11Z</time>
      </trkpt>
      <trkpt lat="42.86957" lon="0.21488">
        <ele>2677.2</ele>
        <time>2022-02-09T11:57:12Z</time>
      </trkpt>
      <trkpt lat="42.86957" lon="0.21488">
        <ele>2677.2</ele>
        <time>2022-02-09T11:57:13Z</time>
      </trkpt>
      <trkpt lat="42.86957" lon="0.21488">
        <ele>2677.2</ele>
        <time>2022-02-09T11:57:14Z</time>
      </trkpt>
      <trkpt lat="42.86957" lon="0.21488">
        <ele>2677.2</ele>
        <time>2022-02-09T11:57:15Z</time>
      </trkpt>
      <trkpt lat="42.86957" lon="0.21488">
        <ele>2677.2</ele>
        <time>2022-02-09T11:57:16Z</time>
      </trkpt>
      <trkpt lat="42.86957" lon="0.21488">
        <ele>2677.2</ele>
        <time>2022-02-09T11:57:17Z</time>
      </trkpt>
      <trkpt lat="42.86957" lon="0.21488">
        <ele>2677.2</ele>
        <time>2022-02-09T11:57:18Z</time>
      </trkpt>
      <trkpt lat="42.86957" lon="0.21488">
        <ele>2677.2</ele>
        <time>2022-02-09T11:57:19Z</time>
      </trkpt>
      <trkpt lat="42.86957" lon="0.21488">
        <ele>2677.2</ele>
        <time>2022-02-09T11:57:20Z</time>
      </trkpt>
      <trkpt lat="42.86957" lon="0.21488">
        <ele>2677.2</ele>
        <time>2022-02-09T11:57:21Z</time>
      </trkpt>
      <trkpt lat="42.86957" lon="0.21488">
        <ele>2677.2</ele>
        <time>2022-02-09T11:57:22Z</time>
      </trkpt>
      <trkpt lat="42.86957" lon="0.21488">
        <ele>2677.2</ele>
        <time>2022-02-09T11:57:23Z</time>
      </trkpt>
      <trkpt lat="42.86957" lon="0.21488">
        <ele>2677.2</ele>
        <time>2022-02-09T11:57:24Z</time>
      </trkpt>
      <trkpt lat="42.86957" lon="0.21488">
        <ele>2677.2</ele>
        <time>2022-02-09T11:57:25Z</time>
      </trkpt>
      <trkpt lat="42.86957" lon="0.21488">
        <ele>2677.2</ele>
        <time>2022-02-09T11:57:26Z</time>
      </trkpt>
      <trkpt lat="42.86957" lon="0.21488">
        <ele>2677.2</ele>
        <time>2022-02-09T11:57:27Z</time>
      </trkpt>
      <trkpt lat="42.86957" lon="0.21488">
        <ele>2677.2</ele>
        <time>2022-02-09T11:57:28Z</time>
      </trkpt>
      <trkpt lat="42.86957" lon="0.21488">
        <ele>2677.2</ele>
        <time>2022-02-09T11:57:29Z</time>
      </trkpt>
      <trkpt lat="42.86957" lon="0.21488">
        <ele>2677.2</ele>
        <time>2022-02-09T11:57:30Z</time>
      </trkpt>
      <trkpt lat="42.86957" lon="0.21488">
        <ele>2677.2</ele>
        <time>2022-02-09T11:57:31Z</time>
      </trkpt>
      <trkpt lat="42.86957" lon="0.21488">
        <ele>2677.2</ele>
        <time>2022-02-09T11:57:32Z</time>
      </trkpt>
      <trkpt lat="42.86957" lon="0.21488">
        <ele>2677.2</ele>
        <time>2022-02-09T11:57:33Z</time>
      </trkpt>
      <trkpt lat="42.86957" lon="0.21488">
        <ele>2677.2</ele>
        <time>2022-02-09T11:57:34Z</time>
      </trkpt>
      <trkpt lat="42.86957" lon="0.21488">
        <ele>2677.2</ele>
        <time>2022-02-09T11:57:35Z</time>
      </trkpt>
      <trkpt lat="42.86957" lon="0.21488">
        <ele>2677.2</ele>
        <time>2022-02-09T11:57:36Z</time>
      </trkpt>
      <trkpt lat="42.86957" lon="0.21488">
        <ele>2677.2</ele>
        <time>2022-02-09T11:57:37Z</time>
      </trkpt>
      <trkpt lat="42.86957" lon="0.21488">
        <ele>2677.2</ele>
        <time>2022-02-09T11:57:38Z</time>
      </trkpt>
      <trkpt lat="42.86957" lon="0.21488">
        <ele>2677.2</ele>
        <time>2022-02-09T11:57:39Z</time>
      </trkpt>
      <trkpt lat="42.86957" lon="0.21488">
        <ele>2677.2</ele>
        <time>2022-02-09T11:57:40Z</time>
      </trkpt>
      <trkpt lat="42.86957" lon="0.21488">
        <ele>2677.2</ele>
        <time>2022-02-09T11:57:41Z</time>
      </trkpt>
      <trkpt lat="42.86957" lon="0.21488">
        <ele>2677.2</ele>
        <time>2022-02-09T11:57:42Z</time>
      </trkpt>
      <trkpt lat="42.86957" lon="0.21488">
        <ele>2677.2</ele>
        <time>2022-02-09T11:57:43Z</time>
      </trkpt>
      <trkpt lat="42.86957" lon="0.21488">
        <ele>2677.2</ele>
        <time>2022-02-09T11:57:44Z</time>
      </trkpt>
      <trkpt lat="42.86957" lon="0.21488">
        <ele>2677.2</ele>
        <time>2022-02-09T11:57:45Z</time>
      </trkpt>
      <trkpt lat="42.86957" lon="0.21488">
        <ele>2677.2</ele>
        <time>2022-02-09T11:57:46Z</time>
      </trkpt>
      <trkpt lat="42.86957" lon="0.21488">
        <ele>2677.2</ele>
        <time>2022-02-09T11:57:47Z</time>
      </trkpt>
      <trkpt lat="42.86957" lon="0.21488">
        <ele>2677.2</ele>
        <time>2022-02-09T11:57:48Z</time>
      </trkpt>
      <trkpt lat="42.86957" lon="0.21488">
        <ele>2677.2</ele>
        <time>2022-02-09T11:57:49Z</time>
      </trkpt>
      <trkpt lat="42.86957" lon="0.21488">
        <ele>2677.2</ele>
        <time>2022-02-09T11:57:50Z</time>
      </trkpt>
      <trkpt lat="42.86957" lon="0.21488">
        <ele>2677.2</ele>
        <time>2022-02-09T11:57:51Z</time>
      </trkpt>
      <trkpt lat="42.86957" lon="0.21488">
        <ele>2677.2</ele>
        <time>2022-02-09T11:57:52Z</time>
      </trkpt>
      <trkpt lat="42.86957" lon="0.21488">
        <ele>2677.2</ele>
        <time>2022-02-09T11:57:53Z</time>
      </trkpt>
      <trkpt lat="42.86957" lon="0.21488">
        <ele>2677.2</ele>
        <time>2022-02-09T11:57:54Z</time>
      </trkpt>
      <trkpt lat="42.86957" lon="0.21488">
        <ele>2677.2</ele>
        <time>2022-02-09T11:57:55Z</time>
      </trkpt>
      <trkpt lat="42.86957" lon="0.21488">
        <ele>2677.2</ele>
        <time>2022-02-09T11:57:56Z</time>
      </trkpt>
      <trkpt lat="42.86957" lon="0.21488">
        <ele>2677.2</ele>
        <time>2022-02-09T11:57:57Z</time>
      </trkpt>
      <trkpt lat="42.86957" lon="0.21488">
        <ele>2677.2</ele>
        <time>2022-02-09T11:57:58Z</time>
      </trkpt>
      <trkpt lat="42.86957" lon="0.21488">
        <ele>2677.2</ele>
        <time>2022-02-09T11:57:59Z</time>
      </trkpt>
      <trkpt lat="42.86957" lon="0.21488">
        <ele>2677.2</ele>
        <time>2022-02-09T11:58:00Z</time>
      </trkpt>
      <trkpt lat="42.86957" lon="0.21488">
        <ele>2677.2</ele>
        <time>2022-02-09T11:58:01Z</time>
      </trkpt>
      <trkpt lat="42.86957" lon="0.21488">
        <ele>2677.2</ele>
        <time>2022-02-09T11:58:02Z</time>
      </trkpt>
      <trkpt lat="42.86957" lon="0.21488">
        <ele>2677.2</ele>
        <time>2022-02-09T11:58:03Z</time>
      </trkpt>
      <trkpt lat="42.86957" lon="0.21488">
        <ele>2677.2</ele>
        <time>2022-02-09T11:58:04Z</time>
      </trkpt>
      <trkpt lat="42.86957" lon="0.21488">
        <ele>2677.2</ele>
        <time>2022-02-09T11:58:05Z</time>
      </trkpt>
      <trkpt lat="42.86957" lon="0.21488">
        <ele>2677.2</ele>
        <time>2022-02-09T11:58:06Z</time>
      </trkpt>
      <trkpt lat="42.86957" lon="0.21488">
        <ele>2677.2</ele>
        <time>2022-02-09T11:58:07Z</time>
      </trkpt>
      <trkpt lat="42.86957" lon="0.21488">
        <ele>2677.2</ele>
        <time>2022-02-09T11:58:08Z</time>
      </trkpt>
      <trkpt lat="42.86957" lon="0.21488">
        <ele>2677.2</ele>
        <time>2022-02-09T11:58:09Z</time>
      </trkpt>
      <trkpt lat="42.86957" lon="0.21488">
        <ele>2677.2</ele>
        <time>2022-02-09T11:58:10Z</time>
      </trkpt>
      <trkpt lat="42.86957" lon="0.21488">
        <ele>2677.2</ele>
        <time>2022-02-09T11:58:11Z</time>
      </trkpt>
      <trkpt lat="42.86957" lon="0.21488">
        <ele>2677.2</ele>
        <time>2022-02-09T11:58:12Z</time>
      </trkpt>
      <trkpt lat="42.86957" lon="0.21488">
        <ele>2677.2</ele>
        <time>2022-02-09T11:58:13Z</time>
      </trkpt>
      <trkpt lat="42.86957" lon="0.21488">
        <ele>2677.2</ele>
        <time>2022-02-09T11:58:14Z</time>
      </trkpt>
      <trkpt lat="42.86957" lon="0.21488">
        <ele>2677.2</ele>
        <time>2022-02-09T11:58:15Z</time>
      </trkpt>
      <trkpt lat="42.86957" lon="0.21488">
        <ele>2677.2</ele>
        <time>2022-02-09T11:58:16Z</time>
      </trkpt>
      <trkpt lat="42.86957" lon="0.21488">
        <ele>2677.2</ele>
        <time>2022-02-09T11:58:17Z</time>
      </trkpt>
      <trkpt lat="42.86957" lon="0.21488">
        <ele>2677.2</ele>
        <time>2022-02-09T11:58:18Z</time>
      </trkpt>
      <trkpt lat="42.86957" lon="0.21488">
        <ele>2677.2</ele>
        <time>2022-02-09T11:58:19Z</time>
      </trkpt>
      <trkpt lat="42.86957" lon="0.21488">
        <ele>2677.2</ele>
        <time>2022-02-09T11:58:20Z</time>
      </trkpt>
      <trkpt lat="42.86957" lon="0.21488">
        <ele>2677.2</ele>
        <time>2022-02-09T11:58:21Z</time>
      </trkpt>
      <trkpt lat="42.86957" lon="0.21488">
        <ele>2677.2</ele>
        <time>2022-02-09T11:58:22Z</time>
      </trkpt>
      <trkpt lat="42.86957" lon="0.21488">
        <ele>2677.2</ele>
        <time>2022-02-09T11:58:23Z</time>
      </trkpt>
      <trkpt lat="42.86957" lon="0.21488">
        <ele>2677.2</ele>
        <time>2022-02-09T11:58:24Z</time>
      </trkpt>
      <trkpt lat="42.86957" lon="0.21488">
        <ele>2677.2</ele>
        <time>2022-02-09T11:58:25Z</time>
      </trkpt>
      <trkpt lat="42.86957" lon="0.21488">
        <ele>2677.2</ele>
        <time>2022-02-09T11:58:26Z</time>
      </trkpt>
      <trkpt lat="42.86957" lon="0.21488">
        <ele>2677.2</ele>
        <time>2022-02-09T11:58:27Z</time>
      </trkpt>
      <trkpt lat="42.86957" lon="0.21488">
        <ele>2677.2</ele>
        <time>2022-02-09T11:58:28Z</time>
      </trkpt>
      <trkpt lat="42.86957" lon="0.21488">
        <ele>2677.2</ele>
        <time>2022-02-09T11:58:29Z</time>
      </trkpt>
      <trkpt lat="42.86957" lon="0.21488">
        <ele>2677.2</ele>
        <time>2022-02-09T11:58:30Z</time>
      </trkpt>
      <trkpt lat="42.86957" lon="0.21488">
        <ele>2677.2</ele>
        <time>2022-02-09T11:58:31Z</time>
      </trkpt>
      <trkpt lat="42.86957" lon="0.21488">
        <ele>2677.2</ele>
        <time>2022-02-09T11:58:32Z</time>
      </trkpt>
      <trkpt lat="42.86957" lon="0.21488">
        <ele>2677.2</ele>
        <time>2022-02-09T11:58:33Z</time>
      </trkpt>
      <trkpt lat="42.86957" lon="0.21488">
        <ele>2677.2</ele>
        <time>2022-02-09T11:58:34Z</time>
      </trkpt>
      <trkpt lat="42.86957" lon="0.21488">
        <ele>2677.2</ele>
        <time>2022-02-09T11:58:35Z</time>
      </trkpt>
      <trkpt lat="42.86957" lon="0.21488">
        <ele>2677.2</ele>
        <time>2022-02-09T11:58:36Z</time>
      </trkpt>
      <trkpt lat="42.86957" lon="0.21488">
        <ele>2677.2</ele>
        <time>2022-02-09T11:58:37Z</time>
      </trkpt>
      <trkpt lat="42.86957" lon="0.21488">
        <ele>2677.2</ele>
        <time>2022-02-09T11:58:38Z</time>
      </trkpt>
      <trkpt lat="42.86957" lon="0.21488">
        <ele>2677.2</ele>
        <time>2022-02-09T11:58:39Z</time>
      </trkpt>
      <trkpt lat="42.86957" lon="0.21488">
        <ele>2677.2</ele>
        <time>2022-02-09T11:58:40Z</time>
      </trkpt>
      <trkpt lat="42.86957" lon="0.21488">
        <ele>2677.2</ele>
        <time>2022-02-09T11:58:41Z</time>
      </trkpt>
      <trkpt lat="42.86957" lon="0.21488">
        <ele>2677.2</ele>
        <time>2022-02-09T11:58:42Z</time>
      </trkpt>
      <trkpt lat="42.86957" lon="0.21488">
        <ele>2677.2</ele>
        <time>2022-02-09T11:58:43Z</time>
      </trkpt>
      <trkpt lat="42.86957" lon="0.21488">
        <ele>2677.2</ele>
        <time>2022-02-09T11:58:44Z</time>
      </trkpt>
      <trkpt lat="42.86957" lon="0.21488">
        <ele>2677.2</ele>
        <time>2022-02-09T11:58:45Z</time>
      </trkpt>
      <trkpt lat="42.86957" lon="0.21488">
        <ele>2677.2</ele>
        <time>2022-02-09T11:58:46Z</time>
      </trkpt>
      <trkpt lat="42.86957" lon="0.21488">
        <ele>2677.2</ele>
        <time>2022-02-09T11:58:47Z</time>
      </trkpt>
      <trkpt lat="42.86957" lon="0.21488">
        <ele>2677.2</ele>
        <time>2022-02-09T11:58:48Z</time>
      </trkpt>
      <trkpt lat="42.86957" lon="0.21488">
        <ele>2677.2</ele>
        <time>2022-02-09T11:58:49Z</time>
      </trkpt>
      <trkpt lat="42.86957" lon="0.21488">
        <ele>2677.2</ele>
        <time>2022-02-09T11:58:50Z</time>
      </trkpt>
      <trkpt lat="42.86957" lon="0.21488">
        <ele>2677.2</ele>
        <time>2022-02-09T11:58:51Z</time>
      </trkpt>
      <trkpt lat="42.86957" lon="0.21488">
        <ele>2677.2</ele>
        <time>2022-02-09T11:58:52Z</time>
      </trkpt>
      <trkpt lat="42.86957" lon="0.21488">
        <ele>2677.2</ele>
        <time>2022-02-09T11:58:53Z</time>
      </trkpt>
      <trkpt lat="42.86957" lon="0.21488">
        <ele>2677.2</ele>
        <time>2022-02-09T11:58:54Z</time>
      </trkpt>
      <trkpt lat="42.86957" lon="0.21488">
        <ele>2677.2</ele>
        <time>2022-02-09T11:58:55Z</time>
      </trkpt>
      <trkpt lat="42.86957" lon="0.21488">
        <ele>2677.2</ele>
        <time>2022-02-09T11:58:56Z</time>
      </trkpt>
      <trkpt lat="42.86957" lon="0.21488">
        <ele>2677.2</ele>
        <time>2022-02-09T11:58:57Z</time>
      </trkpt>
      <trkpt lat="42.86957" lon="0.21488">
        <ele>2677.2</ele>
        <time>2022-02-09T11:58:58Z</time>
      </trkpt>
      <trkpt lat="42.86957" lon="0.21488">
        <ele>2677.2</ele>
        <time>2022-02-09T11:58:59Z</time>
      </trkpt>
      <trkpt lat="42.86957" lon="0.21488">
        <ele>2677.2</ele>
        <time>2022-02-09T11:59:00Z</time>
      </trkpt>
      <trkpt lat="42.86957" lon="0.21488">
        <ele>2677.2</ele>
        <time>2022-02-09T11:59:01Z</time>
      </trkpt>
      <trkpt lat="42.86957" lon="0.21488">
        <ele>2677.2</ele>
        <time>2022-02-09T11:59:02Z</time>
      </trkpt>
      <trkpt lat="42.86957" lon="0.21488">
        <ele>2677.2</ele>
        <time>2022-02-09T11:59:03Z</time>
      </trkpt>
      <trkpt lat="42.86957" lon="0.21488">
        <ele>2677.2</ele>
        <time>2022-02-09T11:59:04Z</time>
      </trkpt>
      <trkpt lat="42.86957" lon="0.21488">
        <ele>2677.2</ele>
        <time>2022-02-09T11:59:05Z</time>
      </trkpt>
      <trkpt lat="42.86957" lon="0.21488">
        <ele>2677.2</ele>
        <time>2022-02-09T11:59:06Z</time>
      </trkpt>
      <trkpt lat="42.86957" lon="0.21488">
        <ele>2677.2</ele>
        <time>2022-02-09T11:59:07Z</time>
      </trkpt>
      <trkpt lat="42.86957" lon="0.21488">
        <ele>2677.2</ele>
        <time>2022-02-09T11:59:08Z</time>
      </trkpt>
      <trkpt lat="42.86957" lon="0.21488">
        <ele>2677.2</ele>
        <time>2022-02-09T11:59:09Z</time>
      </trkpt>
      <trkpt lat="42.86957" lon="0.21488">
        <ele>2677.2</ele>
        <time>2022-02-09T11:59:10Z</time>
      </trkpt>
      <trkpt lat="42.86957" lon="0.21488">
        <ele>2677.2</ele>
        <time>2022-02-09T11:59:11Z</time>
      </trkpt>
      <trkpt lat="42.86957" lon="0.21488">
        <ele>2677.2</ele>
        <time>2022-02-09T11:59:12Z</time>
      </trkpt>
      <trkpt lat="42.86957" lon="0.21488">
        <ele>2677.2</ele>
        <time>2022-02-09T11:59:13Z</time>
      </trkpt>
      <trkpt lat="42.86957" lon="0.21488">
        <ele>2677.2</ele>
        <time>2022-02-09T11:59:14Z</time>
      </trkpt>
      <trkpt lat="42.86957" lon="0.21488">
        <ele>2677.2</ele>
        <time>2022-02-09T11:59:15Z</time>
      </trkpt>
      <trkpt lat="42.86957" lon="0.21488">
        <ele>2677.2</ele>
        <time>2022-02-09T11:59:16Z</time>
      </trkpt>
      <trkpt lat="42.86957" lon="0.21488">
        <ele>2677.2</ele>
        <time>2022-02-09T11:59:17Z</time>
      </trkpt>
      <trkpt lat="42.86957" lon="0.21488">
        <ele>2677.2</ele>
        <time>2022-02-09T11:59:18Z</time>
      </trkpt>
      <trkpt lat="42.86957" lon="0.21488">
        <ele>2677.2</ele>
        <time>2022-02-09T11:59:19Z</time>
      </trkpt>
      <trkpt lat="42.86957" lon="0.21488">
        <ele>2677.2</ele>
        <time>2022-02-09T11:59:20Z</time>
      </trkpt>
      <trkpt lat="42.86957" lon="0.21488">
        <ele>2677.2</ele>
        <time>2022-02-09T11:59:21Z</time>
      </trkpt>
      <trkpt lat="42.86957" lon="0.21488">
        <ele>2677.2</ele>
        <time>2022-02-09T11:59:22Z</time>
      </trkpt>
      <trkpt lat="42.86957" lon="0.21488">
        <ele>2677.2</ele>
        <time>2022-02-09T11:59:23Z</time>
      </trkpt>
      <trkpt lat="42.86957" lon="0.21488">
        <ele>2677.2</ele>
        <time>2022-02-09T11:59:24Z</time>
      </trkpt>
      <trkpt lat="42.86957" lon="0.21488">
        <ele>2677.2</ele>
        <time>2022-02-09T11:59:25Z</time>
      </trkpt>
      <trkpt lat="42.86957" lon="0.21488">
        <ele>2677.2</ele>
        <time>2022-02-09T11:59:26Z</time>
      </trkpt>
      <trkpt lat="42.86957" lon="0.21488">
        <ele>2677.2</ele>
        <time>2022-02-09T11:59:27Z</time>
      </trkpt>
      <trkpt lat="42.86957" lon="0.21488">
        <ele>2677.2</ele>
        <time>2022-02-09T11:59:28Z</time>
      </trkpt>
      <trkpt lat="42.86957" lon="0.21488">
        <ele>2677.2</ele>
        <time>2022-02-09T11:59:29Z</time>
      </trkpt>
      <trkpt lat="42.86957" lon="0.21488">
        <ele>2677.2</ele>
        <time>2022-02-09T11:59:30Z</time>
      </trkpt>
      <trkpt lat="42.86957" lon="0.21488">
        <ele>2677.2</ele>
        <time>2022-02-09T11:59:31Z</time>
      </trkpt>
      <trkpt lat="42.86957" lon="0.21488">
        <ele>2677.2</ele>
        <time>2022-02-09T11:59:32Z</time>
      </trkpt>
      <trkpt lat="42.86957" lon="0.21488">
        <ele>2677.2</ele>
        <time>2022-02-09T11:59:33Z</time>
      </trkpt>
      <trkpt lat="42.86957" lon="0.21488">
        <ele>2677.2</ele>
        <time>2022-02-09T11:59:34Z</time>
      </trkpt>
      <trkpt lat="42.86957" lon="0.21488">
        <ele>2677.2</ele>
        <time>2022-02-09T11:59:35Z</time>
      </trkpt>
      <trkpt lat="42.86957" lon="0.21488">
        <ele>2677.2</ele>
        <time>2022-02-09T11:59:36Z</time>
      </trkpt>
      <trkpt lat="42.86957" lon="0.21488">
        <ele>2677.2</ele>
        <time>2022-02-09T11:59:37Z</time>
      </trkpt>
      <trkpt lat="42.86957" lon="0.21488">
        <ele>2677.2</ele>
        <time>2022-02-09T11:59:38Z</time>
      </trkpt>
      <trkpt lat="42.86957" lon="0.21488">
        <ele>2677.2</ele>
        <time>2022-02-09T11:59:39Z</time>
      </trkpt>
      <trkpt lat="42.86957" lon="0.21488">
        <ele>2677.2</ele>
        <time>2022-02-09T11:59:40Z</time>
      </trkpt>
      <trkpt lat="42.86957" lon="0.21488">
        <ele>2677.2</ele>
        <time>2022-02-09T11:59:41Z</time>
      </trkpt>
      <trkpt lat="42.86957" lon="0.21488">
        <ele>2677.2</ele>
        <time>2022-02-09T11:59:42Z</time>
      </trkpt>
      <trkpt lat="42.86957" lon="0.21488">
        <ele>2677.2</ele>
        <time>2022-02-09T11:59:43Z</time>
      </trkpt>
      <trkpt lat="42.86957" lon="0.21488">
        <ele>2677.2</ele>
        <time>2022-02-09T11:59:44Z</time>
      </trkpt>
      <trkpt lat="42.86957" lon="0.21488">
        <ele>2677.2</ele>
        <time>2022-02-09T11:59:45Z</time>
      </trkpt>
      <trkpt lat="42.86957" lon="0.21488">
        <ele>2677.2</ele>
        <time>2022-02-09T11:59:46Z</time>
      </trkpt>
      <trkpt lat="42.86957" lon="0.21488">
        <ele>2677.2</ele>
        <time>2022-02-09T11:59:47Z</time>
      </trkpt>
      <trkpt lat="42.86957" lon="0.21488">
        <ele>2677.2</ele>
        <time>2022-02-09T11:59:48Z</time>
      </trkpt>
      <trkpt lat="42.86957" lon="0.21488">
        <ele>2677.2</ele>
        <time>2022-02-09T11:59:49Z</time>
      </trkpt>
      <trkpt lat="42.86957" lon="0.21488">
        <ele>2677.2</ele>
        <time>2022-02-09T11:59:50Z</time>
      </trkpt>
      <trkpt lat="42.86957" lon="0.21488">
        <ele>2677.2</ele>
        <time>2022-02-09T11:59:51Z</time>
      </trkpt>
      <trkpt lat="42.86957" lon="0.21488">
        <ele>2677.2</ele>
        <time>2022-02-09T11:59:52Z</time>
      </trkpt>
      <trkpt lat="42.86957" lon="0.21488">
        <ele>2677.2</ele>
        <time>2022-02-09T11:59:53Z</time>
      </trkpt>
      <trkpt lat="42.86957" lon="0.21488">
        <ele>2677.2</ele>
        <time>2022-02-09T11:59:54Z</time>
      </trkpt>
      <trkpt lat="42.86957" lon="0.21488">
        <ele>2677.2</ele>
        <time>2022-02-09T11:59:55Z</time>
      </trkpt>
      <trkpt lat="42.86957" lon="0.21488">
        <ele>2677.2</ele>
        <time>2022-02-09T11:59:56Z</time>
      </trkpt>
      <trkpt lat="42.86957" lon="0.21488">
        <ele>2677.2</ele>
        <time>2022-02-09T11:59:57Z</time>
      </trkpt>
      <trkpt lat="42.86957" lon="0.21488">
        <ele>2677.2</ele>
        <time>2022-02-09T11:59:58Z</time>
      </trkpt>
      <trkpt lat="42.86957" lon="0.21488">
        <ele>2677.2</ele>
        <time>2022-02-09T11:59:59Z</time>
      </trkpt>
      <trkpt lat="42.86957" lon="0.21488">
        <ele>2677.2</ele>
        <time>2022-02-09T12:00:00Z</time>
      </trkpt>
      <trkpt lat="42.86957" lon="0.21488">
        <ele>2677.2</ele>
        <time>2022-02-09T12:00:01Z</time>
      </trkpt>
      <trkpt lat="42.86957" lon="0.21488">
        <ele>2677.2</ele>
        <time>2022-02-09T12:00:02Z</time>
      </trkpt>
      <trkpt lat="42.86957" lon="0.21488">
        <ele>2677.2</ele>
        <time>2022-02-09T12:00:03Z</time>
      </trkpt>
      <trkpt lat="42.86957" lon="0.21488">
        <ele>2677.2</ele>
        <time>2022-02-09T12:00:04Z</time>
      </trkpt>
      <trkpt lat="42.86957" lon="0.21488">
        <ele>2677.2</ele>
        <time>2022-02-09T12:00:05Z</time>
      </trkpt>
      <trkpt lat="42.86957" lon="0.21488">
        <ele>2677.2</ele>
        <time>2022-02-09T12:00:06Z</time>
      </trkpt>
      <trkpt lat="42.86957" lon="0.21488">
        <ele>2677.2</ele>
        <time>2022-02-09T12:00:07Z</time>
      </trkpt>
      <trkpt lat="42.86957" lon="0.21488">
        <ele>2677.2</ele>
        <time>2022-02-09T12:00:08Z</time>
      </trkpt>
      <trkpt lat="42.86957" lon="0.21488">
        <ele>2677.2</ele>
        <time>2022-02-09T12:00:09Z</time>
      </trkpt>
      <trkpt lat="42.86957" lon="0.21488">
        <ele>2677.2</ele>
        <time>2022-02-09T12:00:10Z</time>
      </trkpt>
      <trkpt lat="42.86957" lon="0.21488">
        <ele>2677.2</ele>
        <time>2022-02-09T12:00:11Z</time>
      </trkpt>
      <trkpt lat="42.86957" lon="0.21488">
        <ele>2677.2</ele>
        <time>2022-02-09T12:00:12Z</time>
      </trkpt>
      <trkpt lat="42.86957" lon="0.21488">
        <ele>2677.2</ele>
        <time>2022-02-09T12:00:13Z</time>
      </trkpt>
      <trkpt lat="42.86957" lon="0.21488">
        <ele>2677.2</ele>
        <time>2022-02-09T12:00:14Z</time>
      </trkpt>
      <trkpt lat="42.86957" lon="0.21488">
        <ele>2677.2</ele>
        <time>2022-02-09T12:00:15Z</time>
      </trkpt>
      <trkpt lat="42.86957" lon="0.21488">
        <ele>2677.2</ele>
        <time>2022-02-09T12:00:16Z</time>
      </trkpt>
      <trkpt lat="42.86957" lon="0.21488">
        <ele>2677.2</ele>
        <time>2022-02-09T12:00:17Z</time>
      </trkpt>
      <trkpt lat="42.86957" lon="0.21488">
        <ele>2677.2</ele>
        <time>2022-02-09T12:00:18Z</time>
      </trkpt>
      <trkpt lat="42.86957" lon="0.21488">
        <ele>2677.2</ele>
        <time>2022-02-09T12:00:19Z</time>
      </trkpt>
      <trkpt lat="42.86957" lon="0.21488">
        <ele>2677.2</ele>
        <time>2022-02-09T12:00:20Z</time>
      </trkpt>
      <trkpt lat="42.86957" lon="0.21488">
        <ele>2677.2</ele>
        <time>2022-02-09T12:00:21Z</time>
      </trkpt>
      <trkpt lat="42.86957" lon="0.21488">
        <ele>2677.2</ele>
        <time>2022-02-09T12:00:22Z</time>
      </trkpt>
      <trkpt lat="42.86957" lon="0.21488">
        <ele>2677.2</ele>
        <time>2022-02-09T12:00:23Z</time>
      </trkpt>
      <trkpt lat="42.86957" lon="0.21488">
        <ele>2677.2</ele>
        <time>2022-02-09T12:00:24Z</time>
      </trkpt>
      <trkpt lat="42.86957" lon="0.21488">
        <ele>2677.2</ele>
        <time>2022-02-09T12:00:25Z</time>
      </trkpt>
      <trkpt lat="42.86957" lon="0.21488">
        <ele>2677.2</ele>
        <time>2022-02-09T12:00:26Z</time>
      </trkpt>
      <trkpt lat="42.86957" lon="0.21488">
        <ele>2677.2</ele>
        <time>2022-02-09T12:00:27Z</time>
      </trkpt>
      <trkpt lat="42.86957" lon="0.21488">
        <ele>2677.2</ele>
        <time>2022-02-09T12:00:28Z</time>
      </trkpt>
      <trkpt lat="42.86957" lon="0.21488">
        <ele>2677.2</ele>
        <time>2022-02-09T12:00:29Z</time>
      </trkpt>
      <trkpt lat="42.86957" lon="0.21488">
        <ele>2677.2</ele>
        <time>2022-02-09T12:00:30Z</time>
      </trkpt>
      <trkpt lat="42.86957" lon="0.21488">
        <ele>2677.2</ele>
        <time>2022-02-09T12:00:31Z</time>
      </trkpt>
      <trkpt lat="42.86957" lon="0.21488">
        <ele>2677.2</ele>
        <time>2022-02-09T12:00:32Z</time>
      </trkpt>
      <trkpt lat="42.86957" lon="0.21488">
        <ele>2677.2</ele>
        <time>2022-02-09T12:00:33Z</time>
      </trkpt>
      <trkpt lat="42.86957" lon="0.21488">
        <ele>2677.2</ele>
        <time>2022-02-09T12:00:34Z</time>
      </trkpt>
      <trkpt lat="42.86957" lon="0.21488">
        <ele>2677.2</ele>
        <time>2022-02-09T12:00:35Z</time>
      </trkpt>
      <trkpt lat="42.86957" lon="0.21488">
        <ele>2677.2</ele>
        <time>2022-02-09T12:00:36Z</time>
      </trkpt>
      <trkpt lat="42.86957" lon="0.21488">
        <ele>2677.2</ele>
        <time>2022-02-09T12:00:37Z</time>
      </trkpt>
      <trkpt lat="42.86957" lon="0.21488">
        <ele>2677.2</ele>
        <time>2022-02-09T12:00:38Z</time>
      </trkpt>
      <trkpt lat="42.86957" lon="0.21488">
        <ele>2677.2</ele>
        <time>2022-02-09T12:00:39Z</time>
      </trkpt>
      <trkpt lat="42.86957" lon="0.21488">
        <ele>2677.2</ele>
        <time>2022-02-09T12:00:40Z</time>
      </trkpt>
      <trkpt lat="42.86957" lon="0.21488">
        <ele>2677.2</ele>
        <time>2022-02-09T12:00:41Z</time>
      </trkpt>
      <trkpt lat="42.86957" lon="0.21488">
        <ele>2677.2</ele>
        <time>2022-02-09T12:00:42Z</time>
      </trkpt>
      <trkpt lat="42.86957" lon="0.21488">
        <ele>2677.2</ele>
        <time>2022-02-09T12:00:43Z</time>
      </trkpt>
      <trkpt lat="42.86957" lon="0.21488">
        <ele>2677.2</ele>
        <time>2022-02-09T12:00:44Z</time>
      </trkpt>
      <trkpt lat="42.86957" lon="0.21488">
        <ele>2677.2</ele>
        <time>2022-02-09T12:00:45Z</time>
      </trkpt>
      <trkpt lat="42.86957" lon="0.21488">
        <ele>2677.2</ele>
        <time>2022-02-09T12:00:46Z</time>
      </trkpt>
      <trkpt lat="42.86957" lon="0.21488">
        <ele>2677.2</ele>
        <time>2022-02-09T12:00:47Z</time>
      </trkpt>
      <trkpt lat="42.86957" lon="0.21488">
        <ele>2677.2</ele>
        <time>2022-02-09T12:00:48Z</time>
      </trkpt>
      <trkpt lat="42.86957" lon="0.21488">
        <ele>2677.2</ele>
        <time>2022-02-09T12:00:49Z</time>
      </trkpt>
      <trkpt lat="42.86957" lon="0.21488">
        <ele>2677.2</ele>
        <time>2022-02-09T12:00:50Z</time>
      </trkpt>
      <trkpt lat="42.86957" lon="0.21488">
        <ele>2677.2</ele>
        <time>2022-02-09T12:00:51Z</time>
      </trkpt>
      <trkpt lat="42.86957" lon="0.21488">
        <ele>2677.2</ele>
        <time>2022-02-09T12:00:52Z</time>
      </trkpt>
      <trkpt lat="42.86957" lon="0.21488">
        <ele>2677.2</ele>
        <time>2022-02-09T12:00:53Z</time>
      </trkpt>
      <trkpt lat="42.86957" lon="0.21488">
        <ele>2677.2</ele>
        <time>2022-02-09T12:00:54Z</time>
      </trkpt>
      <trkpt lat="42.86957" lon="0.21488">
        <ele>2677.2</ele>
        <time>2022-02-09T12:00:55Z</time>
      </trkpt>
      <trkpt lat="42.86957" lon="0.21488">
        <ele>2677.2</ele>
        <time>2022-02-09T12:00:56Z</time>
      </trkpt>
      <trkpt lat="42.86957" lon="0.21488">
        <ele>2677.2</ele>
        <time>2022-02-09T12:00:57Z</time>
      </trkpt>
      <trkpt lat="42.86957" lon="0.21488">
        <ele>2677.2</ele>
        <time>2022-02-09T12:00:58Z</time>
      </trkpt>
      <trkpt lat="42.86957" lon="0.21488">
        <ele>2677.2</ele>
        <time>2022-02-09T12:00:59Z</time>
      </trkpt>
      <trkpt lat="42.86957" lon="0.21488">
        <ele>2677.2</ele>
        <time>2022-02-09T12:01:00Z</time>
      </trkpt>
      <trkpt lat="42.86957" lon="0.21488">
        <ele>2677.2</ele>
        <time>2022-02-09T12:01:01Z</time>
      </trkpt>
      <trkpt lat="42.86957" lon="0.21488">
        <ele>2677.2</ele>
        <time>2022-02-09T12:01:02Z</time>
      </trkpt>
      <trkpt lat="42.86957" lon="0.21488">
        <ele>2677.2</ele>
        <time>2022-02-09T12:01:03Z</time>
      </trkpt>
      <trkpt lat="42.86957" lon="0.21488">
        <ele>2677.2</ele>
        <time>2022-02-09T12:01:04Z</time>
      </trkpt>
      <trkpt lat="42.86957" lon="0.21488">
        <ele>2677.2</ele>
        <time>2022-02-09T12:01:05Z</time>
      </trkpt>
      <trkpt lat="42.86957" lon="0.21488">
        <ele>2677.2</ele>
        <time>2022-02-09T12:01:06Z</time>
      </trkpt>
      <trkpt lat="42.86957" lon="0.21488">
        <ele>2677.2</ele>
        <time>2022-02-09T12:01:07Z</time>
      </trkpt>
      <trkpt lat="42.86957" lon="0.21488">
        <ele>2677.2</ele>
        <time>2022-02-09T12:01:08Z</time>
      </trkpt>
      <trkpt lat="42.86957" lon="0.21488">
        <ele>2677.2</ele>
        <time>2022-02-09T12:01:09Z</time>
      </trkpt>
      <trkpt lat="42.86957" lon="0.21488">
        <ele>2677.2</ele>
        <time>2022-02-09T12:01:10Z</time>
      </trkpt>
      <trkpt lat="42.86957" lon="0.21488">
        <ele>2677.2</ele>
        <time>2022-02-09T12:01:11Z</time>
      </trkpt>
      <trkpt lat="42.86957" lon="0.21488">
        <ele>2677.2</ele>
        <time>2022-02-09T12:01:12Z</time>
      </trkpt>
      <trkpt lat="42.86957" lon="0.21488">
        <ele>2677.2</ele>
        <time>2022-02-09T12:01:13Z</time>
      </trkpt>
      <trkpt lat="42.86957" lon="0.21488">
        <ele>2677.2</ele>
        <time>2022-02-09T12:01:14Z</time>
      </trkpt>
      <trkpt lat="42.86957" lon="0.21488">
        <ele>2677.2</ele>
        <time>2022-02-09T12:01:15Z</time>
      </trkpt>
      <trkpt lat="42.86957" lon="0.21488">
        <ele>2677.2</ele>
        <time>2022-02-09T12:01:16Z</time>
      </trkpt>
      <trkpt lat="42.86957" lon="0.21488">
        <ele>2677.2</ele>
        <time>2022-02-09T12:01:17Z</time>
      </trkpt>
      <trkpt lat="42.86957" lon="0.21488">
        <ele>2677.2</ele>
        <time>2022-02-09T12:01:18Z</time>
      </trkpt>
      <trkpt lat="42.86957" lon="0.21488">
        <ele>2677.2</ele>
        <time>2022-02-09T12:01:19Z</time>
      </trkpt>
      <trkpt lat="42.86957" lon="0.21488">
        <ele>2677.2</ele>
        <time>2022-02-09T12:01:20Z</time>
      </trkpt>
      <trkpt lat="42.86957" lon="0.21488">
        <ele>2677.2</ele>
        <time>2022-02-09T12:01:21Z</time>
      </trkpt>
      <trkpt lat="42.86957" lon="0.21488">
        <ele>2677.2</ele>
        <time>2022-02-09T12:01:22Z</time>
      </trkpt>
      <trkpt lat="42.86957" lon="0.21488">
        <ele>2677.2</ele>
        <time>2022-02-09T12:01:23Z</time>
      </trkpt>
      <trkpt lat="42.86957" lon="0.21488">
        <ele>2677.2</ele>
        <time>2022-02-09T12:01:24Z</time>
      </trkpt>
      <trkpt lat="42.86957" lon="0.21488">
        <ele>2677.2</ele>
        <time>2022-02-09T12:01:25Z</time>
      </trkpt>
      <trkpt lat="42.86957" lon="0.21488">
        <ele>2677.2</ele>
        <time>2022-02-09T12:01:26Z</time>
      </trkpt>
      <trkpt lat="42.86957" lon="0.21488">
        <ele>2677.2</ele>
        <time>2022-02-09T12:01:27Z</time>
      </trkpt>
      <trkpt lat="42.86957" lon="0.21488">
        <ele>2677.2</ele>
        <time>2022-02-09T12:01:28Z</time>
      </trkpt>
      <trkpt lat="42.86957" lon="0.21488">
        <ele>2677.2</ele>
        <time>2022-02-09T12:01:29Z</time>
      </trkpt>
      <trkpt lat="42.86957" lon="0.21488">
        <ele>2677.2</ele>
        <time>2022-02-09T12:01:30Z</time>
      </trkpt>
      <trkpt lat="42.86957" lon="0.21488">
        <ele>2677.2</ele>
        <time>2022-02-09T12:01:31Z</time>
      </trkpt>
      <trkpt lat="42.86957" lon="0.21488">
        <ele>2677.2</ele>
        <time>2022-02-09T12:01:32Z</time>
      </trkpt>
      <trkpt lat="42.86957" lon="0.21488">
        <ele>2677.2</ele>
        <time>2022-02-09T12:01:33Z</time>
      </trkpt>
      <trkpt lat="42.86957" lon="0.21488">
        <ele>2677.2</ele>
        <time>2022-02-09T12:01:34Z</time>
      </trkpt>
      <trkpt lat="42.86957" lon="0.21488">
        <ele>2677.2</ele>
        <time>2022-02-09T12:01:35Z</time>
      </trkpt>
      <trkpt lat="42.86957" lon="0.21488">
        <ele>2677.2</ele>
        <time>2022-02-09T12:01:36Z</time>
      </trkpt>
      <trkpt lat="42.86957" lon="0.21488">
        <ele>2677.2</ele>
        <time>2022-02-09T12:01:37Z</time>
      </trkpt>
      <trkpt lat="42.86957" lon="0.21488">
        <ele>2677.2</ele>
        <time>2022-02-09T12:01:38Z</time>
      </trkpt>
      <trkpt lat="42.86957" lon="0.21488">
        <ele>2677.2</ele>
        <time>2022-02-09T12:01:39Z</time>
      </trkpt>
      <trkpt lat="42.86957" lon="0.21488">
        <ele>2677.2</ele>
        <time>2022-02-09T12:01:40Z</time>
      </trkpt>
      <trkpt lat="42.86957" lon="0.21488">
        <ele>2677.2</ele>
        <time>2022-02-09T12:01:41Z</time>
      </trkpt>
      <trkpt lat="42.86957" lon="0.21488">
        <ele>2677.2</ele>
        <time>2022-02-09T12:01:42Z</time>
      </trkpt>
      <trkpt lat="42.86957" lon="0.21488">
        <ele>2677.2</ele>
        <time>2022-02-09T12:01:43Z</time>
      </trkpt>
      <trkpt lat="42.86957" lon="0.21488">
        <ele>2677.2</ele>
        <time>2022-02-09T12:01:44Z</time>
      </trkpt>
      <trkpt lat="42.86957" lon="0.21488">
        <ele>2677.2</ele>
        <time>2022-02-09T12:01:45Z</time>
      </trkpt>
      <trkpt lat="42.86957" lon="0.21488">
        <ele>2677.2</ele>
        <time>2022-02-09T12:01:46Z</time>
      </trkpt>
      <trkpt lat="42.86957" lon="0.21488">
        <ele>2677.2</ele>
        <time>2022-02-09T12:01:47Z</time>
      </trkpt>
      <trkpt lat="42.86957" lon="0.21488">
        <ele>2677.2</ele>
        <time>2022-02-09T12:01:48Z</time>
      </trkpt>
      <trkpt lat="42.86957" lon="0.21488">
        <ele>2677.2</ele>
        <time>2022-02-09T12:01:49Z</time>
      </trkpt>
      <trkpt lat="42.86957" lon="0.21488">
        <ele>2677.2</ele>
        <time>2022-02-09T12:01:50Z</time>
      </trkpt>
      <trkpt lat="42.86957" lon="0.21488">
        <ele>2677.2</ele>
        <time>2022-02-09T12:01:51Z</time>
      </trkpt>
      <trkpt lat="42.86957" lon="0.21488">
        <ele>2677.2</ele>
        <time>2022-02-09T12:01:52Z</time>
      </trkpt>
      <trkpt lat="42.86957" lon="0.21488">
        <ele>2677.2</ele>
        <time>2022-02-09T12:01:53Z</time>
      </trkpt>
      <trkpt lat="42.86957" lon="0.21488">
        <ele>2677.2</ele>
        <time>2022-02-09T12:01:54Z</time>
      </trkpt>
      <trkpt lat="42.86957" lon="0.21488">
        <ele>2677.2</ele>
        <time>2022-02-09T12:01:55Z</time>
      </trkpt>
      <trkpt lat="42.86957" lon="0.21488">
        <ele>2677.2</ele>
        <time>2022-02-09T12:01:56Z</time>
      </trkpt>
      <trkpt lat="42.86957" lon="0.21488">
        <ele>2677.2</ele>
        <time>2022-02-09T12:01:57Z</time>
      </trkpt>
      <trkpt lat="42.86957" lon="0.21488">
        <ele>2677.2</ele>
        <time>2022-02-09T12:01:58Z</time>
      </trkpt>
      <trkpt lat="42.86957" lon="0.21488">
        <ele>2677.2</ele>
        <time>2022-02-09T12:01:59Z</time>
      </trkpt>
      <trkpt lat="42.86957" lon="0.21488">
        <ele>2677.2</ele>
        <time>2022-02-09T12:02:00Z</time>
      </trkpt>
      <trkpt lat="42.86957" lon="0.21488">
        <ele>2677.2</ele>
        <time>2022-02-09T12:02:01Z</time>
      </trkpt>
      <trkpt lat="42.86957" lon="0.21488">
        <ele>2677.2</ele>
        <time>2022-02-09T12:02:02Z</time>
      </trkpt>
      <trkpt lat="42.86957" lon="0.21488">
        <ele>2677.2</ele>
        <time>2022-02-09T12:02:03Z</time>
      </trkpt>
      <trkpt lat="42.86957" lon="0.21488">
        <ele>2677.2</ele>
        <time>2022-02-09T12:02:04Z</time>
      </trkpt>
      <trkpt lat="42.86957" lon="0.21488">
        <ele>2677.2</ele>
        <time>2022-02-09T12:02:05Z</time>
      </trkpt>
      <trkpt lat="42.86957" lon="0.21488">
        <ele>2677.2</ele>
        <time>2022-02-09T12:02:06Z</time>
      </trkpt>
      <trkpt lat="42.86957" lon="0.21488">
        <ele>2677.2</ele>
        <time>2022-02-09T12:02:07Z</time>
      </trkpt>
      <trkpt lat="42.86957" lon="0.21488">
        <ele>2677.2</ele>
        <time>2022-02-09T12:02:08Z</time>
      </trkpt>
      <trkpt lat="42.86957" lon="0.21488">
        <ele>2677.2</ele>
        <time>2022-02-09T12:02:09Z</time>
      </trkpt>
      <trkpt lat="42.86957" lon="0.21488">
        <ele>2677.2</ele>
        <time>2022-02-09T12:02:10Z</time>
      </trkpt>
      <trkpt lat="42.86957" lon="0.21488">
        <ele>2677.2</ele>
        <time>2022-02-09T12:02:11Z</time>
      </trkpt>
      <trkpt lat="42.86957" lon="0.21488">
        <ele>2677.2</ele>
        <time>2022-02-09T12:02:12Z</time>
      </trkpt>
      <trkpt lat="42.86957" lon="0.21488">
        <ele>2677.2</ele>
        <time>2022-02-09T12:02:13Z</time>
      </trkpt>
      <trkpt lat="42.86957" lon="0.21488">
        <ele>2677.2</ele>
        <time>2022-02-09T12:02:14Z</time>
      </trkpt>
      <trkpt lat="42.86957" lon="0.21488">
        <ele>2677.2</ele>
        <time>2022-02-09T12:02:15Z</time>
      </trkpt>
      <trkpt lat="42.86957" lon="0.21488">
        <ele>2677.2</ele>
        <time>2022-02-09T12:02:16Z</time>
      </trkpt>
      <trkpt lat="42.86957" lon="0.21488">
        <ele>2677.2</ele>
        <time>2022-02-09T12:02:17Z</time>
      </trkpt>
      <trkpt lat="42.86957" lon="0.21488">
        <ele>2677.2</ele>
        <time>2022-02-09T12:02:18Z</time>
      </trkpt>
      <trkpt lat="42.86957" lon="0.21488">
        <ele>2677.2</ele>
        <time>2022-02-09T12:02:19Z</time>
      </trkpt>
      <trkpt lat="42.86957" lon="0.21488">
        <ele>2677.2</ele>
        <time>2022-02-09T12:02:20Z</time>
      </trkpt>
      <trkpt lat="42.86957" lon="0.21488">
        <ele>2677.2</ele>
        <time>2022-02-09T12:02:21Z</time>
      </trkpt>
      <trkpt lat="42.86957" lon="0.21488">
        <ele>2677.2</ele>
        <time>2022-02-09T12:02:22Z</time>
      </trkpt>
      <trkpt lat="42.86957" lon="0.21488">
        <ele>2677.2</ele>
        <time>2022-02-09T12:02:23Z</time>
      </trkpt>
      <trkpt lat="42.86957" lon="0.21488">
        <ele>2677.2</ele>
        <time>2022-02-09T12:02:24Z</time>
      </trkpt>
      <trkpt lat="42.86957" lon="0.21488">
        <ele>2677.2</ele>
        <time>2022-02-09T12:02:25Z</time>
      </trkpt>
      <trkpt lat="42.86957" lon="0.21488">
        <ele>2677.2</ele>
        <time>2022-02-09T12:02:26Z</time>
      </trkpt>
      <trkpt lat="42.86957" lon="0.21488">
        <ele>2677.2</ele>
        <time>2022-02-09T12:02:27Z</time>
      </trkpt>
      <trkpt lat="42.86957" lon="0.21488">
        <ele>2677.2</ele>
        <time>2022-02-09T12:02:28Z</time>
      </trkpt>
      <trkpt lat="42.86957" lon="0.21488">
        <ele>2677.2</ele>
        <time>2022-02-09T12:02:29Z</time>
      </trkpt>
      <trkpt lat="42.86957" lon="0.21488">
        <ele>2677.2</ele>
        <time>2022-02-09T12:02:30Z</time>
      </trkpt>
      <trkpt lat="42.86957" lon="0.21488">
        <ele>2677.2</ele>
        <time>2022-02-09T12:02:31Z</time>
      </trkpt>
      <trkpt lat="42.86957" lon="0.21488">
        <ele>2677.2</ele>
        <time>2022-02-09T12:02:32Z</time>
      </trkpt>
      <trkpt lat="42.86957" lon="0.21488">
        <ele>2677.2</ele>
        <time>2022-02-09T12:02:33Z</time>
      </trkpt>
      <trkpt lat="42.86957" lon="0.21488">
        <ele>2677.2</ele>
        <time>2022-02-09T12:02:34Z</time>
      </trkpt>
      <trkpt lat="42.86957" lon="0.21488">
        <ele>2677.2</ele>
        <time>2022-02-09T12:02:35Z</time>
      </trkpt>
      <trkpt lat="42.86957" lon="0.21488">
        <ele>2677.2</ele>
        <time>2022-02-09T12:02:36Z</time>
      </trkpt>
      <trkpt lat="42.86957" lon="0.21488">
        <ele>2677.2</ele>
        <time>2022-02-09T12:02:37Z</time>
      </trkpt>
      <trkpt lat="42.86957" lon="0.21488">
        <ele>2677.2</ele>
        <time>2022-02-09T12:02:38Z</time>
      </trkpt>
      <trkpt lat="42.86957" lon="0.21488">
        <ele>2677.2</ele>
        <time>2022-02-09T12:02:39Z</time>
      </trkpt>
      <trkpt lat="42.86957" lon="0.21488">
        <ele>2677.2</ele>
        <time>2022-02-09T12:02:40Z</time>
      </trkpt>
      <trkpt lat="42.86957" lon="0.21488">
        <ele>2677.2</ele>
        <time>2022-02-09T12:02:41Z</time>
      </trkpt>
      <trkpt lat="42.86957" lon="0.21488">
        <ele>2677.2</ele>
        <time>2022-02-09T12:02:42Z</time>
      </trkpt>
      <trkpt lat="42.86957" lon="0.21488">
        <ele>2677.2</ele>
        <time>2022-02-09T12:02:43Z</time>
      </trkpt>
      <trkpt lat="42.86957" lon="0.21488">
        <ele>2677.2</ele>
        <time>2022-02-09T12:02:44Z</time>
      </trkpt>
      <trkpt lat="42.86957" lon="0.21488">
        <ele>2677.2</ele>
        <time>2022-02-09T12:02:45Z</time>
      </trkpt>
      <trkpt lat="42.86957" lon="0.21488">
        <ele>2677.2</ele>
        <time>2022-02-09T12:02:46Z</time>
      </trkpt>
      <trkpt lat="42.86957" lon="0.21488">
        <ele>2677.2</ele>
        <time>2022-02-09T12:02:47Z</time>
      </trkpt>
      <trkpt lat="42.86957" lon="0.21488">
        <ele>2677.2</ele>
        <time>2022-02-09T12:02:48Z</time>
      </trkpt>
      <trkpt lat="42.86957" lon="0.21488">
        <ele>2677.2</ele>
        <time>2022-02-09T12:02:49Z</time>
      </trkpt>
      <trkpt lat="42.86957" lon="0.21488">
        <ele>2677.2</ele>
        <time>2022-02-09T12:02:50Z</time>
      </trkpt>
      <trkpt lat="42.86957" lon="0.21488">
        <ele>2677.2</ele>
        <time>2022-02-09T12:02:51Z</time>
      </trkpt>
      <trkpt lat="42.86957" lon="0.21488">
        <ele>2677.2</ele>
        <time>2022-02-09T12:02:52Z</time>
      </trkpt>
      <trkpt lat="42.86957" lon="0.21488">
        <ele>2677.2</ele>
        <time>2022-02-09T12:02:53Z</time>
      </trkpt>
      <trkpt lat="42.86957" lon="0.21488">
        <ele>2677.2</ele>
        <time>2022-02-09T12:02:54Z</time>
      </trkpt>
      <trkpt lat="42.86957" lon="0.21488">
        <ele>2677.2</ele>
        <time>2022-02-09T12:02:55Z</time>
      </trkpt>
      <trkpt lat="42.86957" lon="0.21488">
        <ele>2677.2</ele>
        <time>2022-02-09T12:02:56Z</time>
      </trkpt>
      <trkpt lat="42.86957" lon="0.21488">
        <ele>2677.2</ele>
        <time>2022-02-09T12:02:57Z</time>
      </trkpt>
      <trkpt lat="42.86957" lon="0.21488">
        <ele>2677.2</ele>
        <time>2022-02-09T12:02:58Z</time>
      </trkpt>
      <trkpt lat="42.86957" lon="0.21488">
        <ele>2677.2</ele>
        <time>2022-02-09T12:02:59Z</time>
      </trkpt>
      <trkpt lat="42.86957" lon="0.21488">
        <ele>2677.2</ele>
        <time>2022-02-09T12:03:00Z</time>
      </trkpt>
      <trkpt lat="42.86957" lon="0.21488">
        <ele>2677.2</ele>
        <time>2022-02-09T12:03:01Z</time>
      </trkpt>
      <trkpt lat="42.86957" lon="0.21488">
        <ele>2677.2</ele>
        <time>2022-02-09T12:03:02Z</time>
      </trkpt>
      <trkpt lat="42.86957" lon="0.21488">
        <ele>2677.2</ele>
        <time>2022-02-09T12:03:03Z</time>
      </trkpt>
      <trkpt lat="42.86957" lon="0.21488">
        <ele>2677.2</ele>
        <time>2022-02-09T12:03:04Z</time>
      </trkpt>
      <trkpt lat="42.86957" lon="0.21488">
        <ele>2677.2</ele>
        <time>2022-02-09T12:03:05Z</time>
      </trkpt>
      <trkpt lat="42.86957" lon="0.21488">
        <ele>2677.2</ele>
        <time>2022-02-09T12:03:06Z</time>
      </trkpt>
      <trkpt lat="42.86957" lon="0.21488">
        <ele>2677.2</ele>
        <time>2022-02-09T12:03:07Z</time>
      </trkpt>
      <trkpt lat="42.86957" lon="0.21488">
        <ele>2677.2</ele>
        <time>2022-02-09T12:03:08Z</time>
      </trkpt>
      <trkpt lat="42.86957" lon="0.21488">
        <ele>2677.2</ele>
        <time>2022-02-09T12:03:09Z</time>
      </trkpt>
      <trkpt lat="42.86957" lon="0.21488">
        <ele>2677.2</ele>
        <time>2022-02-09T12:03:10Z</time>
      </trkpt>
      <trkpt lat="42.86957" lon="0.21488">
        <ele>2677.2</ele>
        <time>2022-02-09T12:03:11Z</time>
      </trkpt>
      <trkpt lat="42.86957" lon="0.21488">
        <ele>2677.2</ele>
        <time>2022-02-09T12:03:12Z</time>
      </trkpt>
      <trkpt lat="42.86957" lon="0.21488">
        <ele>2677.1</ele>
        <time>2022-02-09T12:03:13Z</time>
      </trkpt>
      <trkpt lat="42.86957" lon="0.21488">
        <ele>2677.1</ele>
        <time>2022-02-09T12:03:14Z</time>
      </trkpt>
      <trkpt lat="42.86957" lon="0.21488">
        <ele>2677</ele>
        <time>2022-02-09T12:03:15Z</time>
      </trkpt>
      <trkpt lat="42.86957" lon="0.21488">
        <ele>2677</ele>
        <time>2022-02-09T12:03:16Z</time>
      </trkpt>
      <trkpt lat="42.86957" lon="0.21488">
        <ele>2676.9</ele>
        <time>2022-02-09T12:03:17Z</time>
      </trkpt>
      <trkpt lat="42.86957" lon="0.21488">
        <ele>2676.8</ele>
        <time>2022-02-09T12:03:18Z</time>
      </trkpt>
      <trkpt lat="42.86957" lon="0.21488">
        <ele>2676.8</ele>
        <time>2022-02-09T12:03:19Z</time>
      </trkpt>
      <trkpt lat="42.86957" lon="0.21488">
        <ele>2676.7</ele>
        <time>2022-02-09T12:03:20Z</time>
      </trkpt>
      <trkpt lat="42.86957" lon="0.21488">
        <ele>2676.7</ele>
        <time>2022-02-09T12:03:21Z</time>
      </trkpt>
      <trkpt lat="42.86957" lon="0.21488">
        <ele>2676.6</ele>
        <time>2022-02-09T12:03:22Z</time>
      </trkpt>
      <trkpt lat="42.86957" lon="0.21488">
        <ele>2676.5</ele>
        <time>2022-02-09T12:03:23Z</time>
      </trkpt>
      <trkpt lat="42.86957" lon="0.21488">
        <ele>2676.5</ele>
        <time>2022-02-09T12:03:24Z</time>
      </trkpt>
      <trkpt lat="42.86957" lon="0.21488">
        <ele>2676.4</ele>
        <time>2022-02-09T12:03:25Z</time>
      </trkpt>
      <trkpt lat="42.86957" lon="0.21488">
        <ele>2676.4</ele>
        <time>2022-02-09T12:03:26Z</time>
      </trkpt>
      <trkpt lat="42.86957" lon="0.21488">
        <ele>2676.3</ele>
        <time>2022-02-09T12:03:27Z</time>
      </trkpt>
      <trkpt lat="42.86957" lon="0.21488">
        <ele>2676.2</ele>
        <time>2022-02-09T12:03:28Z</time>
      </trkpt>
      <trkpt lat="42.86957" lon="0.21488">
        <ele>2676.2</ele>
        <time>2022-02-09T12:03:29Z</time>
      </trkpt>
      <trkpt lat="42.86957" lon="0.21488">
        <ele>2676.1</ele>
        <time>2022-02-09T12:03:30Z</time>
      </trkpt>
      <trkpt lat="42.86957" lon="0.21488">
        <ele>2676.1</ele>
        <time>2022-02-09T12:03:31Z</time>
      </trkpt>
      <trkpt lat="42.86957" lon="0.21488">
        <ele>2676</ele>
        <time>2022-02-09T12:03:32Z</time>
      </trkpt>
      <trkpt lat="42.86957" lon="0.21488">
        <ele>2675.9</ele>
        <time>2022-02-09T12:03:33Z</time>
      </trkpt>
      <trkpt lat="42.86957" lon="0.21488">
        <ele>2675.9</ele>
        <time>2022-02-09T12:03:34Z</time>
      </trkpt>
      <trkpt lat="42.86957" lon="0.21488">
        <ele>2675.8</ele>
        <time>2022-02-09T12:03:35Z</time>
      </trkpt>
      <trkpt lat="42.86957" lon="0.21488">
        <ele>2675.8</ele>
        <time>2022-02-09T12:03:36Z</time>
      </trkpt>
      <trkpt lat="42.86957" lon="0.21488">
        <ele>2675.7</ele>
        <time>2022-02-09T12:03:37Z</time>
      </trkpt>
      <trkpt lat="42.86957" lon="0.21488">
        <ele>2675.6</ele>
        <time>2022-02-09T12:03:38Z</time>
      </trkpt>
      <trkpt lat="42.86957" lon="0.21488">
        <ele>2675.6</ele>
        <time>2022-02-09T12:03:39Z</time>
      </trkpt>
      <trkpt lat="42.86957" lon="0.21488">
        <ele>2675.5</ele>
        <time>2022-02-09T12:03:40Z</time>
      </trkpt>
      <trkpt lat="42.86957" lon="0.21488">
        <ele>2675.5</ele>
        <time>2022-02-09T12:03:41Z</time>
      </trkpt>
      <trkpt lat="42.86957" lon="0.21488">
        <ele>2675.4</ele>
        <time>2022-02-09T12:03:42Z</time>
      </trkpt>
      <trkpt lat="42.86957" lon="0.21488">
        <ele>2675.3</ele>
        <time>2022-02-09T12:03:43Z</time>
      </trkpt>
      <trkpt lat="42.86957" lon="0.21488">
        <ele>2675.3</ele>
        <time>2022-02-09T12:03:44Z</time>
      </trkpt>
      <trkpt lat="42.86957" lon="0.21488">
        <ele>2675.2</ele>
        <time>2022-02-09T12:03:45Z</time>
      </trkpt>
      <trkpt lat="42.86957" lon="0.21488">
        <ele>2675.2</ele>
        <time>2022-02-09T12:03:46Z</time>
      </trkpt>
      <trkpt lat="42.86957" lon="0.21488">
        <ele>2675.1</ele>
        <time>2022-02-09T12:03:47Z</time>
      </trkpt>
      <trkpt lat="42.86957" lon="0.21488">
        <ele>2675</ele>
        <time>2022-02-09T12:03:48Z</time>
      </trkpt>
      <trkpt lat="42.86957" lon="0.21488">
        <ele>2675</ele>
        <time>2022-02-09T12:03:49Z</time>
      </trkpt>
      <trkpt lat="42.86957" lon="0.21488">
        <ele>2674.9</ele>
        <time>2022-02-09T12:03:50Z</time>
      </trkpt>
      <trkpt lat="42.86957" lon="0.21488">
        <ele>2674.9</ele>
        <time>2022-02-09T12:03:51Z</time>
      </trkpt>
      <trkpt lat="42.86957" lon="0.21488">
        <ele>2674.8</ele>
        <time>2022-02-09T12:03:52Z</time>
      </trkpt>
      <trkpt lat="42.86957" lon="0.21488">
        <ele>2674.7</ele>
        <time>2022-02-09T12:03:53Z</time>
      </trkpt>
      <trkpt lat="42.86957" lon="0.21488">
        <ele>2674.7</ele>
        <time>2022-02-09T12:03:54Z</time>
      </trkpt>
      <trkpt lat="42.86957" lon="0.21488">
        <ele>2674.6</ele>
        <time>2022-02-09T12:03:55Z</time>
      </trkpt>
      <trkpt lat="42.86957" lon="0.21488">
        <ele>2674.6</ele>
        <time>2022-02-09T12:03:56Z</time>
      </trkpt>
      <trkpt lat="42.86957" lon="0.21488">
        <ele>2674.5</ele>
        <time>2022-02-09T12:03:57Z</time>
      </trkpt>
      <trkpt lat="42.86957" lon="0.21488">
        <ele>2674.4</ele>
        <time>2022-02-09T12:03:58Z</time>
      </trkpt>
      <trkpt lat="42.86957" lon="0.21488">
        <ele>2674.4</ele>
        <time>2022-02-09T12:03:59Z</time>
      </trkpt>
      <trkpt lat="42.86957" lon="0.21488">
        <ele>2674.3</ele>
        <time>2022-02-09T12:04:00Z</time>
      </trkpt>
      <trkpt lat="42.86957" lon="0.21488">
        <ele>2674.3</ele>
        <time>2022-02-09T12:04:01Z</time>
      </trkpt>
      <trkpt lat="42.86957" lon="0.21488">
        <ele>2674.2</ele>
        <time>2022-02-09T12:04:02Z</time>
      </trkpt>
      <trkpt lat="42.86957" lon="0.21488">
        <ele>2674.1</ele>
        <time>2022-02-09T12:04:03Z</time>
      </trkpt>
      <trkpt lat="42.86957" lon="0.21488">
        <ele>2674.1</ele>
        <time>2022-02-09T12:04:04Z</time>
      </trkpt>
      <trkpt lat="42.86957" lon="0.21488">
        <ele>2674</ele>
        <time>2022-02-09T12:04:05Z</time>
      </trkpt>
      <trkpt lat="42.86957" lon="0.21489">
        <ele>2674.5</ele>
        <time>2022-02-09T12:04:06Z</time>
      </trkpt>
      <trkpt lat="42.86958" lon="0.21491">
        <ele>2674.4</ele>
        <time>2022-02-09T12:04:07Z</time>
      </trkpt>
      <trkpt lat="42.86957" lon="0.21493">
        <ele>2674.7</ele>
        <time>2022-02-09T12:04:08Z</time>
      </trkpt>
      <trkpt lat="42.86958" lon="0.21493">
        <ele>2674.7</ele>
        <time>2022-02-09T12:04:09Z</time>
      </trkpt>
      <trkpt lat="42.86958" lon="0.21493">
        <ele>2674.6</ele>
        <time>2022-02-09T12:04:10Z</time>
      </trkpt>
      <trkpt lat="42.86958" lon="0.21493">
        <ele>2674.6</ele>
        <time>2022-02-09T12:04:11Z</time>
      </trkpt>
      <trkpt lat="42.86958" lon="0.21493">
        <ele>2674.5</ele>
        <time>2022-02-09T12:04:12Z</time>
      </trkpt>
      <trkpt lat="42.86958" lon="0.21493">
        <ele>2674.4</ele>
        <time>2022-02-09T12:04:13Z</time>
      </trkpt>
      <trkpt lat="42.86958" lon="0.21493">
        <ele>2674.4</ele>
        <time>2022-02-09T12:04:14Z</time>
      </trkpt>
      <trkpt lat="42.86958" lon="0.21493">
        <ele>2674.3</ele>
        <time>2022-02-09T12:04:15Z</time>
      </trkpt>
      <trkpt lat="42.86958" lon="0.21492">
        <ele>2673.4</ele>
        <time>2022-02-09T12:04:16Z</time>
      </trkpt>
      <trkpt lat="42.86958" lon="0.21492">
        <ele>2672.9</ele>
        <time>2022-02-09T12:04:17Z</time>
      </trkpt>
      <trkpt lat="42.86958" lon="0.21491">
        <ele>2672.8</ele>
        <time>2022-02-09T12:04:18Z</time>
      </trkpt>
      <trkpt lat="42.86958" lon="0.21491">
        <ele>2672.8</ele>
        <time>2022-02-09T12:04:19Z</time>
      </trkpt>
      <trkpt lat="42.86958" lon="0.21491">
        <ele>2672.7</ele>
        <time>2022-02-09T12:04:20Z</time>
      </trkpt>
      <trkpt lat="42.86958" lon="0.21491">
        <ele>2672.7</ele>
        <time>2022-02-09T12:04:21Z</time>
      </trkpt>
      <trkpt lat="42.86958" lon="0.21491">
        <ele>2672.6</ele>
        <time>2022-02-09T12:04:22Z</time>
      </trkpt>
      <trkpt lat="42.86958" lon="0.21491">
        <ele>2672.5</ele>
        <time>2022-02-09T12:04:23Z</time>
      </trkpt>
      <trkpt lat="42.86958" lon="0.21491">
        <ele>2672.5</ele>
        <time>2022-02-09T12:04:24Z</time>
      </trkpt>
      <trkpt lat="42.86958" lon="0.21491">
        <ele>2672.4</ele>
        <time>2022-02-09T12:04:25Z</time>
      </trkpt>
      <trkpt lat="42.86958" lon="0.21491">
        <ele>2672.4</ele>
        <time>2022-02-09T12:04:26Z</time>
      </trkpt>
      <trkpt lat="42.86958" lon="0.21491">
        <ele>2672.3</ele>
        <time>2022-02-09T12:04:27Z</time>
      </trkpt>
      <trkpt lat="42.86958" lon="0.21491">
        <ele>2672.2</ele>
        <time>2022-02-09T12:04:28Z</time>
      </trkpt>
      <trkpt lat="42.86958" lon="0.21491">
        <ele>2672.2</ele>
        <time>2022-02-09T12:04:29Z</time>
      </trkpt>
      <trkpt lat="42.86958" lon="0.21491">
        <ele>2672.1</ele>
        <time>2022-02-09T12:04:30Z</time>
      </trkpt>
      <trkpt lat="42.86958" lon="0.21491">
        <ele>2672.1</ele>
        <time>2022-02-09T12:04:31Z</time>
      </trkpt>
      <trkpt lat="42.86958" lon="0.21491">
        <ele>2672</ele>
        <time>2022-02-09T12:04:32Z</time>
      </trkpt>
      <trkpt lat="42.86958" lon="0.21491">
        <ele>2671.9</ele>
        <time>2022-02-09T12:04:33Z</time>
      </trkpt>
      <trkpt lat="42.86958" lon="0.21491">
        <ele>2671.9</ele>
        <time>2022-02-09T12:04:34Z</time>
      </trkpt>
      <trkpt lat="42.86958" lon="0.21491">
        <ele>2671.8</ele>
        <time>2022-02-09T12:04:35Z</time>
      </trkpt>
      <trkpt lat="42.86958" lon="0.21491">
        <ele>2671.8</ele>
        <time>2022-02-09T12:04:36Z</time>
      </trkpt>
      <trkpt lat="42.86958" lon="0.21491">
        <ele>2671.7</ele>
        <time>2022-02-09T12:04:37Z</time>
      </trkpt>
      <trkpt lat="42.86958" lon="0.21491">
        <ele>2671.6</ele>
        <time>2022-02-09T12:04:38Z</time>
      </trkpt>
      <trkpt lat="42.86958" lon="0.21491">
        <ele>2671.6</ele>
        <time>2022-02-09T12:04:39Z</time>
      </trkpt>
      <trkpt lat="42.86958" lon="0.21491">
        <ele>2671.5</ele>
        <time>2022-02-09T12:04:40Z</time>
      </trkpt>
      <trkpt lat="42.86958" lon="0.21491">
        <ele>2671.5</ele>
        <time>2022-02-09T12:04:41Z</time>
      </trkpt>
      <trkpt lat="42.86958" lon="0.21491">
        <ele>2671.4</ele>
        <time>2022-02-09T12:04:42Z</time>
      </trkpt>
      <trkpt lat="42.86958" lon="0.21491">
        <ele>2671.3</ele>
        <time>2022-02-09T12:04:43Z</time>
      </trkpt>
      <trkpt lat="42.86958" lon="0.21491">
        <ele>2671.3</ele>
        <time>2022-02-09T12:04:44Z</time>
      </trkpt>
      <trkpt lat="42.86958" lon="0.21491">
        <ele>2671.2</ele>
        <time>2022-02-09T12:04:45Z</time>
      </trkpt>
      <trkpt lat="42.86958" lon="0.21491">
        <ele>2671.2</ele>
        <time>2022-02-09T12:04:46Z</time>
      </trkpt>
      <trkpt lat="42.86958" lon="0.21491">
        <ele>2671.1</ele>
        <time>2022-02-09T12:04:47Z</time>
      </trkpt>
      <trkpt lat="42.86958" lon="0.21491">
        <ele>2671</ele>
        <time>2022-02-09T12:04:48Z</time>
      </trkpt>
      <trkpt lat="42.86958" lon="0.21491">
        <ele>2671</ele>
        <time>2022-02-09T12:04:49Z</time>
      </trkpt>
      <trkpt lat="42.86958" lon="0.21491">
        <ele>2670.9</ele>
        <time>2022-02-09T12:04:50Z</time>
      </trkpt>
      <trkpt lat="42.86958" lon="0.21491">
        <ele>2670.9</ele>
        <time>2022-02-09T12:04:51Z</time>
      </trkpt>
      <trkpt lat="42.86958" lon="0.21491">
        <ele>2670.8</ele>
        <time>2022-02-09T12:04:52Z</time>
      </trkpt>
      <trkpt lat="42.86958" lon="0.21491">
        <ele>2670.8</ele>
        <time>2022-02-09T12:04:53Z</time>
      </trkpt>
      <trkpt lat="42.86958" lon="0.21491">
        <ele>2670.8</ele>
        <time>2022-02-09T12:04:54Z</time>
      </trkpt>
      <trkpt lat="42.86958" lon="0.21491">
        <ele>2670.8</ele>
        <time>2022-02-09T12:04:55Z</time>
      </trkpt>
      <trkpt lat="42.86958" lon="0.21491">
        <ele>2670.8</ele>
        <time>2022-02-09T12:04:56Z</time>
      </trkpt>
      <trkpt lat="42.86958" lon="0.21491">
        <ele>2670.8</ele>
        <time>2022-02-09T12:04:57Z</time>
      </trkpt>
      <trkpt lat="42.86958" lon="0.21491">
        <ele>2670.8</ele>
        <time>2022-02-09T12:04:58Z</time>
      </trkpt>
      <trkpt lat="42.86958" lon="0.21491">
        <ele>2670.8</ele>
        <time>2022-02-09T12:04:59Z</time>
      </trkpt>
      <trkpt lat="42.86958" lon="0.21491">
        <ele>2670.8</ele>
        <time>2022-02-09T12:05:00Z</time>
      </trkpt>
      <trkpt lat="42.86958" lon="0.21491">
        <ele>2670.8</ele>
        <time>2022-02-09T12:05:01Z</time>
      </trkpt>
      <trkpt lat="42.86958" lon="0.21491">
        <ele>2670.8</ele>
        <time>2022-02-09T12:05:02Z</time>
      </trkpt>
      <trkpt lat="42.86958" lon="0.21491">
        <ele>2670.8</ele>
        <time>2022-02-09T12:05:03Z</time>
      </trkpt>
      <trkpt lat="42.86958" lon="0.21491">
        <ele>2670.8</ele>
        <time>2022-02-09T12:05:04Z</time>
      </trkpt>
      <trkpt lat="42.86958" lon="0.21491">
        <ele>2670.8</ele>
        <time>2022-02-09T12:05:05Z</time>
      </trkpt>
      <trkpt lat="42.86958" lon="0.21491">
        <ele>2670.8</ele>
        <time>2022-02-09T12:05:06Z</time>
      </trkpt>
      <trkpt lat="42.86958" lon="0.21491">
        <ele>2670.8</ele>
        <time>2022-02-09T12:05:07Z</time>
      </trkpt>
      <trkpt lat="42.86958" lon="0.21491">
        <ele>2670.8</ele>
        <time>2022-02-09T12:05:08Z</time>
      </trkpt>
      <trkpt lat="42.86958" lon="0.21491">
        <ele>2670.8</ele>
        <time>2022-02-09T12:05:09Z</time>
      </trkpt>
      <trkpt lat="42.86958" lon="0.21491">
        <ele>2670.8</ele>
        <time>2022-02-09T12:05:10Z</time>
      </trkpt>
      <trkpt lat="42.86958" lon="0.21491">
        <ele>2670.8</ele>
        <time>2022-02-09T12:05:11Z</time>
      </trkpt>
      <trkpt lat="42.86958" lon="0.21491">
        <ele>2670.8</ele>
        <time>2022-02-09T12:05:12Z</time>
      </trkpt>
      <trkpt lat="42.86958" lon="0.21491">
        <ele>2670.8</ele>
        <time>2022-02-09T12:05:13Z</time>
      </trkpt>
      <trkpt lat="42.86958" lon="0.21491">
        <ele>2670.8</ele>
        <time>2022-02-09T12:05:14Z</time>
      </trkpt>
      <trkpt lat="42.86958" lon="0.21491">
        <ele>2670.8</ele>
        <time>2022-02-09T12:05:15Z</time>
      </trkpt>
      <trkpt lat="42.86958" lon="0.21491">
        <ele>2670.8</ele>
        <time>2022-02-09T12:05:16Z</time>
      </trkpt>
      <trkpt lat="42.86958" lon="0.21491">
        <ele>2670.8</ele>
        <time>2022-02-09T12:05:17Z</time>
      </trkpt>
      <trkpt lat="42.86958" lon="0.21491">
        <ele>2670.8</ele>
        <time>2022-02-09T12:05:18Z</time>
      </trkpt>
      <trkpt lat="42.86958" lon="0.21491">
        <ele>2670.8</ele>
        <time>2022-02-09T12:05:19Z</time>
      </trkpt>
      <trkpt lat="42.86958" lon="0.21491">
        <ele>2670.8</ele>
        <time>2022-02-09T12:05:20Z</time>
      </trkpt>
      <trkpt lat="42.86958" lon="0.21491">
        <ele>2670.8</ele>
        <time>2022-02-09T12:05:21Z</time>
      </trkpt>
      <trkpt lat="42.86958" lon="0.21491">
        <ele>2670.8</ele>
        <time>2022-02-09T12:05:22Z</time>
      </trkpt>
      <trkpt lat="42.86958" lon="0.21491">
        <ele>2670.8</ele>
        <time>2022-02-09T12:05:23Z</time>
      </trkpt>
      <trkpt lat="42.86958" lon="0.21491">
        <ele>2670.8</ele>
        <time>2022-02-09T12:05:24Z</time>
      </trkpt>
      <trkpt lat="42.86958" lon="0.21491">
        <ele>2670.8</ele>
        <time>2022-02-09T12:05:25Z</time>
      </trkpt>
      <trkpt lat="42.86958" lon="0.21491">
        <ele>2670.8</ele>
        <time>2022-02-09T12:05:26Z</time>
      </trkpt>
      <trkpt lat="42.86958" lon="0.2149">
        <ele>2671.7</ele>
        <time>2022-02-09T12:05:27Z</time>
      </trkpt>
      <trkpt lat="42.86957" lon="0.21489">
        <ele>2671.7</ele>
        <time>2022-02-09T12:05:28Z</time>
      </trkpt>
      <trkpt lat="42.86956" lon="0.21489">
        <ele>2671.7</ele>
        <time>2022-02-09T12:05:29Z</time>
      </trkpt>
      <trkpt lat="42.86956" lon="0.21489">
        <ele>2671.7</ele>
        <time>2022-02-09T12:05:30Z</time>
      </trkpt>
      <trkpt lat="42.86956" lon="0.21489">
        <ele>2671.7</ele>
        <time>2022-02-09T12:05:31Z</time>
      </trkpt>
      <trkpt lat="42.86956" lon="0.21489">
        <ele>2671.7</ele>
        <time>2022-02-09T12:05:32Z</time>
      </trkpt>
      <trkpt lat="42.86956" lon="0.21489">
        <ele>2671.7</ele>
        <time>2022-02-09T12:05:33Z</time>
      </trkpt>
      <trkpt lat="42.86956" lon="0.21489">
        <ele>2671.7</ele>
        <time>2022-02-09T12:05:34Z</time>
      </trkpt>
      <trkpt lat="42.86956" lon="0.21489">
        <ele>2671.7</ele>
        <time>2022-02-09T12:05:35Z</time>
      </trkpt>
      <trkpt lat="42.86956" lon="0.21489">
        <ele>2671.7</ele>
        <time>2022-02-09T12:05:36Z</time>
      </trkpt>
      <trkpt lat="42.86956" lon="0.21489">
        <ele>2671.7</ele>
        <time>2022-02-09T12:05:37Z</time>
      </trkpt>
      <trkpt lat="42.86956" lon="0.21489">
        <ele>2671.7</ele>
        <time>2022-02-09T12:05:38Z</time>
      </trkpt>
      <trkpt lat="42.86956" lon="0.21489">
        <ele>2671.7</ele>
        <time>2022-02-09T12:05:39Z</time>
      </trkpt>
      <trkpt lat="42.86956" lon="0.21489">
        <ele>2671.7</ele>
        <time>2022-02-09T12:05:40Z</time>
      </trkpt>
      <trkpt lat="42.86956" lon="0.21489">
        <ele>2671.7</ele>
        <time>2022-02-09T12:05:41Z</time>
      </trkpt>
      <trkpt lat="42.86956" lon="0.21489">
        <ele>2671.7</ele>
        <time>2022-02-09T12:05:42Z</time>
      </trkpt>
      <trkpt lat="42.86956" lon="0.21489">
        <ele>2671.7</ele>
        <time>2022-02-09T12:05:43Z</time>
      </trkpt>
      <trkpt lat="42.86956" lon="0.21489">
        <ele>2671.7</ele>
        <time>2022-02-09T12:05:44Z</time>
      </trkpt>
      <trkpt lat="42.86956" lon="0.21489">
        <ele>2671.7</ele>
        <time>2022-02-09T12:05:45Z</time>
      </trkpt>
      <trkpt lat="42.86956" lon="0.21489">
        <ele>2671.7</ele>
        <time>2022-02-09T12:05:46Z</time>
      </trkpt>
      <trkpt lat="42.86956" lon="0.21489">
        <ele>2671.7</ele>
        <time>2022-02-09T12:05:47Z</time>
      </trkpt>
      <trkpt lat="42.86956" lon="0.21489">
        <ele>2671.7</ele>
        <time>2022-02-09T12:05:48Z</time>
      </trkpt>
      <trkpt lat="42.86956" lon="0.21489">
        <ele>2671.7</ele>
        <time>2022-02-09T12:05:49Z</time>
      </trkpt>
      <trkpt lat="42.86956" lon="0.21489">
        <ele>2671.7</ele>
        <time>2022-02-09T12:05:50Z</time>
      </trkpt>
      <trkpt lat="42.86956" lon="0.21489">
        <ele>2671.7</ele>
        <time>2022-02-09T12:05:51Z</time>
      </trkpt>
      <trkpt lat="42.86956" lon="0.21489">
        <ele>2671.7</ele>
        <time>2022-02-09T12:05:52Z</time>
      </trkpt>
      <trkpt lat="42.86956" lon="0.21489">
        <ele>2671.7</ele>
        <time>2022-02-09T12:05:53Z</time>
      </trkpt>
      <trkpt lat="42.86956" lon="0.21489">
        <ele>2671.7</ele>
        <time>2022-02-09T12:05:54Z</time>
      </trkpt>
      <trkpt lat="42.86956" lon="0.21489">
        <ele>2671.7</ele>
        <time>2022-02-09T12:05:55Z</time>
      </trkpt>
      <trkpt lat="42.86956" lon="0.21489">
        <ele>2671.7</ele>
        <time>2022-02-09T12:05:56Z</time>
      </trkpt>
      <trkpt lat="42.86956" lon="0.21489">
        <ele>2671.7</ele>
        <time>2022-02-09T12:05:57Z</time>
      </trkpt>
      <trkpt lat="42.86956" lon="0.21489">
        <ele>2671.7</ele>
        <time>2022-02-09T12:05:58Z</time>
      </trkpt>
      <trkpt lat="42.86956" lon="0.21489">
        <ele>2671.7</ele>
        <time>2022-02-09T12:05:59Z</time>
      </trkpt>
      <trkpt lat="42.86956" lon="0.21489">
        <ele>2671.7</ele>
        <time>2022-02-09T12:06:00Z</time>
      </trkpt>
      <trkpt lat="42.86956" lon="0.21489">
        <ele>2671.7</ele>
        <time>2022-02-09T12:06:01Z</time>
      </trkpt>
      <trkpt lat="42.86956" lon="0.21489">
        <ele>2671.7</ele>
        <time>2022-02-09T12:06:02Z</time>
      </trkpt>
      <trkpt lat="42.86956" lon="0.21489">
        <ele>2671.7</ele>
        <time>2022-02-09T12:06:03Z</time>
      </trkpt>
      <trkpt lat="42.86956" lon="0.21489">
        <ele>2671.7</ele>
        <time>2022-02-09T12:06:04Z</time>
      </trkpt>
      <trkpt lat="42.86956" lon="0.21489">
        <ele>2671.7</ele>
        <time>2022-02-09T12:06:05Z</time>
      </trkpt>
      <trkpt lat="42.86956" lon="0.21489">
        <ele>2671.7</ele>
        <time>2022-02-09T12:06:06Z</time>
      </trkpt>
      <trkpt lat="42.86956" lon="0.21489">
        <ele>2671.7</ele>
        <time>2022-02-09T12:06:07Z</time>
      </trkpt>
      <trkpt lat="42.86956" lon="0.21489">
        <ele>2671.7</ele>
        <time>2022-02-09T12:06:08Z</time>
      </trkpt>
      <trkpt lat="42.86956" lon="0.21489">
        <ele>2671.7</ele>
        <time>2022-02-09T12:06:09Z</time>
      </trkpt>
      <trkpt lat="42.86956" lon="0.21489">
        <ele>2671.7</ele>
        <time>2022-02-09T12:06:10Z</time>
      </trkpt>
      <trkpt lat="42.86956" lon="0.21489">
        <ele>2671.7</ele>
        <time>2022-02-09T12:06:11Z</time>
      </trkpt>
      <trkpt lat="42.86956" lon="0.21489">
        <ele>2671.7</ele>
        <time>2022-02-09T12:06:12Z</time>
      </trkpt>
      <trkpt lat="42.86956" lon="0.21489">
        <ele>2671.7</ele>
        <time>2022-02-09T12:06:13Z</time>
      </trkpt>
      <trkpt lat="42.86956" lon="0.21489">
        <ele>2671.7</ele>
        <time>2022-02-09T12:06:14Z</time>
      </trkpt>
      <trkpt lat="42.86956" lon="0.21489">
        <ele>2671.7</ele>
        <time>2022-02-09T12:06:15Z</time>
      </trkpt>
      <trkpt lat="42.86956" lon="0.21489">
        <ele>2671.7</ele>
        <time>2022-02-09T12:06:16Z</time>
      </trkpt>
      <trkpt lat="42.86956" lon="0.21489">
        <ele>2671.7</ele>
        <time>2022-02-09T12:06:17Z</time>
      </trkpt>
      <trkpt lat="42.86956" lon="0.21489">
        <ele>2671.7</ele>
        <time>2022-02-09T12:06:18Z</time>
      </trkpt>
      <trkpt lat="42.86956" lon="0.21489">
        <ele>2671.7</ele>
        <time>2022-02-09T12:06:19Z</time>
      </trkpt>
      <trkpt lat="42.86956" lon="0.21489">
        <ele>2671.7</ele>
        <time>2022-02-09T12:06:20Z</time>
      </trkpt>
      <trkpt lat="42.86956" lon="0.21489">
        <ele>2671.7</ele>
        <time>2022-02-09T12:06:21Z</time>
      </trkpt>
      <trkpt lat="42.86956" lon="0.21489">
        <ele>2671.7</ele>
        <time>2022-02-09T12:06:22Z</time>
      </trkpt>
      <trkpt lat="42.86956" lon="0.21489">
        <ele>2671.7</ele>
        <time>2022-02-09T12:06:23Z</time>
      </trkpt>
      <trkpt lat="42.86956" lon="0.21489">
        <ele>2671.7</ele>
        <time>2022-02-09T12:06:24Z</time>
      </trkpt>
      <trkpt lat="42.86956" lon="0.21489">
        <ele>2671.7</ele>
        <time>2022-02-09T12:06:25Z</time>
      </trkpt>
      <trkpt lat="42.86956" lon="0.21489">
        <ele>2671.7</ele>
        <time>2022-02-09T12:06:26Z</time>
      </trkpt>
      <trkpt lat="42.86956" lon="0.21489">
        <ele>2671.7</ele>
        <time>2022-02-09T12:06:27Z</time>
      </trkpt>
      <trkpt lat="42.86956" lon="0.21489">
        <ele>2671.7</ele>
        <time>2022-02-09T12:06:28Z</time>
      </trkpt>
      <trkpt lat="42.86956" lon="0.21489">
        <ele>2671.7</ele>
        <time>2022-02-09T12:06:29Z</time>
      </trkpt>
      <trkpt lat="42.86956" lon="0.21489">
        <ele>2671.7</ele>
        <time>2022-02-09T12:06:30Z</time>
      </trkpt>
      <trkpt lat="42.86956" lon="0.21489">
        <ele>2671.7</ele>
        <time>2022-02-09T12:06:31Z</time>
      </trkpt>
      <trkpt lat="42.86956" lon="0.21489">
        <ele>2671.7</ele>
        <time>2022-02-09T12:06:32Z</time>
      </trkpt>
      <trkpt lat="42.86956" lon="0.21489">
        <ele>2671.7</ele>
        <time>2022-02-09T12:06:33Z</time>
      </trkpt>
      <trkpt lat="42.86956" lon="0.21489">
        <ele>2671.7</ele>
        <time>2022-02-09T12:06:34Z</time>
      </trkpt>
      <trkpt lat="42.86956" lon="0.21489">
        <ele>2671.7</ele>
        <time>2022-02-09T12:06:35Z</time>
      </trkpt>
      <trkpt lat="42.86956" lon="0.21489">
        <ele>2671.7</ele>
        <time>2022-02-09T12:06:36Z</time>
      </trkpt>
      <trkpt lat="42.86956" lon="0.21489">
        <ele>2671.7</ele>
        <time>2022-02-09T12:06:37Z</time>
      </trkpt>
      <trkpt lat="42.86956" lon="0.21489">
        <ele>2671.7</ele>
        <time>2022-02-09T12:06:38Z</time>
      </trkpt>
      <trkpt lat="42.86957" lon="0.21489">
        <ele>2671.7</ele>
        <time>2022-02-09T12:06:39Z</time>
      </trkpt>
      <trkpt lat="42.86958" lon="0.2149">
        <ele>2670.8</ele>
        <time>2022-02-09T12:06:40Z</time>
      </trkpt>
      <trkpt lat="42.86958" lon="0.2149">
        <ele>2670.8</ele>
        <time>2022-02-09T12:06:41Z</time>
      </trkpt>
      <trkpt lat="42.86958" lon="0.2149">
        <ele>2671.7</ele>
        <time>2022-02-09T12:06:42Z</time>
      </trkpt>
      <trkpt lat="42.86958" lon="0.2149">
        <ele>2671.7</ele>
        <time>2022-02-09T12:06:43Z</time>
      </trkpt>
      <trkpt lat="42.86958" lon="0.2149">
        <ele>2671.7</ele>
        <time>2022-02-09T12:06:44Z</time>
      </trkpt>
      <trkpt lat="42.86958" lon="0.2149">
        <ele>2671.7</ele>
        <time>2022-02-09T12:06:45Z</time>
      </trkpt>
      <trkpt lat="42.86958" lon="0.21489">
        <ele>2671.7</ele>
        <time>2022-02-09T12:06:46Z</time>
      </trkpt>
      <trkpt lat="42.86957" lon="0.21489">
        <ele>2671.7</ele>
        <time>2022-02-09T12:06:47Z</time>
      </trkpt>
      <trkpt lat="42.86956" lon="0.21489">
        <ele>2671.7</ele>
        <time>2022-02-09T12:06:48Z</time>
      </trkpt>
      <trkpt lat="42.86956" lon="0.21489">
        <ele>2671.7</ele>
        <time>2022-02-09T12:06:49Z</time>
      </trkpt>
      <trkpt lat="42.86956" lon="0.21489">
        <ele>2671.7</ele>
        <time>2022-02-09T12:06:50Z</time>
      </trkpt>
      <trkpt lat="42.86956" lon="0.21489">
        <ele>2671.7</ele>
        <time>2022-02-09T12:06:51Z</time>
      </trkpt>
      <trkpt lat="42.86956" lon="0.21489">
        <ele>2671.7</ele>
        <time>2022-02-09T12:06:52Z</time>
      </trkpt>
      <trkpt lat="42.86956" lon="0.21489">
        <ele>2671.7</ele>
        <time>2022-02-09T12:06:53Z</time>
      </trkpt>
      <trkpt lat="42.86956" lon="0.21489">
        <ele>2671.7</ele>
        <time>2022-02-09T12:06:54Z</time>
      </trkpt>
      <trkpt lat="42.86956" lon="0.21489">
        <ele>2671.7</ele>
        <time>2022-02-09T12:06:55Z</time>
      </trkpt>
      <trkpt lat="42.86956" lon="0.21489">
        <ele>2671.7</ele>
        <time>2022-02-09T12:06:56Z</time>
      </trkpt>
      <trkpt lat="42.86956" lon="0.21489">
        <ele>2671.7</ele>
        <time>2022-02-09T12:06:57Z</time>
      </trkpt>
      <trkpt lat="42.86956" lon="0.21489">
        <ele>2671.7</ele>
        <time>2022-02-09T12:06:58Z</time>
      </trkpt>
      <trkpt lat="42.86956" lon="0.21489">
        <ele>2671.7</ele>
        <time>2022-02-09T12:06:59Z</time>
      </trkpt>
      <trkpt lat="42.86956" lon="0.21489">
        <ele>2671.7</ele>
        <time>2022-02-09T12:07:00Z</time>
      </trkpt>
      <trkpt lat="42.86956" lon="0.21489">
        <ele>2671.7</ele>
        <time>2022-02-09T12:07:01Z</time>
      </trkpt>
      <trkpt lat="42.86956" lon="0.21489">
        <ele>2671.7</ele>
        <time>2022-02-09T12:07:02Z</time>
      </trkpt>
      <trkpt lat="42.86956" lon="0.21489">
        <ele>2671.7</ele>
        <time>2022-02-09T12:07:03Z</time>
      </trkpt>
      <trkpt lat="42.86956" lon="0.21489">
        <ele>2671.7</ele>
        <time>2022-02-09T12:07:04Z</time>
      </trkpt>
      <trkpt lat="42.86956" lon="0.21489">
        <ele>2671.7</ele>
        <time>2022-02-09T12:07:05Z</time>
      </trkpt>
      <trkpt lat="42.86956" lon="0.21489">
        <ele>2671.7</ele>
        <time>2022-02-09T12:07:06Z</time>
      </trkpt>
      <trkpt lat="42.86955" lon="0.2149">
        <ele>2671.7</ele>
        <time>2022-02-09T12:07:07Z</time>
      </trkpt>
      <trkpt lat="42.86955" lon="0.21492">
        <ele>2672.4</ele>
        <time>2022-02-09T12:07:08Z</time>
      </trkpt>
      <trkpt lat="42.86954" lon="0.21492">
        <ele>2672.8</ele>
        <time>2022-02-09T12:07:09Z</time>
      </trkpt>
      <trkpt lat="42.86954" lon="0.21492">
        <ele>2672.4</ele>
        <time>2022-02-09T12:07:10Z</time>
      </trkpt>
      <trkpt lat="42.86953" lon="0.21492">
        <ele>2672.4</ele>
        <time>2022-02-09T12:07:11Z</time>
      </trkpt>
      <trkpt lat="42.86953" lon="0.21491">
        <ele>2672.4</ele>
        <time>2022-02-09T12:07:12Z</time>
      </trkpt>
      <trkpt lat="42.86953" lon="0.21491">
        <ele>2672.4</ele>
        <time>2022-02-09T12:07:13Z</time>
      </trkpt>
      <trkpt lat="42.86953" lon="0.21491">
        <ele>2672.4</ele>
        <time>2022-02-09T12:07:14Z</time>
      </trkpt>
      <trkpt lat="42.86953" lon="0.21491">
        <ele>2672.4</ele>
        <time>2022-02-09T12:07:15Z</time>
      </trkpt>
      <trkpt lat="42.86953" lon="0.21491">
        <ele>2672.4</ele>
        <time>2022-02-09T12:07:16Z</time>
      </trkpt>
      <trkpt lat="42.86953" lon="0.21491">
        <ele>2672.4</ele>
        <time>2022-02-09T12:07:17Z</time>
      </trkpt>
      <trkpt lat="42.86953" lon="0.21491">
        <ele>2672.4</ele>
        <time>2022-02-09T12:07:18Z</time>
      </trkpt>
      <trkpt lat="42.86953" lon="0.21491">
        <ele>2672.4</ele>
        <time>2022-02-09T12:07:19Z</time>
      </trkpt>
      <trkpt lat="42.86953" lon="0.21491">
        <ele>2672.4</ele>
        <time>2022-02-09T12:07:20Z</time>
      </trkpt>
      <trkpt lat="42.86953" lon="0.21491">
        <ele>2672.4</ele>
        <time>2022-02-09T12:07:21Z</time>
      </trkpt>
      <trkpt lat="42.86953" lon="0.21491">
        <ele>2672.4</ele>
        <time>2022-02-09T12:07:22Z</time>
      </trkpt>
      <trkpt lat="42.86953" lon="0.21491">
        <ele>2672.4</ele>
        <time>2022-02-09T12:07:23Z</time>
      </trkpt>
      <trkpt lat="42.86953" lon="0.21491">
        <ele>2672.4</ele>
        <time>2022-02-09T12:07:24Z</time>
      </trkpt>
      <trkpt lat="42.86953" lon="0.21491">
        <ele>2672.4</ele>
        <time>2022-02-09T12:07:25Z</time>
      </trkpt>
      <trkpt lat="42.86953" lon="0.21491">
        <ele>2672.4</ele>
        <time>2022-02-09T12:07:26Z</time>
      </trkpt>
      <trkpt lat="42.86953" lon="0.21491">
        <ele>2672.4</ele>
        <time>2022-02-09T12:07:27Z</time>
      </trkpt>
      <trkpt lat="42.86953" lon="0.21491">
        <ele>2672.4</ele>
        <time>2022-02-09T12:07:28Z</time>
      </trkpt>
      <trkpt lat="42.86953" lon="0.21491">
        <ele>2672.4</ele>
        <time>2022-02-09T12:07:29Z</time>
      </trkpt>
      <trkpt lat="42.86953" lon="0.21491">
        <ele>2672.4</ele>
        <time>2022-02-09T12:07:30Z</time>
      </trkpt>
      <trkpt lat="42.86953" lon="0.21491">
        <ele>2672.4</ele>
        <time>2022-02-09T12:07:31Z</time>
      </trkpt>
      <trkpt lat="42.86953" lon="0.21491">
        <ele>2672.4</ele>
        <time>2022-02-09T12:07:32Z</time>
      </trkpt>
      <trkpt lat="42.86953" lon="0.21491">
        <ele>2672.4</ele>
        <time>2022-02-09T12:07:33Z</time>
      </trkpt>
      <trkpt lat="42.86953" lon="0.21491">
        <ele>2672.4</ele>
        <time>2022-02-09T12:07:34Z</time>
      </trkpt>
      <trkpt lat="42.86953" lon="0.21491">
        <ele>2672.4</ele>
        <time>2022-02-09T12:07:35Z</time>
      </trkpt>
      <trkpt lat="42.86953" lon="0.21491">
        <ele>2672.4</ele>
        <time>2022-02-09T12:07:36Z</time>
      </trkpt>
      <trkpt lat="42.86953" lon="0.21491">
        <ele>2672.4</ele>
        <time>2022-02-09T12:07:37Z</time>
      </trkpt>
      <trkpt lat="42.86953" lon="0.21491">
        <ele>2672.4</ele>
        <time>2022-02-09T12:07:38Z</time>
      </trkpt>
      <trkpt lat="42.86953" lon="0.21491">
        <ele>2672.4</ele>
        <time>2022-02-09T12:07:39Z</time>
      </trkpt>
      <trkpt lat="42.86953" lon="0.21491">
        <ele>2672.4</ele>
        <time>2022-02-09T12:07:40Z</time>
      </trkpt>
      <trkpt lat="42.86953" lon="0.21491">
        <ele>2672.4</ele>
        <time>2022-02-09T12:07:41Z</time>
      </trkpt>
      <trkpt lat="42.86953" lon="0.21491">
        <ele>2672.4</ele>
        <time>2022-02-09T12:07:42Z</time>
      </trkpt>
      <trkpt lat="42.86953" lon="0.21491">
        <ele>2672.4</ele>
        <time>2022-02-09T12:07:43Z</time>
      </trkpt>
      <trkpt lat="42.86953" lon="0.21491">
        <ele>2672.4</ele>
        <time>2022-02-09T12:07:44Z</time>
      </trkpt>
      <trkpt lat="42.86953" lon="0.21491">
        <ele>2672.4</ele>
        <time>2022-02-09T12:07:45Z</time>
      </trkpt>
      <trkpt lat="42.86953" lon="0.21491">
        <ele>2672.4</ele>
        <time>2022-02-09T12:07:46Z</time>
      </trkpt>
      <trkpt lat="42.86953" lon="0.21491">
        <ele>2672.4</ele>
        <time>2022-02-09T12:07:47Z</time>
      </trkpt>
      <trkpt lat="42.86953" lon="0.21491">
        <ele>2672.4</ele>
        <time>2022-02-09T12:07:48Z</time>
      </trkpt>
      <trkpt lat="42.86953" lon="0.21491">
        <ele>2672.4</ele>
        <time>2022-02-09T12:07:49Z</time>
      </trkpt>
      <trkpt lat="42.86953" lon="0.21491">
        <ele>2672.4</ele>
        <time>2022-02-09T12:07:50Z</time>
      </trkpt>
      <trkpt lat="42.86953" lon="0.21491">
        <ele>2672.4</ele>
        <time>2022-02-09T12:07:51Z</time>
      </trkpt>
      <trkpt lat="42.86953" lon="0.21491">
        <ele>2672.4</ele>
        <time>2022-02-09T12:07:52Z</time>
      </trkpt>
      <trkpt lat="42.86953" lon="0.21491">
        <ele>2672.4</ele>
        <time>2022-02-09T12:07:53Z</time>
      </trkpt>
      <trkpt lat="42.86953" lon="0.21491">
        <ele>2672.4</ele>
        <time>2022-02-09T12:07:54Z</time>
      </trkpt>
      <trkpt lat="42.86953" lon="0.21491">
        <ele>2672.4</ele>
        <time>2022-02-09T12:07:55Z</time>
      </trkpt>
      <trkpt lat="42.86953" lon="0.21491">
        <ele>2672.4</ele>
        <time>2022-02-09T12:07:56Z</time>
      </trkpt>
      <trkpt lat="42.86953" lon="0.21491">
        <ele>2672.4</ele>
        <time>2022-02-09T12:07:57Z</time>
      </trkpt>
      <trkpt lat="42.86953" lon="0.21491">
        <ele>2672.4</ele>
        <time>2022-02-09T12:07:58Z</time>
      </trkpt>
      <trkpt lat="42.86953" lon="0.21491">
        <ele>2672.4</ele>
        <time>2022-02-09T12:07:59Z</time>
      </trkpt>
      <trkpt lat="42.86953" lon="0.21491">
        <ele>2672.4</ele>
        <time>2022-02-09T12:08:00Z</time>
      </trkpt>
      <trkpt lat="42.86953" lon="0.21491">
        <ele>2672.4</ele>
        <time>2022-02-09T12:08:01Z</time>
      </trkpt>
      <trkpt lat="42.86953" lon="0.21491">
        <ele>2672.4</ele>
        <time>2022-02-09T12:08:02Z</time>
      </trkpt>
      <trkpt lat="42.86953" lon="0.21491">
        <ele>2672.4</ele>
        <time>2022-02-09T12:08:03Z</time>
      </trkpt>
      <trkpt lat="42.86953" lon="0.21491">
        <ele>2672.4</ele>
        <time>2022-02-09T12:08:04Z</time>
      </trkpt>
      <trkpt lat="42.86953" lon="0.21491">
        <ele>2672.4</ele>
        <time>2022-02-09T12:08:05Z</time>
      </trkpt>
      <trkpt lat="42.86953" lon="0.21491">
        <ele>2672.4</ele>
        <time>2022-02-09T12:08:06Z</time>
      </trkpt>
      <trkpt lat="42.86953" lon="0.21491">
        <ele>2672.4</ele>
        <time>2022-02-09T12:08:07Z</time>
      </trkpt>
      <trkpt lat="42.86953" lon="0.21491">
        <ele>2672.4</ele>
        <time>2022-02-09T12:08:08Z</time>
      </trkpt>
      <trkpt lat="42.86953" lon="0.21491">
        <ele>2672.4</ele>
        <time>2022-02-09T12:08:09Z</time>
      </trkpt>
      <trkpt lat="42.86953" lon="0.21491">
        <ele>2672.4</ele>
        <time>2022-02-09T12:08:10Z</time>
      </trkpt>
      <trkpt lat="42.86953" lon="0.21491">
        <ele>2672.4</ele>
        <time>2022-02-09T12:08:11Z</time>
      </trkpt>
      <trkpt lat="42.86953" lon="0.21491">
        <ele>2672.4</ele>
        <time>2022-02-09T12:08:12Z</time>
      </trkpt>
      <trkpt lat="42.86953" lon="0.21491">
        <ele>2672.4</ele>
        <time>2022-02-09T12:08:13Z</time>
      </trkpt>
      <trkpt lat="42.86953" lon="0.21491">
        <ele>2672.4</ele>
        <time>2022-02-09T12:08:14Z</time>
      </trkpt>
      <trkpt lat="42.86953" lon="0.21491">
        <ele>2672.4</ele>
        <time>2022-02-09T12:08:15Z</time>
      </trkpt>
      <trkpt lat="42.86953" lon="0.21491">
        <ele>2672.4</ele>
        <time>2022-02-09T12:08:16Z</time>
      </trkpt>
      <trkpt lat="42.86953" lon="0.21491">
        <ele>2672.4</ele>
        <time>2022-02-09T12:08:17Z</time>
      </trkpt>
      <trkpt lat="42.86953" lon="0.21491">
        <ele>2672.4</ele>
        <time>2022-02-09T12:08:18Z</time>
      </trkpt>
      <trkpt lat="42.86953" lon="0.21491">
        <ele>2672.4</ele>
        <time>2022-02-09T12:08:19Z</time>
      </trkpt>
      <trkpt lat="42.86953" lon="0.21491">
        <ele>2672.4</ele>
        <time>2022-02-09T12:08:20Z</time>
      </trkpt>
      <trkpt lat="42.86953" lon="0.21491">
        <ele>2672.4</ele>
        <time>2022-02-09T12:08:21Z</time>
      </trkpt>
      <trkpt lat="42.86953" lon="0.21491">
        <ele>2672.4</ele>
        <time>2022-02-09T12:08:22Z</time>
      </trkpt>
      <trkpt lat="42.86953" lon="0.21491">
        <ele>2672.4</ele>
        <time>2022-02-09T12:08:23Z</time>
      </trkpt>
      <trkpt lat="42.86953" lon="0.21491">
        <ele>2672.4</ele>
        <time>2022-02-09T12:08:24Z</time>
      </trkpt>
      <trkpt lat="42.86953" lon="0.21491">
        <ele>2672.4</ele>
        <time>2022-02-09T12:08:25Z</time>
      </trkpt>
      <trkpt lat="42.86953" lon="0.21491">
        <ele>2672.4</ele>
        <time>2022-02-09T12:08:26Z</time>
      </trkpt>
      <trkpt lat="42.86953" lon="0.21491">
        <ele>2672.4</ele>
        <time>2022-02-09T12:08:27Z</time>
      </trkpt>
      <trkpt lat="42.86953" lon="0.21491">
        <ele>2672.4</ele>
        <time>2022-02-09T12:08:28Z</time>
      </trkpt>
      <trkpt lat="42.86953" lon="0.21491">
        <ele>2672.4</ele>
        <time>2022-02-09T12:08:29Z</time>
      </trkpt>
      <trkpt lat="42.86953" lon="0.21491">
        <ele>2672.4</ele>
        <time>2022-02-09T12:08:30Z</time>
      </trkpt>
      <trkpt lat="42.86953" lon="0.21491">
        <ele>2672.4</ele>
        <time>2022-02-09T12:08:31Z</time>
      </trkpt>
      <trkpt lat="42.86953" lon="0.21491">
        <ele>2672.4</ele>
        <time>2022-02-09T12:08:32Z</time>
      </trkpt>
      <trkpt lat="42.86953" lon="0.21491">
        <ele>2672.4</ele>
        <time>2022-02-09T12:08:33Z</time>
      </trkpt>
      <trkpt lat="42.86953" lon="0.21491">
        <ele>2672.4</ele>
        <time>2022-02-09T12:08:34Z</time>
      </trkpt>
      <trkpt lat="42.86953" lon="0.21491">
        <ele>2672.4</ele>
        <time>2022-02-09T12:08:35Z</time>
      </trkpt>
      <trkpt lat="42.86953" lon="0.21491">
        <ele>2672.4</ele>
        <time>2022-02-09T12:08:36Z</time>
      </trkpt>
      <trkpt lat="42.86953" lon="0.21491">
        <ele>2672.4</ele>
        <time>2022-02-09T12:08:37Z</time>
      </trkpt>
      <trkpt lat="42.86953" lon="0.21491">
        <ele>2672.4</ele>
        <time>2022-02-09T12:08:38Z</time>
      </trkpt>
      <trkpt lat="42.86953" lon="0.21491">
        <ele>2672.4</ele>
        <time>2022-02-09T12:08:39Z</time>
      </trkpt>
      <trkpt lat="42.86953" lon="0.21491">
        <ele>2672.4</ele>
        <time>2022-02-09T12:08:40Z</time>
      </trkpt>
      <trkpt lat="42.86953" lon="0.21491">
        <ele>2672.4</ele>
        <time>2022-02-09T12:08:41Z</time>
      </trkpt>
      <trkpt lat="42.86953" lon="0.21491">
        <ele>2672.4</ele>
        <time>2022-02-09T12:08:42Z</time>
      </trkpt>
      <trkpt lat="42.86953" lon="0.21491">
        <ele>2672.4</ele>
        <time>2022-02-09T12:08:43Z</time>
      </trkpt>
      <trkpt lat="42.86953" lon="0.21491">
        <ele>2672.4</ele>
        <time>2022-02-09T12:08:44Z</time>
      </trkpt>
      <trkpt lat="42.86953" lon="0.21491">
        <ele>2672.4</ele>
        <time>2022-02-09T12:08:45Z</time>
      </trkpt>
      <trkpt lat="42.86953" lon="0.21491">
        <ele>2672.4</ele>
        <time>2022-02-09T12:08:46Z</time>
      </trkpt>
      <trkpt lat="42.86953" lon="0.21491">
        <ele>2672.4</ele>
        <time>2022-02-09T12:08:47Z</time>
      </trkpt>
      <trkpt lat="42.86953" lon="0.21491">
        <ele>2672.4</ele>
        <time>2022-02-09T12:08:48Z</time>
      </trkpt>
      <trkpt lat="42.86953" lon="0.21491">
        <ele>2672.4</ele>
        <time>2022-02-09T12:08:49Z</time>
      </trkpt>
      <trkpt lat="42.86953" lon="0.21491">
        <ele>2672.4</ele>
        <time>2022-02-09T12:08:50Z</time>
      </trkpt>
      <trkpt lat="42.86953" lon="0.21493">
        <ele>2672.8</ele>
        <time>2022-02-09T12:08:51Z</time>
      </trkpt>
      <trkpt lat="42.86953" lon="0.21498">
        <ele>2673.2</ele>
        <time>2022-02-09T12:08:52Z</time>
      </trkpt>
      <trkpt lat="42.86951" lon="0.21501">
        <ele>2674.1</ele>
        <time>2022-02-09T12:08:53Z</time>
      </trkpt>
      <trkpt lat="42.86948" lon="0.21501">
        <ele>2674.5</ele>
        <time>2022-02-09T12:08:54Z</time>
      </trkpt>
      <trkpt lat="42.86946" lon="0.21499">
        <ele>2674.2</ele>
        <time>2022-02-09T12:08:55Z</time>
      </trkpt>
      <trkpt lat="42.86944" lon="0.21495">
        <ele>2674.3</ele>
        <time>2022-02-09T12:08:56Z</time>
      </trkpt>
      <trkpt lat="42.86943" lon="0.21492">
        <ele>2674</ele>
        <time>2022-02-09T12:08:57Z</time>
      </trkpt>
      <trkpt lat="42.86942" lon="0.2149">
        <ele>2674</ele>
        <time>2022-02-09T12:08:58Z</time>
      </trkpt>
      <trkpt lat="42.86942" lon="0.21488">
        <ele>2674.3</ele>
        <time>2022-02-09T12:08:59Z</time>
      </trkpt>
      <trkpt lat="42.86941" lon="0.21486">
        <ele>2674</ele>
        <time>2022-02-09T12:09:00Z</time>
      </trkpt>
      <trkpt lat="42.8694" lon="0.21483">
        <ele>2673.6</ele>
        <time>2022-02-09T12:09:01Z</time>
      </trkpt>
      <trkpt lat="42.86939" lon="0.21481">
        <ele>2673.6</ele>
        <time>2022-02-09T12:09:02Z</time>
      </trkpt>
      <trkpt lat="42.86939" lon="0.21479">
        <ele>2673.5</ele>
        <time>2022-02-09T12:09:03Z</time>
      </trkpt>
      <trkpt lat="42.86938" lon="0.21476">
        <ele>2673.5</ele>
        <time>2022-02-09T12:09:04Z</time>
      </trkpt>
      <trkpt lat="42.86935" lon="0.21476">
        <ele>2673.9</ele>
        <time>2022-02-09T12:09:05Z</time>
      </trkpt>
      <trkpt lat="42.86933" lon="0.21478">
        <ele>2673.9</ele>
        <time>2022-02-09T12:09:06Z</time>
      </trkpt>
      <trkpt lat="42.86931" lon="0.21481">
        <ele>2674.4</ele>
        <time>2022-02-09T12:09:07Z</time>
      </trkpt>
      <trkpt lat="42.86929" lon="0.21482">
        <ele>2674.6</ele>
        <time>2022-02-09T12:09:08Z</time>
      </trkpt>
      <trkpt lat="42.86926" lon="0.21482">
        <ele>2674.6</ele>
        <time>2022-02-09T12:09:09Z</time>
      </trkpt>
      <trkpt lat="42.86923" lon="0.21478">
        <ele>2674.4</ele>
        <time>2022-02-09T12:09:10Z</time>
      </trkpt>
      <trkpt lat="42.86921" lon="0.21472">
        <ele>2674</ele>
        <time>2022-02-09T12:09:11Z</time>
      </trkpt>
      <trkpt lat="42.86919" lon="0.21467">
        <ele>2673.7</ele>
        <time>2022-02-09T12:09:12Z</time>
      </trkpt>
      <trkpt lat="42.86917" lon="0.21462">
        <ele>2672.9</ele>
        <time>2022-02-09T12:09:13Z</time>
      </trkpt>
      <trkpt lat="42.86916" lon="0.21457">
        <ele>2672.5</ele>
        <time>2022-02-09T12:09:14Z</time>
      </trkpt>
      <trkpt lat="42.86916" lon="0.21453">
        <ele>2672</ele>
        <time>2022-02-09T12:09:15Z</time>
      </trkpt>
      <trkpt lat="42.86914" lon="0.21451">
        <ele>2672</ele>
        <time>2022-02-09T12:09:16Z</time>
      </trkpt>
      <trkpt lat="42.86913" lon="0.21452">
        <ele>2672</ele>
        <time>2022-02-09T12:09:17Z</time>
      </trkpt>
      <trkpt lat="42.86911" lon="0.21455">
        <ele>2672.4</ele>
        <time>2022-02-09T12:09:18Z</time>
      </trkpt>
      <trkpt lat="42.8691" lon="0.21458">
        <ele>2672.7</ele>
        <time>2022-02-09T12:09:19Z</time>
      </trkpt>
      <trkpt lat="42.86909" lon="0.21462">
        <ele>2672.7</ele>
        <time>2022-02-09T12:09:20Z</time>
      </trkpt>
      <trkpt lat="42.86908" lon="0.21464">
        <ele>2673.1</ele>
        <time>2022-02-09T12:09:21Z</time>
      </trkpt>
      <trkpt lat="42.86906" lon="0.21466">
        <ele>2672.8</ele>
        <time>2022-02-09T12:09:22Z</time>
      </trkpt>
      <trkpt lat="42.86904" lon="0.21465">
        <ele>2672.5</ele>
        <time>2022-02-09T12:09:23Z</time>
      </trkpt>
      <trkpt lat="42.86902" lon="0.21463">
        <ele>2672.5</ele>
        <time>2022-02-09T12:09:24Z</time>
      </trkpt>
      <trkpt lat="42.86899" lon="0.21461">
        <ele>2671.8</ele>
        <time>2022-02-09T12:09:25Z</time>
      </trkpt>
      <trkpt lat="42.86896" lon="0.21462">
        <ele>2671.4</ele>
        <time>2022-02-09T12:09:26Z</time>
      </trkpt>
      <trkpt lat="42.86895" lon="0.21465">
        <ele>2671.1</ele>
        <time>2022-02-09T12:09:27Z</time>
      </trkpt>
      <trkpt lat="42.86893" lon="0.21469">
        <ele>2671.3</ele>
        <time>2022-02-09T12:09:28Z</time>
      </trkpt>
      <trkpt lat="42.86893" lon="0.21473">
        <ele>2671.5</ele>
        <time>2022-02-09T12:09:29Z</time>
      </trkpt>
      <trkpt lat="42.86892" lon="0.21478">
        <ele>2671.7</ele>
        <time>2022-02-09T12:09:30Z</time>
      </trkpt>
      <trkpt lat="42.86891" lon="0.21482">
        <ele>2671</ele>
        <time>2022-02-09T12:09:31Z</time>
      </trkpt>
      <trkpt lat="42.8689" lon="0.21484">
        <ele>2671.1</ele>
        <time>2022-02-09T12:09:32Z</time>
      </trkpt>
      <trkpt lat="42.86887" lon="0.21483">
        <ele>2670.2</ele>
        <time>2022-02-09T12:09:33Z</time>
      </trkpt>
      <trkpt lat="42.86884" lon="0.21479">
        <ele>2669.4</ele>
        <time>2022-02-09T12:09:34Z</time>
      </trkpt>
      <trkpt lat="42.86882" lon="0.21474">
        <ele>2668.6</ele>
        <time>2022-02-09T12:09:35Z</time>
      </trkpt>
      <trkpt lat="42.8688" lon="0.21472">
        <ele>2668.6</ele>
        <time>2022-02-09T12:09:36Z</time>
      </trkpt>
      <trkpt lat="42.86878" lon="0.21475">
        <ele>2667.7</ele>
        <time>2022-02-09T12:09:37Z</time>
      </trkpt>
      <trkpt lat="42.86878" lon="0.2148">
        <ele>2667.6</ele>
        <time>2022-02-09T12:09:38Z</time>
      </trkpt>
      <trkpt lat="42.86877" lon="0.21486">
        <ele>2667.6</ele>
        <time>2022-02-09T12:09:39Z</time>
      </trkpt>
      <trkpt lat="42.86878" lon="0.21492">
        <ele>2667.5</ele>
        <time>2022-02-09T12:09:40Z</time>
      </trkpt>
      <trkpt lat="42.86878" lon="0.21498">
        <ele>2667.3</ele>
        <time>2022-02-09T12:09:41Z</time>
      </trkpt>
      <trkpt lat="42.86878" lon="0.21503">
        <ele>2667.2</ele>
        <time>2022-02-09T12:09:42Z</time>
      </trkpt>
      <trkpt lat="42.86876" lon="0.21506">
        <ele>2667.1</ele>
        <time>2022-02-09T12:09:43Z</time>
      </trkpt>
      <trkpt lat="42.86873" lon="0.21506">
        <ele>2664.9</ele>
        <time>2022-02-09T12:09:44Z</time>
      </trkpt>
      <trkpt lat="42.86869" lon="0.21503">
        <ele>2663.9</ele>
        <time>2022-02-09T12:09:45Z</time>
      </trkpt>
      <trkpt lat="42.86865" lon="0.21498">
        <ele>2662.9</ele>
        <time>2022-02-09T12:09:46Z</time>
      </trkpt>
      <trkpt lat="42.86861" lon="0.21494">
        <ele>2661.9</ele>
        <time>2022-02-09T12:09:47Z</time>
      </trkpt>
      <trkpt lat="42.86857" lon="0.2149">
        <ele>2659.6</ele>
        <time>2022-02-09T12:09:48Z</time>
      </trkpt>
      <trkpt lat="42.86854" lon="0.21487">
        <ele>2658.7</ele>
        <time>2022-02-09T12:09:49Z</time>
      </trkpt>
      <trkpt lat="42.86851" lon="0.21488">
        <ele>2658.4</ele>
        <time>2022-02-09T12:09:50Z</time>
      </trkpt>
      <trkpt lat="42.8685" lon="0.21492">
        <ele>2656.6</ele>
        <time>2022-02-09T12:09:51Z</time>
      </trkpt>
      <trkpt lat="42.8685" lon="0.21498">
        <ele>2656.2</ele>
        <time>2022-02-09T12:09:52Z</time>
      </trkpt>
      <trkpt lat="42.86851" lon="0.21504">
        <ele>2655.8</ele>
        <time>2022-02-09T12:09:53Z</time>
      </trkpt>
      <trkpt lat="42.86852" lon="0.21508">
        <ele>2656.8</ele>
        <time>2022-02-09T12:09:54Z</time>
      </trkpt>
      <trkpt lat="42.86852" lon="0.21511">
        <ele>2656.4</ele>
        <time>2022-02-09T12:09:55Z</time>
      </trkpt>
      <trkpt lat="42.86853" lon="0.21513">
        <ele>2656.4</ele>
        <time>2022-02-09T12:09:56Z</time>
      </trkpt>
      <trkpt lat="42.86853" lon="0.21515">
        <ele>2656</ele>
        <time>2022-02-09T12:09:57Z</time>
      </trkpt>
      <trkpt lat="42.86852" lon="0.21519">
        <ele>2655.5</ele>
        <time>2022-02-09T12:09:58Z</time>
      </trkpt>
      <trkpt lat="42.86852" lon="0.21524">
        <ele>2655</ele>
        <time>2022-02-09T12:09:59Z</time>
      </trkpt>
      <trkpt lat="42.86851" lon="0.2153">
        <ele>2654.4</ele>
        <time>2022-02-09T12:10:00Z</time>
      </trkpt>
      <trkpt lat="42.8685" lon="0.21533">
        <ele>2652.1</ele>
        <time>2022-02-09T12:10:01Z</time>
      </trkpt>
      <trkpt lat="42.86847" lon="0.21534">
        <ele>2650.3</ele>
        <time>2022-02-09T12:10:02Z</time>
      </trkpt>
      <trkpt lat="42.86843" lon="0.21531">
        <ele>2648.4</ele>
        <time>2022-02-09T12:10:03Z</time>
      </trkpt>
      <trkpt lat="42.86838" lon="0.21529">
        <ele>2645.3</ele>
        <time>2022-02-09T12:10:04Z</time>
      </trkpt>
      <trkpt lat="42.86834" lon="0.2153">
        <ele>2643.4</ele>
        <time>2022-02-09T12:10:05Z</time>
      </trkpt>
      <trkpt lat="42.86832" lon="0.21536">
        <ele>2639.7</ele>
        <time>2022-02-09T12:10:06Z</time>
      </trkpt>
      <trkpt lat="42.86831" lon="0.21542">
        <ele>2639</ele>
        <time>2022-02-09T12:10:07Z</time>
      </trkpt>
      <trkpt lat="42.86831" lon="0.21546">
        <ele>2638.3</ele>
        <time>2022-02-09T12:10:08Z</time>
      </trkpt>
      <trkpt lat="42.86831" lon="0.21548">
        <ele>2637.5</ele>
        <time>2022-02-09T12:10:09Z</time>
      </trkpt>
      <trkpt lat="42.86832" lon="0.21549">
        <ele>2637.5</ele>
        <time>2022-02-09T12:10:10Z</time>
      </trkpt>
      <trkpt lat="42.86832" lon="0.21549">
        <ele>2637.5</ele>
        <time>2022-02-09T12:10:11Z</time>
      </trkpt>
      <trkpt lat="42.86832" lon="0.21549">
        <ele>2637.5</ele>
        <time>2022-02-09T12:10:12Z</time>
      </trkpt>
      <trkpt lat="42.86832" lon="0.21549">
        <ele>2637.5</ele>
        <time>2022-02-09T12:10:13Z</time>
      </trkpt>
      <trkpt lat="42.86832" lon="0.21549">
        <ele>2637.5</ele>
        <time>2022-02-09T12:10:14Z</time>
      </trkpt>
      <trkpt lat="42.86832" lon="0.21549">
        <ele>2637.5</ele>
        <time>2022-02-09T12:10:15Z</time>
      </trkpt>
      <trkpt lat="42.86832" lon="0.21549">
        <ele>2637.5</ele>
        <time>2022-02-09T12:10:16Z</time>
      </trkpt>
      <trkpt lat="42.86832" lon="0.21549">
        <ele>2637.5</ele>
        <time>2022-02-09T12:10:17Z</time>
      </trkpt>
      <trkpt lat="42.86832" lon="0.21549">
        <ele>2637.5</ele>
        <time>2022-02-09T12:10:18Z</time>
      </trkpt>
      <trkpt lat="42.86832" lon="0.21549">
        <ele>2637.5</ele>
        <time>2022-02-09T12:10:19Z</time>
      </trkpt>
      <trkpt lat="42.86832" lon="0.21549">
        <ele>2637.5</ele>
        <time>2022-02-09T12:10:20Z</time>
      </trkpt>
      <trkpt lat="42.86832" lon="0.21549">
        <ele>2637.5</ele>
        <time>2022-02-09T12:10:21Z</time>
      </trkpt>
      <trkpt lat="42.86832" lon="0.21549">
        <ele>2637.5</ele>
        <time>2022-02-09T12:10:22Z</time>
      </trkpt>
      <trkpt lat="42.86832" lon="0.21549">
        <ele>2637.5</ele>
        <time>2022-02-09T12:10:23Z</time>
      </trkpt>
      <trkpt lat="42.86832" lon="0.21549">
        <ele>2637.5</ele>
        <time>2022-02-09T12:10:24Z</time>
      </trkpt>
      <trkpt lat="42.86832" lon="0.21549">
        <ele>2637.5</ele>
        <time>2022-02-09T12:10:25Z</time>
      </trkpt>
      <trkpt lat="42.86832" lon="0.21549">
        <ele>2637.5</ele>
        <time>2022-02-09T12:10:26Z</time>
      </trkpt>
      <trkpt lat="42.86832" lon="0.21549">
        <ele>2637.5</ele>
        <time>2022-02-09T12:10:27Z</time>
      </trkpt>
      <trkpt lat="42.86832" lon="0.21549">
        <ele>2637.5</ele>
        <time>2022-02-09T12:10:28Z</time>
      </trkpt>
      <trkpt lat="42.86832" lon="0.21549">
        <ele>2637.5</ele>
        <time>2022-02-09T12:10:29Z</time>
      </trkpt>
      <trkpt lat="42.86832" lon="0.21549">
        <ele>2637.5</ele>
        <time>2022-02-09T12:10:30Z</time>
      </trkpt>
      <trkpt lat="42.86832" lon="0.21549">
        <ele>2637.5</ele>
        <time>2022-02-09T12:10:31Z</time>
      </trkpt>
      <trkpt lat="42.86832" lon="0.21549">
        <ele>2637.5</ele>
        <time>2022-02-09T12:10:32Z</time>
      </trkpt>
      <trkpt lat="42.86832" lon="0.21549">
        <ele>2637.5</ele>
        <time>2022-02-09T12:10:33Z</time>
      </trkpt>
      <trkpt lat="42.86832" lon="0.21549">
        <ele>2637.5</ele>
        <time>2022-02-09T12:10:34Z</time>
      </trkpt>
      <trkpt lat="42.86832" lon="0.21549">
        <ele>2637.5</ele>
        <time>2022-02-09T12:10:35Z</time>
      </trkpt>
      <trkpt lat="42.86832" lon="0.21549">
        <ele>2637.5</ele>
        <time>2022-02-09T12:10:36Z</time>
      </trkpt>
      <trkpt lat="42.86832" lon="0.21549">
        <ele>2637.5</ele>
        <time>2022-02-09T12:10:37Z</time>
      </trkpt>
      <trkpt lat="42.86832" lon="0.21549">
        <ele>2637.5</ele>
        <time>2022-02-09T12:10:38Z</time>
      </trkpt>
      <trkpt lat="42.86832" lon="0.21549">
        <ele>2637.5</ele>
        <time>2022-02-09T12:10:39Z</time>
      </trkpt>
      <trkpt lat="42.86832" lon="0.21549">
        <ele>2637.5</ele>
        <time>2022-02-09T12:10:40Z</time>
      </trkpt>
      <trkpt lat="42.86832" lon="0.21549">
        <ele>2637.5</ele>
        <time>2022-02-09T12:10:41Z</time>
      </trkpt>
      <trkpt lat="42.86832" lon="0.21549">
        <ele>2637.5</ele>
        <time>2022-02-09T12:10:42Z</time>
      </trkpt>
      <trkpt lat="42.86832" lon="0.21549">
        <ele>2637.5</ele>
        <time>2022-02-09T12:10:43Z</time>
      </trkpt>
      <trkpt lat="42.86832" lon="0.21549">
        <ele>2637.5</ele>
        <time>2022-02-09T12:10:44Z</time>
      </trkpt>
      <trkpt lat="42.86832" lon="0.21549">
        <ele>2637.5</ele>
        <time>2022-02-09T12:10:45Z</time>
      </trkpt>
      <trkpt lat="42.86832" lon="0.21549">
        <ele>2637.5</ele>
        <time>2022-02-09T12:10:46Z</time>
      </trkpt>
      <trkpt lat="42.86832" lon="0.21549">
        <ele>2637.5</ele>
        <time>2022-02-09T12:10:47Z</time>
      </trkpt>
      <trkpt lat="42.86832" lon="0.21549">
        <ele>2637.5</ele>
        <time>2022-02-09T12:10:48Z</time>
      </trkpt>
      <trkpt lat="42.86832" lon="0.21549">
        <ele>2637.5</ele>
        <time>2022-02-09T12:10:49Z</time>
      </trkpt>
      <trkpt lat="42.86832" lon="0.21549">
        <ele>2637.5</ele>
        <time>2022-02-09T12:10:50Z</time>
      </trkpt>
      <trkpt lat="42.86832" lon="0.21549">
        <ele>2637.5</ele>
        <time>2022-02-09T12:10:51Z</time>
      </trkpt>
      <trkpt lat="42.86832" lon="0.21549">
        <ele>2637.5</ele>
        <time>2022-02-09T12:10:52Z</time>
      </trkpt>
      <trkpt lat="42.86832" lon="0.21549">
        <ele>2637.5</ele>
        <time>2022-02-09T12:10:53Z</time>
      </trkpt>
      <trkpt lat="42.86832" lon="0.21549">
        <ele>2637.5</ele>
        <time>2022-02-09T12:10:54Z</time>
      </trkpt>
      <trkpt lat="42.86832" lon="0.21549">
        <ele>2637.5</ele>
        <time>2022-02-09T12:10:55Z</time>
      </trkpt>
      <trkpt lat="42.86832" lon="0.21549">
        <ele>2637.5</ele>
        <time>2022-02-09T12:10:56Z</time>
      </trkpt>
      <trkpt lat="42.86832" lon="0.21549">
        <ele>2637.5</ele>
        <time>2022-02-09T12:10:57Z</time>
      </trkpt>
      <trkpt lat="42.86832" lon="0.21549">
        <ele>2637.5</ele>
        <time>2022-02-09T12:10:58Z</time>
      </trkpt>
      <trkpt lat="42.86832" lon="0.21549">
        <ele>2637.5</ele>
        <time>2022-02-09T12:10:59Z</time>
      </trkpt>
      <trkpt lat="42.86832" lon="0.21549">
        <ele>2637.5</ele>
        <time>2022-02-09T12:11:00Z</time>
      </trkpt>
      <trkpt lat="42.86832" lon="0.21549">
        <ele>2637.5</ele>
        <time>2022-02-09T12:11:01Z</time>
      </trkpt>
      <trkpt lat="42.86832" lon="0.21549">
        <ele>2637.5</ele>
        <time>2022-02-09T12:11:02Z</time>
      </trkpt>
      <trkpt lat="42.86832" lon="0.21549">
        <ele>2637.5</ele>
        <time>2022-02-09T12:11:03Z</time>
      </trkpt>
      <trkpt lat="42.86832" lon="0.21549">
        <ele>2637.5</ele>
        <time>2022-02-09T12:11:04Z</time>
      </trkpt>
      <trkpt lat="42.86832" lon="0.21549">
        <ele>2637.5</ele>
        <time>2022-02-09T12:11:05Z</time>
      </trkpt>
      <trkpt lat="42.86832" lon="0.21549">
        <ele>2637.5</ele>
        <time>2022-02-09T12:11:06Z</time>
      </trkpt>
      <trkpt lat="42.86832" lon="0.21549">
        <ele>2637.5</ele>
        <time>2022-02-09T12:11:07Z</time>
      </trkpt>
      <trkpt lat="42.86832" lon="0.21549">
        <ele>2637.5</ele>
        <time>2022-02-09T12:11:08Z</time>
      </trkpt>
      <trkpt lat="42.86832" lon="0.21549">
        <ele>2637.5</ele>
        <time>2022-02-09T12:11:09Z</time>
      </trkpt>
      <trkpt lat="42.86832" lon="0.21549">
        <ele>2637.5</ele>
        <time>2022-02-09T12:11:10Z</time>
      </trkpt>
      <trkpt lat="42.86832" lon="0.21549">
        <ele>2637.5</ele>
        <time>2022-02-09T12:11:11Z</time>
      </trkpt>
      <trkpt lat="42.86832" lon="0.21549">
        <ele>2637.5</ele>
        <time>2022-02-09T12:11:12Z</time>
      </trkpt>
      <trkpt lat="42.86832" lon="0.21549">
        <ele>2637.5</ele>
        <time>2022-02-09T12:11:13Z</time>
      </trkpt>
      <trkpt lat="42.86832" lon="0.21549">
        <ele>2637.5</ele>
        <time>2022-02-09T12:11:14Z</time>
      </trkpt>
      <trkpt lat="42.86832" lon="0.21549">
        <ele>2637.5</ele>
        <time>2022-02-09T12:11:15Z</time>
      </trkpt>
      <trkpt lat="42.86832" lon="0.21549">
        <ele>2637.5</ele>
        <time>2022-02-09T12:11:16Z</time>
      </trkpt>
      <trkpt lat="42.86832" lon="0.21549">
        <ele>2637.5</ele>
        <time>2022-02-09T12:11:17Z</time>
      </trkpt>
      <trkpt lat="42.86832" lon="0.21549">
        <ele>2637.5</ele>
        <time>2022-02-09T12:11:18Z</time>
      </trkpt>
      <trkpt lat="42.86832" lon="0.21549">
        <ele>2637.5</ele>
        <time>2022-02-09T12:11:19Z</time>
      </trkpt>
      <trkpt lat="42.86832" lon="0.21549">
        <ele>2637.5</ele>
        <time>2022-02-09T12:11:20Z</time>
      </trkpt>
      <trkpt lat="42.86832" lon="0.21549">
        <ele>2637.5</ele>
        <time>2022-02-09T12:11:21Z</time>
      </trkpt>
      <trkpt lat="42.86832" lon="0.21549">
        <ele>2637.5</ele>
        <time>2022-02-09T12:11:22Z</time>
      </trkpt>
      <trkpt lat="42.86832" lon="0.21549">
        <ele>2637.5</ele>
        <time>2022-02-09T12:11:23Z</time>
      </trkpt>
      <trkpt lat="42.86832" lon="0.21549">
        <ele>2637.5</ele>
        <time>2022-02-09T12:11:24Z</time>
      </trkpt>
      <trkpt lat="42.86832" lon="0.21549">
        <ele>2637.5</ele>
        <time>2022-02-09T12:11:25Z</time>
      </trkpt>
      <trkpt lat="42.86832" lon="0.21549">
        <ele>2637.5</ele>
        <time>2022-02-09T12:11:26Z</time>
      </trkpt>
      <trkpt lat="42.86832" lon="0.21549">
        <ele>2637.5</ele>
        <time>2022-02-09T12:11:27Z</time>
      </trkpt>
      <trkpt lat="42.86832" lon="0.21549">
        <ele>2637.5</ele>
        <time>2022-02-09T12:11:28Z</time>
      </trkpt>
      <trkpt lat="42.86832" lon="0.21549">
        <ele>2637.5</ele>
        <time>2022-02-09T12:11:29Z</time>
      </trkpt>
      <trkpt lat="42.86832" lon="0.21549">
        <ele>2637.5</ele>
        <time>2022-02-09T12:11:30Z</time>
      </trkpt>
      <trkpt lat="42.86832" lon="0.21549">
        <ele>2637.5</ele>
        <time>2022-02-09T12:11:31Z</time>
      </trkpt>
      <trkpt lat="42.86832" lon="0.21549">
        <ele>2637.5</ele>
        <time>2022-02-09T12:11:32Z</time>
      </trkpt>
      <trkpt lat="42.86833" lon="0.2155">
        <ele>2639.7</ele>
        <time>2022-02-09T12:11:33Z</time>
      </trkpt>
      <trkpt lat="42.86834" lon="0.21552">
        <ele>2639</ele>
        <time>2022-02-09T12:11:34Z</time>
      </trkpt>
      <trkpt lat="42.86834" lon="0.21555">
        <ele>2639</ele>
        <time>2022-02-09T12:11:35Z</time>
      </trkpt>
      <trkpt lat="42.86833" lon="0.21558">
        <ele>2638.2</ele>
        <time>2022-02-09T12:11:36Z</time>
      </trkpt>
      <trkpt lat="42.86833" lon="0.21562">
        <ele>2637.4</ele>
        <time>2022-02-09T12:11:37Z</time>
      </trkpt>
      <trkpt lat="42.86833" lon="0.21566">
        <ele>2636.6</ele>
        <time>2022-02-09T12:11:38Z</time>
      </trkpt>
      <trkpt lat="42.86832" lon="0.2157">
        <ele>2635.8</ele>
        <time>2022-02-09T12:11:39Z</time>
      </trkpt>
      <trkpt lat="42.86832" lon="0.21574">
        <ele>2632.6</ele>
        <time>2022-02-09T12:11:40Z</time>
      </trkpt>
      <trkpt lat="42.86832" lon="0.21578">
        <ele>2632.6</ele>
        <time>2022-02-09T12:11:41Z</time>
      </trkpt>
      <trkpt lat="42.86832" lon="0.21579">
        <ele>2631.7</ele>
        <time>2022-02-09T12:11:42Z</time>
      </trkpt>
      <trkpt lat="42.86832" lon="0.2158">
        <ele>2631.7</ele>
        <time>2022-02-09T12:11:43Z</time>
      </trkpt>
      <trkpt lat="42.86832" lon="0.2158">
        <ele>2631.7</ele>
        <time>2022-02-09T12:11:44Z</time>
      </trkpt>
      <trkpt lat="42.86832" lon="0.2158">
        <ele>2631.7</ele>
        <time>2022-02-09T12:11:45Z</time>
      </trkpt>
      <trkpt lat="42.86832" lon="0.2158">
        <ele>2631.7</ele>
        <time>2022-02-09T12:11:46Z</time>
      </trkpt>
      <trkpt lat="42.86832" lon="0.2158">
        <ele>2631.7</ele>
        <time>2022-02-09T12:11:47Z</time>
      </trkpt>
      <trkpt lat="42.86832" lon="0.2158">
        <ele>2631.7</ele>
        <time>2022-02-09T12:11:48Z</time>
      </trkpt>
      <trkpt lat="42.86832" lon="0.2158">
        <ele>2631.7</ele>
        <time>2022-02-09T12:11:49Z</time>
      </trkpt>
      <trkpt lat="42.86832" lon="0.2158">
        <ele>2631.7</ele>
        <time>2022-02-09T12:11:50Z</time>
      </trkpt>
      <trkpt lat="42.86832" lon="0.2158">
        <ele>2631.7</ele>
        <time>2022-02-09T12:11:51Z</time>
      </trkpt>
      <trkpt lat="42.86832" lon="0.2158">
        <ele>2631.7</ele>
        <time>2022-02-09T12:11:52Z</time>
      </trkpt>
      <trkpt lat="42.86832" lon="0.2158">
        <ele>2631.7</ele>
        <time>2022-02-09T12:11:53Z</time>
      </trkpt>
      <trkpt lat="42.86832" lon="0.2158">
        <ele>2631.7</ele>
        <time>2022-02-09T12:11:54Z</time>
      </trkpt>
      <trkpt lat="42.86832" lon="0.2158">
        <ele>2631.7</ele>
        <time>2022-02-09T12:11:55Z</time>
      </trkpt>
      <trkpt lat="42.86832" lon="0.2158">
        <ele>2631.7</ele>
        <time>2022-02-09T12:11:56Z</time>
      </trkpt>
      <trkpt lat="42.86832" lon="0.2158">
        <ele>2631.7</ele>
        <time>2022-02-09T12:11:57Z</time>
      </trkpt>
      <trkpt lat="42.86832" lon="0.2158">
        <ele>2631.7</ele>
        <time>2022-02-09T12:11:58Z</time>
      </trkpt>
      <trkpt lat="42.86832" lon="0.2158">
        <ele>2631.7</ele>
        <time>2022-02-09T12:11:59Z</time>
      </trkpt>
      <trkpt lat="42.86832" lon="0.2158">
        <ele>2631.7</ele>
        <time>2022-02-09T12:12:00Z</time>
      </trkpt>
      <trkpt lat="42.86832" lon="0.2158">
        <ele>2631.7</ele>
        <time>2022-02-09T12:12:01Z</time>
      </trkpt>
      <trkpt lat="42.86832" lon="0.2158">
        <ele>2631.7</ele>
        <time>2022-02-09T12:12:02Z</time>
      </trkpt>
      <trkpt lat="42.86832" lon="0.2158">
        <ele>2631.7</ele>
        <time>2022-02-09T12:12:03Z</time>
      </trkpt>
      <trkpt lat="42.86832" lon="0.2158">
        <ele>2631.7</ele>
        <time>2022-02-09T12:12:04Z</time>
      </trkpt>
      <trkpt lat="42.86832" lon="0.2158">
        <ele>2631.7</ele>
        <time>2022-02-09T12:12:05Z</time>
      </trkpt>
      <trkpt lat="42.86832" lon="0.2158">
        <ele>2631.7</ele>
        <time>2022-02-09T12:12:06Z</time>
      </trkpt>
      <trkpt lat="42.86832" lon="0.2158">
        <ele>2631.7</ele>
        <time>2022-02-09T12:12:07Z</time>
      </trkpt>
      <trkpt lat="42.86832" lon="0.21582">
        <ele>2631.7</ele>
        <time>2022-02-09T12:12:08Z</time>
      </trkpt>
      <trkpt lat="42.86832" lon="0.21584">
        <ele>2630.9</ele>
        <time>2022-02-09T12:12:09Z</time>
      </trkpt>
      <trkpt lat="42.86832" lon="0.21587">
        <ele>2630.1</ele>
        <time>2022-02-09T12:12:10Z</time>
      </trkpt>
      <trkpt lat="42.86832" lon="0.21591">
        <ele>2629.4</ele>
        <time>2022-02-09T12:12:11Z</time>
      </trkpt>
      <trkpt lat="42.86832" lon="0.21595">
        <ele>2629.4</ele>
        <time>2022-02-09T12:12:12Z</time>
      </trkpt>
      <trkpt lat="42.86832" lon="0.216">
        <ele>2628</ele>
        <time>2022-02-09T12:12:13Z</time>
      </trkpt>
      <trkpt lat="42.86832" lon="0.21604">
        <ele>2627.3</ele>
        <time>2022-02-09T12:12:14Z</time>
      </trkpt>
      <trkpt lat="42.86832" lon="0.21609">
        <ele>2626.6</ele>
        <time>2022-02-09T12:12:15Z</time>
      </trkpt>
      <trkpt lat="42.86831" lon="0.21615">
        <ele>2625.9</ele>
        <time>2022-02-09T12:12:16Z</time>
      </trkpt>
      <trkpt lat="42.86831" lon="0.21621">
        <ele>2625.2</ele>
        <time>2022-02-09T12:12:17Z</time>
      </trkpt>
      <trkpt lat="42.86831" lon="0.21627">
        <ele>2623.9</ele>
        <time>2022-02-09T12:12:18Z</time>
      </trkpt>
      <trkpt lat="42.86831" lon="0.21634">
        <ele>2622.6</ele>
        <time>2022-02-09T12:12:19Z</time>
      </trkpt>
      <trkpt lat="42.86831" lon="0.2164">
        <ele>2622</ele>
        <time>2022-02-09T12:12:20Z</time>
      </trkpt>
      <trkpt lat="42.8683" lon="0.21647">
        <ele>2620.6</ele>
        <time>2022-02-09T12:12:21Z</time>
      </trkpt>
      <trkpt lat="42.8683" lon="0.21653">
        <ele>2620</ele>
        <time>2022-02-09T12:12:22Z</time>
      </trkpt>
      <trkpt lat="42.8683" lon="0.21659">
        <ele>2619.3</ele>
        <time>2022-02-09T12:12:23Z</time>
      </trkpt>
      <trkpt lat="42.86829" lon="0.21666">
        <ele>2618</ele>
        <time>2022-02-09T12:12:24Z</time>
      </trkpt>
      <trkpt lat="42.86829" lon="0.21673">
        <ele>2614.6</ele>
        <time>2022-02-09T12:12:25Z</time>
      </trkpt>
      <trkpt lat="42.86828" lon="0.21679">
        <ele>2614.1</ele>
        <time>2022-02-09T12:12:26Z</time>
      </trkpt>
      <trkpt lat="42.86828" lon="0.21686">
        <ele>2613.1</ele>
        <time>2022-02-09T12:12:27Z</time>
      </trkpt>
      <trkpt lat="42.86828" lon="0.21693">
        <ele>2612.6</ele>
        <time>2022-02-09T12:12:28Z</time>
      </trkpt>
      <trkpt lat="42.86828" lon="0.21699">
        <ele>2611.5</ele>
        <time>2022-02-09T12:12:29Z</time>
      </trkpt>
      <trkpt lat="42.86828" lon="0.21706">
        <ele>2610.9</ele>
        <time>2022-02-09T12:12:30Z</time>
      </trkpt>
      <trkpt lat="42.86829" lon="0.21712">
        <ele>2609.8</ele>
        <time>2022-02-09T12:12:31Z</time>
      </trkpt>
      <trkpt lat="42.8683" lon="0.21717">
        <ele>2611.3</ele>
        <time>2022-02-09T12:12:32Z</time>
      </trkpt>
      <trkpt lat="42.8683" lon="0.21722">
        <ele>2610.8</ele>
        <time>2022-02-09T12:12:33Z</time>
      </trkpt>
      <trkpt lat="42.86831" lon="0.21726">
        <ele>2610.2</ele>
        <time>2022-02-09T12:12:34Z</time>
      </trkpt>
      <trkpt lat="42.86831" lon="0.21731">
        <ele>2609.7</ele>
        <time>2022-02-09T12:12:35Z</time>
      </trkpt>
      <trkpt lat="42.86831" lon="0.21735">
        <ele>2609.1</ele>
        <time>2022-02-09T12:12:36Z</time>
      </trkpt>
      <trkpt lat="42.86831" lon="0.2174">
        <ele>2608.6</ele>
        <time>2022-02-09T12:12:37Z</time>
      </trkpt>
      <trkpt lat="42.86832" lon="0.21743">
        <ele>2608</ele>
        <time>2022-02-09T12:12:38Z</time>
      </trkpt>
      <trkpt lat="42.86833" lon="0.21745">
        <ele>2609.4</ele>
        <time>2022-02-09T12:12:39Z</time>
      </trkpt>
      <trkpt lat="42.86833" lon="0.21747">
        <ele>2609.4</ele>
        <time>2022-02-09T12:12:40Z</time>
      </trkpt>
      <trkpt lat="42.86833" lon="0.21748">
        <ele>2609.4</ele>
        <time>2022-02-09T12:12:41Z</time>
      </trkpt>
      <trkpt lat="42.86833" lon="0.21748">
        <ele>2609.4</ele>
        <time>2022-02-09T12:12:42Z</time>
      </trkpt>
      <trkpt lat="42.86833" lon="0.21748">
        <ele>2609.4</ele>
        <time>2022-02-09T12:12:43Z</time>
      </trkpt>
      <trkpt lat="42.86833" lon="0.21748">
        <ele>2609.4</ele>
        <time>2022-02-09T12:12:44Z</time>
      </trkpt>
      <trkpt lat="42.86833" lon="0.21748">
        <ele>2609.4</ele>
        <time>2022-02-09T12:12:45Z</time>
      </trkpt>
      <trkpt lat="42.86833" lon="0.21748">
        <ele>2609.4</ele>
        <time>2022-02-09T12:12:46Z</time>
      </trkpt>
      <trkpt lat="42.86833" lon="0.21748">
        <ele>2609.4</ele>
        <time>2022-02-09T12:12:47Z</time>
      </trkpt>
      <trkpt lat="42.86833" lon="0.21748">
        <ele>2609.4</ele>
        <time>2022-02-09T12:12:48Z</time>
      </trkpt>
      <trkpt lat="42.86833" lon="0.21748">
        <ele>2609.4</ele>
        <time>2022-02-09T12:12:49Z</time>
      </trkpt>
      <trkpt lat="42.86833" lon="0.21748">
        <ele>2609.4</ele>
        <time>2022-02-09T12:12:50Z</time>
      </trkpt>
      <trkpt lat="42.86833" lon="0.21748">
        <ele>2609.4</ele>
        <time>2022-02-09T12:12:51Z</time>
      </trkpt>
      <trkpt lat="42.86833" lon="0.21748">
        <ele>2609.4</ele>
        <time>2022-02-09T12:12:52Z</time>
      </trkpt>
      <trkpt lat="42.86833" lon="0.21748">
        <ele>2609.4</ele>
        <time>2022-02-09T12:12:53Z</time>
      </trkpt>
      <trkpt lat="42.86833" lon="0.21748">
        <ele>2609.4</ele>
        <time>2022-02-09T12:12:54Z</time>
      </trkpt>
      <trkpt lat="42.86833" lon="0.21748">
        <ele>2609.4</ele>
        <time>2022-02-09T12:12:55Z</time>
      </trkpt>
      <trkpt lat="42.86833" lon="0.21748">
        <ele>2609.4</ele>
        <time>2022-02-09T12:12:56Z</time>
      </trkpt>
      <trkpt lat="42.86833" lon="0.21748">
        <ele>2609.4</ele>
        <time>2022-02-09T12:12:57Z</time>
      </trkpt>
      <trkpt lat="42.86833" lon="0.21748">
        <ele>2609.4</ele>
        <time>2022-02-09T12:12:58Z</time>
      </trkpt>
      <trkpt lat="42.86833" lon="0.21748">
        <ele>2609.4</ele>
        <time>2022-02-09T12:12:59Z</time>
      </trkpt>
      <trkpt lat="42.86833" lon="0.21748">
        <ele>2609.4</ele>
        <time>2022-02-09T12:13:00Z</time>
      </trkpt>
      <trkpt lat="42.86833" lon="0.21748">
        <ele>2609.4</ele>
        <time>2022-02-09T12:13:01Z</time>
      </trkpt>
      <trkpt lat="42.86833" lon="0.21748">
        <ele>2609.4</ele>
        <time>2022-02-09T12:13:02Z</time>
      </trkpt>
      <trkpt lat="42.86833" lon="0.21748">
        <ele>2609.4</ele>
        <time>2022-02-09T12:13:03Z</time>
      </trkpt>
      <trkpt lat="42.86834" lon="0.21749">
        <ele>2609.4</ele>
        <time>2022-02-09T12:13:04Z</time>
      </trkpt>
      <trkpt lat="42.86834" lon="0.2175">
        <ele>2608.8</ele>
        <time>2022-02-09T12:13:05Z</time>
      </trkpt>
      <trkpt lat="42.86834" lon="0.21753">
        <ele>2608.8</ele>
        <time>2022-02-09T12:13:06Z</time>
      </trkpt>
      <trkpt lat="42.86834" lon="0.21756">
        <ele>2608.2</ele>
        <time>2022-02-09T12:13:07Z</time>
      </trkpt>
      <trkpt lat="42.86835" lon="0.21759">
        <ele>2607.6</ele>
        <time>2022-02-09T12:13:08Z</time>
      </trkpt>
      <trkpt lat="42.86835" lon="0.21763">
        <ele>2607</ele>
        <time>2022-02-09T12:13:09Z</time>
      </trkpt>
      <trkpt lat="42.86836" lon="0.21767">
        <ele>2608.3</ele>
        <time>2022-02-09T12:13:10Z</time>
      </trkpt>
      <trkpt lat="42.86836" lon="0.2177">
        <ele>2608.3</ele>
        <time>2022-02-09T12:13:11Z</time>
      </trkpt>
      <trkpt lat="42.86837" lon="0.21772">
        <ele>2607.7</ele>
        <time>2022-02-09T12:13:12Z</time>
      </trkpt>
      <trkpt lat="42.86837" lon="0.21774">
        <ele>2607.7</ele>
        <time>2022-02-09T12:13:13Z</time>
      </trkpt>
      <trkpt lat="42.86837" lon="0.21774">
        <ele>2607.7</ele>
        <time>2022-02-09T12:13:14Z</time>
      </trkpt>
      <trkpt lat="42.86837" lon="0.21774">
        <ele>2607.7</ele>
        <time>2022-02-09T12:13:15Z</time>
      </trkpt>
      <trkpt lat="42.86837" lon="0.21774">
        <ele>2607.7</ele>
        <time>2022-02-09T12:13:16Z</time>
      </trkpt>
      <trkpt lat="42.86836" lon="0.21776">
        <ele>2607</ele>
        <time>2022-02-09T12:13:17Z</time>
      </trkpt>
      <trkpt lat="42.86834" lon="0.21777">
        <ele>2605.2</ele>
        <time>2022-02-09T12:13:18Z</time>
      </trkpt>
      <trkpt lat="42.86831" lon="0.21776">
        <ele>2603.2</ele>
        <time>2022-02-09T12:13:19Z</time>
      </trkpt>
      <trkpt lat="42.86828" lon="0.21773">
        <ele>2601.9</ele>
        <time>2022-02-09T12:13:20Z</time>
      </trkpt>
      <trkpt lat="42.86825" lon="0.2177">
        <ele>2600.6</ele>
        <time>2022-02-09T12:13:21Z</time>
      </trkpt>
      <trkpt lat="42.86821" lon="0.21766">
        <ele>2599.3</ele>
        <time>2022-02-09T12:13:22Z</time>
      </trkpt>
      <trkpt lat="42.86817" lon="0.21762">
        <ele>2598.1</ele>
        <time>2022-02-09T12:13:23Z</time>
      </trkpt>
      <trkpt lat="42.86814" lon="0.21758">
        <ele>2596.9</ele>
        <time>2022-02-09T12:13:24Z</time>
      </trkpt>
      <trkpt lat="42.86809" lon="0.21754">
        <ele>2593.4</ele>
        <time>2022-02-09T12:13:25Z</time>
      </trkpt>
      <trkpt lat="42.86805" lon="0.21752">
        <ele>2592.2</ele>
        <time>2022-02-09T12:13:26Z</time>
      </trkpt>
      <trkpt lat="42.86802" lon="0.21754">
        <ele>2590.3</ele>
        <time>2022-02-09T12:13:27Z</time>
      </trkpt>
      <trkpt lat="42.86801" lon="0.21759">
        <ele>2589</ele>
        <time>2022-02-09T12:13:28Z</time>
      </trkpt>
      <trkpt lat="42.86801" lon="0.21765">
        <ele>2588.4</ele>
        <time>2022-02-09T12:13:29Z</time>
      </trkpt>
      <trkpt lat="42.86801" lon="0.21771">
        <ele>2585.9</ele>
        <time>2022-02-09T12:13:30Z</time>
      </trkpt>
      <trkpt lat="42.86798" lon="0.21773">
        <ele>2585.3</ele>
        <time>2022-02-09T12:13:31Z</time>
      </trkpt>
      <trkpt lat="42.86793" lon="0.21773">
        <ele>2582</ele>
        <time>2022-02-09T12:13:32Z</time>
      </trkpt>
      <trkpt lat="42.86788" lon="0.21773">
        <ele>2578.4</ele>
        <time>2022-02-09T12:13:33Z</time>
      </trkpt>
      <trkpt lat="42.86784" lon="0.21776">
        <ele>2576.2</ele>
        <time>2022-02-09T12:13:34Z</time>
      </trkpt>
      <trkpt lat="42.8678" lon="0.21779">
        <ele>2574.7</ele>
        <time>2022-02-09T12:13:35Z</time>
      </trkpt>
      <trkpt lat="42.86776" lon="0.21782">
        <ele>2572.5</ele>
        <time>2022-02-09T12:13:36Z</time>
      </trkpt>
      <trkpt lat="42.86772" lon="0.21784">
        <ele>2569.1</ele>
        <time>2022-02-09T12:13:37Z</time>
      </trkpt>
      <trkpt lat="42.8677" lon="0.21788">
        <ele>2569.1</ele>
        <time>2022-02-09T12:13:38Z</time>
      </trkpt>
      <trkpt lat="42.8677" lon="0.21793">
        <ele>2568.4</ele>
        <time>2022-02-09T12:13:39Z</time>
      </trkpt>
      <trkpt lat="42.86768" lon="0.21798">
        <ele>2567.6</ele>
        <time>2022-02-09T12:13:40Z</time>
      </trkpt>
      <trkpt lat="42.86766" lon="0.21801">
        <ele>2566.9</ele>
        <time>2022-02-09T12:13:41Z</time>
      </trkpt>
      <trkpt lat="42.86764" lon="0.21806">
        <ele>2566.1</ele>
        <time>2022-02-09T12:13:42Z</time>
      </trkpt>
      <trkpt lat="42.86765" lon="0.21812">
        <ele>2565.2</ele>
        <time>2022-02-09T12:13:43Z</time>
      </trkpt>
      <trkpt lat="42.86765" lon="0.21818">
        <ele>2564.3</ele>
        <time>2022-02-09T12:13:44Z</time>
      </trkpt>
      <trkpt lat="42.86763" lon="0.21821">
        <ele>2563.6</ele>
        <time>2022-02-09T12:13:45Z</time>
      </trkpt>
      <trkpt lat="42.86759" lon="0.21824">
        <ele>2562.7</ele>
        <time>2022-02-09T12:13:46Z</time>
      </trkpt>
      <trkpt lat="42.86756" lon="0.21829">
        <ele>2561.6</ele>
        <time>2022-02-09T12:13:47Z</time>
      </trkpt>
      <trkpt lat="42.86756" lon="0.21838">
        <ele>2560.4</ele>
        <time>2022-02-09T12:13:48Z</time>
      </trkpt>
      <trkpt lat="42.86758" lon="0.21846">
        <ele>2559.1</ele>
        <time>2022-02-09T12:13:49Z</time>
      </trkpt>
      <trkpt lat="42.86762" lon="0.21854">
        <ele>2557.7</ele>
        <time>2022-02-09T12:13:50Z</time>
      </trkpt>
      <trkpt lat="42.86765" lon="0.21862">
        <ele>2556.4</ele>
        <time>2022-02-09T12:13:51Z</time>
      </trkpt>
      <trkpt lat="42.86767" lon="0.21869">
        <ele>2555.8</ele>
        <time>2022-02-09T12:13:52Z</time>
      </trkpt>
      <trkpt lat="42.86769" lon="0.21874">
        <ele>2554.5</ele>
        <time>2022-02-09T12:13:53Z</time>
      </trkpt>
      <trkpt lat="42.86771" lon="0.21877">
        <ele>2553.7</ele>
        <time>2022-02-09T12:13:54Z</time>
      </trkpt>
      <trkpt lat="42.86772" lon="0.21879">
        <ele>2553.2</ele>
        <time>2022-02-09T12:13:55Z</time>
      </trkpt>
      <trkpt lat="42.86773" lon="0.2188">
        <ele>2552.9</ele>
        <time>2022-02-09T12:13:56Z</time>
      </trkpt>
      <trkpt lat="42.86773" lon="0.2188">
        <ele>2552.8</ele>
        <time>2022-02-09T12:13:57Z</time>
      </trkpt>
      <trkpt lat="42.86773" lon="0.21881">
        <ele>2552.7</ele>
        <time>2022-02-09T12:13:58Z</time>
      </trkpt>
      <trkpt lat="42.86773" lon="0.21881">
        <ele>2552.7</ele>
        <time>2022-02-09T12:13:59Z</time>
      </trkpt>
      <trkpt lat="42.86773" lon="0.21881">
        <ele>2552.7</ele>
        <time>2022-02-09T12:14:00Z</time>
      </trkpt>
      <trkpt lat="42.86773" lon="0.21881">
        <ele>2552.7</ele>
        <time>2022-02-09T12:14:01Z</time>
      </trkpt>
      <trkpt lat="42.86773" lon="0.21881">
        <ele>2552.7</ele>
        <time>2022-02-09T12:14:02Z</time>
      </trkpt>
      <trkpt lat="42.86773" lon="0.21881">
        <ele>2552.7</ele>
        <time>2022-02-09T12:14:03Z</time>
      </trkpt>
      <trkpt lat="42.86773" lon="0.21881">
        <ele>2552.7</ele>
        <time>2022-02-09T12:14:04Z</time>
      </trkpt>
      <trkpt lat="42.86773" lon="0.21881">
        <ele>2552.7</ele>
        <time>2022-02-09T12:14:05Z</time>
      </trkpt>
      <trkpt lat="42.86773" lon="0.21881">
        <ele>2552.7</ele>
        <time>2022-02-09T12:14:06Z</time>
      </trkpt>
      <trkpt lat="42.86773" lon="0.21881">
        <ele>2552.7</ele>
        <time>2022-02-09T12:14:07Z</time>
      </trkpt>
      <trkpt lat="42.86773" lon="0.21882">
        <ele>2552.3</ele>
        <time>2022-02-09T12:14:08Z</time>
      </trkpt>
      <trkpt lat="42.8677" lon="0.21885">
        <ele>2551.3</ele>
        <time>2022-02-09T12:14:09Z</time>
      </trkpt>
      <trkpt lat="42.86765" lon="0.21884">
        <ele>2549.9</ele>
        <time>2022-02-09T12:14:10Z</time>
      </trkpt>
      <trkpt lat="42.8676" lon="0.21882">
        <ele>2548.3</ele>
        <time>2022-02-09T12:14:11Z</time>
      </trkpt>
      <trkpt lat="42.86756" lon="0.21884">
        <ele>2547</ele>
        <time>2022-02-09T12:14:12Z</time>
      </trkpt>
      <trkpt lat="42.86754" lon="0.21891">
        <ele>2545.5</ele>
        <time>2022-02-09T12:14:13Z</time>
      </trkpt>
      <trkpt lat="42.86752" lon="0.21898">
        <ele>2544.2</ele>
        <time>2022-02-09T12:14:14Z</time>
      </trkpt>
      <trkpt lat="42.86748" lon="0.21902">
        <ele>2543.2</ele>
        <time>2022-02-09T12:14:15Z</time>
      </trkpt>
      <trkpt lat="42.86742" lon="0.21903">
        <ele>2542.3</ele>
        <time>2022-02-09T12:14:16Z</time>
      </trkpt>
      <trkpt lat="42.86737" lon="0.21905">
        <ele>2541.6</ele>
        <time>2022-02-09T12:14:17Z</time>
      </trkpt>
      <trkpt lat="42.86734" lon="0.2191">
        <ele>2540.9</ele>
        <time>2022-02-09T12:14:18Z</time>
      </trkpt>
      <trkpt lat="42.86734" lon="0.21917">
        <ele>2540.1</ele>
        <time>2022-02-09T12:14:19Z</time>
      </trkpt>
      <trkpt lat="42.86736" lon="0.21924">
        <ele>2539.1</ele>
        <time>2022-02-09T12:14:20Z</time>
      </trkpt>
      <trkpt lat="42.86738" lon="0.21932">
        <ele>2538</ele>
        <time>2022-02-09T12:14:21Z</time>
      </trkpt>
      <trkpt lat="42.86737" lon="0.21939">
        <ele>2536.8</ele>
        <time>2022-02-09T12:14:22Z</time>
      </trkpt>
      <trkpt lat="42.86735" lon="0.21946">
        <ele>2535.6</ele>
        <time>2022-02-09T12:14:23Z</time>
      </trkpt>
      <trkpt lat="42.86735" lon="0.21954">
        <ele>2534.4</ele>
        <time>2022-02-09T12:14:24Z</time>
      </trkpt>
      <trkpt lat="42.86735" lon="0.21964">
        <ele>2532.9</ele>
        <time>2022-02-09T12:14:25Z</time>
      </trkpt>
      <trkpt lat="42.86733" lon="0.21974">
        <ele>2531.5</ele>
        <time>2022-02-09T12:14:26Z</time>
      </trkpt>
      <trkpt lat="42.8673" lon="0.21985">
        <ele>2530</ele>
        <time>2022-02-09T12:14:27Z</time>
      </trkpt>
      <trkpt lat="42.86727" lon="0.21995">
        <ele>2528.5</ele>
        <time>2022-02-09T12:14:28Z</time>
      </trkpt>
      <trkpt lat="42.86725" lon="0.22006">
        <ele>2527.1</ele>
        <time>2022-02-09T12:14:29Z</time>
      </trkpt>
      <trkpt lat="42.86723" lon="0.22016">
        <ele>2525.7</ele>
        <time>2022-02-09T12:14:30Z</time>
      </trkpt>
      <trkpt lat="42.86721" lon="0.22025">
        <ele>2524.5</ele>
        <time>2022-02-09T12:14:31Z</time>
      </trkpt>
      <trkpt lat="42.86718" lon="0.22034">
        <ele>2523.2</ele>
        <time>2022-02-09T12:14:32Z</time>
      </trkpt>
      <trkpt lat="42.86716" lon="0.22042">
        <ele>2522.1</ele>
        <time>2022-02-09T12:14:33Z</time>
      </trkpt>
      <trkpt lat="42.86714" lon="0.22049">
        <ele>2521.1</ele>
        <time>2022-02-09T12:14:34Z</time>
      </trkpt>
      <trkpt lat="42.86713" lon="0.22056">
        <ele>2520.2</ele>
        <time>2022-02-09T12:14:35Z</time>
      </trkpt>
      <trkpt lat="42.86714" lon="0.2206">
        <ele>2519.6</ele>
        <time>2022-02-09T12:14:36Z</time>
      </trkpt>
      <trkpt lat="42.86715" lon="0.22061">
        <ele>2519.3</ele>
        <time>2022-02-09T12:14:37Z</time>
      </trkpt>
      <trkpt lat="42.86717" lon="0.22061">
        <ele>2518.9</ele>
        <time>2022-02-09T12:14:38Z</time>
      </trkpt>
      <trkpt lat="42.86718" lon="0.2206">
        <ele>2518.7</ele>
        <time>2022-02-09T12:14:39Z</time>
      </trkpt>
      <trkpt lat="42.86719" lon="0.22059">
        <ele>2518.6</ele>
        <time>2022-02-09T12:14:40Z</time>
      </trkpt>
      <trkpt lat="42.86719" lon="0.22059">
        <ele>2518.5</ele>
        <time>2022-02-09T12:14:41Z</time>
      </trkpt>
      <trkpt lat="42.86719" lon="0.22059">
        <ele>2518.5</ele>
        <time>2022-02-09T12:14:42Z</time>
      </trkpt>
      <trkpt lat="42.86719" lon="0.22059">
        <ele>2518.5</ele>
        <time>2022-02-09T12:14:43Z</time>
      </trkpt>
      <trkpt lat="42.86719" lon="0.22059">
        <ele>2518.5</ele>
        <time>2022-02-09T12:14:44Z</time>
      </trkpt>
      <trkpt lat="42.86719" lon="0.22059">
        <ele>2518.5</ele>
        <time>2022-02-09T12:14:45Z</time>
      </trkpt>
      <trkpt lat="42.86719" lon="0.22059">
        <ele>2518.5</ele>
        <time>2022-02-09T12:14:46Z</time>
      </trkpt>
      <trkpt lat="42.86719" lon="0.22059">
        <ele>2518.5</ele>
        <time>2022-02-09T12:14:47Z</time>
      </trkpt>
      <trkpt lat="42.86719" lon="0.22059">
        <ele>2518.5</ele>
        <time>2022-02-09T12:14:48Z</time>
      </trkpt>
      <trkpt lat="42.86719" lon="0.22059">
        <ele>2518.5</ele>
        <time>2022-02-09T12:14:49Z</time>
      </trkpt>
      <trkpt lat="42.86719" lon="0.22059">
        <ele>2518.5</ele>
        <time>2022-02-09T12:14:50Z</time>
      </trkpt>
      <trkpt lat="42.86719" lon="0.22059">
        <ele>2518.5</ele>
        <time>2022-02-09T12:14:51Z</time>
      </trkpt>
      <trkpt lat="42.86719" lon="0.22059">
        <ele>2518.5</ele>
        <time>2022-02-09T12:14:52Z</time>
      </trkpt>
      <trkpt lat="42.86719" lon="0.22059">
        <ele>2518.5</ele>
        <time>2022-02-09T12:14:53Z</time>
      </trkpt>
      <trkpt lat="42.86719" lon="0.22059">
        <ele>2518.5</ele>
        <time>2022-02-09T12:14:54Z</time>
      </trkpt>
      <trkpt lat="42.86719" lon="0.22059">
        <ele>2518.5</ele>
        <time>2022-02-09T12:14:55Z</time>
      </trkpt>
      <trkpt lat="42.86719" lon="0.22059">
        <ele>2518.5</ele>
        <time>2022-02-09T12:14:56Z</time>
      </trkpt>
      <trkpt lat="42.86719" lon="0.22059">
        <ele>2518.5</ele>
        <time>2022-02-09T12:14:57Z</time>
      </trkpt>
      <trkpt lat="42.86719" lon="0.22059">
        <ele>2518.5</ele>
        <time>2022-02-09T12:14:58Z</time>
      </trkpt>
      <trkpt lat="42.86719" lon="0.22059">
        <ele>2518.5</ele>
        <time>2022-02-09T12:14:59Z</time>
      </trkpt>
      <trkpt lat="42.86719" lon="0.22059">
        <ele>2518.5</ele>
        <time>2022-02-09T12:15:00Z</time>
      </trkpt>
      <trkpt lat="42.86719" lon="0.22059">
        <ele>2518.5</ele>
        <time>2022-02-09T12:15:01Z</time>
      </trkpt>
      <trkpt lat="42.86719" lon="0.22059">
        <ele>2518.5</ele>
        <time>2022-02-09T12:15:02Z</time>
      </trkpt>
      <trkpt lat="42.86719" lon="0.22059">
        <ele>2518.5</ele>
        <time>2022-02-09T12:15:03Z</time>
      </trkpt>
      <trkpt lat="42.86719" lon="0.22059">
        <ele>2518.5</ele>
        <time>2022-02-09T12:15:04Z</time>
      </trkpt>
      <trkpt lat="42.86719" lon="0.22059">
        <ele>2518.5</ele>
        <time>2022-02-09T12:15:05Z</time>
      </trkpt>
      <trkpt lat="42.86719" lon="0.22059">
        <ele>2518.5</ele>
        <time>2022-02-09T12:15:06Z</time>
      </trkpt>
      <trkpt lat="42.86719" lon="0.22059">
        <ele>2518.5</ele>
        <time>2022-02-09T12:15:07Z</time>
      </trkpt>
      <trkpt lat="42.86719" lon="0.22059">
        <ele>2518.5</ele>
        <time>2022-02-09T12:15:08Z</time>
      </trkpt>
      <trkpt lat="42.86719" lon="0.22059">
        <ele>2518.5</ele>
        <time>2022-02-09T12:15:09Z</time>
      </trkpt>
      <trkpt lat="42.86719" lon="0.22059">
        <ele>2518.5</ele>
        <time>2022-02-09T12:15:10Z</time>
      </trkpt>
      <trkpt lat="42.86719" lon="0.22059">
        <ele>2518.5</ele>
        <time>2022-02-09T12:15:11Z</time>
      </trkpt>
      <trkpt lat="42.86719" lon="0.22059">
        <ele>2518.5</ele>
        <time>2022-02-09T12:15:12Z</time>
      </trkpt>
      <trkpt lat="42.86719" lon="0.22059">
        <ele>2518.5</ele>
        <time>2022-02-09T12:15:13Z</time>
      </trkpt>
      <trkpt lat="42.86719" lon="0.22059">
        <ele>2518.5</ele>
        <time>2022-02-09T12:15:14Z</time>
      </trkpt>
      <trkpt lat="42.86719" lon="0.22059">
        <ele>2518.5</ele>
        <time>2022-02-09T12:15:15Z</time>
      </trkpt>
      <trkpt lat="42.86719" lon="0.22059">
        <ele>2518.5</ele>
        <time>2022-02-09T12:15:16Z</time>
      </trkpt>
      <trkpt lat="42.86719" lon="0.22059">
        <ele>2518.5</ele>
        <time>2022-02-09T12:15:17Z</time>
      </trkpt>
      <trkpt lat="42.86719" lon="0.22059">
        <ele>2518.5</ele>
        <time>2022-02-09T12:15:18Z</time>
      </trkpt>
      <trkpt lat="42.86719" lon="0.22059">
        <ele>2518.5</ele>
        <time>2022-02-09T12:15:19Z</time>
      </trkpt>
      <trkpt lat="42.86719" lon="0.22059">
        <ele>2518.5</ele>
        <time>2022-02-09T12:15:20Z</time>
      </trkpt>
      <trkpt lat="42.86719" lon="0.22059">
        <ele>2518.5</ele>
        <time>2022-02-09T12:15:21Z</time>
      </trkpt>
      <trkpt lat="42.86719" lon="0.22059">
        <ele>2518.5</ele>
        <time>2022-02-09T12:15:22Z</time>
      </trkpt>
      <trkpt lat="42.86719" lon="0.22059">
        <ele>2518.5</ele>
        <time>2022-02-09T12:15:23Z</time>
      </trkpt>
      <trkpt lat="42.86719" lon="0.22059">
        <ele>2518.5</ele>
        <time>2022-02-09T12:15:24Z</time>
      </trkpt>
      <trkpt lat="42.86719" lon="0.22059">
        <ele>2518.5</ele>
        <time>2022-02-09T12:15:25Z</time>
      </trkpt>
      <trkpt lat="42.86719" lon="0.22059">
        <ele>2518.5</ele>
        <time>2022-02-09T12:15:26Z</time>
      </trkpt>
      <trkpt lat="42.86719" lon="0.22059">
        <ele>2518.5</ele>
        <time>2022-02-09T12:15:27Z</time>
      </trkpt>
      <trkpt lat="42.86719" lon="0.22059">
        <ele>2518.5</ele>
        <time>2022-02-09T12:15:28Z</time>
      </trkpt>
      <trkpt lat="42.86719" lon="0.22059">
        <ele>2518.5</ele>
        <time>2022-02-09T12:15:29Z</time>
      </trkpt>
      <trkpt lat="42.86719" lon="0.22059">
        <ele>2518.5</ele>
        <time>2022-02-09T12:15:30Z</time>
      </trkpt>
      <trkpt lat="42.86719" lon="0.22059">
        <ele>2518.5</ele>
        <time>2022-02-09T12:15:31Z</time>
      </trkpt>
      <trkpt lat="42.86719" lon="0.22059">
        <ele>2518.5</ele>
        <time>2022-02-09T12:15:32Z</time>
      </trkpt>
      <trkpt lat="42.86719" lon="0.22059">
        <ele>2518.5</ele>
        <time>2022-02-09T12:15:33Z</time>
      </trkpt>
      <trkpt lat="42.86719" lon="0.22059">
        <ele>2518.5</ele>
        <time>2022-02-09T12:15:34Z</time>
      </trkpt>
      <trkpt lat="42.86719" lon="0.22059">
        <ele>2518.5</ele>
        <time>2022-02-09T12:15:35Z</time>
      </trkpt>
      <trkpt lat="42.86719" lon="0.22059">
        <ele>2518.5</ele>
        <time>2022-02-09T12:15:36Z</time>
      </trkpt>
      <trkpt lat="42.86719" lon="0.22059">
        <ele>2518.5</ele>
        <time>2022-02-09T12:15:37Z</time>
      </trkpt>
      <trkpt lat="42.86719" lon="0.22059">
        <ele>2518.5</ele>
        <time>2022-02-09T12:15:38Z</time>
      </trkpt>
      <trkpt lat="42.86719" lon="0.22059">
        <ele>2518.5</ele>
        <time>2022-02-09T12:15:39Z</time>
      </trkpt>
      <trkpt lat="42.86719" lon="0.22059">
        <ele>2518.5</ele>
        <time>2022-02-09T12:15:40Z</time>
      </trkpt>
      <trkpt lat="42.86719" lon="0.22059">
        <ele>2518.5</ele>
        <time>2022-02-09T12:15:41Z</time>
      </trkpt>
      <trkpt lat="42.86719" lon="0.22059">
        <ele>2518.5</ele>
        <time>2022-02-09T12:15:42Z</time>
      </trkpt>
      <trkpt lat="42.86719" lon="0.22059">
        <ele>2518.5</ele>
        <time>2022-02-09T12:15:43Z</time>
      </trkpt>
      <trkpt lat="42.86719" lon="0.22059">
        <ele>2518.5</ele>
        <time>2022-02-09T12:15:44Z</time>
      </trkpt>
      <trkpt lat="42.86719" lon="0.22059">
        <ele>2518.5</ele>
        <time>2022-02-09T12:15:45Z</time>
      </trkpt>
      <trkpt lat="42.86719" lon="0.22059">
        <ele>2518.5</ele>
        <time>2022-02-09T12:15:46Z</time>
      </trkpt>
      <trkpt lat="42.86719" lon="0.22059">
        <ele>2518.5</ele>
        <time>2022-02-09T12:15:47Z</time>
      </trkpt>
      <trkpt lat="42.86719" lon="0.22059">
        <ele>2518.5</ele>
        <time>2022-02-09T12:15:48Z</time>
      </trkpt>
      <trkpt lat="42.86719" lon="0.22059">
        <ele>2518.5</ele>
        <time>2022-02-09T12:15:49Z</time>
      </trkpt>
      <trkpt lat="42.86719" lon="0.22059">
        <ele>2518.5</ele>
        <time>2022-02-09T12:15:50Z</time>
      </trkpt>
      <trkpt lat="42.86719" lon="0.22059">
        <ele>2518.5</ele>
        <time>2022-02-09T12:15:51Z</time>
      </trkpt>
      <trkpt lat="42.86719" lon="0.22059">
        <ele>2518.5</ele>
        <time>2022-02-09T12:15:52Z</time>
      </trkpt>
      <trkpt lat="42.86719" lon="0.22059">
        <ele>2518.5</ele>
        <time>2022-02-09T12:15:53Z</time>
      </trkpt>
      <trkpt lat="42.86719" lon="0.22059">
        <ele>2518.5</ele>
        <time>2022-02-09T12:15:54Z</time>
      </trkpt>
      <trkpt lat="42.86719" lon="0.22059">
        <ele>2518.5</ele>
        <time>2022-02-09T12:15:55Z</time>
      </trkpt>
      <trkpt lat="42.86719" lon="0.22059">
        <ele>2518.5</ele>
        <time>2022-02-09T12:15:56Z</time>
      </trkpt>
      <trkpt lat="42.86719" lon="0.22059">
        <ele>2518.5</ele>
        <time>2022-02-09T12:15:57Z</time>
      </trkpt>
      <trkpt lat="42.86719" lon="0.22059">
        <ele>2518.5</ele>
        <time>2022-02-09T12:15:58Z</time>
      </trkpt>
      <trkpt lat="42.86719" lon="0.22059">
        <ele>2518.5</ele>
        <time>2022-02-09T12:15:59Z</time>
      </trkpt>
      <trkpt lat="42.86719" lon="0.22059">
        <ele>2518.5</ele>
        <time>2022-02-09T12:16:00Z</time>
      </trkpt>
      <trkpt lat="42.86719" lon="0.22059">
        <ele>2518.5</ele>
        <time>2022-02-09T12:16:01Z</time>
      </trkpt>
      <trkpt lat="42.86719" lon="0.22059">
        <ele>2518.5</ele>
        <time>2022-02-09T12:16:02Z</time>
      </trkpt>
      <trkpt lat="42.86719" lon="0.22059">
        <ele>2518.5</ele>
        <time>2022-02-09T12:16:03Z</time>
      </trkpt>
      <trkpt lat="42.86719" lon="0.22059">
        <ele>2518.5</ele>
        <time>2022-02-09T12:16:04Z</time>
      </trkpt>
      <trkpt lat="42.86719" lon="0.22059">
        <ele>2518.5</ele>
        <time>2022-02-09T12:16:05Z</time>
      </trkpt>
      <trkpt lat="42.86719" lon="0.22059">
        <ele>2518.5</ele>
        <time>2022-02-09T12:16:06Z</time>
      </trkpt>
      <trkpt lat="42.86719" lon="0.22059">
        <ele>2518.5</ele>
        <time>2022-02-09T12:16:07Z</time>
      </trkpt>
      <trkpt lat="42.86719" lon="0.22059">
        <ele>2518.5</ele>
        <time>2022-02-09T12:16:08Z</time>
      </trkpt>
      <trkpt lat="42.86719" lon="0.22059">
        <ele>2518.5</ele>
        <time>2022-02-09T12:16:09Z</time>
      </trkpt>
      <trkpt lat="42.86719" lon="0.22059">
        <ele>2518.5</ele>
        <time>2022-02-09T12:16:10Z</time>
      </trkpt>
      <trkpt lat="42.86719" lon="0.22059">
        <ele>2518.5</ele>
        <time>2022-02-09T12:16:11Z</time>
      </trkpt>
      <trkpt lat="42.86719" lon="0.22059">
        <ele>2518.5</ele>
        <time>2022-02-09T12:16:12Z</time>
      </trkpt>
      <trkpt lat="42.86719" lon="0.22059">
        <ele>2518.5</ele>
        <time>2022-02-09T12:16:13Z</time>
      </trkpt>
      <trkpt lat="42.86719" lon="0.22059">
        <ele>2518.5</ele>
        <time>2022-02-09T12:16:14Z</time>
      </trkpt>
      <trkpt lat="42.86719" lon="0.22059">
        <ele>2518.5</ele>
        <time>2022-02-09T12:16:15Z</time>
      </trkpt>
      <trkpt lat="42.86719" lon="0.22059">
        <ele>2518.5</ele>
        <time>2022-02-09T12:16:16Z</time>
      </trkpt>
      <trkpt lat="42.86719" lon="0.22059">
        <ele>2518.5</ele>
        <time>2022-02-09T12:16:17Z</time>
      </trkpt>
      <trkpt lat="42.86719" lon="0.22059">
        <ele>2518.5</ele>
        <time>2022-02-09T12:16:18Z</time>
      </trkpt>
      <trkpt lat="42.86719" lon="0.22059">
        <ele>2518.5</ele>
        <time>2022-02-09T12:16:19Z</time>
      </trkpt>
      <trkpt lat="42.86719" lon="0.22059">
        <ele>2518.5</ele>
        <time>2022-02-09T12:16:20Z</time>
      </trkpt>
      <trkpt lat="42.86719" lon="0.22059">
        <ele>2518.5</ele>
        <time>2022-02-09T12:16:21Z</time>
      </trkpt>
      <trkpt lat="42.86719" lon="0.22059">
        <ele>2518.5</ele>
        <time>2022-02-09T12:16:22Z</time>
      </trkpt>
      <trkpt lat="42.86719" lon="0.22059">
        <ele>2518.5</ele>
        <time>2022-02-09T12:16:23Z</time>
      </trkpt>
      <trkpt lat="42.86719" lon="0.22059">
        <ele>2518.5</ele>
        <time>2022-02-09T12:16:24Z</time>
      </trkpt>
      <trkpt lat="42.86719" lon="0.22059">
        <ele>2518.5</ele>
        <time>2022-02-09T12:16:25Z</time>
      </trkpt>
      <trkpt lat="42.86719" lon="0.22059">
        <ele>2518.5</ele>
        <time>2022-02-09T12:16:26Z</time>
      </trkpt>
      <trkpt lat="42.86719" lon="0.22059">
        <ele>2518.5</ele>
        <time>2022-02-09T12:16:27Z</time>
      </trkpt>
      <trkpt lat="42.86719" lon="0.22059">
        <ele>2518.5</ele>
        <time>2022-02-09T12:16:28Z</time>
      </trkpt>
      <trkpt lat="42.86719" lon="0.22059">
        <ele>2518.5</ele>
        <time>2022-02-09T12:16:29Z</time>
      </trkpt>
      <trkpt lat="42.86719" lon="0.22059">
        <ele>2518.5</ele>
        <time>2022-02-09T12:16:30Z</time>
      </trkpt>
      <trkpt lat="42.86719" lon="0.22059">
        <ele>2518.5</ele>
        <time>2022-02-09T12:16:31Z</time>
      </trkpt>
      <trkpt lat="42.86719" lon="0.22059">
        <ele>2518.5</ele>
        <time>2022-02-09T12:16:32Z</time>
      </trkpt>
      <trkpt lat="42.86719" lon="0.22059">
        <ele>2518.5</ele>
        <time>2022-02-09T12:16:33Z</time>
      </trkpt>
      <trkpt lat="42.86719" lon="0.22059">
        <ele>2518.5</ele>
        <time>2022-02-09T12:16:34Z</time>
      </trkpt>
      <trkpt lat="42.86719" lon="0.22059">
        <ele>2518.5</ele>
        <time>2022-02-09T12:16:35Z</time>
      </trkpt>
      <trkpt lat="42.86719" lon="0.22059">
        <ele>2518.5</ele>
        <time>2022-02-09T12:16:36Z</time>
      </trkpt>
      <trkpt lat="42.86719" lon="0.22059">
        <ele>2518.5</ele>
        <time>2022-02-09T12:16:37Z</time>
      </trkpt>
      <trkpt lat="42.86719" lon="0.22059">
        <ele>2518.5</ele>
        <time>2022-02-09T12:16:38Z</time>
      </trkpt>
      <trkpt lat="42.86719" lon="0.22059">
        <ele>2518.5</ele>
        <time>2022-02-09T12:16:39Z</time>
      </trkpt>
      <trkpt lat="42.86719" lon="0.22059">
        <ele>2518.5</ele>
        <time>2022-02-09T12:16:40Z</time>
      </trkpt>
      <trkpt lat="42.86719" lon="0.22059">
        <ele>2518.5</ele>
        <time>2022-02-09T12:16:41Z</time>
      </trkpt>
      <trkpt lat="42.86719" lon="0.22059">
        <ele>2518.5</ele>
        <time>2022-02-09T12:16:42Z</time>
      </trkpt>
      <trkpt lat="42.86719" lon="0.22059">
        <ele>2518.5</ele>
        <time>2022-02-09T12:16:43Z</time>
      </trkpt>
      <trkpt lat="42.86719" lon="0.22059">
        <ele>2518.5</ele>
        <time>2022-02-09T12:16:44Z</time>
      </trkpt>
      <trkpt lat="42.86719" lon="0.22059">
        <ele>2518.5</ele>
        <time>2022-02-09T12:16:45Z</time>
      </trkpt>
      <trkpt lat="42.86719" lon="0.22059">
        <ele>2518.5</ele>
        <time>2022-02-09T12:16:46Z</time>
      </trkpt>
      <trkpt lat="42.86719" lon="0.22059">
        <ele>2518.5</ele>
        <time>2022-02-09T12:16:47Z</time>
      </trkpt>
      <trkpt lat="42.86719" lon="0.22059">
        <ele>2518.5</ele>
        <time>2022-02-09T12:16:48Z</time>
      </trkpt>
      <trkpt lat="42.86719" lon="0.22059">
        <ele>2518.5</ele>
        <time>2022-02-09T12:16:49Z</time>
      </trkpt>
      <trkpt lat="42.86719" lon="0.22059">
        <ele>2518.5</ele>
        <time>2022-02-09T12:16:50Z</time>
      </trkpt>
      <trkpt lat="42.86719" lon="0.22059">
        <ele>2518.5</ele>
        <time>2022-02-09T12:16:51Z</time>
      </trkpt>
      <trkpt lat="42.86719" lon="0.22059">
        <ele>2518.5</ele>
        <time>2022-02-09T12:16:52Z</time>
      </trkpt>
      <trkpt lat="42.86719" lon="0.22059">
        <ele>2518.5</ele>
        <time>2022-02-09T12:16:53Z</time>
      </trkpt>
      <trkpt lat="42.86719" lon="0.22059">
        <ele>2518.5</ele>
        <time>2022-02-09T12:16:54Z</time>
      </trkpt>
      <trkpt lat="42.86719" lon="0.22059">
        <ele>2518.5</ele>
        <time>2022-02-09T12:16:55Z</time>
      </trkpt>
      <trkpt lat="42.86719" lon="0.22059">
        <ele>2518.5</ele>
        <time>2022-02-09T12:16:56Z</time>
      </trkpt>
      <trkpt lat="42.86719" lon="0.22059">
        <ele>2518.5</ele>
        <time>2022-02-09T12:16:57Z</time>
      </trkpt>
      <trkpt lat="42.86719" lon="0.22059">
        <ele>2518.5</ele>
        <time>2022-02-09T12:16:58Z</time>
      </trkpt>
      <trkpt lat="42.86719" lon="0.22059">
        <ele>2518.5</ele>
        <time>2022-02-09T12:16:59Z</time>
      </trkpt>
      <trkpt lat="42.86719" lon="0.22059">
        <ele>2518.5</ele>
        <time>2022-02-09T12:17:00Z</time>
      </trkpt>
      <trkpt lat="42.86719" lon="0.22059">
        <ele>2518.5</ele>
        <time>2022-02-09T12:17:01Z</time>
      </trkpt>
      <trkpt lat="42.86719" lon="0.22059">
        <ele>2518.5</ele>
        <time>2022-02-09T12:17:02Z</time>
      </trkpt>
      <trkpt lat="42.86719" lon="0.22059">
        <ele>2518.5</ele>
        <time>2022-02-09T12:17:03Z</time>
      </trkpt>
      <trkpt lat="42.86719" lon="0.22059">
        <ele>2518.5</ele>
        <time>2022-02-09T12:17:04Z</time>
      </trkpt>
      <trkpt lat="42.86719" lon="0.22059">
        <ele>2518.5</ele>
        <time>2022-02-09T12:17:05Z</time>
      </trkpt>
      <trkpt lat="42.86719" lon="0.22059">
        <ele>2518.5</ele>
        <time>2022-02-09T12:17:06Z</time>
      </trkpt>
      <trkpt lat="42.86719" lon="0.22059">
        <ele>2518.5</ele>
        <time>2022-02-09T12:17:07Z</time>
      </trkpt>
      <trkpt lat="42.86719" lon="0.22059">
        <ele>2518.5</ele>
        <time>2022-02-09T12:17:08Z</time>
      </trkpt>
      <trkpt lat="42.86719" lon="0.22059">
        <ele>2518.5</ele>
        <time>2022-02-09T12:17:09Z</time>
      </trkpt>
      <trkpt lat="42.86719" lon="0.22059">
        <ele>2518.5</ele>
        <time>2022-02-09T12:17:10Z</time>
      </trkpt>
      <trkpt lat="42.86719" lon="0.22059">
        <ele>2518.5</ele>
        <time>2022-02-09T12:17:11Z</time>
      </trkpt>
      <trkpt lat="42.86719" lon="0.22059">
        <ele>2518.5</ele>
        <time>2022-02-09T12:17:12Z</time>
      </trkpt>
      <trkpt lat="42.86719" lon="0.22059">
        <ele>2518.5</ele>
        <time>2022-02-09T12:17:13Z</time>
      </trkpt>
      <trkpt lat="42.86719" lon="0.22059">
        <ele>2518.5</ele>
        <time>2022-02-09T12:17:14Z</time>
      </trkpt>
      <trkpt lat="42.86719" lon="0.22059">
        <ele>2518.5</ele>
        <time>2022-02-09T12:17:15Z</time>
      </trkpt>
      <trkpt lat="42.86719" lon="0.22059">
        <ele>2518.5</ele>
        <time>2022-02-09T12:17:16Z</time>
      </trkpt>
      <trkpt lat="42.86719" lon="0.22059">
        <ele>2518.5</ele>
        <time>2022-02-09T12:17:17Z</time>
      </trkpt>
      <trkpt lat="42.86719" lon="0.22059">
        <ele>2518.5</ele>
        <time>2022-02-09T12:17:18Z</time>
      </trkpt>
      <trkpt lat="42.86719" lon="0.22059">
        <ele>2518.5</ele>
        <time>2022-02-09T12:17:19Z</time>
      </trkpt>
      <trkpt lat="42.86719" lon="0.22059">
        <ele>2518.5</ele>
        <time>2022-02-09T12:17:20Z</time>
      </trkpt>
      <trkpt lat="42.86719" lon="0.22059">
        <ele>2518.5</ele>
        <time>2022-02-09T12:17:21Z</time>
      </trkpt>
      <trkpt lat="42.86719" lon="0.22059">
        <ele>2518.5</ele>
        <time>2022-02-09T12:17:22Z</time>
      </trkpt>
      <trkpt lat="42.86719" lon="0.22059">
        <ele>2518.5</ele>
        <time>2022-02-09T12:17:23Z</time>
      </trkpt>
      <trkpt lat="42.86719" lon="0.22059">
        <ele>2518.5</ele>
        <time>2022-02-09T12:17:24Z</time>
      </trkpt>
      <trkpt lat="42.86719" lon="0.22059">
        <ele>2518.5</ele>
        <time>2022-02-09T12:17:25Z</time>
      </trkpt>
      <trkpt lat="42.86719" lon="0.22059">
        <ele>2518.5</ele>
        <time>2022-02-09T12:17:26Z</time>
      </trkpt>
      <trkpt lat="42.86719" lon="0.22059">
        <ele>2518.5</ele>
        <time>2022-02-09T12:17:27Z</time>
      </trkpt>
      <trkpt lat="42.86719" lon="0.22059">
        <ele>2518.5</ele>
        <time>2022-02-09T12:17:28Z</time>
      </trkpt>
      <trkpt lat="42.86719" lon="0.22059">
        <ele>2518.5</ele>
        <time>2022-02-09T12:17:29Z</time>
      </trkpt>
      <trkpt lat="42.86719" lon="0.22059">
        <ele>2518.5</ele>
        <time>2022-02-09T12:17:30Z</time>
      </trkpt>
      <trkpt lat="42.86719" lon="0.22059">
        <ele>2518.5</ele>
        <time>2022-02-09T12:17:31Z</time>
      </trkpt>
      <trkpt lat="42.86719" lon="0.22059">
        <ele>2518.5</ele>
        <time>2022-02-09T12:17:32Z</time>
      </trkpt>
      <trkpt lat="42.86719" lon="0.22059">
        <ele>2518.5</ele>
        <time>2022-02-09T12:17:33Z</time>
      </trkpt>
      <trkpt lat="42.86719" lon="0.22059">
        <ele>2518.5</ele>
        <time>2022-02-09T12:17:34Z</time>
      </trkpt>
      <trkpt lat="42.86719" lon="0.22059">
        <ele>2518.5</ele>
        <time>2022-02-09T12:17:35Z</time>
      </trkpt>
      <trkpt lat="42.86719" lon="0.22059">
        <ele>2518.5</ele>
        <time>2022-02-09T12:17:36Z</time>
      </trkpt>
      <trkpt lat="42.86719" lon="0.22059">
        <ele>2518.5</ele>
        <time>2022-02-09T12:17:37Z</time>
      </trkpt>
      <trkpt lat="42.86719" lon="0.22059">
        <ele>2518.5</ele>
        <time>2022-02-09T12:17:38Z</time>
      </trkpt>
      <trkpt lat="42.86719" lon="0.22059">
        <ele>2518.5</ele>
        <time>2022-02-09T12:17:39Z</time>
      </trkpt>
      <trkpt lat="42.86719" lon="0.22059">
        <ele>2518.5</ele>
        <time>2022-02-09T12:17:40Z</time>
      </trkpt>
      <trkpt lat="42.86719" lon="0.22059">
        <ele>2518.5</ele>
        <time>2022-02-09T12:17:41Z</time>
      </trkpt>
      <trkpt lat="42.86719" lon="0.22059">
        <ele>2518.5</ele>
        <time>2022-02-09T12:17:42Z</time>
      </trkpt>
      <trkpt lat="42.86719" lon="0.22059">
        <ele>2518.5</ele>
        <time>2022-02-09T12:17:43Z</time>
      </trkpt>
      <trkpt lat="42.86719" lon="0.22059">
        <ele>2518.5</ele>
        <time>2022-02-09T12:17:44Z</time>
      </trkpt>
      <trkpt lat="42.86719" lon="0.22059">
        <ele>2518.5</ele>
        <time>2022-02-09T12:17:45Z</time>
      </trkpt>
      <trkpt lat="42.86719" lon="0.22059">
        <ele>2518.5</ele>
        <time>2022-02-09T12:17:46Z</time>
      </trkpt>
      <trkpt lat="42.86719" lon="0.22059">
        <ele>2518.5</ele>
        <time>2022-02-09T12:17:47Z</time>
      </trkpt>
      <trkpt lat="42.86719" lon="0.22059">
        <ele>2518.5</ele>
        <time>2022-02-09T12:17:48Z</time>
      </trkpt>
      <trkpt lat="42.86719" lon="0.22059">
        <ele>2518.5</ele>
        <time>2022-02-09T12:17:49Z</time>
      </trkpt>
      <trkpt lat="42.86719" lon="0.22059">
        <ele>2518.5</ele>
        <time>2022-02-09T12:17:50Z</time>
      </trkpt>
      <trkpt lat="42.86719" lon="0.22059">
        <ele>2518.5</ele>
        <time>2022-02-09T12:17:51Z</time>
      </trkpt>
      <trkpt lat="42.86719" lon="0.22059">
        <ele>2518.5</ele>
        <time>2022-02-09T12:17:52Z</time>
      </trkpt>
      <trkpt lat="42.86719" lon="0.22059">
        <ele>2518.5</ele>
        <time>2022-02-09T12:17:53Z</time>
      </trkpt>
      <trkpt lat="42.86719" lon="0.22059">
        <ele>2518.5</ele>
        <time>2022-02-09T12:17:54Z</time>
      </trkpt>
      <trkpt lat="42.86719" lon="0.22059">
        <ele>2518.5</ele>
        <time>2022-02-09T12:17:55Z</time>
      </trkpt>
      <trkpt lat="42.86719" lon="0.22059">
        <ele>2518.5</ele>
        <time>2022-02-09T12:17:56Z</time>
      </trkpt>
      <trkpt lat="42.86719" lon="0.22059">
        <ele>2518.5</ele>
        <time>2022-02-09T12:17:57Z</time>
      </trkpt>
      <trkpt lat="42.86719" lon="0.22059">
        <ele>2518.5</ele>
        <time>2022-02-09T12:17:58Z</time>
      </trkpt>
      <trkpt lat="42.86719" lon="0.22059">
        <ele>2518.5</ele>
        <time>2022-02-09T12:17:59Z</time>
      </trkpt>
      <trkpt lat="42.86719" lon="0.22059">
        <ele>2518.5</ele>
        <time>2022-02-09T12:18:00Z</time>
      </trkpt>
      <trkpt lat="42.86719" lon="0.22059">
        <ele>2518.5</ele>
        <time>2022-02-09T12:18:01Z</time>
      </trkpt>
      <trkpt lat="42.86719" lon="0.22059">
        <ele>2518.5</ele>
        <time>2022-02-09T12:18:02Z</time>
      </trkpt>
      <trkpt lat="42.86719" lon="0.22059">
        <ele>2518.5</ele>
        <time>2022-02-09T12:18:03Z</time>
      </trkpt>
      <trkpt lat="42.86719" lon="0.22059">
        <ele>2518.5</ele>
        <time>2022-02-09T12:18:04Z</time>
      </trkpt>
      <trkpt lat="42.86719" lon="0.22059">
        <ele>2518.5</ele>
        <time>2022-02-09T12:18:05Z</time>
      </trkpt>
      <trkpt lat="42.86719" lon="0.22059">
        <ele>2518.5</ele>
        <time>2022-02-09T12:18:06Z</time>
      </trkpt>
      <trkpt lat="42.86719" lon="0.22059">
        <ele>2518.5</ele>
        <time>2022-02-09T12:18:07Z</time>
      </trkpt>
      <trkpt lat="42.86719" lon="0.22059">
        <ele>2518.5</ele>
        <time>2022-02-09T12:18:08Z</time>
      </trkpt>
      <trkpt lat="42.86719" lon="0.22059">
        <ele>2518.5</ele>
        <time>2022-02-09T12:18:09Z</time>
      </trkpt>
      <trkpt lat="42.86719" lon="0.22059">
        <ele>2518.5</ele>
        <time>2022-02-09T12:18:10Z</time>
      </trkpt>
      <trkpt lat="42.86719" lon="0.22059">
        <ele>2518.5</ele>
        <time>2022-02-09T12:18:11Z</time>
      </trkpt>
      <trkpt lat="42.86719" lon="0.22059">
        <ele>2518.5</ele>
        <time>2022-02-09T12:18:12Z</time>
      </trkpt>
      <trkpt lat="42.86719" lon="0.22059">
        <ele>2518.5</ele>
        <time>2022-02-09T12:18:13Z</time>
      </trkpt>
      <trkpt lat="42.86719" lon="0.22059">
        <ele>2518.5</ele>
        <time>2022-02-09T12:18:14Z</time>
      </trkpt>
      <trkpt lat="42.86719" lon="0.22059">
        <ele>2518.5</ele>
        <time>2022-02-09T12:18:15Z</time>
      </trkpt>
      <trkpt lat="42.86719" lon="0.22059">
        <ele>2518.5</ele>
        <time>2022-02-09T12:18:16Z</time>
      </trkpt>
      <trkpt lat="42.86719" lon="0.22059">
        <ele>2518.5</ele>
        <time>2022-02-09T12:18:17Z</time>
      </trkpt>
      <trkpt lat="42.86719" lon="0.22059">
        <ele>2518.5</ele>
        <time>2022-02-09T12:18:18Z</time>
      </trkpt>
      <trkpt lat="42.86719" lon="0.22059">
        <ele>2518.5</ele>
        <time>2022-02-09T12:18:19Z</time>
      </trkpt>
      <trkpt lat="42.86719" lon="0.22059">
        <ele>2518.5</ele>
        <time>2022-02-09T12:18:20Z</time>
      </trkpt>
      <trkpt lat="42.86719" lon="0.22059">
        <ele>2518.5</ele>
        <time>2022-02-09T12:18:21Z</time>
      </trkpt>
      <trkpt lat="42.86719" lon="0.22059">
        <ele>2518.5</ele>
        <time>2022-02-09T12:18:22Z</time>
      </trkpt>
      <trkpt lat="42.86719" lon="0.22059">
        <ele>2518.5</ele>
        <time>2022-02-09T12:18:23Z</time>
      </trkpt>
      <trkpt lat="42.86719" lon="0.22059">
        <ele>2518.5</ele>
        <time>2022-02-09T12:18:24Z</time>
      </trkpt>
      <trkpt lat="42.86719" lon="0.22059">
        <ele>2518.5</ele>
        <time>2022-02-09T12:18:25Z</time>
      </trkpt>
      <trkpt lat="42.86719" lon="0.22059">
        <ele>2518.5</ele>
        <time>2022-02-09T12:18:26Z</time>
      </trkpt>
      <trkpt lat="42.86719" lon="0.22059">
        <ele>2518.5</ele>
        <time>2022-02-09T12:18:27Z</time>
      </trkpt>
      <trkpt lat="42.86719" lon="0.22059">
        <ele>2518.5</ele>
        <time>2022-02-09T12:18:28Z</time>
      </trkpt>
      <trkpt lat="42.86719" lon="0.22059">
        <ele>2518.5</ele>
        <time>2022-02-09T12:18:29Z</time>
      </trkpt>
      <trkpt lat="42.86719" lon="0.22059">
        <ele>2518.5</ele>
        <time>2022-02-09T12:18:30Z</time>
      </trkpt>
      <trkpt lat="42.86719" lon="0.22059">
        <ele>2518.5</ele>
        <time>2022-02-09T12:18:31Z</time>
      </trkpt>
      <trkpt lat="42.86719" lon="0.22059">
        <ele>2518.5</ele>
        <time>2022-02-09T12:18:32Z</time>
      </trkpt>
      <trkpt lat="42.86719" lon="0.22059">
        <ele>2518.5</ele>
        <time>2022-02-09T12:18:33Z</time>
      </trkpt>
      <trkpt lat="42.86719" lon="0.22059">
        <ele>2518.5</ele>
        <time>2022-02-09T12:18:34Z</time>
      </trkpt>
      <trkpt lat="42.86719" lon="0.22059">
        <ele>2518.5</ele>
        <time>2022-02-09T12:18:35Z</time>
      </trkpt>
      <trkpt lat="42.86719" lon="0.22059">
        <ele>2518.5</ele>
        <time>2022-02-09T12:18:36Z</time>
      </trkpt>
      <trkpt lat="42.86719" lon="0.22059">
        <ele>2518.5</ele>
        <time>2022-02-09T12:18:37Z</time>
      </trkpt>
      <trkpt lat="42.86719" lon="0.22059">
        <ele>2518.5</ele>
        <time>2022-02-09T12:18:38Z</time>
      </trkpt>
      <trkpt lat="42.86719" lon="0.22059">
        <ele>2518.5</ele>
        <time>2022-02-09T12:18:39Z</time>
      </trkpt>
      <trkpt lat="42.86719" lon="0.22059">
        <ele>2518.5</ele>
        <time>2022-02-09T12:18:40Z</time>
      </trkpt>
      <trkpt lat="42.86719" lon="0.22059">
        <ele>2518.5</ele>
        <time>2022-02-09T12:18:41Z</time>
      </trkpt>
      <trkpt lat="42.86719" lon="0.22059">
        <ele>2518.5</ele>
        <time>2022-02-09T12:18:42Z</time>
      </trkpt>
      <trkpt lat="42.86719" lon="0.22059">
        <ele>2518.5</ele>
        <time>2022-02-09T12:18:43Z</time>
      </trkpt>
      <trkpt lat="42.86719" lon="0.22059">
        <ele>2518.5</ele>
        <time>2022-02-09T12:18:44Z</time>
      </trkpt>
      <trkpt lat="42.86719" lon="0.22059">
        <ele>2518.5</ele>
        <time>2022-02-09T12:18:45Z</time>
      </trkpt>
      <trkpt lat="42.86719" lon="0.22059">
        <ele>2518.5</ele>
        <time>2022-02-09T12:18:46Z</time>
      </trkpt>
      <trkpt lat="42.86719" lon="0.22059">
        <ele>2518.5</ele>
        <time>2022-02-09T12:18:47Z</time>
      </trkpt>
      <trkpt lat="42.86719" lon="0.22059">
        <ele>2518.5</ele>
        <time>2022-02-09T12:18:48Z</time>
      </trkpt>
      <trkpt lat="42.86719" lon="0.22059">
        <ele>2518.5</ele>
        <time>2022-02-09T12:18:49Z</time>
      </trkpt>
      <trkpt lat="42.86719" lon="0.22059">
        <ele>2518.5</ele>
        <time>2022-02-09T12:18:50Z</time>
      </trkpt>
      <trkpt lat="42.86719" lon="0.22059">
        <ele>2518.5</ele>
        <time>2022-02-09T12:18:51Z</time>
      </trkpt>
      <trkpt lat="42.86719" lon="0.22059">
        <ele>2518.5</ele>
        <time>2022-02-09T12:18:52Z</time>
      </trkpt>
      <trkpt lat="42.86719" lon="0.22059">
        <ele>2518.5</ele>
        <time>2022-02-09T12:18:53Z</time>
      </trkpt>
      <trkpt lat="42.86719" lon="0.22059">
        <ele>2518.5</ele>
        <time>2022-02-09T12:18:54Z</time>
      </trkpt>
      <trkpt lat="42.86719" lon="0.22059">
        <ele>2518.5</ele>
        <time>2022-02-09T12:18:55Z</time>
      </trkpt>
      <trkpt lat="42.86719" lon="0.22059">
        <ele>2518.5</ele>
        <time>2022-02-09T12:18:56Z</time>
      </trkpt>
      <trkpt lat="42.86719" lon="0.22059">
        <ele>2518.5</ele>
        <time>2022-02-09T12:18:57Z</time>
      </trkpt>
      <trkpt lat="42.86719" lon="0.22059">
        <ele>2518.5</ele>
        <time>2022-02-09T12:18:58Z</time>
      </trkpt>
      <trkpt lat="42.86719" lon="0.22059">
        <ele>2518.5</ele>
        <time>2022-02-09T12:18:59Z</time>
      </trkpt>
      <trkpt lat="42.86719" lon="0.22059">
        <ele>2518.5</ele>
        <time>2022-02-09T12:19:00Z</time>
      </trkpt>
      <trkpt lat="42.86719" lon="0.22059">
        <ele>2518.5</ele>
        <time>2022-02-09T12:19:01Z</time>
      </trkpt>
      <trkpt lat="42.86719" lon="0.22059">
        <ele>2518.5</ele>
        <time>2022-02-09T12:19:02Z</time>
      </trkpt>
      <trkpt lat="42.86719" lon="0.22059">
        <ele>2518.5</ele>
        <time>2022-02-09T12:19:03Z</time>
      </trkpt>
      <trkpt lat="42.86719" lon="0.22059">
        <ele>2518.5</ele>
        <time>2022-02-09T12:19:04Z</time>
      </trkpt>
      <trkpt lat="42.86719" lon="0.22059">
        <ele>2518.5</ele>
        <time>2022-02-09T12:19:05Z</time>
      </trkpt>
      <trkpt lat="42.86719" lon="0.22059">
        <ele>2518.5</ele>
        <time>2022-02-09T12:19:06Z</time>
      </trkpt>
      <trkpt lat="42.86719" lon="0.22059">
        <ele>2518.5</ele>
        <time>2022-02-09T12:19:07Z</time>
      </trkpt>
      <trkpt lat="42.86719" lon="0.22059">
        <ele>2518.5</ele>
        <time>2022-02-09T12:19:08Z</time>
      </trkpt>
      <trkpt lat="42.86719" lon="0.22059">
        <ele>2518.5</ele>
        <time>2022-02-09T12:19:09Z</time>
      </trkpt>
      <trkpt lat="42.86719" lon="0.22059">
        <ele>2518.5</ele>
        <time>2022-02-09T12:19:10Z</time>
      </trkpt>
      <trkpt lat="42.86719" lon="0.22059">
        <ele>2518.5</ele>
        <time>2022-02-09T12:19:11Z</time>
      </trkpt>
      <trkpt lat="42.86719" lon="0.22059">
        <ele>2518.5</ele>
        <time>2022-02-09T12:19:12Z</time>
      </trkpt>
      <trkpt lat="42.86719" lon="0.22059">
        <ele>2518.5</ele>
        <time>2022-02-09T12:19:13Z</time>
      </trkpt>
      <trkpt lat="42.86719" lon="0.22059">
        <ele>2518.5</ele>
        <time>2022-02-09T12:19:14Z</time>
      </trkpt>
      <trkpt lat="42.86719" lon="0.22059">
        <ele>2518.5</ele>
        <time>2022-02-09T12:19:15Z</time>
      </trkpt>
      <trkpt lat="42.86719" lon="0.22059">
        <ele>2518.5</ele>
        <time>2022-02-09T12:19:16Z</time>
      </trkpt>
      <trkpt lat="42.86719" lon="0.22059">
        <ele>2518.5</ele>
        <time>2022-02-09T12:19:17Z</time>
      </trkpt>
      <trkpt lat="42.86719" lon="0.22059">
        <ele>2518.5</ele>
        <time>2022-02-09T12:19:18Z</time>
      </trkpt>
      <trkpt lat="42.86719" lon="0.22059">
        <ele>2518.5</ele>
        <time>2022-02-09T12:19:19Z</time>
      </trkpt>
      <trkpt lat="42.86719" lon="0.22059">
        <ele>2518.5</ele>
        <time>2022-02-09T12:19:20Z</time>
      </trkpt>
      <trkpt lat="42.86719" lon="0.22059">
        <ele>2518.5</ele>
        <time>2022-02-09T12:19:21Z</time>
      </trkpt>
      <trkpt lat="42.86719" lon="0.22059">
        <ele>2518.5</ele>
        <time>2022-02-09T12:19:22Z</time>
      </trkpt>
      <trkpt lat="42.86719" lon="0.22059">
        <ele>2518.5</ele>
        <time>2022-02-09T12:19:23Z</time>
      </trkpt>
      <trkpt lat="42.86719" lon="0.22059">
        <ele>2518.5</ele>
        <time>2022-02-09T12:19:24Z</time>
      </trkpt>
      <trkpt lat="42.86719" lon="0.22059">
        <ele>2518.5</ele>
        <time>2022-02-09T12:19:25Z</time>
      </trkpt>
      <trkpt lat="42.86719" lon="0.22059">
        <ele>2518.5</ele>
        <time>2022-02-09T12:19:26Z</time>
      </trkpt>
      <trkpt lat="42.86719" lon="0.22059">
        <ele>2518.5</ele>
        <time>2022-02-09T12:19:27Z</time>
      </trkpt>
      <trkpt lat="42.86719" lon="0.22059">
        <ele>2518.5</ele>
        <time>2022-02-09T12:19:28Z</time>
      </trkpt>
      <trkpt lat="42.86719" lon="0.22059">
        <ele>2518.5</ele>
        <time>2022-02-09T12:19:29Z</time>
      </trkpt>
      <trkpt lat="42.86719" lon="0.22059">
        <ele>2518.5</ele>
        <time>2022-02-09T12:19:30Z</time>
      </trkpt>
      <trkpt lat="42.86719" lon="0.22059">
        <ele>2518.5</ele>
        <time>2022-02-09T12:19:31Z</time>
      </trkpt>
      <trkpt lat="42.86719" lon="0.22059">
        <ele>2518.5</ele>
        <time>2022-02-09T12:19:32Z</time>
      </trkpt>
      <trkpt lat="42.86719" lon="0.22059">
        <ele>2518.5</ele>
        <time>2022-02-09T12:19:33Z</time>
      </trkpt>
      <trkpt lat="42.86719" lon="0.22059">
        <ele>2518.5</ele>
        <time>2022-02-09T12:19:34Z</time>
      </trkpt>
      <trkpt lat="42.86719" lon="0.22059">
        <ele>2518.5</ele>
        <time>2022-02-09T12:19:35Z</time>
      </trkpt>
      <trkpt lat="42.86719" lon="0.22059">
        <ele>2518.5</ele>
        <time>2022-02-09T12:19:36Z</time>
      </trkpt>
      <trkpt lat="42.86719" lon="0.22059">
        <ele>2518.5</ele>
        <time>2022-02-09T12:19:37Z</time>
      </trkpt>
      <trkpt lat="42.86719" lon="0.22059">
        <ele>2518.5</ele>
        <time>2022-02-09T12:19:38Z</time>
      </trkpt>
      <trkpt lat="42.86719" lon="0.22059">
        <ele>2518.5</ele>
        <time>2022-02-09T12:19:39Z</time>
      </trkpt>
      <trkpt lat="42.86719" lon="0.22059">
        <ele>2518.5</ele>
        <time>2022-02-09T12:19:40Z</time>
      </trkpt>
      <trkpt lat="42.86719" lon="0.22059">
        <ele>2518.5</ele>
        <time>2022-02-09T12:19:41Z</time>
      </trkpt>
      <trkpt lat="42.86719" lon="0.22059">
        <ele>2518.5</ele>
        <time>2022-02-09T12:19:42Z</time>
      </trkpt>
      <trkpt lat="42.86719" lon="0.22059">
        <ele>2518.5</ele>
        <time>2022-02-09T12:19:43Z</time>
      </trkpt>
      <trkpt lat="42.86719" lon="0.22059">
        <ele>2518.5</ele>
        <time>2022-02-09T12:19:44Z</time>
      </trkpt>
      <trkpt lat="42.86719" lon="0.22059">
        <ele>2518.5</ele>
        <time>2022-02-09T12:19:45Z</time>
      </trkpt>
      <trkpt lat="42.86719" lon="0.22059">
        <ele>2518.5</ele>
        <time>2022-02-09T12:19:46Z</time>
      </trkpt>
      <trkpt lat="42.86719" lon="0.22059">
        <ele>2518.5</ele>
        <time>2022-02-09T12:19:47Z</time>
      </trkpt>
      <trkpt lat="42.86719" lon="0.22059">
        <ele>2518.5</ele>
        <time>2022-02-09T12:19:48Z</time>
      </trkpt>
      <trkpt lat="42.86719" lon="0.22059">
        <ele>2518.5</ele>
        <time>2022-02-09T12:19:49Z</time>
      </trkpt>
      <trkpt lat="42.86719" lon="0.22059">
        <ele>2518.5</ele>
        <time>2022-02-09T12:19:50Z</time>
      </trkpt>
      <trkpt lat="42.86719" lon="0.22059">
        <ele>2518.5</ele>
        <time>2022-02-09T12:19:51Z</time>
      </trkpt>
      <trkpt lat="42.86719" lon="0.22059">
        <ele>2518.5</ele>
        <time>2022-02-09T12:19:52Z</time>
      </trkpt>
      <trkpt lat="42.86719" lon="0.22059">
        <ele>2518.5</ele>
        <time>2022-02-09T12:19:53Z</time>
      </trkpt>
      <trkpt lat="42.86719" lon="0.22059">
        <ele>2518.5</ele>
        <time>2022-02-09T12:19:54Z</time>
      </trkpt>
      <trkpt lat="42.86719" lon="0.22059">
        <ele>2518.5</ele>
        <time>2022-02-09T12:19:55Z</time>
      </trkpt>
      <trkpt lat="42.86719" lon="0.22059">
        <ele>2518.5</ele>
        <time>2022-02-09T12:19:56Z</time>
      </trkpt>
      <trkpt lat="42.86719" lon="0.22059">
        <ele>2518.5</ele>
        <time>2022-02-09T12:19:57Z</time>
      </trkpt>
      <trkpt lat="42.86719" lon="0.22059">
        <ele>2518.5</ele>
        <time>2022-02-09T12:19:58Z</time>
      </trkpt>
      <trkpt lat="42.86719" lon="0.22059">
        <ele>2518.5</ele>
        <time>2022-02-09T12:19:59Z</time>
      </trkpt>
      <trkpt lat="42.86719" lon="0.22059">
        <ele>2518.5</ele>
        <time>2022-02-09T12:20:00Z</time>
      </trkpt>
      <trkpt lat="42.86719" lon="0.22059">
        <ele>2518.5</ele>
        <time>2022-02-09T12:20:01Z</time>
      </trkpt>
      <trkpt lat="42.86719" lon="0.22059">
        <ele>2518.5</ele>
        <time>2022-02-09T12:20:02Z</time>
      </trkpt>
      <trkpt lat="42.86719" lon="0.22059">
        <ele>2518.5</ele>
        <time>2022-02-09T12:20:03Z</time>
      </trkpt>
      <trkpt lat="42.86719" lon="0.22059">
        <ele>2518.5</ele>
        <time>2022-02-09T12:20:04Z</time>
      </trkpt>
      <trkpt lat="42.86719" lon="0.22059">
        <ele>2518.5</ele>
        <time>2022-02-09T12:20:05Z</time>
      </trkpt>
      <trkpt lat="42.86719" lon="0.22059">
        <ele>2518.5</ele>
        <time>2022-02-09T12:20:06Z</time>
      </trkpt>
      <trkpt lat="42.86719" lon="0.22059">
        <ele>2518.5</ele>
        <time>2022-02-09T12:20:07Z</time>
      </trkpt>
      <trkpt lat="42.86719" lon="0.22059">
        <ele>2518.5</ele>
        <time>2022-02-09T12:20:08Z</time>
      </trkpt>
      <trkpt lat="42.86719" lon="0.22059">
        <ele>2518.5</ele>
        <time>2022-02-09T12:20:09Z</time>
      </trkpt>
      <trkpt lat="42.86719" lon="0.22059">
        <ele>2518.5</ele>
        <time>2022-02-09T12:20:10Z</time>
      </trkpt>
      <trkpt lat="42.86719" lon="0.22059">
        <ele>2518.5</ele>
        <time>2022-02-09T12:20:11Z</time>
      </trkpt>
      <trkpt lat="42.86719" lon="0.22059">
        <ele>2518.5</ele>
        <time>2022-02-09T12:20:12Z</time>
      </trkpt>
      <trkpt lat="42.86719" lon="0.22059">
        <ele>2518.5</ele>
        <time>2022-02-09T12:20:13Z</time>
      </trkpt>
      <trkpt lat="42.86719" lon="0.22059">
        <ele>2518.5</ele>
        <time>2022-02-09T12:20:14Z</time>
      </trkpt>
      <trkpt lat="42.86719" lon="0.22059">
        <ele>2518.5</ele>
        <time>2022-02-09T12:20:15Z</time>
      </trkpt>
      <trkpt lat="42.86719" lon="0.22059">
        <ele>2518.5</ele>
        <time>2022-02-09T12:20:16Z</time>
      </trkpt>
      <trkpt lat="42.86719" lon="0.22059">
        <ele>2518.5</ele>
        <time>2022-02-09T12:20:17Z</time>
      </trkpt>
      <trkpt lat="42.86719" lon="0.22059">
        <ele>2518.5</ele>
        <time>2022-02-09T12:20:18Z</time>
      </trkpt>
      <trkpt lat="42.86719" lon="0.22059">
        <ele>2518.5</ele>
        <time>2022-02-09T12:20:19Z</time>
      </trkpt>
      <trkpt lat="42.86719" lon="0.22059">
        <ele>2518.5</ele>
        <time>2022-02-09T12:20:20Z</time>
      </trkpt>
      <trkpt lat="42.86719" lon="0.22059">
        <ele>2518.5</ele>
        <time>2022-02-09T12:20:21Z</time>
      </trkpt>
      <trkpt lat="42.86719" lon="0.22059">
        <ele>2518.5</ele>
        <time>2022-02-09T12:20:22Z</time>
      </trkpt>
      <trkpt lat="42.86719" lon="0.22059">
        <ele>2518.5</ele>
        <time>2022-02-09T12:20:23Z</time>
      </trkpt>
      <trkpt lat="42.86719" lon="0.22059">
        <ele>2518.5</ele>
        <time>2022-02-09T12:20:24Z</time>
      </trkpt>
      <trkpt lat="42.86719" lon="0.22059">
        <ele>2518.5</ele>
        <time>2022-02-09T12:20:25Z</time>
      </trkpt>
      <trkpt lat="42.86719" lon="0.22059">
        <ele>2518.5</ele>
        <time>2022-02-09T12:20:26Z</time>
      </trkpt>
      <trkpt lat="42.86719" lon="0.22059">
        <ele>2518.5</ele>
        <time>2022-02-09T12:20:27Z</time>
      </trkpt>
      <trkpt lat="42.86719" lon="0.22059">
        <ele>2518.5</ele>
        <time>2022-02-09T12:20:28Z</time>
      </trkpt>
      <trkpt lat="42.86719" lon="0.22059">
        <ele>2518.5</ele>
        <time>2022-02-09T12:20:29Z</time>
      </trkpt>
      <trkpt lat="42.86719" lon="0.22059">
        <ele>2518.5</ele>
        <time>2022-02-09T12:20:30Z</time>
      </trkpt>
      <trkpt lat="42.86719" lon="0.22059">
        <ele>2518.5</ele>
        <time>2022-02-09T12:20:31Z</time>
      </trkpt>
      <trkpt lat="42.86719" lon="0.22059">
        <ele>2518.5</ele>
        <time>2022-02-09T12:20:32Z</time>
      </trkpt>
      <trkpt lat="42.86719" lon="0.22059">
        <ele>2518.5</ele>
        <time>2022-02-09T12:20:33Z</time>
      </trkpt>
      <trkpt lat="42.86719" lon="0.22059">
        <ele>2518.5</ele>
        <time>2022-02-09T12:20:34Z</time>
      </trkpt>
      <trkpt lat="42.86719" lon="0.22059">
        <ele>2518.5</ele>
        <time>2022-02-09T12:20:35Z</time>
      </trkpt>
      <trkpt lat="42.86719" lon="0.22059">
        <ele>2518.5</ele>
        <time>2022-02-09T12:20:36Z</time>
      </trkpt>
      <trkpt lat="42.86719" lon="0.22059">
        <ele>2518.5</ele>
        <time>2022-02-09T12:20:37Z</time>
      </trkpt>
      <trkpt lat="42.86719" lon="0.22059">
        <ele>2518.5</ele>
        <time>2022-02-09T12:20:38Z</time>
      </trkpt>
      <trkpt lat="42.86719" lon="0.22059">
        <ele>2518.5</ele>
        <time>2022-02-09T12:20:39Z</time>
      </trkpt>
      <trkpt lat="42.86719" lon="0.22059">
        <ele>2518.5</ele>
        <time>2022-02-09T12:20:40Z</time>
      </trkpt>
      <trkpt lat="42.86719" lon="0.22059">
        <ele>2518.5</ele>
        <time>2022-02-09T12:20:41Z</time>
      </trkpt>
      <trkpt lat="42.86719" lon="0.22059">
        <ele>2518.5</ele>
        <time>2022-02-09T12:20:42Z</time>
      </trkpt>
      <trkpt lat="42.86719" lon="0.22059">
        <ele>2518.5</ele>
        <time>2022-02-09T12:20:43Z</time>
      </trkpt>
      <trkpt lat="42.86719" lon="0.22059">
        <ele>2518.5</ele>
        <time>2022-02-09T12:20:44Z</time>
      </trkpt>
      <trkpt lat="42.86719" lon="0.22059">
        <ele>2518.5</ele>
        <time>2022-02-09T12:20:45Z</time>
      </trkpt>
      <trkpt lat="42.86719" lon="0.22059">
        <ele>2518.5</ele>
        <time>2022-02-09T12:20:46Z</time>
      </trkpt>
      <trkpt lat="42.86719" lon="0.22059">
        <ele>2518.5</ele>
        <time>2022-02-09T12:20:47Z</time>
      </trkpt>
      <trkpt lat="42.86719" lon="0.22059">
        <ele>2518.5</ele>
        <time>2022-02-09T12:20:48Z</time>
      </trkpt>
      <trkpt lat="42.86719" lon="0.22059">
        <ele>2518.5</ele>
        <time>2022-02-09T12:20:49Z</time>
      </trkpt>
      <trkpt lat="42.86719" lon="0.22059">
        <ele>2518.5</ele>
        <time>2022-02-09T12:20:50Z</time>
      </trkpt>
      <trkpt lat="42.86719" lon="0.22059">
        <ele>2518.5</ele>
        <time>2022-02-09T12:20:51Z</time>
      </trkpt>
      <trkpt lat="42.86719" lon="0.22059">
        <ele>2518.5</ele>
        <time>2022-02-09T12:20:52Z</time>
      </trkpt>
      <trkpt lat="42.86719" lon="0.22059">
        <ele>2518.5</ele>
        <time>2022-02-09T12:20:53Z</time>
      </trkpt>
      <trkpt lat="42.86719" lon="0.22059">
        <ele>2518.5</ele>
        <time>2022-02-09T12:20:54Z</time>
      </trkpt>
      <trkpt lat="42.86719" lon="0.22059">
        <ele>2518.5</ele>
        <time>2022-02-09T12:20:55Z</time>
      </trkpt>
      <trkpt lat="42.86719" lon="0.22059">
        <ele>2518.5</ele>
        <time>2022-02-09T12:20:56Z</time>
      </trkpt>
      <trkpt lat="42.86719" lon="0.22059">
        <ele>2518.5</ele>
        <time>2022-02-09T12:20:57Z</time>
      </trkpt>
      <trkpt lat="42.86719" lon="0.22059">
        <ele>2518.5</ele>
        <time>2022-02-09T12:20:58Z</time>
      </trkpt>
      <trkpt lat="42.86719" lon="0.22059">
        <ele>2518.5</ele>
        <time>2022-02-09T12:20:59Z</time>
      </trkpt>
      <trkpt lat="42.86719" lon="0.22059">
        <ele>2518.5</ele>
        <time>2022-02-09T12:21:00Z</time>
      </trkpt>
      <trkpt lat="42.86719" lon="0.22059">
        <ele>2518.5</ele>
        <time>2022-02-09T12:21:01Z</time>
      </trkpt>
      <trkpt lat="42.86719" lon="0.22059">
        <ele>2518.5</ele>
        <time>2022-02-09T12:21:02Z</time>
      </trkpt>
      <trkpt lat="42.86719" lon="0.22059">
        <ele>2518.5</ele>
        <time>2022-02-09T12:21:03Z</time>
      </trkpt>
      <trkpt lat="42.86719" lon="0.22059">
        <ele>2518.5</ele>
        <time>2022-02-09T12:21:04Z</time>
      </trkpt>
      <trkpt lat="42.86719" lon="0.22059">
        <ele>2518.5</ele>
        <time>2022-02-09T12:21:05Z</time>
      </trkpt>
      <trkpt lat="42.86719" lon="0.22059">
        <ele>2518.5</ele>
        <time>2022-02-09T12:21:06Z</time>
      </trkpt>
      <trkpt lat="42.86719" lon="0.22059">
        <ele>2518.5</ele>
        <time>2022-02-09T12:21:07Z</time>
      </trkpt>
      <trkpt lat="42.86719" lon="0.22059">
        <ele>2518.5</ele>
        <time>2022-02-09T12:21:08Z</time>
      </trkpt>
      <trkpt lat="42.86719" lon="0.22059">
        <ele>2518.5</ele>
        <time>2022-02-09T12:21:09Z</time>
      </trkpt>
      <trkpt lat="42.86719" lon="0.22059">
        <ele>2518.5</ele>
        <time>2022-02-09T12:21:10Z</time>
      </trkpt>
      <trkpt lat="42.86719" lon="0.22059">
        <ele>2518.5</ele>
        <time>2022-02-09T12:21:11Z</time>
      </trkpt>
      <trkpt lat="42.86719" lon="0.22059">
        <ele>2518.5</ele>
        <time>2022-02-09T12:21:12Z</time>
      </trkpt>
      <trkpt lat="42.86719" lon="0.22059">
        <ele>2518.5</ele>
        <time>2022-02-09T12:21:13Z</time>
      </trkpt>
      <trkpt lat="42.86719" lon="0.22059">
        <ele>2518.5</ele>
        <time>2022-02-09T12:21:14Z</time>
      </trkpt>
      <trkpt lat="42.86719" lon="0.22059">
        <ele>2518.5</ele>
        <time>2022-02-09T12:21:15Z</time>
      </trkpt>
      <trkpt lat="42.86719" lon="0.22059">
        <ele>2518.5</ele>
        <time>2022-02-09T12:21:16Z</time>
      </trkpt>
      <trkpt lat="42.86719" lon="0.22059">
        <ele>2518.5</ele>
        <time>2022-02-09T12:21:17Z</time>
      </trkpt>
      <trkpt lat="42.86719" lon="0.22059">
        <ele>2518.5</ele>
        <time>2022-02-09T12:21:18Z</time>
      </trkpt>
      <trkpt lat="42.86719" lon="0.22059">
        <ele>2518.5</ele>
        <time>2022-02-09T12:21:19Z</time>
      </trkpt>
      <trkpt lat="42.86719" lon="0.22059">
        <ele>2518.5</ele>
        <time>2022-02-09T12:21:20Z</time>
      </trkpt>
      <trkpt lat="42.86719" lon="0.22059">
        <ele>2518.5</ele>
        <time>2022-02-09T12:21:21Z</time>
      </trkpt>
      <trkpt lat="42.86719" lon="0.22059">
        <ele>2518.5</ele>
        <time>2022-02-09T12:21:22Z</time>
      </trkpt>
      <trkpt lat="42.86719" lon="0.22059">
        <ele>2518.5</ele>
        <time>2022-02-09T12:21:23Z</time>
      </trkpt>
      <trkpt lat="42.86719" lon="0.22059">
        <ele>2518.5</ele>
        <time>2022-02-09T12:21:24Z</time>
      </trkpt>
      <trkpt lat="42.86719" lon="0.22059">
        <ele>2518.5</ele>
        <time>2022-02-09T12:21:25Z</time>
      </trkpt>
      <trkpt lat="42.86719" lon="0.22059">
        <ele>2518.5</ele>
        <time>2022-02-09T12:21:26Z</time>
      </trkpt>
      <trkpt lat="42.86719" lon="0.22059">
        <ele>2518.5</ele>
        <time>2022-02-09T12:21:27Z</time>
      </trkpt>
      <trkpt lat="42.86719" lon="0.22059">
        <ele>2518.5</ele>
        <time>2022-02-09T12:21:28Z</time>
      </trkpt>
      <trkpt lat="42.86719" lon="0.22059">
        <ele>2518.5</ele>
        <time>2022-02-09T12:21:29Z</time>
      </trkpt>
      <trkpt lat="42.86719" lon="0.22059">
        <ele>2518.5</ele>
        <time>2022-02-09T12:21:30Z</time>
      </trkpt>
      <trkpt lat="42.86719" lon="0.22059">
        <ele>2518.5</ele>
        <time>2022-02-09T12:21:31Z</time>
      </trkpt>
      <trkpt lat="42.86719" lon="0.22059">
        <ele>2518.5</ele>
        <time>2022-02-09T12:21:32Z</time>
      </trkpt>
      <trkpt lat="42.86719" lon="0.22059">
        <ele>2518.5</ele>
        <time>2022-02-09T12:21:33Z</time>
      </trkpt>
      <trkpt lat="42.86719" lon="0.22059">
        <ele>2518.5</ele>
        <time>2022-02-09T12:21:34Z</time>
      </trkpt>
      <trkpt lat="42.86719" lon="0.22059">
        <ele>2518.5</ele>
        <time>2022-02-09T12:21:35Z</time>
      </trkpt>
      <trkpt lat="42.86719" lon="0.22059">
        <ele>2518.5</ele>
        <time>2022-02-09T12:21:36Z</time>
      </trkpt>
      <trkpt lat="42.86719" lon="0.22059">
        <ele>2518.5</ele>
        <time>2022-02-09T12:21:37Z</time>
      </trkpt>
      <trkpt lat="42.86719" lon="0.22059">
        <ele>2518.5</ele>
        <time>2022-02-09T12:21:38Z</time>
      </trkpt>
      <trkpt lat="42.86719" lon="0.22059">
        <ele>2518.5</ele>
        <time>2022-02-09T12:21:39Z</time>
      </trkpt>
      <trkpt lat="42.86719" lon="0.22059">
        <ele>2518.5</ele>
        <time>2022-02-09T12:21:40Z</time>
      </trkpt>
      <trkpt lat="42.86719" lon="0.22059">
        <ele>2518.5</ele>
        <time>2022-02-09T12:21:41Z</time>
      </trkpt>
      <trkpt lat="42.86719" lon="0.22059">
        <ele>2518.5</ele>
        <time>2022-02-09T12:21:42Z</time>
      </trkpt>
      <trkpt lat="42.86719" lon="0.22059">
        <ele>2518.5</ele>
        <time>2022-02-09T12:21:43Z</time>
      </trkpt>
      <trkpt lat="42.86719" lon="0.22059">
        <ele>2518.5</ele>
        <time>2022-02-09T12:21:44Z</time>
      </trkpt>
      <trkpt lat="42.86719" lon="0.22059">
        <ele>2518.5</ele>
        <time>2022-02-09T12:21:45Z</time>
      </trkpt>
      <trkpt lat="42.86719" lon="0.22059">
        <ele>2518.5</ele>
        <time>2022-02-09T12:21:46Z</time>
      </trkpt>
      <trkpt lat="42.86719" lon="0.22059">
        <ele>2518.5</ele>
        <time>2022-02-09T12:21:47Z</time>
      </trkpt>
      <trkpt lat="42.86719" lon="0.22059">
        <ele>2518.5</ele>
        <time>2022-02-09T12:21:48Z</time>
      </trkpt>
      <trkpt lat="42.86719" lon="0.22059">
        <ele>2518.5</ele>
        <time>2022-02-09T12:21:49Z</time>
      </trkpt>
      <trkpt lat="42.86719" lon="0.22059">
        <ele>2518.5</ele>
        <time>2022-02-09T12:21:50Z</time>
      </trkpt>
      <trkpt lat="42.86719" lon="0.22059">
        <ele>2518.5</ele>
        <time>2022-02-09T12:21:51Z</time>
      </trkpt>
      <trkpt lat="42.86719" lon="0.22059">
        <ele>2518.5</ele>
        <time>2022-02-09T12:21:52Z</time>
      </trkpt>
      <trkpt lat="42.86719" lon="0.22059">
        <ele>2518.5</ele>
        <time>2022-02-09T12:21:53Z</time>
      </trkpt>
      <trkpt lat="42.86719" lon="0.22059">
        <ele>2518.5</ele>
        <time>2022-02-09T12:21:54Z</time>
      </trkpt>
      <trkpt lat="42.86719" lon="0.22059">
        <ele>2518.5</ele>
        <time>2022-02-09T12:21:55Z</time>
      </trkpt>
      <trkpt lat="42.86719" lon="0.22059">
        <ele>2518.5</ele>
        <time>2022-02-09T12:21:56Z</time>
      </trkpt>
      <trkpt lat="42.86719" lon="0.22059">
        <ele>2518.5</ele>
        <time>2022-02-09T12:21:57Z</time>
      </trkpt>
      <trkpt lat="42.86719" lon="0.22059">
        <ele>2518.5</ele>
        <time>2022-02-09T12:21:58Z</time>
      </trkpt>
      <trkpt lat="42.86719" lon="0.22059">
        <ele>2518.5</ele>
        <time>2022-02-09T12:21:59Z</time>
      </trkpt>
      <trkpt lat="42.86719" lon="0.22059">
        <ele>2518.5</ele>
        <time>2022-02-09T12:22:00Z</time>
      </trkpt>
      <trkpt lat="42.86719" lon="0.22059">
        <ele>2518.5</ele>
        <time>2022-02-09T12:22:01Z</time>
      </trkpt>
      <trkpt lat="42.86719" lon="0.22059">
        <ele>2518.5</ele>
        <time>2022-02-09T12:22:02Z</time>
      </trkpt>
      <trkpt lat="42.86719" lon="0.22059">
        <ele>2518.5</ele>
        <time>2022-02-09T12:22:03Z</time>
      </trkpt>
      <trkpt lat="42.86719" lon="0.22059">
        <ele>2518.5</ele>
        <time>2022-02-09T12:22:04Z</time>
      </trkpt>
      <trkpt lat="42.86719" lon="0.22059">
        <ele>2518.5</ele>
        <time>2022-02-09T12:22:05Z</time>
      </trkpt>
      <trkpt lat="42.86719" lon="0.22059">
        <ele>2518.5</ele>
        <time>2022-02-09T12:22:06Z</time>
      </trkpt>
      <trkpt lat="42.86719" lon="0.22059">
        <ele>2518.5</ele>
        <time>2022-02-09T12:22:07Z</time>
      </trkpt>
      <trkpt lat="42.86719" lon="0.22059">
        <ele>2518.5</ele>
        <time>2022-02-09T12:22:08Z</time>
      </trkpt>
      <trkpt lat="42.86719" lon="0.22059">
        <ele>2518.5</ele>
        <time>2022-02-09T12:22:09Z</time>
      </trkpt>
      <trkpt lat="42.86719" lon="0.22059">
        <ele>2518.5</ele>
        <time>2022-02-09T12:22:10Z</time>
      </trkpt>
      <trkpt lat="42.86719" lon="0.22059">
        <ele>2518.5</ele>
        <time>2022-02-09T12:22:11Z</time>
      </trkpt>
      <trkpt lat="42.86719" lon="0.22059">
        <ele>2518.5</ele>
        <time>2022-02-09T12:22:12Z</time>
      </trkpt>
      <trkpt lat="42.86719" lon="0.22059">
        <ele>2518.5</ele>
        <time>2022-02-09T12:22:13Z</time>
      </trkpt>
      <trkpt lat="42.86719" lon="0.22059">
        <ele>2518.5</ele>
        <time>2022-02-09T12:22:14Z</time>
      </trkpt>
      <trkpt lat="42.86719" lon="0.22059">
        <ele>2518.5</ele>
        <time>2022-02-09T12:22:15Z</time>
      </trkpt>
      <trkpt lat="42.86719" lon="0.22059">
        <ele>2518.5</ele>
        <time>2022-02-09T12:22:16Z</time>
      </trkpt>
      <trkpt lat="42.86719" lon="0.22059">
        <ele>2518.5</ele>
        <time>2022-02-09T12:22:17Z</time>
      </trkpt>
      <trkpt lat="42.86719" lon="0.22059">
        <ele>2518.5</ele>
        <time>2022-02-09T12:22:18Z</time>
      </trkpt>
      <trkpt lat="42.86719" lon="0.22059">
        <ele>2518.5</ele>
        <time>2022-02-09T12:22:19Z</time>
      </trkpt>
      <trkpt lat="42.86719" lon="0.22059">
        <ele>2518.5</ele>
        <time>2022-02-09T12:22:20Z</time>
      </trkpt>
      <trkpt lat="42.86719" lon="0.22059">
        <ele>2518.5</ele>
        <time>2022-02-09T12:22:21Z</time>
      </trkpt>
      <trkpt lat="42.86719" lon="0.22059">
        <ele>2518.5</ele>
        <time>2022-02-09T12:22:22Z</time>
      </trkpt>
      <trkpt lat="42.86719" lon="0.22059">
        <ele>2518.5</ele>
        <time>2022-02-09T12:22:23Z</time>
      </trkpt>
      <trkpt lat="42.86719" lon="0.22059">
        <ele>2518.5</ele>
        <time>2022-02-09T12:22:24Z</time>
      </trkpt>
      <trkpt lat="42.86719" lon="0.22059">
        <ele>2518.5</ele>
        <time>2022-02-09T12:22:25Z</time>
      </trkpt>
      <trkpt lat="42.86719" lon="0.22059">
        <ele>2518.5</ele>
        <time>2022-02-09T12:22:26Z</time>
      </trkpt>
      <trkpt lat="42.86719" lon="0.22059">
        <ele>2518.5</ele>
        <time>2022-02-09T12:22:27Z</time>
      </trkpt>
      <trkpt lat="42.86719" lon="0.22059">
        <ele>2518.5</ele>
        <time>2022-02-09T12:22:28Z</time>
      </trkpt>
      <trkpt lat="42.86719" lon="0.22059">
        <ele>2518.5</ele>
        <time>2022-02-09T12:22:29Z</time>
      </trkpt>
      <trkpt lat="42.86719" lon="0.22059">
        <ele>2518.5</ele>
        <time>2022-02-09T12:22:30Z</time>
      </trkpt>
      <trkpt lat="42.86719" lon="0.22059">
        <ele>2518.5</ele>
        <time>2022-02-09T12:22:31Z</time>
      </trkpt>
      <trkpt lat="42.86719" lon="0.22059">
        <ele>2518.5</ele>
        <time>2022-02-09T12:22:32Z</time>
      </trkpt>
      <trkpt lat="42.86719" lon="0.22059">
        <ele>2518.5</ele>
        <time>2022-02-09T12:22:33Z</time>
      </trkpt>
      <trkpt lat="42.86719" lon="0.22059">
        <ele>2518.5</ele>
        <time>2022-02-09T12:22:34Z</time>
      </trkpt>
      <trkpt lat="42.86719" lon="0.22059">
        <ele>2518.5</ele>
        <time>2022-02-09T12:22:35Z</time>
      </trkpt>
      <trkpt lat="42.86719" lon="0.22059">
        <ele>2518.5</ele>
        <time>2022-02-09T12:22:36Z</time>
      </trkpt>
      <trkpt lat="42.86719" lon="0.22059">
        <ele>2518.5</ele>
        <time>2022-02-09T12:22:37Z</time>
      </trkpt>
      <trkpt lat="42.86719" lon="0.22059">
        <ele>2518.5</ele>
        <time>2022-02-09T12:22:38Z</time>
      </trkpt>
      <trkpt lat="42.86719" lon="0.22059">
        <ele>2518.5</ele>
        <time>2022-02-09T12:22:39Z</time>
      </trkpt>
      <trkpt lat="42.86719" lon="0.22059">
        <ele>2518.5</ele>
        <time>2022-02-09T12:22:40Z</time>
      </trkpt>
      <trkpt lat="42.86719" lon="0.22059">
        <ele>2518.5</ele>
        <time>2022-02-09T12:22:41Z</time>
      </trkpt>
      <trkpt lat="42.86719" lon="0.22059">
        <ele>2518.5</ele>
        <time>2022-02-09T12:22:42Z</time>
      </trkpt>
      <trkpt lat="42.86719" lon="0.22059">
        <ele>2518.5</ele>
        <time>2022-02-09T12:22:43Z</time>
      </trkpt>
      <trkpt lat="42.86719" lon="0.22059">
        <ele>2518.5</ele>
        <time>2022-02-09T12:22:44Z</time>
      </trkpt>
      <trkpt lat="42.86719" lon="0.22059">
        <ele>2518.5</ele>
        <time>2022-02-09T12:22:45Z</time>
      </trkpt>
      <trkpt lat="42.86719" lon="0.22059">
        <ele>2518.5</ele>
        <time>2022-02-09T12:22:46Z</time>
      </trkpt>
      <trkpt lat="42.86719" lon="0.22059">
        <ele>2518.5</ele>
        <time>2022-02-09T12:22:47Z</time>
      </trkpt>
      <trkpt lat="42.86719" lon="0.22059">
        <ele>2518.5</ele>
        <time>2022-02-09T12:22:48Z</time>
      </trkpt>
      <trkpt lat="42.86719" lon="0.22059">
        <ele>2518.5</ele>
        <time>2022-02-09T12:22:49Z</time>
      </trkpt>
      <trkpt lat="42.86719" lon="0.22059">
        <ele>2518.5</ele>
        <time>2022-02-09T12:22:50Z</time>
      </trkpt>
      <trkpt lat="42.86719" lon="0.22059">
        <ele>2518.5</ele>
        <time>2022-02-09T12:22:51Z</time>
      </trkpt>
      <trkpt lat="42.86719" lon="0.22059">
        <ele>2518.5</ele>
        <time>2022-02-09T12:22:52Z</time>
      </trkpt>
      <trkpt lat="42.86719" lon="0.22059">
        <ele>2518.5</ele>
        <time>2022-02-09T12:22:53Z</time>
      </trkpt>
      <trkpt lat="42.86719" lon="0.22059">
        <ele>2518.5</ele>
        <time>2022-02-09T12:22:54Z</time>
      </trkpt>
      <trkpt lat="42.86719" lon="0.22059">
        <ele>2518.5</ele>
        <time>2022-02-09T12:22:55Z</time>
      </trkpt>
      <trkpt lat="42.86719" lon="0.22059">
        <ele>2518.5</ele>
        <time>2022-02-09T12:22:56Z</time>
      </trkpt>
      <trkpt lat="42.86719" lon="0.22059">
        <ele>2518.5</ele>
        <time>2022-02-09T12:22:57Z</time>
      </trkpt>
      <trkpt lat="42.86719" lon="0.22059">
        <ele>2518.5</ele>
        <time>2022-02-09T12:22:58Z</time>
      </trkpt>
      <trkpt lat="42.86719" lon="0.22059">
        <ele>2518.5</ele>
        <time>2022-02-09T12:22:59Z</time>
      </trkpt>
      <trkpt lat="42.86719" lon="0.22059">
        <ele>2518.5</ele>
        <time>2022-02-09T12:23:00Z</time>
      </trkpt>
      <trkpt lat="42.86719" lon="0.22059">
        <ele>2518.5</ele>
        <time>2022-02-09T12:23:01Z</time>
      </trkpt>
      <trkpt lat="42.86719" lon="0.22059">
        <ele>2518.5</ele>
        <time>2022-02-09T12:23:02Z</time>
      </trkpt>
      <trkpt lat="42.86719" lon="0.22059">
        <ele>2518.5</ele>
        <time>2022-02-09T12:23:03Z</time>
      </trkpt>
      <trkpt lat="42.86719" lon="0.22059">
        <ele>2518.5</ele>
        <time>2022-02-09T12:23:04Z</time>
      </trkpt>
      <trkpt lat="42.86719" lon="0.22059">
        <ele>2518.5</ele>
        <time>2022-02-09T12:23:05Z</time>
      </trkpt>
      <trkpt lat="42.86719" lon="0.22059">
        <ele>2518.5</ele>
        <time>2022-02-09T12:23:06Z</time>
      </trkpt>
      <trkpt lat="42.86719" lon="0.22059">
        <ele>2518.5</ele>
        <time>2022-02-09T12:23:07Z</time>
      </trkpt>
      <trkpt lat="42.86719" lon="0.22059">
        <ele>2518.5</ele>
        <time>2022-02-09T12:23:08Z</time>
      </trkpt>
      <trkpt lat="42.86719" lon="0.22059">
        <ele>2518.5</ele>
        <time>2022-02-09T12:23:09Z</time>
      </trkpt>
      <trkpt lat="42.86719" lon="0.22059">
        <ele>2518.5</ele>
        <time>2022-02-09T12:23:10Z</time>
      </trkpt>
      <trkpt lat="42.86719" lon="0.22059">
        <ele>2518.5</ele>
        <time>2022-02-09T12:23:11Z</time>
      </trkpt>
      <trkpt lat="42.86719" lon="0.22059">
        <ele>2518.5</ele>
        <time>2022-02-09T12:23:12Z</time>
      </trkpt>
      <trkpt lat="42.86719" lon="0.22059">
        <ele>2518.5</ele>
        <time>2022-02-09T12:23:13Z</time>
      </trkpt>
      <trkpt lat="42.86719" lon="0.22059">
        <ele>2518.5</ele>
        <time>2022-02-09T12:23:14Z</time>
      </trkpt>
      <trkpt lat="42.86719" lon="0.22059">
        <ele>2518.5</ele>
        <time>2022-02-09T12:23:15Z</time>
      </trkpt>
      <trkpt lat="42.86719" lon="0.22059">
        <ele>2518.5</ele>
        <time>2022-02-09T12:23:16Z</time>
      </trkpt>
      <trkpt lat="42.86719" lon="0.22059">
        <ele>2518.5</ele>
        <time>2022-02-09T12:23:17Z</time>
      </trkpt>
      <trkpt lat="42.86719" lon="0.22059">
        <ele>2518.5</ele>
        <time>2022-02-09T12:23:18Z</time>
      </trkpt>
      <trkpt lat="42.86719" lon="0.22059">
        <ele>2518.5</ele>
        <time>2022-02-09T12:23:19Z</time>
      </trkpt>
      <trkpt lat="42.86719" lon="0.22059">
        <ele>2518.5</ele>
        <time>2022-02-09T12:23:20Z</time>
      </trkpt>
      <trkpt lat="42.86719" lon="0.22059">
        <ele>2518.5</ele>
        <time>2022-02-09T12:23:21Z</time>
      </trkpt>
      <trkpt lat="42.86719" lon="0.22059">
        <ele>2518.5</ele>
        <time>2022-02-09T12:23:22Z</time>
      </trkpt>
      <trkpt lat="42.86719" lon="0.22059">
        <ele>2518.5</ele>
        <time>2022-02-09T12:23:23Z</time>
      </trkpt>
      <trkpt lat="42.86719" lon="0.22059">
        <ele>2518.5</ele>
        <time>2022-02-09T12:23:24Z</time>
      </trkpt>
      <trkpt lat="42.86719" lon="0.22059">
        <ele>2518.5</ele>
        <time>2022-02-09T12:23:25Z</time>
      </trkpt>
      <trkpt lat="42.86719" lon="0.22059">
        <ele>2518.5</ele>
        <time>2022-02-09T12:23:26Z</time>
      </trkpt>
      <trkpt lat="42.86719" lon="0.22059">
        <ele>2518.5</ele>
        <time>2022-02-09T12:23:27Z</time>
      </trkpt>
      <trkpt lat="42.86719" lon="0.22059">
        <ele>2518.5</ele>
        <time>2022-02-09T12:23:28Z</time>
      </trkpt>
      <trkpt lat="42.86719" lon="0.22059">
        <ele>2518.5</ele>
        <time>2022-02-09T12:23:29Z</time>
      </trkpt>
      <trkpt lat="42.86719" lon="0.22059">
        <ele>2518.5</ele>
        <time>2022-02-09T12:23:30Z</time>
      </trkpt>
      <trkpt lat="42.86719" lon="0.22059">
        <ele>2518.5</ele>
        <time>2022-02-09T12:23:31Z</time>
      </trkpt>
      <trkpt lat="42.86719" lon="0.22059">
        <ele>2518.5</ele>
        <time>2022-02-09T12:23:32Z</time>
      </trkpt>
      <trkpt lat="42.86719" lon="0.22059">
        <ele>2518.5</ele>
        <time>2022-02-09T12:23:33Z</time>
      </trkpt>
      <trkpt lat="42.86719" lon="0.22059">
        <ele>2518.5</ele>
        <time>2022-02-09T12:23:34Z</time>
      </trkpt>
      <trkpt lat="42.86719" lon="0.22059">
        <ele>2518.5</ele>
        <time>2022-02-09T12:23:35Z</time>
      </trkpt>
      <trkpt lat="42.86719" lon="0.22059">
        <ele>2518.5</ele>
        <time>2022-02-09T12:23:36Z</time>
      </trkpt>
      <trkpt lat="42.86719" lon="0.22059">
        <ele>2518.5</ele>
        <time>2022-02-09T12:23:37Z</time>
      </trkpt>
      <trkpt lat="42.86719" lon="0.22059">
        <ele>2518.5</ele>
        <time>2022-02-09T12:23:38Z</time>
      </trkpt>
      <trkpt lat="42.86719" lon="0.22059">
        <ele>2518.5</ele>
        <time>2022-02-09T12:23:39Z</time>
      </trkpt>
      <trkpt lat="42.86719" lon="0.22059">
        <ele>2518.5</ele>
        <time>2022-02-09T12:23:40Z</time>
      </trkpt>
      <trkpt lat="42.86719" lon="0.22059">
        <ele>2518.5</ele>
        <time>2022-02-09T12:23:41Z</time>
      </trkpt>
      <trkpt lat="42.86719" lon="0.22059">
        <ele>2518.5</ele>
        <time>2022-02-09T12:23:42Z</time>
      </trkpt>
      <trkpt lat="42.86719" lon="0.22059">
        <ele>2518.5</ele>
        <time>2022-02-09T12:23:43Z</time>
      </trkpt>
      <trkpt lat="42.86719" lon="0.22059">
        <ele>2518.5</ele>
        <time>2022-02-09T12:23:44Z</time>
      </trkpt>
      <trkpt lat="42.86719" lon="0.22059">
        <ele>2518.5</ele>
        <time>2022-02-09T12:23:45Z</time>
      </trkpt>
      <trkpt lat="42.86719" lon="0.22059">
        <ele>2518.5</ele>
        <time>2022-02-09T12:23:46Z</time>
      </trkpt>
      <trkpt lat="42.86719" lon="0.22059">
        <ele>2518.5</ele>
        <time>2022-02-09T12:23:47Z</time>
      </trkpt>
      <trkpt lat="42.86719" lon="0.22059">
        <ele>2518.5</ele>
        <time>2022-02-09T12:23:48Z</time>
      </trkpt>
      <trkpt lat="42.86719" lon="0.22059">
        <ele>2518.5</ele>
        <time>2022-02-09T12:23:49Z</time>
      </trkpt>
      <trkpt lat="42.86719" lon="0.22059">
        <ele>2518.5</ele>
        <time>2022-02-09T12:23:50Z</time>
      </trkpt>
      <trkpt lat="42.86719" lon="0.22059">
        <ele>2518.5</ele>
        <time>2022-02-09T12:23:51Z</time>
      </trkpt>
      <trkpt lat="42.86719" lon="0.22059">
        <ele>2518.5</ele>
        <time>2022-02-09T12:23:52Z</time>
      </trkpt>
      <trkpt lat="42.86719" lon="0.22059">
        <ele>2518.5</ele>
        <time>2022-02-09T12:23:53Z</time>
      </trkpt>
      <trkpt lat="42.86719" lon="0.22059">
        <ele>2518.5</ele>
        <time>2022-02-09T12:23:54Z</time>
      </trkpt>
      <trkpt lat="42.86719" lon="0.22059">
        <ele>2518.5</ele>
        <time>2022-02-09T12:23:55Z</time>
      </trkpt>
      <trkpt lat="42.86719" lon="0.22059">
        <ele>2518.5</ele>
        <time>2022-02-09T12:23:56Z</time>
      </trkpt>
      <trkpt lat="42.86719" lon="0.22059">
        <ele>2518.5</ele>
        <time>2022-02-09T12:23:57Z</time>
      </trkpt>
      <trkpt lat="42.86719" lon="0.22059">
        <ele>2518.5</ele>
        <time>2022-02-09T12:23:58Z</time>
      </trkpt>
      <trkpt lat="42.86719" lon="0.22059">
        <ele>2518.5</ele>
        <time>2022-02-09T12:23:59Z</time>
      </trkpt>
      <trkpt lat="42.86719" lon="0.22059">
        <ele>2518.5</ele>
        <time>2022-02-09T12:24:00Z</time>
      </trkpt>
      <trkpt lat="42.86719" lon="0.22059">
        <ele>2518.5</ele>
        <time>2022-02-09T12:24:01Z</time>
      </trkpt>
      <trkpt lat="42.86719" lon="0.22059">
        <ele>2518.5</ele>
        <time>2022-02-09T12:24:02Z</time>
      </trkpt>
      <trkpt lat="42.86719" lon="0.22059">
        <ele>2518.5</ele>
        <time>2022-02-09T12:24:03Z</time>
      </trkpt>
      <trkpt lat="42.86719" lon="0.22059">
        <ele>2518.5</ele>
        <time>2022-02-09T12:24:04Z</time>
      </trkpt>
      <trkpt lat="42.86719" lon="0.22059">
        <ele>2518.5</ele>
        <time>2022-02-09T12:24:05Z</time>
      </trkpt>
      <trkpt lat="42.86719" lon="0.22059">
        <ele>2518.5</ele>
        <time>2022-02-09T12:24:06Z</time>
      </trkpt>
      <trkpt lat="42.86719" lon="0.22059">
        <ele>2518.5</ele>
        <time>2022-02-09T12:24:07Z</time>
      </trkpt>
      <trkpt lat="42.86719" lon="0.22059">
        <ele>2518.5</ele>
        <time>2022-02-09T12:24:08Z</time>
      </trkpt>
      <trkpt lat="42.86719" lon="0.22059">
        <ele>2518.5</ele>
        <time>2022-02-09T12:24:09Z</time>
      </trkpt>
      <trkpt lat="42.86719" lon="0.22059">
        <ele>2518.5</ele>
        <time>2022-02-09T12:24:10Z</time>
      </trkpt>
      <trkpt lat="42.86719" lon="0.22059">
        <ele>2518.5</ele>
        <time>2022-02-09T12:24:11Z</time>
      </trkpt>
      <trkpt lat="42.86719" lon="0.22059">
        <ele>2518.5</ele>
        <time>2022-02-09T12:24:12Z</time>
      </trkpt>
      <trkpt lat="42.86719" lon="0.22059">
        <ele>2518.5</ele>
        <time>2022-02-09T12:24:13Z</time>
      </trkpt>
      <trkpt lat="42.86719" lon="0.22059">
        <ele>2518.5</ele>
        <time>2022-02-09T12:24:14Z</time>
      </trkpt>
      <trkpt lat="42.86719" lon="0.22059">
        <ele>2518.5</ele>
        <time>2022-02-09T12:24:15Z</time>
      </trkpt>
      <trkpt lat="42.86719" lon="0.22059">
        <ele>2518.5</ele>
        <time>2022-02-09T12:24:16Z</time>
      </trkpt>
      <trkpt lat="42.86719" lon="0.22059">
        <ele>2518.5</ele>
        <time>2022-02-09T12:24:17Z</time>
      </trkpt>
      <trkpt lat="42.86719" lon="0.22059">
        <ele>2518.5</ele>
        <time>2022-02-09T12:24:18Z</time>
      </trkpt>
      <trkpt lat="42.86719" lon="0.22059">
        <ele>2518.5</ele>
        <time>2022-02-09T12:24:19Z</time>
      </trkpt>
      <trkpt lat="42.86719" lon="0.22059">
        <ele>2518.4</ele>
        <time>2022-02-09T12:24:20Z</time>
      </trkpt>
      <trkpt lat="42.86719" lon="0.22059">
        <ele>2518.4</ele>
        <time>2022-02-09T12:24:21Z</time>
      </trkpt>
      <trkpt lat="42.86719" lon="0.22059">
        <ele>2518.4</ele>
        <time>2022-02-09T12:24:22Z</time>
      </trkpt>
      <trkpt lat="42.86719" lon="0.22059">
        <ele>2518.4</ele>
        <time>2022-02-09T12:24:23Z</time>
      </trkpt>
      <trkpt lat="42.86719" lon="0.22059">
        <ele>2518.4</ele>
        <time>2022-02-09T12:24:24Z</time>
      </trkpt>
      <trkpt lat="42.86719" lon="0.22059">
        <ele>2518.4</ele>
        <time>2022-02-09T12:24:25Z</time>
      </trkpt>
      <trkpt lat="42.86719" lon="0.22059">
        <ele>2518.4</ele>
        <time>2022-02-09T12:24:26Z</time>
      </trkpt>
      <trkpt lat="42.86719" lon="0.22059">
        <ele>2518.4</ele>
        <time>2022-02-09T12:24:27Z</time>
      </trkpt>
      <trkpt lat="42.86719" lon="0.22059">
        <ele>2518.4</ele>
        <time>2022-02-09T12:24:28Z</time>
      </trkpt>
      <trkpt lat="42.86719" lon="0.22059">
        <ele>2518.4</ele>
        <time>2022-02-09T12:24:29Z</time>
      </trkpt>
      <trkpt lat="42.86719" lon="0.22059">
        <ele>2518.4</ele>
        <time>2022-02-09T12:24:30Z</time>
      </trkpt>
      <trkpt lat="42.86719" lon="0.22059">
        <ele>2518.4</ele>
        <time>2022-02-09T12:24:31Z</time>
      </trkpt>
      <trkpt lat="42.86719" lon="0.22059">
        <ele>2518.4</ele>
        <time>2022-02-09T12:24:32Z</time>
      </trkpt>
      <trkpt lat="42.86719" lon="0.22059">
        <ele>2518.4</ele>
        <time>2022-02-09T12:24:33Z</time>
      </trkpt>
      <trkpt lat="42.86719" lon="0.22059">
        <ele>2518.4</ele>
        <time>2022-02-09T12:24:34Z</time>
      </trkpt>
      <trkpt lat="42.86719" lon="0.22059">
        <ele>2518.4</ele>
        <time>2022-02-09T12:24:35Z</time>
      </trkpt>
      <trkpt lat="42.86719" lon="0.22059">
        <ele>2518.4</ele>
        <time>2022-02-09T12:24:36Z</time>
      </trkpt>
      <trkpt lat="42.86719" lon="0.22059">
        <ele>2518.4</ele>
        <time>2022-02-09T12:24:37Z</time>
      </trkpt>
      <trkpt lat="42.86719" lon="0.22059">
        <ele>2518.4</ele>
        <time>2022-02-09T12:24:38Z</time>
      </trkpt>
      <trkpt lat="42.86719" lon="0.22059">
        <ele>2518.4</ele>
        <time>2022-02-09T12:24:39Z</time>
      </trkpt>
      <trkpt lat="42.86719" lon="0.22059">
        <ele>2518.4</ele>
        <time>2022-02-09T12:24:40Z</time>
      </trkpt>
      <trkpt lat="42.86719" lon="0.22059">
        <ele>2518.4</ele>
        <time>2022-02-09T12:24:41Z</time>
      </trkpt>
      <trkpt lat="42.86719" lon="0.22059">
        <ele>2518.4</ele>
        <time>2022-02-09T12:24:42Z</time>
      </trkpt>
      <trkpt lat="42.86719" lon="0.22059">
        <ele>2518.4</ele>
        <time>2022-02-09T12:24:43Z</time>
      </trkpt>
      <trkpt lat="42.86719" lon="0.22059">
        <ele>2518.4</ele>
        <time>2022-02-09T12:24:44Z</time>
      </trkpt>
      <trkpt lat="42.86719" lon="0.22059">
        <ele>2518.4</ele>
        <time>2022-02-09T12:24:45Z</time>
      </trkpt>
      <trkpt lat="42.86719" lon="0.22059">
        <ele>2518.4</ele>
        <time>2022-02-09T12:24:46Z</time>
      </trkpt>
      <trkpt lat="42.86719" lon="0.22059">
        <ele>2518.4</ele>
        <time>2022-02-09T12:24:47Z</time>
      </trkpt>
      <trkpt lat="42.86719" lon="0.22059">
        <ele>2518.4</ele>
        <time>2022-02-09T12:24:48Z</time>
      </trkpt>
      <trkpt lat="42.86719" lon="0.22059">
        <ele>2518.4</ele>
        <time>2022-02-09T12:24:49Z</time>
      </trkpt>
      <trkpt lat="42.86719" lon="0.22059">
        <ele>2518.4</ele>
        <time>2022-02-09T12:24:50Z</time>
      </trkpt>
      <trkpt lat="42.86719" lon="0.22059">
        <ele>2518.4</ele>
        <time>2022-02-09T12:24:51Z</time>
      </trkpt>
      <trkpt lat="42.86719" lon="0.22059">
        <ele>2518.4</ele>
        <time>2022-02-09T12:24:52Z</time>
      </trkpt>
      <trkpt lat="42.86719" lon="0.22059">
        <ele>2518.4</ele>
        <time>2022-02-09T12:24:53Z</time>
      </trkpt>
      <trkpt lat="42.86719" lon="0.22059">
        <ele>2518.4</ele>
        <time>2022-02-09T12:24:54Z</time>
      </trkpt>
      <trkpt lat="42.86719" lon="0.22059">
        <ele>2518.4</ele>
        <time>2022-02-09T12:24:55Z</time>
      </trkpt>
      <trkpt lat="42.86719" lon="0.22059">
        <ele>2518.4</ele>
        <time>2022-02-09T12:24:56Z</time>
      </trkpt>
      <trkpt lat="42.86719" lon="0.22059">
        <ele>2518.4</ele>
        <time>2022-02-09T12:24:57Z</time>
      </trkpt>
      <trkpt lat="42.86719" lon="0.22059">
        <ele>2518.4</ele>
        <time>2022-02-09T12:24:58Z</time>
      </trkpt>
      <trkpt lat="42.86719" lon="0.22059">
        <ele>2518.4</ele>
        <time>2022-02-09T12:24:59Z</time>
      </trkpt>
      <trkpt lat="42.86719" lon="0.22059">
        <ele>2518.4</ele>
        <time>2022-02-09T12:25:00Z</time>
      </trkpt>
      <trkpt lat="42.86719" lon="0.22059">
        <ele>2518.4</ele>
        <time>2022-02-09T12:25:01Z</time>
      </trkpt>
      <trkpt lat="42.86719" lon="0.22059">
        <ele>2518.4</ele>
        <time>2022-02-09T12:25:02Z</time>
      </trkpt>
      <trkpt lat="42.86719" lon="0.22059">
        <ele>2518.4</ele>
        <time>2022-02-09T12:25:03Z</time>
      </trkpt>
      <trkpt lat="42.86719" lon="0.22059">
        <ele>2518.4</ele>
        <time>2022-02-09T12:25:04Z</time>
      </trkpt>
      <trkpt lat="42.86719" lon="0.22059">
        <ele>2518.4</ele>
        <time>2022-02-09T12:25:05Z</time>
      </trkpt>
      <trkpt lat="42.86719" lon="0.22059">
        <ele>2518.4</ele>
        <time>2022-02-09T12:25:06Z</time>
      </trkpt>
      <trkpt lat="42.86719" lon="0.22059">
        <ele>2518.4</ele>
        <time>2022-02-09T12:25:07Z</time>
      </trkpt>
      <trkpt lat="42.86719" lon="0.22059">
        <ele>2518.4</ele>
        <time>2022-02-09T12:25:08Z</time>
      </trkpt>
      <trkpt lat="42.86719" lon="0.22059">
        <ele>2518.4</ele>
        <time>2022-02-09T12:25:09Z</time>
      </trkpt>
      <trkpt lat="42.86719" lon="0.22059">
        <ele>2518.4</ele>
        <time>2022-02-09T12:25:10Z</time>
      </trkpt>
      <trkpt lat="42.86719" lon="0.22059">
        <ele>2518.4</ele>
        <time>2022-02-09T12:25:11Z</time>
      </trkpt>
      <trkpt lat="42.86719" lon="0.22059">
        <ele>2518.4</ele>
        <time>2022-02-09T12:25:12Z</time>
      </trkpt>
      <trkpt lat="42.86719" lon="0.22059">
        <ele>2518.4</ele>
        <time>2022-02-09T12:25:13Z</time>
      </trkpt>
      <trkpt lat="42.86719" lon="0.22059">
        <ele>2518.4</ele>
        <time>2022-02-09T12:25:14Z</time>
      </trkpt>
      <trkpt lat="42.86719" lon="0.22059">
        <ele>2518.4</ele>
        <time>2022-02-09T12:25:15Z</time>
      </trkpt>
      <trkpt lat="42.86719" lon="0.22059">
        <ele>2518.4</ele>
        <time>2022-02-09T12:25:16Z</time>
      </trkpt>
      <trkpt lat="42.86719" lon="0.22059">
        <ele>2518.4</ele>
        <time>2022-02-09T12:25:17Z</time>
      </trkpt>
      <trkpt lat="42.86719" lon="0.22059">
        <ele>2518.4</ele>
        <time>2022-02-09T12:25:18Z</time>
      </trkpt>
      <trkpt lat="42.86719" lon="0.22059">
        <ele>2518.4</ele>
        <time>2022-02-09T12:25:19Z</time>
      </trkpt>
      <trkpt lat="42.86719" lon="0.22059">
        <ele>2518.4</ele>
        <time>2022-02-09T12:25:20Z</time>
      </trkpt>
      <trkpt lat="42.86719" lon="0.22059">
        <ele>2518.4</ele>
        <time>2022-02-09T12:25:21Z</time>
      </trkpt>
      <trkpt lat="42.86719" lon="0.22059">
        <ele>2518.4</ele>
        <time>2022-02-09T12:25:22Z</time>
      </trkpt>
      <trkpt lat="42.86719" lon="0.22059">
        <ele>2518.4</ele>
        <time>2022-02-09T12:25:23Z</time>
      </trkpt>
      <trkpt lat="42.86719" lon="0.22059">
        <ele>2518.4</ele>
        <time>2022-02-09T12:25:24Z</time>
      </trkpt>
      <trkpt lat="42.86719" lon="0.22059">
        <ele>2518.4</ele>
        <time>2022-02-09T12:25:25Z</time>
      </trkpt>
      <trkpt lat="42.86719" lon="0.22059">
        <ele>2518.4</ele>
        <time>2022-02-09T12:25:26Z</time>
      </trkpt>
      <trkpt lat="42.86719" lon="0.22059">
        <ele>2518.4</ele>
        <time>2022-02-09T12:25:27Z</time>
      </trkpt>
      <trkpt lat="42.86719" lon="0.22059">
        <ele>2518.4</ele>
        <time>2022-02-09T12:25:28Z</time>
      </trkpt>
      <trkpt lat="42.86719" lon="0.22059">
        <ele>2518.4</ele>
        <time>2022-02-09T12:25:29Z</time>
      </trkpt>
      <trkpt lat="42.86719" lon="0.22059">
        <ele>2518.4</ele>
        <time>2022-02-09T12:25:30Z</time>
      </trkpt>
      <trkpt lat="42.86719" lon="0.22059">
        <ele>2518.4</ele>
        <time>2022-02-09T12:25:31Z</time>
      </trkpt>
      <trkpt lat="42.86719" lon="0.22059">
        <ele>2518.4</ele>
        <time>2022-02-09T12:25:32Z</time>
      </trkpt>
      <trkpt lat="42.86719" lon="0.22059">
        <ele>2518.4</ele>
        <time>2022-02-09T12:25:33Z</time>
      </trkpt>
      <trkpt lat="42.86719" lon="0.22059">
        <ele>2518.4</ele>
        <time>2022-02-09T12:25:34Z</time>
      </trkpt>
      <trkpt lat="42.86719" lon="0.22059">
        <ele>2518.4</ele>
        <time>2022-02-09T12:25:35Z</time>
      </trkpt>
      <trkpt lat="42.86719" lon="0.22059">
        <ele>2518.4</ele>
        <time>2022-02-09T12:25:36Z</time>
      </trkpt>
      <trkpt lat="42.86719" lon="0.22059">
        <ele>2518.4</ele>
        <time>2022-02-09T12:25:37Z</time>
      </trkpt>
      <trkpt lat="42.86719" lon="0.22059">
        <ele>2518.4</ele>
        <time>2022-02-09T12:25:38Z</time>
      </trkpt>
      <trkpt lat="42.86719" lon="0.22059">
        <ele>2518.4</ele>
        <time>2022-02-09T12:25:39Z</time>
      </trkpt>
      <trkpt lat="42.86719" lon="0.22059">
        <ele>2518.4</ele>
        <time>2022-02-09T12:25:40Z</time>
      </trkpt>
      <trkpt lat="42.86719" lon="0.22059">
        <ele>2518.4</ele>
        <time>2022-02-09T12:25:41Z</time>
      </trkpt>
      <trkpt lat="42.86719" lon="0.22059">
        <ele>2518.4</ele>
        <time>2022-02-09T12:25:42Z</time>
      </trkpt>
      <trkpt lat="42.86719" lon="0.22059">
        <ele>2518.4</ele>
        <time>2022-02-09T12:25:43Z</time>
      </trkpt>
      <trkpt lat="42.86719" lon="0.22059">
        <ele>2518.4</ele>
        <time>2022-02-09T12:25:44Z</time>
      </trkpt>
      <trkpt lat="42.86719" lon="0.22059">
        <ele>2518.4</ele>
        <time>2022-02-09T12:25:45Z</time>
      </trkpt>
      <trkpt lat="42.86719" lon="0.22059">
        <ele>2518.4</ele>
        <time>2022-02-09T12:25:46Z</time>
      </trkpt>
      <trkpt lat="42.86719" lon="0.22059">
        <ele>2518.4</ele>
        <time>2022-02-09T12:25:47Z</time>
      </trkpt>
      <trkpt lat="42.86719" lon="0.22059">
        <ele>2518.4</ele>
        <time>2022-02-09T12:25:48Z</time>
      </trkpt>
      <trkpt lat="42.86719" lon="0.22059">
        <ele>2518.4</ele>
        <time>2022-02-09T12:25:49Z</time>
      </trkpt>
      <trkpt lat="42.86719" lon="0.22059">
        <ele>2518.4</ele>
        <time>2022-02-09T12:25:50Z</time>
      </trkpt>
      <trkpt lat="42.86719" lon="0.22059">
        <ele>2518.4</ele>
        <time>2022-02-09T12:25:51Z</time>
      </trkpt>
      <trkpt lat="42.86719" lon="0.22059">
        <ele>2518.4</ele>
        <time>2022-02-09T12:25:52Z</time>
      </trkpt>
      <trkpt lat="42.86719" lon="0.22059">
        <ele>2518.4</ele>
        <time>2022-02-09T12:25:53Z</time>
      </trkpt>
      <trkpt lat="42.86719" lon="0.22059">
        <ele>2518.4</ele>
        <time>2022-02-09T12:25:54Z</time>
      </trkpt>
      <trkpt lat="42.86719" lon="0.22059">
        <ele>2518.4</ele>
        <time>2022-02-09T12:25:55Z</time>
      </trkpt>
      <trkpt lat="42.86719" lon="0.22059">
        <ele>2518.4</ele>
        <time>2022-02-09T12:25:56Z</time>
      </trkpt>
      <trkpt lat="42.86719" lon="0.22059">
        <ele>2518.4</ele>
        <time>2022-02-09T12:25:57Z</time>
      </trkpt>
      <trkpt lat="42.86719" lon="0.22059">
        <ele>2518.4</ele>
        <time>2022-02-09T12:25:58Z</time>
      </trkpt>
      <trkpt lat="42.86719" lon="0.22059">
        <ele>2518.4</ele>
        <time>2022-02-09T12:25:59Z</time>
      </trkpt>
      <trkpt lat="42.86719" lon="0.22059">
        <ele>2518.4</ele>
        <time>2022-02-09T12:26:00Z</time>
      </trkpt>
      <trkpt lat="42.86719" lon="0.22059">
        <ele>2518.4</ele>
        <time>2022-02-09T12:26:01Z</time>
      </trkpt>
      <trkpt lat="42.86719" lon="0.22059">
        <ele>2518.4</ele>
        <time>2022-02-09T12:26:02Z</time>
      </trkpt>
      <trkpt lat="42.86719" lon="0.22059">
        <ele>2518.4</ele>
        <time>2022-02-09T12:26:03Z</time>
      </trkpt>
      <trkpt lat="42.86719" lon="0.22059">
        <ele>2518.4</ele>
        <time>2022-02-09T12:26:04Z</time>
      </trkpt>
      <trkpt lat="42.86719" lon="0.22059">
        <ele>2518.4</ele>
        <time>2022-02-09T12:26:05Z</time>
      </trkpt>
      <trkpt lat="42.86719" lon="0.22059">
        <ele>2518.4</ele>
        <time>2022-02-09T12:26:06Z</time>
      </trkpt>
      <trkpt lat="42.86719" lon="0.22059">
        <ele>2518.4</ele>
        <time>2022-02-09T12:26:07Z</time>
      </trkpt>
      <trkpt lat="42.86719" lon="0.22059">
        <ele>2518.4</ele>
        <time>2022-02-09T12:26:08Z</time>
      </trkpt>
      <trkpt lat="42.86719" lon="0.22059">
        <ele>2518.4</ele>
        <time>2022-02-09T12:26:09Z</time>
      </trkpt>
      <trkpt lat="42.86719" lon="0.22059">
        <ele>2518.4</ele>
        <time>2022-02-09T12:26:10Z</time>
      </trkpt>
      <trkpt lat="42.86719" lon="0.22059">
        <ele>2518.4</ele>
        <time>2022-02-09T12:26:11Z</time>
      </trkpt>
      <trkpt lat="42.86719" lon="0.22059">
        <ele>2518.4</ele>
        <time>2022-02-09T12:26:12Z</time>
      </trkpt>
      <trkpt lat="42.86719" lon="0.22059">
        <ele>2518.4</ele>
        <time>2022-02-09T12:26:13Z</time>
      </trkpt>
      <trkpt lat="42.86719" lon="0.22059">
        <ele>2518.4</ele>
        <time>2022-02-09T12:26:14Z</time>
      </trkpt>
      <trkpt lat="42.86719" lon="0.22059">
        <ele>2518.4</ele>
        <time>2022-02-09T12:26:15Z</time>
      </trkpt>
      <trkpt lat="42.86719" lon="0.22059">
        <ele>2518.4</ele>
        <time>2022-02-09T12:26:16Z</time>
      </trkpt>
      <trkpt lat="42.86719" lon="0.22059">
        <ele>2518.4</ele>
        <time>2022-02-09T12:26:17Z</time>
      </trkpt>
      <trkpt lat="42.86719" lon="0.22059">
        <ele>2518.4</ele>
        <time>2022-02-09T12:26:18Z</time>
      </trkpt>
      <trkpt lat="42.86719" lon="0.22059">
        <ele>2518.4</ele>
        <time>2022-02-09T12:26:19Z</time>
      </trkpt>
      <trkpt lat="42.86719" lon="0.22059">
        <ele>2518.4</ele>
        <time>2022-02-09T12:26:20Z</time>
      </trkpt>
      <trkpt lat="42.86719" lon="0.22059">
        <ele>2518.4</ele>
        <time>2022-02-09T12:26:21Z</time>
      </trkpt>
      <trkpt lat="42.86719" lon="0.22059">
        <ele>2518.4</ele>
        <time>2022-02-09T12:26:22Z</time>
      </trkpt>
      <trkpt lat="42.86719" lon="0.22059">
        <ele>2518.4</ele>
        <time>2022-02-09T12:26:23Z</time>
      </trkpt>
      <trkpt lat="42.86719" lon="0.22059">
        <ele>2518.4</ele>
        <time>2022-02-09T12:26:24Z</time>
      </trkpt>
      <trkpt lat="42.86719" lon="0.22059">
        <ele>2518.4</ele>
        <time>2022-02-09T12:26:25Z</time>
      </trkpt>
      <trkpt lat="42.86719" lon="0.22059">
        <ele>2518.4</ele>
        <time>2022-02-09T12:26:26Z</time>
      </trkpt>
      <trkpt lat="42.86719" lon="0.22059">
        <ele>2518.4</ele>
        <time>2022-02-09T12:26:27Z</time>
      </trkpt>
      <trkpt lat="42.86719" lon="0.22059">
        <ele>2518.4</ele>
        <time>2022-02-09T12:26:28Z</time>
      </trkpt>
      <trkpt lat="42.86719" lon="0.22059">
        <ele>2518.4</ele>
        <time>2022-02-09T12:26:29Z</time>
      </trkpt>
      <trkpt lat="42.86719" lon="0.22059">
        <ele>2518.4</ele>
        <time>2022-02-09T12:26:30Z</time>
      </trkpt>
      <trkpt lat="42.86719" lon="0.22059">
        <ele>2518.4</ele>
        <time>2022-02-09T12:26:31Z</time>
      </trkpt>
      <trkpt lat="42.86719" lon="0.22059">
        <ele>2518.4</ele>
        <time>2022-02-09T12:26:32Z</time>
      </trkpt>
      <trkpt lat="42.86719" lon="0.22059">
        <ele>2518.4</ele>
        <time>2022-02-09T12:26:33Z</time>
      </trkpt>
      <trkpt lat="42.86719" lon="0.22059">
        <ele>2518.4</ele>
        <time>2022-02-09T12:26:34Z</time>
      </trkpt>
      <trkpt lat="42.86719" lon="0.22059">
        <ele>2518.4</ele>
        <time>2022-02-09T12:26:35Z</time>
      </trkpt>
      <trkpt lat="42.86719" lon="0.22059">
        <ele>2518.4</ele>
        <time>2022-02-09T12:26:36Z</time>
      </trkpt>
      <trkpt lat="42.86719" lon="0.22059">
        <ele>2518.4</ele>
        <time>2022-02-09T12:26:37Z</time>
      </trkpt>
      <trkpt lat="42.86719" lon="0.22059">
        <ele>2518.4</ele>
        <time>2022-02-09T12:26:38Z</time>
      </trkpt>
      <trkpt lat="42.86719" lon="0.22059">
        <ele>2518.4</ele>
        <time>2022-02-09T12:26:39Z</time>
      </trkpt>
      <trkpt lat="42.86719" lon="0.22059">
        <ele>2518.4</ele>
        <time>2022-02-09T12:26:40Z</time>
      </trkpt>
      <trkpt lat="42.86719" lon="0.22059">
        <ele>2518.4</ele>
        <time>2022-02-09T12:26:41Z</time>
      </trkpt>
      <trkpt lat="42.86719" lon="0.22059">
        <ele>2518.4</ele>
        <time>2022-02-09T12:26:42Z</time>
      </trkpt>
      <trkpt lat="42.86719" lon="0.22059">
        <ele>2518.4</ele>
        <time>2022-02-09T12:26:43Z</time>
      </trkpt>
      <trkpt lat="42.86719" lon="0.22059">
        <ele>2518.4</ele>
        <time>2022-02-09T12:26:44Z</time>
      </trkpt>
      <trkpt lat="42.86719" lon="0.22059">
        <ele>2518.4</ele>
        <time>2022-02-09T12:26:45Z</time>
      </trkpt>
      <trkpt lat="42.86719" lon="0.22059">
        <ele>2518.4</ele>
        <time>2022-02-09T12:26:46Z</time>
      </trkpt>
      <trkpt lat="42.86719" lon="0.22059">
        <ele>2518.4</ele>
        <time>2022-02-09T12:26:47Z</time>
      </trkpt>
      <trkpt lat="42.86719" lon="0.22059">
        <ele>2518.4</ele>
        <time>2022-02-09T12:26:48Z</time>
      </trkpt>
      <trkpt lat="42.86719" lon="0.22059">
        <ele>2518.4</ele>
        <time>2022-02-09T12:26:49Z</time>
      </trkpt>
      <trkpt lat="42.86719" lon="0.22059">
        <ele>2518.4</ele>
        <time>2022-02-09T12:26:50Z</time>
      </trkpt>
      <trkpt lat="42.86719" lon="0.22059">
        <ele>2518.4</ele>
        <time>2022-02-09T12:26:51Z</time>
      </trkpt>
      <trkpt lat="42.86719" lon="0.22059">
        <ele>2518.4</ele>
        <time>2022-02-09T12:26:52Z</time>
      </trkpt>
      <trkpt lat="42.86719" lon="0.22059">
        <ele>2518.4</ele>
        <time>2022-02-09T12:26:53Z</time>
      </trkpt>
      <trkpt lat="42.86719" lon="0.22059">
        <ele>2518.4</ele>
        <time>2022-02-09T12:26:54Z</time>
      </trkpt>
      <trkpt lat="42.86719" lon="0.22059">
        <ele>2518.4</ele>
        <time>2022-02-09T12:26:55Z</time>
      </trkpt>
      <trkpt lat="42.86719" lon="0.22059">
        <ele>2518.4</ele>
        <time>2022-02-09T12:26:56Z</time>
      </trkpt>
      <trkpt lat="42.86719" lon="0.22059">
        <ele>2518.4</ele>
        <time>2022-02-09T12:26:57Z</time>
      </trkpt>
      <trkpt lat="42.86719" lon="0.22059">
        <ele>2518.4</ele>
        <time>2022-02-09T12:26:58Z</time>
      </trkpt>
      <trkpt lat="42.86719" lon="0.22059">
        <ele>2518.4</ele>
        <time>2022-02-09T12:26:59Z</time>
      </trkpt>
      <trkpt lat="42.86719" lon="0.22059">
        <ele>2518.4</ele>
        <time>2022-02-09T12:27:00Z</time>
      </trkpt>
      <trkpt lat="42.86719" lon="0.22059">
        <ele>2518.4</ele>
        <time>2022-02-09T12:27:01Z</time>
      </trkpt>
      <trkpt lat="42.86719" lon="0.22059">
        <ele>2518.4</ele>
        <time>2022-02-09T12:27:02Z</time>
      </trkpt>
      <trkpt lat="42.86719" lon="0.22059">
        <ele>2518.4</ele>
        <time>2022-02-09T12:27:03Z</time>
      </trkpt>
      <trkpt lat="42.86719" lon="0.22059">
        <ele>2518.4</ele>
        <time>2022-02-09T12:27:04Z</time>
      </trkpt>
      <trkpt lat="42.86719" lon="0.22059">
        <ele>2518.4</ele>
        <time>2022-02-09T12:27:05Z</time>
      </trkpt>
      <trkpt lat="42.86719" lon="0.22059">
        <ele>2518.4</ele>
        <time>2022-02-09T12:27:06Z</time>
      </trkpt>
      <trkpt lat="42.86719" lon="0.22059">
        <ele>2518.4</ele>
        <time>2022-02-09T12:27:07Z</time>
      </trkpt>
      <trkpt lat="42.86719" lon="0.22059">
        <ele>2518.4</ele>
        <time>2022-02-09T12:27:08Z</time>
      </trkpt>
      <trkpt lat="42.86719" lon="0.22059">
        <ele>2518.4</ele>
        <time>2022-02-09T12:27:09Z</time>
      </trkpt>
      <trkpt lat="42.86719" lon="0.22059">
        <ele>2518.4</ele>
        <time>2022-02-09T12:27:10Z</time>
      </trkpt>
      <trkpt lat="42.86719" lon="0.22059">
        <ele>2518.4</ele>
        <time>2022-02-09T12:27:11Z</time>
      </trkpt>
      <trkpt lat="42.86719" lon="0.22059">
        <ele>2518.4</ele>
        <time>2022-02-09T12:27:12Z</time>
      </trkpt>
      <trkpt lat="42.86719" lon="0.22059">
        <ele>2518.4</ele>
        <time>2022-02-09T12:27:13Z</time>
      </trkpt>
      <trkpt lat="42.86719" lon="0.22059">
        <ele>2518.4</ele>
        <time>2022-02-09T12:27:14Z</time>
      </trkpt>
      <trkpt lat="42.86719" lon="0.22059">
        <ele>2518.4</ele>
        <time>2022-02-09T12:27:15Z</time>
      </trkpt>
      <trkpt lat="42.86719" lon="0.22059">
        <ele>2518.4</ele>
        <time>2022-02-09T12:27:16Z</time>
      </trkpt>
      <trkpt lat="42.86719" lon="0.22059">
        <ele>2518.4</ele>
        <time>2022-02-09T12:27:17Z</time>
      </trkpt>
      <trkpt lat="42.86719" lon="0.22059">
        <ele>2518.4</ele>
        <time>2022-02-09T12:27:18Z</time>
      </trkpt>
      <trkpt lat="42.86719" lon="0.22059">
        <ele>2518.4</ele>
        <time>2022-02-09T12:27:19Z</time>
      </trkpt>
      <trkpt lat="42.86719" lon="0.22059">
        <ele>2518.4</ele>
        <time>2022-02-09T12:27:20Z</time>
      </trkpt>
      <trkpt lat="42.86719" lon="0.22059">
        <ele>2518.4</ele>
        <time>2022-02-09T12:27:21Z</time>
      </trkpt>
      <trkpt lat="42.86719" lon="0.22059">
        <ele>2518.4</ele>
        <time>2022-02-09T12:27:22Z</time>
      </trkpt>
      <trkpt lat="42.86719" lon="0.22059">
        <ele>2518.4</ele>
        <time>2022-02-09T12:27:23Z</time>
      </trkpt>
      <trkpt lat="42.86719" lon="0.22059">
        <ele>2518.4</ele>
        <time>2022-02-09T12:27:24Z</time>
      </trkpt>
      <trkpt lat="42.86719" lon="0.22059">
        <ele>2518.4</ele>
        <time>2022-02-09T12:27:25Z</time>
      </trkpt>
      <trkpt lat="42.86719" lon="0.22059">
        <ele>2518.4</ele>
        <time>2022-02-09T12:27:26Z</time>
      </trkpt>
      <trkpt lat="42.86719" lon="0.22059">
        <ele>2518.4</ele>
        <time>2022-02-09T12:27:27Z</time>
      </trkpt>
      <trkpt lat="42.86719" lon="0.22059">
        <ele>2518.4</ele>
        <time>2022-02-09T12:27:28Z</time>
      </trkpt>
      <trkpt lat="42.86719" lon="0.22059">
        <ele>2518.4</ele>
        <time>2022-02-09T12:27:29Z</time>
      </trkpt>
      <trkpt lat="42.86719" lon="0.22059">
        <ele>2518.4</ele>
        <time>2022-02-09T12:27:30Z</time>
      </trkpt>
      <trkpt lat="42.86719" lon="0.22059">
        <ele>2518.4</ele>
        <time>2022-02-09T12:27:31Z</time>
      </trkpt>
      <trkpt lat="42.86719" lon="0.22059">
        <ele>2518.4</ele>
        <time>2022-02-09T12:27:32Z</time>
      </trkpt>
      <trkpt lat="42.86719" lon="0.22059">
        <ele>2518.4</ele>
        <time>2022-02-09T12:27:33Z</time>
      </trkpt>
      <trkpt lat="42.86719" lon="0.22059">
        <ele>2518.4</ele>
        <time>2022-02-09T12:27:34Z</time>
      </trkpt>
      <trkpt lat="42.86719" lon="0.22059">
        <ele>2518.4</ele>
        <time>2022-02-09T12:27:35Z</time>
      </trkpt>
      <trkpt lat="42.86719" lon="0.22059">
        <ele>2518.4</ele>
        <time>2022-02-09T12:27:36Z</time>
      </trkpt>
      <trkpt lat="42.86719" lon="0.22059">
        <ele>2518.4</ele>
        <time>2022-02-09T12:27:37Z</time>
      </trkpt>
      <trkpt lat="42.86719" lon="0.22059">
        <ele>2518.4</ele>
        <time>2022-02-09T12:27:38Z</time>
      </trkpt>
      <trkpt lat="42.86719" lon="0.22059">
        <ele>2518.4</ele>
        <time>2022-02-09T12:27:39Z</time>
      </trkpt>
      <trkpt lat="42.86719" lon="0.22059">
        <ele>2518.4</ele>
        <time>2022-02-09T12:27:40Z</time>
      </trkpt>
      <trkpt lat="42.86719" lon="0.22059">
        <ele>2518.4</ele>
        <time>2022-02-09T12:27:41Z</time>
      </trkpt>
      <trkpt lat="42.86719" lon="0.22059">
        <ele>2518.4</ele>
        <time>2022-02-09T12:27:42Z</time>
      </trkpt>
      <trkpt lat="42.86719" lon="0.22059">
        <ele>2518.4</ele>
        <time>2022-02-09T12:27:43Z</time>
      </trkpt>
      <trkpt lat="42.86719" lon="0.22059">
        <ele>2518.4</ele>
        <time>2022-02-09T12:27:44Z</time>
      </trkpt>
      <trkpt lat="42.86719" lon="0.22059">
        <ele>2518.4</ele>
        <time>2022-02-09T12:27:45Z</time>
      </trkpt>
      <trkpt lat="42.86719" lon="0.22059">
        <ele>2518.4</ele>
        <time>2022-02-09T12:27:46Z</time>
      </trkpt>
      <trkpt lat="42.86719" lon="0.22059">
        <ele>2518.4</ele>
        <time>2022-02-09T12:27:47Z</time>
      </trkpt>
      <trkpt lat="42.86719" lon="0.22059">
        <ele>2518.4</ele>
        <time>2022-02-09T12:27:48Z</time>
      </trkpt>
      <trkpt lat="42.86719" lon="0.22059">
        <ele>2518.4</ele>
        <time>2022-02-09T12:27:49Z</time>
      </trkpt>
      <trkpt lat="42.86719" lon="0.22059">
        <ele>2518.4</ele>
        <time>2022-02-09T12:27:50Z</time>
      </trkpt>
      <trkpt lat="42.86719" lon="0.22059">
        <ele>2518.4</ele>
        <time>2022-02-09T12:27:51Z</time>
      </trkpt>
      <trkpt lat="42.86719" lon="0.22059">
        <ele>2518.4</ele>
        <time>2022-02-09T12:27:52Z</time>
      </trkpt>
      <trkpt lat="42.86719" lon="0.22059">
        <ele>2518.4</ele>
        <time>2022-02-09T12:27:53Z</time>
      </trkpt>
      <trkpt lat="42.86719" lon="0.22059">
        <ele>2518.4</ele>
        <time>2022-02-09T12:27:54Z</time>
      </trkpt>
      <trkpt lat="42.86719" lon="0.22059">
        <ele>2518.4</ele>
        <time>2022-02-09T12:27:55Z</time>
      </trkpt>
      <trkpt lat="42.86719" lon="0.22059">
        <ele>2518.4</ele>
        <time>2022-02-09T12:27:56Z</time>
      </trkpt>
      <trkpt lat="42.86719" lon="0.22059">
        <ele>2518.4</ele>
        <time>2022-02-09T12:27:57Z</time>
      </trkpt>
      <trkpt lat="42.86719" lon="0.22059">
        <ele>2518.4</ele>
        <time>2022-02-09T12:27:58Z</time>
      </trkpt>
      <trkpt lat="42.86719" lon="0.22059">
        <ele>2518.4</ele>
        <time>2022-02-09T12:27:59Z</time>
      </trkpt>
      <trkpt lat="42.86719" lon="0.22059">
        <ele>2518.4</ele>
        <time>2022-02-09T12:28:00Z</time>
      </trkpt>
      <trkpt lat="42.86719" lon="0.22059">
        <ele>2518.4</ele>
        <time>2022-02-09T12:28:01Z</time>
      </trkpt>
      <trkpt lat="42.86719" lon="0.22059">
        <ele>2518.4</ele>
        <time>2022-02-09T12:28:02Z</time>
      </trkpt>
      <trkpt lat="42.86719" lon="0.22059">
        <ele>2518.4</ele>
        <time>2022-02-09T12:28:03Z</time>
      </trkpt>
      <trkpt lat="42.86719" lon="0.22059">
        <ele>2518.4</ele>
        <time>2022-02-09T12:28:04Z</time>
      </trkpt>
      <trkpt lat="42.86719" lon="0.22059">
        <ele>2518.4</ele>
        <time>2022-02-09T12:28:05Z</time>
      </trkpt>
      <trkpt lat="42.86719" lon="0.22059">
        <ele>2518.4</ele>
        <time>2022-02-09T12:28:06Z</time>
      </trkpt>
      <trkpt lat="42.86719" lon="0.22059">
        <ele>2518.4</ele>
        <time>2022-02-09T12:28:07Z</time>
      </trkpt>
      <trkpt lat="42.86719" lon="0.22059">
        <ele>2518.4</ele>
        <time>2022-02-09T12:28:08Z</time>
      </trkpt>
      <trkpt lat="42.86719" lon="0.22059">
        <ele>2518.4</ele>
        <time>2022-02-09T12:28:09Z</time>
      </trkpt>
      <trkpt lat="42.86719" lon="0.22059">
        <ele>2518.4</ele>
        <time>2022-02-09T12:28:10Z</time>
      </trkpt>
      <trkpt lat="42.86719" lon="0.22059">
        <ele>2518.4</ele>
        <time>2022-02-09T12:28:11Z</time>
      </trkpt>
      <trkpt lat="42.86719" lon="0.22059">
        <ele>2518.4</ele>
        <time>2022-02-09T12:28:12Z</time>
      </trkpt>
      <trkpt lat="42.86719" lon="0.22059">
        <ele>2518.4</ele>
        <time>2022-02-09T12:28:13Z</time>
      </trkpt>
      <trkpt lat="42.86719" lon="0.22059">
        <ele>2518.4</ele>
        <time>2022-02-09T12:28:14Z</time>
      </trkpt>
      <trkpt lat="42.86719" lon="0.22059">
        <ele>2518.4</ele>
        <time>2022-02-09T12:28:15Z</time>
      </trkpt>
      <trkpt lat="42.86719" lon="0.22059">
        <ele>2518.4</ele>
        <time>2022-02-09T12:28:16Z</time>
      </trkpt>
      <trkpt lat="42.86719" lon="0.22059">
        <ele>2518.4</ele>
        <time>2022-02-09T12:28:17Z</time>
      </trkpt>
      <trkpt lat="42.86719" lon="0.22059">
        <ele>2518.4</ele>
        <time>2022-02-09T12:28:18Z</time>
      </trkpt>
      <trkpt lat="42.86719" lon="0.22059">
        <ele>2518.4</ele>
        <time>2022-02-09T12:28:19Z</time>
      </trkpt>
      <trkpt lat="42.86719" lon="0.22059">
        <ele>2518.4</ele>
        <time>2022-02-09T12:28:20Z</time>
      </trkpt>
      <trkpt lat="42.86719" lon="0.22059">
        <ele>2518.4</ele>
        <time>2022-02-09T12:28:21Z</time>
      </trkpt>
      <trkpt lat="42.86719" lon="0.22059">
        <ele>2518.4</ele>
        <time>2022-02-09T12:28:22Z</time>
      </trkpt>
      <trkpt lat="42.86719" lon="0.22059">
        <ele>2518.4</ele>
        <time>2022-02-09T12:28:23Z</time>
      </trkpt>
      <trkpt lat="42.86719" lon="0.22059">
        <ele>2518.4</ele>
        <time>2022-02-09T12:28:24Z</time>
      </trkpt>
      <trkpt lat="42.86719" lon="0.22059">
        <ele>2518.4</ele>
        <time>2022-02-09T12:28:25Z</time>
      </trkpt>
      <trkpt lat="42.86719" lon="0.22059">
        <ele>2518.4</ele>
        <time>2022-02-09T12:28:26Z</time>
      </trkpt>
      <trkpt lat="42.86719" lon="0.22059">
        <ele>2518.4</ele>
        <time>2022-02-09T12:28:27Z</time>
      </trkpt>
      <trkpt lat="42.86719" lon="0.22059">
        <ele>2518.4</ele>
        <time>2022-02-09T12:28:28Z</time>
      </trkpt>
      <trkpt lat="42.86719" lon="0.22059">
        <ele>2518.4</ele>
        <time>2022-02-09T12:28:29Z</time>
      </trkpt>
      <trkpt lat="42.86719" lon="0.22059">
        <ele>2518.4</ele>
        <time>2022-02-09T12:28:30Z</time>
      </trkpt>
      <trkpt lat="42.86719" lon="0.22059">
        <ele>2518.4</ele>
        <time>2022-02-09T12:28:31Z</time>
      </trkpt>
      <trkpt lat="42.86719" lon="0.22059">
        <ele>2518.4</ele>
        <time>2022-02-09T12:28:32Z</time>
      </trkpt>
      <trkpt lat="42.86719" lon="0.22059">
        <ele>2518.4</ele>
        <time>2022-02-09T12:28:33Z</time>
      </trkpt>
      <trkpt lat="42.86719" lon="0.22059">
        <ele>2518.4</ele>
        <time>2022-02-09T12:28:34Z</time>
      </trkpt>
      <trkpt lat="42.86719" lon="0.22059">
        <ele>2518.4</ele>
        <time>2022-02-09T12:28:35Z</time>
      </trkpt>
      <trkpt lat="42.86719" lon="0.22059">
        <ele>2518.4</ele>
        <time>2022-02-09T12:28:36Z</time>
      </trkpt>
      <trkpt lat="42.86719" lon="0.22059">
        <ele>2518.4</ele>
        <time>2022-02-09T12:28:37Z</time>
      </trkpt>
      <trkpt lat="42.86719" lon="0.22059">
        <ele>2518.4</ele>
        <time>2022-02-09T12:28:38Z</time>
      </trkpt>
      <trkpt lat="42.86719" lon="0.22059">
        <ele>2518.4</ele>
        <time>2022-02-09T12:28:39Z</time>
      </trkpt>
      <trkpt lat="42.86719" lon="0.22059">
        <ele>2518.4</ele>
        <time>2022-02-09T12:28:40Z</time>
      </trkpt>
      <trkpt lat="42.86719" lon="0.22059">
        <ele>2518.4</ele>
        <time>2022-02-09T12:28:41Z</time>
      </trkpt>
      <trkpt lat="42.86719" lon="0.22059">
        <ele>2518.4</ele>
        <time>2022-02-09T12:28:42Z</time>
      </trkpt>
      <trkpt lat="42.86719" lon="0.22059">
        <ele>2518.4</ele>
        <time>2022-02-09T12:28:43Z</time>
      </trkpt>
      <trkpt lat="42.86719" lon="0.22059">
        <ele>2518.4</ele>
        <time>2022-02-09T12:28:44Z</time>
      </trkpt>
      <trkpt lat="42.86719" lon="0.22059">
        <ele>2518.4</ele>
        <time>2022-02-09T12:28:45Z</time>
      </trkpt>
      <trkpt lat="42.86719" lon="0.22059">
        <ele>2518.4</ele>
        <time>2022-02-09T12:28:46Z</time>
      </trkpt>
      <trkpt lat="42.86719" lon="0.22059">
        <ele>2518.4</ele>
        <time>2022-02-09T12:28:47Z</time>
      </trkpt>
      <trkpt lat="42.86719" lon="0.22059">
        <ele>2518.4</ele>
        <time>2022-02-09T12:28:48Z</time>
      </trkpt>
      <trkpt lat="42.86719" lon="0.22059">
        <ele>2518.4</ele>
        <time>2022-02-09T12:28:49Z</time>
      </trkpt>
      <trkpt lat="42.86719" lon="0.22059">
        <ele>2518.4</ele>
        <time>2022-02-09T12:28:50Z</time>
      </trkpt>
      <trkpt lat="42.86719" lon="0.22059">
        <ele>2518.4</ele>
        <time>2022-02-09T12:28:51Z</time>
      </trkpt>
      <trkpt lat="42.86719" lon="0.22059">
        <ele>2518.4</ele>
        <time>2022-02-09T12:28:52Z</time>
      </trkpt>
      <trkpt lat="42.86719" lon="0.22059">
        <ele>2518.4</ele>
        <time>2022-02-09T12:28:53Z</time>
      </trkpt>
      <trkpt lat="42.86719" lon="0.22059">
        <ele>2518.4</ele>
        <time>2022-02-09T12:28:54Z</time>
      </trkpt>
      <trkpt lat="42.86719" lon="0.22059">
        <ele>2518.4</ele>
        <time>2022-02-09T12:28:55Z</time>
      </trkpt>
      <trkpt lat="42.86719" lon="0.22059">
        <ele>2518.4</ele>
        <time>2022-02-09T12:28:56Z</time>
      </trkpt>
      <trkpt lat="42.86719" lon="0.22059">
        <ele>2518.4</ele>
        <time>2022-02-09T12:28:57Z</time>
      </trkpt>
      <trkpt lat="42.86719" lon="0.22059">
        <ele>2518.4</ele>
        <time>2022-02-09T12:28:58Z</time>
      </trkpt>
      <trkpt lat="42.86719" lon="0.22059">
        <ele>2518.4</ele>
        <time>2022-02-09T12:28:59Z</time>
      </trkpt>
      <trkpt lat="42.86719" lon="0.22059">
        <ele>2518.4</ele>
        <time>2022-02-09T12:29:00Z</time>
      </trkpt>
      <trkpt lat="42.86719" lon="0.22059">
        <ele>2518.4</ele>
        <time>2022-02-09T12:29:01Z</time>
      </trkpt>
      <trkpt lat="42.86719" lon="0.22059">
        <ele>2518.4</ele>
        <time>2022-02-09T12:29:02Z</time>
      </trkpt>
      <trkpt lat="42.86719" lon="0.22059">
        <ele>2518.4</ele>
        <time>2022-02-09T12:29:03Z</time>
      </trkpt>
      <trkpt lat="42.86719" lon="0.22059">
        <ele>2518.4</ele>
        <time>2022-02-09T12:29:04Z</time>
      </trkpt>
      <trkpt lat="42.86719" lon="0.22059">
        <ele>2518.4</ele>
        <time>2022-02-09T12:29:05Z</time>
      </trkpt>
      <trkpt lat="42.86719" lon="0.22059">
        <ele>2518.4</ele>
        <time>2022-02-09T12:29:06Z</time>
      </trkpt>
      <trkpt lat="42.86719" lon="0.22059">
        <ele>2518.4</ele>
        <time>2022-02-09T12:29:07Z</time>
      </trkpt>
      <trkpt lat="42.86719" lon="0.22059">
        <ele>2518.4</ele>
        <time>2022-02-09T12:29:08Z</time>
      </trkpt>
      <trkpt lat="42.86719" lon="0.22059">
        <ele>2518.4</ele>
        <time>2022-02-09T12:29:09Z</time>
      </trkpt>
      <trkpt lat="42.86719" lon="0.22059">
        <ele>2518.4</ele>
        <time>2022-02-09T12:29:10Z</time>
      </trkpt>
      <trkpt lat="42.86719" lon="0.22059">
        <ele>2518.4</ele>
        <time>2022-02-09T12:29:11Z</time>
      </trkpt>
      <trkpt lat="42.86719" lon="0.22059">
        <ele>2518.4</ele>
        <time>2022-02-09T12:29:12Z</time>
      </trkpt>
      <trkpt lat="42.86719" lon="0.22059">
        <ele>2518.4</ele>
        <time>2022-02-09T12:29:13Z</time>
      </trkpt>
      <trkpt lat="42.86719" lon="0.22059">
        <ele>2518.4</ele>
        <time>2022-02-09T12:29:14Z</time>
      </trkpt>
      <trkpt lat="42.86719" lon="0.22059">
        <ele>2518.4</ele>
        <time>2022-02-09T12:29:15Z</time>
      </trkpt>
      <trkpt lat="42.86719" lon="0.22059">
        <ele>2518.4</ele>
        <time>2022-02-09T12:29:16Z</time>
      </trkpt>
      <trkpt lat="42.86719" lon="0.22059">
        <ele>2518.4</ele>
        <time>2022-02-09T12:29:17Z</time>
      </trkpt>
      <trkpt lat="42.86719" lon="0.22059">
        <ele>2518.4</ele>
        <time>2022-02-09T12:29:18Z</time>
      </trkpt>
      <trkpt lat="42.86719" lon="0.22059">
        <ele>2518.4</ele>
        <time>2022-02-09T12:29:19Z</time>
      </trkpt>
      <trkpt lat="42.86719" lon="0.22059">
        <ele>2518.4</ele>
        <time>2022-02-09T12:29:20Z</time>
      </trkpt>
      <trkpt lat="42.86719" lon="0.22059">
        <ele>2518.4</ele>
        <time>2022-02-09T12:29:21Z</time>
      </trkpt>
      <trkpt lat="42.86719" lon="0.22059">
        <ele>2518.4</ele>
        <time>2022-02-09T12:29:22Z</time>
      </trkpt>
      <trkpt lat="42.86719" lon="0.22059">
        <ele>2518.4</ele>
        <time>2022-02-09T12:29:23Z</time>
      </trkpt>
      <trkpt lat="42.86719" lon="0.22059">
        <ele>2518.4</ele>
        <time>2022-02-09T12:29:24Z</time>
      </trkpt>
      <trkpt lat="42.86719" lon="0.22059">
        <ele>2518.4</ele>
        <time>2022-02-09T12:29:25Z</time>
      </trkpt>
      <trkpt lat="42.86719" lon="0.22059">
        <ele>2518.4</ele>
        <time>2022-02-09T12:29:26Z</time>
      </trkpt>
      <trkpt lat="42.86719" lon="0.22059">
        <ele>2518.4</ele>
        <time>2022-02-09T12:29:27Z</time>
      </trkpt>
      <trkpt lat="42.86719" lon="0.22059">
        <ele>2518.4</ele>
        <time>2022-02-09T12:29:28Z</time>
      </trkpt>
      <trkpt lat="42.86719" lon="0.22059">
        <ele>2518.4</ele>
        <time>2022-02-09T12:29:29Z</time>
      </trkpt>
      <trkpt lat="42.86719" lon="0.22059">
        <ele>2518.4</ele>
        <time>2022-02-09T12:29:30Z</time>
      </trkpt>
      <trkpt lat="42.86719" lon="0.22059">
        <ele>2518.4</ele>
        <time>2022-02-09T12:29:31Z</time>
      </trkpt>
      <trkpt lat="42.86719" lon="0.22059">
        <ele>2518.4</ele>
        <time>2022-02-09T12:29:32Z</time>
      </trkpt>
      <trkpt lat="42.86719" lon="0.22059">
        <ele>2518.4</ele>
        <time>2022-02-09T12:29:33Z</time>
      </trkpt>
      <trkpt lat="42.86719" lon="0.22059">
        <ele>2518.4</ele>
        <time>2022-02-09T12:29:34Z</time>
      </trkpt>
      <trkpt lat="42.86719" lon="0.22059">
        <ele>2518.4</ele>
        <time>2022-02-09T12:29:35Z</time>
      </trkpt>
      <trkpt lat="42.86719" lon="0.22059">
        <ele>2518.4</ele>
        <time>2022-02-09T12:29:36Z</time>
      </trkpt>
      <trkpt lat="42.86719" lon="0.22059">
        <ele>2518.4</ele>
        <time>2022-02-09T12:29:37Z</time>
      </trkpt>
      <trkpt lat="42.86719" lon="0.22059">
        <ele>2518.4</ele>
        <time>2022-02-09T12:29:38Z</time>
      </trkpt>
      <trkpt lat="42.86719" lon="0.22059">
        <ele>2518.4</ele>
        <time>2022-02-09T12:29:39Z</time>
      </trkpt>
      <trkpt lat="42.86719" lon="0.22059">
        <ele>2518.4</ele>
        <time>2022-02-09T12:29:40Z</time>
      </trkpt>
      <trkpt lat="42.86719" lon="0.22059">
        <ele>2518.4</ele>
        <time>2022-02-09T12:29:41Z</time>
      </trkpt>
      <trkpt lat="42.86719" lon="0.22059">
        <ele>2518.4</ele>
        <time>2022-02-09T12:29:42Z</time>
      </trkpt>
      <trkpt lat="42.86719" lon="0.22059">
        <ele>2518.4</ele>
        <time>2022-02-09T12:29:43Z</time>
      </trkpt>
      <trkpt lat="42.86719" lon="0.22059">
        <ele>2518.4</ele>
        <time>2022-02-09T12:29:44Z</time>
      </trkpt>
      <trkpt lat="42.86719" lon="0.22059">
        <ele>2518.4</ele>
        <time>2022-02-09T12:29:45Z</time>
      </trkpt>
      <trkpt lat="42.86719" lon="0.22059">
        <ele>2518.4</ele>
        <time>2022-02-09T12:29:46Z</time>
      </trkpt>
      <trkpt lat="42.86719" lon="0.22059">
        <ele>2518.4</ele>
        <time>2022-02-09T12:29:47Z</time>
      </trkpt>
      <trkpt lat="42.86719" lon="0.22059">
        <ele>2518.4</ele>
        <time>2022-02-09T12:29:48Z</time>
      </trkpt>
      <trkpt lat="42.86719" lon="0.22059">
        <ele>2518.4</ele>
        <time>2022-02-09T12:29:49Z</time>
      </trkpt>
      <trkpt lat="42.86719" lon="0.22059">
        <ele>2518.4</ele>
        <time>2022-02-09T12:29:50Z</time>
      </trkpt>
      <trkpt lat="42.86719" lon="0.22059">
        <ele>2518.4</ele>
        <time>2022-02-09T12:29:51Z</time>
      </trkpt>
      <trkpt lat="42.86719" lon="0.22059">
        <ele>2518.4</ele>
        <time>2022-02-09T12:29:52Z</time>
      </trkpt>
      <trkpt lat="42.86719" lon="0.22059">
        <ele>2518.4</ele>
        <time>2022-02-09T12:29:53Z</time>
      </trkpt>
      <trkpt lat="42.86719" lon="0.22059">
        <ele>2518.4</ele>
        <time>2022-02-09T12:29:54Z</time>
      </trkpt>
      <trkpt lat="42.86719" lon="0.22059">
        <ele>2518.4</ele>
        <time>2022-02-09T12:29:55Z</time>
      </trkpt>
      <trkpt lat="42.86719" lon="0.22059">
        <ele>2518.4</ele>
        <time>2022-02-09T12:29:56Z</time>
      </trkpt>
      <trkpt lat="42.86719" lon="0.22059">
        <ele>2518.4</ele>
        <time>2022-02-09T12:29:57Z</time>
      </trkpt>
      <trkpt lat="42.86719" lon="0.22059">
        <ele>2518.4</ele>
        <time>2022-02-09T12:29:58Z</time>
      </trkpt>
      <trkpt lat="42.86719" lon="0.22059">
        <ele>2518.4</ele>
        <time>2022-02-09T12:29:59Z</time>
      </trkpt>
      <trkpt lat="42.86719" lon="0.22059">
        <ele>2518.4</ele>
        <time>2022-02-09T12:30:00Z</time>
      </trkpt>
      <trkpt lat="42.86719" lon="0.22059">
        <ele>2518.4</ele>
        <time>2022-02-09T12:30:01Z</time>
      </trkpt>
      <trkpt lat="42.86719" lon="0.22059">
        <ele>2518.4</ele>
        <time>2022-02-09T12:30:02Z</time>
      </trkpt>
      <trkpt lat="42.86719" lon="0.22059">
        <ele>2518.4</ele>
        <time>2022-02-09T12:30:03Z</time>
      </trkpt>
      <trkpt lat="42.86719" lon="0.22059">
        <ele>2518.4</ele>
        <time>2022-02-09T12:30:04Z</time>
      </trkpt>
      <trkpt lat="42.86719" lon="0.22059">
        <ele>2518.4</ele>
        <time>2022-02-09T12:30:05Z</time>
      </trkpt>
      <trkpt lat="42.86719" lon="0.22059">
        <ele>2518.4</ele>
        <time>2022-02-09T12:30:06Z</time>
      </trkpt>
      <trkpt lat="42.86719" lon="0.22059">
        <ele>2518.4</ele>
        <time>2022-02-09T12:30:07Z</time>
      </trkpt>
      <trkpt lat="42.86719" lon="0.22059">
        <ele>2518.4</ele>
        <time>2022-02-09T12:30:08Z</time>
      </trkpt>
      <trkpt lat="42.86719" lon="0.22059">
        <ele>2518.4</ele>
        <time>2022-02-09T12:30:09Z</time>
      </trkpt>
      <trkpt lat="42.86719" lon="0.22059">
        <ele>2518.4</ele>
        <time>2022-02-09T12:30:10Z</time>
      </trkpt>
      <trkpt lat="42.86719" lon="0.22059">
        <ele>2518.4</ele>
        <time>2022-02-09T12:30:11Z</time>
      </trkpt>
      <trkpt lat="42.86719" lon="0.22059">
        <ele>2518.4</ele>
        <time>2022-02-09T12:30:12Z</time>
      </trkpt>
      <trkpt lat="42.86719" lon="0.22059">
        <ele>2518.4</ele>
        <time>2022-02-09T12:30:13Z</time>
      </trkpt>
      <trkpt lat="42.86719" lon="0.22059">
        <ele>2518.4</ele>
        <time>2022-02-09T12:30:14Z</time>
      </trkpt>
      <trkpt lat="42.86719" lon="0.22059">
        <ele>2518.4</ele>
        <time>2022-02-09T12:30:15Z</time>
      </trkpt>
      <trkpt lat="42.86719" lon="0.22059">
        <ele>2518.4</ele>
        <time>2022-02-09T12:30:16Z</time>
      </trkpt>
      <trkpt lat="42.86719" lon="0.22059">
        <ele>2518.4</ele>
        <time>2022-02-09T12:30:17Z</time>
      </trkpt>
      <trkpt lat="42.86719" lon="0.22059">
        <ele>2518.4</ele>
        <time>2022-02-09T12:30:18Z</time>
      </trkpt>
      <trkpt lat="42.86719" lon="0.22059">
        <ele>2518.4</ele>
        <time>2022-02-09T12:30:19Z</time>
      </trkpt>
      <trkpt lat="42.86719" lon="0.22059">
        <ele>2518.4</ele>
        <time>2022-02-09T12:30:20Z</time>
      </trkpt>
      <trkpt lat="42.86719" lon="0.22059">
        <ele>2518.4</ele>
        <time>2022-02-09T12:30:21Z</time>
      </trkpt>
      <trkpt lat="42.86719" lon="0.22059">
        <ele>2518.4</ele>
        <time>2022-02-09T12:30:22Z</time>
      </trkpt>
      <trkpt lat="42.86719" lon="0.22059">
        <ele>2518.4</ele>
        <time>2022-02-09T12:30:23Z</time>
      </trkpt>
      <trkpt lat="42.86719" lon="0.22059">
        <ele>2518.4</ele>
        <time>2022-02-09T12:30:24Z</time>
      </trkpt>
      <trkpt lat="42.86719" lon="0.22059">
        <ele>2518.4</ele>
        <time>2022-02-09T12:30:25Z</time>
      </trkpt>
      <trkpt lat="42.86719" lon="0.22059">
        <ele>2518.4</ele>
        <time>2022-02-09T12:30:26Z</time>
      </trkpt>
      <trkpt lat="42.86719" lon="0.22059">
        <ele>2518.4</ele>
        <time>2022-02-09T12:30:27Z</time>
      </trkpt>
      <trkpt lat="42.86719" lon="0.22059">
        <ele>2518.4</ele>
        <time>2022-02-09T12:30:28Z</time>
      </trkpt>
      <trkpt lat="42.86719" lon="0.22059">
        <ele>2518.4</ele>
        <time>2022-02-09T12:30:29Z</time>
      </trkpt>
      <trkpt lat="42.86719" lon="0.22059">
        <ele>2518.4</ele>
        <time>2022-02-09T12:30:30Z</time>
      </trkpt>
      <trkpt lat="42.86719" lon="0.22059">
        <ele>2518.4</ele>
        <time>2022-02-09T12:30:31Z</time>
      </trkpt>
      <trkpt lat="42.86719" lon="0.22059">
        <ele>2518.4</ele>
        <time>2022-02-09T12:30:32Z</time>
      </trkpt>
      <trkpt lat="42.86719" lon="0.22059">
        <ele>2518.4</ele>
        <time>2022-02-09T12:30:33Z</time>
      </trkpt>
      <trkpt lat="42.86719" lon="0.22059">
        <ele>2518.4</ele>
        <time>2022-02-09T12:30:34Z</time>
      </trkpt>
      <trkpt lat="42.86719" lon="0.22059">
        <ele>2518.4</ele>
        <time>2022-02-09T12:30:35Z</time>
      </trkpt>
      <trkpt lat="42.86719" lon="0.22059">
        <ele>2518.4</ele>
        <time>2022-02-09T12:30:36Z</time>
      </trkpt>
      <trkpt lat="42.86719" lon="0.22059">
        <ele>2518.4</ele>
        <time>2022-02-09T12:30:37Z</time>
      </trkpt>
      <trkpt lat="42.86719" lon="0.22059">
        <ele>2518.4</ele>
        <time>2022-02-09T12:30:38Z</time>
      </trkpt>
      <trkpt lat="42.86719" lon="0.22059">
        <ele>2518.4</ele>
        <time>2022-02-09T12:30:39Z</time>
      </trkpt>
      <trkpt lat="42.86719" lon="0.22059">
        <ele>2518.4</ele>
        <time>2022-02-09T12:30:40Z</time>
      </trkpt>
      <trkpt lat="42.86719" lon="0.22059">
        <ele>2518.4</ele>
        <time>2022-02-09T12:30:41Z</time>
      </trkpt>
      <trkpt lat="42.86719" lon="0.22059">
        <ele>2518.4</ele>
        <time>2022-02-09T12:30:42Z</time>
      </trkpt>
      <trkpt lat="42.86719" lon="0.22059">
        <ele>2518.4</ele>
        <time>2022-02-09T12:30:43Z</time>
      </trkpt>
      <trkpt lat="42.86719" lon="0.22059">
        <ele>2518.4</ele>
        <time>2022-02-09T12:30:44Z</time>
      </trkpt>
      <trkpt lat="42.86719" lon="0.22059">
        <ele>2518.4</ele>
        <time>2022-02-09T12:30:45Z</time>
      </trkpt>
      <trkpt lat="42.86719" lon="0.22059">
        <ele>2518.4</ele>
        <time>2022-02-09T12:30:46Z</time>
      </trkpt>
      <trkpt lat="42.86719" lon="0.22059">
        <ele>2518.4</ele>
        <time>2022-02-09T12:30:47Z</time>
      </trkpt>
      <trkpt lat="42.86719" lon="0.22059">
        <ele>2518.4</ele>
        <time>2022-02-09T12:30:48Z</time>
      </trkpt>
      <trkpt lat="42.86719" lon="0.22059">
        <ele>2518.4</ele>
        <time>2022-02-09T12:30:49Z</time>
      </trkpt>
      <trkpt lat="42.86719" lon="0.22059">
        <ele>2518.4</ele>
        <time>2022-02-09T12:30:50Z</time>
      </trkpt>
      <trkpt lat="42.86719" lon="0.22059">
        <ele>2518.4</ele>
        <time>2022-02-09T12:30:51Z</time>
      </trkpt>
      <trkpt lat="42.86719" lon="0.22059">
        <ele>2518.4</ele>
        <time>2022-02-09T12:30:52Z</time>
      </trkpt>
      <trkpt lat="42.86719" lon="0.22059">
        <ele>2518.4</ele>
        <time>2022-02-09T12:30:53Z</time>
      </trkpt>
      <trkpt lat="42.86719" lon="0.22059">
        <ele>2518.4</ele>
        <time>2022-02-09T12:30:54Z</time>
      </trkpt>
      <trkpt lat="42.86719" lon="0.22059">
        <ele>2518.4</ele>
        <time>2022-02-09T12:30:55Z</time>
      </trkpt>
      <trkpt lat="42.86719" lon="0.22059">
        <ele>2518.4</ele>
        <time>2022-02-09T12:30:56Z</time>
      </trkpt>
      <trkpt lat="42.86719" lon="0.22059">
        <ele>2518.4</ele>
        <time>2022-02-09T12:30:57Z</time>
      </trkpt>
      <trkpt lat="42.86719" lon="0.22059">
        <ele>2518.4</ele>
        <time>2022-02-09T12:30:58Z</time>
      </trkpt>
      <trkpt lat="42.86719" lon="0.22059">
        <ele>2518.4</ele>
        <time>2022-02-09T12:30:59Z</time>
      </trkpt>
      <trkpt lat="42.86719" lon="0.22059">
        <ele>2518.4</ele>
        <time>2022-02-09T12:31:00Z</time>
      </trkpt>
      <trkpt lat="42.86719" lon="0.22059">
        <ele>2518.4</ele>
        <time>2022-02-09T12:31:01Z</time>
      </trkpt>
      <trkpt lat="42.86719" lon="0.22059">
        <ele>2518.4</ele>
        <time>2022-02-09T12:31:02Z</time>
      </trkpt>
      <trkpt lat="42.86719" lon="0.22059">
        <ele>2518.4</ele>
        <time>2022-02-09T12:31:03Z</time>
      </trkpt>
      <trkpt lat="42.86719" lon="0.22059">
        <ele>2518.4</ele>
        <time>2022-02-09T12:31:04Z</time>
      </trkpt>
      <trkpt lat="42.86719" lon="0.22059">
        <ele>2518.4</ele>
        <time>2022-02-09T12:31:05Z</time>
      </trkpt>
      <trkpt lat="42.86719" lon="0.22059">
        <ele>2518.4</ele>
        <time>2022-02-09T12:31:06Z</time>
      </trkpt>
      <trkpt lat="42.86719" lon="0.22059">
        <ele>2518.4</ele>
        <time>2022-02-09T12:31:07Z</time>
      </trkpt>
      <trkpt lat="42.86719" lon="0.22059">
        <ele>2518.4</ele>
        <time>2022-02-09T12:31:08Z</time>
      </trkpt>
      <trkpt lat="42.86719" lon="0.22059">
        <ele>2518.4</ele>
        <time>2022-02-09T12:31:09Z</time>
      </trkpt>
      <trkpt lat="42.86719" lon="0.22059">
        <ele>2518.4</ele>
        <time>2022-02-09T12:31:10Z</time>
      </trkpt>
      <trkpt lat="42.86719" lon="0.22059">
        <ele>2518.4</ele>
        <time>2022-02-09T12:31:11Z</time>
      </trkpt>
      <trkpt lat="42.86719" lon="0.22059">
        <ele>2518.4</ele>
        <time>2022-02-09T12:31:12Z</time>
      </trkpt>
      <trkpt lat="42.86719" lon="0.22059">
        <ele>2518.4</ele>
        <time>2022-02-09T12:31:13Z</time>
      </trkpt>
      <trkpt lat="42.86719" lon="0.22059">
        <ele>2518.4</ele>
        <time>2022-02-09T12:31:14Z</time>
      </trkpt>
      <trkpt lat="42.86719" lon="0.22059">
        <ele>2518.4</ele>
        <time>2022-02-09T12:31:15Z</time>
      </trkpt>
      <trkpt lat="42.86719" lon="0.22059">
        <ele>2518.4</ele>
        <time>2022-02-09T12:31:16Z</time>
      </trkpt>
      <trkpt lat="42.86719" lon="0.22059">
        <ele>2518.4</ele>
        <time>2022-02-09T12:31:17Z</time>
      </trkpt>
      <trkpt lat="42.86719" lon="0.22059">
        <ele>2518.4</ele>
        <time>2022-02-09T12:31:18Z</time>
      </trkpt>
      <trkpt lat="42.86719" lon="0.22059">
        <ele>2518.4</ele>
        <time>2022-02-09T12:31:19Z</time>
      </trkpt>
      <trkpt lat="42.86719" lon="0.22059">
        <ele>2518.4</ele>
        <time>2022-02-09T12:31:20Z</time>
      </trkpt>
      <trkpt lat="42.86719" lon="0.22059">
        <ele>2518.4</ele>
        <time>2022-02-09T12:31:21Z</time>
      </trkpt>
      <trkpt lat="42.86719" lon="0.22059">
        <ele>2518.4</ele>
        <time>2022-02-09T12:31:22Z</time>
      </trkpt>
      <trkpt lat="42.86719" lon="0.22059">
        <ele>2518.4</ele>
        <time>2022-02-09T12:31:23Z</time>
      </trkpt>
      <trkpt lat="42.86719" lon="0.22059">
        <ele>2518.4</ele>
        <time>2022-02-09T12:31:24Z</time>
      </trkpt>
      <trkpt lat="42.86719" lon="0.22059">
        <ele>2518.4</ele>
        <time>2022-02-09T12:31:25Z</time>
      </trkpt>
      <trkpt lat="42.86719" lon="0.22059">
        <ele>2518.4</ele>
        <time>2022-02-09T12:31:26Z</time>
      </trkpt>
      <trkpt lat="42.86719" lon="0.22059">
        <ele>2518.4</ele>
        <time>2022-02-09T12:31:27Z</time>
      </trkpt>
      <trkpt lat="42.86719" lon="0.22059">
        <ele>2518.4</ele>
        <time>2022-02-09T12:31:28Z</time>
      </trkpt>
      <trkpt lat="42.86719" lon="0.22059">
        <ele>2518.4</ele>
        <time>2022-02-09T12:31:29Z</time>
      </trkpt>
      <trkpt lat="42.86719" lon="0.22059">
        <ele>2518.4</ele>
        <time>2022-02-09T12:31:30Z</time>
      </trkpt>
      <trkpt lat="42.86719" lon="0.22059">
        <ele>2518.4</ele>
        <time>2022-02-09T12:31:31Z</time>
      </trkpt>
      <trkpt lat="42.86719" lon="0.22059">
        <ele>2518.4</ele>
        <time>2022-02-09T12:31:32Z</time>
      </trkpt>
      <trkpt lat="42.86719" lon="0.22059">
        <ele>2518.4</ele>
        <time>2022-02-09T12:31:33Z</time>
      </trkpt>
      <trkpt lat="42.86719" lon="0.22059">
        <ele>2518.4</ele>
        <time>2022-02-09T12:31:34Z</time>
      </trkpt>
      <trkpt lat="42.86719" lon="0.22059">
        <ele>2518.4</ele>
        <time>2022-02-09T12:31:35Z</time>
      </trkpt>
      <trkpt lat="42.86719" lon="0.22059">
        <ele>2518.4</ele>
        <time>2022-02-09T12:31:36Z</time>
      </trkpt>
      <trkpt lat="42.86719" lon="0.22059">
        <ele>2518.4</ele>
        <time>2022-02-09T12:31:37Z</time>
      </trkpt>
      <trkpt lat="42.86719" lon="0.22059">
        <ele>2518.4</ele>
        <time>2022-02-09T12:31:38Z</time>
      </trkpt>
      <trkpt lat="42.86719" lon="0.22059">
        <ele>2518.4</ele>
        <time>2022-02-09T12:31:39Z</time>
      </trkpt>
      <trkpt lat="42.86719" lon="0.22059">
        <ele>2518.4</ele>
        <time>2022-02-09T12:31:40Z</time>
      </trkpt>
      <trkpt lat="42.86719" lon="0.22059">
        <ele>2518.4</ele>
        <time>2022-02-09T12:31:41Z</time>
      </trkpt>
      <trkpt lat="42.86719" lon="0.22059">
        <ele>2518.4</ele>
        <time>2022-02-09T12:31:42Z</time>
      </trkpt>
      <trkpt lat="42.86719" lon="0.22059">
        <ele>2518.4</ele>
        <time>2022-02-09T12:31:43Z</time>
      </trkpt>
      <trkpt lat="42.86719" lon="0.22059">
        <ele>2518.4</ele>
        <time>2022-02-09T12:31:44Z</time>
      </trkpt>
      <trkpt lat="42.86719" lon="0.22059">
        <ele>2518.4</ele>
        <time>2022-02-09T12:31:45Z</time>
      </trkpt>
      <trkpt lat="42.86719" lon="0.22059">
        <ele>2518.4</ele>
        <time>2022-02-09T12:31:46Z</time>
      </trkpt>
      <trkpt lat="42.86719" lon="0.22059">
        <ele>2518.4</ele>
        <time>2022-02-09T12:31:47Z</time>
      </trkpt>
      <trkpt lat="42.86719" lon="0.22059">
        <ele>2518.4</ele>
        <time>2022-02-09T12:31:48Z</time>
      </trkpt>
      <trkpt lat="42.86719" lon="0.22059">
        <ele>2518.4</ele>
        <time>2022-02-09T12:31:49Z</time>
      </trkpt>
      <trkpt lat="42.86719" lon="0.22059">
        <ele>2518.4</ele>
        <time>2022-02-09T12:31:50Z</time>
      </trkpt>
      <trkpt lat="42.86719" lon="0.22059">
        <ele>2518.4</ele>
        <time>2022-02-09T12:31:51Z</time>
      </trkpt>
      <trkpt lat="42.86719" lon="0.22059">
        <ele>2518.4</ele>
        <time>2022-02-09T12:31:52Z</time>
      </trkpt>
      <trkpt lat="42.86719" lon="0.22059">
        <ele>2518.4</ele>
        <time>2022-02-09T12:31:53Z</time>
      </trkpt>
      <trkpt lat="42.86719" lon="0.22059">
        <ele>2518.4</ele>
        <time>2022-02-09T12:31:54Z</time>
      </trkpt>
      <trkpt lat="42.86719" lon="0.22059">
        <ele>2518.4</ele>
        <time>2022-02-09T12:31:55Z</time>
      </trkpt>
      <trkpt lat="42.86719" lon="0.22059">
        <ele>2518.4</ele>
        <time>2022-02-09T12:31:56Z</time>
      </trkpt>
      <trkpt lat="42.86719" lon="0.22059">
        <ele>2518.4</ele>
        <time>2022-02-09T12:31:57Z</time>
      </trkpt>
      <trkpt lat="42.86719" lon="0.22059">
        <ele>2518.4</ele>
        <time>2022-02-09T12:31:58Z</time>
      </trkpt>
      <trkpt lat="42.86719" lon="0.22059">
        <ele>2518.4</ele>
        <time>2022-02-09T12:31:59Z</time>
      </trkpt>
      <trkpt lat="42.86719" lon="0.22059">
        <ele>2518.4</ele>
        <time>2022-02-09T12:32:00Z</time>
      </trkpt>
      <trkpt lat="42.86719" lon="0.22059">
        <ele>2518.4</ele>
        <time>2022-02-09T12:32:01Z</time>
      </trkpt>
      <trkpt lat="42.86719" lon="0.22059">
        <ele>2518.4</ele>
        <time>2022-02-09T12:32:02Z</time>
      </trkpt>
      <trkpt lat="42.86719" lon="0.22059">
        <ele>2518.4</ele>
        <time>2022-02-09T12:32:03Z</time>
      </trkpt>
      <trkpt lat="42.86719" lon="0.22059">
        <ele>2518.4</ele>
        <time>2022-02-09T12:32:04Z</time>
      </trkpt>
      <trkpt lat="42.86719" lon="0.22059">
        <ele>2518.4</ele>
        <time>2022-02-09T12:32:05Z</time>
      </trkpt>
      <trkpt lat="42.86719" lon="0.22059">
        <ele>2518.4</ele>
        <time>2022-02-09T12:32:06Z</time>
      </trkpt>
      <trkpt lat="42.86719" lon="0.22059">
        <ele>2518.4</ele>
        <time>2022-02-09T12:32:07Z</time>
      </trkpt>
      <trkpt lat="42.86719" lon="0.22059">
        <ele>2518.4</ele>
        <time>2022-02-09T12:32:08Z</time>
      </trkpt>
      <trkpt lat="42.86719" lon="0.22059">
        <ele>2518.4</ele>
        <time>2022-02-09T12:32:09Z</time>
      </trkpt>
      <trkpt lat="42.86719" lon="0.22059">
        <ele>2518.4</ele>
        <time>2022-02-09T12:32:10Z</time>
      </trkpt>
      <trkpt lat="42.86719" lon="0.22059">
        <ele>2518.4</ele>
        <time>2022-02-09T12:32:11Z</time>
      </trkpt>
      <trkpt lat="42.86719" lon="0.22059">
        <ele>2518.4</ele>
        <time>2022-02-09T12:32:12Z</time>
      </trkpt>
      <trkpt lat="42.86719" lon="0.22059">
        <ele>2518.4</ele>
        <time>2022-02-09T12:32:13Z</time>
      </trkpt>
      <trkpt lat="42.86719" lon="0.22059">
        <ele>2518.4</ele>
        <time>2022-02-09T12:32:14Z</time>
      </trkpt>
      <trkpt lat="42.86719" lon="0.22059">
        <ele>2518.4</ele>
        <time>2022-02-09T12:32:15Z</time>
      </trkpt>
      <trkpt lat="42.86719" lon="0.22059">
        <ele>2518.4</ele>
        <time>2022-02-09T12:32:16Z</time>
      </trkpt>
      <trkpt lat="42.86719" lon="0.22059">
        <ele>2518.4</ele>
        <time>2022-02-09T12:32:17Z</time>
      </trkpt>
      <trkpt lat="42.86719" lon="0.22059">
        <ele>2518.4</ele>
        <time>2022-02-09T12:32:18Z</time>
      </trkpt>
      <trkpt lat="42.86719" lon="0.22059">
        <ele>2518.4</ele>
        <time>2022-02-09T12:32:19Z</time>
      </trkpt>
      <trkpt lat="42.86719" lon="0.22059">
        <ele>2518.4</ele>
        <time>2022-02-09T12:32:20Z</time>
      </trkpt>
      <trkpt lat="42.86719" lon="0.22059">
        <ele>2518.4</ele>
        <time>2022-02-09T12:32:21Z</time>
      </trkpt>
      <trkpt lat="42.86719" lon="0.22059">
        <ele>2518.4</ele>
        <time>2022-02-09T12:32:22Z</time>
      </trkpt>
      <trkpt lat="42.86719" lon="0.22059">
        <ele>2518.4</ele>
        <time>2022-02-09T12:32:23Z</time>
      </trkpt>
      <trkpt lat="42.86719" lon="0.22059">
        <ele>2518.4</ele>
        <time>2022-02-09T12:32:24Z</time>
      </trkpt>
      <trkpt lat="42.86719" lon="0.22059">
        <ele>2518.4</ele>
        <time>2022-02-09T12:32:25Z</time>
      </trkpt>
      <trkpt lat="42.86719" lon="0.22059">
        <ele>2518.4</ele>
        <time>2022-02-09T12:32:26Z</time>
      </trkpt>
      <trkpt lat="42.86719" lon="0.22059">
        <ele>2518.4</ele>
        <time>2022-02-09T12:32:27Z</time>
      </trkpt>
      <trkpt lat="42.86719" lon="0.22059">
        <ele>2518.4</ele>
        <time>2022-02-09T12:32:28Z</time>
      </trkpt>
      <trkpt lat="42.86719" lon="0.22059">
        <ele>2518.4</ele>
        <time>2022-02-09T12:32:29Z</time>
      </trkpt>
      <trkpt lat="42.86719" lon="0.22059">
        <ele>2518.4</ele>
        <time>2022-02-09T12:32:30Z</time>
      </trkpt>
      <trkpt lat="42.86719" lon="0.22059">
        <ele>2518.4</ele>
        <time>2022-02-09T12:32:31Z</time>
      </trkpt>
      <trkpt lat="42.86719" lon="0.22059">
        <ele>2518.4</ele>
        <time>2022-02-09T12:32:32Z</time>
      </trkpt>
      <trkpt lat="42.86719" lon="0.22059">
        <ele>2518.4</ele>
        <time>2022-02-09T12:32:33Z</time>
      </trkpt>
      <trkpt lat="42.86719" lon="0.22059">
        <ele>2518.4</ele>
        <time>2022-02-09T12:32:34Z</time>
      </trkpt>
      <trkpt lat="42.86719" lon="0.22059">
        <ele>2518.4</ele>
        <time>2022-02-09T12:32:35Z</time>
      </trkpt>
      <trkpt lat="42.86719" lon="0.22059">
        <ele>2518.4</ele>
        <time>2022-02-09T12:32:36Z</time>
      </trkpt>
      <trkpt lat="42.86719" lon="0.22059">
        <ele>2518.4</ele>
        <time>2022-02-09T12:32:37Z</time>
      </trkpt>
      <trkpt lat="42.86719" lon="0.22059">
        <ele>2518.4</ele>
        <time>2022-02-09T12:32:38Z</time>
      </trkpt>
      <trkpt lat="42.86719" lon="0.22059">
        <ele>2518.4</ele>
        <time>2022-02-09T12:32:39Z</time>
      </trkpt>
      <trkpt lat="42.86719" lon="0.22059">
        <ele>2518.4</ele>
        <time>2022-02-09T12:32:40Z</time>
      </trkpt>
      <trkpt lat="42.86719" lon="0.22059">
        <ele>2518.4</ele>
        <time>2022-02-09T12:32:41Z</time>
      </trkpt>
      <trkpt lat="42.86719" lon="0.22059">
        <ele>2518.4</ele>
        <time>2022-02-09T12:32:42Z</time>
      </trkpt>
      <trkpt lat="42.86719" lon="0.22059">
        <ele>2518.4</ele>
        <time>2022-02-09T12:32:43Z</time>
      </trkpt>
      <trkpt lat="42.86719" lon="0.22059">
        <ele>2518.4</ele>
        <time>2022-02-09T12:32:44Z</time>
      </trkpt>
      <trkpt lat="42.86719" lon="0.22059">
        <ele>2518.4</ele>
        <time>2022-02-09T12:32:45Z</time>
      </trkpt>
      <trkpt lat="42.86719" lon="0.22059">
        <ele>2518.4</ele>
        <time>2022-02-09T12:32:46Z</time>
      </trkpt>
      <trkpt lat="42.86719" lon="0.22059">
        <ele>2518.4</ele>
        <time>2022-02-09T12:32:47Z</time>
      </trkpt>
      <trkpt lat="42.86719" lon="0.22059">
        <ele>2518.4</ele>
        <time>2022-02-09T12:32:48Z</time>
      </trkpt>
      <trkpt lat="42.86719" lon="0.22059">
        <ele>2518.4</ele>
        <time>2022-02-09T12:32:49Z</time>
      </trkpt>
      <trkpt lat="42.86719" lon="0.22059">
        <ele>2518.4</ele>
        <time>2022-02-09T12:32:50Z</time>
      </trkpt>
      <trkpt lat="42.86719" lon="0.22059">
        <ele>2518.4</ele>
        <time>2022-02-09T12:32:51Z</time>
      </trkpt>
      <trkpt lat="42.86719" lon="0.22059">
        <ele>2518.4</ele>
        <time>2022-02-09T12:32:52Z</time>
      </trkpt>
      <trkpt lat="42.86719" lon="0.22059">
        <ele>2518.4</ele>
        <time>2022-02-09T12:32:53Z</time>
      </trkpt>
      <trkpt lat="42.86719" lon="0.22059">
        <ele>2518.4</ele>
        <time>2022-02-09T12:32:54Z</time>
      </trkpt>
      <trkpt lat="42.86719" lon="0.22059">
        <ele>2518.4</ele>
        <time>2022-02-09T12:32:55Z</time>
      </trkpt>
      <trkpt lat="42.86719" lon="0.22059">
        <ele>2518.4</ele>
        <time>2022-02-09T12:32:56Z</time>
      </trkpt>
      <trkpt lat="42.86719" lon="0.22059">
        <ele>2518.4</ele>
        <time>2022-02-09T12:32:57Z</time>
      </trkpt>
      <trkpt lat="42.86719" lon="0.22059">
        <ele>2518.4</ele>
        <time>2022-02-09T12:32:58Z</time>
      </trkpt>
      <trkpt lat="42.86719" lon="0.22059">
        <ele>2518.4</ele>
        <time>2022-02-09T12:32:59Z</time>
      </trkpt>
      <trkpt lat="42.86719" lon="0.22059">
        <ele>2518.4</ele>
        <time>2022-02-09T12:33:00Z</time>
      </trkpt>
      <trkpt lat="42.86719" lon="0.22059">
        <ele>2518.4</ele>
        <time>2022-02-09T12:33:01Z</time>
      </trkpt>
      <trkpt lat="42.86719" lon="0.22059">
        <ele>2518.4</ele>
        <time>2022-02-09T12:33:02Z</time>
      </trkpt>
      <trkpt lat="42.86719" lon="0.22059">
        <ele>2518.4</ele>
        <time>2022-02-09T12:33:03Z</time>
      </trkpt>
      <trkpt lat="42.86719" lon="0.22059">
        <ele>2518.4</ele>
        <time>2022-02-09T12:33:04Z</time>
      </trkpt>
      <trkpt lat="42.86719" lon="0.22059">
        <ele>2518.4</ele>
        <time>2022-02-09T12:33:05Z</time>
      </trkpt>
      <trkpt lat="42.86719" lon="0.22059">
        <ele>2518.4</ele>
        <time>2022-02-09T12:33:06Z</time>
      </trkpt>
      <trkpt lat="42.86719" lon="0.22059">
        <ele>2518.4</ele>
        <time>2022-02-09T12:33:07Z</time>
      </trkpt>
      <trkpt lat="42.86719" lon="0.22059">
        <ele>2518.4</ele>
        <time>2022-02-09T12:33:08Z</time>
      </trkpt>
      <trkpt lat="42.86719" lon="0.22059">
        <ele>2518.4</ele>
        <time>2022-02-09T12:33:09Z</time>
      </trkpt>
      <trkpt lat="42.86719" lon="0.22059">
        <ele>2518.4</ele>
        <time>2022-02-09T12:33:10Z</time>
      </trkpt>
      <trkpt lat="42.86719" lon="0.22059">
        <ele>2518.4</ele>
        <time>2022-02-09T12:33:11Z</time>
      </trkpt>
      <trkpt lat="42.86719" lon="0.22059">
        <ele>2518.4</ele>
        <time>2022-02-09T12:33:12Z</time>
      </trkpt>
      <trkpt lat="42.86719" lon="0.22059">
        <ele>2518.4</ele>
        <time>2022-02-09T12:33:13Z</time>
      </trkpt>
      <trkpt lat="42.86719" lon="0.22059">
        <ele>2518.4</ele>
        <time>2022-02-09T12:33:14Z</time>
      </trkpt>
      <trkpt lat="42.86719" lon="0.22059">
        <ele>2518.4</ele>
        <time>2022-02-09T12:33:15Z</time>
      </trkpt>
      <trkpt lat="42.86719" lon="0.22059">
        <ele>2518.4</ele>
        <time>2022-02-09T12:33:16Z</time>
      </trkpt>
      <trkpt lat="42.86719" lon="0.22059">
        <ele>2518.4</ele>
        <time>2022-02-09T12:33:17Z</time>
      </trkpt>
      <trkpt lat="42.86719" lon="0.22059">
        <ele>2518.4</ele>
        <time>2022-02-09T12:33:18Z</time>
      </trkpt>
      <trkpt lat="42.86719" lon="0.22059">
        <ele>2518.4</ele>
        <time>2022-02-09T12:33:19Z</time>
      </trkpt>
      <trkpt lat="42.86719" lon="0.22059">
        <ele>2518.4</ele>
        <time>2022-02-09T12:33:20Z</time>
      </trkpt>
      <trkpt lat="42.86719" lon="0.22059">
        <ele>2518.4</ele>
        <time>2022-02-09T12:33:21Z</time>
      </trkpt>
      <trkpt lat="42.86719" lon="0.22059">
        <ele>2518.4</ele>
        <time>2022-02-09T12:33:22Z</time>
      </trkpt>
      <trkpt lat="42.86719" lon="0.22059">
        <ele>2518.4</ele>
        <time>2022-02-09T12:33:23Z</time>
      </trkpt>
      <trkpt lat="42.86719" lon="0.22059">
        <ele>2518.4</ele>
        <time>2022-02-09T12:33:24Z</time>
      </trkpt>
      <trkpt lat="42.86719" lon="0.22059">
        <ele>2518.4</ele>
        <time>2022-02-09T12:33:25Z</time>
      </trkpt>
      <trkpt lat="42.86719" lon="0.22059">
        <ele>2518.4</ele>
        <time>2022-02-09T12:33:26Z</time>
      </trkpt>
      <trkpt lat="42.86719" lon="0.22059">
        <ele>2518.4</ele>
        <time>2022-02-09T12:33:27Z</time>
      </trkpt>
      <trkpt lat="42.86719" lon="0.22059">
        <ele>2518.4</ele>
        <time>2022-02-09T12:33:28Z</time>
      </trkpt>
      <trkpt lat="42.86719" lon="0.22059">
        <ele>2518.4</ele>
        <time>2022-02-09T12:33:29Z</time>
      </trkpt>
      <trkpt lat="42.86719" lon="0.22059">
        <ele>2518.4</ele>
        <time>2022-02-09T12:33:30Z</time>
      </trkpt>
      <trkpt lat="42.86719" lon="0.22059">
        <ele>2518.4</ele>
        <time>2022-02-09T12:33:31Z</time>
      </trkpt>
      <trkpt lat="42.86719" lon="0.22059">
        <ele>2518.4</ele>
        <time>2022-02-09T12:33:32Z</time>
      </trkpt>
      <trkpt lat="42.86719" lon="0.22059">
        <ele>2518.4</ele>
        <time>2022-02-09T12:33:33Z</time>
      </trkpt>
      <trkpt lat="42.86719" lon="0.22059">
        <ele>2518.4</ele>
        <time>2022-02-09T12:33:34Z</time>
      </trkpt>
      <trkpt lat="42.86719" lon="0.22059">
        <ele>2518.4</ele>
        <time>2022-02-09T12:33:35Z</time>
      </trkpt>
      <trkpt lat="42.86719" lon="0.22059">
        <ele>2518.4</ele>
        <time>2022-02-09T12:33:36Z</time>
      </trkpt>
      <trkpt lat="42.86719" lon="0.22059">
        <ele>2518.4</ele>
        <time>2022-02-09T12:33:37Z</time>
      </trkpt>
      <trkpt lat="42.86719" lon="0.22059">
        <ele>2518.4</ele>
        <time>2022-02-09T12:33:38Z</time>
      </trkpt>
      <trkpt lat="42.86719" lon="0.22059">
        <ele>2518.4</ele>
        <time>2022-02-09T12:33:39Z</time>
      </trkpt>
      <trkpt lat="42.86719" lon="0.22059">
        <ele>2518.4</ele>
        <time>2022-02-09T12:33:40Z</time>
      </trkpt>
      <trkpt lat="42.86719" lon="0.22059">
        <ele>2518.4</ele>
        <time>2022-02-09T12:33:41Z</time>
      </trkpt>
      <trkpt lat="42.86719" lon="0.22059">
        <ele>2518.4</ele>
        <time>2022-02-09T12:33:42Z</time>
      </trkpt>
      <trkpt lat="42.86719" lon="0.22059">
        <ele>2518.4</ele>
        <time>2022-02-09T12:33:43Z</time>
      </trkpt>
      <trkpt lat="42.86719" lon="0.22059">
        <ele>2518.4</ele>
        <time>2022-02-09T12:33:44Z</time>
      </trkpt>
      <trkpt lat="42.86719" lon="0.22059">
        <ele>2518.4</ele>
        <time>2022-02-09T12:33:45Z</time>
      </trkpt>
      <trkpt lat="42.86719" lon="0.22059">
        <ele>2518.4</ele>
        <time>2022-02-09T12:33:46Z</time>
      </trkpt>
      <trkpt lat="42.86719" lon="0.22059">
        <ele>2518.4</ele>
        <time>2022-02-09T12:33:47Z</time>
      </trkpt>
      <trkpt lat="42.86719" lon="0.22059">
        <ele>2518.4</ele>
        <time>2022-02-09T12:33:48Z</time>
      </trkpt>
      <trkpt lat="42.86719" lon="0.22059">
        <ele>2518.4</ele>
        <time>2022-02-09T12:33:49Z</time>
      </trkpt>
      <trkpt lat="42.86719" lon="0.22059">
        <ele>2518.4</ele>
        <time>2022-02-09T12:33:50Z</time>
      </trkpt>
      <trkpt lat="42.86719" lon="0.22059">
        <ele>2518.4</ele>
        <time>2022-02-09T12:33:51Z</time>
      </trkpt>
      <trkpt lat="42.86719" lon="0.22059">
        <ele>2518.4</ele>
        <time>2022-02-09T12:33:52Z</time>
      </trkpt>
      <trkpt lat="42.86719" lon="0.22059">
        <ele>2518.4</ele>
        <time>2022-02-09T12:33:53Z</time>
      </trkpt>
      <trkpt lat="42.86719" lon="0.22059">
        <ele>2518.4</ele>
        <time>2022-02-09T12:33:54Z</time>
      </trkpt>
      <trkpt lat="42.86719" lon="0.22059">
        <ele>2518.4</ele>
        <time>2022-02-09T12:33:55Z</time>
      </trkpt>
      <trkpt lat="42.86719" lon="0.22059">
        <ele>2518.4</ele>
        <time>2022-02-09T12:33:56Z</time>
      </trkpt>
      <trkpt lat="42.86719" lon="0.22059">
        <ele>2518.4</ele>
        <time>2022-02-09T12:33:57Z</time>
      </trkpt>
      <trkpt lat="42.86719" lon="0.22059">
        <ele>2518.4</ele>
        <time>2022-02-09T12:33:58Z</time>
      </trkpt>
      <trkpt lat="42.86719" lon="0.22059">
        <ele>2518.4</ele>
        <time>2022-02-09T12:33:59Z</time>
      </trkpt>
      <trkpt lat="42.86719" lon="0.22059">
        <ele>2518.4</ele>
        <time>2022-02-09T12:34:00Z</time>
      </trkpt>
      <trkpt lat="42.86719" lon="0.22059">
        <ele>2518.4</ele>
        <time>2022-02-09T12:34:01Z</time>
      </trkpt>
      <trkpt lat="42.86719" lon="0.22059">
        <ele>2518.4</ele>
        <time>2022-02-09T12:34:02Z</time>
      </trkpt>
      <trkpt lat="42.86719" lon="0.22059">
        <ele>2518.4</ele>
        <time>2022-02-09T12:34:03Z</time>
      </trkpt>
      <trkpt lat="42.86719" lon="0.22059">
        <ele>2518.4</ele>
        <time>2022-02-09T12:34:04Z</time>
      </trkpt>
      <trkpt lat="42.86719" lon="0.22059">
        <ele>2518.4</ele>
        <time>2022-02-09T12:34:05Z</time>
      </trkpt>
      <trkpt lat="42.86719" lon="0.22059">
        <ele>2518.4</ele>
        <time>2022-02-09T12:34:06Z</time>
      </trkpt>
      <trkpt lat="42.86719" lon="0.22059">
        <ele>2518.4</ele>
        <time>2022-02-09T12:34:07Z</time>
      </trkpt>
      <trkpt lat="42.86719" lon="0.22059">
        <ele>2518.4</ele>
        <time>2022-02-09T12:34:08Z</time>
      </trkpt>
      <trkpt lat="42.86719" lon="0.22059">
        <ele>2518.4</ele>
        <time>2022-02-09T12:34:09Z</time>
      </trkpt>
      <trkpt lat="42.86719" lon="0.22059">
        <ele>2518.4</ele>
        <time>2022-02-09T12:34:10Z</time>
      </trkpt>
      <trkpt lat="42.86719" lon="0.22059">
        <ele>2518.4</ele>
        <time>2022-02-09T12:34:11Z</time>
      </trkpt>
      <trkpt lat="42.86719" lon="0.22059">
        <ele>2518.4</ele>
        <time>2022-02-09T12:34:12Z</time>
      </trkpt>
      <trkpt lat="42.86719" lon="0.22059">
        <ele>2518.4</ele>
        <time>2022-02-09T12:34:13Z</time>
      </trkpt>
      <trkpt lat="42.86719" lon="0.22059">
        <ele>2518.4</ele>
        <time>2022-02-09T12:34:14Z</time>
      </trkpt>
      <trkpt lat="42.86719" lon="0.22059">
        <ele>2518.4</ele>
        <time>2022-02-09T12:34:15Z</time>
      </trkpt>
      <trkpt lat="42.86719" lon="0.22059">
        <ele>2518.4</ele>
        <time>2022-02-09T12:34:16Z</time>
      </trkpt>
      <trkpt lat="42.86719" lon="0.22059">
        <ele>2518.4</ele>
        <time>2022-02-09T12:34:17Z</time>
      </trkpt>
      <trkpt lat="42.86719" lon="0.22059">
        <ele>2518.4</ele>
        <time>2022-02-09T12:34:18Z</time>
      </trkpt>
      <trkpt lat="42.86719" lon="0.22059">
        <ele>2518.4</ele>
        <time>2022-02-09T12:34:19Z</time>
      </trkpt>
      <trkpt lat="42.86719" lon="0.22059">
        <ele>2518.4</ele>
        <time>2022-02-09T12:34:20Z</time>
      </trkpt>
      <trkpt lat="42.86719" lon="0.22059">
        <ele>2518.4</ele>
        <time>2022-02-09T12:34:21Z</time>
      </trkpt>
      <trkpt lat="42.86719" lon="0.22059">
        <ele>2518.4</ele>
        <time>2022-02-09T12:34:22Z</time>
      </trkpt>
      <trkpt lat="42.86719" lon="0.22059">
        <ele>2518.4</ele>
        <time>2022-02-09T12:34:23Z</time>
      </trkpt>
      <trkpt lat="42.86719" lon="0.22059">
        <ele>2518.4</ele>
        <time>2022-02-09T12:34:24Z</time>
      </trkpt>
      <trkpt lat="42.86719" lon="0.22059">
        <ele>2518.4</ele>
        <time>2022-02-09T12:34:25Z</time>
      </trkpt>
      <trkpt lat="42.86719" lon="0.22059">
        <ele>2518.4</ele>
        <time>2022-02-09T12:34:26Z</time>
      </trkpt>
      <trkpt lat="42.86719" lon="0.22059">
        <ele>2518.4</ele>
        <time>2022-02-09T12:34:27Z</time>
      </trkpt>
      <trkpt lat="42.86719" lon="0.22059">
        <ele>2518.4</ele>
        <time>2022-02-09T12:34:28Z</time>
      </trkpt>
      <trkpt lat="42.86719" lon="0.22059">
        <ele>2518.4</ele>
        <time>2022-02-09T12:34:29Z</time>
      </trkpt>
      <trkpt lat="42.86719" lon="0.22059">
        <ele>2518.4</ele>
        <time>2022-02-09T12:34:30Z</time>
      </trkpt>
      <trkpt lat="42.86719" lon="0.22059">
        <ele>2518.4</ele>
        <time>2022-02-09T12:34:31Z</time>
      </trkpt>
      <trkpt lat="42.86719" lon="0.22059">
        <ele>2518.4</ele>
        <time>2022-02-09T12:34:32Z</time>
      </trkpt>
      <trkpt lat="42.86719" lon="0.22059">
        <ele>2518.4</ele>
        <time>2022-02-09T12:34:33Z</time>
      </trkpt>
      <trkpt lat="42.86719" lon="0.22059">
        <ele>2518.4</ele>
        <time>2022-02-09T12:34:34Z</time>
      </trkpt>
      <trkpt lat="42.86719" lon="0.22059">
        <ele>2518.4</ele>
        <time>2022-02-09T12:34:35Z</time>
      </trkpt>
      <trkpt lat="42.86719" lon="0.22059">
        <ele>2518.4</ele>
        <time>2022-02-09T12:34:36Z</time>
      </trkpt>
      <trkpt lat="42.86719" lon="0.22059">
        <ele>2518.4</ele>
        <time>2022-02-09T12:34:37Z</time>
      </trkpt>
      <trkpt lat="42.86719" lon="0.22059">
        <ele>2518.4</ele>
        <time>2022-02-09T12:34:38Z</time>
      </trkpt>
      <trkpt lat="42.86719" lon="0.22059">
        <ele>2518.4</ele>
        <time>2022-02-09T12:34:39Z</time>
      </trkpt>
      <trkpt lat="42.86719" lon="0.22059">
        <ele>2518.4</ele>
        <time>2022-02-09T12:34:40Z</time>
      </trkpt>
      <trkpt lat="42.86719" lon="0.22059">
        <ele>2518.4</ele>
        <time>2022-02-09T12:34:41Z</time>
      </trkpt>
      <trkpt lat="42.86719" lon="0.22059">
        <ele>2518.4</ele>
        <time>2022-02-09T12:34:42Z</time>
      </trkpt>
      <trkpt lat="42.86719" lon="0.22059">
        <ele>2518.4</ele>
        <time>2022-02-09T12:34:43Z</time>
      </trkpt>
      <trkpt lat="42.86719" lon="0.22059">
        <ele>2518.4</ele>
        <time>2022-02-09T12:34:44Z</time>
      </trkpt>
      <trkpt lat="42.86719" lon="0.22059">
        <ele>2518.4</ele>
        <time>2022-02-09T12:34:45Z</time>
      </trkpt>
      <trkpt lat="42.86719" lon="0.22059">
        <ele>2518.4</ele>
        <time>2022-02-09T12:34:46Z</time>
      </trkpt>
      <trkpt lat="42.86719" lon="0.22059">
        <ele>2518.4</ele>
        <time>2022-02-09T12:34:47Z</time>
      </trkpt>
      <trkpt lat="42.86719" lon="0.22059">
        <ele>2518.4</ele>
        <time>2022-02-09T12:34:48Z</time>
      </trkpt>
      <trkpt lat="42.86719" lon="0.22059">
        <ele>2518.4</ele>
        <time>2022-02-09T12:34:49Z</time>
      </trkpt>
      <trkpt lat="42.86719" lon="0.22059">
        <ele>2518.4</ele>
        <time>2022-02-09T12:34:50Z</time>
      </trkpt>
      <trkpt lat="42.86719" lon="0.22059">
        <ele>2518.4</ele>
        <time>2022-02-09T12:34:51Z</time>
      </trkpt>
      <trkpt lat="42.86719" lon="0.22059">
        <ele>2518.4</ele>
        <time>2022-02-09T12:34:52Z</time>
      </trkpt>
      <trkpt lat="42.86719" lon="0.22059">
        <ele>2518.4</ele>
        <time>2022-02-09T12:34:53Z</time>
      </trkpt>
      <trkpt lat="42.86719" lon="0.22059">
        <ele>2518.4</ele>
        <time>2022-02-09T12:34:54Z</time>
      </trkpt>
      <trkpt lat="42.86719" lon="0.22059">
        <ele>2518.4</ele>
        <time>2022-02-09T12:34:55Z</time>
      </trkpt>
      <trkpt lat="42.86719" lon="0.22059">
        <ele>2518.4</ele>
        <time>2022-02-09T12:34:56Z</time>
      </trkpt>
      <trkpt lat="42.86719" lon="0.22059">
        <ele>2518.4</ele>
        <time>2022-02-09T12:34:57Z</time>
      </trkpt>
      <trkpt lat="42.86719" lon="0.22059">
        <ele>2518.4</ele>
        <time>2022-02-09T12:34:58Z</time>
      </trkpt>
      <trkpt lat="42.86719" lon="0.22059">
        <ele>2518.4</ele>
        <time>2022-02-09T12:34:59Z</time>
      </trkpt>
      <trkpt lat="42.86719" lon="0.22059">
        <ele>2518.4</ele>
        <time>2022-02-09T12:35:00Z</time>
      </trkpt>
      <trkpt lat="42.86719" lon="0.22059">
        <ele>2518.4</ele>
        <time>2022-02-09T12:35:01Z</time>
      </trkpt>
      <trkpt lat="42.86719" lon="0.22059">
        <ele>2518.4</ele>
        <time>2022-02-09T12:35:02Z</time>
      </trkpt>
      <trkpt lat="42.86719" lon="0.22059">
        <ele>2518.4</ele>
        <time>2022-02-09T12:35:03Z</time>
      </trkpt>
      <trkpt lat="42.86719" lon="0.22059">
        <ele>2518.4</ele>
        <time>2022-02-09T12:35:04Z</time>
      </trkpt>
      <trkpt lat="42.86719" lon="0.22059">
        <ele>2518.4</ele>
        <time>2022-02-09T12:35:05Z</time>
      </trkpt>
      <trkpt lat="42.86719" lon="0.22059">
        <ele>2518.4</ele>
        <time>2022-02-09T12:35:06Z</time>
      </trkpt>
      <trkpt lat="42.86719" lon="0.22059">
        <ele>2518.4</ele>
        <time>2022-02-09T12:35:07Z</time>
      </trkpt>
      <trkpt lat="42.86719" lon="0.22059">
        <ele>2518.4</ele>
        <time>2022-02-09T12:35:08Z</time>
      </trkpt>
      <trkpt lat="42.86719" lon="0.22059">
        <ele>2518.4</ele>
        <time>2022-02-09T12:35:09Z</time>
      </trkpt>
      <trkpt lat="42.86719" lon="0.22059">
        <ele>2518.4</ele>
        <time>2022-02-09T12:35:10Z</time>
      </trkpt>
      <trkpt lat="42.86719" lon="0.22059">
        <ele>2518.4</ele>
        <time>2022-02-09T12:35:11Z</time>
      </trkpt>
      <trkpt lat="42.86719" lon="0.22059">
        <ele>2518.4</ele>
        <time>2022-02-09T12:35:12Z</time>
      </trkpt>
      <trkpt lat="42.86719" lon="0.22059">
        <ele>2518.4</ele>
        <time>2022-02-09T12:35:13Z</time>
      </trkpt>
      <trkpt lat="42.86719" lon="0.22059">
        <ele>2518.4</ele>
        <time>2022-02-09T12:35:14Z</time>
      </trkpt>
      <trkpt lat="42.86719" lon="0.22059">
        <ele>2518.4</ele>
        <time>2022-02-09T12:35:15Z</time>
      </trkpt>
      <trkpt lat="42.86719" lon="0.22059">
        <ele>2518.4</ele>
        <time>2022-02-09T12:35:16Z</time>
      </trkpt>
      <trkpt lat="42.86719" lon="0.22059">
        <ele>2518.4</ele>
        <time>2022-02-09T12:35:17Z</time>
      </trkpt>
      <trkpt lat="42.86719" lon="0.22059">
        <ele>2518.4</ele>
        <time>2022-02-09T12:35:18Z</time>
      </trkpt>
      <trkpt lat="42.86719" lon="0.22059">
        <ele>2518.4</ele>
        <time>2022-02-09T12:35:19Z</time>
      </trkpt>
      <trkpt lat="42.86719" lon="0.22059">
        <ele>2518.4</ele>
        <time>2022-02-09T12:35:20Z</time>
      </trkpt>
      <trkpt lat="42.86719" lon="0.22059">
        <ele>2518.4</ele>
        <time>2022-02-09T12:35:21Z</time>
      </trkpt>
      <trkpt lat="42.86719" lon="0.22059">
        <ele>2518.4</ele>
        <time>2022-02-09T12:35:22Z</time>
      </trkpt>
      <trkpt lat="42.86719" lon="0.22059">
        <ele>2518.4</ele>
        <time>2022-02-09T12:35:23Z</time>
      </trkpt>
      <trkpt lat="42.86719" lon="0.22059">
        <ele>2518.4</ele>
        <time>2022-02-09T12:35:24Z</time>
      </trkpt>
      <trkpt lat="42.86719" lon="0.22059">
        <ele>2518.4</ele>
        <time>2022-02-09T12:35:25Z</time>
      </trkpt>
      <trkpt lat="42.86719" lon="0.22059">
        <ele>2518.4</ele>
        <time>2022-02-09T12:35:26Z</time>
      </trkpt>
      <trkpt lat="42.86719" lon="0.22059">
        <ele>2518.4</ele>
        <time>2022-02-09T12:35:27Z</time>
      </trkpt>
      <trkpt lat="42.86719" lon="0.22059">
        <ele>2518.4</ele>
        <time>2022-02-09T12:35:28Z</time>
      </trkpt>
      <trkpt lat="42.86719" lon="0.22059">
        <ele>2518.4</ele>
        <time>2022-02-09T12:35:29Z</time>
      </trkpt>
      <trkpt lat="42.86719" lon="0.22059">
        <ele>2518.4</ele>
        <time>2022-02-09T12:35:30Z</time>
      </trkpt>
      <trkpt lat="42.86719" lon="0.22059">
        <ele>2518.4</ele>
        <time>2022-02-09T12:35:31Z</time>
      </trkpt>
      <trkpt lat="42.86719" lon="0.22059">
        <ele>2518.4</ele>
        <time>2022-02-09T12:35:32Z</time>
      </trkpt>
      <trkpt lat="42.86719" lon="0.22059">
        <ele>2518.4</ele>
        <time>2022-02-09T12:35:33Z</time>
      </trkpt>
      <trkpt lat="42.86719" lon="0.22059">
        <ele>2518.4</ele>
        <time>2022-02-09T12:35:34Z</time>
      </trkpt>
      <trkpt lat="42.86719" lon="0.22059">
        <ele>2518.4</ele>
        <time>2022-02-09T12:35:35Z</time>
      </trkpt>
      <trkpt lat="42.86719" lon="0.22059">
        <ele>2518.4</ele>
        <time>2022-02-09T12:35:36Z</time>
      </trkpt>
      <trkpt lat="42.86719" lon="0.22059">
        <ele>2518.4</ele>
        <time>2022-02-09T12:35:37Z</time>
      </trkpt>
      <trkpt lat="42.86719" lon="0.22059">
        <ele>2518.4</ele>
        <time>2022-02-09T12:35:38Z</time>
      </trkpt>
      <trkpt lat="42.86719" lon="0.22059">
        <ele>2518.4</ele>
        <time>2022-02-09T12:35:39Z</time>
      </trkpt>
      <trkpt lat="42.86719" lon="0.22059">
        <ele>2518.4</ele>
        <time>2022-02-09T12:35:40Z</time>
      </trkpt>
      <trkpt lat="42.86719" lon="0.22059">
        <ele>2518.4</ele>
        <time>2022-02-09T12:35:41Z</time>
      </trkpt>
      <trkpt lat="42.86719" lon="0.22059">
        <ele>2518.4</ele>
        <time>2022-02-09T12:35:42Z</time>
      </trkpt>
      <trkpt lat="42.86719" lon="0.22059">
        <ele>2518.4</ele>
        <time>2022-02-09T12:35:43Z</time>
      </trkpt>
      <trkpt lat="42.86719" lon="0.22059">
        <ele>2518.4</ele>
        <time>2022-02-09T12:35:44Z</time>
      </trkpt>
      <trkpt lat="42.86719" lon="0.22059">
        <ele>2518.4</ele>
        <time>2022-02-09T12:35:45Z</time>
      </trkpt>
      <trkpt lat="42.86719" lon="0.22059">
        <ele>2518.4</ele>
        <time>2022-02-09T12:35:46Z</time>
      </trkpt>
      <trkpt lat="42.86719" lon="0.22059">
        <ele>2518.4</ele>
        <time>2022-02-09T12:35:47Z</time>
      </trkpt>
      <trkpt lat="42.86719" lon="0.22059">
        <ele>2518.4</ele>
        <time>2022-02-09T12:35:48Z</time>
      </trkpt>
      <trkpt lat="42.86719" lon="0.22059">
        <ele>2518.4</ele>
        <time>2022-02-09T12:35:49Z</time>
      </trkpt>
      <trkpt lat="42.86719" lon="0.22059">
        <ele>2518.4</ele>
        <time>2022-02-09T12:35:50Z</time>
      </trkpt>
      <trkpt lat="42.86719" lon="0.22059">
        <ele>2518.4</ele>
        <time>2022-02-09T12:35:51Z</time>
      </trkpt>
      <trkpt lat="42.86719" lon="0.22059">
        <ele>2518.4</ele>
        <time>2022-02-09T12:35:52Z</time>
      </trkpt>
      <trkpt lat="42.86719" lon="0.22059">
        <ele>2518.4</ele>
        <time>2022-02-09T12:35:53Z</time>
      </trkpt>
      <trkpt lat="42.86719" lon="0.22059">
        <ele>2518.4</ele>
        <time>2022-02-09T12:35:54Z</time>
      </trkpt>
      <trkpt lat="42.86719" lon="0.22059">
        <ele>2518.4</ele>
        <time>2022-02-09T12:35:55Z</time>
      </trkpt>
      <trkpt lat="42.86719" lon="0.22059">
        <ele>2518.4</ele>
        <time>2022-02-09T12:35:56Z</time>
      </trkpt>
      <trkpt lat="42.86719" lon="0.22059">
        <ele>2518.4</ele>
        <time>2022-02-09T12:35:57Z</time>
      </trkpt>
      <trkpt lat="42.86719" lon="0.22059">
        <ele>2518.4</ele>
        <time>2022-02-09T12:35:58Z</time>
      </trkpt>
      <trkpt lat="42.86719" lon="0.22059">
        <ele>2518.4</ele>
        <time>2022-02-09T12:35:59Z</time>
      </trkpt>
      <trkpt lat="42.86719" lon="0.22059">
        <ele>2518.4</ele>
        <time>2022-02-09T12:36:00Z</time>
      </trkpt>
      <trkpt lat="42.86719" lon="0.22059">
        <ele>2518.4</ele>
        <time>2022-02-09T12:36:01Z</time>
      </trkpt>
      <trkpt lat="42.86719" lon="0.22059">
        <ele>2518.4</ele>
        <time>2022-02-09T12:36:02Z</time>
      </trkpt>
      <trkpt lat="42.86719" lon="0.22059">
        <ele>2518.4</ele>
        <time>2022-02-09T12:36:03Z</time>
      </trkpt>
      <trkpt lat="42.86719" lon="0.22059">
        <ele>2518.4</ele>
        <time>2022-02-09T12:36:04Z</time>
      </trkpt>
      <trkpt lat="42.86719" lon="0.22059">
        <ele>2518.4</ele>
        <time>2022-02-09T12:36:05Z</time>
      </trkpt>
      <trkpt lat="42.86719" lon="0.22059">
        <ele>2518.4</ele>
        <time>2022-02-09T12:36:06Z</time>
      </trkpt>
      <trkpt lat="42.86719" lon="0.22059">
        <ele>2518.4</ele>
        <time>2022-02-09T12:36:07Z</time>
      </trkpt>
      <trkpt lat="42.86719" lon="0.22059">
        <ele>2518.4</ele>
        <time>2022-02-09T12:36:08Z</time>
      </trkpt>
      <trkpt lat="42.86719" lon="0.22059">
        <ele>2518.4</ele>
        <time>2022-02-09T12:36:09Z</time>
      </trkpt>
      <trkpt lat="42.86719" lon="0.22059">
        <ele>2518.4</ele>
        <time>2022-02-09T12:36:10Z</time>
      </trkpt>
      <trkpt lat="42.86719" lon="0.22059">
        <ele>2518.4</ele>
        <time>2022-02-09T12:36:11Z</time>
      </trkpt>
      <trkpt lat="42.86719" lon="0.22059">
        <ele>2518.4</ele>
        <time>2022-02-09T12:36:12Z</time>
      </trkpt>
      <trkpt lat="42.86719" lon="0.22059">
        <ele>2518.4</ele>
        <time>2022-02-09T12:36:13Z</time>
      </trkpt>
      <trkpt lat="42.86719" lon="0.22059">
        <ele>2518.4</ele>
        <time>2022-02-09T12:36:14Z</time>
      </trkpt>
      <trkpt lat="42.86719" lon="0.22059">
        <ele>2518.4</ele>
        <time>2022-02-09T12:36:15Z</time>
      </trkpt>
      <trkpt lat="42.86719" lon="0.22059">
        <ele>2518.4</ele>
        <time>2022-02-09T12:36:16Z</time>
      </trkpt>
      <trkpt lat="42.86719" lon="0.22059">
        <ele>2518.4</ele>
        <time>2022-02-09T12:36:17Z</time>
      </trkpt>
      <trkpt lat="42.86719" lon="0.22059">
        <ele>2518.4</ele>
        <time>2022-02-09T12:36:18Z</time>
      </trkpt>
      <trkpt lat="42.86719" lon="0.22059">
        <ele>2518.4</ele>
        <time>2022-02-09T12:36:19Z</time>
      </trkpt>
      <trkpt lat="42.86719" lon="0.22059">
        <ele>2518.4</ele>
        <time>2022-02-09T12:36:20Z</time>
      </trkpt>
      <trkpt lat="42.86719" lon="0.22059">
        <ele>2518.4</ele>
        <time>2022-02-09T12:36:21Z</time>
      </trkpt>
      <trkpt lat="42.86719" lon="0.22059">
        <ele>2518.4</ele>
        <time>2022-02-09T12:36:22Z</time>
      </trkpt>
      <trkpt lat="42.86719" lon="0.22059">
        <ele>2518.4</ele>
        <time>2022-02-09T12:36:23Z</time>
      </trkpt>
      <trkpt lat="42.86719" lon="0.22059">
        <ele>2518.4</ele>
        <time>2022-02-09T12:36:24Z</time>
      </trkpt>
      <trkpt lat="42.86719" lon="0.22059">
        <ele>2518.4</ele>
        <time>2022-02-09T12:36:25Z</time>
      </trkpt>
      <trkpt lat="42.86719" lon="0.22059">
        <ele>2518.4</ele>
        <time>2022-02-09T12:36:26Z</time>
      </trkpt>
      <trkpt lat="42.86719" lon="0.22059">
        <ele>2518.4</ele>
        <time>2022-02-09T12:36:27Z</time>
      </trkpt>
      <trkpt lat="42.86719" lon="0.22059">
        <ele>2518.4</ele>
        <time>2022-02-09T12:36:28Z</time>
      </trkpt>
      <trkpt lat="42.86719" lon="0.22059">
        <ele>2518.4</ele>
        <time>2022-02-09T12:36:29Z</time>
      </trkpt>
      <trkpt lat="42.86719" lon="0.22059">
        <ele>2518.4</ele>
        <time>2022-02-09T12:36:30Z</time>
      </trkpt>
      <trkpt lat="42.86719" lon="0.22059">
        <ele>2518.4</ele>
        <time>2022-02-09T12:36:31Z</time>
      </trkpt>
      <trkpt lat="42.86719" lon="0.22059">
        <ele>2518.4</ele>
        <time>2022-02-09T12:36:32Z</time>
      </trkpt>
      <trkpt lat="42.86719" lon="0.22059">
        <ele>2518.4</ele>
        <time>2022-02-09T12:36:33Z</time>
      </trkpt>
      <trkpt lat="42.86719" lon="0.22059">
        <ele>2518.4</ele>
        <time>2022-02-09T12:36:34Z</time>
      </trkpt>
      <trkpt lat="42.86719" lon="0.22059">
        <ele>2518.4</ele>
        <time>2022-02-09T12:36:35Z</time>
      </trkpt>
      <trkpt lat="42.86719" lon="0.22059">
        <ele>2518.4</ele>
        <time>2022-02-09T12:36:36Z</time>
      </trkpt>
      <trkpt lat="42.86719" lon="0.22059">
        <ele>2518.4</ele>
        <time>2022-02-09T12:36:37Z</time>
      </trkpt>
      <trkpt lat="42.86719" lon="0.22059">
        <ele>2518.4</ele>
        <time>2022-02-09T12:36:38Z</time>
      </trkpt>
      <trkpt lat="42.86719" lon="0.22059">
        <ele>2518.4</ele>
        <time>2022-02-09T12:36:39Z</time>
      </trkpt>
      <trkpt lat="42.86719" lon="0.22059">
        <ele>2518.4</ele>
        <time>2022-02-09T12:36:40Z</time>
      </trkpt>
      <trkpt lat="42.86719" lon="0.22059">
        <ele>2518.4</ele>
        <time>2022-02-09T12:36:41Z</time>
      </trkpt>
      <trkpt lat="42.86719" lon="0.22059">
        <ele>2518.4</ele>
        <time>2022-02-09T12:36:42Z</time>
      </trkpt>
      <trkpt lat="42.86719" lon="0.22059">
        <ele>2518.4</ele>
        <time>2022-02-09T12:36:43Z</time>
      </trkpt>
      <trkpt lat="42.86719" lon="0.22059">
        <ele>2518.4</ele>
        <time>2022-02-09T12:36:44Z</time>
      </trkpt>
      <trkpt lat="42.86719" lon="0.22059">
        <ele>2518.4</ele>
        <time>2022-02-09T12:36:45Z</time>
      </trkpt>
      <trkpt lat="42.86719" lon="0.22059">
        <ele>2518.4</ele>
        <time>2022-02-09T12:36:46Z</time>
      </trkpt>
      <trkpt lat="42.86719" lon="0.22059">
        <ele>2518.4</ele>
        <time>2022-02-09T12:36:47Z</time>
      </trkpt>
      <trkpt lat="42.86719" lon="0.22059">
        <ele>2518.4</ele>
        <time>2022-02-09T12:36:48Z</time>
      </trkpt>
      <trkpt lat="42.86719" lon="0.22059">
        <ele>2518.4</ele>
        <time>2022-02-09T12:36:49Z</time>
      </trkpt>
      <trkpt lat="42.86719" lon="0.22059">
        <ele>2518.4</ele>
        <time>2022-02-09T12:36:50Z</time>
      </trkpt>
      <trkpt lat="42.86719" lon="0.22059">
        <ele>2518.4</ele>
        <time>2022-02-09T12:36:51Z</time>
      </trkpt>
      <trkpt lat="42.86719" lon="0.22059">
        <ele>2518.4</ele>
        <time>2022-02-09T12:36:52Z</time>
      </trkpt>
      <trkpt lat="42.86719" lon="0.22059">
        <ele>2518.4</ele>
        <time>2022-02-09T12:36:53Z</time>
      </trkpt>
      <trkpt lat="42.86719" lon="0.22059">
        <ele>2518.4</ele>
        <time>2022-02-09T12:36:54Z</time>
      </trkpt>
      <trkpt lat="42.86719" lon="0.22059">
        <ele>2518.4</ele>
        <time>2022-02-09T12:36:55Z</time>
      </trkpt>
      <trkpt lat="42.86719" lon="0.22059">
        <ele>2518.4</ele>
        <time>2022-02-09T12:36:56Z</time>
      </trkpt>
      <trkpt lat="42.86719" lon="0.22059">
        <ele>2518.4</ele>
        <time>2022-02-09T12:36:57Z</time>
      </trkpt>
      <trkpt lat="42.86719" lon="0.22059">
        <ele>2518.4</ele>
        <time>2022-02-09T12:36:58Z</time>
      </trkpt>
      <trkpt lat="42.86719" lon="0.22059">
        <ele>2518.4</ele>
        <time>2022-02-09T12:36:59Z</time>
      </trkpt>
      <trkpt lat="42.86719" lon="0.22059">
        <ele>2518.4</ele>
        <time>2022-02-09T12:37:00Z</time>
      </trkpt>
      <trkpt lat="42.86719" lon="0.22059">
        <ele>2518.4</ele>
        <time>2022-02-09T12:37:01Z</time>
      </trkpt>
      <trkpt lat="42.86719" lon="0.22059">
        <ele>2518.4</ele>
        <time>2022-02-09T12:37:02Z</time>
      </trkpt>
      <trkpt lat="42.86719" lon="0.22059">
        <ele>2518.4</ele>
        <time>2022-02-09T12:37:03Z</time>
      </trkpt>
      <trkpt lat="42.86719" lon="0.22059">
        <ele>2518.4</ele>
        <time>2022-02-09T12:37:04Z</time>
      </trkpt>
      <trkpt lat="42.86719" lon="0.22059">
        <ele>2518.4</ele>
        <time>2022-02-09T12:37:05Z</time>
      </trkpt>
      <trkpt lat="42.86719" lon="0.22059">
        <ele>2518.4</ele>
        <time>2022-02-09T12:37:06Z</time>
      </trkpt>
      <trkpt lat="42.86719" lon="0.22059">
        <ele>2518.4</ele>
        <time>2022-02-09T12:37:07Z</time>
      </trkpt>
      <trkpt lat="42.86719" lon="0.22059">
        <ele>2518.4</ele>
        <time>2022-02-09T12:37:08Z</time>
      </trkpt>
      <trkpt lat="42.86719" lon="0.22059">
        <ele>2518.4</ele>
        <time>2022-02-09T12:37:09Z</time>
      </trkpt>
      <trkpt lat="42.86719" lon="0.22059">
        <ele>2518.4</ele>
        <time>2022-02-09T12:37:10Z</time>
      </trkpt>
      <trkpt lat="42.86719" lon="0.22059">
        <ele>2518.4</ele>
        <time>2022-02-09T12:37:11Z</time>
      </trkpt>
      <trkpt lat="42.86719" lon="0.22059">
        <ele>2518.4</ele>
        <time>2022-02-09T12:37:12Z</time>
      </trkpt>
      <trkpt lat="42.86719" lon="0.22059">
        <ele>2518.4</ele>
        <time>2022-02-09T12:37:13Z</time>
      </trkpt>
      <trkpt lat="42.86719" lon="0.22059">
        <ele>2518.4</ele>
        <time>2022-02-09T12:37:14Z</time>
      </trkpt>
      <trkpt lat="42.86719" lon="0.22059">
        <ele>2518.4</ele>
        <time>2022-02-09T12:37:15Z</time>
      </trkpt>
      <trkpt lat="42.86719" lon="0.22059">
        <ele>2518.4</ele>
        <time>2022-02-09T12:37:16Z</time>
      </trkpt>
      <trkpt lat="42.86719" lon="0.22059">
        <ele>2518.4</ele>
        <time>2022-02-09T12:37:17Z</time>
      </trkpt>
      <trkpt lat="42.86719" lon="0.22059">
        <ele>2518.4</ele>
        <time>2022-02-09T12:37:18Z</time>
      </trkpt>
      <trkpt lat="42.86719" lon="0.22059">
        <ele>2518.4</ele>
        <time>2022-02-09T12:37:19Z</time>
      </trkpt>
      <trkpt lat="42.86719" lon="0.22059">
        <ele>2518.4</ele>
        <time>2022-02-09T12:37:20Z</time>
      </trkpt>
      <trkpt lat="42.86719" lon="0.22059">
        <ele>2518.4</ele>
        <time>2022-02-09T12:37:21Z</time>
      </trkpt>
      <trkpt lat="42.86719" lon="0.22059">
        <ele>2518.4</ele>
        <time>2022-02-09T12:37:22Z</time>
      </trkpt>
      <trkpt lat="42.86719" lon="0.22059">
        <ele>2518.4</ele>
        <time>2022-02-09T12:37:23Z</time>
      </trkpt>
      <trkpt lat="42.86719" lon="0.22059">
        <ele>2518.4</ele>
        <time>2022-02-09T12:37:24Z</time>
      </trkpt>
      <trkpt lat="42.86719" lon="0.22059">
        <ele>2518.4</ele>
        <time>2022-02-09T12:37:25Z</time>
      </trkpt>
      <trkpt lat="42.86719" lon="0.22059">
        <ele>2518.4</ele>
        <time>2022-02-09T12:37:26Z</time>
      </trkpt>
      <trkpt lat="42.86719" lon="0.22059">
        <ele>2518.4</ele>
        <time>2022-02-09T12:37:27Z</time>
      </trkpt>
      <trkpt lat="42.86719" lon="0.22059">
        <ele>2518.4</ele>
        <time>2022-02-09T12:37:28Z</time>
      </trkpt>
      <trkpt lat="42.86719" lon="0.22059">
        <ele>2518.4</ele>
        <time>2022-02-09T12:37:29Z</time>
      </trkpt>
      <trkpt lat="42.86719" lon="0.22059">
        <ele>2518.4</ele>
        <time>2022-02-09T12:37:30Z</time>
      </trkpt>
      <trkpt lat="42.86719" lon="0.22059">
        <ele>2518.4</ele>
        <time>2022-02-09T12:37:31Z</time>
      </trkpt>
      <trkpt lat="42.86719" lon="0.22059">
        <ele>2518.4</ele>
        <time>2022-02-09T12:37:32Z</time>
      </trkpt>
      <trkpt lat="42.86719" lon="0.22059">
        <ele>2518.4</ele>
        <time>2022-02-09T12:37:33Z</time>
      </trkpt>
      <trkpt lat="42.86719" lon="0.22059">
        <ele>2518.4</ele>
        <time>2022-02-09T12:37:34Z</time>
      </trkpt>
      <trkpt lat="42.86719" lon="0.22059">
        <ele>2518.4</ele>
        <time>2022-02-09T12:37:35Z</time>
      </trkpt>
      <trkpt lat="42.86719" lon="0.22059">
        <ele>2518.4</ele>
        <time>2022-02-09T12:37:36Z</time>
      </trkpt>
      <trkpt lat="42.86719" lon="0.22059">
        <ele>2518.4</ele>
        <time>2022-02-09T12:37:37Z</time>
      </trkpt>
      <trkpt lat="42.86719" lon="0.22059">
        <ele>2518.4</ele>
        <time>2022-02-09T12:37:38Z</time>
      </trkpt>
      <trkpt lat="42.86719" lon="0.22059">
        <ele>2518.4</ele>
        <time>2022-02-09T12:37:39Z</time>
      </trkpt>
      <trkpt lat="42.86719" lon="0.22059">
        <ele>2518.4</ele>
        <time>2022-02-09T12:37:40Z</time>
      </trkpt>
      <trkpt lat="42.86719" lon="0.22059">
        <ele>2518.4</ele>
        <time>2022-02-09T12:37:41Z</time>
      </trkpt>
      <trkpt lat="42.86719" lon="0.22059">
        <ele>2518.4</ele>
        <time>2022-02-09T12:37:42Z</time>
      </trkpt>
      <trkpt lat="42.86719" lon="0.22059">
        <ele>2518.4</ele>
        <time>2022-02-09T12:37:43Z</time>
      </trkpt>
      <trkpt lat="42.86719" lon="0.22059">
        <ele>2518.4</ele>
        <time>2022-02-09T12:37:44Z</time>
      </trkpt>
      <trkpt lat="42.86719" lon="0.22059">
        <ele>2518.4</ele>
        <time>2022-02-09T12:37:45Z</time>
      </trkpt>
      <trkpt lat="42.86719" lon="0.22059">
        <ele>2518.4</ele>
        <time>2022-02-09T12:37:46Z</time>
      </trkpt>
      <trkpt lat="42.86719" lon="0.22059">
        <ele>2518.4</ele>
        <time>2022-02-09T12:37:47Z</time>
      </trkpt>
      <trkpt lat="42.86719" lon="0.22059">
        <ele>2518.4</ele>
        <time>2022-02-09T12:37:48Z</time>
      </trkpt>
      <trkpt lat="42.86719" lon="0.22059">
        <ele>2518.4</ele>
        <time>2022-02-09T12:37:49Z</time>
      </trkpt>
      <trkpt lat="42.86719" lon="0.22059">
        <ele>2518.4</ele>
        <time>2022-02-09T12:37:50Z</time>
      </trkpt>
      <trkpt lat="42.86719" lon="0.22059">
        <ele>2518.4</ele>
        <time>2022-02-09T12:37:51Z</time>
      </trkpt>
      <trkpt lat="42.86719" lon="0.22059">
        <ele>2518.4</ele>
        <time>2022-02-09T12:37:52Z</time>
      </trkpt>
      <trkpt lat="42.86719" lon="0.22059">
        <ele>2518.4</ele>
        <time>2022-02-09T12:37:53Z</time>
      </trkpt>
      <trkpt lat="42.86719" lon="0.22059">
        <ele>2518.4</ele>
        <time>2022-02-09T12:37:54Z</time>
      </trkpt>
      <trkpt lat="42.86719" lon="0.22059">
        <ele>2518.4</ele>
        <time>2022-02-09T12:37:55Z</time>
      </trkpt>
      <trkpt lat="42.86719" lon="0.22059">
        <ele>2518.4</ele>
        <time>2022-02-09T12:37:56Z</time>
      </trkpt>
      <trkpt lat="42.86719" lon="0.22059">
        <ele>2518.4</ele>
        <time>2022-02-09T12:37:57Z</time>
      </trkpt>
      <trkpt lat="42.86719" lon="0.22059">
        <ele>2518.4</ele>
        <time>2022-02-09T12:37:58Z</time>
      </trkpt>
      <trkpt lat="42.86719" lon="0.22059">
        <ele>2518.4</ele>
        <time>2022-02-09T12:37:59Z</time>
      </trkpt>
      <trkpt lat="42.86719" lon="0.22059">
        <ele>2518.4</ele>
        <time>2022-02-09T12:38:00Z</time>
      </trkpt>
      <trkpt lat="42.86719" lon="0.22059">
        <ele>2518.4</ele>
        <time>2022-02-09T12:38:01Z</time>
      </trkpt>
      <trkpt lat="42.86719" lon="0.22059">
        <ele>2518.4</ele>
        <time>2022-02-09T12:38:02Z</time>
      </trkpt>
      <trkpt lat="42.86719" lon="0.22059">
        <ele>2518.4</ele>
        <time>2022-02-09T12:38:03Z</time>
      </trkpt>
      <trkpt lat="42.86719" lon="0.22059">
        <ele>2518.4</ele>
        <time>2022-02-09T12:38:04Z</time>
      </trkpt>
      <trkpt lat="42.86719" lon="0.22059">
        <ele>2518.4</ele>
        <time>2022-02-09T12:38:05Z</time>
      </trkpt>
      <trkpt lat="42.86719" lon="0.22059">
        <ele>2518.4</ele>
        <time>2022-02-09T12:38:06Z</time>
      </trkpt>
      <trkpt lat="42.86719" lon="0.22059">
        <ele>2518.4</ele>
        <time>2022-02-09T12:38:07Z</time>
      </trkpt>
      <trkpt lat="42.86719" lon="0.22059">
        <ele>2518.4</ele>
        <time>2022-02-09T12:38:08Z</time>
      </trkpt>
      <trkpt lat="42.86719" lon="0.22059">
        <ele>2518.4</ele>
        <time>2022-02-09T12:38:09Z</time>
      </trkpt>
      <trkpt lat="42.86719" lon="0.22059">
        <ele>2518.4</ele>
        <time>2022-02-09T12:38:10Z</time>
      </trkpt>
      <trkpt lat="42.86719" lon="0.22059">
        <ele>2518.4</ele>
        <time>2022-02-09T12:38:11Z</time>
      </trkpt>
      <trkpt lat="42.86719" lon="0.22059">
        <ele>2518.4</ele>
        <time>2022-02-09T12:38:12Z</time>
      </trkpt>
      <trkpt lat="42.86719" lon="0.22059">
        <ele>2518.4</ele>
        <time>2022-02-09T12:38:13Z</time>
      </trkpt>
      <trkpt lat="42.86719" lon="0.22059">
        <ele>2518.4</ele>
        <time>2022-02-09T12:38:14Z</time>
      </trkpt>
      <trkpt lat="42.86719" lon="0.22059">
        <ele>2518.4</ele>
        <time>2022-02-09T12:38:15Z</time>
      </trkpt>
      <trkpt lat="42.86719" lon="0.22059">
        <ele>2518.4</ele>
        <time>2022-02-09T12:38:16Z</time>
      </trkpt>
      <trkpt lat="42.86719" lon="0.22059">
        <ele>2518.4</ele>
        <time>2022-02-09T12:38:17Z</time>
      </trkpt>
      <trkpt lat="42.86719" lon="0.22059">
        <ele>2518.4</ele>
        <time>2022-02-09T12:38:18Z</time>
      </trkpt>
      <trkpt lat="42.86719" lon="0.22059">
        <ele>2518.4</ele>
        <time>2022-02-09T12:38:19Z</time>
      </trkpt>
      <trkpt lat="42.86719" lon="0.22059">
        <ele>2518.4</ele>
        <time>2022-02-09T12:38:20Z</time>
      </trkpt>
      <trkpt lat="42.86719" lon="0.22059">
        <ele>2518.4</ele>
        <time>2022-02-09T12:38:21Z</time>
      </trkpt>
      <trkpt lat="42.86719" lon="0.22059">
        <ele>2518.4</ele>
        <time>2022-02-09T12:38:22Z</time>
      </trkpt>
      <trkpt lat="42.86719" lon="0.22059">
        <ele>2518.4</ele>
        <time>2022-02-09T12:38:23Z</time>
      </trkpt>
      <trkpt lat="42.86719" lon="0.22059">
        <ele>2518.4</ele>
        <time>2022-02-09T12:38:24Z</time>
      </trkpt>
      <trkpt lat="42.86719" lon="0.22059">
        <ele>2518.4</ele>
        <time>2022-02-09T12:38:25Z</time>
      </trkpt>
      <trkpt lat="42.86719" lon="0.22059">
        <ele>2518.4</ele>
        <time>2022-02-09T12:38:26Z</time>
      </trkpt>
      <trkpt lat="42.86719" lon="0.22059">
        <ele>2518.4</ele>
        <time>2022-02-09T12:38:27Z</time>
      </trkpt>
      <trkpt lat="42.86719" lon="0.22059">
        <ele>2518.4</ele>
        <time>2022-02-09T12:38:28Z</time>
      </trkpt>
      <trkpt lat="42.86719" lon="0.22059">
        <ele>2518.4</ele>
        <time>2022-02-09T12:38:29Z</time>
      </trkpt>
      <trkpt lat="42.86719" lon="0.22059">
        <ele>2518.4</ele>
        <time>2022-02-09T12:38:30Z</time>
      </trkpt>
      <trkpt lat="42.86719" lon="0.22059">
        <ele>2518.4</ele>
        <time>2022-02-09T12:38:31Z</time>
      </trkpt>
      <trkpt lat="42.86719" lon="0.22059">
        <ele>2518.4</ele>
        <time>2022-02-09T12:38:32Z</time>
      </trkpt>
      <trkpt lat="42.86719" lon="0.22059">
        <ele>2518.4</ele>
        <time>2022-02-09T12:38:33Z</time>
      </trkpt>
      <trkpt lat="42.86719" lon="0.22059">
        <ele>2518.4</ele>
        <time>2022-02-09T12:38:34Z</time>
      </trkpt>
      <trkpt lat="42.86719" lon="0.22059">
        <ele>2518.4</ele>
        <time>2022-02-09T12:38:35Z</time>
      </trkpt>
      <trkpt lat="42.86719" lon="0.22059">
        <ele>2518.4</ele>
        <time>2022-02-09T12:38:36Z</time>
      </trkpt>
      <trkpt lat="42.86719" lon="0.22059">
        <ele>2518.4</ele>
        <time>2022-02-09T12:38:37Z</time>
      </trkpt>
      <trkpt lat="42.86719" lon="0.22059">
        <ele>2518.4</ele>
        <time>2022-02-09T12:38:38Z</time>
      </trkpt>
      <trkpt lat="42.86719" lon="0.22059">
        <ele>2518.4</ele>
        <time>2022-02-09T12:38:39Z</time>
      </trkpt>
      <trkpt lat="42.86719" lon="0.22059">
        <ele>2518.4</ele>
        <time>2022-02-09T12:38:40Z</time>
      </trkpt>
      <trkpt lat="42.86719" lon="0.22059">
        <ele>2518.4</ele>
        <time>2022-02-09T12:38:41Z</time>
      </trkpt>
      <trkpt lat="42.86719" lon="0.22059">
        <ele>2518.4</ele>
        <time>2022-02-09T12:38:42Z</time>
      </trkpt>
      <trkpt lat="42.86719" lon="0.22059">
        <ele>2518.4</ele>
        <time>2022-02-09T12:38:43Z</time>
      </trkpt>
      <trkpt lat="42.86719" lon="0.22059">
        <ele>2518.4</ele>
        <time>2022-02-09T12:38:44Z</time>
      </trkpt>
      <trkpt lat="42.86719" lon="0.22059">
        <ele>2518.4</ele>
        <time>2022-02-09T12:38:45Z</time>
      </trkpt>
      <trkpt lat="42.86719" lon="0.22059">
        <ele>2518.4</ele>
        <time>2022-02-09T12:38:46Z</time>
      </trkpt>
      <trkpt lat="42.86719" lon="0.22059">
        <ele>2518.4</ele>
        <time>2022-02-09T12:38:47Z</time>
      </trkpt>
      <trkpt lat="42.86719" lon="0.22059">
        <ele>2518.4</ele>
        <time>2022-02-09T12:38:48Z</time>
      </trkpt>
      <trkpt lat="42.86719" lon="0.22059">
        <ele>2518.4</ele>
        <time>2022-02-09T12:38:49Z</time>
      </trkpt>
      <trkpt lat="42.86719" lon="0.22059">
        <ele>2518.4</ele>
        <time>2022-02-09T12:38:50Z</time>
      </trkpt>
      <trkpt lat="42.86719" lon="0.22059">
        <ele>2518.4</ele>
        <time>2022-02-09T12:38:51Z</time>
      </trkpt>
      <trkpt lat="42.86719" lon="0.22059">
        <ele>2518.4</ele>
        <time>2022-02-09T12:38:52Z</time>
      </trkpt>
      <trkpt lat="42.86719" lon="0.22059">
        <ele>2518.4</ele>
        <time>2022-02-09T12:38:53Z</time>
      </trkpt>
      <trkpt lat="42.86719" lon="0.22059">
        <ele>2518.4</ele>
        <time>2022-02-09T12:38:54Z</time>
      </trkpt>
      <trkpt lat="42.86719" lon="0.22059">
        <ele>2518.4</ele>
        <time>2022-02-09T12:38:55Z</time>
      </trkpt>
      <trkpt lat="42.86719" lon="0.22059">
        <ele>2518.4</ele>
        <time>2022-02-09T12:38:56Z</time>
      </trkpt>
      <trkpt lat="42.86719" lon="0.22059">
        <ele>2518.4</ele>
        <time>2022-02-09T12:38:57Z</time>
      </trkpt>
      <trkpt lat="42.86719" lon="0.22059">
        <ele>2518.4</ele>
        <time>2022-02-09T12:38:58Z</time>
      </trkpt>
      <trkpt lat="42.86719" lon="0.22059">
        <ele>2518.4</ele>
        <time>2022-02-09T12:38:59Z</time>
      </trkpt>
      <trkpt lat="42.86719" lon="0.22059">
        <ele>2518.4</ele>
        <time>2022-02-09T12:39:00Z</time>
      </trkpt>
      <trkpt lat="42.86719" lon="0.22059">
        <ele>2518.4</ele>
        <time>2022-02-09T12:39:01Z</time>
      </trkpt>
      <trkpt lat="42.86719" lon="0.22059">
        <ele>2518.4</ele>
        <time>2022-02-09T12:39:02Z</time>
      </trkpt>
      <trkpt lat="42.86719" lon="0.22059">
        <ele>2518.4</ele>
        <time>2022-02-09T12:39:03Z</time>
      </trkpt>
      <trkpt lat="42.86719" lon="0.22059">
        <ele>2518.4</ele>
        <time>2022-02-09T12:39:04Z</time>
      </trkpt>
      <trkpt lat="42.86719" lon="0.22059">
        <ele>2518.4</ele>
        <time>2022-02-09T12:39:05Z</time>
      </trkpt>
      <trkpt lat="42.86719" lon="0.22059">
        <ele>2518.4</ele>
        <time>2022-02-09T12:39:06Z</time>
      </trkpt>
      <trkpt lat="42.86719" lon="0.22059">
        <ele>2518.4</ele>
        <time>2022-02-09T12:39:07Z</time>
      </trkpt>
      <trkpt lat="42.86719" lon="0.22059">
        <ele>2518.4</ele>
        <time>2022-02-09T12:39:08Z</time>
      </trkpt>
      <trkpt lat="42.86719" lon="0.22059">
        <ele>2518.4</ele>
        <time>2022-02-09T12:39:09Z</time>
      </trkpt>
      <trkpt lat="42.86719" lon="0.22059">
        <ele>2518.4</ele>
        <time>2022-02-09T12:39:10Z</time>
      </trkpt>
      <trkpt lat="42.86719" lon="0.22059">
        <ele>2518.4</ele>
        <time>2022-02-09T12:39:11Z</time>
      </trkpt>
      <trkpt lat="42.86719" lon="0.22059">
        <ele>2518.4</ele>
        <time>2022-02-09T12:39:12Z</time>
      </trkpt>
      <trkpt lat="42.86718" lon="0.22059">
        <ele>2518.4</ele>
        <time>2022-02-09T12:39:13Z</time>
      </trkpt>
      <trkpt lat="42.86717" lon="0.22059">
        <ele>2518.5</ele>
        <time>2022-02-09T12:39:14Z</time>
      </trkpt>
      <trkpt lat="42.86716" lon="0.22058">
        <ele>2518.5</ele>
        <time>2022-02-09T12:39:15Z</time>
      </trkpt>
      <trkpt lat="42.86717" lon="0.22059">
        <ele>2518.5</ele>
        <time>2022-02-09T12:39:16Z</time>
      </trkpt>
      <trkpt lat="42.86718" lon="0.22061">
        <ele>2518.6</ele>
        <time>2022-02-09T12:39:17Z</time>
      </trkpt>
      <trkpt lat="42.86719" lon="0.22061">
        <ele>2518.6</ele>
        <time>2022-02-09T12:39:18Z</time>
      </trkpt>
      <trkpt lat="42.86719" lon="0.22061">
        <ele>2518.6</ele>
        <time>2022-02-09T12:39:19Z</time>
      </trkpt>
      <trkpt lat="42.86718" lon="0.22061">
        <ele>2518.6</ele>
        <time>2022-02-09T12:39:20Z</time>
      </trkpt>
      <trkpt lat="42.86718" lon="0.22061">
        <ele>2518.7</ele>
        <time>2022-02-09T12:39:21Z</time>
      </trkpt>
      <trkpt lat="42.86718" lon="0.22061">
        <ele>2518.7</ele>
        <time>2022-02-09T12:39:22Z</time>
      </trkpt>
      <trkpt lat="42.86718" lon="0.22061">
        <ele>2518.7</ele>
        <time>2022-02-09T12:39:23Z</time>
      </trkpt>
      <trkpt lat="42.86718" lon="0.2206">
        <ele>2518.7</ele>
        <time>2022-02-09T12:39:24Z</time>
      </trkpt>
      <trkpt lat="42.86718" lon="0.2206">
        <ele>2518.7</ele>
        <time>2022-02-09T12:39:25Z</time>
      </trkpt>
      <trkpt lat="42.86718" lon="0.2206">
        <ele>2518.7</ele>
        <time>2022-02-09T12:39:26Z</time>
      </trkpt>
      <trkpt lat="42.86718" lon="0.2206">
        <ele>2518.7</ele>
        <time>2022-02-09T12:39:27Z</time>
      </trkpt>
      <trkpt lat="42.86718" lon="0.2206">
        <ele>2518.7</ele>
        <time>2022-02-09T12:39:28Z</time>
      </trkpt>
      <trkpt lat="42.86718" lon="0.2206">
        <ele>2518.7</ele>
        <time>2022-02-09T12:39:29Z</time>
      </trkpt>
      <trkpt lat="42.86718" lon="0.2206">
        <ele>2518.7</ele>
        <time>2022-02-09T12:39:30Z</time>
      </trkpt>
      <trkpt lat="42.86718" lon="0.2206">
        <ele>2518.7</ele>
        <time>2022-02-09T12:39:31Z</time>
      </trkpt>
      <trkpt lat="42.86718" lon="0.2206">
        <ele>2518.7</ele>
        <time>2022-02-09T12:39:32Z</time>
      </trkpt>
      <trkpt lat="42.86718" lon="0.2206">
        <ele>2518.7</ele>
        <time>2022-02-09T12:39:33Z</time>
      </trkpt>
      <trkpt lat="42.86718" lon="0.22059">
        <ele>2518.7</ele>
        <time>2022-02-09T12:39:34Z</time>
      </trkpt>
      <trkpt lat="42.86718" lon="0.22059">
        <ele>2518.7</ele>
        <time>2022-02-09T12:39:35Z</time>
      </trkpt>
      <trkpt lat="42.86718" lon="0.22059">
        <ele>2518.7</ele>
        <time>2022-02-09T12:39:36Z</time>
      </trkpt>
      <trkpt lat="42.86718" lon="0.22059">
        <ele>2518.7</ele>
        <time>2022-02-09T12:39:37Z</time>
      </trkpt>
      <trkpt lat="42.86718" lon="0.22059">
        <ele>2518.7</ele>
        <time>2022-02-09T12:39:38Z</time>
      </trkpt>
      <trkpt lat="42.86718" lon="0.22059">
        <ele>2518.7</ele>
        <time>2022-02-09T12:39:39Z</time>
      </trkpt>
      <trkpt lat="42.86718" lon="0.22059">
        <ele>2518.7</ele>
        <time>2022-02-09T12:39:40Z</time>
      </trkpt>
      <trkpt lat="42.86718" lon="0.22059">
        <ele>2518.7</ele>
        <time>2022-02-09T12:39:41Z</time>
      </trkpt>
      <trkpt lat="42.86718" lon="0.22059">
        <ele>2518.7</ele>
        <time>2022-02-09T12:39:42Z</time>
      </trkpt>
      <trkpt lat="42.86718" lon="0.22059">
        <ele>2518.7</ele>
        <time>2022-02-09T12:39:43Z</time>
      </trkpt>
      <trkpt lat="42.86718" lon="0.22059">
        <ele>2518.7</ele>
        <time>2022-02-09T12:39:44Z</time>
      </trkpt>
      <trkpt lat="42.86718" lon="0.22059">
        <ele>2518.7</ele>
        <time>2022-02-09T12:39:45Z</time>
      </trkpt>
      <trkpt lat="42.86718" lon="0.22059">
        <ele>2518.7</ele>
        <time>2022-02-09T12:39:46Z</time>
      </trkpt>
      <trkpt lat="42.86718" lon="0.22059">
        <ele>2518.7</ele>
        <time>2022-02-09T12:39:47Z</time>
      </trkpt>
      <trkpt lat="42.86718" lon="0.2206">
        <ele>2518.7</ele>
        <time>2022-02-09T12:39:48Z</time>
      </trkpt>
      <trkpt lat="42.86718" lon="0.2206">
        <ele>2518.7</ele>
        <time>2022-02-09T12:39:49Z</time>
      </trkpt>
      <trkpt lat="42.86718" lon="0.2206">
        <ele>2518.7</ele>
        <time>2022-02-09T12:39:50Z</time>
      </trkpt>
      <trkpt lat="42.86718" lon="0.2206">
        <ele>2518.7</ele>
        <time>2022-02-09T12:39:51Z</time>
      </trkpt>
      <trkpt lat="42.86718" lon="0.2206">
        <ele>2518.7</ele>
        <time>2022-02-09T12:39:52Z</time>
      </trkpt>
      <trkpt lat="42.86718" lon="0.2206">
        <ele>2518.7</ele>
        <time>2022-02-09T12:39:53Z</time>
      </trkpt>
      <trkpt lat="42.86718" lon="0.2206">
        <ele>2518.7</ele>
        <time>2022-02-09T12:39:54Z</time>
      </trkpt>
      <trkpt lat="42.86718" lon="0.2206">
        <ele>2518.7</ele>
        <time>2022-02-09T12:39:55Z</time>
      </trkpt>
      <trkpt lat="42.86718" lon="0.2206">
        <ele>2518.7</ele>
        <time>2022-02-09T12:39:56Z</time>
      </trkpt>
      <trkpt lat="42.86718" lon="0.2206">
        <ele>2518.7</ele>
        <time>2022-02-09T12:39:57Z</time>
      </trkpt>
      <trkpt lat="42.86718" lon="0.2206">
        <ele>2518.7</ele>
        <time>2022-02-09T12:39:58Z</time>
      </trkpt>
      <trkpt lat="42.86718" lon="0.2206">
        <ele>2518.7</ele>
        <time>2022-02-09T12:39:59Z</time>
      </trkpt>
      <trkpt lat="42.86718" lon="0.2206">
        <ele>2518.7</ele>
        <time>2022-02-09T12:40:00Z</time>
      </trkpt>
      <trkpt lat="42.86718" lon="0.2206">
        <ele>2518.7</ele>
        <time>2022-02-09T12:40:01Z</time>
      </trkpt>
      <trkpt lat="42.86718" lon="0.2206">
        <ele>2518.7</ele>
        <time>2022-02-09T12:40:02Z</time>
      </trkpt>
      <trkpt lat="42.86718" lon="0.2206">
        <ele>2518.7</ele>
        <time>2022-02-09T12:40:03Z</time>
      </trkpt>
      <trkpt lat="42.86718" lon="0.2206">
        <ele>2518.7</ele>
        <time>2022-02-09T12:40:04Z</time>
      </trkpt>
      <trkpt lat="42.86718" lon="0.2206">
        <ele>2518.7</ele>
        <time>2022-02-09T12:40:05Z</time>
      </trkpt>
      <trkpt lat="42.86718" lon="0.2206">
        <ele>2518.7</ele>
        <time>2022-02-09T12:40:06Z</time>
      </trkpt>
      <trkpt lat="42.86718" lon="0.2206">
        <ele>2518.7</ele>
        <time>2022-02-09T12:40:07Z</time>
      </trkpt>
      <trkpt lat="42.86718" lon="0.2206">
        <ele>2518.7</ele>
        <time>2022-02-09T12:40:08Z</time>
      </trkpt>
      <trkpt lat="42.86718" lon="0.2206">
        <ele>2518.7</ele>
        <time>2022-02-09T12:40:09Z</time>
      </trkpt>
      <trkpt lat="42.86718" lon="0.2206">
        <ele>2518.7</ele>
        <time>2022-02-09T12:40:10Z</time>
      </trkpt>
      <trkpt lat="42.86718" lon="0.2206">
        <ele>2518.7</ele>
        <time>2022-02-09T12:40:11Z</time>
      </trkpt>
      <trkpt lat="42.86718" lon="0.2206">
        <ele>2518.7</ele>
        <time>2022-02-09T12:40:12Z</time>
      </trkpt>
      <trkpt lat="42.86718" lon="0.2206">
        <ele>2518.7</ele>
        <time>2022-02-09T12:40:13Z</time>
      </trkpt>
      <trkpt lat="42.86718" lon="0.2206">
        <ele>2518.7</ele>
        <time>2022-02-09T12:40:14Z</time>
      </trkpt>
      <trkpt lat="42.86718" lon="0.2206">
        <ele>2518.7</ele>
        <time>2022-02-09T12:40:15Z</time>
      </trkpt>
      <trkpt lat="42.86718" lon="0.2206">
        <ele>2518.7</ele>
        <time>2022-02-09T12:40:16Z</time>
      </trkpt>
      <trkpt lat="42.86718" lon="0.2206">
        <ele>2518.7</ele>
        <time>2022-02-09T12:40:17Z</time>
      </trkpt>
      <trkpt lat="42.86718" lon="0.2206">
        <ele>2518.7</ele>
        <time>2022-02-09T12:40:18Z</time>
      </trkpt>
      <trkpt lat="42.86718" lon="0.2206">
        <ele>2518.7</ele>
        <time>2022-02-09T12:40:19Z</time>
      </trkpt>
      <trkpt lat="42.86718" lon="0.2206">
        <ele>2518.7</ele>
        <time>2022-02-09T12:40:20Z</time>
      </trkpt>
      <trkpt lat="42.86718" lon="0.2206">
        <ele>2518.7</ele>
        <time>2022-02-09T12:40:21Z</time>
      </trkpt>
      <trkpt lat="42.86718" lon="0.2206">
        <ele>2518.7</ele>
        <time>2022-02-09T12:40:22Z</time>
      </trkpt>
      <trkpt lat="42.86718" lon="0.2206">
        <ele>2518.7</ele>
        <time>2022-02-09T12:40:23Z</time>
      </trkpt>
      <trkpt lat="42.86718" lon="0.2206">
        <ele>2518.7</ele>
        <time>2022-02-09T12:40:24Z</time>
      </trkpt>
      <trkpt lat="42.86718" lon="0.2206">
        <ele>2518.7</ele>
        <time>2022-02-09T12:40:25Z</time>
      </trkpt>
      <trkpt lat="42.86718" lon="0.2206">
        <ele>2518.7</ele>
        <time>2022-02-09T12:40:26Z</time>
      </trkpt>
      <trkpt lat="42.86718" lon="0.2206">
        <ele>2518.7</ele>
        <time>2022-02-09T12:40:27Z</time>
      </trkpt>
      <trkpt lat="42.86718" lon="0.2206">
        <ele>2518.7</ele>
        <time>2022-02-09T12:40:28Z</time>
      </trkpt>
      <trkpt lat="42.86718" lon="0.2206">
        <ele>2518.7</ele>
        <time>2022-02-09T12:40:29Z</time>
      </trkpt>
      <trkpt lat="42.86718" lon="0.2206">
        <ele>2518.7</ele>
        <time>2022-02-09T12:40:30Z</time>
      </trkpt>
      <trkpt lat="42.86718" lon="0.2206">
        <ele>2518.7</ele>
        <time>2022-02-09T12:40:31Z</time>
      </trkpt>
      <trkpt lat="42.86718" lon="0.2206">
        <ele>2518.7</ele>
        <time>2022-02-09T12:40:32Z</time>
      </trkpt>
      <trkpt lat="42.86718" lon="0.2206">
        <ele>2518.7</ele>
        <time>2022-02-09T12:40:33Z</time>
      </trkpt>
      <trkpt lat="42.86718" lon="0.2206">
        <ele>2518.7</ele>
        <time>2022-02-09T12:40:34Z</time>
      </trkpt>
      <trkpt lat="42.86718" lon="0.2206">
        <ele>2518.7</ele>
        <time>2022-02-09T12:40:35Z</time>
      </trkpt>
      <trkpt lat="42.86718" lon="0.2206">
        <ele>2518.7</ele>
        <time>2022-02-09T12:40:36Z</time>
      </trkpt>
      <trkpt lat="42.86718" lon="0.2206">
        <ele>2518.7</ele>
        <time>2022-02-09T12:40:37Z</time>
      </trkpt>
      <trkpt lat="42.86718" lon="0.2206">
        <ele>2518.7</ele>
        <time>2022-02-09T12:40:38Z</time>
      </trkpt>
      <trkpt lat="42.86718" lon="0.2206">
        <ele>2518.7</ele>
        <time>2022-02-09T12:40:39Z</time>
      </trkpt>
      <trkpt lat="42.86718" lon="0.2206">
        <ele>2518.7</ele>
        <time>2022-02-09T12:40:40Z</time>
      </trkpt>
      <trkpt lat="42.86718" lon="0.2206">
        <ele>2518.7</ele>
        <time>2022-02-09T12:40:41Z</time>
      </trkpt>
      <trkpt lat="42.86718" lon="0.2206">
        <ele>2518.7</ele>
        <time>2022-02-09T12:40:42Z</time>
      </trkpt>
      <trkpt lat="42.86718" lon="0.2206">
        <ele>2518.7</ele>
        <time>2022-02-09T12:40:43Z</time>
      </trkpt>
      <trkpt lat="42.86718" lon="0.2206">
        <ele>2518.7</ele>
        <time>2022-02-09T12:40:44Z</time>
      </trkpt>
      <trkpt lat="42.86718" lon="0.2206">
        <ele>2518.7</ele>
        <time>2022-02-09T12:40:45Z</time>
      </trkpt>
      <trkpt lat="42.86718" lon="0.2206">
        <ele>2518.7</ele>
        <time>2022-02-09T12:40:46Z</time>
      </trkpt>
      <trkpt lat="42.86718" lon="0.2206">
        <ele>2518.7</ele>
        <time>2022-02-09T12:40:47Z</time>
      </trkpt>
      <trkpt lat="42.86718" lon="0.2206">
        <ele>2518.7</ele>
        <time>2022-02-09T12:40:48Z</time>
      </trkpt>
      <trkpt lat="42.86718" lon="0.2206">
        <ele>2518.7</ele>
        <time>2022-02-09T12:40:49Z</time>
      </trkpt>
      <trkpt lat="42.86718" lon="0.2206">
        <ele>2518.7</ele>
        <time>2022-02-09T12:40:50Z</time>
      </trkpt>
      <trkpt lat="42.86718" lon="0.2206">
        <ele>2518.7</ele>
        <time>2022-02-09T12:40:51Z</time>
      </trkpt>
      <trkpt lat="42.86718" lon="0.2206">
        <ele>2518.7</ele>
        <time>2022-02-09T12:40:52Z</time>
      </trkpt>
      <trkpt lat="42.86718" lon="0.2206">
        <ele>2518.7</ele>
        <time>2022-02-09T12:40:53Z</time>
      </trkpt>
      <trkpt lat="42.86718" lon="0.2206">
        <ele>2518.7</ele>
        <time>2022-02-09T12:40:54Z</time>
      </trkpt>
      <trkpt lat="42.86718" lon="0.2206">
        <ele>2518.7</ele>
        <time>2022-02-09T12:40:55Z</time>
      </trkpt>
      <trkpt lat="42.86718" lon="0.2206">
        <ele>2518.7</ele>
        <time>2022-02-09T12:40:56Z</time>
      </trkpt>
      <trkpt lat="42.86718" lon="0.2206">
        <ele>2518.7</ele>
        <time>2022-02-09T12:40:57Z</time>
      </trkpt>
      <trkpt lat="42.86718" lon="0.2206">
        <ele>2518.7</ele>
        <time>2022-02-09T12:40:58Z</time>
      </trkpt>
      <trkpt lat="42.86718" lon="0.2206">
        <ele>2518.7</ele>
        <time>2022-02-09T12:40:59Z</time>
      </trkpt>
      <trkpt lat="42.86718" lon="0.2206">
        <ele>2518.7</ele>
        <time>2022-02-09T12:41:00Z</time>
      </trkpt>
      <trkpt lat="42.86718" lon="0.2206">
        <ele>2518.7</ele>
        <time>2022-02-09T12:41:01Z</time>
      </trkpt>
      <trkpt lat="42.86718" lon="0.2206">
        <ele>2518.7</ele>
        <time>2022-02-09T12:41:02Z</time>
      </trkpt>
      <trkpt lat="42.86718" lon="0.2206">
        <ele>2518.7</ele>
        <time>2022-02-09T12:41:03Z</time>
      </trkpt>
      <trkpt lat="42.86718" lon="0.2206">
        <ele>2518.7</ele>
        <time>2022-02-09T12:41:04Z</time>
      </trkpt>
      <trkpt lat="42.86718" lon="0.2206">
        <ele>2518.7</ele>
        <time>2022-02-09T12:41:05Z</time>
      </trkpt>
      <trkpt lat="42.86718" lon="0.2206">
        <ele>2518.7</ele>
        <time>2022-02-09T12:41:06Z</time>
      </trkpt>
      <trkpt lat="42.86718" lon="0.2206">
        <ele>2518.7</ele>
        <time>2022-02-09T12:41:07Z</time>
      </trkpt>
      <trkpt lat="42.86718" lon="0.2206">
        <ele>2518.7</ele>
        <time>2022-02-09T12:41:08Z</time>
      </trkpt>
      <trkpt lat="42.86718" lon="0.2206">
        <ele>2518.7</ele>
        <time>2022-02-09T12:41:09Z</time>
      </trkpt>
      <trkpt lat="42.86718" lon="0.2206">
        <ele>2518.7</ele>
        <time>2022-02-09T12:41:10Z</time>
      </trkpt>
      <trkpt lat="42.86718" lon="0.2206">
        <ele>2518.7</ele>
        <time>2022-02-09T12:41:11Z</time>
      </trkpt>
      <trkpt lat="42.86718" lon="0.2206">
        <ele>2518.7</ele>
        <time>2022-02-09T12:41:12Z</time>
      </trkpt>
      <trkpt lat="42.86718" lon="0.2206">
        <ele>2518.7</ele>
        <time>2022-02-09T12:41:13Z</time>
      </trkpt>
      <trkpt lat="42.86718" lon="0.2206">
        <ele>2518.7</ele>
        <time>2022-02-09T12:41:14Z</time>
      </trkpt>
      <trkpt lat="42.86718" lon="0.2206">
        <ele>2518.7</ele>
        <time>2022-02-09T12:41:15Z</time>
      </trkpt>
      <trkpt lat="42.86718" lon="0.2206">
        <ele>2518.7</ele>
        <time>2022-02-09T12:41:16Z</time>
      </trkpt>
      <trkpt lat="42.86718" lon="0.2206">
        <ele>2518.7</ele>
        <time>2022-02-09T12:41:17Z</time>
      </trkpt>
      <trkpt lat="42.86718" lon="0.2206">
        <ele>2518.7</ele>
        <time>2022-02-09T12:41:18Z</time>
      </trkpt>
      <trkpt lat="42.86718" lon="0.2206">
        <ele>2518.7</ele>
        <time>2022-02-09T12:41:19Z</time>
      </trkpt>
      <trkpt lat="42.86718" lon="0.2206">
        <ele>2518.7</ele>
        <time>2022-02-09T12:41:20Z</time>
      </trkpt>
      <trkpt lat="42.86718" lon="0.2206">
        <ele>2518.7</ele>
        <time>2022-02-09T12:41:21Z</time>
      </trkpt>
      <trkpt lat="42.86718" lon="0.2206">
        <ele>2518.7</ele>
        <time>2022-02-09T12:41:22Z</time>
      </trkpt>
      <trkpt lat="42.86718" lon="0.2206">
        <ele>2518.7</ele>
        <time>2022-02-09T12:41:23Z</time>
      </trkpt>
      <trkpt lat="42.86718" lon="0.2206">
        <ele>2518.7</ele>
        <time>2022-02-09T12:41:24Z</time>
      </trkpt>
      <trkpt lat="42.86718" lon="0.2206">
        <ele>2518.7</ele>
        <time>2022-02-09T12:41:25Z</time>
      </trkpt>
      <trkpt lat="42.86718" lon="0.2206">
        <ele>2518.7</ele>
        <time>2022-02-09T12:41:26Z</time>
      </trkpt>
      <trkpt lat="42.86718" lon="0.2206">
        <ele>2518.7</ele>
        <time>2022-02-09T12:41:27Z</time>
      </trkpt>
      <trkpt lat="42.86718" lon="0.2206">
        <ele>2518.7</ele>
        <time>2022-02-09T12:41:28Z</time>
      </trkpt>
      <trkpt lat="42.86718" lon="0.2206">
        <ele>2518.7</ele>
        <time>2022-02-09T12:41:29Z</time>
      </trkpt>
      <trkpt lat="42.86718" lon="0.2206">
        <ele>2518.7</ele>
        <time>2022-02-09T12:41:30Z</time>
      </trkpt>
      <trkpt lat="42.86718" lon="0.2206">
        <ele>2518.7</ele>
        <time>2022-02-09T12:41:31Z</time>
      </trkpt>
      <trkpt lat="42.86718" lon="0.2206">
        <ele>2518.7</ele>
        <time>2022-02-09T12:41:32Z</time>
      </trkpt>
      <trkpt lat="42.86718" lon="0.2206">
        <ele>2518.7</ele>
        <time>2022-02-09T12:41:33Z</time>
      </trkpt>
      <trkpt lat="42.86718" lon="0.2206">
        <ele>2518.7</ele>
        <time>2022-02-09T12:41:34Z</time>
      </trkpt>
      <trkpt lat="42.86718" lon="0.2206">
        <ele>2518.7</ele>
        <time>2022-02-09T12:41:35Z</time>
      </trkpt>
      <trkpt lat="42.86718" lon="0.2206">
        <ele>2518.7</ele>
        <time>2022-02-09T12:41:36Z</time>
      </trkpt>
      <trkpt lat="42.86718" lon="0.2206">
        <ele>2518.7</ele>
        <time>2022-02-09T12:41:37Z</time>
      </trkpt>
      <trkpt lat="42.86718" lon="0.2206">
        <ele>2518.7</ele>
        <time>2022-02-09T12:41:38Z</time>
      </trkpt>
      <trkpt lat="42.86718" lon="0.2206">
        <ele>2518.7</ele>
        <time>2022-02-09T12:41:39Z</time>
      </trkpt>
      <trkpt lat="42.86718" lon="0.2206">
        <ele>2518.7</ele>
        <time>2022-02-09T12:41:40Z</time>
      </trkpt>
      <trkpt lat="42.86718" lon="0.2206">
        <ele>2518.7</ele>
        <time>2022-02-09T12:41:41Z</time>
      </trkpt>
      <trkpt lat="42.86718" lon="0.2206">
        <ele>2518.7</ele>
        <time>2022-02-09T12:41:42Z</time>
      </trkpt>
      <trkpt lat="42.86718" lon="0.2206">
        <ele>2518.7</ele>
        <time>2022-02-09T12:41:43Z</time>
      </trkpt>
      <trkpt lat="42.86718" lon="0.2206">
        <ele>2518.7</ele>
        <time>2022-02-09T12:41:44Z</time>
      </trkpt>
      <trkpt lat="42.86718" lon="0.2206">
        <ele>2518.7</ele>
        <time>2022-02-09T12:41:45Z</time>
      </trkpt>
      <trkpt lat="42.86718" lon="0.2206">
        <ele>2518.7</ele>
        <time>2022-02-09T12:41:46Z</time>
      </trkpt>
      <trkpt lat="42.86718" lon="0.2206">
        <ele>2518.7</ele>
        <time>2022-02-09T12:41:47Z</time>
      </trkpt>
      <trkpt lat="42.86718" lon="0.2206">
        <ele>2518.7</ele>
        <time>2022-02-09T12:41:48Z</time>
      </trkpt>
      <trkpt lat="42.86718" lon="0.2206">
        <ele>2518.7</ele>
        <time>2022-02-09T12:41:49Z</time>
      </trkpt>
      <trkpt lat="42.86718" lon="0.2206">
        <ele>2518.7</ele>
        <time>2022-02-09T12:41:50Z</time>
      </trkpt>
      <trkpt lat="42.86718" lon="0.2206">
        <ele>2518.7</ele>
        <time>2022-02-09T12:41:51Z</time>
      </trkpt>
      <trkpt lat="42.86718" lon="0.2206">
        <ele>2518.7</ele>
        <time>2022-02-09T12:41:52Z</time>
      </trkpt>
      <trkpt lat="42.86718" lon="0.2206">
        <ele>2518.7</ele>
        <time>2022-02-09T12:41:53Z</time>
      </trkpt>
      <trkpt lat="42.86718" lon="0.2206">
        <ele>2518.7</ele>
        <time>2022-02-09T12:41:54Z</time>
      </trkpt>
      <trkpt lat="42.86718" lon="0.2206">
        <ele>2518.7</ele>
        <time>2022-02-09T12:41:55Z</time>
      </trkpt>
      <trkpt lat="42.86718" lon="0.2206">
        <ele>2518.7</ele>
        <time>2022-02-09T12:41:56Z</time>
      </trkpt>
      <trkpt lat="42.86718" lon="0.2206">
        <ele>2518.7</ele>
        <time>2022-02-09T12:41:57Z</time>
      </trkpt>
      <trkpt lat="42.86718" lon="0.2206">
        <ele>2518.7</ele>
        <time>2022-02-09T12:41:58Z</time>
      </trkpt>
      <trkpt lat="42.86718" lon="0.2206">
        <ele>2518.7</ele>
        <time>2022-02-09T12:41:59Z</time>
      </trkpt>
      <trkpt lat="42.86718" lon="0.2206">
        <ele>2518.7</ele>
        <time>2022-02-09T12:42:00Z</time>
      </trkpt>
      <trkpt lat="42.86718" lon="0.2206">
        <ele>2518.7</ele>
        <time>2022-02-09T12:42:01Z</time>
      </trkpt>
      <trkpt lat="42.86718" lon="0.2206">
        <ele>2518.7</ele>
        <time>2022-02-09T12:42:02Z</time>
      </trkpt>
      <trkpt lat="42.86718" lon="0.2206">
        <ele>2518.7</ele>
        <time>2022-02-09T12:42:03Z</time>
      </trkpt>
      <trkpt lat="42.86718" lon="0.2206">
        <ele>2518.7</ele>
        <time>2022-02-09T12:42:04Z</time>
      </trkpt>
      <trkpt lat="42.86718" lon="0.2206">
        <ele>2518.7</ele>
        <time>2022-02-09T12:42:05Z</time>
      </trkpt>
      <trkpt lat="42.86718" lon="0.2206">
        <ele>2518.7</ele>
        <time>2022-02-09T12:42:06Z</time>
      </trkpt>
      <trkpt lat="42.86718" lon="0.2206">
        <ele>2518.7</ele>
        <time>2022-02-09T12:42:07Z</time>
      </trkpt>
      <trkpt lat="42.86718" lon="0.2206">
        <ele>2518.7</ele>
        <time>2022-02-09T12:42:08Z</time>
      </trkpt>
      <trkpt lat="42.86718" lon="0.2206">
        <ele>2518.7</ele>
        <time>2022-02-09T12:42:09Z</time>
      </trkpt>
      <trkpt lat="42.86718" lon="0.2206">
        <ele>2518.7</ele>
        <time>2022-02-09T12:42:10Z</time>
      </trkpt>
      <trkpt lat="42.86718" lon="0.2206">
        <ele>2518.8</ele>
        <time>2022-02-09T12:42:11Z</time>
      </trkpt>
      <trkpt lat="42.86718" lon="0.22061">
        <ele>2518.8</ele>
        <time>2022-02-09T12:42:12Z</time>
      </trkpt>
      <trkpt lat="42.86718" lon="0.22061">
        <ele>2518.8</ele>
        <time>2022-02-09T12:42:13Z</time>
      </trkpt>
      <trkpt lat="42.86717" lon="0.22061">
        <ele>2518.8</ele>
        <time>2022-02-09T12:42:14Z</time>
      </trkpt>
      <trkpt lat="42.86717" lon="0.2206">
        <ele>2518.8</ele>
        <time>2022-02-09T12:42:15Z</time>
      </trkpt>
      <trkpt lat="42.86717" lon="0.2206">
        <ele>2518.9</ele>
        <time>2022-02-09T12:42:16Z</time>
      </trkpt>
      <trkpt lat="42.86717" lon="0.2206">
        <ele>2518.9</ele>
        <time>2022-02-09T12:42:17Z</time>
      </trkpt>
      <trkpt lat="42.86717" lon="0.2206">
        <ele>2518.9</ele>
        <time>2022-02-09T12:42:18Z</time>
      </trkpt>
      <trkpt lat="42.86717" lon="0.2206">
        <ele>2518.9</ele>
        <time>2022-02-09T12:42:19Z</time>
      </trkpt>
      <trkpt lat="42.86717" lon="0.2206">
        <ele>2518.9</ele>
        <time>2022-02-09T12:42:20Z</time>
      </trkpt>
      <trkpt lat="42.86717" lon="0.2206">
        <ele>2518.9</ele>
        <time>2022-02-09T12:42:21Z</time>
      </trkpt>
      <trkpt lat="42.86717" lon="0.2206">
        <ele>2518.9</ele>
        <time>2022-02-09T12:42:22Z</time>
      </trkpt>
      <trkpt lat="42.86717" lon="0.2206">
        <ele>2518.9</ele>
        <time>2022-02-09T12:42:23Z</time>
      </trkpt>
      <trkpt lat="42.86717" lon="0.2206">
        <ele>2518.9</ele>
        <time>2022-02-09T12:42:24Z</time>
      </trkpt>
      <trkpt lat="42.86717" lon="0.2206">
        <ele>2518.9</ele>
        <time>2022-02-09T12:42:25Z</time>
      </trkpt>
      <trkpt lat="42.86717" lon="0.2206">
        <ele>2518.9</ele>
        <time>2022-02-09T12:42:26Z</time>
      </trkpt>
      <trkpt lat="42.86717" lon="0.2206">
        <ele>2518.9</ele>
        <time>2022-02-09T12:42:27Z</time>
      </trkpt>
      <trkpt lat="42.86717" lon="0.2206">
        <ele>2518.9</ele>
        <time>2022-02-09T12:42:28Z</time>
      </trkpt>
      <trkpt lat="42.86717" lon="0.2206">
        <ele>2518.9</ele>
        <time>2022-02-09T12:42:29Z</time>
      </trkpt>
      <trkpt lat="42.86717" lon="0.2206">
        <ele>2518.9</ele>
        <time>2022-02-09T12:42:30Z</time>
      </trkpt>
      <trkpt lat="42.86717" lon="0.2206">
        <ele>2518.9</ele>
        <time>2022-02-09T12:42:31Z</time>
      </trkpt>
      <trkpt lat="42.86717" lon="0.2206">
        <ele>2518.9</ele>
        <time>2022-02-09T12:42:32Z</time>
      </trkpt>
      <trkpt lat="42.86717" lon="0.2206">
        <ele>2518.9</ele>
        <time>2022-02-09T12:42:33Z</time>
      </trkpt>
      <trkpt lat="42.86717" lon="0.2206">
        <ele>2518.9</ele>
        <time>2022-02-09T12:42:34Z</time>
      </trkpt>
      <trkpt lat="42.86717" lon="0.2206">
        <ele>2518.9</ele>
        <time>2022-02-09T12:42:35Z</time>
      </trkpt>
      <trkpt lat="42.86717" lon="0.2206">
        <ele>2518.9</ele>
        <time>2022-02-09T12:42:36Z</time>
      </trkpt>
      <trkpt lat="42.86717" lon="0.2206">
        <ele>2518.9</ele>
        <time>2022-02-09T12:42:37Z</time>
      </trkpt>
      <trkpt lat="42.86717" lon="0.2206">
        <ele>2518.9</ele>
        <time>2022-02-09T12:42:38Z</time>
      </trkpt>
      <trkpt lat="42.86717" lon="0.2206">
        <ele>2518.9</ele>
        <time>2022-02-09T12:42:39Z</time>
      </trkpt>
      <trkpt lat="42.86717" lon="0.2206">
        <ele>2518.9</ele>
        <time>2022-02-09T12:42:40Z</time>
      </trkpt>
      <trkpt lat="42.86717" lon="0.2206">
        <ele>2518.9</ele>
        <time>2022-02-09T12:42:41Z</time>
      </trkpt>
      <trkpt lat="42.86717" lon="0.2206">
        <ele>2518.9</ele>
        <time>2022-02-09T12:42:42Z</time>
      </trkpt>
      <trkpt lat="42.86717" lon="0.2206">
        <ele>2518.9</ele>
        <time>2022-02-09T12:42:43Z</time>
      </trkpt>
      <trkpt lat="42.86717" lon="0.2206">
        <ele>2518.9</ele>
        <time>2022-02-09T12:42:44Z</time>
      </trkpt>
      <trkpt lat="42.86717" lon="0.2206">
        <ele>2518.9</ele>
        <time>2022-02-09T12:42:45Z</time>
      </trkpt>
      <trkpt lat="42.86717" lon="0.2206">
        <ele>2518.9</ele>
        <time>2022-02-09T12:42:46Z</time>
      </trkpt>
      <trkpt lat="42.86717" lon="0.2206">
        <ele>2518.9</ele>
        <time>2022-02-09T12:42:47Z</time>
      </trkpt>
      <trkpt lat="42.86717" lon="0.2206">
        <ele>2518.9</ele>
        <time>2022-02-09T12:42:48Z</time>
      </trkpt>
      <trkpt lat="42.86717" lon="0.2206">
        <ele>2518.9</ele>
        <time>2022-02-09T12:42:49Z</time>
      </trkpt>
      <trkpt lat="42.86717" lon="0.2206">
        <ele>2518.9</ele>
        <time>2022-02-09T12:42:50Z</time>
      </trkpt>
      <trkpt lat="42.86717" lon="0.2206">
        <ele>2518.9</ele>
        <time>2022-02-09T12:42:51Z</time>
      </trkpt>
      <trkpt lat="42.86717" lon="0.2206">
        <ele>2518.9</ele>
        <time>2022-02-09T12:42:52Z</time>
      </trkpt>
      <trkpt lat="42.86717" lon="0.2206">
        <ele>2518.9</ele>
        <time>2022-02-09T12:42:53Z</time>
      </trkpt>
      <trkpt lat="42.86717" lon="0.2206">
        <ele>2518.9</ele>
        <time>2022-02-09T12:42:54Z</time>
      </trkpt>
      <trkpt lat="42.86717" lon="0.2206">
        <ele>2518.9</ele>
        <time>2022-02-09T12:42:55Z</time>
      </trkpt>
      <trkpt lat="42.86717" lon="0.2206">
        <ele>2518.9</ele>
        <time>2022-02-09T12:42:56Z</time>
      </trkpt>
      <trkpt lat="42.86717" lon="0.2206">
        <ele>2518.9</ele>
        <time>2022-02-09T12:42:57Z</time>
      </trkpt>
      <trkpt lat="42.86717" lon="0.2206">
        <ele>2518.9</ele>
        <time>2022-02-09T12:42:58Z</time>
      </trkpt>
      <trkpt lat="42.86717" lon="0.2206">
        <ele>2518.9</ele>
        <time>2022-02-09T12:42:59Z</time>
      </trkpt>
      <trkpt lat="42.86717" lon="0.2206">
        <ele>2518.9</ele>
        <time>2022-02-09T12:43:00Z</time>
      </trkpt>
      <trkpt lat="42.86717" lon="0.2206">
        <ele>2518.9</ele>
        <time>2022-02-09T12:43:01Z</time>
      </trkpt>
      <trkpt lat="42.86717" lon="0.2206">
        <ele>2518.9</ele>
        <time>2022-02-09T12:43:02Z</time>
      </trkpt>
      <trkpt lat="42.86717" lon="0.2206">
        <ele>2518.9</ele>
        <time>2022-02-09T12:43:03Z</time>
      </trkpt>
      <trkpt lat="42.86717" lon="0.2206">
        <ele>2518.9</ele>
        <time>2022-02-09T12:43:04Z</time>
      </trkpt>
      <trkpt lat="42.86717" lon="0.2206">
        <ele>2518.9</ele>
        <time>2022-02-09T12:43:05Z</time>
      </trkpt>
      <trkpt lat="42.86717" lon="0.2206">
        <ele>2518.9</ele>
        <time>2022-02-09T12:43:06Z</time>
      </trkpt>
      <trkpt lat="42.86717" lon="0.2206">
        <ele>2518.9</ele>
        <time>2022-02-09T12:43:07Z</time>
      </trkpt>
      <trkpt lat="42.86717" lon="0.2206">
        <ele>2518.9</ele>
        <time>2022-02-09T12:43:08Z</time>
      </trkpt>
      <trkpt lat="42.86717" lon="0.2206">
        <ele>2518.9</ele>
        <time>2022-02-09T12:43:09Z</time>
      </trkpt>
      <trkpt lat="42.86717" lon="0.2206">
        <ele>2518.9</ele>
        <time>2022-02-09T12:43:10Z</time>
      </trkpt>
      <trkpt lat="42.86717" lon="0.2206">
        <ele>2518.9</ele>
        <time>2022-02-09T12:43:11Z</time>
      </trkpt>
      <trkpt lat="42.86717" lon="0.2206">
        <ele>2518.9</ele>
        <time>2022-02-09T12:43:12Z</time>
      </trkpt>
      <trkpt lat="42.86717" lon="0.2206">
        <ele>2518.9</ele>
        <time>2022-02-09T12:43:13Z</time>
      </trkpt>
      <trkpt lat="42.86717" lon="0.2206">
        <ele>2518.9</ele>
        <time>2022-02-09T12:43:14Z</time>
      </trkpt>
      <trkpt lat="42.86717" lon="0.2206">
        <ele>2518.9</ele>
        <time>2022-02-09T12:43:15Z</time>
      </trkpt>
      <trkpt lat="42.86717" lon="0.2206">
        <ele>2518.9</ele>
        <time>2022-02-09T12:43:16Z</time>
      </trkpt>
      <trkpt lat="42.86717" lon="0.2206">
        <ele>2518.9</ele>
        <time>2022-02-09T12:43:17Z</time>
      </trkpt>
      <trkpt lat="42.86717" lon="0.2206">
        <ele>2518.9</ele>
        <time>2022-02-09T12:43:18Z</time>
      </trkpt>
      <trkpt lat="42.86717" lon="0.2206">
        <ele>2518.9</ele>
        <time>2022-02-09T12:43:19Z</time>
      </trkpt>
      <trkpt lat="42.86717" lon="0.2206">
        <ele>2518.9</ele>
        <time>2022-02-09T12:43:20Z</time>
      </trkpt>
      <trkpt lat="42.86717" lon="0.2206">
        <ele>2518.9</ele>
        <time>2022-02-09T12:43:21Z</time>
      </trkpt>
      <trkpt lat="42.86717" lon="0.2206">
        <ele>2518.9</ele>
        <time>2022-02-09T12:43:22Z</time>
      </trkpt>
      <trkpt lat="42.86717" lon="0.2206">
        <ele>2518.9</ele>
        <time>2022-02-09T12:43:23Z</time>
      </trkpt>
      <trkpt lat="42.86717" lon="0.2206">
        <ele>2518.9</ele>
        <time>2022-02-09T12:43:24Z</time>
      </trkpt>
      <trkpt lat="42.86717" lon="0.2206">
        <ele>2518.9</ele>
        <time>2022-02-09T12:43:25Z</time>
      </trkpt>
      <trkpt lat="42.86717" lon="0.2206">
        <ele>2518.9</ele>
        <time>2022-02-09T12:43:26Z</time>
      </trkpt>
      <trkpt lat="42.86717" lon="0.2206">
        <ele>2518.9</ele>
        <time>2022-02-09T12:43:27Z</time>
      </trkpt>
      <trkpt lat="42.86717" lon="0.2206">
        <ele>2518.9</ele>
        <time>2022-02-09T12:43:28Z</time>
      </trkpt>
      <trkpt lat="42.86717" lon="0.2206">
        <ele>2518.9</ele>
        <time>2022-02-09T12:43:29Z</time>
      </trkpt>
      <trkpt lat="42.86717" lon="0.2206">
        <ele>2518.9</ele>
        <time>2022-02-09T12:43:30Z</time>
      </trkpt>
      <trkpt lat="42.86717" lon="0.2206">
        <ele>2518.9</ele>
        <time>2022-02-09T12:43:31Z</time>
      </trkpt>
      <trkpt lat="42.86717" lon="0.2206">
        <ele>2518.9</ele>
        <time>2022-02-09T12:43:32Z</time>
      </trkpt>
      <trkpt lat="42.86717" lon="0.2206">
        <ele>2518.9</ele>
        <time>2022-02-09T12:43:33Z</time>
      </trkpt>
      <trkpt lat="42.86717" lon="0.2206">
        <ele>2518.9</ele>
        <time>2022-02-09T12:43:34Z</time>
      </trkpt>
      <trkpt lat="42.86717" lon="0.2206">
        <ele>2518.9</ele>
        <time>2022-02-09T12:43:35Z</time>
      </trkpt>
      <trkpt lat="42.86717" lon="0.2206">
        <ele>2518.9</ele>
        <time>2022-02-09T12:43:36Z</time>
      </trkpt>
      <trkpt lat="42.86717" lon="0.2206">
        <ele>2518.9</ele>
        <time>2022-02-09T12:43:37Z</time>
      </trkpt>
      <trkpt lat="42.86717" lon="0.2206">
        <ele>2518.9</ele>
        <time>2022-02-09T12:43:38Z</time>
      </trkpt>
      <trkpt lat="42.86717" lon="0.2206">
        <ele>2518.9</ele>
        <time>2022-02-09T12:43:39Z</time>
      </trkpt>
      <trkpt lat="42.86717" lon="0.2206">
        <ele>2518.9</ele>
        <time>2022-02-09T12:43:40Z</time>
      </trkpt>
      <trkpt lat="42.86717" lon="0.2206">
        <ele>2518.9</ele>
        <time>2022-02-09T12:43:41Z</time>
      </trkpt>
      <trkpt lat="42.86717" lon="0.2206">
        <ele>2518.9</ele>
        <time>2022-02-09T12:43:42Z</time>
      </trkpt>
      <trkpt lat="42.86717" lon="0.2206">
        <ele>2518.9</ele>
        <time>2022-02-09T12:43:43Z</time>
      </trkpt>
      <trkpt lat="42.86717" lon="0.2206">
        <ele>2518.9</ele>
        <time>2022-02-09T12:43:44Z</time>
      </trkpt>
      <trkpt lat="42.86717" lon="0.2206">
        <ele>2518.9</ele>
        <time>2022-02-09T12:43:45Z</time>
      </trkpt>
      <trkpt lat="42.86717" lon="0.2206">
        <ele>2518.9</ele>
        <time>2022-02-09T12:43:46Z</time>
      </trkpt>
      <trkpt lat="42.86717" lon="0.2206">
        <ele>2518.9</ele>
        <time>2022-02-09T12:43:47Z</time>
      </trkpt>
      <trkpt lat="42.86717" lon="0.2206">
        <ele>2518.9</ele>
        <time>2022-02-09T12:43:48Z</time>
      </trkpt>
      <trkpt lat="42.86717" lon="0.2206">
        <ele>2518.9</ele>
        <time>2022-02-09T12:43:49Z</time>
      </trkpt>
      <trkpt lat="42.86717" lon="0.2206">
        <ele>2518.9</ele>
        <time>2022-02-09T12:43:50Z</time>
      </trkpt>
      <trkpt lat="42.86717" lon="0.2206">
        <ele>2518.9</ele>
        <time>2022-02-09T12:43:51Z</time>
      </trkpt>
      <trkpt lat="42.86717" lon="0.2206">
        <ele>2518.9</ele>
        <time>2022-02-09T12:43:52Z</time>
      </trkpt>
      <trkpt lat="42.86717" lon="0.2206">
        <ele>2518.8</ele>
        <time>2022-02-09T12:43:53Z</time>
      </trkpt>
      <trkpt lat="42.86717" lon="0.2206">
        <ele>2518.8</ele>
        <time>2022-02-09T12:43:54Z</time>
      </trkpt>
      <trkpt lat="42.86717" lon="0.2206">
        <ele>2518.8</ele>
        <time>2022-02-09T12:43:55Z</time>
      </trkpt>
      <trkpt lat="42.86717" lon="0.2206">
        <ele>2518.8</ele>
        <time>2022-02-09T12:43:56Z</time>
      </trkpt>
      <trkpt lat="42.86717" lon="0.2206">
        <ele>2518.8</ele>
        <time>2022-02-09T12:43:57Z</time>
      </trkpt>
      <trkpt lat="42.86717" lon="0.2206">
        <ele>2518.8</ele>
        <time>2022-02-09T12:43:58Z</time>
      </trkpt>
      <trkpt lat="42.86717" lon="0.2206">
        <ele>2518.8</ele>
        <time>2022-02-09T12:43:59Z</time>
      </trkpt>
      <trkpt lat="42.86717" lon="0.2206">
        <ele>2518.8</ele>
        <time>2022-02-09T12:44:00Z</time>
      </trkpt>
      <trkpt lat="42.86717" lon="0.2206">
        <ele>2518.8</ele>
        <time>2022-02-09T12:44:01Z</time>
      </trkpt>
      <trkpt lat="42.86717" lon="0.2206">
        <ele>2518.8</ele>
        <time>2022-02-09T12:44:02Z</time>
      </trkpt>
      <trkpt lat="42.86717" lon="0.2206">
        <ele>2518.8</ele>
        <time>2022-02-09T12:44:03Z</time>
      </trkpt>
      <trkpt lat="42.86717" lon="0.2206">
        <ele>2518.8</ele>
        <time>2022-02-09T12:44:04Z</time>
      </trkpt>
      <trkpt lat="42.86717" lon="0.2206">
        <ele>2518.7</ele>
        <time>2022-02-09T12:44:05Z</time>
      </trkpt>
      <trkpt lat="42.86717" lon="0.2206">
        <ele>2518.7</ele>
        <time>2022-02-09T12:44:06Z</time>
      </trkpt>
      <trkpt lat="42.86717" lon="0.2206">
        <ele>2518.7</ele>
        <time>2022-02-09T12:44:07Z</time>
      </trkpt>
      <trkpt lat="42.86717" lon="0.2206">
        <ele>2518.7</ele>
        <time>2022-02-09T12:44:08Z</time>
      </trkpt>
      <trkpt lat="42.86717" lon="0.2206">
        <ele>2518.7</ele>
        <time>2022-02-09T12:44:09Z</time>
      </trkpt>
      <trkpt lat="42.86717" lon="0.2206">
        <ele>2518.7</ele>
        <time>2022-02-09T12:44:10Z</time>
      </trkpt>
      <trkpt lat="42.86717" lon="0.2206">
        <ele>2518.7</ele>
        <time>2022-02-09T12:44:11Z</time>
      </trkpt>
      <trkpt lat="42.86717" lon="0.2206">
        <ele>2518.7</ele>
        <time>2022-02-09T12:44:12Z</time>
      </trkpt>
      <trkpt lat="42.86717" lon="0.2206">
        <ele>2518.7</ele>
        <time>2022-02-09T12:44:13Z</time>
      </trkpt>
      <trkpt lat="42.86717" lon="0.2206">
        <ele>2518.7</ele>
        <time>2022-02-09T12:44:14Z</time>
      </trkpt>
      <trkpt lat="42.86717" lon="0.2206">
        <ele>2518.7</ele>
        <time>2022-02-09T12:44:15Z</time>
      </trkpt>
      <trkpt lat="42.86717" lon="0.2206">
        <ele>2518.7</ele>
        <time>2022-02-09T12:44:16Z</time>
      </trkpt>
      <trkpt lat="42.86717" lon="0.2206">
        <ele>2518.7</ele>
        <time>2022-02-09T12:44:17Z</time>
      </trkpt>
      <trkpt lat="42.86717" lon="0.2206">
        <ele>2518.6</ele>
        <time>2022-02-09T12:44:18Z</time>
      </trkpt>
      <trkpt lat="42.86717" lon="0.2206">
        <ele>2518.6</ele>
        <time>2022-02-09T12:44:19Z</time>
      </trkpt>
      <trkpt lat="42.86717" lon="0.2206">
        <ele>2518.6</ele>
        <time>2022-02-09T12:44:20Z</time>
      </trkpt>
      <trkpt lat="42.86717" lon="0.2206">
        <ele>2518.6</ele>
        <time>2022-02-09T12:44:21Z</time>
      </trkpt>
      <trkpt lat="42.86717" lon="0.2206">
        <ele>2518.6</ele>
        <time>2022-02-09T12:44:22Z</time>
      </trkpt>
      <trkpt lat="42.86717" lon="0.2206">
        <ele>2518.6</ele>
        <time>2022-02-09T12:44:23Z</time>
      </trkpt>
      <trkpt lat="42.86717" lon="0.2206">
        <ele>2518.6</ele>
        <time>2022-02-09T12:44:24Z</time>
      </trkpt>
      <trkpt lat="42.86717" lon="0.2206">
        <ele>2518.6</ele>
        <time>2022-02-09T12:44:25Z</time>
      </trkpt>
      <trkpt lat="42.86717" lon="0.2206">
        <ele>2518.6</ele>
        <time>2022-02-09T12:44:26Z</time>
      </trkpt>
      <trkpt lat="42.86717" lon="0.2206">
        <ele>2518.6</ele>
        <time>2022-02-09T12:44:27Z</time>
      </trkpt>
      <trkpt lat="42.86717" lon="0.2206">
        <ele>2518.6</ele>
        <time>2022-02-09T12:44:28Z</time>
      </trkpt>
      <trkpt lat="42.86717" lon="0.2206">
        <ele>2518.6</ele>
        <time>2022-02-09T12:44:29Z</time>
      </trkpt>
      <trkpt lat="42.86717" lon="0.2206">
        <ele>2518.5</ele>
        <time>2022-02-09T12:44:30Z</time>
      </trkpt>
      <trkpt lat="42.86717" lon="0.2206">
        <ele>2518.5</ele>
        <time>2022-02-09T12:44:31Z</time>
      </trkpt>
      <trkpt lat="42.86717" lon="0.2206">
        <ele>2518.5</ele>
        <time>2022-02-09T12:44:32Z</time>
      </trkpt>
      <trkpt lat="42.86717" lon="0.2206">
        <ele>2518.5</ele>
        <time>2022-02-09T12:44:33Z</time>
      </trkpt>
      <trkpt lat="42.86717" lon="0.2206">
        <ele>2518.5</ele>
        <time>2022-02-09T12:44:34Z</time>
      </trkpt>
      <trkpt lat="42.86717" lon="0.2206">
        <ele>2518.5</ele>
        <time>2022-02-09T12:44:35Z</time>
      </trkpt>
      <trkpt lat="42.86717" lon="0.2206">
        <ele>2518.5</ele>
        <time>2022-02-09T12:44:36Z</time>
      </trkpt>
      <trkpt lat="42.86717" lon="0.2206">
        <ele>2518.5</ele>
        <time>2022-02-09T12:44:37Z</time>
      </trkpt>
      <trkpt lat="42.86717" lon="0.2206">
        <ele>2518.5</ele>
        <time>2022-02-09T12:44:38Z</time>
      </trkpt>
      <trkpt lat="42.86717" lon="0.2206">
        <ele>2518.5</ele>
        <time>2022-02-09T12:44:39Z</time>
      </trkpt>
      <trkpt lat="42.86717" lon="0.2206">
        <ele>2518.5</ele>
        <time>2022-02-09T12:44:40Z</time>
      </trkpt>
      <trkpt lat="42.86717" lon="0.2206">
        <ele>2518.5</ele>
        <time>2022-02-09T12:44:41Z</time>
      </trkpt>
      <trkpt lat="42.86717" lon="0.2206">
        <ele>2518.5</ele>
        <time>2022-02-09T12:44:42Z</time>
      </trkpt>
      <trkpt lat="42.86717" lon="0.2206">
        <ele>2518.4</ele>
        <time>2022-02-09T12:44:43Z</time>
      </trkpt>
      <trkpt lat="42.86717" lon="0.2206">
        <ele>2518.4</ele>
        <time>2022-02-09T12:44:44Z</time>
      </trkpt>
      <trkpt lat="42.86717" lon="0.2206">
        <ele>2518.4</ele>
        <time>2022-02-09T12:44:45Z</time>
      </trkpt>
      <trkpt lat="42.86717" lon="0.2206">
        <ele>2518.4</ele>
        <time>2022-02-09T12:44:46Z</time>
      </trkpt>
      <trkpt lat="42.86717" lon="0.2206">
        <ele>2518.4</ele>
        <time>2022-02-09T12:44:47Z</time>
      </trkpt>
      <trkpt lat="42.86717" lon="0.2206">
        <ele>2518.4</ele>
        <time>2022-02-09T12:44:48Z</time>
      </trkpt>
      <trkpt lat="42.86717" lon="0.2206">
        <ele>2518.4</ele>
        <time>2022-02-09T12:44:49Z</time>
      </trkpt>
      <trkpt lat="42.86717" lon="0.2206">
        <ele>2518.4</ele>
        <time>2022-02-09T12:44:50Z</time>
      </trkpt>
      <trkpt lat="42.86717" lon="0.2206">
        <ele>2518.4</ele>
        <time>2022-02-09T12:44:51Z</time>
      </trkpt>
      <trkpt lat="42.86717" lon="0.2206">
        <ele>2518.4</ele>
        <time>2022-02-09T12:44:52Z</time>
      </trkpt>
      <trkpt lat="42.86717" lon="0.2206">
        <ele>2518.4</ele>
        <time>2022-02-09T12:44:53Z</time>
      </trkpt>
      <trkpt lat="42.86717" lon="0.2206">
        <ele>2518.4</ele>
        <time>2022-02-09T12:44:54Z</time>
      </trkpt>
      <trkpt lat="42.86717" lon="0.2206">
        <ele>2518.3</ele>
        <time>2022-02-09T12:44:55Z</time>
      </trkpt>
      <trkpt lat="42.86717" lon="0.2206">
        <ele>2518.3</ele>
        <time>2022-02-09T12:44:56Z</time>
      </trkpt>
      <trkpt lat="42.86717" lon="0.2206">
        <ele>2518.3</ele>
        <time>2022-02-09T12:44:57Z</time>
      </trkpt>
      <trkpt lat="42.86717" lon="0.2206">
        <ele>2518.3</ele>
        <time>2022-02-09T12:44:58Z</time>
      </trkpt>
      <trkpt lat="42.86717" lon="0.2206">
        <ele>2518.3</ele>
        <time>2022-02-09T12:44:59Z</time>
      </trkpt>
      <trkpt lat="42.86717" lon="0.2206">
        <ele>2518.3</ele>
        <time>2022-02-09T12:45:00Z</time>
      </trkpt>
      <trkpt lat="42.86717" lon="0.2206">
        <ele>2518.3</ele>
        <time>2022-02-09T12:45:01Z</time>
      </trkpt>
      <trkpt lat="42.86717" lon="0.2206">
        <ele>2518.3</ele>
        <time>2022-02-09T12:45:02Z</time>
      </trkpt>
      <trkpt lat="42.86717" lon="0.2206">
        <ele>2518.3</ele>
        <time>2022-02-09T12:45:03Z</time>
      </trkpt>
      <trkpt lat="42.86717" lon="0.2206">
        <ele>2518.3</ele>
        <time>2022-02-09T12:45:04Z</time>
      </trkpt>
      <trkpt lat="42.86717" lon="0.2206">
        <ele>2518.3</ele>
        <time>2022-02-09T12:45:05Z</time>
      </trkpt>
      <trkpt lat="42.86718" lon="0.22059">
        <ele>2518.2</ele>
        <time>2022-02-09T12:45:06Z</time>
      </trkpt>
      <trkpt lat="42.86718" lon="0.22058">
        <ele>2518</ele>
        <time>2022-02-09T12:45:07Z</time>
      </trkpt>
      <trkpt lat="42.86718" lon="0.22058">
        <ele>2518</ele>
        <time>2022-02-09T12:45:08Z</time>
      </trkpt>
      <trkpt lat="42.86719" lon="0.22058">
        <ele>2518</ele>
        <time>2022-02-09T12:45:09Z</time>
      </trkpt>
      <trkpt lat="42.86719" lon="0.22058">
        <ele>2518</ele>
        <time>2022-02-09T12:45:10Z</time>
      </trkpt>
      <trkpt lat="42.86719" lon="0.22058">
        <ele>2518</ele>
        <time>2022-02-09T12:45:11Z</time>
      </trkpt>
      <trkpt lat="42.86719" lon="0.22057">
        <ele>2517.9</ele>
        <time>2022-02-09T12:45:12Z</time>
      </trkpt>
      <trkpt lat="42.86719" lon="0.22056">
        <ele>2517.8</ele>
        <time>2022-02-09T12:45:13Z</time>
      </trkpt>
      <trkpt lat="42.86719" lon="0.22055">
        <ele>2517.7</ele>
        <time>2022-02-09T12:45:14Z</time>
      </trkpt>
      <trkpt lat="42.86719" lon="0.22055">
        <ele>2517.6</ele>
        <time>2022-02-09T12:45:15Z</time>
      </trkpt>
      <trkpt lat="42.86719" lon="0.22054">
        <ele>2517.6</ele>
        <time>2022-02-09T12:45:16Z</time>
      </trkpt>
      <trkpt lat="42.86719" lon="0.22054">
        <ele>2517.5</ele>
        <time>2022-02-09T12:45:17Z</time>
      </trkpt>
      <trkpt lat="42.86719" lon="0.22054">
        <ele>2517.4</ele>
        <time>2022-02-09T12:45:18Z</time>
      </trkpt>
      <trkpt lat="42.86719" lon="0.22054">
        <ele>2517.4</ele>
        <time>2022-02-09T12:45:19Z</time>
      </trkpt>
      <trkpt lat="42.86719" lon="0.22054">
        <ele>2517.4</ele>
        <time>2022-02-09T12:45:20Z</time>
      </trkpt>
      <trkpt lat="42.86719" lon="0.22054">
        <ele>2517.4</ele>
        <time>2022-02-09T12:45:21Z</time>
      </trkpt>
      <trkpt lat="42.86719" lon="0.22054">
        <ele>2517.4</ele>
        <time>2022-02-09T12:45:22Z</time>
      </trkpt>
      <trkpt lat="42.86719" lon="0.22054">
        <ele>2517.4</ele>
        <time>2022-02-09T12:45:23Z</time>
      </trkpt>
      <trkpt lat="42.86719" lon="0.22054">
        <ele>2517.3</ele>
        <time>2022-02-09T12:45:24Z</time>
      </trkpt>
      <trkpt lat="42.86719" lon="0.22054">
        <ele>2517.3</ele>
        <time>2022-02-09T12:45:25Z</time>
      </trkpt>
      <trkpt lat="42.86719" lon="0.22054">
        <ele>2517.3</ele>
        <time>2022-02-09T12:45:26Z</time>
      </trkpt>
      <trkpt lat="42.8672" lon="0.22054">
        <ele>2517.2</ele>
        <time>2022-02-09T12:45:27Z</time>
      </trkpt>
      <trkpt lat="42.8672" lon="0.22054">
        <ele>2517.2</ele>
        <time>2022-02-09T12:45:28Z</time>
      </trkpt>
      <trkpt lat="42.8672" lon="0.22054">
        <ele>2517.2</ele>
        <time>2022-02-09T12:45:29Z</time>
      </trkpt>
      <trkpt lat="42.8672" lon="0.22054">
        <ele>2517.2</ele>
        <time>2022-02-09T12:45:30Z</time>
      </trkpt>
      <trkpt lat="42.8672" lon="0.22054">
        <ele>2517.2</ele>
        <time>2022-02-09T12:45:31Z</time>
      </trkpt>
      <trkpt lat="42.8672" lon="0.22054">
        <ele>2517.2</ele>
        <time>2022-02-09T12:45:32Z</time>
      </trkpt>
      <trkpt lat="42.8672" lon="0.22054">
        <ele>2517.2</ele>
        <time>2022-02-09T12:45:33Z</time>
      </trkpt>
      <trkpt lat="42.8672" lon="0.22054">
        <ele>2517.2</ele>
        <time>2022-02-09T12:45:34Z</time>
      </trkpt>
      <trkpt lat="42.8672" lon="0.22054">
        <ele>2517.2</ele>
        <time>2022-02-09T12:45:35Z</time>
      </trkpt>
      <trkpt lat="42.8672" lon="0.22054">
        <ele>2517.2</ele>
        <time>2022-02-09T12:45:36Z</time>
      </trkpt>
      <trkpt lat="42.8672" lon="0.22054">
        <ele>2517.2</ele>
        <time>2022-02-09T12:45:37Z</time>
      </trkpt>
      <trkpt lat="42.8672" lon="0.22054">
        <ele>2517.2</ele>
        <time>2022-02-09T12:45:38Z</time>
      </trkpt>
      <trkpt lat="42.8672" lon="0.22054">
        <ele>2517.2</ele>
        <time>2022-02-09T12:45:39Z</time>
      </trkpt>
      <trkpt lat="42.8672" lon="0.22054">
        <ele>2517.2</ele>
        <time>2022-02-09T12:45:40Z</time>
      </trkpt>
      <trkpt lat="42.8672" lon="0.22054">
        <ele>2517.2</ele>
        <time>2022-02-09T12:45:41Z</time>
      </trkpt>
      <trkpt lat="42.8672" lon="0.22054">
        <ele>2517.2</ele>
        <time>2022-02-09T12:45:42Z</time>
      </trkpt>
      <trkpt lat="42.8672" lon="0.22054">
        <ele>2517.2</ele>
        <time>2022-02-09T12:45:43Z</time>
      </trkpt>
      <trkpt lat="42.8672" lon="0.22054">
        <ele>2517.2</ele>
        <time>2022-02-09T12:45:44Z</time>
      </trkpt>
      <trkpt lat="42.8672" lon="0.22054">
        <ele>2517.2</ele>
        <time>2022-02-09T12:45:45Z</time>
      </trkpt>
      <trkpt lat="42.8672" lon="0.22054">
        <ele>2517.2</ele>
        <time>2022-02-09T12:45:46Z</time>
      </trkpt>
      <trkpt lat="42.8672" lon="0.22054">
        <ele>2517.2</ele>
        <time>2022-02-09T12:45:47Z</time>
      </trkpt>
      <trkpt lat="42.8672" lon="0.22054">
        <ele>2517.2</ele>
        <time>2022-02-09T12:45:48Z</time>
      </trkpt>
      <trkpt lat="42.8672" lon="0.22054">
        <ele>2517.2</ele>
        <time>2022-02-09T12:45:49Z</time>
      </trkpt>
      <trkpt lat="42.8672" lon="0.22054">
        <ele>2517.2</ele>
        <time>2022-02-09T12:45:50Z</time>
      </trkpt>
      <trkpt lat="42.8672" lon="0.22054">
        <ele>2517.2</ele>
        <time>2022-02-09T12:45:51Z</time>
      </trkpt>
      <trkpt lat="42.8672" lon="0.22054">
        <ele>2517.2</ele>
        <time>2022-02-09T12:45:52Z</time>
      </trkpt>
      <trkpt lat="42.8672" lon="0.22054">
        <ele>2517.2</ele>
        <time>2022-02-09T12:45:53Z</time>
      </trkpt>
      <trkpt lat="42.8672" lon="0.22054">
        <ele>2517.2</ele>
        <time>2022-02-09T12:45:54Z</time>
      </trkpt>
      <trkpt lat="42.8672" lon="0.22054">
        <ele>2517.2</ele>
        <time>2022-02-09T12:45:55Z</time>
      </trkpt>
      <trkpt lat="42.8672" lon="0.22054">
        <ele>2517.2</ele>
        <time>2022-02-09T12:45:56Z</time>
      </trkpt>
      <trkpt lat="42.8672" lon="0.22054">
        <ele>2517.2</ele>
        <time>2022-02-09T12:45:57Z</time>
      </trkpt>
      <trkpt lat="42.8672" lon="0.22054">
        <ele>2517.2</ele>
        <time>2022-02-09T12:45:58Z</time>
      </trkpt>
      <trkpt lat="42.8672" lon="0.22054">
        <ele>2517.2</ele>
        <time>2022-02-09T12:45:59Z</time>
      </trkpt>
      <trkpt lat="42.8672" lon="0.22054">
        <ele>2517.2</ele>
        <time>2022-02-09T12:46:00Z</time>
      </trkpt>
      <trkpt lat="42.8672" lon="0.22054">
        <ele>2517.2</ele>
        <time>2022-02-09T12:46:01Z</time>
      </trkpt>
      <trkpt lat="42.8672" lon="0.22054">
        <ele>2517.2</ele>
        <time>2022-02-09T12:46:02Z</time>
      </trkpt>
      <trkpt lat="42.8672" lon="0.22054">
        <ele>2517.2</ele>
        <time>2022-02-09T12:46:03Z</time>
      </trkpt>
      <trkpt lat="42.8672" lon="0.22054">
        <ele>2517.2</ele>
        <time>2022-02-09T12:46:04Z</time>
      </trkpt>
      <trkpt lat="42.8672" lon="0.22054">
        <ele>2517.2</ele>
        <time>2022-02-09T12:46:05Z</time>
      </trkpt>
      <trkpt lat="42.8672" lon="0.22054">
        <ele>2517.2</ele>
        <time>2022-02-09T12:46:06Z</time>
      </trkpt>
      <trkpt lat="42.8672" lon="0.22054">
        <ele>2517.2</ele>
        <time>2022-02-09T12:46:07Z</time>
      </trkpt>
      <trkpt lat="42.8672" lon="0.22054">
        <ele>2517.2</ele>
        <time>2022-02-09T12:46:08Z</time>
      </trkpt>
      <trkpt lat="42.8672" lon="0.22054">
        <ele>2517.2</ele>
        <time>2022-02-09T12:46:09Z</time>
      </trkpt>
      <trkpt lat="42.8672" lon="0.22054">
        <ele>2517.2</ele>
        <time>2022-02-09T12:46:10Z</time>
      </trkpt>
      <trkpt lat="42.8672" lon="0.22054">
        <ele>2517.2</ele>
        <time>2022-02-09T12:46:11Z</time>
      </trkpt>
      <trkpt lat="42.8672" lon="0.22054">
        <ele>2517.2</ele>
        <time>2022-02-09T12:46:12Z</time>
      </trkpt>
      <trkpt lat="42.8672" lon="0.22054">
        <ele>2517.2</ele>
        <time>2022-02-09T12:46:13Z</time>
      </trkpt>
      <trkpt lat="42.8672" lon="0.22054">
        <ele>2517.2</ele>
        <time>2022-02-09T12:46:14Z</time>
      </trkpt>
      <trkpt lat="42.8672" lon="0.22054">
        <ele>2517.2</ele>
        <time>2022-02-09T12:46:15Z</time>
      </trkpt>
      <trkpt lat="42.8672" lon="0.22054">
        <ele>2517.2</ele>
        <time>2022-02-09T12:46:16Z</time>
      </trkpt>
      <trkpt lat="42.8672" lon="0.22054">
        <ele>2517.2</ele>
        <time>2022-02-09T12:46:17Z</time>
      </trkpt>
      <trkpt lat="42.8672" lon="0.22054">
        <ele>2517.2</ele>
        <time>2022-02-09T12:46:18Z</time>
      </trkpt>
      <trkpt lat="42.8672" lon="0.22054">
        <ele>2517.2</ele>
        <time>2022-02-09T12:46:19Z</time>
      </trkpt>
      <trkpt lat="42.8672" lon="0.22054">
        <ele>2517.2</ele>
        <time>2022-02-09T12:46:20Z</time>
      </trkpt>
      <trkpt lat="42.8672" lon="0.22054">
        <ele>2517.2</ele>
        <time>2022-02-09T12:46:21Z</time>
      </trkpt>
      <trkpt lat="42.8672" lon="0.22054">
        <ele>2517.2</ele>
        <time>2022-02-09T12:46:22Z</time>
      </trkpt>
      <trkpt lat="42.8672" lon="0.22054">
        <ele>2517.2</ele>
        <time>2022-02-09T12:46:23Z</time>
      </trkpt>
      <trkpt lat="42.8672" lon="0.22054">
        <ele>2517.2</ele>
        <time>2022-02-09T12:46:24Z</time>
      </trkpt>
      <trkpt lat="42.8672" lon="0.22054">
        <ele>2517.2</ele>
        <time>2022-02-09T12:46:25Z</time>
      </trkpt>
      <trkpt lat="42.8672" lon="0.22054">
        <ele>2517.2</ele>
        <time>2022-02-09T12:46:26Z</time>
      </trkpt>
      <trkpt lat="42.8672" lon="0.22054">
        <ele>2517.2</ele>
        <time>2022-02-09T12:46:27Z</time>
      </trkpt>
      <trkpt lat="42.8672" lon="0.22054">
        <ele>2517.2</ele>
        <time>2022-02-09T12:46:28Z</time>
      </trkpt>
      <trkpt lat="42.8672" lon="0.22054">
        <ele>2517.2</ele>
        <time>2022-02-09T12:46:29Z</time>
      </trkpt>
      <trkpt lat="42.8672" lon="0.22054">
        <ele>2517.2</ele>
        <time>2022-02-09T12:46:30Z</time>
      </trkpt>
      <trkpt lat="42.8672" lon="0.22054">
        <ele>2517.2</ele>
        <time>2022-02-09T12:46:31Z</time>
      </trkpt>
      <trkpt lat="42.8672" lon="0.22054">
        <ele>2517.2</ele>
        <time>2022-02-09T12:46:32Z</time>
      </trkpt>
      <trkpt lat="42.8672" lon="0.22054">
        <ele>2517.2</ele>
        <time>2022-02-09T12:46:33Z</time>
      </trkpt>
      <trkpt lat="42.8672" lon="0.22054">
        <ele>2517.2</ele>
        <time>2022-02-09T12:46:34Z</time>
      </trkpt>
      <trkpt lat="42.8672" lon="0.22054">
        <ele>2517.2</ele>
        <time>2022-02-09T12:46:35Z</time>
      </trkpt>
      <trkpt lat="42.8672" lon="0.22054">
        <ele>2517.2</ele>
        <time>2022-02-09T12:46:36Z</time>
      </trkpt>
      <trkpt lat="42.8672" lon="0.22054">
        <ele>2517.2</ele>
        <time>2022-02-09T12:46:37Z</time>
      </trkpt>
      <trkpt lat="42.8672" lon="0.22054">
        <ele>2517.2</ele>
        <time>2022-02-09T12:46:38Z</time>
      </trkpt>
      <trkpt lat="42.8672" lon="0.22054">
        <ele>2517.2</ele>
        <time>2022-02-09T12:46:39Z</time>
      </trkpt>
      <trkpt lat="42.8672" lon="0.22054">
        <ele>2517.2</ele>
        <time>2022-02-09T12:46:40Z</time>
      </trkpt>
      <trkpt lat="42.8672" lon="0.22054">
        <ele>2517.2</ele>
        <time>2022-02-09T12:46:41Z</time>
      </trkpt>
      <trkpt lat="42.8672" lon="0.22054">
        <ele>2517.2</ele>
        <time>2022-02-09T12:46:42Z</time>
      </trkpt>
      <trkpt lat="42.8672" lon="0.22054">
        <ele>2517.2</ele>
        <time>2022-02-09T12:46:43Z</time>
      </trkpt>
      <trkpt lat="42.8672" lon="0.22054">
        <ele>2517.2</ele>
        <time>2022-02-09T12:46:44Z</time>
      </trkpt>
      <trkpt lat="42.8672" lon="0.22054">
        <ele>2517.2</ele>
        <time>2022-02-09T12:46:45Z</time>
      </trkpt>
      <trkpt lat="42.8672" lon="0.22054">
        <ele>2517.2</ele>
        <time>2022-02-09T12:46:46Z</time>
      </trkpt>
      <trkpt lat="42.8672" lon="0.22054">
        <ele>2517.2</ele>
        <time>2022-02-09T12:46:47Z</time>
      </trkpt>
      <trkpt lat="42.8672" lon="0.22054">
        <ele>2517.2</ele>
        <time>2022-02-09T12:46:48Z</time>
      </trkpt>
      <trkpt lat="42.8672" lon="0.22054">
        <ele>2517.2</ele>
        <time>2022-02-09T12:46:49Z</time>
      </trkpt>
      <trkpt lat="42.8672" lon="0.22054">
        <ele>2517.2</ele>
        <time>2022-02-09T12:46:50Z</time>
      </trkpt>
      <trkpt lat="42.8672" lon="0.22054">
        <ele>2517.2</ele>
        <time>2022-02-09T12:46:51Z</time>
      </trkpt>
      <trkpt lat="42.8672" lon="0.22054">
        <ele>2517.2</ele>
        <time>2022-02-09T12:46:52Z</time>
      </trkpt>
      <trkpt lat="42.8672" lon="0.22054">
        <ele>2517.2</ele>
        <time>2022-02-09T12:46:53Z</time>
      </trkpt>
      <trkpt lat="42.8672" lon="0.22054">
        <ele>2517.2</ele>
        <time>2022-02-09T12:46:54Z</time>
      </trkpt>
      <trkpt lat="42.8672" lon="0.22054">
        <ele>2517.2</ele>
        <time>2022-02-09T12:46:55Z</time>
      </trkpt>
      <trkpt lat="42.8672" lon="0.22054">
        <ele>2517.2</ele>
        <time>2022-02-09T12:46:56Z</time>
      </trkpt>
      <trkpt lat="42.8672" lon="0.22054">
        <ele>2517.2</ele>
        <time>2022-02-09T12:46:57Z</time>
      </trkpt>
      <trkpt lat="42.8672" lon="0.22054">
        <ele>2517.2</ele>
        <time>2022-02-09T12:46:58Z</time>
      </trkpt>
      <trkpt lat="42.8672" lon="0.22054">
        <ele>2517.2</ele>
        <time>2022-02-09T12:46:59Z</time>
      </trkpt>
      <trkpt lat="42.8672" lon="0.22054">
        <ele>2517.2</ele>
        <time>2022-02-09T12:47:00Z</time>
      </trkpt>
      <trkpt lat="42.8672" lon="0.22054">
        <ele>2517.2</ele>
        <time>2022-02-09T12:47:01Z</time>
      </trkpt>
      <trkpt lat="42.8672" lon="0.22054">
        <ele>2517.2</ele>
        <time>2022-02-09T12:47:02Z</time>
      </trkpt>
      <trkpt lat="42.8672" lon="0.22054">
        <ele>2517.2</ele>
        <time>2022-02-09T12:47:03Z</time>
      </trkpt>
      <trkpt lat="42.8672" lon="0.22054">
        <ele>2517.2</ele>
        <time>2022-02-09T12:47:04Z</time>
      </trkpt>
      <trkpt lat="42.8672" lon="0.22054">
        <ele>2517.2</ele>
        <time>2022-02-09T12:47:05Z</time>
      </trkpt>
      <trkpt lat="42.8672" lon="0.22054">
        <ele>2517.2</ele>
        <time>2022-02-09T12:47:06Z</time>
      </trkpt>
      <trkpt lat="42.8672" lon="0.22054">
        <ele>2517.2</ele>
        <time>2022-02-09T12:47:07Z</time>
      </trkpt>
      <trkpt lat="42.8672" lon="0.22054">
        <ele>2517.2</ele>
        <time>2022-02-09T12:47:08Z</time>
      </trkpt>
      <trkpt lat="42.8672" lon="0.22054">
        <ele>2517.2</ele>
        <time>2022-02-09T12:47:09Z</time>
      </trkpt>
      <trkpt lat="42.8672" lon="0.22054">
        <ele>2517.2</ele>
        <time>2022-02-09T12:47:10Z</time>
      </trkpt>
      <trkpt lat="42.8672" lon="0.22054">
        <ele>2517.2</ele>
        <time>2022-02-09T12:47:11Z</time>
      </trkpt>
      <trkpt lat="42.8672" lon="0.22054">
        <ele>2517.2</ele>
        <time>2022-02-09T12:47:12Z</time>
      </trkpt>
      <trkpt lat="42.8672" lon="0.22054">
        <ele>2517.2</ele>
        <time>2022-02-09T12:47:13Z</time>
      </trkpt>
      <trkpt lat="42.8672" lon="0.22054">
        <ele>2517.2</ele>
        <time>2022-02-09T12:47:14Z</time>
      </trkpt>
      <trkpt lat="42.8672" lon="0.22054">
        <ele>2517.2</ele>
        <time>2022-02-09T12:47:15Z</time>
      </trkpt>
      <trkpt lat="42.8672" lon="0.22054">
        <ele>2517.2</ele>
        <time>2022-02-09T12:47:16Z</time>
      </trkpt>
      <trkpt lat="42.8672" lon="0.22054">
        <ele>2517.2</ele>
        <time>2022-02-09T12:47:17Z</time>
      </trkpt>
      <trkpt lat="42.8672" lon="0.22054">
        <ele>2517.2</ele>
        <time>2022-02-09T12:47:18Z</time>
      </trkpt>
      <trkpt lat="42.8672" lon="0.22054">
        <ele>2517.2</ele>
        <time>2022-02-09T12:47:19Z</time>
      </trkpt>
      <trkpt lat="42.8672" lon="0.22054">
        <ele>2517.2</ele>
        <time>2022-02-09T12:47:20Z</time>
      </trkpt>
      <trkpt lat="42.8672" lon="0.22054">
        <ele>2517.2</ele>
        <time>2022-02-09T12:47:21Z</time>
      </trkpt>
      <trkpt lat="42.8672" lon="0.22054">
        <ele>2517.2</ele>
        <time>2022-02-09T12:47:22Z</time>
      </trkpt>
      <trkpt lat="42.8672" lon="0.22054">
        <ele>2517.2</ele>
        <time>2022-02-09T12:47:23Z</time>
      </trkpt>
      <trkpt lat="42.8672" lon="0.22054">
        <ele>2517.2</ele>
        <time>2022-02-09T12:47:24Z</time>
      </trkpt>
      <trkpt lat="42.8672" lon="0.22054">
        <ele>2517.2</ele>
        <time>2022-02-09T12:47:25Z</time>
      </trkpt>
      <trkpt lat="42.8672" lon="0.22054">
        <ele>2517.2</ele>
        <time>2022-02-09T12:47:26Z</time>
      </trkpt>
      <trkpt lat="42.8672" lon="0.22054">
        <ele>2517.2</ele>
        <time>2022-02-09T12:47:27Z</time>
      </trkpt>
      <trkpt lat="42.8672" lon="0.22054">
        <ele>2517.2</ele>
        <time>2022-02-09T12:47:28Z</time>
      </trkpt>
      <trkpt lat="42.8672" lon="0.22054">
        <ele>2517.2</ele>
        <time>2022-02-09T12:47:29Z</time>
      </trkpt>
      <trkpt lat="42.8672" lon="0.22054">
        <ele>2517.2</ele>
        <time>2022-02-09T12:47:30Z</time>
      </trkpt>
      <trkpt lat="42.8672" lon="0.22054">
        <ele>2517.2</ele>
        <time>2022-02-09T12:47:31Z</time>
      </trkpt>
      <trkpt lat="42.8672" lon="0.22054">
        <ele>2517.2</ele>
        <time>2022-02-09T12:47:32Z</time>
      </trkpt>
      <trkpt lat="42.8672" lon="0.22054">
        <ele>2517.2</ele>
        <time>2022-02-09T12:47:33Z</time>
      </trkpt>
      <trkpt lat="42.8672" lon="0.22054">
        <ele>2517.2</ele>
        <time>2022-02-09T12:47:34Z</time>
      </trkpt>
      <trkpt lat="42.8672" lon="0.22054">
        <ele>2517.2</ele>
        <time>2022-02-09T12:47:35Z</time>
      </trkpt>
      <trkpt lat="42.8672" lon="0.22054">
        <ele>2517.2</ele>
        <time>2022-02-09T12:47:36Z</time>
      </trkpt>
      <trkpt lat="42.8672" lon="0.22054">
        <ele>2517.2</ele>
        <time>2022-02-09T12:47:37Z</time>
      </trkpt>
      <trkpt lat="42.8672" lon="0.22054">
        <ele>2517.2</ele>
        <time>2022-02-09T12:47:38Z</time>
      </trkpt>
      <trkpt lat="42.8672" lon="0.22054">
        <ele>2517.2</ele>
        <time>2022-02-09T12:47:39Z</time>
      </trkpt>
      <trkpt lat="42.8672" lon="0.22054">
        <ele>2517.2</ele>
        <time>2022-02-09T12:47:40Z</time>
      </trkpt>
      <trkpt lat="42.8672" lon="0.22054">
        <ele>2517.2</ele>
        <time>2022-02-09T12:47:41Z</time>
      </trkpt>
      <trkpt lat="42.8672" lon="0.22054">
        <ele>2517.2</ele>
        <time>2022-02-09T12:47:42Z</time>
      </trkpt>
      <trkpt lat="42.8672" lon="0.22054">
        <ele>2517.2</ele>
        <time>2022-02-09T12:47:43Z</time>
      </trkpt>
      <trkpt lat="42.8672" lon="0.22054">
        <ele>2517.2</ele>
        <time>2022-02-09T12:47:44Z</time>
      </trkpt>
      <trkpt lat="42.8672" lon="0.22054">
        <ele>2517.2</ele>
        <time>2022-02-09T12:47:45Z</time>
      </trkpt>
      <trkpt lat="42.8672" lon="0.22054">
        <ele>2517.2</ele>
        <time>2022-02-09T12:47:46Z</time>
      </trkpt>
      <trkpt lat="42.8672" lon="0.22054">
        <ele>2517.2</ele>
        <time>2022-02-09T12:47:47Z</time>
      </trkpt>
      <trkpt lat="42.8672" lon="0.22054">
        <ele>2517.2</ele>
        <time>2022-02-09T12:47:48Z</time>
      </trkpt>
      <trkpt lat="42.8672" lon="0.22054">
        <ele>2517.2</ele>
        <time>2022-02-09T12:47:49Z</time>
      </trkpt>
      <trkpt lat="42.8672" lon="0.22054">
        <ele>2517.2</ele>
        <time>2022-02-09T12:47:50Z</time>
      </trkpt>
      <trkpt lat="42.8672" lon="0.22054">
        <ele>2517.2</ele>
        <time>2022-02-09T12:47:51Z</time>
      </trkpt>
      <trkpt lat="42.8672" lon="0.22054">
        <ele>2517.2</ele>
        <time>2022-02-09T12:47:52Z</time>
      </trkpt>
      <trkpt lat="42.8672" lon="0.22054">
        <ele>2517.2</ele>
        <time>2022-02-09T12:47:53Z</time>
      </trkpt>
      <trkpt lat="42.8672" lon="0.22054">
        <ele>2517.2</ele>
        <time>2022-02-09T12:47:54Z</time>
      </trkpt>
      <trkpt lat="42.8672" lon="0.22054">
        <ele>2517.2</ele>
        <time>2022-02-09T12:47:55Z</time>
      </trkpt>
      <trkpt lat="42.8672" lon="0.22054">
        <ele>2517.2</ele>
        <time>2022-02-09T12:47:56Z</time>
      </trkpt>
      <trkpt lat="42.8672" lon="0.22054">
        <ele>2517.2</ele>
        <time>2022-02-09T12:47:57Z</time>
      </trkpt>
      <trkpt lat="42.8672" lon="0.22054">
        <ele>2517.2</ele>
        <time>2022-02-09T12:47:58Z</time>
      </trkpt>
      <trkpt lat="42.8672" lon="0.22054">
        <ele>2517.2</ele>
        <time>2022-02-09T12:47:59Z</time>
      </trkpt>
      <trkpt lat="42.8672" lon="0.22054">
        <ele>2517.2</ele>
        <time>2022-02-09T12:48:00Z</time>
      </trkpt>
      <trkpt lat="42.8672" lon="0.22054">
        <ele>2517.2</ele>
        <time>2022-02-09T12:48:01Z</time>
      </trkpt>
      <trkpt lat="42.8672" lon="0.22054">
        <ele>2517.2</ele>
        <time>2022-02-09T12:48:02Z</time>
      </trkpt>
      <trkpt lat="42.8672" lon="0.22054">
        <ele>2517.2</ele>
        <time>2022-02-09T12:48:03Z</time>
      </trkpt>
      <trkpt lat="42.8672" lon="0.22054">
        <ele>2517.2</ele>
        <time>2022-02-09T12:48:04Z</time>
      </trkpt>
      <trkpt lat="42.8672" lon="0.22054">
        <ele>2517.2</ele>
        <time>2022-02-09T12:48:05Z</time>
      </trkpt>
      <trkpt lat="42.8672" lon="0.22054">
        <ele>2517.2</ele>
        <time>2022-02-09T12:48:06Z</time>
      </trkpt>
      <trkpt lat="42.8672" lon="0.22054">
        <ele>2517.2</ele>
        <time>2022-02-09T12:48:07Z</time>
      </trkpt>
      <trkpt lat="42.8672" lon="0.22054">
        <ele>2517.2</ele>
        <time>2022-02-09T12:48:08Z</time>
      </trkpt>
      <trkpt lat="42.8672" lon="0.22054">
        <ele>2517.2</ele>
        <time>2022-02-09T12:48:09Z</time>
      </trkpt>
      <trkpt lat="42.8672" lon="0.22054">
        <ele>2517.2</ele>
        <time>2022-02-09T12:48:10Z</time>
      </trkpt>
      <trkpt lat="42.8672" lon="0.22054">
        <ele>2517.2</ele>
        <time>2022-02-09T12:48:11Z</time>
      </trkpt>
      <trkpt lat="42.8672" lon="0.22054">
        <ele>2517.2</ele>
        <time>2022-02-09T12:48:12Z</time>
      </trkpt>
      <trkpt lat="42.8672" lon="0.22054">
        <ele>2517.2</ele>
        <time>2022-02-09T12:48:13Z</time>
      </trkpt>
      <trkpt lat="42.8672" lon="0.22054">
        <ele>2517.2</ele>
        <time>2022-02-09T12:48:14Z</time>
      </trkpt>
      <trkpt lat="42.8672" lon="0.22054">
        <ele>2517.2</ele>
        <time>2022-02-09T12:48:15Z</time>
      </trkpt>
      <trkpt lat="42.8672" lon="0.22054">
        <ele>2517.2</ele>
        <time>2022-02-09T12:48:16Z</time>
      </trkpt>
      <trkpt lat="42.8672" lon="0.22054">
        <ele>2517.2</ele>
        <time>2022-02-09T12:48:17Z</time>
      </trkpt>
      <trkpt lat="42.8672" lon="0.22054">
        <ele>2517.2</ele>
        <time>2022-02-09T12:48:18Z</time>
      </trkpt>
      <trkpt lat="42.8672" lon="0.22054">
        <ele>2517.2</ele>
        <time>2022-02-09T12:48:19Z</time>
      </trkpt>
      <trkpt lat="42.8672" lon="0.22054">
        <ele>2517.2</ele>
        <time>2022-02-09T12:48:20Z</time>
      </trkpt>
      <trkpt lat="42.8672" lon="0.22054">
        <ele>2517.2</ele>
        <time>2022-02-09T12:48:21Z</time>
      </trkpt>
      <trkpt lat="42.8672" lon="0.22054">
        <ele>2517.2</ele>
        <time>2022-02-09T12:48:22Z</time>
      </trkpt>
      <trkpt lat="42.8672" lon="0.22054">
        <ele>2517.2</ele>
        <time>2022-02-09T12:48:23Z</time>
      </trkpt>
      <trkpt lat="42.8672" lon="0.22054">
        <ele>2517.2</ele>
        <time>2022-02-09T12:48:24Z</time>
      </trkpt>
      <trkpt lat="42.8672" lon="0.22054">
        <ele>2517.2</ele>
        <time>2022-02-09T12:48:25Z</time>
      </trkpt>
      <trkpt lat="42.8672" lon="0.22054">
        <ele>2517.2</ele>
        <time>2022-02-09T12:48:26Z</time>
      </trkpt>
      <trkpt lat="42.8672" lon="0.22054">
        <ele>2517.2</ele>
        <time>2022-02-09T12:48:27Z</time>
      </trkpt>
      <trkpt lat="42.8672" lon="0.22054">
        <ele>2517.2</ele>
        <time>2022-02-09T12:48:28Z</time>
      </trkpt>
      <trkpt lat="42.8672" lon="0.22054">
        <ele>2517.2</ele>
        <time>2022-02-09T12:48:29Z</time>
      </trkpt>
      <trkpt lat="42.8672" lon="0.22054">
        <ele>2517.2</ele>
        <time>2022-02-09T12:48:30Z</time>
      </trkpt>
      <trkpt lat="42.8672" lon="0.22054">
        <ele>2517.2</ele>
        <time>2022-02-09T12:48:31Z</time>
      </trkpt>
      <trkpt lat="42.8672" lon="0.22054">
        <ele>2517.2</ele>
        <time>2022-02-09T12:48:32Z</time>
      </trkpt>
      <trkpt lat="42.8672" lon="0.22054">
        <ele>2517.2</ele>
        <time>2022-02-09T12:48:33Z</time>
      </trkpt>
      <trkpt lat="42.8672" lon="0.22054">
        <ele>2517.2</ele>
        <time>2022-02-09T12:48:34Z</time>
      </trkpt>
      <trkpt lat="42.8672" lon="0.22054">
        <ele>2517.2</ele>
        <time>2022-02-09T12:48:35Z</time>
      </trkpt>
      <trkpt lat="42.8672" lon="0.22054">
        <ele>2517.2</ele>
        <time>2022-02-09T12:48:36Z</time>
      </trkpt>
      <trkpt lat="42.8672" lon="0.22054">
        <ele>2517.2</ele>
        <time>2022-02-09T12:48:37Z</time>
      </trkpt>
      <trkpt lat="42.8672" lon="0.22054">
        <ele>2517.2</ele>
        <time>2022-02-09T12:48:38Z</time>
      </trkpt>
      <trkpt lat="42.8672" lon="0.22054">
        <ele>2517.2</ele>
        <time>2022-02-09T12:48:39Z</time>
      </trkpt>
      <trkpt lat="42.8672" lon="0.22054">
        <ele>2517.2</ele>
        <time>2022-02-09T12:48:40Z</time>
      </trkpt>
      <trkpt lat="42.8672" lon="0.22054">
        <ele>2517.2</ele>
        <time>2022-02-09T12:48:41Z</time>
      </trkpt>
      <trkpt lat="42.8672" lon="0.22054">
        <ele>2517.2</ele>
        <time>2022-02-09T12:48:42Z</time>
      </trkpt>
      <trkpt lat="42.8672" lon="0.22054">
        <ele>2517.2</ele>
        <time>2022-02-09T12:48:43Z</time>
      </trkpt>
      <trkpt lat="42.8672" lon="0.22054">
        <ele>2517.2</ele>
        <time>2022-02-09T12:48:44Z</time>
      </trkpt>
      <trkpt lat="42.8672" lon="0.22054">
        <ele>2517.2</ele>
        <time>2022-02-09T12:48:45Z</time>
      </trkpt>
      <trkpt lat="42.8672" lon="0.22054">
        <ele>2517.2</ele>
        <time>2022-02-09T12:48:46Z</time>
      </trkpt>
      <trkpt lat="42.8672" lon="0.22054">
        <ele>2517.2</ele>
        <time>2022-02-09T12:48:47Z</time>
      </trkpt>
      <trkpt lat="42.8672" lon="0.22054">
        <ele>2517.2</ele>
        <time>2022-02-09T12:48:48Z</time>
      </trkpt>
      <trkpt lat="42.8672" lon="0.22054">
        <ele>2517.2</ele>
        <time>2022-02-09T12:48:49Z</time>
      </trkpt>
      <trkpt lat="42.8672" lon="0.22054">
        <ele>2517.2</ele>
        <time>2022-02-09T12:48:50Z</time>
      </trkpt>
      <trkpt lat="42.8672" lon="0.22054">
        <ele>2517.2</ele>
        <time>2022-02-09T12:48:51Z</time>
      </trkpt>
      <trkpt lat="42.8672" lon="0.22054">
        <ele>2517.2</ele>
        <time>2022-02-09T12:48:52Z</time>
      </trkpt>
      <trkpt lat="42.8672" lon="0.22054">
        <ele>2517.2</ele>
        <time>2022-02-09T12:48:53Z</time>
      </trkpt>
      <trkpt lat="42.8672" lon="0.22054">
        <ele>2517.2</ele>
        <time>2022-02-09T12:48:54Z</time>
      </trkpt>
      <trkpt lat="42.8672" lon="0.22054">
        <ele>2517.2</ele>
        <time>2022-02-09T12:48:55Z</time>
      </trkpt>
      <trkpt lat="42.8672" lon="0.22054">
        <ele>2517.2</ele>
        <time>2022-02-09T12:48:56Z</time>
      </trkpt>
      <trkpt lat="42.8672" lon="0.22054">
        <ele>2517.2</ele>
        <time>2022-02-09T12:48:57Z</time>
      </trkpt>
      <trkpt lat="42.8672" lon="0.22054">
        <ele>2517.2</ele>
        <time>2022-02-09T12:48:58Z</time>
      </trkpt>
      <trkpt lat="42.8672" lon="0.22054">
        <ele>2517.2</ele>
        <time>2022-02-09T12:48:59Z</time>
      </trkpt>
      <trkpt lat="42.8672" lon="0.22054">
        <ele>2517.2</ele>
        <time>2022-02-09T12:49:00Z</time>
      </trkpt>
      <trkpt lat="42.8672" lon="0.22054">
        <ele>2517.2</ele>
        <time>2022-02-09T12:49:01Z</time>
      </trkpt>
      <trkpt lat="42.8672" lon="0.22054">
        <ele>2517.2</ele>
        <time>2022-02-09T12:49:02Z</time>
      </trkpt>
      <trkpt lat="42.8672" lon="0.22054">
        <ele>2517.2</ele>
        <time>2022-02-09T12:49:03Z</time>
      </trkpt>
      <trkpt lat="42.8672" lon="0.22054">
        <ele>2517.2</ele>
        <time>2022-02-09T12:49:04Z</time>
      </trkpt>
      <trkpt lat="42.8672" lon="0.22054">
        <ele>2517.2</ele>
        <time>2022-02-09T12:49:05Z</time>
      </trkpt>
      <trkpt lat="42.8672" lon="0.22054">
        <ele>2517.2</ele>
        <time>2022-02-09T12:49:06Z</time>
      </trkpt>
      <trkpt lat="42.8672" lon="0.22054">
        <ele>2517.2</ele>
        <time>2022-02-09T12:49:07Z</time>
      </trkpt>
      <trkpt lat="42.8672" lon="0.22054">
        <ele>2517.2</ele>
        <time>2022-02-09T12:49:08Z</time>
      </trkpt>
      <trkpt lat="42.8672" lon="0.22054">
        <ele>2517.2</ele>
        <time>2022-02-09T12:49:09Z</time>
      </trkpt>
      <trkpt lat="42.8672" lon="0.22054">
        <ele>2517.2</ele>
        <time>2022-02-09T12:49:10Z</time>
      </trkpt>
      <trkpt lat="42.8672" lon="0.22054">
        <ele>2517.2</ele>
        <time>2022-02-09T12:49:11Z</time>
      </trkpt>
      <trkpt lat="42.8672" lon="0.22054">
        <ele>2517.2</ele>
        <time>2022-02-09T12:49:12Z</time>
      </trkpt>
      <trkpt lat="42.8672" lon="0.22054">
        <ele>2517.2</ele>
        <time>2022-02-09T12:49:13Z</time>
      </trkpt>
      <trkpt lat="42.8672" lon="0.22054">
        <ele>2517.2</ele>
        <time>2022-02-09T12:49:14Z</time>
      </trkpt>
      <trkpt lat="42.8672" lon="0.22054">
        <ele>2517.2</ele>
        <time>2022-02-09T12:49:15Z</time>
      </trkpt>
      <trkpt lat="42.8672" lon="0.22054">
        <ele>2517.2</ele>
        <time>2022-02-09T12:49:16Z</time>
      </trkpt>
      <trkpt lat="42.8672" lon="0.22054">
        <ele>2517.2</ele>
        <time>2022-02-09T12:49:17Z</time>
      </trkpt>
      <trkpt lat="42.8672" lon="0.22054">
        <ele>2517.2</ele>
        <time>2022-02-09T12:49:18Z</time>
      </trkpt>
      <trkpt lat="42.8672" lon="0.22054">
        <ele>2517.2</ele>
        <time>2022-02-09T12:49:19Z</time>
      </trkpt>
      <trkpt lat="42.8672" lon="0.22054">
        <ele>2517.2</ele>
        <time>2022-02-09T12:49:20Z</time>
      </trkpt>
      <trkpt lat="42.8672" lon="0.22054">
        <ele>2517.2</ele>
        <time>2022-02-09T12:49:21Z</time>
      </trkpt>
      <trkpt lat="42.8672" lon="0.22054">
        <ele>2517.2</ele>
        <time>2022-02-09T12:49:22Z</time>
      </trkpt>
      <trkpt lat="42.8672" lon="0.22054">
        <ele>2517.2</ele>
        <time>2022-02-09T12:49:23Z</time>
      </trkpt>
      <trkpt lat="42.8672" lon="0.22054">
        <ele>2517.2</ele>
        <time>2022-02-09T12:49:24Z</time>
      </trkpt>
      <trkpt lat="42.8672" lon="0.22054">
        <ele>2517.2</ele>
        <time>2022-02-09T12:49:25Z</time>
      </trkpt>
      <trkpt lat="42.8672" lon="0.22054">
        <ele>2517.2</ele>
        <time>2022-02-09T12:49:26Z</time>
      </trkpt>
      <trkpt lat="42.8672" lon="0.22054">
        <ele>2517.2</ele>
        <time>2022-02-09T12:49:27Z</time>
      </trkpt>
      <trkpt lat="42.8672" lon="0.22054">
        <ele>2517.2</ele>
        <time>2022-02-09T12:49:28Z</time>
      </trkpt>
      <trkpt lat="42.8672" lon="0.22054">
        <ele>2517.2</ele>
        <time>2022-02-09T12:49:29Z</time>
      </trkpt>
      <trkpt lat="42.8672" lon="0.22054">
        <ele>2517.2</ele>
        <time>2022-02-09T12:49:30Z</time>
      </trkpt>
      <trkpt lat="42.8672" lon="0.22054">
        <ele>2517.2</ele>
        <time>2022-02-09T12:49:31Z</time>
      </trkpt>
      <trkpt lat="42.8672" lon="0.22054">
        <ele>2517.2</ele>
        <time>2022-02-09T12:49:32Z</time>
      </trkpt>
      <trkpt lat="42.8672" lon="0.22054">
        <ele>2517.2</ele>
        <time>2022-02-09T12:49:33Z</time>
      </trkpt>
      <trkpt lat="42.8672" lon="0.22054">
        <ele>2517.2</ele>
        <time>2022-02-09T12:49:34Z</time>
      </trkpt>
      <trkpt lat="42.8672" lon="0.22054">
        <ele>2517.2</ele>
        <time>2022-02-09T12:49:35Z</time>
      </trkpt>
      <trkpt lat="42.8672" lon="0.22054">
        <ele>2517.2</ele>
        <time>2022-02-09T12:49:36Z</time>
      </trkpt>
      <trkpt lat="42.8672" lon="0.22054">
        <ele>2517.2</ele>
        <time>2022-02-09T12:49:37Z</time>
      </trkpt>
      <trkpt lat="42.8672" lon="0.22054">
        <ele>2517.2</ele>
        <time>2022-02-09T12:49:38Z</time>
      </trkpt>
      <trkpt lat="42.8672" lon="0.22054">
        <ele>2517.2</ele>
        <time>2022-02-09T12:49:39Z</time>
      </trkpt>
      <trkpt lat="42.8672" lon="0.22054">
        <ele>2517.2</ele>
        <time>2022-02-09T12:49:40Z</time>
      </trkpt>
      <trkpt lat="42.8672" lon="0.22054">
        <ele>2517.2</ele>
        <time>2022-02-09T12:49:41Z</time>
      </trkpt>
      <trkpt lat="42.8672" lon="0.22054">
        <ele>2517.2</ele>
        <time>2022-02-09T12:49:42Z</time>
      </trkpt>
      <trkpt lat="42.8672" lon="0.22054">
        <ele>2517.2</ele>
        <time>2022-02-09T12:49:43Z</time>
      </trkpt>
      <trkpt lat="42.8672" lon="0.22054">
        <ele>2517.2</ele>
        <time>2022-02-09T12:49:44Z</time>
      </trkpt>
      <trkpt lat="42.8672" lon="0.22054">
        <ele>2517.2</ele>
        <time>2022-02-09T12:49:45Z</time>
      </trkpt>
      <trkpt lat="42.8672" lon="0.22054">
        <ele>2517.2</ele>
        <time>2022-02-09T12:49:46Z</time>
      </trkpt>
      <trkpt lat="42.8672" lon="0.22054">
        <ele>2517.2</ele>
        <time>2022-02-09T12:49:47Z</time>
      </trkpt>
      <trkpt lat="42.8672" lon="0.22054">
        <ele>2517.2</ele>
        <time>2022-02-09T12:49:48Z</time>
      </trkpt>
      <trkpt lat="42.8672" lon="0.22054">
        <ele>2517.2</ele>
        <time>2022-02-09T12:49:49Z</time>
      </trkpt>
      <trkpt lat="42.8672" lon="0.22054">
        <ele>2517.2</ele>
        <time>2022-02-09T12:49:50Z</time>
      </trkpt>
      <trkpt lat="42.8672" lon="0.22054">
        <ele>2517.2</ele>
        <time>2022-02-09T12:49:51Z</time>
      </trkpt>
      <trkpt lat="42.8672" lon="0.22054">
        <ele>2517.2</ele>
        <time>2022-02-09T12:49:52Z</time>
      </trkpt>
      <trkpt lat="42.8672" lon="0.22054">
        <ele>2517.2</ele>
        <time>2022-02-09T12:49:53Z</time>
      </trkpt>
      <trkpt lat="42.8672" lon="0.22054">
        <ele>2517.2</ele>
        <time>2022-02-09T12:49:54Z</time>
      </trkpt>
      <trkpt lat="42.8672" lon="0.22054">
        <ele>2517.2</ele>
        <time>2022-02-09T12:49:55Z</time>
      </trkpt>
      <trkpt lat="42.8672" lon="0.22054">
        <ele>2517.2</ele>
        <time>2022-02-09T12:49:56Z</time>
      </trkpt>
      <trkpt lat="42.8672" lon="0.22054">
        <ele>2517.2</ele>
        <time>2022-02-09T12:49:57Z</time>
      </trkpt>
      <trkpt lat="42.8672" lon="0.22054">
        <ele>2517.2</ele>
        <time>2022-02-09T12:49:58Z</time>
      </trkpt>
      <trkpt lat="42.8672" lon="0.22054">
        <ele>2517.2</ele>
        <time>2022-02-09T12:49:59Z</time>
      </trkpt>
      <trkpt lat="42.8672" lon="0.22054">
        <ele>2517.2</ele>
        <time>2022-02-09T12:50:00Z</time>
      </trkpt>
      <trkpt lat="42.8672" lon="0.22054">
        <ele>2517.2</ele>
        <time>2022-02-09T12:50:01Z</time>
      </trkpt>
      <trkpt lat="42.8672" lon="0.22054">
        <ele>2517.2</ele>
        <time>2022-02-09T12:50:02Z</time>
      </trkpt>
      <trkpt lat="42.8672" lon="0.22054">
        <ele>2517.2</ele>
        <time>2022-02-09T12:50:03Z</time>
      </trkpt>
      <trkpt lat="42.8672" lon="0.22054">
        <ele>2517.2</ele>
        <time>2022-02-09T12:50:04Z</time>
      </trkpt>
      <trkpt lat="42.8672" lon="0.22054">
        <ele>2517.2</ele>
        <time>2022-02-09T12:50:05Z</time>
      </trkpt>
      <trkpt lat="42.8672" lon="0.22054">
        <ele>2517.2</ele>
        <time>2022-02-09T12:50:06Z</time>
      </trkpt>
      <trkpt lat="42.8672" lon="0.22054">
        <ele>2517.2</ele>
        <time>2022-02-09T12:50:07Z</time>
      </trkpt>
      <trkpt lat="42.8672" lon="0.22054">
        <ele>2517.2</ele>
        <time>2022-02-09T12:50:08Z</time>
      </trkpt>
      <trkpt lat="42.8672" lon="0.22054">
        <ele>2517.2</ele>
        <time>2022-02-09T12:50:09Z</time>
      </trkpt>
      <trkpt lat="42.8672" lon="0.22054">
        <ele>2517.2</ele>
        <time>2022-02-09T12:50:10Z</time>
      </trkpt>
      <trkpt lat="42.8672" lon="0.22054">
        <ele>2517.2</ele>
        <time>2022-02-09T12:50:11Z</time>
      </trkpt>
      <trkpt lat="42.8672" lon="0.22054">
        <ele>2517.2</ele>
        <time>2022-02-09T12:50:12Z</time>
      </trkpt>
      <trkpt lat="42.8672" lon="0.22054">
        <ele>2517.2</ele>
        <time>2022-02-09T12:50:13Z</time>
      </trkpt>
      <trkpt lat="42.8672" lon="0.22054">
        <ele>2517.2</ele>
        <time>2022-02-09T12:50:14Z</time>
      </trkpt>
      <trkpt lat="42.8672" lon="0.22054">
        <ele>2517.2</ele>
        <time>2022-02-09T12:50:15Z</time>
      </trkpt>
      <trkpt lat="42.8672" lon="0.22054">
        <ele>2517.2</ele>
        <time>2022-02-09T12:50:16Z</time>
      </trkpt>
      <trkpt lat="42.8672" lon="0.22054">
        <ele>2517.2</ele>
        <time>2022-02-09T12:50:17Z</time>
      </trkpt>
      <trkpt lat="42.8672" lon="0.22054">
        <ele>2517.2</ele>
        <time>2022-02-09T12:50:18Z</time>
      </trkpt>
      <trkpt lat="42.8672" lon="0.22054">
        <ele>2517.2</ele>
        <time>2022-02-09T12:50:19Z</time>
      </trkpt>
      <trkpt lat="42.8672" lon="0.22054">
        <ele>2517.2</ele>
        <time>2022-02-09T12:50:20Z</time>
      </trkpt>
      <trkpt lat="42.8672" lon="0.22054">
        <ele>2517.2</ele>
        <time>2022-02-09T12:50:21Z</time>
      </trkpt>
      <trkpt lat="42.8672" lon="0.22054">
        <ele>2517.2</ele>
        <time>2022-02-09T12:50:22Z</time>
      </trkpt>
      <trkpt lat="42.8672" lon="0.22054">
        <ele>2517.2</ele>
        <time>2022-02-09T12:50:23Z</time>
      </trkpt>
      <trkpt lat="42.8672" lon="0.22054">
        <ele>2517.2</ele>
        <time>2022-02-09T12:50:24Z</time>
      </trkpt>
      <trkpt lat="42.8672" lon="0.22054">
        <ele>2517.2</ele>
        <time>2022-02-09T12:50:25Z</time>
      </trkpt>
      <trkpt lat="42.8672" lon="0.22054">
        <ele>2517.2</ele>
        <time>2022-02-09T12:50:26Z</time>
      </trkpt>
      <trkpt lat="42.8672" lon="0.22054">
        <ele>2517.2</ele>
        <time>2022-02-09T12:50:27Z</time>
      </trkpt>
      <trkpt lat="42.8672" lon="0.22054">
        <ele>2517.2</ele>
        <time>2022-02-09T12:50:28Z</time>
      </trkpt>
      <trkpt lat="42.8672" lon="0.22054">
        <ele>2517.2</ele>
        <time>2022-02-09T12:50:29Z</time>
      </trkpt>
      <trkpt lat="42.8672" lon="0.22054">
        <ele>2517.2</ele>
        <time>2022-02-09T12:50:30Z</time>
      </trkpt>
      <trkpt lat="42.8672" lon="0.22054">
        <ele>2517.2</ele>
        <time>2022-02-09T12:50:31Z</time>
      </trkpt>
      <trkpt lat="42.8672" lon="0.22054">
        <ele>2517.2</ele>
        <time>2022-02-09T12:50:32Z</time>
      </trkpt>
      <trkpt lat="42.8672" lon="0.22054">
        <ele>2517.2</ele>
        <time>2022-02-09T12:50:33Z</time>
      </trkpt>
      <trkpt lat="42.8672" lon="0.22054">
        <ele>2517.2</ele>
        <time>2022-02-09T12:50:34Z</time>
      </trkpt>
      <trkpt lat="42.8672" lon="0.22054">
        <ele>2517.2</ele>
        <time>2022-02-09T12:50:35Z</time>
      </trkpt>
      <trkpt lat="42.8672" lon="0.22054">
        <ele>2517.2</ele>
        <time>2022-02-09T12:50:36Z</time>
      </trkpt>
      <trkpt lat="42.8672" lon="0.22054">
        <ele>2517.2</ele>
        <time>2022-02-09T12:50:37Z</time>
      </trkpt>
      <trkpt lat="42.8672" lon="0.22054">
        <ele>2517.2</ele>
        <time>2022-02-09T12:50:38Z</time>
      </trkpt>
      <trkpt lat="42.8672" lon="0.22054">
        <ele>2517.2</ele>
        <time>2022-02-09T12:50:39Z</time>
      </trkpt>
      <trkpt lat="42.8672" lon="0.22054">
        <ele>2517.2</ele>
        <time>2022-02-09T12:50:40Z</time>
      </trkpt>
      <trkpt lat="42.8672" lon="0.22054">
        <ele>2517.2</ele>
        <time>2022-02-09T12:50:41Z</time>
      </trkpt>
      <trkpt lat="42.8672" lon="0.22054">
        <ele>2517.2</ele>
        <time>2022-02-09T12:50:42Z</time>
      </trkpt>
      <trkpt lat="42.8672" lon="0.22054">
        <ele>2517.2</ele>
        <time>2022-02-09T12:50:43Z</time>
      </trkpt>
      <trkpt lat="42.8672" lon="0.22054">
        <ele>2517.2</ele>
        <time>2022-02-09T12:50:44Z</time>
      </trkpt>
      <trkpt lat="42.8672" lon="0.22054">
        <ele>2517.2</ele>
        <time>2022-02-09T12:50:45Z</time>
      </trkpt>
      <trkpt lat="42.8672" lon="0.22054">
        <ele>2517.2</ele>
        <time>2022-02-09T12:50:46Z</time>
      </trkpt>
      <trkpt lat="42.8672" lon="0.22054">
        <ele>2517.2</ele>
        <time>2022-02-09T12:50:47Z</time>
      </trkpt>
      <trkpt lat="42.8672" lon="0.22054">
        <ele>2517.2</ele>
        <time>2022-02-09T12:50:48Z</time>
      </trkpt>
      <trkpt lat="42.8672" lon="0.22054">
        <ele>2517.2</ele>
        <time>2022-02-09T12:50:49Z</time>
      </trkpt>
      <trkpt lat="42.8672" lon="0.22054">
        <ele>2517.2</ele>
        <time>2022-02-09T12:50:50Z</time>
      </trkpt>
      <trkpt lat="42.8672" lon="0.22054">
        <ele>2517.2</ele>
        <time>2022-02-09T12:50:51Z</time>
      </trkpt>
      <trkpt lat="42.8672" lon="0.22054">
        <ele>2517.2</ele>
        <time>2022-02-09T12:50:52Z</time>
      </trkpt>
      <trkpt lat="42.8672" lon="0.22054">
        <ele>2517.2</ele>
        <time>2022-02-09T12:50:53Z</time>
      </trkpt>
      <trkpt lat="42.8672" lon="0.22054">
        <ele>2517.2</ele>
        <time>2022-02-09T12:50:54Z</time>
      </trkpt>
      <trkpt lat="42.8672" lon="0.22054">
        <ele>2517.2</ele>
        <time>2022-02-09T12:50:55Z</time>
      </trkpt>
      <trkpt lat="42.8672" lon="0.22054">
        <ele>2517.2</ele>
        <time>2022-02-09T12:50:56Z</time>
      </trkpt>
      <trkpt lat="42.8672" lon="0.22054">
        <ele>2517.2</ele>
        <time>2022-02-09T12:50:57Z</time>
      </trkpt>
      <trkpt lat="42.8672" lon="0.22054">
        <ele>2517.2</ele>
        <time>2022-02-09T12:50:58Z</time>
      </trkpt>
      <trkpt lat="42.8672" lon="0.22054">
        <ele>2517.2</ele>
        <time>2022-02-09T12:50:59Z</time>
      </trkpt>
      <trkpt lat="42.8672" lon="0.22054">
        <ele>2517.2</ele>
        <time>2022-02-09T12:51:00Z</time>
      </trkpt>
      <trkpt lat="42.8672" lon="0.22054">
        <ele>2517.2</ele>
        <time>2022-02-09T12:51:01Z</time>
      </trkpt>
      <trkpt lat="42.8672" lon="0.22054">
        <ele>2517.2</ele>
        <time>2022-02-09T12:51:02Z</time>
      </trkpt>
      <trkpt lat="42.8672" lon="0.22054">
        <ele>2517.2</ele>
        <time>2022-02-09T12:51:03Z</time>
      </trkpt>
      <trkpt lat="42.8672" lon="0.22054">
        <ele>2517.2</ele>
        <time>2022-02-09T12:51:04Z</time>
      </trkpt>
      <trkpt lat="42.8672" lon="0.22054">
        <ele>2517.2</ele>
        <time>2022-02-09T12:51:05Z</time>
      </trkpt>
      <trkpt lat="42.8672" lon="0.22054">
        <ele>2517.2</ele>
        <time>2022-02-09T12:51:06Z</time>
      </trkpt>
      <trkpt lat="42.8672" lon="0.22054">
        <ele>2517.2</ele>
        <time>2022-02-09T12:51:07Z</time>
      </trkpt>
      <trkpt lat="42.8672" lon="0.22054">
        <ele>2517.2</ele>
        <time>2022-02-09T12:51:08Z</time>
      </trkpt>
      <trkpt lat="42.8672" lon="0.22054">
        <ele>2517.2</ele>
        <time>2022-02-09T12:51:09Z</time>
      </trkpt>
      <trkpt lat="42.8672" lon="0.22054">
        <ele>2517.2</ele>
        <time>2022-02-09T12:51:10Z</time>
      </trkpt>
      <trkpt lat="42.8672" lon="0.22054">
        <ele>2517.2</ele>
        <time>2022-02-09T12:51:11Z</time>
      </trkpt>
      <trkpt lat="42.8672" lon="0.22054">
        <ele>2517.2</ele>
        <time>2022-02-09T12:51:12Z</time>
      </trkpt>
      <trkpt lat="42.8672" lon="0.22054">
        <ele>2517.2</ele>
        <time>2022-02-09T12:51:13Z</time>
      </trkpt>
      <trkpt lat="42.8672" lon="0.22054">
        <ele>2517.2</ele>
        <time>2022-02-09T12:51:14Z</time>
      </trkpt>
      <trkpt lat="42.8672" lon="0.22054">
        <ele>2517.2</ele>
        <time>2022-02-09T12:51:15Z</time>
      </trkpt>
      <trkpt lat="42.8672" lon="0.22054">
        <ele>2517.2</ele>
        <time>2022-02-09T12:51:16Z</time>
      </trkpt>
      <trkpt lat="42.8672" lon="0.22054">
        <ele>2517.2</ele>
        <time>2022-02-09T12:51:17Z</time>
      </trkpt>
      <trkpt lat="42.8672" lon="0.22054">
        <ele>2517.2</ele>
        <time>2022-02-09T12:51:18Z</time>
      </trkpt>
      <trkpt lat="42.8672" lon="0.22054">
        <ele>2517.2</ele>
        <time>2022-02-09T12:51:19Z</time>
      </trkpt>
      <trkpt lat="42.8672" lon="0.22054">
        <ele>2517.2</ele>
        <time>2022-02-09T12:51:20Z</time>
      </trkpt>
      <trkpt lat="42.8672" lon="0.22054">
        <ele>2517.2</ele>
        <time>2022-02-09T12:51:21Z</time>
      </trkpt>
      <trkpt lat="42.8672" lon="0.22054">
        <ele>2517.2</ele>
        <time>2022-02-09T12:51:22Z</time>
      </trkpt>
      <trkpt lat="42.8672" lon="0.22054">
        <ele>2517.2</ele>
        <time>2022-02-09T12:51:23Z</time>
      </trkpt>
      <trkpt lat="42.8672" lon="0.22054">
        <ele>2517.2</ele>
        <time>2022-02-09T12:51:24Z</time>
      </trkpt>
      <trkpt lat="42.8672" lon="0.22054">
        <ele>2517.2</ele>
        <time>2022-02-09T12:51:25Z</time>
      </trkpt>
      <trkpt lat="42.8672" lon="0.22054">
        <ele>2517.2</ele>
        <time>2022-02-09T12:51:26Z</time>
      </trkpt>
      <trkpt lat="42.8672" lon="0.22054">
        <ele>2517.2</ele>
        <time>2022-02-09T12:51:27Z</time>
      </trkpt>
      <trkpt lat="42.8672" lon="0.22054">
        <ele>2517.2</ele>
        <time>2022-02-09T12:51:28Z</time>
      </trkpt>
      <trkpt lat="42.8672" lon="0.22054">
        <ele>2517.2</ele>
        <time>2022-02-09T12:51:29Z</time>
      </trkpt>
      <trkpt lat="42.8672" lon="0.22054">
        <ele>2517.2</ele>
        <time>2022-02-09T12:51:30Z</time>
      </trkpt>
      <trkpt lat="42.8672" lon="0.22054">
        <ele>2517.2</ele>
        <time>2022-02-09T12:51:31Z</time>
      </trkpt>
      <trkpt lat="42.8672" lon="0.22054">
        <ele>2517.2</ele>
        <time>2022-02-09T12:51:32Z</time>
      </trkpt>
      <trkpt lat="42.8672" lon="0.22054">
        <ele>2517.2</ele>
        <time>2022-02-09T12:51:33Z</time>
      </trkpt>
      <trkpt lat="42.8672" lon="0.22054">
        <ele>2517.2</ele>
        <time>2022-02-09T12:51:34Z</time>
      </trkpt>
      <trkpt lat="42.8672" lon="0.22054">
        <ele>2517.2</ele>
        <time>2022-02-09T12:51:35Z</time>
      </trkpt>
      <trkpt lat="42.8672" lon="0.22054">
        <ele>2517.2</ele>
        <time>2022-02-09T12:51:36Z</time>
      </trkpt>
      <trkpt lat="42.8672" lon="0.22054">
        <ele>2517.2</ele>
        <time>2022-02-09T12:51:37Z</time>
      </trkpt>
      <trkpt lat="42.8672" lon="0.22054">
        <ele>2517.2</ele>
        <time>2022-02-09T12:51:38Z</time>
      </trkpt>
      <trkpt lat="42.8672" lon="0.22054">
        <ele>2517.2</ele>
        <time>2022-02-09T12:51:39Z</time>
      </trkpt>
      <trkpt lat="42.8672" lon="0.22054">
        <ele>2517.2</ele>
        <time>2022-02-09T12:51:40Z</time>
      </trkpt>
      <trkpt lat="42.8672" lon="0.22054">
        <ele>2517.2</ele>
        <time>2022-02-09T12:51:41Z</time>
      </trkpt>
      <trkpt lat="42.8672" lon="0.22054">
        <ele>2517.2</ele>
        <time>2022-02-09T12:51:42Z</time>
      </trkpt>
      <trkpt lat="42.8672" lon="0.22054">
        <ele>2517.2</ele>
        <time>2022-02-09T12:51:43Z</time>
      </trkpt>
      <trkpt lat="42.8672" lon="0.22054">
        <ele>2517.2</ele>
        <time>2022-02-09T12:51:44Z</time>
      </trkpt>
      <trkpt lat="42.8672" lon="0.22054">
        <ele>2517.2</ele>
        <time>2022-02-09T12:51:45Z</time>
      </trkpt>
      <trkpt lat="42.8672" lon="0.22054">
        <ele>2517.2</ele>
        <time>2022-02-09T12:51:46Z</time>
      </trkpt>
      <trkpt lat="42.8672" lon="0.22054">
        <ele>2517.2</ele>
        <time>2022-02-09T12:51:47Z</time>
      </trkpt>
      <trkpt lat="42.8672" lon="0.22054">
        <ele>2517.2</ele>
        <time>2022-02-09T12:51:48Z</time>
      </trkpt>
      <trkpt lat="42.8672" lon="0.22054">
        <ele>2517.1</ele>
        <time>2022-02-09T12:51:49Z</time>
      </trkpt>
      <trkpt lat="42.8672" lon="0.22053">
        <ele>2517</ele>
        <time>2022-02-09T12:51:50Z</time>
      </trkpt>
      <trkpt lat="42.8672" lon="0.22053">
        <ele>2517</ele>
        <time>2022-02-09T12:51:51Z</time>
      </trkpt>
      <trkpt lat="42.8672" lon="0.22053">
        <ele>2517</ele>
        <time>2022-02-09T12:51:52Z</time>
      </trkpt>
      <trkpt lat="42.8672" lon="0.22053">
        <ele>2517</ele>
        <time>2022-02-09T12:51:53Z</time>
      </trkpt>
      <trkpt lat="42.8672" lon="0.22053">
        <ele>2517</ele>
        <time>2022-02-09T12:51:54Z</time>
      </trkpt>
      <trkpt lat="42.8672" lon="0.22053">
        <ele>2517</ele>
        <time>2022-02-09T12:51:55Z</time>
      </trkpt>
      <trkpt lat="42.8672" lon="0.22053">
        <ele>2517</ele>
        <time>2022-02-09T12:51:56Z</time>
      </trkpt>
      <trkpt lat="42.8672" lon="0.22053">
        <ele>2517</ele>
        <time>2022-02-09T12:51:57Z</time>
      </trkpt>
      <trkpt lat="42.8672" lon="0.22053">
        <ele>2517</ele>
        <time>2022-02-09T12:51:58Z</time>
      </trkpt>
      <trkpt lat="42.8672" lon="0.22053">
        <ele>2517</ele>
        <time>2022-02-09T12:51:59Z</time>
      </trkpt>
      <trkpt lat="42.8672" lon="0.22053">
        <ele>2517</ele>
        <time>2022-02-09T12:52:00Z</time>
      </trkpt>
      <trkpt lat="42.8672" lon="0.22053">
        <ele>2517</ele>
        <time>2022-02-09T12:52:01Z</time>
      </trkpt>
      <trkpt lat="42.8672" lon="0.22053">
        <ele>2517</ele>
        <time>2022-02-09T12:52:02Z</time>
      </trkpt>
      <trkpt lat="42.8672" lon="0.22053">
        <ele>2517</ele>
        <time>2022-02-09T12:52:03Z</time>
      </trkpt>
      <trkpt lat="42.8672" lon="0.22053">
        <ele>2517</ele>
        <time>2022-02-09T12:52:04Z</time>
      </trkpt>
      <trkpt lat="42.8672" lon="0.22053">
        <ele>2517</ele>
        <time>2022-02-09T12:52:05Z</time>
      </trkpt>
      <trkpt lat="42.8672" lon="0.22053">
        <ele>2517</ele>
        <time>2022-02-09T12:52:06Z</time>
      </trkpt>
      <trkpt lat="42.8672" lon="0.22053">
        <ele>2517</ele>
        <time>2022-02-09T12:52:07Z</time>
      </trkpt>
      <trkpt lat="42.8672" lon="0.22053">
        <ele>2517</ele>
        <time>2022-02-09T12:52:08Z</time>
      </trkpt>
      <trkpt lat="42.8672" lon="0.22053">
        <ele>2517</ele>
        <time>2022-02-09T12:52:09Z</time>
      </trkpt>
      <trkpt lat="42.8672" lon="0.22053">
        <ele>2517</ele>
        <time>2022-02-09T12:52:10Z</time>
      </trkpt>
      <trkpt lat="42.8672" lon="0.22053">
        <ele>2517</ele>
        <time>2022-02-09T12:52:11Z</time>
      </trkpt>
      <trkpt lat="42.8672" lon="0.22053">
        <ele>2517</ele>
        <time>2022-02-09T12:52:12Z</time>
      </trkpt>
      <trkpt lat="42.8672" lon="0.22053">
        <ele>2517</ele>
        <time>2022-02-09T12:52:13Z</time>
      </trkpt>
      <trkpt lat="42.8672" lon="0.22053">
        <ele>2517</ele>
        <time>2022-02-09T12:52:14Z</time>
      </trkpt>
      <trkpt lat="42.8672" lon="0.22053">
        <ele>2517</ele>
        <time>2022-02-09T12:52:15Z</time>
      </trkpt>
      <trkpt lat="42.8672" lon="0.22053">
        <ele>2517</ele>
        <time>2022-02-09T12:52:16Z</time>
      </trkpt>
      <trkpt lat="42.8672" lon="0.22053">
        <ele>2517</ele>
        <time>2022-02-09T12:52:17Z</time>
      </trkpt>
      <trkpt lat="42.8672" lon="0.22053">
        <ele>2517</ele>
        <time>2022-02-09T12:52:18Z</time>
      </trkpt>
      <trkpt lat="42.8672" lon="0.22053">
        <ele>2517</ele>
        <time>2022-02-09T12:52:19Z</time>
      </trkpt>
      <trkpt lat="42.8672" lon="0.22054">
        <ele>2517</ele>
        <time>2022-02-09T12:52:20Z</time>
      </trkpt>
      <trkpt lat="42.8672" lon="0.22054">
        <ele>2516.9</ele>
        <time>2022-02-09T12:52:21Z</time>
      </trkpt>
      <trkpt lat="42.8672" lon="0.22055">
        <ele>2516.8</ele>
        <time>2022-02-09T12:52:22Z</time>
      </trkpt>
      <trkpt lat="42.8672" lon="0.22055">
        <ele>2516.8</ele>
        <time>2022-02-09T12:52:23Z</time>
      </trkpt>
      <trkpt lat="42.8672" lon="0.22055">
        <ele>2516.8</ele>
        <time>2022-02-09T12:52:24Z</time>
      </trkpt>
      <trkpt lat="42.8672" lon="0.22055">
        <ele>2516.8</ele>
        <time>2022-02-09T12:52:25Z</time>
      </trkpt>
      <trkpt lat="42.8672" lon="0.22055">
        <ele>2516.8</ele>
        <time>2022-02-09T12:52:26Z</time>
      </trkpt>
      <trkpt lat="42.8672" lon="0.22055">
        <ele>2516.8</ele>
        <time>2022-02-09T12:52:27Z</time>
      </trkpt>
      <trkpt lat="42.8672" lon="0.22055">
        <ele>2516.8</ele>
        <time>2022-02-09T12:52:28Z</time>
      </trkpt>
      <trkpt lat="42.8672" lon="0.22055">
        <ele>2516.8</ele>
        <time>2022-02-09T12:52:29Z</time>
      </trkpt>
      <trkpt lat="42.8672" lon="0.22055">
        <ele>2516.8</ele>
        <time>2022-02-09T12:52:30Z</time>
      </trkpt>
      <trkpt lat="42.8672" lon="0.22055">
        <ele>2516.8</ele>
        <time>2022-02-09T12:52:31Z</time>
      </trkpt>
      <trkpt lat="42.8672" lon="0.22055">
        <ele>2516.8</ele>
        <time>2022-02-09T12:52:32Z</time>
      </trkpt>
      <trkpt lat="42.8672" lon="0.22055">
        <ele>2516.8</ele>
        <time>2022-02-09T12:52:33Z</time>
      </trkpt>
      <trkpt lat="42.8672" lon="0.22055">
        <ele>2516.8</ele>
        <time>2022-02-09T12:52:34Z</time>
      </trkpt>
      <trkpt lat="42.8672" lon="0.22055">
        <ele>2516.8</ele>
        <time>2022-02-09T12:52:35Z</time>
      </trkpt>
      <trkpt lat="42.8672" lon="0.22055">
        <ele>2516.8</ele>
        <time>2022-02-09T12:52:36Z</time>
      </trkpt>
      <trkpt lat="42.8672" lon="0.22055">
        <ele>2516.8</ele>
        <time>2022-02-09T12:52:37Z</time>
      </trkpt>
      <trkpt lat="42.86721" lon="0.22055">
        <ele>2516.6</ele>
        <time>2022-02-09T12:52:38Z</time>
      </trkpt>
      <trkpt lat="42.86724" lon="0.22054">
        <ele>2516.3</ele>
        <time>2022-02-09T12:52:39Z</time>
      </trkpt>
      <trkpt lat="42.86724" lon="0.22054">
        <ele>2516.2</ele>
        <time>2022-02-09T12:52:40Z</time>
      </trkpt>
      <trkpt lat="42.86725" lon="0.22054">
        <ele>2516</ele>
        <time>2022-02-09T12:52:41Z</time>
      </trkpt>
      <trkpt lat="42.86727" lon="0.22055">
        <ele>2515.8</ele>
        <time>2022-02-09T12:52:42Z</time>
      </trkpt>
      <trkpt lat="42.86728" lon="0.22057">
        <ele>2515.5</ele>
        <time>2022-02-09T12:52:43Z</time>
      </trkpt>
      <trkpt lat="42.8673" lon="0.22061">
        <ele>2515</ele>
        <time>2022-02-09T12:52:44Z</time>
      </trkpt>
      <trkpt lat="42.86731" lon="0.22066">
        <ele>2514.4</ele>
        <time>2022-02-09T12:52:45Z</time>
      </trkpt>
      <trkpt lat="42.86731" lon="0.22072">
        <ele>2513.7</ele>
        <time>2022-02-09T12:52:46Z</time>
      </trkpt>
      <trkpt lat="42.86729" lon="0.22079">
        <ele>2513</ele>
        <time>2022-02-09T12:52:47Z</time>
      </trkpt>
      <trkpt lat="42.86728" lon="0.22085">
        <ele>2512.2</ele>
        <time>2022-02-09T12:52:48Z</time>
      </trkpt>
      <trkpt lat="42.86725" lon="0.22092">
        <ele>2511.5</ele>
        <time>2022-02-09T12:52:49Z</time>
      </trkpt>
      <trkpt lat="42.86723" lon="0.22097">
        <ele>2510.7</ele>
        <time>2022-02-09T12:52:50Z</time>
      </trkpt>
      <trkpt lat="42.86721" lon="0.22104">
        <ele>2510</ele>
        <time>2022-02-09T12:52:51Z</time>
      </trkpt>
      <trkpt lat="42.86719" lon="0.2211">
        <ele>2509.2</ele>
        <time>2022-02-09T12:52:52Z</time>
      </trkpt>
      <trkpt lat="42.86717" lon="0.22116">
        <ele>2508.5</ele>
        <time>2022-02-09T12:52:53Z</time>
      </trkpt>
      <trkpt lat="42.86716" lon="0.22121">
        <ele>2507.9</ele>
        <time>2022-02-09T12:52:54Z</time>
      </trkpt>
      <trkpt lat="42.86717" lon="0.22126">
        <ele>2507.4</ele>
        <time>2022-02-09T12:52:55Z</time>
      </trkpt>
      <trkpt lat="42.86719" lon="0.22129">
        <ele>2506.8</ele>
        <time>2022-02-09T12:52:56Z</time>
      </trkpt>
      <trkpt lat="42.86723" lon="0.22134">
        <ele>2506.1</ele>
        <time>2022-02-09T12:52:57Z</time>
      </trkpt>
      <trkpt lat="42.86724" lon="0.22141">
        <ele>2505.3</ele>
        <time>2022-02-09T12:52:58Z</time>
      </trkpt>
      <trkpt lat="42.86725" lon="0.22148">
        <ele>2504.5</ele>
        <time>2022-02-09T12:52:59Z</time>
      </trkpt>
      <trkpt lat="42.86725" lon="0.22157">
        <ele>2503.5</ele>
        <time>2022-02-09T12:53:00Z</time>
      </trkpt>
      <trkpt lat="42.86725" lon="0.22166">
        <ele>2502.5</ele>
        <time>2022-02-09T12:53:01Z</time>
      </trkpt>
      <trkpt lat="42.86725" lon="0.22175">
        <ele>2501.6</ele>
        <time>2022-02-09T12:53:02Z</time>
      </trkpt>
      <trkpt lat="42.86727" lon="0.22183">
        <ele>2500.7</ele>
        <time>2022-02-09T12:53:03Z</time>
      </trkpt>
      <trkpt lat="42.86731" lon="0.22189">
        <ele>2499.7</ele>
        <time>2022-02-09T12:53:04Z</time>
      </trkpt>
      <trkpt lat="42.86735" lon="0.22196">
        <ele>2498.7</ele>
        <time>2022-02-09T12:53:05Z</time>
      </trkpt>
      <trkpt lat="42.8674" lon="0.22203">
        <ele>2497.6</ele>
        <time>2022-02-09T12:53:06Z</time>
      </trkpt>
      <trkpt lat="42.86745" lon="0.2221">
        <ele>2496.6</ele>
        <time>2022-02-09T12:53:07Z</time>
      </trkpt>
      <trkpt lat="42.8675" lon="0.22217">
        <ele>2495.5</ele>
        <time>2022-02-09T12:53:08Z</time>
      </trkpt>
      <trkpt lat="42.86754" lon="0.22222">
        <ele>2494.7</ele>
        <time>2022-02-09T12:53:09Z</time>
      </trkpt>
      <trkpt lat="42.86757" lon="0.22225">
        <ele>2494.1</ele>
        <time>2022-02-09T12:53:10Z</time>
      </trkpt>
      <trkpt lat="42.8676" lon="0.22227">
        <ele>2493.6</ele>
        <time>2022-02-09T12:53:11Z</time>
      </trkpt>
      <trkpt lat="42.86761" lon="0.22228">
        <ele>2493.4</ele>
        <time>2022-02-09T12:53:12Z</time>
      </trkpt>
      <trkpt lat="42.86762" lon="0.22228">
        <ele>2493.3</ele>
        <time>2022-02-09T12:53:13Z</time>
      </trkpt>
      <trkpt lat="42.86762" lon="0.22228">
        <ele>2493.2</ele>
        <time>2022-02-09T12:53:14Z</time>
      </trkpt>
      <trkpt lat="42.86762" lon="0.22228">
        <ele>2493.2</ele>
        <time>2022-02-09T12:53:15Z</time>
      </trkpt>
      <trkpt lat="42.86762" lon="0.22228">
        <ele>2493.2</ele>
        <time>2022-02-09T12:53:16Z</time>
      </trkpt>
      <trkpt lat="42.86762" lon="0.22228">
        <ele>2493.2</ele>
        <time>2022-02-09T12:53:17Z</time>
      </trkpt>
      <trkpt lat="42.86762" lon="0.22228">
        <ele>2493.2</ele>
        <time>2022-02-09T12:53:18Z</time>
      </trkpt>
      <trkpt lat="42.86762" lon="0.22228">
        <ele>2493.2</ele>
        <time>2022-02-09T12:53:19Z</time>
      </trkpt>
      <trkpt lat="42.86762" lon="0.22228">
        <ele>2493.2</ele>
        <time>2022-02-09T12:53:20Z</time>
      </trkpt>
      <trkpt lat="42.86762" lon="0.22228">
        <ele>2493.2</ele>
        <time>2022-02-09T12:53:21Z</time>
      </trkpt>
      <trkpt lat="42.86762" lon="0.22228">
        <ele>2493.2</ele>
        <time>2022-02-09T12:53:22Z</time>
      </trkpt>
      <trkpt lat="42.86762" lon="0.22228">
        <ele>2493.2</ele>
        <time>2022-02-09T12:53:23Z</time>
      </trkpt>
      <trkpt lat="42.86762" lon="0.22228">
        <ele>2493.2</ele>
        <time>2022-02-09T12:53:24Z</time>
      </trkpt>
      <trkpt lat="42.86762" lon="0.22228">
        <ele>2493.2</ele>
        <time>2022-02-09T12:53:25Z</time>
      </trkpt>
      <trkpt lat="42.86762" lon="0.22228">
        <ele>2493.2</ele>
        <time>2022-02-09T12:53:26Z</time>
      </trkpt>
      <trkpt lat="42.86762" lon="0.22228">
        <ele>2493.2</ele>
        <time>2022-02-09T12:53:27Z</time>
      </trkpt>
      <trkpt lat="42.86762" lon="0.22228">
        <ele>2493.2</ele>
        <time>2022-02-09T12:53:28Z</time>
      </trkpt>
      <trkpt lat="42.86762" lon="0.22228">
        <ele>2493.2</ele>
        <time>2022-02-09T12:53:29Z</time>
      </trkpt>
      <trkpt lat="42.86762" lon="0.22228">
        <ele>2493.2</ele>
        <time>2022-02-09T12:53:30Z</time>
      </trkpt>
      <trkpt lat="42.86762" lon="0.22228">
        <ele>2493.2</ele>
        <time>2022-02-09T12:53:31Z</time>
      </trkpt>
      <trkpt lat="42.86762" lon="0.22228">
        <ele>2493.2</ele>
        <time>2022-02-09T12:53:32Z</time>
      </trkpt>
      <trkpt lat="42.86762" lon="0.22228">
        <ele>2493.2</ele>
        <time>2022-02-09T12:53:33Z</time>
      </trkpt>
      <trkpt lat="42.86762" lon="0.22228">
        <ele>2493.2</ele>
        <time>2022-02-09T12:53:34Z</time>
      </trkpt>
      <trkpt lat="42.86762" lon="0.22228">
        <ele>2493.2</ele>
        <time>2022-02-09T12:53:35Z</time>
      </trkpt>
      <trkpt lat="42.86762" lon="0.22228">
        <ele>2493.2</ele>
        <time>2022-02-09T12:53:36Z</time>
      </trkpt>
      <trkpt lat="42.86762" lon="0.22228">
        <ele>2493.2</ele>
        <time>2022-02-09T12:53:37Z</time>
      </trkpt>
      <trkpt lat="42.86762" lon="0.22228">
        <ele>2493.2</ele>
        <time>2022-02-09T12:53:38Z</time>
      </trkpt>
      <trkpt lat="42.86762" lon="0.22228">
        <ele>2493.2</ele>
        <time>2022-02-09T12:53:39Z</time>
      </trkpt>
      <trkpt lat="42.86762" lon="0.22228">
        <ele>2493.2</ele>
        <time>2022-02-09T12:53:40Z</time>
      </trkpt>
      <trkpt lat="42.86762" lon="0.22228">
        <ele>2493.2</ele>
        <time>2022-02-09T12:53:41Z</time>
      </trkpt>
      <trkpt lat="42.86762" lon="0.22228">
        <ele>2493.2</ele>
        <time>2022-02-09T12:53:42Z</time>
      </trkpt>
      <trkpt lat="42.86762" lon="0.2223">
        <ele>2493.1</ele>
        <time>2022-02-09T12:53:43Z</time>
      </trkpt>
      <trkpt lat="42.86761" lon="0.22233">
        <ele>2492.7</ele>
        <time>2022-02-09T12:53:44Z</time>
      </trkpt>
      <trkpt lat="42.86761" lon="0.22237">
        <ele>2492.3</ele>
        <time>2022-02-09T12:53:45Z</time>
      </trkpt>
      <trkpt lat="42.86763" lon="0.22241">
        <ele>2491.7</ele>
        <time>2022-02-09T12:53:46Z</time>
      </trkpt>
      <trkpt lat="42.86765" lon="0.22245">
        <ele>2491.2</ele>
        <time>2022-02-09T12:53:47Z</time>
      </trkpt>
      <trkpt lat="42.86767" lon="0.22247">
        <ele>2490.8</ele>
        <time>2022-02-09T12:53:48Z</time>
      </trkpt>
      <trkpt lat="42.86769" lon="0.22249">
        <ele>2490.5</ele>
        <time>2022-02-09T12:53:49Z</time>
      </trkpt>
      <trkpt lat="42.8677" lon="0.22251">
        <ele>2490.2</ele>
        <time>2022-02-09T12:53:50Z</time>
      </trkpt>
      <trkpt lat="42.86772" lon="0.22252">
        <ele>2490</ele>
        <time>2022-02-09T12:53:51Z</time>
      </trkpt>
      <trkpt lat="42.86773" lon="0.22253">
        <ele>2489.8</ele>
        <time>2022-02-09T12:53:52Z</time>
      </trkpt>
      <trkpt lat="42.86773" lon="0.22254">
        <ele>2489.6</ele>
        <time>2022-02-09T12:53:53Z</time>
      </trkpt>
      <trkpt lat="42.86773" lon="0.22255">
        <ele>2489.5</ele>
        <time>2022-02-09T12:53:54Z</time>
      </trkpt>
      <trkpt lat="42.86773" lon="0.22255">
        <ele>2489.5</ele>
        <time>2022-02-09T12:53:55Z</time>
      </trkpt>
      <trkpt lat="42.86773" lon="0.22255">
        <ele>2489.5</ele>
        <time>2022-02-09T12:53:56Z</time>
      </trkpt>
      <trkpt lat="42.86773" lon="0.22255">
        <ele>2489.5</ele>
        <time>2022-02-09T12:53:57Z</time>
      </trkpt>
      <trkpt lat="42.86775" lon="0.22256">
        <ele>2489.3</ele>
        <time>2022-02-09T12:53:58Z</time>
      </trkpt>
      <trkpt lat="42.86777" lon="0.22257">
        <ele>2488.9</ele>
        <time>2022-02-09T12:53:59Z</time>
      </trkpt>
      <trkpt lat="42.86778" lon="0.22258">
        <ele>2488.7</ele>
        <time>2022-02-09T12:54:00Z</time>
      </trkpt>
      <trkpt lat="42.86779" lon="0.22259">
        <ele>2488.6</ele>
        <time>2022-02-09T12:54:01Z</time>
      </trkpt>
      <trkpt lat="42.8678" lon="0.2226">
        <ele>2488.3</ele>
        <time>2022-02-09T12:54:02Z</time>
      </trkpt>
      <trkpt lat="42.86782" lon="0.22261">
        <ele>2488.1</ele>
        <time>2022-02-09T12:54:03Z</time>
      </trkpt>
      <trkpt lat="42.86783" lon="0.22262">
        <ele>2487.8</ele>
        <time>2022-02-09T12:54:04Z</time>
      </trkpt>
      <trkpt lat="42.86785" lon="0.22263">
        <ele>2487.6</ele>
        <time>2022-02-09T12:54:05Z</time>
      </trkpt>
      <trkpt lat="42.86786" lon="0.22264">
        <ele>2487.3</ele>
        <time>2022-02-09T12:54:06Z</time>
      </trkpt>
      <trkpt lat="42.86788" lon="0.22265">
        <ele>2487</ele>
        <time>2022-02-09T12:54:07Z</time>
      </trkpt>
      <trkpt lat="42.8679" lon="0.22266">
        <ele>2486.7</ele>
        <time>2022-02-09T12:54:08Z</time>
      </trkpt>
      <trkpt lat="42.86791" lon="0.22267">
        <ele>2486.5</ele>
        <time>2022-02-09T12:54:09Z</time>
      </trkpt>
      <trkpt lat="42.86792" lon="0.22268">
        <ele>2486.3</ele>
        <time>2022-02-09T12:54:10Z</time>
      </trkpt>
      <trkpt lat="42.86793" lon="0.22268">
        <ele>2486.2</ele>
        <time>2022-02-09T12:54:11Z</time>
      </trkpt>
      <trkpt lat="42.86793" lon="0.22268">
        <ele>2486.2</ele>
        <time>2022-02-09T12:54:12Z</time>
      </trkpt>
      <trkpt lat="42.86793" lon="0.22268">
        <ele>2486.2</ele>
        <time>2022-02-09T12:54:13Z</time>
      </trkpt>
      <trkpt lat="42.86793" lon="0.22268">
        <ele>2486.2</ele>
        <time>2022-02-09T12:54:14Z</time>
      </trkpt>
      <trkpt lat="42.86793" lon="0.22268">
        <ele>2486.2</ele>
        <time>2022-02-09T12:54:15Z</time>
      </trkpt>
      <trkpt lat="42.86793" lon="0.22268">
        <ele>2486.2</ele>
        <time>2022-02-09T12:54:16Z</time>
      </trkpt>
      <trkpt lat="42.86793" lon="0.2227">
        <ele>2486</ele>
        <time>2022-02-09T12:54:17Z</time>
      </trkpt>
      <trkpt lat="42.86793" lon="0.22272">
        <ele>2485.7</ele>
        <time>2022-02-09T12:54:18Z</time>
      </trkpt>
      <trkpt lat="42.86792" lon="0.22272">
        <ele>2485.6</ele>
        <time>2022-02-09T12:54:19Z</time>
      </trkpt>
      <trkpt lat="42.86791" lon="0.22273">
        <ele>2485.5</ele>
        <time>2022-02-09T12:54:20Z</time>
      </trkpt>
      <trkpt lat="42.8679" lon="0.22273">
        <ele>2485.3</ele>
        <time>2022-02-09T12:54:21Z</time>
      </trkpt>
      <trkpt lat="42.86789" lon="0.22274">
        <ele>2485.1</ele>
        <time>2022-02-09T12:54:22Z</time>
      </trkpt>
      <trkpt lat="42.86788" lon="0.22274">
        <ele>2485</ele>
        <time>2022-02-09T12:54:23Z</time>
      </trkpt>
      <trkpt lat="42.86788" lon="0.22275">
        <ele>2484.9</ele>
        <time>2022-02-09T12:54:24Z</time>
      </trkpt>
      <trkpt lat="42.86789" lon="0.22277">
        <ele>2484.6</ele>
        <time>2022-02-09T12:54:25Z</time>
      </trkpt>
      <trkpt lat="42.86791" lon="0.2228">
        <ele>2484.2</ele>
        <time>2022-02-09T12:54:26Z</time>
      </trkpt>
      <trkpt lat="42.86792" lon="0.22281">
        <ele>2484</ele>
        <time>2022-02-09T12:54:27Z</time>
      </trkpt>
      <trkpt lat="42.86793" lon="0.22282">
        <ele>2483.8</ele>
        <time>2022-02-09T12:54:28Z</time>
      </trkpt>
      <trkpt lat="42.86794" lon="0.22283">
        <ele>2483.7</ele>
        <time>2022-02-09T12:54:29Z</time>
      </trkpt>
      <trkpt lat="42.86793" lon="0.22284">
        <ele>2483.5</ele>
        <time>2022-02-09T12:54:30Z</time>
      </trkpt>
      <trkpt lat="42.86791" lon="0.22285">
        <ele>2483.3</ele>
        <time>2022-02-09T12:54:31Z</time>
      </trkpt>
      <trkpt lat="42.86791" lon="0.22285">
        <ele>2483.1</ele>
        <time>2022-02-09T12:54:32Z</time>
      </trkpt>
      <trkpt lat="42.8679" lon="0.22286">
        <ele>2483</ele>
        <time>2022-02-09T12:54:33Z</time>
      </trkpt>
      <trkpt lat="42.86788" lon="0.22287">
        <ele>2482.7</ele>
        <time>2022-02-09T12:54:34Z</time>
      </trkpt>
      <trkpt lat="42.86787" lon="0.22289">
        <ele>2482.5</ele>
        <time>2022-02-09T12:54:35Z</time>
      </trkpt>
      <trkpt lat="42.86785" lon="0.2229">
        <ele>2482.2</ele>
        <time>2022-02-09T12:54:36Z</time>
      </trkpt>
      <trkpt lat="42.86785" lon="0.22293">
        <ele>2481.9</ele>
        <time>2022-02-09T12:54:37Z</time>
      </trkpt>
      <trkpt lat="42.86787" lon="0.22297">
        <ele>2481.3</ele>
        <time>2022-02-09T12:54:38Z</time>
      </trkpt>
      <trkpt lat="42.8679" lon="0.22301">
        <ele>2480.6</ele>
        <time>2022-02-09T12:54:39Z</time>
      </trkpt>
      <trkpt lat="42.86793" lon="0.22306">
        <ele>2480</ele>
        <time>2022-02-09T12:54:40Z</time>
      </trkpt>
      <trkpt lat="42.86795" lon="0.2231">
        <ele>2479.4</ele>
        <time>2022-02-09T12:54:41Z</time>
      </trkpt>
      <trkpt lat="42.86796" lon="0.22314">
        <ele>2478.9</ele>
        <time>2022-02-09T12:54:42Z</time>
      </trkpt>
      <trkpt lat="42.86796" lon="0.22317">
        <ele>2478.7</ele>
        <time>2022-02-09T12:54:43Z</time>
      </trkpt>
      <trkpt lat="42.86796" lon="0.22317">
        <ele>2478.6</ele>
        <time>2022-02-09T12:54:44Z</time>
      </trkpt>
      <trkpt lat="42.86796" lon="0.22317">
        <ele>2478.6</ele>
        <time>2022-02-09T12:54:45Z</time>
      </trkpt>
      <trkpt lat="42.86796" lon="0.22318">
        <ele>2478.6</ele>
        <time>2022-02-09T12:54:46Z</time>
      </trkpt>
      <trkpt lat="42.86796" lon="0.22318">
        <ele>2478.6</ele>
        <time>2022-02-09T12:54:47Z</time>
      </trkpt>
      <trkpt lat="42.86796" lon="0.22318">
        <ele>2478.6</ele>
        <time>2022-02-09T12:54:48Z</time>
      </trkpt>
      <trkpt lat="42.86796" lon="0.22318">
        <ele>2478.6</ele>
        <time>2022-02-09T12:54:49Z</time>
      </trkpt>
      <trkpt lat="42.86796" lon="0.22318">
        <ele>2478.6</ele>
        <time>2022-02-09T12:54:50Z</time>
      </trkpt>
      <trkpt lat="42.86796" lon="0.22318">
        <ele>2478.6</ele>
        <time>2022-02-09T12:54:51Z</time>
      </trkpt>
      <trkpt lat="42.86796" lon="0.22318">
        <ele>2478.6</ele>
        <time>2022-02-09T12:54:52Z</time>
      </trkpt>
      <trkpt lat="42.86796" lon="0.22318">
        <ele>2478.6</ele>
        <time>2022-02-09T12:54:53Z</time>
      </trkpt>
      <trkpt lat="42.86796" lon="0.22318">
        <ele>2478.6</ele>
        <time>2022-02-09T12:54:54Z</time>
      </trkpt>
      <trkpt lat="42.86796" lon="0.22318">
        <ele>2478.6</ele>
        <time>2022-02-09T12:54:55Z</time>
      </trkpt>
      <trkpt lat="42.86796" lon="0.22318">
        <ele>2478.6</ele>
        <time>2022-02-09T12:54:56Z</time>
      </trkpt>
      <trkpt lat="42.86796" lon="0.22318">
        <ele>2478.6</ele>
        <time>2022-02-09T12:54:57Z</time>
      </trkpt>
      <trkpt lat="42.86796" lon="0.22318">
        <ele>2478.6</ele>
        <time>2022-02-09T12:54:58Z</time>
      </trkpt>
      <trkpt lat="42.86796" lon="0.22318">
        <ele>2478.6</ele>
        <time>2022-02-09T12:54:59Z</time>
      </trkpt>
      <trkpt lat="42.86796" lon="0.22318">
        <ele>2478.6</ele>
        <time>2022-02-09T12:55:00Z</time>
      </trkpt>
      <trkpt lat="42.86796" lon="0.22318">
        <ele>2478.6</ele>
        <time>2022-02-09T12:55:01Z</time>
      </trkpt>
      <trkpt lat="42.86796" lon="0.22318">
        <ele>2478.6</ele>
        <time>2022-02-09T12:55:02Z</time>
      </trkpt>
      <trkpt lat="42.86796" lon="0.22318">
        <ele>2478.6</ele>
        <time>2022-02-09T12:55:03Z</time>
      </trkpt>
      <trkpt lat="42.86796" lon="0.22318">
        <ele>2478.6</ele>
        <time>2022-02-09T12:55:04Z</time>
      </trkpt>
      <trkpt lat="42.86796" lon="0.22318">
        <ele>2478.6</ele>
        <time>2022-02-09T12:55:05Z</time>
      </trkpt>
      <trkpt lat="42.86796" lon="0.22318">
        <ele>2478.6</ele>
        <time>2022-02-09T12:55:06Z</time>
      </trkpt>
      <trkpt lat="42.86796" lon="0.22318">
        <ele>2478.6</ele>
        <time>2022-02-09T12:55:07Z</time>
      </trkpt>
      <trkpt lat="42.86796" lon="0.22318">
        <ele>2478.6</ele>
        <time>2022-02-09T12:55:08Z</time>
      </trkpt>
      <trkpt lat="42.86796" lon="0.22318">
        <ele>2478.6</ele>
        <time>2022-02-09T12:55:09Z</time>
      </trkpt>
      <trkpt lat="42.86796" lon="0.22318">
        <ele>2478.6</ele>
        <time>2022-02-09T12:55:10Z</time>
      </trkpt>
      <trkpt lat="42.86796" lon="0.22318">
        <ele>2478.6</ele>
        <time>2022-02-09T12:55:11Z</time>
      </trkpt>
      <trkpt lat="42.86796" lon="0.22318">
        <ele>2478.6</ele>
        <time>2022-02-09T12:55:12Z</time>
      </trkpt>
      <trkpt lat="42.86796" lon="0.22318">
        <ele>2478.6</ele>
        <time>2022-02-09T12:55:13Z</time>
      </trkpt>
      <trkpt lat="42.86796" lon="0.22318">
        <ele>2478.6</ele>
        <time>2022-02-09T12:55:14Z</time>
      </trkpt>
      <trkpt lat="42.86796" lon="0.22318">
        <ele>2478.6</ele>
        <time>2022-02-09T12:55:15Z</time>
      </trkpt>
      <trkpt lat="42.86796" lon="0.22318">
        <ele>2478.6</ele>
        <time>2022-02-09T12:55:16Z</time>
      </trkpt>
      <trkpt lat="42.86796" lon="0.22318">
        <ele>2478.6</ele>
        <time>2022-02-09T12:55:17Z</time>
      </trkpt>
      <trkpt lat="42.86796" lon="0.22318">
        <ele>2478.6</ele>
        <time>2022-02-09T12:55:18Z</time>
      </trkpt>
      <trkpt lat="42.86796" lon="0.22318">
        <ele>2478.6</ele>
        <time>2022-02-09T12:55:19Z</time>
      </trkpt>
      <trkpt lat="42.86796" lon="0.22318">
        <ele>2478.6</ele>
        <time>2022-02-09T12:55:20Z</time>
      </trkpt>
      <trkpt lat="42.86796" lon="0.22318">
        <ele>2478.6</ele>
        <time>2022-02-09T12:55:21Z</time>
      </trkpt>
      <trkpt lat="42.86796" lon="0.22318">
        <ele>2478.6</ele>
        <time>2022-02-09T12:55:22Z</time>
      </trkpt>
      <trkpt lat="42.86796" lon="0.22318">
        <ele>2478.6</ele>
        <time>2022-02-09T12:55:23Z</time>
      </trkpt>
      <trkpt lat="42.86796" lon="0.22318">
        <ele>2478.6</ele>
        <time>2022-02-09T12:55:24Z</time>
      </trkpt>
      <trkpt lat="42.86796" lon="0.22318">
        <ele>2478.6</ele>
        <time>2022-02-09T12:55:25Z</time>
      </trkpt>
      <trkpt lat="42.86796" lon="0.22318">
        <ele>2478.6</ele>
        <time>2022-02-09T12:55:26Z</time>
      </trkpt>
      <trkpt lat="42.86796" lon="0.22318">
        <ele>2478.6</ele>
        <time>2022-02-09T12:55:27Z</time>
      </trkpt>
      <trkpt lat="42.86796" lon="0.22318">
        <ele>2478.6</ele>
        <time>2022-02-09T12:55:28Z</time>
      </trkpt>
      <trkpt lat="42.86796" lon="0.22318">
        <ele>2478.6</ele>
        <time>2022-02-09T12:55:29Z</time>
      </trkpt>
      <trkpt lat="42.86796" lon="0.22318">
        <ele>2478.6</ele>
        <time>2022-02-09T12:55:30Z</time>
      </trkpt>
      <trkpt lat="42.86796" lon="0.22318">
        <ele>2478.6</ele>
        <time>2022-02-09T12:55:31Z</time>
      </trkpt>
      <trkpt lat="42.86796" lon="0.22318">
        <ele>2478.6</ele>
        <time>2022-02-09T12:55:32Z</time>
      </trkpt>
      <trkpt lat="42.86796" lon="0.22318">
        <ele>2478.6</ele>
        <time>2022-02-09T12:55:33Z</time>
      </trkpt>
      <trkpt lat="42.86796" lon="0.22318">
        <ele>2478.6</ele>
        <time>2022-02-09T12:55:34Z</time>
      </trkpt>
      <trkpt lat="42.86796" lon="0.22318">
        <ele>2478.6</ele>
        <time>2022-02-09T12:55:35Z</time>
      </trkpt>
      <trkpt lat="42.86796" lon="0.22318">
        <ele>2478.6</ele>
        <time>2022-02-09T12:55:36Z</time>
      </trkpt>
      <trkpt lat="42.86796" lon="0.22318">
        <ele>2478.6</ele>
        <time>2022-02-09T12:55:37Z</time>
      </trkpt>
      <trkpt lat="42.86796" lon="0.22318">
        <ele>2478.6</ele>
        <time>2022-02-09T12:55:38Z</time>
      </trkpt>
      <trkpt lat="42.86796" lon="0.22318">
        <ele>2478.6</ele>
        <time>2022-02-09T12:55:39Z</time>
      </trkpt>
      <trkpt lat="42.86796" lon="0.22318">
        <ele>2478.6</ele>
        <time>2022-02-09T12:55:40Z</time>
      </trkpt>
      <trkpt lat="42.86796" lon="0.22318">
        <ele>2478.6</ele>
        <time>2022-02-09T12:55:41Z</time>
      </trkpt>
      <trkpt lat="42.86796" lon="0.22318">
        <ele>2478.6</ele>
        <time>2022-02-09T12:55:42Z</time>
      </trkpt>
      <trkpt lat="42.86796" lon="0.22318">
        <ele>2478.6</ele>
        <time>2022-02-09T12:55:43Z</time>
      </trkpt>
      <trkpt lat="42.86796" lon="0.22318">
        <ele>2478.6</ele>
        <time>2022-02-09T12:55:44Z</time>
      </trkpt>
      <trkpt lat="42.86796" lon="0.22318">
        <ele>2478.6</ele>
        <time>2022-02-09T12:55:45Z</time>
      </trkpt>
      <trkpt lat="42.86796" lon="0.22318">
        <ele>2478.6</ele>
        <time>2022-02-09T12:55:46Z</time>
      </trkpt>
      <trkpt lat="42.86796" lon="0.22318">
        <ele>2478.6</ele>
        <time>2022-02-09T12:55:47Z</time>
      </trkpt>
      <trkpt lat="42.86796" lon="0.22318">
        <ele>2478.6</ele>
        <time>2022-02-09T12:55:48Z</time>
      </trkpt>
      <trkpt lat="42.86796" lon="0.22318">
        <ele>2478.6</ele>
        <time>2022-02-09T12:55:49Z</time>
      </trkpt>
      <trkpt lat="42.86796" lon="0.22318">
        <ele>2478.6</ele>
        <time>2022-02-09T12:55:50Z</time>
      </trkpt>
      <trkpt lat="42.86796" lon="0.22318">
        <ele>2478.6</ele>
        <time>2022-02-09T12:55:51Z</time>
      </trkpt>
      <trkpt lat="42.86796" lon="0.22318">
        <ele>2478.6</ele>
        <time>2022-02-09T12:55:52Z</time>
      </trkpt>
      <trkpt lat="42.86796" lon="0.22318">
        <ele>2478.6</ele>
        <time>2022-02-09T12:55:53Z</time>
      </trkpt>
      <trkpt lat="42.86796" lon="0.22318">
        <ele>2478.6</ele>
        <time>2022-02-09T12:55:54Z</time>
      </trkpt>
      <trkpt lat="42.86796" lon="0.22318">
        <ele>2478.6</ele>
        <time>2022-02-09T12:55:55Z</time>
      </trkpt>
      <trkpt lat="42.86796" lon="0.22318">
        <ele>2478.6</ele>
        <time>2022-02-09T12:55:56Z</time>
      </trkpt>
      <trkpt lat="42.86796" lon="0.22318">
        <ele>2478.6</ele>
        <time>2022-02-09T12:55:57Z</time>
      </trkpt>
      <trkpt lat="42.86796" lon="0.22318">
        <ele>2478.6</ele>
        <time>2022-02-09T12:55:58Z</time>
      </trkpt>
      <trkpt lat="42.86796" lon="0.22318">
        <ele>2478.6</ele>
        <time>2022-02-09T12:55:59Z</time>
      </trkpt>
      <trkpt lat="42.86796" lon="0.22318">
        <ele>2478.6</ele>
        <time>2022-02-09T12:56:00Z</time>
      </trkpt>
      <trkpt lat="42.86796" lon="0.22318">
        <ele>2478.6</ele>
        <time>2022-02-09T12:56:01Z</time>
      </trkpt>
      <trkpt lat="42.86796" lon="0.22318">
        <ele>2478.6</ele>
        <time>2022-02-09T12:56:02Z</time>
      </trkpt>
      <trkpt lat="42.86796" lon="0.22318">
        <ele>2478.6</ele>
        <time>2022-02-09T12:56:03Z</time>
      </trkpt>
      <trkpt lat="42.86796" lon="0.22318">
        <ele>2478.6</ele>
        <time>2022-02-09T12:56:04Z</time>
      </trkpt>
      <trkpt lat="42.86796" lon="0.22318">
        <ele>2478.6</ele>
        <time>2022-02-09T12:56:05Z</time>
      </trkpt>
      <trkpt lat="42.86796" lon="0.22318">
        <ele>2478.6</ele>
        <time>2022-02-09T12:56:06Z</time>
      </trkpt>
      <trkpt lat="42.86796" lon="0.22318">
        <ele>2478.6</ele>
        <time>2022-02-09T12:56:07Z</time>
      </trkpt>
      <trkpt lat="42.86796" lon="0.22318">
        <ele>2478.6</ele>
        <time>2022-02-09T12:56:08Z</time>
      </trkpt>
      <trkpt lat="42.86796" lon="0.22318">
        <ele>2478.6</ele>
        <time>2022-02-09T12:56:09Z</time>
      </trkpt>
      <trkpt lat="42.86796" lon="0.22318">
        <ele>2478.6</ele>
        <time>2022-02-09T12:56:10Z</time>
      </trkpt>
      <trkpt lat="42.86796" lon="0.22318">
        <ele>2478.6</ele>
        <time>2022-02-09T12:56:11Z</time>
      </trkpt>
      <trkpt lat="42.86796" lon="0.22318">
        <ele>2478.6</ele>
        <time>2022-02-09T12:56:12Z</time>
      </trkpt>
      <trkpt lat="42.86796" lon="0.22318">
        <ele>2478.6</ele>
        <time>2022-02-09T12:56:13Z</time>
      </trkpt>
      <trkpt lat="42.86796" lon="0.22318">
        <ele>2478.6</ele>
        <time>2022-02-09T12:56:14Z</time>
      </trkpt>
      <trkpt lat="42.86796" lon="0.22318">
        <ele>2478.6</ele>
        <time>2022-02-09T12:56:15Z</time>
      </trkpt>
      <trkpt lat="42.86796" lon="0.22318">
        <ele>2478.6</ele>
        <time>2022-02-09T12:56:16Z</time>
      </trkpt>
      <trkpt lat="42.86796" lon="0.22318">
        <ele>2478.6</ele>
        <time>2022-02-09T12:56:17Z</time>
      </trkpt>
      <trkpt lat="42.86796" lon="0.22318">
        <ele>2478.6</ele>
        <time>2022-02-09T12:56:18Z</time>
      </trkpt>
      <trkpt lat="42.86796" lon="0.22318">
        <ele>2478.6</ele>
        <time>2022-02-09T12:56:19Z</time>
      </trkpt>
      <trkpt lat="42.86796" lon="0.22318">
        <ele>2478.6</ele>
        <time>2022-02-09T12:56:20Z</time>
      </trkpt>
      <trkpt lat="42.86796" lon="0.22318">
        <ele>2478.6</ele>
        <time>2022-02-09T12:56:21Z</time>
      </trkpt>
      <trkpt lat="42.86796" lon="0.22318">
        <ele>2478.6</ele>
        <time>2022-02-09T12:56:22Z</time>
      </trkpt>
      <trkpt lat="42.86796" lon="0.22318">
        <ele>2478.6</ele>
        <time>2022-02-09T12:56:23Z</time>
      </trkpt>
      <trkpt lat="42.86796" lon="0.22318">
        <ele>2478.6</ele>
        <time>2022-02-09T12:56:24Z</time>
      </trkpt>
      <trkpt lat="42.86796" lon="0.22318">
        <ele>2478.6</ele>
        <time>2022-02-09T12:56:25Z</time>
      </trkpt>
      <trkpt lat="42.86796" lon="0.22318">
        <ele>2478.6</ele>
        <time>2022-02-09T12:56:26Z</time>
      </trkpt>
      <trkpt lat="42.86796" lon="0.22318">
        <ele>2478.6</ele>
        <time>2022-02-09T12:56:27Z</time>
      </trkpt>
      <trkpt lat="42.86796" lon="0.22318">
        <ele>2478.6</ele>
        <time>2022-02-09T12:56:28Z</time>
      </trkpt>
      <trkpt lat="42.86796" lon="0.22318">
        <ele>2478.6</ele>
        <time>2022-02-09T12:56:29Z</time>
      </trkpt>
      <trkpt lat="42.86796" lon="0.22318">
        <ele>2478.6</ele>
        <time>2022-02-09T12:56:30Z</time>
      </trkpt>
      <trkpt lat="42.86796" lon="0.22318">
        <ele>2478.6</ele>
        <time>2022-02-09T12:56:31Z</time>
      </trkpt>
      <trkpt lat="42.86796" lon="0.22318">
        <ele>2478.6</ele>
        <time>2022-02-09T12:56:32Z</time>
      </trkpt>
      <trkpt lat="42.86796" lon="0.22318">
        <ele>2478.6</ele>
        <time>2022-02-09T12:56:33Z</time>
      </trkpt>
      <trkpt lat="42.86796" lon="0.22318">
        <ele>2478.6</ele>
        <time>2022-02-09T12:56:34Z</time>
      </trkpt>
      <trkpt lat="42.86796" lon="0.22318">
        <ele>2478.6</ele>
        <time>2022-02-09T12:56:35Z</time>
      </trkpt>
      <trkpt lat="42.86796" lon="0.22318">
        <ele>2478.6</ele>
        <time>2022-02-09T12:56:36Z</time>
      </trkpt>
      <trkpt lat="42.86796" lon="0.22318">
        <ele>2478.6</ele>
        <time>2022-02-09T12:56:37Z</time>
      </trkpt>
      <trkpt lat="42.86796" lon="0.22318">
        <ele>2478.6</ele>
        <time>2022-02-09T12:56:38Z</time>
      </trkpt>
      <trkpt lat="42.86796" lon="0.22318">
        <ele>2478.6</ele>
        <time>2022-02-09T12:56:39Z</time>
      </trkpt>
      <trkpt lat="42.86796" lon="0.22318">
        <ele>2478.6</ele>
        <time>2022-02-09T12:56:40Z</time>
      </trkpt>
      <trkpt lat="42.86796" lon="0.22318">
        <ele>2478.6</ele>
        <time>2022-02-09T12:56:41Z</time>
      </trkpt>
      <trkpt lat="42.86796" lon="0.22318">
        <ele>2478.6</ele>
        <time>2022-02-09T12:56:42Z</time>
      </trkpt>
      <trkpt lat="42.86796" lon="0.22318">
        <ele>2478.6</ele>
        <time>2022-02-09T12:56:43Z</time>
      </trkpt>
      <trkpt lat="42.86796" lon="0.22318">
        <ele>2478.6</ele>
        <time>2022-02-09T12:56:44Z</time>
      </trkpt>
      <trkpt lat="42.86796" lon="0.22318">
        <ele>2478.6</ele>
        <time>2022-02-09T12:56:45Z</time>
      </trkpt>
      <trkpt lat="42.86796" lon="0.22318">
        <ele>2478.6</ele>
        <time>2022-02-09T12:56:46Z</time>
      </trkpt>
      <trkpt lat="42.86796" lon="0.22318">
        <ele>2478.6</ele>
        <time>2022-02-09T12:56:47Z</time>
      </trkpt>
      <trkpt lat="42.86796" lon="0.22318">
        <ele>2478.6</ele>
        <time>2022-02-09T12:56:48Z</time>
      </trkpt>
      <trkpt lat="42.86796" lon="0.22318">
        <ele>2478.6</ele>
        <time>2022-02-09T12:56:49Z</time>
      </trkpt>
      <trkpt lat="42.86796" lon="0.22318">
        <ele>2478.6</ele>
        <time>2022-02-09T12:56:50Z</time>
      </trkpt>
      <trkpt lat="42.86796" lon="0.22318">
        <ele>2478.6</ele>
        <time>2022-02-09T12:56:51Z</time>
      </trkpt>
      <trkpt lat="42.86796" lon="0.22318">
        <ele>2478.6</ele>
        <time>2022-02-09T12:56:52Z</time>
      </trkpt>
      <trkpt lat="42.86796" lon="0.22318">
        <ele>2478.6</ele>
        <time>2022-02-09T12:56:53Z</time>
      </trkpt>
      <trkpt lat="42.86796" lon="0.22318">
        <ele>2478.6</ele>
        <time>2022-02-09T12:56:54Z</time>
      </trkpt>
      <trkpt lat="42.86796" lon="0.22318">
        <ele>2478.6</ele>
        <time>2022-02-09T12:56:55Z</time>
      </trkpt>
      <trkpt lat="42.86796" lon="0.22318">
        <ele>2478.6</ele>
        <time>2022-02-09T12:56:56Z</time>
      </trkpt>
      <trkpt lat="42.86796" lon="0.22318">
        <ele>2478.6</ele>
        <time>2022-02-09T12:56:57Z</time>
      </trkpt>
      <trkpt lat="42.86796" lon="0.22318">
        <ele>2478.6</ele>
        <time>2022-02-09T12:56:58Z</time>
      </trkpt>
      <trkpt lat="42.86796" lon="0.22318">
        <ele>2478.6</ele>
        <time>2022-02-09T12:56:59Z</time>
      </trkpt>
      <trkpt lat="42.86796" lon="0.22318">
        <ele>2478.6</ele>
        <time>2022-02-09T12:57:00Z</time>
      </trkpt>
      <trkpt lat="42.86796" lon="0.22318">
        <ele>2478.6</ele>
        <time>2022-02-09T12:57:01Z</time>
      </trkpt>
      <trkpt lat="42.86796" lon="0.22318">
        <ele>2478.6</ele>
        <time>2022-02-09T12:57:02Z</time>
      </trkpt>
      <trkpt lat="42.86796" lon="0.22318">
        <ele>2478.6</ele>
        <time>2022-02-09T12:57:03Z</time>
      </trkpt>
      <trkpt lat="42.86796" lon="0.22318">
        <ele>2478.6</ele>
        <time>2022-02-09T12:57:04Z</time>
      </trkpt>
      <trkpt lat="42.86796" lon="0.22318">
        <ele>2478.6</ele>
        <time>2022-02-09T12:57:05Z</time>
      </trkpt>
      <trkpt lat="42.86796" lon="0.22318">
        <ele>2478.6</ele>
        <time>2022-02-09T12:57:06Z</time>
      </trkpt>
      <trkpt lat="42.86796" lon="0.22318">
        <ele>2478.6</ele>
        <time>2022-02-09T12:57:07Z</time>
      </trkpt>
      <trkpt lat="42.86796" lon="0.22318">
        <ele>2478.6</ele>
        <time>2022-02-09T12:57:08Z</time>
      </trkpt>
      <trkpt lat="42.86796" lon="0.22318">
        <ele>2478.6</ele>
        <time>2022-02-09T12:57:09Z</time>
      </trkpt>
      <trkpt lat="42.86796" lon="0.22318">
        <ele>2478.6</ele>
        <time>2022-02-09T12:57:10Z</time>
      </trkpt>
      <trkpt lat="42.86796" lon="0.22318">
        <ele>2478.6</ele>
        <time>2022-02-09T12:57:11Z</time>
      </trkpt>
      <trkpt lat="42.86796" lon="0.22318">
        <ele>2478.6</ele>
        <time>2022-02-09T12:57:12Z</time>
      </trkpt>
      <trkpt lat="42.86796" lon="0.22318">
        <ele>2478.6</ele>
        <time>2022-02-09T12:57:13Z</time>
      </trkpt>
      <trkpt lat="42.86796" lon="0.22318">
        <ele>2478.6</ele>
        <time>2022-02-09T12:57:14Z</time>
      </trkpt>
      <trkpt lat="42.86795" lon="0.22322">
        <ele>2478</ele>
        <time>2022-02-09T12:57:15Z</time>
      </trkpt>
      <trkpt lat="42.86793" lon="0.22329">
        <ele>2477.2</ele>
        <time>2022-02-09T12:57:16Z</time>
      </trkpt>
      <trkpt lat="42.86792" lon="0.22329">
        <ele>2477</ele>
        <time>2022-02-09T12:57:17Z</time>
      </trkpt>
      <trkpt lat="42.86791" lon="0.22329">
        <ele>2476.9</ele>
        <time>2022-02-09T12:57:18Z</time>
      </trkpt>
      <trkpt lat="42.86791" lon="0.22329">
        <ele>2476.9</ele>
        <time>2022-02-09T12:57:19Z</time>
      </trkpt>
      <trkpt lat="42.86791" lon="0.22329">
        <ele>2476.9</ele>
        <time>2022-02-09T12:57:20Z</time>
      </trkpt>
      <trkpt lat="42.86791" lon="0.22329">
        <ele>2476.9</ele>
        <time>2022-02-09T12:57:21Z</time>
      </trkpt>
      <trkpt lat="42.86791" lon="0.22329">
        <ele>2476.9</ele>
        <time>2022-02-09T12:57:22Z</time>
      </trkpt>
      <trkpt lat="42.86791" lon="0.22329">
        <ele>2476.9</ele>
        <time>2022-02-09T12:57:23Z</time>
      </trkpt>
      <trkpt lat="42.86791" lon="0.22329">
        <ele>2476.9</ele>
        <time>2022-02-09T12:57:24Z</time>
      </trkpt>
      <trkpt lat="42.86791" lon="0.22329">
        <ele>2476.9</ele>
        <time>2022-02-09T12:57:25Z</time>
      </trkpt>
      <trkpt lat="42.86791" lon="0.22329">
        <ele>2476.9</ele>
        <time>2022-02-09T12:57:26Z</time>
      </trkpt>
      <trkpt lat="42.86792" lon="0.22333">
        <ele>2476.4</ele>
        <time>2022-02-09T12:57:27Z</time>
      </trkpt>
      <trkpt lat="42.86794" lon="0.2234">
        <ele>2475.6</ele>
        <time>2022-02-09T12:57:28Z</time>
      </trkpt>
      <trkpt lat="42.86794" lon="0.22341">
        <ele>2475.5</ele>
        <time>2022-02-09T12:57:29Z</time>
      </trkpt>
      <trkpt lat="42.86793" lon="0.22342">
        <ele>2475.4</ele>
        <time>2022-02-09T12:57:30Z</time>
      </trkpt>
      <trkpt lat="42.86792" lon="0.22343">
        <ele>2475.2</ele>
        <time>2022-02-09T12:57:31Z</time>
      </trkpt>
      <trkpt lat="42.86792" lon="0.22345">
        <ele>2475</ele>
        <time>2022-02-09T12:57:32Z</time>
      </trkpt>
      <trkpt lat="42.86791" lon="0.22346">
        <ele>2474.8</ele>
        <time>2022-02-09T12:57:33Z</time>
      </trkpt>
      <trkpt lat="42.8679" lon="0.22348">
        <ele>2474.6</ele>
        <time>2022-02-09T12:57:34Z</time>
      </trkpt>
      <trkpt lat="42.86789" lon="0.22348">
        <ele>2474.4</ele>
        <time>2022-02-09T12:57:35Z</time>
      </trkpt>
      <trkpt lat="42.86788" lon="0.22348">
        <ele>2474.2</ele>
        <time>2022-02-09T12:57:36Z</time>
      </trkpt>
      <trkpt lat="42.86787" lon="0.22347">
        <ele>2474.1</ele>
        <time>2022-02-09T12:57:37Z</time>
      </trkpt>
      <trkpt lat="42.86787" lon="0.22347">
        <ele>2474.1</ele>
        <time>2022-02-09T12:57:38Z</time>
      </trkpt>
      <trkpt lat="42.86787" lon="0.22347">
        <ele>2474.1</ele>
        <time>2022-02-09T12:57:39Z</time>
      </trkpt>
      <trkpt lat="42.86787" lon="0.22347">
        <ele>2474.1</ele>
        <time>2022-02-09T12:57:40Z</time>
      </trkpt>
      <trkpt lat="42.86787" lon="0.22347">
        <ele>2474.1</ele>
        <time>2022-02-09T12:57:41Z</time>
      </trkpt>
      <trkpt lat="42.86787" lon="0.22347">
        <ele>2474.1</ele>
        <time>2022-02-09T12:57:42Z</time>
      </trkpt>
      <trkpt lat="42.86787" lon="0.22347">
        <ele>2474.1</ele>
        <time>2022-02-09T12:57:43Z</time>
      </trkpt>
      <trkpt lat="42.86787" lon="0.22347">
        <ele>2474.1</ele>
        <time>2022-02-09T12:57:44Z</time>
      </trkpt>
      <trkpt lat="42.86787" lon="0.22347">
        <ele>2474.1</ele>
        <time>2022-02-09T12:57:45Z</time>
      </trkpt>
      <trkpt lat="42.86787" lon="0.22347">
        <ele>2474.1</ele>
        <time>2022-02-09T12:57:46Z</time>
      </trkpt>
      <trkpt lat="42.86787" lon="0.22347">
        <ele>2474.1</ele>
        <time>2022-02-09T12:57:47Z</time>
      </trkpt>
      <trkpt lat="42.86787" lon="0.22347">
        <ele>2474.1</ele>
        <time>2022-02-09T12:57:48Z</time>
      </trkpt>
      <trkpt lat="42.86787" lon="0.22347">
        <ele>2474.1</ele>
        <time>2022-02-09T12:57:49Z</time>
      </trkpt>
      <trkpt lat="42.86787" lon="0.22347">
        <ele>2474.1</ele>
        <time>2022-02-09T12:57:50Z</time>
      </trkpt>
      <trkpt lat="42.86787" lon="0.22347">
        <ele>2474.1</ele>
        <time>2022-02-09T12:57:51Z</time>
      </trkpt>
      <trkpt lat="42.86787" lon="0.22347">
        <ele>2474.1</ele>
        <time>2022-02-09T12:57:52Z</time>
      </trkpt>
      <trkpt lat="42.86787" lon="0.22347">
        <ele>2474.1</ele>
        <time>2022-02-09T12:57:53Z</time>
      </trkpt>
      <trkpt lat="42.86787" lon="0.22347">
        <ele>2474.1</ele>
        <time>2022-02-09T12:57:54Z</time>
      </trkpt>
      <trkpt lat="42.86785" lon="0.22348">
        <ele>2473.8</ele>
        <time>2022-02-09T12:57:55Z</time>
      </trkpt>
      <trkpt lat="42.86781" lon="0.2235">
        <ele>2473.1</ele>
        <time>2022-02-09T12:57:56Z</time>
      </trkpt>
      <trkpt lat="42.86778" lon="0.22352">
        <ele>2472.6</ele>
        <time>2022-02-09T12:57:57Z</time>
      </trkpt>
      <trkpt lat="42.86775" lon="0.22354">
        <ele>2472</ele>
        <time>2022-02-09T12:57:58Z</time>
      </trkpt>
      <trkpt lat="42.86772" lon="0.22357">
        <ele>2471.5</ele>
        <time>2022-02-09T12:57:59Z</time>
      </trkpt>
      <trkpt lat="42.86769" lon="0.2236">
        <ele>2471</ele>
        <time>2022-02-09T12:58:00Z</time>
      </trkpt>
      <trkpt lat="42.86769" lon="0.22363">
        <ele>2470.7</ele>
        <time>2022-02-09T12:58:01Z</time>
      </trkpt>
      <trkpt lat="42.86769" lon="0.22366">
        <ele>2470.3</ele>
        <time>2022-02-09T12:58:02Z</time>
      </trkpt>
      <trkpt lat="42.8677" lon="0.2237">
        <ele>2469.9</ele>
        <time>2022-02-09T12:58:03Z</time>
      </trkpt>
      <trkpt lat="42.8677" lon="0.22374">
        <ele>2469.4</ele>
        <time>2022-02-09T12:58:04Z</time>
      </trkpt>
      <trkpt lat="42.86768" lon="0.22379">
        <ele>2468.8</ele>
        <time>2022-02-09T12:58:05Z</time>
      </trkpt>
      <trkpt lat="42.86768" lon="0.22383">
        <ele>2468.3</ele>
        <time>2022-02-09T12:58:06Z</time>
      </trkpt>
      <trkpt lat="42.86769" lon="0.22387">
        <ele>2467.8</ele>
        <time>2022-02-09T12:58:07Z</time>
      </trkpt>
      <trkpt lat="42.86771" lon="0.22392">
        <ele>2467.2</ele>
        <time>2022-02-09T12:58:08Z</time>
      </trkpt>
      <trkpt lat="42.86772" lon="0.22398">
        <ele>2466.6</ele>
        <time>2022-02-09T12:58:09Z</time>
      </trkpt>
      <trkpt lat="42.8677" lon="0.22404">
        <ele>2465.9</ele>
        <time>2022-02-09T12:58:10Z</time>
      </trkpt>
      <trkpt lat="42.86768" lon="0.22409">
        <ele>2465.2</ele>
        <time>2022-02-09T12:58:11Z</time>
      </trkpt>
      <trkpt lat="42.86766" lon="0.22414">
        <ele>2464.6</ele>
        <time>2022-02-09T12:58:12Z</time>
      </trkpt>
      <trkpt lat="42.86765" lon="0.22418">
        <ele>2464.1</ele>
        <time>2022-02-09T12:58:13Z</time>
      </trkpt>
      <trkpt lat="42.86763" lon="0.22421">
        <ele>2463.7</ele>
        <time>2022-02-09T12:58:14Z</time>
      </trkpt>
      <trkpt lat="42.86761" lon="0.22424">
        <ele>2463.3</ele>
        <time>2022-02-09T12:58:15Z</time>
      </trkpt>
      <trkpt lat="42.8676" lon="0.22427">
        <ele>2462.9</ele>
        <time>2022-02-09T12:58:16Z</time>
      </trkpt>
      <trkpt lat="42.86758" lon="0.2243">
        <ele>2462.5</ele>
        <time>2022-02-09T12:58:17Z</time>
      </trkpt>
      <trkpt lat="42.86758" lon="0.22433">
        <ele>2462.1</ele>
        <time>2022-02-09T12:58:18Z</time>
      </trkpt>
      <trkpt lat="42.8676" lon="0.22436">
        <ele>2461.7</ele>
        <time>2022-02-09T12:58:19Z</time>
      </trkpt>
      <trkpt lat="42.86764" lon="0.22438">
        <ele>2461.1</ele>
        <time>2022-02-09T12:58:20Z</time>
      </trkpt>
      <trkpt lat="42.86769" lon="0.22438">
        <ele>2460.3</ele>
        <time>2022-02-09T12:58:21Z</time>
      </trkpt>
      <trkpt lat="42.86773" lon="0.22437">
        <ele>2459.6</ele>
        <time>2022-02-09T12:58:22Z</time>
      </trkpt>
      <trkpt lat="42.86778" lon="0.22436">
        <ele>2458.9</ele>
        <time>2022-02-09T12:58:23Z</time>
      </trkpt>
      <trkpt lat="42.86782" lon="0.22437">
        <ele>2458.3</ele>
        <time>2022-02-09T12:58:24Z</time>
      </trkpt>
      <trkpt lat="42.86785" lon="0.22442">
        <ele>2457.6</ele>
        <time>2022-02-09T12:58:25Z</time>
      </trkpt>
      <trkpt lat="42.86787" lon="0.2245">
        <ele>2456.6</ele>
        <time>2022-02-09T12:58:26Z</time>
      </trkpt>
      <trkpt lat="42.86789" lon="0.22461">
        <ele>2455.4</ele>
        <time>2022-02-09T12:58:27Z</time>
      </trkpt>
      <trkpt lat="42.86792" lon="0.22473">
        <ele>2454</ele>
        <time>2022-02-09T12:58:28Z</time>
      </trkpt>
      <trkpt lat="42.86795" lon="0.22486">
        <ele>2452.5</ele>
        <time>2022-02-09T12:58:29Z</time>
      </trkpt>
      <trkpt lat="42.86797" lon="0.22498">
        <ele>2451.2</ele>
        <time>2022-02-09T12:58:30Z</time>
      </trkpt>
      <trkpt lat="42.86798" lon="0.22508">
        <ele>2450.1</ele>
        <time>2022-02-09T12:58:31Z</time>
      </trkpt>
      <trkpt lat="42.86799" lon="0.22516">
        <ele>2449.2</ele>
        <time>2022-02-09T12:58:32Z</time>
      </trkpt>
      <trkpt lat="42.86798" lon="0.22523">
        <ele>2448.4</ele>
        <time>2022-02-09T12:58:33Z</time>
      </trkpt>
      <trkpt lat="42.86797" lon="0.22528">
        <ele>2447.8</ele>
        <time>2022-02-09T12:58:34Z</time>
      </trkpt>
      <trkpt lat="42.86796" lon="0.22533">
        <ele>2447.2</ele>
        <time>2022-02-09T12:58:35Z</time>
      </trkpt>
      <trkpt lat="42.86794" lon="0.22538">
        <ele>2446.6</ele>
        <time>2022-02-09T12:58:36Z</time>
      </trkpt>
      <trkpt lat="42.86792" lon="0.22542">
        <ele>2446.1</ele>
        <time>2022-02-09T12:58:37Z</time>
      </trkpt>
      <trkpt lat="42.8679" lon="0.22545">
        <ele>2445.6</ele>
        <time>2022-02-09T12:58:38Z</time>
      </trkpt>
      <trkpt lat="42.86788" lon="0.22546">
        <ele>2445.3</ele>
        <time>2022-02-09T12:58:39Z</time>
      </trkpt>
      <trkpt lat="42.86786" lon="0.22546">
        <ele>2445</ele>
        <time>2022-02-09T12:58:40Z</time>
      </trkpt>
      <trkpt lat="42.86786" lon="0.22546">
        <ele>2444.9</ele>
        <time>2022-02-09T12:58:41Z</time>
      </trkpt>
      <trkpt lat="42.86786" lon="0.22546">
        <ele>2444.9</ele>
        <time>2022-02-09T12:58:42Z</time>
      </trkpt>
      <trkpt lat="42.86786" lon="0.22547">
        <ele>2444.8</ele>
        <time>2022-02-09T12:58:43Z</time>
      </trkpt>
      <trkpt lat="42.86786" lon="0.22547">
        <ele>2444.8</ele>
        <time>2022-02-09T12:58:44Z</time>
      </trkpt>
      <trkpt lat="42.86786" lon="0.22547">
        <ele>2444.8</ele>
        <time>2022-02-09T12:58:45Z</time>
      </trkpt>
      <trkpt lat="42.86786" lon="0.22547">
        <ele>2444.8</ele>
        <time>2022-02-09T12:58:46Z</time>
      </trkpt>
      <trkpt lat="42.86786" lon="0.22547">
        <ele>2444.8</ele>
        <time>2022-02-09T12:58:47Z</time>
      </trkpt>
      <trkpt lat="42.86786" lon="0.22547">
        <ele>2444.8</ele>
        <time>2022-02-09T12:58:48Z</time>
      </trkpt>
      <trkpt lat="42.86786" lon="0.22547">
        <ele>2444.8</ele>
        <time>2022-02-09T12:58:49Z</time>
      </trkpt>
      <trkpt lat="42.86786" lon="0.22547">
        <ele>2444.8</ele>
        <time>2022-02-09T12:58:50Z</time>
      </trkpt>
      <trkpt lat="42.86786" lon="0.22547">
        <ele>2444.8</ele>
        <time>2022-02-09T12:58:51Z</time>
      </trkpt>
      <trkpt lat="42.86786" lon="0.22547">
        <ele>2444.8</ele>
        <time>2022-02-09T12:58:52Z</time>
      </trkpt>
      <trkpt lat="42.86786" lon="0.22547">
        <ele>2444.8</ele>
        <time>2022-02-09T12:58:53Z</time>
      </trkpt>
      <trkpt lat="42.86786" lon="0.22547">
        <ele>2444.8</ele>
        <time>2022-02-09T12:58:54Z</time>
      </trkpt>
      <trkpt lat="42.86786" lon="0.22547">
        <ele>2444.8</ele>
        <time>2022-02-09T12:58:55Z</time>
      </trkpt>
      <trkpt lat="42.86786" lon="0.22547">
        <ele>2444.8</ele>
        <time>2022-02-09T12:58:56Z</time>
      </trkpt>
      <trkpt lat="42.86786" lon="0.22547">
        <ele>2444.8</ele>
        <time>2022-02-09T12:58:57Z</time>
      </trkpt>
      <trkpt lat="42.86786" lon="0.22547">
        <ele>2444.8</ele>
        <time>2022-02-09T12:58:58Z</time>
      </trkpt>
      <trkpt lat="42.86786" lon="0.22547">
        <ele>2444.8</ele>
        <time>2022-02-09T12:58:59Z</time>
      </trkpt>
      <trkpt lat="42.86786" lon="0.22547">
        <ele>2444.8</ele>
        <time>2022-02-09T12:59:00Z</time>
      </trkpt>
      <trkpt lat="42.86786" lon="0.22547">
        <ele>2444.8</ele>
        <time>2022-02-09T12:59:01Z</time>
      </trkpt>
      <trkpt lat="42.86786" lon="0.22547">
        <ele>2444.8</ele>
        <time>2022-02-09T12:59:02Z</time>
      </trkpt>
      <trkpt lat="42.86786" lon="0.22547">
        <ele>2444.8</ele>
        <time>2022-02-09T12:59:03Z</time>
      </trkpt>
      <trkpt lat="42.86786" lon="0.22547">
        <ele>2444.8</ele>
        <time>2022-02-09T12:59:04Z</time>
      </trkpt>
      <trkpt lat="42.86786" lon="0.22547">
        <ele>2444.8</ele>
        <time>2022-02-09T12:59:05Z</time>
      </trkpt>
      <trkpt lat="42.86786" lon="0.22547">
        <ele>2444.8</ele>
        <time>2022-02-09T12:59:06Z</time>
      </trkpt>
      <trkpt lat="42.86786" lon="0.22547">
        <ele>2444.8</ele>
        <time>2022-02-09T12:59:07Z</time>
      </trkpt>
      <trkpt lat="42.86786" lon="0.22547">
        <ele>2444.8</ele>
        <time>2022-02-09T12:59:08Z</time>
      </trkpt>
      <trkpt lat="42.86786" lon="0.22547">
        <ele>2444.8</ele>
        <time>2022-02-09T12:59:09Z</time>
      </trkpt>
      <trkpt lat="42.86786" lon="0.22547">
        <ele>2444.8</ele>
        <time>2022-02-09T12:59:10Z</time>
      </trkpt>
      <trkpt lat="42.86786" lon="0.22547">
        <ele>2444.8</ele>
        <time>2022-02-09T12:59:11Z</time>
      </trkpt>
      <trkpt lat="42.86786" lon="0.22547">
        <ele>2444.8</ele>
        <time>2022-02-09T12:59:12Z</time>
      </trkpt>
      <trkpt lat="42.86786" lon="0.22547">
        <ele>2444.8</ele>
        <time>2022-02-09T12:59:13Z</time>
      </trkpt>
      <trkpt lat="42.86786" lon="0.22547">
        <ele>2444.8</ele>
        <time>2022-02-09T12:59:14Z</time>
      </trkpt>
      <trkpt lat="42.86786" lon="0.22547">
        <ele>2444.8</ele>
        <time>2022-02-09T12:59:15Z</time>
      </trkpt>
      <trkpt lat="42.86786" lon="0.22547">
        <ele>2444.8</ele>
        <time>2022-02-09T12:59:16Z</time>
      </trkpt>
      <trkpt lat="42.86786" lon="0.22547">
        <ele>2444.8</ele>
        <time>2022-02-09T12:59:17Z</time>
      </trkpt>
      <trkpt lat="42.86786" lon="0.22547">
        <ele>2444.8</ele>
        <time>2022-02-09T12:59:18Z</time>
      </trkpt>
      <trkpt lat="42.86786" lon="0.22547">
        <ele>2444.8</ele>
        <time>2022-02-09T12:59:19Z</time>
      </trkpt>
      <trkpt lat="42.86786" lon="0.22547">
        <ele>2444.8</ele>
        <time>2022-02-09T12:59:20Z</time>
      </trkpt>
      <trkpt lat="42.86786" lon="0.22547">
        <ele>2444.8</ele>
        <time>2022-02-09T12:59:21Z</time>
      </trkpt>
      <trkpt lat="42.86786" lon="0.22547">
        <ele>2444.8</ele>
        <time>2022-02-09T12:59:22Z</time>
      </trkpt>
      <trkpt lat="42.86786" lon="0.22547">
        <ele>2444.8</ele>
        <time>2022-02-09T12:59:23Z</time>
      </trkpt>
      <trkpt lat="42.86786" lon="0.22547">
        <ele>2444.8</ele>
        <time>2022-02-09T12:59:24Z</time>
      </trkpt>
      <trkpt lat="42.86786" lon="0.22547">
        <ele>2444.8</ele>
        <time>2022-02-09T12:59:25Z</time>
      </trkpt>
      <trkpt lat="42.86786" lon="0.22547">
        <ele>2444.8</ele>
        <time>2022-02-09T12:59:26Z</time>
      </trkpt>
      <trkpt lat="42.86786" lon="0.22547">
        <ele>2444.8</ele>
        <time>2022-02-09T12:59:27Z</time>
      </trkpt>
      <trkpt lat="42.86786" lon="0.22547">
        <ele>2444.8</ele>
        <time>2022-02-09T12:59:28Z</time>
      </trkpt>
      <trkpt lat="42.86786" lon="0.22547">
        <ele>2444.8</ele>
        <time>2022-02-09T12:59:29Z</time>
      </trkpt>
      <trkpt lat="42.86786" lon="0.22547">
        <ele>2444.8</ele>
        <time>2022-02-09T12:59:30Z</time>
      </trkpt>
      <trkpt lat="42.86786" lon="0.22547">
        <ele>2444.8</ele>
        <time>2022-02-09T12:59:31Z</time>
      </trkpt>
      <trkpt lat="42.86786" lon="0.22547">
        <ele>2444.8</ele>
        <time>2022-02-09T12:59:32Z</time>
      </trkpt>
      <trkpt lat="42.86784" lon="0.22547">
        <ele>2444.6</ele>
        <time>2022-02-09T12:59:33Z</time>
      </trkpt>
      <trkpt lat="42.86782" lon="0.22549">
        <ele>2444.3</ele>
        <time>2022-02-09T12:59:34Z</time>
      </trkpt>
      <trkpt lat="42.86782" lon="0.2255">
        <ele>2444.2</ele>
        <time>2022-02-09T12:59:35Z</time>
      </trkpt>
      <trkpt lat="42.86782" lon="0.2255">
        <ele>2444.2</ele>
        <time>2022-02-09T12:59:36Z</time>
      </trkpt>
      <trkpt lat="42.86782" lon="0.2255">
        <ele>2444.2</ele>
        <time>2022-02-09T12:59:37Z</time>
      </trkpt>
      <trkpt lat="42.86782" lon="0.2255">
        <ele>2444.2</ele>
        <time>2022-02-09T12:59:38Z</time>
      </trkpt>
      <trkpt lat="42.86782" lon="0.2255">
        <ele>2444.2</ele>
        <time>2022-02-09T12:59:39Z</time>
      </trkpt>
      <trkpt lat="42.86782" lon="0.2255">
        <ele>2444.2</ele>
        <time>2022-02-09T12:59:40Z</time>
      </trkpt>
      <trkpt lat="42.86782" lon="0.2255">
        <ele>2444.2</ele>
        <time>2022-02-09T12:59:41Z</time>
      </trkpt>
      <trkpt lat="42.86782" lon="0.2255">
        <ele>2444.2</ele>
        <time>2022-02-09T12:59:42Z</time>
      </trkpt>
      <trkpt lat="42.86782" lon="0.2255">
        <ele>2444.2</ele>
        <time>2022-02-09T12:59:43Z</time>
      </trkpt>
      <trkpt lat="42.86782" lon="0.2255">
        <ele>2444.2</ele>
        <time>2022-02-09T12:59:44Z</time>
      </trkpt>
      <trkpt lat="42.86782" lon="0.2255">
        <ele>2444.2</ele>
        <time>2022-02-09T12:59:45Z</time>
      </trkpt>
      <trkpt lat="42.86782" lon="0.2255">
        <ele>2444.2</ele>
        <time>2022-02-09T12:59:46Z</time>
      </trkpt>
      <trkpt lat="42.86782" lon="0.2255">
        <ele>2444.2</ele>
        <time>2022-02-09T12:59:47Z</time>
      </trkpt>
      <trkpt lat="42.86782" lon="0.2255">
        <ele>2444.2</ele>
        <time>2022-02-09T12:59:48Z</time>
      </trkpt>
      <trkpt lat="42.86782" lon="0.2255">
        <ele>2444.2</ele>
        <time>2022-02-09T12:59:49Z</time>
      </trkpt>
      <trkpt lat="42.86782" lon="0.2255">
        <ele>2444.2</ele>
        <time>2022-02-09T12:59:50Z</time>
      </trkpt>
      <trkpt lat="42.86782" lon="0.2255">
        <ele>2444.2</ele>
        <time>2022-02-09T12:59:51Z</time>
      </trkpt>
      <trkpt lat="42.86782" lon="0.2255">
        <ele>2444.2</ele>
        <time>2022-02-09T12:59:52Z</time>
      </trkpt>
      <trkpt lat="42.86782" lon="0.2255">
        <ele>2444.2</ele>
        <time>2022-02-09T12:59:53Z</time>
      </trkpt>
      <trkpt lat="42.86782" lon="0.2255">
        <ele>2444.2</ele>
        <time>2022-02-09T12:59:54Z</time>
      </trkpt>
      <trkpt lat="42.86782" lon="0.2255">
        <ele>2444.2</ele>
        <time>2022-02-09T12:59:55Z</time>
      </trkpt>
      <trkpt lat="42.86782" lon="0.2255">
        <ele>2444.2</ele>
        <time>2022-02-09T12:59:56Z</time>
      </trkpt>
      <trkpt lat="42.86782" lon="0.2255">
        <ele>2444.2</ele>
        <time>2022-02-09T12:59:57Z</time>
      </trkpt>
      <trkpt lat="42.86782" lon="0.2255">
        <ele>2444.2</ele>
        <time>2022-02-09T12:59:58Z</time>
      </trkpt>
      <trkpt lat="42.86782" lon="0.2255">
        <ele>2444.2</ele>
        <time>2022-02-09T12:59:59Z</time>
      </trkpt>
      <trkpt lat="42.86782" lon="0.2255">
        <ele>2444.2</ele>
        <time>2022-02-09T13:00:00Z</time>
      </trkpt>
      <trkpt lat="42.86782" lon="0.2255">
        <ele>2444.2</ele>
        <time>2022-02-09T13:00:01Z</time>
      </trkpt>
      <trkpt lat="42.86782" lon="0.2255">
        <ele>2444.2</ele>
        <time>2022-02-09T13:00:02Z</time>
      </trkpt>
      <trkpt lat="42.86782" lon="0.2255">
        <ele>2444.2</ele>
        <time>2022-02-09T13:00:03Z</time>
      </trkpt>
      <trkpt lat="42.86782" lon="0.2255">
        <ele>2444.2</ele>
        <time>2022-02-09T13:00:04Z</time>
      </trkpt>
      <trkpt lat="42.86782" lon="0.2255">
        <ele>2444.2</ele>
        <time>2022-02-09T13:00:05Z</time>
      </trkpt>
      <trkpt lat="42.86782" lon="0.2255">
        <ele>2444.2</ele>
        <time>2022-02-09T13:00:06Z</time>
      </trkpt>
      <trkpt lat="42.86782" lon="0.2255">
        <ele>2444.2</ele>
        <time>2022-02-09T13:00:07Z</time>
      </trkpt>
      <trkpt lat="42.86782" lon="0.2255">
        <ele>2444.2</ele>
        <time>2022-02-09T13:00:08Z</time>
      </trkpt>
      <trkpt lat="42.86782" lon="0.2255">
        <ele>2444.2</ele>
        <time>2022-02-09T13:00:09Z</time>
      </trkpt>
      <trkpt lat="42.86782" lon="0.2255">
        <ele>2444.2</ele>
        <time>2022-02-09T13:00:10Z</time>
      </trkpt>
      <trkpt lat="42.86782" lon="0.2255">
        <ele>2444.2</ele>
        <time>2022-02-09T13:00:11Z</time>
      </trkpt>
      <trkpt lat="42.86782" lon="0.2255">
        <ele>2444.2</ele>
        <time>2022-02-09T13:00:12Z</time>
      </trkpt>
      <trkpt lat="42.86782" lon="0.2255">
        <ele>2444.2</ele>
        <time>2022-02-09T13:00:13Z</time>
      </trkpt>
      <trkpt lat="42.86782" lon="0.2255">
        <ele>2444.2</ele>
        <time>2022-02-09T13:00:14Z</time>
      </trkpt>
      <trkpt lat="42.86782" lon="0.2255">
        <ele>2444.2</ele>
        <time>2022-02-09T13:00:15Z</time>
      </trkpt>
      <trkpt lat="42.86782" lon="0.2255">
        <ele>2444.2</ele>
        <time>2022-02-09T13:00:16Z</time>
      </trkpt>
      <trkpt lat="42.86782" lon="0.2255">
        <ele>2444.2</ele>
        <time>2022-02-09T13:00:17Z</time>
      </trkpt>
      <trkpt lat="42.86782" lon="0.2255">
        <ele>2444.2</ele>
        <time>2022-02-09T13:00:18Z</time>
      </trkpt>
      <trkpt lat="42.86782" lon="0.2255">
        <ele>2444.2</ele>
        <time>2022-02-09T13:00:19Z</time>
      </trkpt>
      <trkpt lat="42.86782" lon="0.2255">
        <ele>2444.2</ele>
        <time>2022-02-09T13:00:20Z</time>
      </trkpt>
      <trkpt lat="42.86782" lon="0.2255">
        <ele>2444.2</ele>
        <time>2022-02-09T13:00:21Z</time>
      </trkpt>
      <trkpt lat="42.86782" lon="0.2255">
        <ele>2444.2</ele>
        <time>2022-02-09T13:00:22Z</time>
      </trkpt>
      <trkpt lat="42.86782" lon="0.2255">
        <ele>2444.2</ele>
        <time>2022-02-09T13:00:23Z</time>
      </trkpt>
      <trkpt lat="42.86782" lon="0.2255">
        <ele>2444.2</ele>
        <time>2022-02-09T13:00:24Z</time>
      </trkpt>
      <trkpt lat="42.86782" lon="0.2255">
        <ele>2444.2</ele>
        <time>2022-02-09T13:00:25Z</time>
      </trkpt>
      <trkpt lat="42.86782" lon="0.2255">
        <ele>2444.2</ele>
        <time>2022-02-09T13:00:26Z</time>
      </trkpt>
      <trkpt lat="42.86782" lon="0.2255">
        <ele>2444.2</ele>
        <time>2022-02-09T13:00:27Z</time>
      </trkpt>
      <trkpt lat="42.86782" lon="0.2255">
        <ele>2444.2</ele>
        <time>2022-02-09T13:00:28Z</time>
      </trkpt>
      <trkpt lat="42.86782" lon="0.2255">
        <ele>2444.2</ele>
        <time>2022-02-09T13:00:29Z</time>
      </trkpt>
      <trkpt lat="42.86782" lon="0.2255">
        <ele>2444.2</ele>
        <time>2022-02-09T13:00:30Z</time>
      </trkpt>
      <trkpt lat="42.86782" lon="0.2255">
        <ele>2444.2</ele>
        <time>2022-02-09T13:00:31Z</time>
      </trkpt>
      <trkpt lat="42.86782" lon="0.2255">
        <ele>2444.2</ele>
        <time>2022-02-09T13:00:32Z</time>
      </trkpt>
      <trkpt lat="42.86782" lon="0.2255">
        <ele>2444.2</ele>
        <time>2022-02-09T13:00:33Z</time>
      </trkpt>
      <trkpt lat="42.86782" lon="0.2255">
        <ele>2444.2</ele>
        <time>2022-02-09T13:00:34Z</time>
      </trkpt>
      <trkpt lat="42.86782" lon="0.2255">
        <ele>2444.2</ele>
        <time>2022-02-09T13:00:35Z</time>
      </trkpt>
      <trkpt lat="42.86782" lon="0.2255">
        <ele>2444.2</ele>
        <time>2022-02-09T13:00:36Z</time>
      </trkpt>
      <trkpt lat="42.86782" lon="0.2255">
        <ele>2444.2</ele>
        <time>2022-02-09T13:00:37Z</time>
      </trkpt>
      <trkpt lat="42.86782" lon="0.2255">
        <ele>2444.2</ele>
        <time>2022-02-09T13:00:38Z</time>
      </trkpt>
      <trkpt lat="42.86782" lon="0.2255">
        <ele>2444.2</ele>
        <time>2022-02-09T13:00:39Z</time>
      </trkpt>
      <trkpt lat="42.86782" lon="0.2255">
        <ele>2444.2</ele>
        <time>2022-02-09T13:00:40Z</time>
      </trkpt>
      <trkpt lat="42.86782" lon="0.2255">
        <ele>2444.2</ele>
        <time>2022-02-09T13:00:41Z</time>
      </trkpt>
      <trkpt lat="42.86782" lon="0.2255">
        <ele>2444.2</ele>
        <time>2022-02-09T13:00:42Z</time>
      </trkpt>
      <trkpt lat="42.86782" lon="0.2255">
        <ele>2444.2</ele>
        <time>2022-02-09T13:00:43Z</time>
      </trkpt>
      <trkpt lat="42.86782" lon="0.2255">
        <ele>2444.2</ele>
        <time>2022-02-09T13:00:44Z</time>
      </trkpt>
      <trkpt lat="42.86782" lon="0.2255">
        <ele>2444.2</ele>
        <time>2022-02-09T13:00:45Z</time>
      </trkpt>
      <trkpt lat="42.86782" lon="0.2255">
        <ele>2444.2</ele>
        <time>2022-02-09T13:00:46Z</time>
      </trkpt>
      <trkpt lat="42.86782" lon="0.2255">
        <ele>2444.2</ele>
        <time>2022-02-09T13:00:47Z</time>
      </trkpt>
      <trkpt lat="42.86782" lon="0.2255">
        <ele>2444.2</ele>
        <time>2022-02-09T13:00:48Z</time>
      </trkpt>
      <trkpt lat="42.86782" lon="0.2255">
        <ele>2444.2</ele>
        <time>2022-02-09T13:00:49Z</time>
      </trkpt>
      <trkpt lat="42.86782" lon="0.2255">
        <ele>2444.2</ele>
        <time>2022-02-09T13:00:50Z</time>
      </trkpt>
      <trkpt lat="42.86782" lon="0.2255">
        <ele>2444.2</ele>
        <time>2022-02-09T13:00:51Z</time>
      </trkpt>
      <trkpt lat="42.86782" lon="0.2255">
        <ele>2444.2</ele>
        <time>2022-02-09T13:00:52Z</time>
      </trkpt>
      <trkpt lat="42.86782" lon="0.2255">
        <ele>2444.2</ele>
        <time>2022-02-09T13:00:53Z</time>
      </trkpt>
      <trkpt lat="42.86782" lon="0.2255">
        <ele>2444.2</ele>
        <time>2022-02-09T13:00:54Z</time>
      </trkpt>
      <trkpt lat="42.86782" lon="0.2255">
        <ele>2444.2</ele>
        <time>2022-02-09T13:00:55Z</time>
      </trkpt>
      <trkpt lat="42.86782" lon="0.2255">
        <ele>2444.2</ele>
        <time>2022-02-09T13:00:56Z</time>
      </trkpt>
      <trkpt lat="42.86782" lon="0.2255">
        <ele>2444.2</ele>
        <time>2022-02-09T13:00:57Z</time>
      </trkpt>
      <trkpt lat="42.86782" lon="0.2255">
        <ele>2444.2</ele>
        <time>2022-02-09T13:00:58Z</time>
      </trkpt>
      <trkpt lat="42.86782" lon="0.2255">
        <ele>2444.2</ele>
        <time>2022-02-09T13:00:59Z</time>
      </trkpt>
      <trkpt lat="42.86782" lon="0.2255">
        <ele>2444.2</ele>
        <time>2022-02-09T13:01:00Z</time>
      </trkpt>
      <trkpt lat="42.86782" lon="0.2255">
        <ele>2444.2</ele>
        <time>2022-02-09T13:01:01Z</time>
      </trkpt>
      <trkpt lat="42.86782" lon="0.2255">
        <ele>2444.2</ele>
        <time>2022-02-09T13:01:02Z</time>
      </trkpt>
      <trkpt lat="42.86782" lon="0.2255">
        <ele>2444.2</ele>
        <time>2022-02-09T13:01:03Z</time>
      </trkpt>
      <trkpt lat="42.86782" lon="0.2255">
        <ele>2444.2</ele>
        <time>2022-02-09T13:01:04Z</time>
      </trkpt>
      <trkpt lat="42.86782" lon="0.2255">
        <ele>2444.2</ele>
        <time>2022-02-09T13:01:05Z</time>
      </trkpt>
      <trkpt lat="42.86782" lon="0.2255">
        <ele>2444.2</ele>
        <time>2022-02-09T13:01:06Z</time>
      </trkpt>
      <trkpt lat="42.86782" lon="0.2255">
        <ele>2444.2</ele>
        <time>2022-02-09T13:01:07Z</time>
      </trkpt>
      <trkpt lat="42.86782" lon="0.2255">
        <ele>2444.2</ele>
        <time>2022-02-09T13:01:08Z</time>
      </trkpt>
      <trkpt lat="42.86782" lon="0.2255">
        <ele>2444.2</ele>
        <time>2022-02-09T13:01:09Z</time>
      </trkpt>
      <trkpt lat="42.86782" lon="0.2255">
        <ele>2444.2</ele>
        <time>2022-02-09T13:01:10Z</time>
      </trkpt>
      <trkpt lat="42.86782" lon="0.2255">
        <ele>2444.2</ele>
        <time>2022-02-09T13:01:11Z</time>
      </trkpt>
      <trkpt lat="42.86782" lon="0.2255">
        <ele>2444.2</ele>
        <time>2022-02-09T13:01:12Z</time>
      </trkpt>
      <trkpt lat="42.86782" lon="0.2255">
        <ele>2444.2</ele>
        <time>2022-02-09T13:01:13Z</time>
      </trkpt>
      <trkpt lat="42.86782" lon="0.2255">
        <ele>2444.2</ele>
        <time>2022-02-09T13:01:14Z</time>
      </trkpt>
      <trkpt lat="42.86782" lon="0.2255">
        <ele>2444.2</ele>
        <time>2022-02-09T13:01:15Z</time>
      </trkpt>
      <trkpt lat="42.86782" lon="0.2255">
        <ele>2444.2</ele>
        <time>2022-02-09T13:01:16Z</time>
      </trkpt>
      <trkpt lat="42.86782" lon="0.2255">
        <ele>2444.2</ele>
        <time>2022-02-09T13:01:17Z</time>
      </trkpt>
      <trkpt lat="42.86782" lon="0.2255">
        <ele>2444.2</ele>
        <time>2022-02-09T13:01:18Z</time>
      </trkpt>
      <trkpt lat="42.86782" lon="0.2255">
        <ele>2444.2</ele>
        <time>2022-02-09T13:01:19Z</time>
      </trkpt>
      <trkpt lat="42.86782" lon="0.2255">
        <ele>2444.2</ele>
        <time>2022-02-09T13:01:20Z</time>
      </trkpt>
      <trkpt lat="42.86782" lon="0.2255">
        <ele>2444.2</ele>
        <time>2022-02-09T13:01:21Z</time>
      </trkpt>
      <trkpt lat="42.86782" lon="0.2255">
        <ele>2444.2</ele>
        <time>2022-02-09T13:01:22Z</time>
      </trkpt>
      <trkpt lat="42.86782" lon="0.2255">
        <ele>2444.2</ele>
        <time>2022-02-09T13:01:23Z</time>
      </trkpt>
      <trkpt lat="42.86782" lon="0.2255">
        <ele>2444.2</ele>
        <time>2022-02-09T13:01:24Z</time>
      </trkpt>
      <trkpt lat="42.86782" lon="0.2255">
        <ele>2444.2</ele>
        <time>2022-02-09T13:01:25Z</time>
      </trkpt>
      <trkpt lat="42.86782" lon="0.2255">
        <ele>2444.2</ele>
        <time>2022-02-09T13:01:26Z</time>
      </trkpt>
      <trkpt lat="42.86782" lon="0.2255">
        <ele>2444.2</ele>
        <time>2022-02-09T13:01:27Z</time>
      </trkpt>
      <trkpt lat="42.86782" lon="0.2255">
        <ele>2444.2</ele>
        <time>2022-02-09T13:01:28Z</time>
      </trkpt>
      <trkpt lat="42.86782" lon="0.2255">
        <ele>2444.2</ele>
        <time>2022-02-09T13:01:29Z</time>
      </trkpt>
      <trkpt lat="42.86782" lon="0.2255">
        <ele>2444.2</ele>
        <time>2022-02-09T13:01:30Z</time>
      </trkpt>
      <trkpt lat="42.86782" lon="0.2255">
        <ele>2444.2</ele>
        <time>2022-02-09T13:01:31Z</time>
      </trkpt>
      <trkpt lat="42.86782" lon="0.2255">
        <ele>2444.2</ele>
        <time>2022-02-09T13:01:32Z</time>
      </trkpt>
      <trkpt lat="42.86782" lon="0.2255">
        <ele>2444.2</ele>
        <time>2022-02-09T13:01:33Z</time>
      </trkpt>
      <trkpt lat="42.86782" lon="0.2255">
        <ele>2444.2</ele>
        <time>2022-02-09T13:01:34Z</time>
      </trkpt>
      <trkpt lat="42.86782" lon="0.2255">
        <ele>2444.2</ele>
        <time>2022-02-09T13:01:35Z</time>
      </trkpt>
      <trkpt lat="42.86782" lon="0.2255">
        <ele>2444.2</ele>
        <time>2022-02-09T13:01:36Z</time>
      </trkpt>
      <trkpt lat="42.86782" lon="0.2255">
        <ele>2444.2</ele>
        <time>2022-02-09T13:01:37Z</time>
      </trkpt>
      <trkpt lat="42.86782" lon="0.2255">
        <ele>2444.2</ele>
        <time>2022-02-09T13:01:38Z</time>
      </trkpt>
      <trkpt lat="42.86782" lon="0.2255">
        <ele>2444.2</ele>
        <time>2022-02-09T13:01:39Z</time>
      </trkpt>
      <trkpt lat="42.86782" lon="0.2255">
        <ele>2444.2</ele>
        <time>2022-02-09T13:01:40Z</time>
      </trkpt>
      <trkpt lat="42.86782" lon="0.2255">
        <ele>2444.2</ele>
        <time>2022-02-09T13:01:41Z</time>
      </trkpt>
      <trkpt lat="42.86782" lon="0.2255">
        <ele>2444.2</ele>
        <time>2022-02-09T13:01:42Z</time>
      </trkpt>
      <trkpt lat="42.86782" lon="0.2255">
        <ele>2444.2</ele>
        <time>2022-02-09T13:01:43Z</time>
      </trkpt>
      <trkpt lat="42.86782" lon="0.2255">
        <ele>2444.2</ele>
        <time>2022-02-09T13:01:44Z</time>
      </trkpt>
      <trkpt lat="42.86782" lon="0.2255">
        <ele>2444.2</ele>
        <time>2022-02-09T13:01:45Z</time>
      </trkpt>
      <trkpt lat="42.86782" lon="0.2255">
        <ele>2444.2</ele>
        <time>2022-02-09T13:01:46Z</time>
      </trkpt>
      <trkpt lat="42.86782" lon="0.2255">
        <ele>2444.2</ele>
        <time>2022-02-09T13:01:47Z</time>
      </trkpt>
      <trkpt lat="42.86782" lon="0.2255">
        <ele>2444.2</ele>
        <time>2022-02-09T13:01:48Z</time>
      </trkpt>
      <trkpt lat="42.86782" lon="0.2255">
        <ele>2444.2</ele>
        <time>2022-02-09T13:01:49Z</time>
      </trkpt>
      <trkpt lat="42.86782" lon="0.2255">
        <ele>2444.2</ele>
        <time>2022-02-09T13:01:50Z</time>
      </trkpt>
      <trkpt lat="42.86782" lon="0.2255">
        <ele>2444.2</ele>
        <time>2022-02-09T13:01:51Z</time>
      </trkpt>
      <trkpt lat="42.86782" lon="0.2255">
        <ele>2444.2</ele>
        <time>2022-02-09T13:01:52Z</time>
      </trkpt>
      <trkpt lat="42.86782" lon="0.2255">
        <ele>2444.2</ele>
        <time>2022-02-09T13:01:53Z</time>
      </trkpt>
      <trkpt lat="42.86782" lon="0.2255">
        <ele>2444.2</ele>
        <time>2022-02-09T13:01:54Z</time>
      </trkpt>
      <trkpt lat="42.86782" lon="0.2255">
        <ele>2444.2</ele>
        <time>2022-02-09T13:01:55Z</time>
      </trkpt>
      <trkpt lat="42.86782" lon="0.2255">
        <ele>2444.2</ele>
        <time>2022-02-09T13:01:56Z</time>
      </trkpt>
      <trkpt lat="42.86782" lon="0.2255">
        <ele>2444.2</ele>
        <time>2022-02-09T13:01:57Z</time>
      </trkpt>
      <trkpt lat="42.86782" lon="0.2255">
        <ele>2444.2</ele>
        <time>2022-02-09T13:01:58Z</time>
      </trkpt>
      <trkpt lat="42.86782" lon="0.2255">
        <ele>2444.2</ele>
        <time>2022-02-09T13:01:59Z</time>
      </trkpt>
      <trkpt lat="42.86782" lon="0.2255">
        <ele>2444.2</ele>
        <time>2022-02-09T13:02:00Z</time>
      </trkpt>
      <trkpt lat="42.86782" lon="0.2255">
        <ele>2444.2</ele>
        <time>2022-02-09T13:02:01Z</time>
      </trkpt>
      <trkpt lat="42.86782" lon="0.2255">
        <ele>2444.2</ele>
        <time>2022-02-09T13:02:02Z</time>
      </trkpt>
      <trkpt lat="42.86782" lon="0.2255">
        <ele>2444.2</ele>
        <time>2022-02-09T13:02:03Z</time>
      </trkpt>
      <trkpt lat="42.86782" lon="0.2255">
        <ele>2444.2</ele>
        <time>2022-02-09T13:02:04Z</time>
      </trkpt>
      <trkpt lat="42.86782" lon="0.2255">
        <ele>2444.2</ele>
        <time>2022-02-09T13:02:05Z</time>
      </trkpt>
      <trkpt lat="42.86782" lon="0.2255">
        <ele>2444.2</ele>
        <time>2022-02-09T13:02:06Z</time>
      </trkpt>
      <trkpt lat="42.86782" lon="0.2255">
        <ele>2444.2</ele>
        <time>2022-02-09T13:02:07Z</time>
      </trkpt>
      <trkpt lat="42.86782" lon="0.2255">
        <ele>2444.2</ele>
        <time>2022-02-09T13:02:08Z</time>
      </trkpt>
      <trkpt lat="42.86782" lon="0.2255">
        <ele>2444.2</ele>
        <time>2022-02-09T13:02:09Z</time>
      </trkpt>
      <trkpt lat="42.86782" lon="0.2255">
        <ele>2444.2</ele>
        <time>2022-02-09T13:02:10Z</time>
      </trkpt>
      <trkpt lat="42.86782" lon="0.2255">
        <ele>2444.2</ele>
        <time>2022-02-09T13:02:11Z</time>
      </trkpt>
      <trkpt lat="42.86782" lon="0.2255">
        <ele>2444.2</ele>
        <time>2022-02-09T13:02:12Z</time>
      </trkpt>
      <trkpt lat="42.86782" lon="0.2255">
        <ele>2444.2</ele>
        <time>2022-02-09T13:02:13Z</time>
      </trkpt>
      <trkpt lat="42.86782" lon="0.22552">
        <ele>2443.9</ele>
        <time>2022-02-09T13:02:14Z</time>
      </trkpt>
      <trkpt lat="42.86782" lon="0.22555">
        <ele>2443.6</ele>
        <time>2022-02-09T13:02:15Z</time>
      </trkpt>
      <trkpt lat="42.86781" lon="0.22556">
        <ele>2443.4</ele>
        <time>2022-02-09T13:02:16Z</time>
      </trkpt>
      <trkpt lat="42.8678" lon="0.22557">
        <ele>2443.2</ele>
        <time>2022-02-09T13:02:17Z</time>
      </trkpt>
      <trkpt lat="42.86778" lon="0.22559">
        <ele>2443</ele>
        <time>2022-02-09T13:02:18Z</time>
      </trkpt>
      <trkpt lat="42.86777" lon="0.22561">
        <ele>2442.6</ele>
        <time>2022-02-09T13:02:19Z</time>
      </trkpt>
      <trkpt lat="42.86775" lon="0.22564">
        <ele>2442.2</ele>
        <time>2022-02-09T13:02:20Z</time>
      </trkpt>
      <trkpt lat="42.86773" lon="0.22567">
        <ele>2441.7</ele>
        <time>2022-02-09T13:02:21Z</time>
      </trkpt>
      <trkpt lat="42.8677" lon="0.2257">
        <ele>2441.1</ele>
        <time>2022-02-09T13:02:22Z</time>
      </trkpt>
      <trkpt lat="42.86766" lon="0.22574">
        <ele>2440.4</ele>
        <time>2022-02-09T13:02:23Z</time>
      </trkpt>
      <trkpt lat="42.86762" lon="0.22577">
        <ele>2439.8</ele>
        <time>2022-02-09T13:02:24Z</time>
      </trkpt>
      <trkpt lat="42.86759" lon="0.22581">
        <ele>2439.1</ele>
        <time>2022-02-09T13:02:25Z</time>
      </trkpt>
      <trkpt lat="42.86756" lon="0.22585">
        <ele>2438.5</ele>
        <time>2022-02-09T13:02:26Z</time>
      </trkpt>
      <trkpt lat="42.86755" lon="0.2259">
        <ele>2437.9</ele>
        <time>2022-02-09T13:02:27Z</time>
      </trkpt>
      <trkpt lat="42.86753" lon="0.22596">
        <ele>2437.2</ele>
        <time>2022-02-09T13:02:28Z</time>
      </trkpt>
      <trkpt lat="42.86751" lon="0.22601">
        <ele>2436.5</ele>
        <time>2022-02-09T13:02:29Z</time>
      </trkpt>
      <trkpt lat="42.86748" lon="0.22605">
        <ele>2435.9</ele>
        <time>2022-02-09T13:02:30Z</time>
      </trkpt>
      <trkpt lat="42.86745" lon="0.22609">
        <ele>2435.4</ele>
        <time>2022-02-09T13:02:31Z</time>
      </trkpt>
      <trkpt lat="42.86743" lon="0.22611">
        <ele>2434.9</ele>
        <time>2022-02-09T13:02:32Z</time>
      </trkpt>
      <trkpt lat="42.86742" lon="0.22614">
        <ele>2434.5</ele>
        <time>2022-02-09T13:02:33Z</time>
      </trkpt>
      <trkpt lat="42.8674" lon="0.22617">
        <ele>2434.2</ele>
        <time>2022-02-09T13:02:34Z</time>
      </trkpt>
      <trkpt lat="42.86739" lon="0.2262">
        <ele>2433.8</ele>
        <time>2022-02-09T13:02:35Z</time>
      </trkpt>
      <trkpt lat="42.86737" lon="0.22622">
        <ele>2433.4</ele>
        <time>2022-02-09T13:02:36Z</time>
      </trkpt>
      <trkpt lat="42.86734" lon="0.22624">
        <ele>2433</ele>
        <time>2022-02-09T13:02:37Z</time>
      </trkpt>
      <trkpt lat="42.86732" lon="0.22625">
        <ele>2432.5</ele>
        <time>2022-02-09T13:02:38Z</time>
      </trkpt>
      <trkpt lat="42.86729" lon="0.22627">
        <ele>2432.1</ele>
        <time>2022-02-09T13:02:39Z</time>
      </trkpt>
      <trkpt lat="42.86726" lon="0.22628">
        <ele>2431.6</ele>
        <time>2022-02-09T13:02:40Z</time>
      </trkpt>
      <trkpt lat="42.86723" lon="0.22629">
        <ele>2431.1</ele>
        <time>2022-02-09T13:02:41Z</time>
      </trkpt>
      <trkpt lat="42.86721" lon="0.22633">
        <ele>2430.4</ele>
        <time>2022-02-09T13:02:42Z</time>
      </trkpt>
      <trkpt lat="42.8672" lon="0.22638">
        <ele>2430</ele>
        <time>2022-02-09T13:02:43Z</time>
      </trkpt>
      <trkpt lat="42.86719" lon="0.22643">
        <ele>2428.7</ele>
        <time>2022-02-09T13:02:44Z</time>
      </trkpt>
      <trkpt lat="42.86716" lon="0.22647">
        <ele>2428.3</ele>
        <time>2022-02-09T13:02:45Z</time>
      </trkpt>
      <trkpt lat="42.86713" lon="0.22651">
        <ele>2427.4</ele>
        <time>2022-02-09T13:02:46Z</time>
      </trkpt>
      <trkpt lat="42.8671" lon="0.22657">
        <ele>2426.6</ele>
        <time>2022-02-09T13:02:47Z</time>
      </trkpt>
      <trkpt lat="42.86708" lon="0.22663">
        <ele>2425.8</ele>
        <time>2022-02-09T13:02:48Z</time>
      </trkpt>
      <trkpt lat="42.86704" lon="0.22667">
        <ele>2425</ele>
        <time>2022-02-09T13:02:49Z</time>
      </trkpt>
      <trkpt lat="42.867" lon="0.22671">
        <ele>2423.8</ele>
        <time>2022-02-09T13:02:50Z</time>
      </trkpt>
      <trkpt lat="42.86696" lon="0.22674">
        <ele>2422.9</ele>
        <time>2022-02-09T13:02:51Z</time>
      </trkpt>
      <trkpt lat="42.86693" lon="0.22678">
        <ele>2422.1</ele>
        <time>2022-02-09T13:02:52Z</time>
      </trkpt>
      <trkpt lat="42.8669" lon="0.22682">
        <ele>2421.2</ele>
        <time>2022-02-09T13:02:53Z</time>
      </trkpt>
      <trkpt lat="42.86687" lon="0.22685">
        <ele>2420.9</ele>
        <time>2022-02-09T13:02:54Z</time>
      </trkpt>
      <trkpt lat="42.86685" lon="0.22688">
        <ele>2420.3</ele>
        <time>2022-02-09T13:02:55Z</time>
      </trkpt>
      <trkpt lat="42.86683" lon="0.22692">
        <ele>2419.4</ele>
        <time>2022-02-09T13:02:56Z</time>
      </trkpt>
      <trkpt lat="42.86681" lon="0.22695">
        <ele>2418.9</ele>
        <time>2022-02-09T13:02:57Z</time>
      </trkpt>
      <trkpt lat="42.86681" lon="0.22699">
        <ele>2418</ele>
        <time>2022-02-09T13:02:58Z</time>
      </trkpt>
      <trkpt lat="42.8668" lon="0.22702">
        <ele>2418</ele>
        <time>2022-02-09T13:02:59Z</time>
      </trkpt>
      <trkpt lat="42.86679" lon="0.22704">
        <ele>2417.5</ele>
        <time>2022-02-09T13:03:00Z</time>
      </trkpt>
      <trkpt lat="42.86678" lon="0.22707">
        <ele>2416.8</ele>
        <time>2022-02-09T13:03:01Z</time>
      </trkpt>
      <trkpt lat="42.86677" lon="0.22711">
        <ele>2416.8</ele>
        <time>2022-02-09T13:03:02Z</time>
      </trkpt>
      <trkpt lat="42.86677" lon="0.22715">
        <ele>2416</ele>
        <time>2022-02-09T13:03:03Z</time>
      </trkpt>
      <trkpt lat="42.86677" lon="0.2272">
        <ele>2415.7</ele>
        <time>2022-02-09T13:03:04Z</time>
      </trkpt>
      <trkpt lat="42.86677" lon="0.22725">
        <ele>2415.3</ele>
        <time>2022-02-09T13:03:05Z</time>
      </trkpt>
      <trkpt lat="42.86677" lon="0.2273">
        <ele>2414.9</ele>
        <time>2022-02-09T13:03:06Z</time>
      </trkpt>
      <trkpt lat="42.86677" lon="0.22735">
        <ele>2414.6</ele>
        <time>2022-02-09T13:03:07Z</time>
      </trkpt>
      <trkpt lat="42.86677" lon="0.22741">
        <ele>2414.2</ele>
        <time>2022-02-09T13:03:08Z</time>
      </trkpt>
      <trkpt lat="42.86676" lon="0.22747">
        <ele>2413.6</ele>
        <time>2022-02-09T13:03:09Z</time>
      </trkpt>
      <trkpt lat="42.86675" lon="0.22754">
        <ele>2412.9</ele>
        <time>2022-02-09T13:03:10Z</time>
      </trkpt>
      <trkpt lat="42.86674" lon="0.22762">
        <ele>2412.3</ele>
        <time>2022-02-09T13:03:11Z</time>
      </trkpt>
      <trkpt lat="42.86672" lon="0.22771">
        <ele>2411.6</ele>
        <time>2022-02-09T13:03:12Z</time>
      </trkpt>
      <trkpt lat="42.8667" lon="0.22781">
        <ele>2410</ele>
        <time>2022-02-09T13:03:13Z</time>
      </trkpt>
      <trkpt lat="42.86667" lon="0.22791">
        <ele>2408.7</ele>
        <time>2022-02-09T13:03:14Z</time>
      </trkpt>
      <trkpt lat="42.86664" lon="0.22801">
        <ele>2407</ele>
        <time>2022-02-09T13:03:15Z</time>
      </trkpt>
      <trkpt lat="42.86662" lon="0.22809">
        <ele>2406.1</ele>
        <time>2022-02-09T13:03:16Z</time>
      </trkpt>
      <trkpt lat="42.8666" lon="0.22815">
        <ele>2405.2</ele>
        <time>2022-02-09T13:03:17Z</time>
      </trkpt>
      <trkpt lat="42.86658" lon="0.22821">
        <ele>2404.3</ele>
        <time>2022-02-09T13:03:18Z</time>
      </trkpt>
      <trkpt lat="42.86656" lon="0.22827">
        <ele>2402.7</ele>
        <time>2022-02-09T13:03:19Z</time>
      </trkpt>
      <trkpt lat="42.86653" lon="0.22833">
        <ele>2402.1</ele>
        <time>2022-02-09T13:03:20Z</time>
      </trkpt>
      <trkpt lat="42.86651" lon="0.22839">
        <ele>2401.1</ele>
        <time>2022-02-09T13:03:21Z</time>
      </trkpt>
      <trkpt lat="42.86648" lon="0.22845">
        <ele>2399.4</ele>
        <time>2022-02-09T13:03:22Z</time>
      </trkpt>
      <trkpt lat="42.86645" lon="0.2285">
        <ele>2398.4</ele>
        <time>2022-02-09T13:03:23Z</time>
      </trkpt>
      <trkpt lat="42.86643" lon="0.22856">
        <ele>2397.2</ele>
        <time>2022-02-09T13:03:24Z</time>
      </trkpt>
      <trkpt lat="42.86641" lon="0.22863">
        <ele>2395.7</ele>
        <time>2022-02-09T13:03:25Z</time>
      </trkpt>
      <trkpt lat="42.86639" lon="0.2287">
        <ele>2393.5</ele>
        <time>2022-02-09T13:03:26Z</time>
      </trkpt>
      <trkpt lat="42.86637" lon="0.22878">
        <ele>2392.2</ele>
        <time>2022-02-09T13:03:27Z</time>
      </trkpt>
      <trkpt lat="42.86634" lon="0.22885">
        <ele>2390.5</ele>
        <time>2022-02-09T13:03:28Z</time>
      </trkpt>
      <trkpt lat="42.86633" lon="0.22892">
        <ele>2388.4</ele>
        <time>2022-02-09T13:03:29Z</time>
      </trkpt>
      <trkpt lat="42.86633" lon="0.22898">
        <ele>2387.5</ele>
        <time>2022-02-09T13:03:30Z</time>
      </trkpt>
      <trkpt lat="42.86632" lon="0.22901">
        <ele>2386.7</ele>
        <time>2022-02-09T13:03:31Z</time>
      </trkpt>
      <trkpt lat="42.86632" lon="0.22904">
        <ele>2386.7</ele>
        <time>2022-02-09T13:03:32Z</time>
      </trkpt>
      <trkpt lat="42.86632" lon="0.22905">
        <ele>2385.8</ele>
        <time>2022-02-09T13:03:33Z</time>
      </trkpt>
      <trkpt lat="42.86632" lon="0.22905">
        <ele>2385.8</ele>
        <time>2022-02-09T13:03:34Z</time>
      </trkpt>
      <trkpt lat="42.86632" lon="0.22905">
        <ele>2385.8</ele>
        <time>2022-02-09T13:03:35Z</time>
      </trkpt>
      <trkpt lat="42.86632" lon="0.22905">
        <ele>2385.8</ele>
        <time>2022-02-09T13:03:36Z</time>
      </trkpt>
      <trkpt lat="42.86632" lon="0.22905">
        <ele>2385.8</ele>
        <time>2022-02-09T13:03:37Z</time>
      </trkpt>
      <trkpt lat="42.86632" lon="0.22905">
        <ele>2385.8</ele>
        <time>2022-02-09T13:03:38Z</time>
      </trkpt>
      <trkpt lat="42.86632" lon="0.22905">
        <ele>2385.8</ele>
        <time>2022-02-09T13:03:39Z</time>
      </trkpt>
      <trkpt lat="42.86632" lon="0.22905">
        <ele>2385.8</ele>
        <time>2022-02-09T13:03:40Z</time>
      </trkpt>
      <trkpt lat="42.86632" lon="0.22905">
        <ele>2385.8</ele>
        <time>2022-02-09T13:03:41Z</time>
      </trkpt>
      <trkpt lat="42.86632" lon="0.22905">
        <ele>2385.8</ele>
        <time>2022-02-09T13:03:42Z</time>
      </trkpt>
      <trkpt lat="42.86632" lon="0.22905">
        <ele>2385.8</ele>
        <time>2022-02-09T13:03:43Z</time>
      </trkpt>
      <trkpt lat="42.86632" lon="0.22905">
        <ele>2385.8</ele>
        <time>2022-02-09T13:03:44Z</time>
      </trkpt>
      <trkpt lat="42.86632" lon="0.22905">
        <ele>2385.8</ele>
        <time>2022-02-09T13:03:45Z</time>
      </trkpt>
      <trkpt lat="42.86632" lon="0.22905">
        <ele>2385.8</ele>
        <time>2022-02-09T13:03:46Z</time>
      </trkpt>
      <trkpt lat="42.86632" lon="0.22905">
        <ele>2385.8</ele>
        <time>2022-02-09T13:03:47Z</time>
      </trkpt>
      <trkpt lat="42.86632" lon="0.22905">
        <ele>2385.8</ele>
        <time>2022-02-09T13:03:48Z</time>
      </trkpt>
      <trkpt lat="42.86632" lon="0.22905">
        <ele>2385.8</ele>
        <time>2022-02-09T13:03:49Z</time>
      </trkpt>
      <trkpt lat="42.86632" lon="0.22905">
        <ele>2385.8</ele>
        <time>2022-02-09T13:03:50Z</time>
      </trkpt>
      <trkpt lat="42.86632" lon="0.22905">
        <ele>2385.8</ele>
        <time>2022-02-09T13:03:51Z</time>
      </trkpt>
      <trkpt lat="42.86632" lon="0.22905">
        <ele>2385.8</ele>
        <time>2022-02-09T13:03:52Z</time>
      </trkpt>
      <trkpt lat="42.86632" lon="0.22905">
        <ele>2385.8</ele>
        <time>2022-02-09T13:03:53Z</time>
      </trkpt>
      <trkpt lat="42.86632" lon="0.22905">
        <ele>2385.8</ele>
        <time>2022-02-09T13:03:54Z</time>
      </trkpt>
      <trkpt lat="42.86632" lon="0.22905">
        <ele>2385.8</ele>
        <time>2022-02-09T13:03:55Z</time>
      </trkpt>
      <trkpt lat="42.86632" lon="0.22905">
        <ele>2385.8</ele>
        <time>2022-02-09T13:03:56Z</time>
      </trkpt>
      <trkpt lat="42.86632" lon="0.22905">
        <ele>2385.8</ele>
        <time>2022-02-09T13:03:57Z</time>
      </trkpt>
      <trkpt lat="42.86632" lon="0.22905">
        <ele>2385.8</ele>
        <time>2022-02-09T13:03:58Z</time>
      </trkpt>
      <trkpt lat="42.86632" lon="0.22905">
        <ele>2385.8</ele>
        <time>2022-02-09T13:03:59Z</time>
      </trkpt>
      <trkpt lat="42.86632" lon="0.22905">
        <ele>2385.8</ele>
        <time>2022-02-09T13:04:00Z</time>
      </trkpt>
      <trkpt lat="42.86632" lon="0.22905">
        <ele>2385.8</ele>
        <time>2022-02-09T13:04:01Z</time>
      </trkpt>
      <trkpt lat="42.86632" lon="0.22905">
        <ele>2385.8</ele>
        <time>2022-02-09T13:04:02Z</time>
      </trkpt>
      <trkpt lat="42.86632" lon="0.22905">
        <ele>2385.8</ele>
        <time>2022-02-09T13:04:03Z</time>
      </trkpt>
      <trkpt lat="42.86632" lon="0.22905">
        <ele>2385.8</ele>
        <time>2022-02-09T13:04:04Z</time>
      </trkpt>
      <trkpt lat="42.86632" lon="0.22905">
        <ele>2385.9</ele>
        <time>2022-02-09T13:04:05Z</time>
      </trkpt>
      <trkpt lat="42.86632" lon="0.22905">
        <ele>2385.9</ele>
        <time>2022-02-09T13:04:06Z</time>
      </trkpt>
      <trkpt lat="42.86632" lon="0.22905">
        <ele>2385.9</ele>
        <time>2022-02-09T13:04:07Z</time>
      </trkpt>
      <trkpt lat="42.86632" lon="0.22905">
        <ele>2385.9</ele>
        <time>2022-02-09T13:04:08Z</time>
      </trkpt>
      <trkpt lat="42.86632" lon="0.22905">
        <ele>2386</ele>
        <time>2022-02-09T13:04:09Z</time>
      </trkpt>
      <trkpt lat="42.86632" lon="0.22905">
        <ele>2386</ele>
        <time>2022-02-09T13:04:10Z</time>
      </trkpt>
      <trkpt lat="42.86632" lon="0.22905">
        <ele>2386</ele>
        <time>2022-02-09T13:04:11Z</time>
      </trkpt>
      <trkpt lat="42.86632" lon="0.22905">
        <ele>2386</ele>
        <time>2022-02-09T13:04:12Z</time>
      </trkpt>
      <trkpt lat="42.86632" lon="0.22905">
        <ele>2386.1</ele>
        <time>2022-02-09T13:04:13Z</time>
      </trkpt>
      <trkpt lat="42.86632" lon="0.22905">
        <ele>2386.1</ele>
        <time>2022-02-09T13:04:14Z</time>
      </trkpt>
      <trkpt lat="42.86632" lon="0.22905">
        <ele>2386.1</ele>
        <time>2022-02-09T13:04:15Z</time>
      </trkpt>
      <trkpt lat="42.86632" lon="0.22905">
        <ele>2386.2</ele>
        <time>2022-02-09T13:04:16Z</time>
      </trkpt>
      <trkpt lat="42.86632" lon="0.22905">
        <ele>2386.2</ele>
        <time>2022-02-09T13:04:17Z</time>
      </trkpt>
      <trkpt lat="42.86632" lon="0.22905">
        <ele>2386.2</ele>
        <time>2022-02-09T13:04:18Z</time>
      </trkpt>
      <trkpt lat="42.86632" lon="0.22905">
        <ele>2386.2</ele>
        <time>2022-02-09T13:04:19Z</time>
      </trkpt>
      <trkpt lat="42.86632" lon="0.22905">
        <ele>2386.3</ele>
        <time>2022-02-09T13:04:20Z</time>
      </trkpt>
      <trkpt lat="42.86632" lon="0.22905">
        <ele>2386.3</ele>
        <time>2022-02-09T13:04:21Z</time>
      </trkpt>
      <trkpt lat="42.86632" lon="0.22905">
        <ele>2386.3</ele>
        <time>2022-02-09T13:04:22Z</time>
      </trkpt>
      <trkpt lat="42.86632" lon="0.22905">
        <ele>2386.3</ele>
        <time>2022-02-09T13:04:23Z</time>
      </trkpt>
      <trkpt lat="42.86632" lon="0.22905">
        <ele>2386.4</ele>
        <time>2022-02-09T13:04:24Z</time>
      </trkpt>
      <trkpt lat="42.86632" lon="0.22905">
        <ele>2386.4</ele>
        <time>2022-02-09T13:04:25Z</time>
      </trkpt>
      <trkpt lat="42.86632" lon="0.22905">
        <ele>2386.4</ele>
        <time>2022-02-09T13:04:26Z</time>
      </trkpt>
      <trkpt lat="42.86632" lon="0.22905">
        <ele>2386.4</ele>
        <time>2022-02-09T13:04:27Z</time>
      </trkpt>
      <trkpt lat="42.86632" lon="0.22905">
        <ele>2386.5</ele>
        <time>2022-02-09T13:04:28Z</time>
      </trkpt>
      <trkpt lat="42.86632" lon="0.22905">
        <ele>2386.5</ele>
        <time>2022-02-09T13:04:29Z</time>
      </trkpt>
      <trkpt lat="42.86632" lon="0.22905">
        <ele>2386.5</ele>
        <time>2022-02-09T13:04:30Z</time>
      </trkpt>
      <trkpt lat="42.86632" lon="0.22905">
        <ele>2386.6</ele>
        <time>2022-02-09T13:04:31Z</time>
      </trkpt>
      <trkpt lat="42.86632" lon="0.22905">
        <ele>2386.6</ele>
        <time>2022-02-09T13:04:32Z</time>
      </trkpt>
      <trkpt lat="42.86632" lon="0.22905">
        <ele>2386.6</ele>
        <time>2022-02-09T13:04:33Z</time>
      </trkpt>
      <trkpt lat="42.86632" lon="0.22905">
        <ele>2386.6</ele>
        <time>2022-02-09T13:04:34Z</time>
      </trkpt>
      <trkpt lat="42.86632" lon="0.22905">
        <ele>2386.7</ele>
        <time>2022-02-09T13:04:35Z</time>
      </trkpt>
      <trkpt lat="42.86632" lon="0.22905">
        <ele>2386.7</ele>
        <time>2022-02-09T13:04:36Z</time>
      </trkpt>
      <trkpt lat="42.86632" lon="0.22905">
        <ele>2386.7</ele>
        <time>2022-02-09T13:04:37Z</time>
      </trkpt>
      <trkpt lat="42.86632" lon="0.22905">
        <ele>2386.7</ele>
        <time>2022-02-09T13:04:38Z</time>
      </trkpt>
      <trkpt lat="42.86632" lon="0.22905">
        <ele>2386.8</ele>
        <time>2022-02-09T13:04:39Z</time>
      </trkpt>
      <trkpt lat="42.86632" lon="0.22905">
        <ele>2386.8</ele>
        <time>2022-02-09T13:04:40Z</time>
      </trkpt>
      <trkpt lat="42.86632" lon="0.22905">
        <ele>2386.8</ele>
        <time>2022-02-09T13:04:41Z</time>
      </trkpt>
      <trkpt lat="42.86632" lon="0.22905">
        <ele>2386.9</ele>
        <time>2022-02-09T13:04:42Z</time>
      </trkpt>
      <trkpt lat="42.86632" lon="0.22905">
        <ele>2386.9</ele>
        <time>2022-02-09T13:04:43Z</time>
      </trkpt>
      <trkpt lat="42.86632" lon="0.22905">
        <ele>2386.9</ele>
        <time>2022-02-09T13:04:44Z</time>
      </trkpt>
      <trkpt lat="42.86632" lon="0.22905">
        <ele>2386.9</ele>
        <time>2022-02-09T13:04:45Z</time>
      </trkpt>
      <trkpt lat="42.86632" lon="0.22905">
        <ele>2387</ele>
        <time>2022-02-09T13:04:46Z</time>
      </trkpt>
      <trkpt lat="42.86632" lon="0.22905">
        <ele>2387</ele>
        <time>2022-02-09T13:04:47Z</time>
      </trkpt>
      <trkpt lat="42.86632" lon="0.22905">
        <ele>2387</ele>
        <time>2022-02-09T13:04:48Z</time>
      </trkpt>
      <trkpt lat="42.86632" lon="0.22905">
        <ele>2387</ele>
        <time>2022-02-09T13:04:49Z</time>
      </trkpt>
      <trkpt lat="42.86632" lon="0.22905">
        <ele>2387.1</ele>
        <time>2022-02-09T13:04:50Z</time>
      </trkpt>
      <trkpt lat="42.86631" lon="0.22906">
        <ele>2387.1</ele>
        <time>2022-02-09T13:04:51Z</time>
      </trkpt>
      <trkpt lat="42.86628" lon="0.22909">
        <ele>2385.9</ele>
        <time>2022-02-09T13:04:52Z</time>
      </trkpt>
      <trkpt lat="42.86625" lon="0.2291">
        <ele>2385.7</ele>
        <time>2022-02-09T13:04:53Z</time>
      </trkpt>
      <trkpt lat="42.86622" lon="0.22913">
        <ele>2384.5</ele>
        <time>2022-02-09T13:04:54Z</time>
      </trkpt>
      <trkpt lat="42.86621" lon="0.22918">
        <ele>2383.3</ele>
        <time>2022-02-09T13:04:55Z</time>
      </trkpt>
      <trkpt lat="42.86621" lon="0.22922">
        <ele>2382.3</ele>
        <time>2022-02-09T13:04:56Z</time>
      </trkpt>
      <trkpt lat="42.86622" lon="0.22925">
        <ele>2381.6</ele>
        <time>2022-02-09T13:04:57Z</time>
      </trkpt>
      <trkpt lat="42.86624" lon="0.22928">
        <ele>2381.6</ele>
        <time>2022-02-09T13:04:58Z</time>
      </trkpt>
      <trkpt lat="42.86625" lon="0.22929">
        <ele>2381.6</ele>
        <time>2022-02-09T13:04:59Z</time>
      </trkpt>
      <trkpt lat="42.86625" lon="0.2293">
        <ele>2380.8</ele>
        <time>2022-02-09T13:05:00Z</time>
      </trkpt>
      <trkpt lat="42.86625" lon="0.22931">
        <ele>2380.9</ele>
        <time>2022-02-09T13:05:01Z</time>
      </trkpt>
      <trkpt lat="42.86625" lon="0.22931">
        <ele>2380.9</ele>
        <time>2022-02-09T13:05:02Z</time>
      </trkpt>
      <trkpt lat="42.86625" lon="0.22931">
        <ele>2380.9</ele>
        <time>2022-02-09T13:05:03Z</time>
      </trkpt>
      <trkpt lat="42.86625" lon="0.22931">
        <ele>2380.9</ele>
        <time>2022-02-09T13:05:04Z</time>
      </trkpt>
      <trkpt lat="42.86625" lon="0.22931">
        <ele>2381</ele>
        <time>2022-02-09T13:05:05Z</time>
      </trkpt>
      <trkpt lat="42.86625" lon="0.22931">
        <ele>2381</ele>
        <time>2022-02-09T13:05:06Z</time>
      </trkpt>
      <trkpt lat="42.86625" lon="0.22931">
        <ele>2381</ele>
        <time>2022-02-09T13:05:07Z</time>
      </trkpt>
      <trkpt lat="42.86625" lon="0.22931">
        <ele>2381.1</ele>
        <time>2022-02-09T13:05:08Z</time>
      </trkpt>
      <trkpt lat="42.86625" lon="0.22931">
        <ele>2381.1</ele>
        <time>2022-02-09T13:05:09Z</time>
      </trkpt>
      <trkpt lat="42.86623" lon="0.22931">
        <ele>2380.9</ele>
        <time>2022-02-09T13:05:10Z</time>
      </trkpt>
      <trkpt lat="42.8662" lon="0.22932">
        <ele>2380.7</ele>
        <time>2022-02-09T13:05:11Z</time>
      </trkpt>
      <trkpt lat="42.86616" lon="0.22933">
        <ele>2380.5</ele>
        <time>2022-02-09T13:05:12Z</time>
      </trkpt>
      <trkpt lat="42.86612" lon="0.22934">
        <ele>2380.3</ele>
        <time>2022-02-09T13:05:13Z</time>
      </trkpt>
      <trkpt lat="42.86608" lon="0.22935">
        <ele>2378.9</ele>
        <time>2022-02-09T13:05:14Z</time>
      </trkpt>
      <trkpt lat="42.86605" lon="0.22936">
        <ele>2378.7</ele>
        <time>2022-02-09T13:05:15Z</time>
      </trkpt>
      <trkpt lat="42.86602" lon="0.22937">
        <ele>2378.6</ele>
        <time>2022-02-09T13:05:16Z</time>
      </trkpt>
      <trkpt lat="42.866" lon="0.22939">
        <ele>2377.6</ele>
        <time>2022-02-09T13:05:17Z</time>
      </trkpt>
      <trkpt lat="42.86598" lon="0.2294">
        <ele>2377.4</ele>
        <time>2022-02-09T13:05:18Z</time>
      </trkpt>
      <trkpt lat="42.86596" lon="0.2294">
        <ele>2377.3</ele>
        <time>2022-02-09T13:05:19Z</time>
      </trkpt>
      <trkpt lat="42.86594" lon="0.22941">
        <ele>2377.3</ele>
        <time>2022-02-09T13:05:20Z</time>
      </trkpt>
      <trkpt lat="42.86592" lon="0.22941">
        <ele>2377.1</ele>
        <time>2022-02-09T13:05:21Z</time>
      </trkpt>
      <trkpt lat="42.86592" lon="0.22941">
        <ele>2377.1</ele>
        <time>2022-02-09T13:05:22Z</time>
      </trkpt>
      <trkpt lat="42.86592" lon="0.22941">
        <ele>2377.2</ele>
        <time>2022-02-09T13:05:23Z</time>
      </trkpt>
      <trkpt lat="42.86592" lon="0.22941">
        <ele>2377.2</ele>
        <time>2022-02-09T13:05:24Z</time>
      </trkpt>
      <trkpt lat="42.86592" lon="0.22941">
        <ele>2377.2</ele>
        <time>2022-02-09T13:05:25Z</time>
      </trkpt>
      <trkpt lat="42.86592" lon="0.22941">
        <ele>2377.2</ele>
        <time>2022-02-09T13:05:26Z</time>
      </trkpt>
      <trkpt lat="42.86592" lon="0.22941">
        <ele>2377.3</ele>
        <time>2022-02-09T13:05:27Z</time>
      </trkpt>
      <trkpt lat="42.86592" lon="0.22941">
        <ele>2377.3</ele>
        <time>2022-02-09T13:05:28Z</time>
      </trkpt>
      <trkpt lat="42.86592" lon="0.22941">
        <ele>2377.3</ele>
        <time>2022-02-09T13:05:29Z</time>
      </trkpt>
      <trkpt lat="42.86592" lon="0.22941">
        <ele>2377.3</ele>
        <time>2022-02-09T13:05:30Z</time>
      </trkpt>
      <trkpt lat="42.86592" lon="0.22941">
        <ele>2377.4</ele>
        <time>2022-02-09T13:05:31Z</time>
      </trkpt>
      <trkpt lat="42.86592" lon="0.22941">
        <ele>2377.4</ele>
        <time>2022-02-09T13:05:32Z</time>
      </trkpt>
      <trkpt lat="42.86592" lon="0.22941">
        <ele>2377.4</ele>
        <time>2022-02-09T13:05:33Z</time>
      </trkpt>
      <trkpt lat="42.86592" lon="0.2294">
        <ele>2377.5</ele>
        <time>2022-02-09T13:05:34Z</time>
      </trkpt>
      <trkpt lat="42.86592" lon="0.2294">
        <ele>2377.5</ele>
        <time>2022-02-09T13:05:35Z</time>
      </trkpt>
      <trkpt lat="42.86592" lon="0.2294">
        <ele>2377.5</ele>
        <time>2022-02-09T13:05:36Z</time>
      </trkpt>
      <trkpt lat="42.86592" lon="0.2294">
        <ele>2377.5</ele>
        <time>2022-02-09T13:05:37Z</time>
      </trkpt>
      <trkpt lat="42.86592" lon="0.2294">
        <ele>2377.6</ele>
        <time>2022-02-09T13:05:38Z</time>
      </trkpt>
      <trkpt lat="42.86592" lon="0.2294">
        <ele>2377.6</ele>
        <time>2022-02-09T13:05:39Z</time>
      </trkpt>
      <trkpt lat="42.86592" lon="0.2294">
        <ele>2377.6</ele>
        <time>2022-02-09T13:05:40Z</time>
      </trkpt>
      <trkpt lat="42.86592" lon="0.2294">
        <ele>2377.6</ele>
        <time>2022-02-09T13:05:41Z</time>
      </trkpt>
      <trkpt lat="42.86592" lon="0.2294">
        <ele>2377.7</ele>
        <time>2022-02-09T13:05:42Z</time>
      </trkpt>
      <trkpt lat="42.86592" lon="0.2294">
        <ele>2377.7</ele>
        <time>2022-02-09T13:05:43Z</time>
      </trkpt>
      <trkpt lat="42.86592" lon="0.2294">
        <ele>2377.7</ele>
        <time>2022-02-09T13:05:44Z</time>
      </trkpt>
      <trkpt lat="42.86592" lon="0.2294">
        <ele>2377.7</ele>
        <time>2022-02-09T13:05:45Z</time>
      </trkpt>
      <trkpt lat="42.86592" lon="0.2294">
        <ele>2377.7</ele>
        <time>2022-02-09T13:05:46Z</time>
      </trkpt>
      <trkpt lat="42.86592" lon="0.2294">
        <ele>2377.7</ele>
        <time>2022-02-09T13:05:47Z</time>
      </trkpt>
      <trkpt lat="42.86592" lon="0.2294">
        <ele>2377.7</ele>
        <time>2022-02-09T13:05:48Z</time>
      </trkpt>
      <trkpt lat="42.86592" lon="0.2294">
        <ele>2377.7</ele>
        <time>2022-02-09T13:05:49Z</time>
      </trkpt>
      <trkpt lat="42.86592" lon="0.2294">
        <ele>2377.7</ele>
        <time>2022-02-09T13:05:50Z</time>
      </trkpt>
      <trkpt lat="42.86592" lon="0.2294">
        <ele>2377.7</ele>
        <time>2022-02-09T13:05:51Z</time>
      </trkpt>
      <trkpt lat="42.86592" lon="0.2294">
        <ele>2377.7</ele>
        <time>2022-02-09T13:05:52Z</time>
      </trkpt>
      <trkpt lat="42.86592" lon="0.2294">
        <ele>2377.7</ele>
        <time>2022-02-09T13:05:53Z</time>
      </trkpt>
      <trkpt lat="42.86592" lon="0.2294">
        <ele>2377.7</ele>
        <time>2022-02-09T13:05:54Z</time>
      </trkpt>
      <trkpt lat="42.86592" lon="0.2294">
        <ele>2377.7</ele>
        <time>2022-02-09T13:05:55Z</time>
      </trkpt>
      <trkpt lat="42.86592" lon="0.2294">
        <ele>2377.7</ele>
        <time>2022-02-09T13:05:56Z</time>
      </trkpt>
      <trkpt lat="42.86592" lon="0.2294">
        <ele>2377.7</ele>
        <time>2022-02-09T13:05:57Z</time>
      </trkpt>
      <trkpt lat="42.86592" lon="0.2294">
        <ele>2377.7</ele>
        <time>2022-02-09T13:05:58Z</time>
      </trkpt>
      <trkpt lat="42.86592" lon="0.2294">
        <ele>2377.7</ele>
        <time>2022-02-09T13:05:59Z</time>
      </trkpt>
      <trkpt lat="42.86592" lon="0.2294">
        <ele>2377.7</ele>
        <time>2022-02-09T13:06:00Z</time>
      </trkpt>
      <trkpt lat="42.86592" lon="0.2294">
        <ele>2377.7</ele>
        <time>2022-02-09T13:06:01Z</time>
      </trkpt>
      <trkpt lat="42.86592" lon="0.2294">
        <ele>2377.7</ele>
        <time>2022-02-09T13:06:02Z</time>
      </trkpt>
      <trkpt lat="42.86592" lon="0.2294">
        <ele>2377.7</ele>
        <time>2022-02-09T13:06:03Z</time>
      </trkpt>
      <trkpt lat="42.86592" lon="0.2294">
        <ele>2377.7</ele>
        <time>2022-02-09T13:06:04Z</time>
      </trkpt>
      <trkpt lat="42.86592" lon="0.22939">
        <ele>2377.7</ele>
        <time>2022-02-09T13:06:05Z</time>
      </trkpt>
      <trkpt lat="42.86592" lon="0.22939">
        <ele>2377.7</ele>
        <time>2022-02-09T13:06:06Z</time>
      </trkpt>
      <trkpt lat="42.86592" lon="0.22939">
        <ele>2377.7</ele>
        <time>2022-02-09T13:06:07Z</time>
      </trkpt>
      <trkpt lat="42.86592" lon="0.22939">
        <ele>2377.7</ele>
        <time>2022-02-09T13:06:08Z</time>
      </trkpt>
      <trkpt lat="42.86592" lon="0.22939">
        <ele>2377.7</ele>
        <time>2022-02-09T13:06:09Z</time>
      </trkpt>
      <trkpt lat="42.86592" lon="0.22939">
        <ele>2377.7</ele>
        <time>2022-02-09T13:06:10Z</time>
      </trkpt>
      <trkpt lat="42.86592" lon="0.22939">
        <ele>2377.7</ele>
        <time>2022-02-09T13:06:11Z</time>
      </trkpt>
      <trkpt lat="42.86592" lon="0.22939">
        <ele>2377.7</ele>
        <time>2022-02-09T13:06:12Z</time>
      </trkpt>
      <trkpt lat="42.86592" lon="0.22939">
        <ele>2377.7</ele>
        <time>2022-02-09T13:06:13Z</time>
      </trkpt>
      <trkpt lat="42.86592" lon="0.22939">
        <ele>2377.7</ele>
        <time>2022-02-09T13:06:14Z</time>
      </trkpt>
      <trkpt lat="42.86592" lon="0.22939">
        <ele>2377.7</ele>
        <time>2022-02-09T13:06:15Z</time>
      </trkpt>
      <trkpt lat="42.86592" lon="0.22939">
        <ele>2377.7</ele>
        <time>2022-02-09T13:06:16Z</time>
      </trkpt>
      <trkpt lat="42.86592" lon="0.22939">
        <ele>2377.7</ele>
        <time>2022-02-09T13:06:17Z</time>
      </trkpt>
      <trkpt lat="42.86592" lon="0.22939">
        <ele>2377.7</ele>
        <time>2022-02-09T13:06:18Z</time>
      </trkpt>
      <trkpt lat="42.86592" lon="0.22939">
        <ele>2377.7</ele>
        <time>2022-02-09T13:06:19Z</time>
      </trkpt>
      <trkpt lat="42.86592" lon="0.22939">
        <ele>2377.7</ele>
        <time>2022-02-09T13:06:20Z</time>
      </trkpt>
      <trkpt lat="42.86592" lon="0.22939">
        <ele>2377.7</ele>
        <time>2022-02-09T13:06:21Z</time>
      </trkpt>
      <trkpt lat="42.86592" lon="0.22939">
        <ele>2377.7</ele>
        <time>2022-02-09T13:06:22Z</time>
      </trkpt>
      <trkpt lat="42.86592" lon="0.22939">
        <ele>2377.7</ele>
        <time>2022-02-09T13:06:23Z</time>
      </trkpt>
      <trkpt lat="42.86592" lon="0.22939">
        <ele>2377.7</ele>
        <time>2022-02-09T13:06:24Z</time>
      </trkpt>
      <trkpt lat="42.86592" lon="0.22939">
        <ele>2377.7</ele>
        <time>2022-02-09T13:06:25Z</time>
      </trkpt>
      <trkpt lat="42.86592" lon="0.22939">
        <ele>2377.7</ele>
        <time>2022-02-09T13:06:26Z</time>
      </trkpt>
      <trkpt lat="42.86592" lon="0.22939">
        <ele>2377.7</ele>
        <time>2022-02-09T13:06:27Z</time>
      </trkpt>
      <trkpt lat="42.86592" lon="0.22939">
        <ele>2377.7</ele>
        <time>2022-02-09T13:06:28Z</time>
      </trkpt>
      <trkpt lat="42.86592" lon="0.22939">
        <ele>2377.7</ele>
        <time>2022-02-09T13:06:29Z</time>
      </trkpt>
      <trkpt lat="42.86597" lon="0.22935">
        <ele>2379.1</ele>
        <time>2022-02-09T13:06:30Z</time>
      </trkpt>
      <trkpt lat="42.86597" lon="0.22934">
        <ele>2379.1</ele>
        <time>2022-02-09T13:06:31Z</time>
      </trkpt>
      <trkpt lat="42.86597" lon="0.22934">
        <ele>2379.1</ele>
        <time>2022-02-09T13:06:32Z</time>
      </trkpt>
      <trkpt lat="42.86597" lon="0.22934">
        <ele>2380</ele>
        <time>2022-02-09T13:06:33Z</time>
      </trkpt>
      <trkpt lat="42.86597" lon="0.22934">
        <ele>2380</ele>
        <time>2022-02-09T13:06:34Z</time>
      </trkpt>
      <trkpt lat="42.86598" lon="0.22933">
        <ele>2380</ele>
        <time>2022-02-09T13:06:35Z</time>
      </trkpt>
      <trkpt lat="42.86598" lon="0.22933">
        <ele>2380</ele>
        <time>2022-02-09T13:06:36Z</time>
      </trkpt>
      <trkpt lat="42.86598" lon="0.22933">
        <ele>2380</ele>
        <time>2022-02-09T13:06:37Z</time>
      </trkpt>
      <trkpt lat="42.86598" lon="0.22933">
        <ele>2380</ele>
        <time>2022-02-09T13:06:38Z</time>
      </trkpt>
      <trkpt lat="42.86598" lon="0.22933">
        <ele>2380</ele>
        <time>2022-02-09T13:06:39Z</time>
      </trkpt>
      <trkpt lat="42.86598" lon="0.22932">
        <ele>2380</ele>
        <time>2022-02-09T13:06:40Z</time>
      </trkpt>
      <trkpt lat="42.86598" lon="0.22932">
        <ele>2380</ele>
        <time>2022-02-09T13:06:41Z</time>
      </trkpt>
      <trkpt lat="42.86599" lon="0.22932">
        <ele>2380</ele>
        <time>2022-02-09T13:06:42Z</time>
      </trkpt>
      <trkpt lat="42.86599" lon="0.22932">
        <ele>2380</ele>
        <time>2022-02-09T13:06:43Z</time>
      </trkpt>
      <trkpt lat="42.86599" lon="0.22932">
        <ele>2380</ele>
        <time>2022-02-09T13:06:44Z</time>
      </trkpt>
      <trkpt lat="42.86599" lon="0.22931">
        <ele>2380</ele>
        <time>2022-02-09T13:06:45Z</time>
      </trkpt>
      <trkpt lat="42.86599" lon="0.22931">
        <ele>2380</ele>
        <time>2022-02-09T13:06:46Z</time>
      </trkpt>
      <trkpt lat="42.86599" lon="0.22931">
        <ele>2380</ele>
        <time>2022-02-09T13:06:47Z</time>
      </trkpt>
      <trkpt lat="42.86599" lon="0.22931">
        <ele>2380.2</ele>
        <time>2022-02-09T13:06:48Z</time>
      </trkpt>
      <trkpt lat="42.866" lon="0.22931">
        <ele>2380.2</ele>
        <time>2022-02-09T13:06:49Z</time>
      </trkpt>
      <trkpt lat="42.866" lon="0.2293">
        <ele>2380.2</ele>
        <time>2022-02-09T13:06:50Z</time>
      </trkpt>
      <trkpt lat="42.866" lon="0.2293">
        <ele>2380.2</ele>
        <time>2022-02-09T13:06:51Z</time>
      </trkpt>
      <trkpt lat="42.866" lon="0.2293">
        <ele>2380.2</ele>
        <time>2022-02-09T13:06:52Z</time>
      </trkpt>
      <trkpt lat="42.866" lon="0.2293">
        <ele>2381.1</ele>
        <time>2022-02-09T13:06:53Z</time>
      </trkpt>
      <trkpt lat="42.86603" lon="0.22924">
        <ele>2382.3</ele>
        <time>2022-02-09T13:06:54Z</time>
      </trkpt>
      <trkpt lat="42.86604" lon="0.22923">
        <ele>2382.3</ele>
        <time>2022-02-09T13:06:55Z</time>
      </trkpt>
      <trkpt lat="42.86604" lon="0.22923">
        <ele>2382.3</ele>
        <time>2022-02-09T13:06:56Z</time>
      </trkpt>
      <trkpt lat="42.86604" lon="0.22922">
        <ele>2382.3</ele>
        <time>2022-02-09T13:06:57Z</time>
      </trkpt>
      <trkpt lat="42.86604" lon="0.22922">
        <ele>2382.3</ele>
        <time>2022-02-09T13:06:58Z</time>
      </trkpt>
      <trkpt lat="42.86604" lon="0.22922">
        <ele>2382.3</ele>
        <time>2022-02-09T13:06:59Z</time>
      </trkpt>
      <trkpt lat="42.86605" lon="0.22922">
        <ele>2382.3</ele>
        <time>2022-02-09T13:07:00Z</time>
      </trkpt>
      <trkpt lat="42.86605" lon="0.22921">
        <ele>2382.3</ele>
        <time>2022-02-09T13:07:01Z</time>
      </trkpt>
      <trkpt lat="42.86605" lon="0.22921">
        <ele>2383.2</ele>
        <time>2022-02-09T13:07:02Z</time>
      </trkpt>
      <trkpt lat="42.86605" lon="0.22921">
        <ele>2383.2</ele>
        <time>2022-02-09T13:07:03Z</time>
      </trkpt>
      <trkpt lat="42.86606" lon="0.22921">
        <ele>2383.2</ele>
        <time>2022-02-09T13:07:04Z</time>
      </trkpt>
      <trkpt lat="42.86606" lon="0.2292">
        <ele>2383.5</ele>
        <time>2022-02-09T13:07:05Z</time>
      </trkpt>
      <trkpt lat="42.86606" lon="0.2292">
        <ele>2383.5</ele>
        <time>2022-02-09T13:07:06Z</time>
      </trkpt>
      <trkpt lat="42.86606" lon="0.2292">
        <ele>2383.5</ele>
        <time>2022-02-09T13:07:07Z</time>
      </trkpt>
      <trkpt lat="42.86606" lon="0.22919">
        <ele>2383.5</ele>
        <time>2022-02-09T13:07:08Z</time>
      </trkpt>
      <trkpt lat="42.86607" lon="0.22919">
        <ele>2383.5</ele>
        <time>2022-02-09T13:07:09Z</time>
      </trkpt>
      <trkpt lat="42.86607" lon="0.22919">
        <ele>2383.5</ele>
        <time>2022-02-09T13:07:10Z</time>
      </trkpt>
      <trkpt lat="42.86611" lon="0.22913">
        <ele>2384.7</ele>
        <time>2022-02-09T13:07:11Z</time>
      </trkpt>
      <trkpt lat="42.86611" lon="0.22913">
        <ele>2384.7</ele>
        <time>2022-02-09T13:07:12Z</time>
      </trkpt>
      <trkpt lat="42.86611" lon="0.22912">
        <ele>2385.7</ele>
        <time>2022-02-09T13:07:13Z</time>
      </trkpt>
      <trkpt lat="42.86611" lon="0.22911">
        <ele>2385.7</ele>
        <time>2022-02-09T13:07:14Z</time>
      </trkpt>
      <trkpt lat="42.86611" lon="0.22911">
        <ele>2385.7</ele>
        <time>2022-02-09T13:07:15Z</time>
      </trkpt>
      <trkpt lat="42.86611" lon="0.22911">
        <ele>2385.7</ele>
        <time>2022-02-09T13:07:16Z</time>
      </trkpt>
      <trkpt lat="42.86611" lon="0.22911">
        <ele>2385.7</ele>
        <time>2022-02-09T13:07:17Z</time>
      </trkpt>
      <trkpt lat="42.86611" lon="0.22911">
        <ele>2385.7</ele>
        <time>2022-02-09T13:07:18Z</time>
      </trkpt>
      <trkpt lat="42.86611" lon="0.22911">
        <ele>2385.7</ele>
        <time>2022-02-09T13:07:19Z</time>
      </trkpt>
      <trkpt lat="42.86611" lon="0.22911">
        <ele>2385.7</ele>
        <time>2022-02-09T13:07:20Z</time>
      </trkpt>
      <trkpt lat="42.86611" lon="0.22911">
        <ele>2385.7</ele>
        <time>2022-02-09T13:07:21Z</time>
      </trkpt>
      <trkpt lat="42.86611" lon="0.22911">
        <ele>2385.7</ele>
        <time>2022-02-09T13:07:22Z</time>
      </trkpt>
      <trkpt lat="42.86611" lon="0.22911">
        <ele>2385.7</ele>
        <time>2022-02-09T13:07:23Z</time>
      </trkpt>
      <trkpt lat="42.86611" lon="0.22911">
        <ele>2385.7</ele>
        <time>2022-02-09T13:07:24Z</time>
      </trkpt>
      <trkpt lat="42.86611" lon="0.22911">
        <ele>2385.7</ele>
        <time>2022-02-09T13:07:25Z</time>
      </trkpt>
      <trkpt lat="42.86611" lon="0.22911">
        <ele>2385.7</ele>
        <time>2022-02-09T13:07:26Z</time>
      </trkpt>
      <trkpt lat="42.86611" lon="0.22911">
        <ele>2385.7</ele>
        <time>2022-02-09T13:07:27Z</time>
      </trkpt>
      <trkpt lat="42.86611" lon="0.22911">
        <ele>2385.7</ele>
        <time>2022-02-09T13:07:28Z</time>
      </trkpt>
      <trkpt lat="42.86611" lon="0.22911">
        <ele>2385.7</ele>
        <time>2022-02-09T13:07:29Z</time>
      </trkpt>
      <trkpt lat="42.86611" lon="0.22911">
        <ele>2385.7</ele>
        <time>2022-02-09T13:07:30Z</time>
      </trkpt>
      <trkpt lat="42.86611" lon="0.22911">
        <ele>2385.7</ele>
        <time>2022-02-09T13:07:31Z</time>
      </trkpt>
      <trkpt lat="42.86611" lon="0.22911">
        <ele>2385.7</ele>
        <time>2022-02-09T13:07:32Z</time>
      </trkpt>
      <trkpt lat="42.86611" lon="0.22911">
        <ele>2385.7</ele>
        <time>2022-02-09T13:07:33Z</time>
      </trkpt>
      <trkpt lat="42.86611" lon="0.22911">
        <ele>2385.7</ele>
        <time>2022-02-09T13:07:34Z</time>
      </trkpt>
      <trkpt lat="42.86611" lon="0.22911">
        <ele>2385.7</ele>
        <time>2022-02-09T13:07:35Z</time>
      </trkpt>
      <trkpt lat="42.86611" lon="0.22911">
        <ele>2385.7</ele>
        <time>2022-02-09T13:07:36Z</time>
      </trkpt>
      <trkpt lat="42.86611" lon="0.22911">
        <ele>2385.7</ele>
        <time>2022-02-09T13:07:37Z</time>
      </trkpt>
      <trkpt lat="42.86611" lon="0.22911">
        <ele>2385.7</ele>
        <time>2022-02-09T13:07:38Z</time>
      </trkpt>
      <trkpt lat="42.86611" lon="0.22911">
        <ele>2385.7</ele>
        <time>2022-02-09T13:07:39Z</time>
      </trkpt>
      <trkpt lat="42.86611" lon="0.22911">
        <ele>2385.7</ele>
        <time>2022-02-09T13:07:40Z</time>
      </trkpt>
      <trkpt lat="42.86611" lon="0.22911">
        <ele>2385.7</ele>
        <time>2022-02-09T13:07:41Z</time>
      </trkpt>
      <trkpt lat="42.86611" lon="0.22911">
        <ele>2385.7</ele>
        <time>2022-02-09T13:07:42Z</time>
      </trkpt>
      <trkpt lat="42.86611" lon="0.22911">
        <ele>2385.7</ele>
        <time>2022-02-09T13:07:43Z</time>
      </trkpt>
      <trkpt lat="42.86611" lon="0.22911">
        <ele>2385.7</ele>
        <time>2022-02-09T13:07:44Z</time>
      </trkpt>
      <trkpt lat="42.86611" lon="0.22911">
        <ele>2385.7</ele>
        <time>2022-02-09T13:07:45Z</time>
      </trkpt>
      <trkpt lat="42.86611" lon="0.22911">
        <ele>2385.7</ele>
        <time>2022-02-09T13:07:46Z</time>
      </trkpt>
      <trkpt lat="42.86611" lon="0.22911">
        <ele>2385.7</ele>
        <time>2022-02-09T13:07:47Z</time>
      </trkpt>
      <trkpt lat="42.86611" lon="0.22911">
        <ele>2385.7</ele>
        <time>2022-02-09T13:07:48Z</time>
      </trkpt>
      <trkpt lat="42.86611" lon="0.22911">
        <ele>2385.7</ele>
        <time>2022-02-09T13:07:49Z</time>
      </trkpt>
      <trkpt lat="42.86611" lon="0.22911">
        <ele>2385.7</ele>
        <time>2022-02-09T13:07:50Z</time>
      </trkpt>
      <trkpt lat="42.86611" lon="0.22911">
        <ele>2385.7</ele>
        <time>2022-02-09T13:07:51Z</time>
      </trkpt>
      <trkpt lat="42.86611" lon="0.22911">
        <ele>2385.7</ele>
        <time>2022-02-09T13:07:52Z</time>
      </trkpt>
      <trkpt lat="42.86611" lon="0.22911">
        <ele>2385.7</ele>
        <time>2022-02-09T13:07:53Z</time>
      </trkpt>
      <trkpt lat="42.86611" lon="0.22911">
        <ele>2385.7</ele>
        <time>2022-02-09T13:07:54Z</time>
      </trkpt>
      <trkpt lat="42.86611" lon="0.22911">
        <ele>2385.7</ele>
        <time>2022-02-09T13:07:55Z</time>
      </trkpt>
      <trkpt lat="42.86611" lon="0.22911">
        <ele>2385.7</ele>
        <time>2022-02-09T13:07:56Z</time>
      </trkpt>
      <trkpt lat="42.86611" lon="0.22911">
        <ele>2385.7</ele>
        <time>2022-02-09T13:07:57Z</time>
      </trkpt>
      <trkpt lat="42.86611" lon="0.22911">
        <ele>2385.7</ele>
        <time>2022-02-09T13:07:58Z</time>
      </trkpt>
      <trkpt lat="42.86613" lon="0.22907">
        <ele>2386.8</ele>
        <time>2022-02-09T13:07:59Z</time>
      </trkpt>
      <trkpt lat="42.86615" lon="0.22899">
        <ele>2388.5</ele>
        <time>2022-02-09T13:08:00Z</time>
      </trkpt>
      <trkpt lat="42.86615" lon="0.22898">
        <ele>2388.8</ele>
        <time>2022-02-09T13:08:01Z</time>
      </trkpt>
      <trkpt lat="42.86616" lon="0.22897">
        <ele>2388.8</ele>
        <time>2022-02-09T13:08:02Z</time>
      </trkpt>
      <trkpt lat="42.86616" lon="0.22896">
        <ele>2388.8</ele>
        <time>2022-02-09T13:08:03Z</time>
      </trkpt>
      <trkpt lat="42.86616" lon="0.22894">
        <ele>2389.6</ele>
        <time>2022-02-09T13:08:04Z</time>
      </trkpt>
      <trkpt lat="42.86616" lon="0.22892">
        <ele>2389.6</ele>
        <time>2022-02-09T13:08:05Z</time>
      </trkpt>
      <trkpt lat="42.86616" lon="0.2289">
        <ele>2390.5</ele>
        <time>2022-02-09T13:08:06Z</time>
      </trkpt>
      <trkpt lat="42.86617" lon="0.22888">
        <ele>2390.5</ele>
        <time>2022-02-09T13:08:07Z</time>
      </trkpt>
      <trkpt lat="42.86617" lon="0.22887">
        <ele>2391.3</ele>
        <time>2022-02-09T13:08:08Z</time>
      </trkpt>
      <trkpt lat="42.86617" lon="0.22885">
        <ele>2391.3</ele>
        <time>2022-02-09T13:08:09Z</time>
      </trkpt>
      <trkpt lat="42.86617" lon="0.22883">
        <ele>2391.3</ele>
        <time>2022-02-09T13:08:10Z</time>
      </trkpt>
      <trkpt lat="42.86617" lon="0.22882">
        <ele>2392.2</ele>
        <time>2022-02-09T13:08:11Z</time>
      </trkpt>
      <trkpt lat="42.86617" lon="0.2288">
        <ele>2392.2</ele>
        <time>2022-02-09T13:08:12Z</time>
      </trkpt>
      <trkpt lat="42.86617" lon="0.22878">
        <ele>2393.1</ele>
        <time>2022-02-09T13:08:13Z</time>
      </trkpt>
      <trkpt lat="42.86617" lon="0.22875">
        <ele>2393.1</ele>
        <time>2022-02-09T13:08:14Z</time>
      </trkpt>
      <trkpt lat="42.86616" lon="0.22873">
        <ele>2394</ele>
        <time>2022-02-09T13:08:15Z</time>
      </trkpt>
      <trkpt lat="42.86616" lon="0.2287">
        <ele>2394</ele>
        <time>2022-02-09T13:08:16Z</time>
      </trkpt>
      <trkpt lat="42.86616" lon="0.22868">
        <ele>2395</ele>
        <time>2022-02-09T13:08:17Z</time>
      </trkpt>
      <trkpt lat="42.86616" lon="0.22865">
        <ele>2395</ele>
        <time>2022-02-09T13:08:18Z</time>
      </trkpt>
      <trkpt lat="42.86615" lon="0.22863">
        <ele>2395.6</ele>
        <time>2022-02-09T13:08:19Z</time>
      </trkpt>
      <trkpt lat="42.86613" lon="0.22863">
        <ele>2395.6</ele>
        <time>2022-02-09T13:08:20Z</time>
      </trkpt>
      <trkpt lat="42.86611" lon="0.22865">
        <ele>2394.5</ele>
        <time>2022-02-09T13:08:21Z</time>
      </trkpt>
      <trkpt lat="42.8661" lon="0.22869">
        <ele>2394.5</ele>
        <time>2022-02-09T13:08:22Z</time>
      </trkpt>
      <trkpt lat="42.86607" lon="0.22873">
        <ele>2393.3</ele>
        <time>2022-02-09T13:08:23Z</time>
      </trkpt>
      <trkpt lat="42.86604" lon="0.22878">
        <ele>2392.1</ele>
        <time>2022-02-09T13:08:24Z</time>
      </trkpt>
      <trkpt lat="42.866" lon="0.22882">
        <ele>2391</ele>
        <time>2022-02-09T13:08:25Z</time>
      </trkpt>
      <trkpt lat="42.86595" lon="0.22887">
        <ele>2388.8</ele>
        <time>2022-02-09T13:08:26Z</time>
      </trkpt>
      <trkpt lat="42.86589" lon="0.22893">
        <ele>2387.8</ele>
        <time>2022-02-09T13:08:27Z</time>
      </trkpt>
      <trkpt lat="42.86584" lon="0.22897">
        <ele>2386.9</ele>
        <time>2022-02-09T13:08:28Z</time>
      </trkpt>
      <trkpt lat="42.86581" lon="0.22901">
        <ele>2386</ele>
        <time>2022-02-09T13:08:29Z</time>
      </trkpt>
      <trkpt lat="42.86579" lon="0.22905">
        <ele>2385.1</ele>
        <time>2022-02-09T13:08:30Z</time>
      </trkpt>
      <trkpt lat="42.86577" lon="0.22907">
        <ele>2385.1</ele>
        <time>2022-02-09T13:08:31Z</time>
      </trkpt>
      <trkpt lat="42.86576" lon="0.22909">
        <ele>2384.1</ele>
        <time>2022-02-09T13:08:32Z</time>
      </trkpt>
      <trkpt lat="42.86575" lon="0.2291">
        <ele>2384.1</ele>
        <time>2022-02-09T13:08:33Z</time>
      </trkpt>
      <trkpt lat="42.86574" lon="0.22911">
        <ele>2384.1</ele>
        <time>2022-02-09T13:08:34Z</time>
      </trkpt>
      <trkpt lat="42.86573" lon="0.22913">
        <ele>2383.1</ele>
        <time>2022-02-09T13:08:35Z</time>
      </trkpt>
      <trkpt lat="42.86572" lon="0.22914">
        <ele>2383.1</ele>
        <time>2022-02-09T13:08:36Z</time>
      </trkpt>
      <trkpt lat="42.86571" lon="0.22915">
        <ele>2383.1</ele>
        <time>2022-02-09T13:08:37Z</time>
      </trkpt>
      <trkpt lat="42.8657" lon="0.22917">
        <ele>2382</ele>
        <time>2022-02-09T13:08:38Z</time>
      </trkpt>
      <trkpt lat="42.86568" lon="0.22918">
        <ele>2382</ele>
        <time>2022-02-09T13:08:39Z</time>
      </trkpt>
      <trkpt lat="42.86568" lon="0.22919">
        <ele>2382</ele>
        <time>2022-02-09T13:08:40Z</time>
      </trkpt>
      <trkpt lat="42.86567" lon="0.2292">
        <ele>2382</ele>
        <time>2022-02-09T13:08:41Z</time>
      </trkpt>
      <trkpt lat="42.86566" lon="0.2292">
        <ele>2382</ele>
        <time>2022-02-09T13:08:42Z</time>
      </trkpt>
      <trkpt lat="42.86566" lon="0.22921">
        <ele>2382</ele>
        <time>2022-02-09T13:08:43Z</time>
      </trkpt>
      <trkpt lat="42.86566" lon="0.22921">
        <ele>2382</ele>
        <time>2022-02-09T13:08:44Z</time>
      </trkpt>
      <trkpt lat="42.86566" lon="0.22921">
        <ele>2382</ele>
        <time>2022-02-09T13:08:45Z</time>
      </trkpt>
      <trkpt lat="42.86566" lon="0.22921">
        <ele>2382</ele>
        <time>2022-02-09T13:08:46Z</time>
      </trkpt>
      <trkpt lat="42.86566" lon="0.22921">
        <ele>2382</ele>
        <time>2022-02-09T13:08:47Z</time>
      </trkpt>
      <trkpt lat="42.86566" lon="0.22921">
        <ele>2382</ele>
        <time>2022-02-09T13:08:48Z</time>
      </trkpt>
      <trkpt lat="42.86566" lon="0.22921">
        <ele>2382</ele>
        <time>2022-02-09T13:08:49Z</time>
      </trkpt>
      <trkpt lat="42.86566" lon="0.22921">
        <ele>2382</ele>
        <time>2022-02-09T13:08:50Z</time>
      </trkpt>
      <trkpt lat="42.86566" lon="0.22921">
        <ele>2382</ele>
        <time>2022-02-09T13:08:51Z</time>
      </trkpt>
      <trkpt lat="42.86566" lon="0.22921">
        <ele>2382</ele>
        <time>2022-02-09T13:08:52Z</time>
      </trkpt>
      <trkpt lat="42.86566" lon="0.22921">
        <ele>2382</ele>
        <time>2022-02-09T13:08:53Z</time>
      </trkpt>
      <trkpt lat="42.86566" lon="0.22921">
        <ele>2382</ele>
        <time>2022-02-09T13:08:54Z</time>
      </trkpt>
      <trkpt lat="42.86566" lon="0.22921">
        <ele>2382</ele>
        <time>2022-02-09T13:08:55Z</time>
      </trkpt>
      <trkpt lat="42.86566" lon="0.22921">
        <ele>2382</ele>
        <time>2022-02-09T13:08:56Z</time>
      </trkpt>
      <trkpt lat="42.86566" lon="0.22921">
        <ele>2382</ele>
        <time>2022-02-09T13:08:57Z</time>
      </trkpt>
      <trkpt lat="42.86566" lon="0.22921">
        <ele>2382</ele>
        <time>2022-02-09T13:08:58Z</time>
      </trkpt>
      <trkpt lat="42.86566" lon="0.22921">
        <ele>2382</ele>
        <time>2022-02-09T13:08:59Z</time>
      </trkpt>
      <trkpt lat="42.86566" lon="0.22921">
        <ele>2382</ele>
        <time>2022-02-09T13:09:00Z</time>
      </trkpt>
      <trkpt lat="42.86566" lon="0.22921">
        <ele>2382</ele>
        <time>2022-02-09T13:09:01Z</time>
      </trkpt>
      <trkpt lat="42.86566" lon="0.22921">
        <ele>2382</ele>
        <time>2022-02-09T13:09:02Z</time>
      </trkpt>
      <trkpt lat="42.86566" lon="0.22921">
        <ele>2382</ele>
        <time>2022-02-09T13:09:03Z</time>
      </trkpt>
      <trkpt lat="42.86566" lon="0.22921">
        <ele>2382</ele>
        <time>2022-02-09T13:09:04Z</time>
      </trkpt>
      <trkpt lat="42.86566" lon="0.22921">
        <ele>2382</ele>
        <time>2022-02-09T13:09:05Z</time>
      </trkpt>
      <trkpt lat="42.86566" lon="0.22921">
        <ele>2382</ele>
        <time>2022-02-09T13:09:06Z</time>
      </trkpt>
      <trkpt lat="42.86566" lon="0.22921">
        <ele>2382</ele>
        <time>2022-02-09T13:09:07Z</time>
      </trkpt>
      <trkpt lat="42.86566" lon="0.22921">
        <ele>2382</ele>
        <time>2022-02-09T13:09:08Z</time>
      </trkpt>
      <trkpt lat="42.86566" lon="0.22921">
        <ele>2382</ele>
        <time>2022-02-09T13:09:09Z</time>
      </trkpt>
      <trkpt lat="42.86566" lon="0.22921">
        <ele>2382</ele>
        <time>2022-02-09T13:09:10Z</time>
      </trkpt>
      <trkpt lat="42.86566" lon="0.22921">
        <ele>2382</ele>
        <time>2022-02-09T13:09:11Z</time>
      </trkpt>
      <trkpt lat="42.86566" lon="0.22921">
        <ele>2382</ele>
        <time>2022-02-09T13:09:12Z</time>
      </trkpt>
      <trkpt lat="42.86566" lon="0.22921">
        <ele>2382</ele>
        <time>2022-02-09T13:09:13Z</time>
      </trkpt>
      <trkpt lat="42.86566" lon="0.22921">
        <ele>2382</ele>
        <time>2022-02-09T13:09:14Z</time>
      </trkpt>
      <trkpt lat="42.86566" lon="0.22921">
        <ele>2382</ele>
        <time>2022-02-09T13:09:15Z</time>
      </trkpt>
      <trkpt lat="42.86566" lon="0.22921">
        <ele>2382</ele>
        <time>2022-02-09T13:09:16Z</time>
      </trkpt>
      <trkpt lat="42.86566" lon="0.22921">
        <ele>2382</ele>
        <time>2022-02-09T13:09:17Z</time>
      </trkpt>
      <trkpt lat="42.86566" lon="0.22921">
        <ele>2382</ele>
        <time>2022-02-09T13:09:18Z</time>
      </trkpt>
      <trkpt lat="42.86566" lon="0.22921">
        <ele>2382</ele>
        <time>2022-02-09T13:09:19Z</time>
      </trkpt>
      <trkpt lat="42.86566" lon="0.22921">
        <ele>2382</ele>
        <time>2022-02-09T13:09:20Z</time>
      </trkpt>
      <trkpt lat="42.86566" lon="0.22921">
        <ele>2382</ele>
        <time>2022-02-09T13:09:21Z</time>
      </trkpt>
      <trkpt lat="42.86566" lon="0.22921">
        <ele>2382</ele>
        <time>2022-02-09T13:09:22Z</time>
      </trkpt>
      <trkpt lat="42.86566" lon="0.22921">
        <ele>2382</ele>
        <time>2022-02-09T13:09:23Z</time>
      </trkpt>
      <trkpt lat="42.86566" lon="0.22921">
        <ele>2382</ele>
        <time>2022-02-09T13:09:24Z</time>
      </trkpt>
      <trkpt lat="42.86566" lon="0.22921">
        <ele>2382</ele>
        <time>2022-02-09T13:09:25Z</time>
      </trkpt>
      <trkpt lat="42.86566" lon="0.22921">
        <ele>2382</ele>
        <time>2022-02-09T13:09:26Z</time>
      </trkpt>
      <trkpt lat="42.86566" lon="0.22921">
        <ele>2382</ele>
        <time>2022-02-09T13:09:27Z</time>
      </trkpt>
      <trkpt lat="42.86566" lon="0.22921">
        <ele>2382</ele>
        <time>2022-02-09T13:09:28Z</time>
      </trkpt>
      <trkpt lat="42.86566" lon="0.22921">
        <ele>2382</ele>
        <time>2022-02-09T13:09:29Z</time>
      </trkpt>
      <trkpt lat="42.86566" lon="0.22921">
        <ele>2382</ele>
        <time>2022-02-09T13:09:30Z</time>
      </trkpt>
      <trkpt lat="42.86566" lon="0.22921">
        <ele>2382</ele>
        <time>2022-02-09T13:09:31Z</time>
      </trkpt>
      <trkpt lat="42.86566" lon="0.22921">
        <ele>2382</ele>
        <time>2022-02-09T13:09:32Z</time>
      </trkpt>
      <trkpt lat="42.86566" lon="0.22921">
        <ele>2382</ele>
        <time>2022-02-09T13:09:33Z</time>
      </trkpt>
      <trkpt lat="42.86566" lon="0.22921">
        <ele>2382</ele>
        <time>2022-02-09T13:09:34Z</time>
      </trkpt>
      <trkpt lat="42.86566" lon="0.22921">
        <ele>2382</ele>
        <time>2022-02-09T13:09:35Z</time>
      </trkpt>
      <trkpt lat="42.86566" lon="0.22921">
        <ele>2382</ele>
        <time>2022-02-09T13:09:36Z</time>
      </trkpt>
      <trkpt lat="42.86566" lon="0.22921">
        <ele>2382</ele>
        <time>2022-02-09T13:09:37Z</time>
      </trkpt>
      <trkpt lat="42.86566" lon="0.22921">
        <ele>2382</ele>
        <time>2022-02-09T13:09:38Z</time>
      </trkpt>
      <trkpt lat="42.86566" lon="0.22921">
        <ele>2382</ele>
        <time>2022-02-09T13:09:39Z</time>
      </trkpt>
      <trkpt lat="42.86566" lon="0.22921">
        <ele>2382</ele>
        <time>2022-02-09T13:09:40Z</time>
      </trkpt>
      <trkpt lat="42.86566" lon="0.22921">
        <ele>2382</ele>
        <time>2022-02-09T13:09:41Z</time>
      </trkpt>
      <trkpt lat="42.86566" lon="0.22921">
        <ele>2382</ele>
        <time>2022-02-09T13:09:42Z</time>
      </trkpt>
      <trkpt lat="42.86566" lon="0.22921">
        <ele>2382</ele>
        <time>2022-02-09T13:09:43Z</time>
      </trkpt>
      <trkpt lat="42.86566" lon="0.22921">
        <ele>2382</ele>
        <time>2022-02-09T13:09:44Z</time>
      </trkpt>
      <trkpt lat="42.86566" lon="0.22921">
        <ele>2382</ele>
        <time>2022-02-09T13:09:45Z</time>
      </trkpt>
      <trkpt lat="42.86566" lon="0.22921">
        <ele>2382</ele>
        <time>2022-02-09T13:09:46Z</time>
      </trkpt>
      <trkpt lat="42.86566" lon="0.22921">
        <ele>2382</ele>
        <time>2022-02-09T13:09:47Z</time>
      </trkpt>
      <trkpt lat="42.86566" lon="0.22921">
        <ele>2382</ele>
        <time>2022-02-09T13:09:48Z</time>
      </trkpt>
      <trkpt lat="42.86566" lon="0.22921">
        <ele>2382</ele>
        <time>2022-02-09T13:09:49Z</time>
      </trkpt>
      <trkpt lat="42.86566" lon="0.22921">
        <ele>2382</ele>
        <time>2022-02-09T13:09:50Z</time>
      </trkpt>
      <trkpt lat="42.86566" lon="0.22921">
        <ele>2382</ele>
        <time>2022-02-09T13:09:51Z</time>
      </trkpt>
      <trkpt lat="42.86566" lon="0.22921">
        <ele>2382</ele>
        <time>2022-02-09T13:09:52Z</time>
      </trkpt>
      <trkpt lat="42.86566" lon="0.22921">
        <ele>2382</ele>
        <time>2022-02-09T13:09:53Z</time>
      </trkpt>
      <trkpt lat="42.86566" lon="0.22921">
        <ele>2382</ele>
        <time>2022-02-09T13:09:54Z</time>
      </trkpt>
      <trkpt lat="42.86566" lon="0.22921">
        <ele>2382</ele>
        <time>2022-02-09T13:09:55Z</time>
      </trkpt>
      <trkpt lat="42.86566" lon="0.22921">
        <ele>2382</ele>
        <time>2022-02-09T13:09:56Z</time>
      </trkpt>
      <trkpt lat="42.86566" lon="0.22921">
        <ele>2382</ele>
        <time>2022-02-09T13:09:57Z</time>
      </trkpt>
      <trkpt lat="42.86566" lon="0.22921">
        <ele>2382</ele>
        <time>2022-02-09T13:09:58Z</time>
      </trkpt>
      <trkpt lat="42.86566" lon="0.22921">
        <ele>2382</ele>
        <time>2022-02-09T13:09:59Z</time>
      </trkpt>
      <trkpt lat="42.86566" lon="0.22921">
        <ele>2382</ele>
        <time>2022-02-09T13:10:00Z</time>
      </trkpt>
      <trkpt lat="42.86566" lon="0.22921">
        <ele>2382</ele>
        <time>2022-02-09T13:10:01Z</time>
      </trkpt>
      <trkpt lat="42.86566" lon="0.22921">
        <ele>2382</ele>
        <time>2022-02-09T13:10:02Z</time>
      </trkpt>
      <trkpt lat="42.86566" lon="0.22921">
        <ele>2382</ele>
        <time>2022-02-09T13:10:03Z</time>
      </trkpt>
      <trkpt lat="42.86566" lon="0.22921">
        <ele>2382</ele>
        <time>2022-02-09T13:10:04Z</time>
      </trkpt>
      <trkpt lat="42.86566" lon="0.22921">
        <ele>2382</ele>
        <time>2022-02-09T13:10:05Z</time>
      </trkpt>
      <trkpt lat="42.86566" lon="0.22921">
        <ele>2382</ele>
        <time>2022-02-09T13:10:06Z</time>
      </trkpt>
      <trkpt lat="42.86566" lon="0.22921">
        <ele>2382</ele>
        <time>2022-02-09T13:10:07Z</time>
      </trkpt>
      <trkpt lat="42.86566" lon="0.22921">
        <ele>2382</ele>
        <time>2022-02-09T13:10:08Z</time>
      </trkpt>
      <trkpt lat="42.86566" lon="0.22921">
        <ele>2382</ele>
        <time>2022-02-09T13:10:09Z</time>
      </trkpt>
      <trkpt lat="42.86566" lon="0.22921">
        <ele>2382</ele>
        <time>2022-02-09T13:10:10Z</time>
      </trkpt>
      <trkpt lat="42.86566" lon="0.22921">
        <ele>2382</ele>
        <time>2022-02-09T13:10:11Z</time>
      </trkpt>
      <trkpt lat="42.86566" lon="0.22921">
        <ele>2382</ele>
        <time>2022-02-09T13:10:12Z</time>
      </trkpt>
      <trkpt lat="42.86566" lon="0.22921">
        <ele>2382</ele>
        <time>2022-02-09T13:10:13Z</time>
      </trkpt>
      <trkpt lat="42.86566" lon="0.22921">
        <ele>2382</ele>
        <time>2022-02-09T13:10:14Z</time>
      </trkpt>
      <trkpt lat="42.86566" lon="0.22921">
        <ele>2382</ele>
        <time>2022-02-09T13:10:15Z</time>
      </trkpt>
      <trkpt lat="42.86566" lon="0.22921">
        <ele>2382</ele>
        <time>2022-02-09T13:10:16Z</time>
      </trkpt>
      <trkpt lat="42.86566" lon="0.22921">
        <ele>2382</ele>
        <time>2022-02-09T13:10:17Z</time>
      </trkpt>
      <trkpt lat="42.86566" lon="0.22921">
        <ele>2382</ele>
        <time>2022-02-09T13:10:18Z</time>
      </trkpt>
      <trkpt lat="42.86566" lon="0.22921">
        <ele>2382</ele>
        <time>2022-02-09T13:10:19Z</time>
      </trkpt>
      <trkpt lat="42.86566" lon="0.22921">
        <ele>2382</ele>
        <time>2022-02-09T13:10:20Z</time>
      </trkpt>
      <trkpt lat="42.86566" lon="0.22921">
        <ele>2382</ele>
        <time>2022-02-09T13:10:21Z</time>
      </trkpt>
      <trkpt lat="42.86566" lon="0.22921">
        <ele>2382</ele>
        <time>2022-02-09T13:10:22Z</time>
      </trkpt>
      <trkpt lat="42.86566" lon="0.22921">
        <ele>2382</ele>
        <time>2022-02-09T13:10:23Z</time>
      </trkpt>
      <trkpt lat="42.86566" lon="0.22921">
        <ele>2382</ele>
        <time>2022-02-09T13:10:24Z</time>
      </trkpt>
      <trkpt lat="42.86566" lon="0.22921">
        <ele>2382</ele>
        <time>2022-02-09T13:10:25Z</time>
      </trkpt>
      <trkpt lat="42.86566" lon="0.22921">
        <ele>2382</ele>
        <time>2022-02-09T13:10:26Z</time>
      </trkpt>
      <trkpt lat="42.86566" lon="0.22921">
        <ele>2382</ele>
        <time>2022-02-09T13:10:27Z</time>
      </trkpt>
      <trkpt lat="42.86566" lon="0.22921">
        <ele>2382</ele>
        <time>2022-02-09T13:10:28Z</time>
      </trkpt>
      <trkpt lat="42.86566" lon="0.22921">
        <ele>2382</ele>
        <time>2022-02-09T13:10:29Z</time>
      </trkpt>
      <trkpt lat="42.86566" lon="0.22921">
        <ele>2382</ele>
        <time>2022-02-09T13:10:30Z</time>
      </trkpt>
      <trkpt lat="42.86566" lon="0.22921">
        <ele>2382</ele>
        <time>2022-02-09T13:10:31Z</time>
      </trkpt>
      <trkpt lat="42.86566" lon="0.22921">
        <ele>2382</ele>
        <time>2022-02-09T13:10:32Z</time>
      </trkpt>
      <trkpt lat="42.86566" lon="0.22921">
        <ele>2382</ele>
        <time>2022-02-09T13:10:33Z</time>
      </trkpt>
      <trkpt lat="42.86566" lon="0.22921">
        <ele>2382</ele>
        <time>2022-02-09T13:10:34Z</time>
      </trkpt>
      <trkpt lat="42.86566" lon="0.22921">
        <ele>2382</ele>
        <time>2022-02-09T13:10:35Z</time>
      </trkpt>
      <trkpt lat="42.86566" lon="0.22921">
        <ele>2382</ele>
        <time>2022-02-09T13:10:36Z</time>
      </trkpt>
      <trkpt lat="42.86566" lon="0.22921">
        <ele>2382</ele>
        <time>2022-02-09T13:10:37Z</time>
      </trkpt>
      <trkpt lat="42.86566" lon="0.22921">
        <ele>2382</ele>
        <time>2022-02-09T13:10:38Z</time>
      </trkpt>
      <trkpt lat="42.86566" lon="0.22921">
        <ele>2382</ele>
        <time>2022-02-09T13:10:39Z</time>
      </trkpt>
      <trkpt lat="42.86566" lon="0.22921">
        <ele>2382</ele>
        <time>2022-02-09T13:10:40Z</time>
      </trkpt>
      <trkpt lat="42.86566" lon="0.22921">
        <ele>2382</ele>
        <time>2022-02-09T13:10:41Z</time>
      </trkpt>
      <trkpt lat="42.86566" lon="0.22921">
        <ele>2382</ele>
        <time>2022-02-09T13:10:42Z</time>
      </trkpt>
      <trkpt lat="42.86566" lon="0.22921">
        <ele>2382</ele>
        <time>2022-02-09T13:10:43Z</time>
      </trkpt>
      <trkpt lat="42.86566" lon="0.22921">
        <ele>2382</ele>
        <time>2022-02-09T13:10:44Z</time>
      </trkpt>
      <trkpt lat="42.86566" lon="0.22921">
        <ele>2382</ele>
        <time>2022-02-09T13:10:45Z</time>
      </trkpt>
      <trkpt lat="42.86566" lon="0.22921">
        <ele>2382</ele>
        <time>2022-02-09T13:10:46Z</time>
      </trkpt>
      <trkpt lat="42.86566" lon="0.22921">
        <ele>2382</ele>
        <time>2022-02-09T13:10:47Z</time>
      </trkpt>
      <trkpt lat="42.86566" lon="0.22921">
        <ele>2382</ele>
        <time>2022-02-09T13:10:48Z</time>
      </trkpt>
      <trkpt lat="42.86566" lon="0.22921">
        <ele>2382</ele>
        <time>2022-02-09T13:10:49Z</time>
      </trkpt>
      <trkpt lat="42.86566" lon="0.22921">
        <ele>2382</ele>
        <time>2022-02-09T13:10:50Z</time>
      </trkpt>
      <trkpt lat="42.86566" lon="0.22921">
        <ele>2382</ele>
        <time>2022-02-09T13:10:51Z</time>
      </trkpt>
      <trkpt lat="42.86566" lon="0.22921">
        <ele>2382</ele>
        <time>2022-02-09T13:10:52Z</time>
      </trkpt>
      <trkpt lat="42.86566" lon="0.22921">
        <ele>2382</ele>
        <time>2022-02-09T13:10:53Z</time>
      </trkpt>
      <trkpt lat="42.86566" lon="0.22921">
        <ele>2382</ele>
        <time>2022-02-09T13:10:54Z</time>
      </trkpt>
      <trkpt lat="42.86566" lon="0.22921">
        <ele>2382</ele>
        <time>2022-02-09T13:10:55Z</time>
      </trkpt>
      <trkpt lat="42.86566" lon="0.22921">
        <ele>2382</ele>
        <time>2022-02-09T13:10:56Z</time>
      </trkpt>
      <trkpt lat="42.86566" lon="0.22921">
        <ele>2382</ele>
        <time>2022-02-09T13:10:57Z</time>
      </trkpt>
      <trkpt lat="42.86566" lon="0.22921">
        <ele>2382</ele>
        <time>2022-02-09T13:10:58Z</time>
      </trkpt>
      <trkpt lat="42.86566" lon="0.22921">
        <ele>2382</ele>
        <time>2022-02-09T13:10:59Z</time>
      </trkpt>
      <trkpt lat="42.86566" lon="0.22921">
        <ele>2382</ele>
        <time>2022-02-09T13:11:00Z</time>
      </trkpt>
      <trkpt lat="42.86566" lon="0.22921">
        <ele>2382</ele>
        <time>2022-02-09T13:11:01Z</time>
      </trkpt>
      <trkpt lat="42.86566" lon="0.22921">
        <ele>2382</ele>
        <time>2022-02-09T13:11:02Z</time>
      </trkpt>
      <trkpt lat="42.86566" lon="0.22921">
        <ele>2382</ele>
        <time>2022-02-09T13:11:03Z</time>
      </trkpt>
      <trkpt lat="42.86566" lon="0.22921">
        <ele>2382</ele>
        <time>2022-02-09T13:11:04Z</time>
      </trkpt>
      <trkpt lat="42.86566" lon="0.22921">
        <ele>2382</ele>
        <time>2022-02-09T13:11:05Z</time>
      </trkpt>
      <trkpt lat="42.86566" lon="0.22921">
        <ele>2382</ele>
        <time>2022-02-09T13:11:06Z</time>
      </trkpt>
      <trkpt lat="42.86566" lon="0.22921">
        <ele>2382</ele>
        <time>2022-02-09T13:11:07Z</time>
      </trkpt>
      <trkpt lat="42.86566" lon="0.22921">
        <ele>2382</ele>
        <time>2022-02-09T13:11:08Z</time>
      </trkpt>
      <trkpt lat="42.86566" lon="0.22921">
        <ele>2382</ele>
        <time>2022-02-09T13:11:09Z</time>
      </trkpt>
      <trkpt lat="42.86566" lon="0.22921">
        <ele>2382</ele>
        <time>2022-02-09T13:11:10Z</time>
      </trkpt>
      <trkpt lat="42.86566" lon="0.22921">
        <ele>2382</ele>
        <time>2022-02-09T13:11:11Z</time>
      </trkpt>
      <trkpt lat="42.86566" lon="0.22921">
        <ele>2382</ele>
        <time>2022-02-09T13:11:12Z</time>
      </trkpt>
      <trkpt lat="42.86566" lon="0.22921">
        <ele>2382</ele>
        <time>2022-02-09T13:11:13Z</time>
      </trkpt>
      <trkpt lat="42.86566" lon="0.22921">
        <ele>2382</ele>
        <time>2022-02-09T13:11:14Z</time>
      </trkpt>
      <trkpt lat="42.86566" lon="0.22921">
        <ele>2382</ele>
        <time>2022-02-09T13:11:15Z</time>
      </trkpt>
      <trkpt lat="42.86566" lon="0.22921">
        <ele>2382</ele>
        <time>2022-02-09T13:11:16Z</time>
      </trkpt>
      <trkpt lat="42.86566" lon="0.22921">
        <ele>2382</ele>
        <time>2022-02-09T13:11:17Z</time>
      </trkpt>
      <trkpt lat="42.86566" lon="0.22921">
        <ele>2382</ele>
        <time>2022-02-09T13:11:18Z</time>
      </trkpt>
      <trkpt lat="42.86566" lon="0.22921">
        <ele>2382</ele>
        <time>2022-02-09T13:11:19Z</time>
      </trkpt>
      <trkpt lat="42.86566" lon="0.22921">
        <ele>2382</ele>
        <time>2022-02-09T13:11:20Z</time>
      </trkpt>
      <trkpt lat="42.86566" lon="0.22921">
        <ele>2382</ele>
        <time>2022-02-09T13:11:21Z</time>
      </trkpt>
      <trkpt lat="42.86566" lon="0.22921">
        <ele>2382</ele>
        <time>2022-02-09T13:11:22Z</time>
      </trkpt>
      <trkpt lat="42.86566" lon="0.22921">
        <ele>2382</ele>
        <time>2022-02-09T13:11:23Z</time>
      </trkpt>
      <trkpt lat="42.86566" lon="0.22921">
        <ele>2382</ele>
        <time>2022-02-09T13:11:24Z</time>
      </trkpt>
      <trkpt lat="42.86566" lon="0.22921">
        <ele>2382</ele>
        <time>2022-02-09T13:11:25Z</time>
      </trkpt>
      <trkpt lat="42.86566" lon="0.22921">
        <ele>2382</ele>
        <time>2022-02-09T13:11:26Z</time>
      </trkpt>
      <trkpt lat="42.86566" lon="0.22921">
        <ele>2382</ele>
        <time>2022-02-09T13:11:27Z</time>
      </trkpt>
      <trkpt lat="42.86566" lon="0.22921">
        <ele>2382</ele>
        <time>2022-02-09T13:11:28Z</time>
      </trkpt>
      <trkpt lat="42.86566" lon="0.22921">
        <ele>2382</ele>
        <time>2022-02-09T13:11:29Z</time>
      </trkpt>
      <trkpt lat="42.86566" lon="0.22921">
        <ele>2382</ele>
        <time>2022-02-09T13:11:30Z</time>
      </trkpt>
      <trkpt lat="42.86566" lon="0.22921">
        <ele>2382</ele>
        <time>2022-02-09T13:11:31Z</time>
      </trkpt>
      <trkpt lat="42.86566" lon="0.22921">
        <ele>2382</ele>
        <time>2022-02-09T13:11:32Z</time>
      </trkpt>
      <trkpt lat="42.86566" lon="0.22921">
        <ele>2382</ele>
        <time>2022-02-09T13:11:33Z</time>
      </trkpt>
      <trkpt lat="42.86566" lon="0.22921">
        <ele>2382</ele>
        <time>2022-02-09T13:11:34Z</time>
      </trkpt>
      <trkpt lat="42.86566" lon="0.22921">
        <ele>2382</ele>
        <time>2022-02-09T13:11:35Z</time>
      </trkpt>
      <trkpt lat="42.86566" lon="0.22921">
        <ele>2382</ele>
        <time>2022-02-09T13:11:36Z</time>
      </trkpt>
      <trkpt lat="42.86566" lon="0.22921">
        <ele>2382</ele>
        <time>2022-02-09T13:11:37Z</time>
      </trkpt>
      <trkpt lat="42.86566" lon="0.22921">
        <ele>2382</ele>
        <time>2022-02-09T13:11:38Z</time>
      </trkpt>
      <trkpt lat="42.86566" lon="0.22921">
        <ele>2382</ele>
        <time>2022-02-09T13:11:39Z</time>
      </trkpt>
      <trkpt lat="42.86566" lon="0.22921">
        <ele>2382</ele>
        <time>2022-02-09T13:11:40Z</time>
      </trkpt>
      <trkpt lat="42.86566" lon="0.22921">
        <ele>2382</ele>
        <time>2022-02-09T13:11:41Z</time>
      </trkpt>
      <trkpt lat="42.86566" lon="0.22921">
        <ele>2382</ele>
        <time>2022-02-09T13:11:42Z</time>
      </trkpt>
      <trkpt lat="42.86566" lon="0.22921">
        <ele>2382</ele>
        <time>2022-02-09T13:11:43Z</time>
      </trkpt>
      <trkpt lat="42.86566" lon="0.22921">
        <ele>2382</ele>
        <time>2022-02-09T13:11:44Z</time>
      </trkpt>
      <trkpt lat="42.86566" lon="0.22921">
        <ele>2382</ele>
        <time>2022-02-09T13:11:45Z</time>
      </trkpt>
      <trkpt lat="42.86566" lon="0.22921">
        <ele>2382</ele>
        <time>2022-02-09T13:11:46Z</time>
      </trkpt>
      <trkpt lat="42.86566" lon="0.22921">
        <ele>2382</ele>
        <time>2022-02-09T13:11:47Z</time>
      </trkpt>
      <trkpt lat="42.86566" lon="0.22921">
        <ele>2382</ele>
        <time>2022-02-09T13:11:48Z</time>
      </trkpt>
      <trkpt lat="42.86566" lon="0.22921">
        <ele>2382</ele>
        <time>2022-02-09T13:11:49Z</time>
      </trkpt>
      <trkpt lat="42.86566" lon="0.22921">
        <ele>2382</ele>
        <time>2022-02-09T13:11:50Z</time>
      </trkpt>
      <trkpt lat="42.86566" lon="0.22921">
        <ele>2382</ele>
        <time>2022-02-09T13:11:51Z</time>
      </trkpt>
      <trkpt lat="42.86566" lon="0.22921">
        <ele>2382</ele>
        <time>2022-02-09T13:11:52Z</time>
      </trkpt>
      <trkpt lat="42.86566" lon="0.22921">
        <ele>2382</ele>
        <time>2022-02-09T13:11:53Z</time>
      </trkpt>
      <trkpt lat="42.86566" lon="0.22921">
        <ele>2382</ele>
        <time>2022-02-09T13:11:54Z</time>
      </trkpt>
      <trkpt lat="42.86566" lon="0.22921">
        <ele>2382</ele>
        <time>2022-02-09T13:11:55Z</time>
      </trkpt>
      <trkpt lat="42.86566" lon="0.22921">
        <ele>2382</ele>
        <time>2022-02-09T13:11:56Z</time>
      </trkpt>
      <trkpt lat="42.86566" lon="0.22921">
        <ele>2382</ele>
        <time>2022-02-09T13:11:57Z</time>
      </trkpt>
      <trkpt lat="42.86566" lon="0.22921">
        <ele>2382</ele>
        <time>2022-02-09T13:11:58Z</time>
      </trkpt>
      <trkpt lat="42.86566" lon="0.22921">
        <ele>2382</ele>
        <time>2022-02-09T13:11:59Z</time>
      </trkpt>
      <trkpt lat="42.86566" lon="0.22921">
        <ele>2382</ele>
        <time>2022-02-09T13:12:00Z</time>
      </trkpt>
      <trkpt lat="42.86566" lon="0.22921">
        <ele>2382</ele>
        <time>2022-02-09T13:12:01Z</time>
      </trkpt>
      <trkpt lat="42.86566" lon="0.22921">
        <ele>2382</ele>
        <time>2022-02-09T13:12:02Z</time>
      </trkpt>
      <trkpt lat="42.86566" lon="0.22921">
        <ele>2382</ele>
        <time>2022-02-09T13:12:03Z</time>
      </trkpt>
      <trkpt lat="42.86566" lon="0.22921">
        <ele>2382</ele>
        <time>2022-02-09T13:12:04Z</time>
      </trkpt>
      <trkpt lat="42.86566" lon="0.22921">
        <ele>2382</ele>
        <time>2022-02-09T13:12:05Z</time>
      </trkpt>
      <trkpt lat="42.86566" lon="0.22921">
        <ele>2382</ele>
        <time>2022-02-09T13:12:06Z</time>
      </trkpt>
      <trkpt lat="42.86566" lon="0.22921">
        <ele>2382</ele>
        <time>2022-02-09T13:12:07Z</time>
      </trkpt>
      <trkpt lat="42.86566" lon="0.22921">
        <ele>2382</ele>
        <time>2022-02-09T13:12:08Z</time>
      </trkpt>
      <trkpt lat="42.86566" lon="0.22921">
        <ele>2382</ele>
        <time>2022-02-09T13:12:09Z</time>
      </trkpt>
      <trkpt lat="42.86566" lon="0.22921">
        <ele>2382</ele>
        <time>2022-02-09T13:12:10Z</time>
      </trkpt>
      <trkpt lat="42.86566" lon="0.22921">
        <ele>2382</ele>
        <time>2022-02-09T13:12:11Z</time>
      </trkpt>
      <trkpt lat="42.86566" lon="0.22921">
        <ele>2382</ele>
        <time>2022-02-09T13:12:12Z</time>
      </trkpt>
      <trkpt lat="42.86566" lon="0.22923">
        <ele>2380.9</ele>
        <time>2022-02-09T13:12:13Z</time>
      </trkpt>
      <trkpt lat="42.86565" lon="0.22927">
        <ele>2379.8</ele>
        <time>2022-02-09T13:12:14Z</time>
      </trkpt>
      <trkpt lat="42.86564" lon="0.22932">
        <ele>2378.7</ele>
        <time>2022-02-09T13:12:15Z</time>
      </trkpt>
      <trkpt lat="42.86562" lon="0.22938">
        <ele>2377.7</ele>
        <time>2022-02-09T13:12:16Z</time>
      </trkpt>
      <trkpt lat="42.86558" lon="0.22942">
        <ele>2376.6</ele>
        <time>2022-02-09T13:12:17Z</time>
      </trkpt>
      <trkpt lat="42.86554" lon="0.22945">
        <ele>2375.6</ele>
        <time>2022-02-09T13:12:18Z</time>
      </trkpt>
      <trkpt lat="42.8655" lon="0.22947">
        <ele>2375.7</ele>
        <time>2022-02-09T13:12:19Z</time>
      </trkpt>
      <trkpt lat="42.86546" lon="0.22949">
        <ele>2374.6</ele>
        <time>2022-02-09T13:12:20Z</time>
      </trkpt>
      <trkpt lat="42.86543" lon="0.22951">
        <ele>2373.6</ele>
        <time>2022-02-09T13:12:21Z</time>
      </trkpt>
      <trkpt lat="42.86539" lon="0.22954">
        <ele>2374</ele>
        <time>2022-02-09T13:12:22Z</time>
      </trkpt>
      <trkpt lat="42.86535" lon="0.22957">
        <ele>2373</ele>
        <time>2022-02-09T13:12:23Z</time>
      </trkpt>
      <trkpt lat="42.86532" lon="0.2296">
        <ele>2372.2</ele>
        <time>2022-02-09T13:12:24Z</time>
      </trkpt>
      <trkpt lat="42.86531" lon="0.22964">
        <ele>2372.2</ele>
        <time>2022-02-09T13:12:25Z</time>
      </trkpt>
      <trkpt lat="42.86531" lon="0.22965">
        <ele>2371.1</ele>
        <time>2022-02-09T13:12:26Z</time>
      </trkpt>
      <trkpt lat="42.86531" lon="0.22965">
        <ele>2371.1</ele>
        <time>2022-02-09T13:12:27Z</time>
      </trkpt>
      <trkpt lat="42.86531" lon="0.22965">
        <ele>2371.1</ele>
        <time>2022-02-09T13:12:28Z</time>
      </trkpt>
      <trkpt lat="42.86531" lon="0.22966">
        <ele>2371.1</ele>
        <time>2022-02-09T13:12:29Z</time>
      </trkpt>
      <trkpt lat="42.86531" lon="0.22966">
        <ele>2371.1</ele>
        <time>2022-02-09T13:12:30Z</time>
      </trkpt>
      <trkpt lat="42.86531" lon="0.22966">
        <ele>2371.1</ele>
        <time>2022-02-09T13:12:31Z</time>
      </trkpt>
      <trkpt lat="42.86531" lon="0.22966">
        <ele>2371.1</ele>
        <time>2022-02-09T13:12:32Z</time>
      </trkpt>
      <trkpt lat="42.86531" lon="0.22966">
        <ele>2371.1</ele>
        <time>2022-02-09T13:12:33Z</time>
      </trkpt>
      <trkpt lat="42.86531" lon="0.22966">
        <ele>2371.1</ele>
        <time>2022-02-09T13:12:34Z</time>
      </trkpt>
      <trkpt lat="42.86531" lon="0.22966">
        <ele>2371.1</ele>
        <time>2022-02-09T13:12:35Z</time>
      </trkpt>
      <trkpt lat="42.86531" lon="0.22966">
        <ele>2371.1</ele>
        <time>2022-02-09T13:12:36Z</time>
      </trkpt>
      <trkpt lat="42.86531" lon="0.22966">
        <ele>2371.1</ele>
        <time>2022-02-09T13:12:37Z</time>
      </trkpt>
      <trkpt lat="42.86531" lon="0.22966">
        <ele>2371.1</ele>
        <time>2022-02-09T13:12:38Z</time>
      </trkpt>
      <trkpt lat="42.86531" lon="0.22966">
        <ele>2371.1</ele>
        <time>2022-02-09T13:12:39Z</time>
      </trkpt>
      <trkpt lat="42.86531" lon="0.22966">
        <ele>2371.1</ele>
        <time>2022-02-09T13:12:40Z</time>
      </trkpt>
      <trkpt lat="42.86531" lon="0.22966">
        <ele>2371.1</ele>
        <time>2022-02-09T13:12:41Z</time>
      </trkpt>
      <trkpt lat="42.86531" lon="0.22966">
        <ele>2371.1</ele>
        <time>2022-02-09T13:12:42Z</time>
      </trkpt>
      <trkpt lat="42.86531" lon="0.22966">
        <ele>2371.1</ele>
        <time>2022-02-09T13:12:43Z</time>
      </trkpt>
      <trkpt lat="42.86531" lon="0.22966">
        <ele>2371.1</ele>
        <time>2022-02-09T13:12:44Z</time>
      </trkpt>
      <trkpt lat="42.86531" lon="0.22966">
        <ele>2371.1</ele>
        <time>2022-02-09T13:12:45Z</time>
      </trkpt>
      <trkpt lat="42.86532" lon="0.22967">
        <ele>2371.1</ele>
        <time>2022-02-09T13:12:46Z</time>
      </trkpt>
      <trkpt lat="42.86533" lon="0.2297">
        <ele>2370</ele>
        <time>2022-02-09T13:12:47Z</time>
      </trkpt>
      <trkpt lat="42.86533" lon="0.22974">
        <ele>2369</ele>
        <time>2022-02-09T13:12:48Z</time>
      </trkpt>
      <trkpt lat="42.86531" lon="0.2298">
        <ele>2368</ele>
        <time>2022-02-09T13:12:49Z</time>
      </trkpt>
      <trkpt lat="42.86527" lon="0.22985">
        <ele>2367.4</ele>
        <time>2022-02-09T13:12:50Z</time>
      </trkpt>
      <trkpt lat="42.86522" lon="0.2299">
        <ele>2366.3</ele>
        <time>2022-02-09T13:12:51Z</time>
      </trkpt>
      <trkpt lat="42.86516" lon="0.22995">
        <ele>2366</ele>
        <time>2022-02-09T13:12:52Z</time>
      </trkpt>
      <trkpt lat="42.86511" lon="0.22998">
        <ele>2366.7</ele>
        <time>2022-02-09T13:12:53Z</time>
      </trkpt>
      <trkpt lat="42.86507" lon="0.23002">
        <ele>2366</ele>
        <time>2022-02-09T13:12:54Z</time>
      </trkpt>
      <trkpt lat="42.86507" lon="0.23006">
        <ele>2364.8</ele>
        <time>2022-02-09T13:12:55Z</time>
      </trkpt>
      <trkpt lat="42.86508" lon="0.23009">
        <ele>2363.7</ele>
        <time>2022-02-09T13:12:56Z</time>
      </trkpt>
      <trkpt lat="42.86508" lon="0.23011">
        <ele>2363.3</ele>
        <time>2022-02-09T13:12:57Z</time>
      </trkpt>
      <trkpt lat="42.86509" lon="0.23012">
        <ele>2362.2</ele>
        <time>2022-02-09T13:12:58Z</time>
      </trkpt>
      <trkpt lat="42.8651" lon="0.23013">
        <ele>2362.2</ele>
        <time>2022-02-09T13:12:59Z</time>
      </trkpt>
      <trkpt lat="42.86511" lon="0.23015">
        <ele>2362.2</ele>
        <time>2022-02-09T13:13:00Z</time>
      </trkpt>
      <trkpt lat="42.86511" lon="0.23015">
        <ele>2362.2</ele>
        <time>2022-02-09T13:13:01Z</time>
      </trkpt>
      <trkpt lat="42.86511" lon="0.23016">
        <ele>2361.1</ele>
        <time>2022-02-09T13:13:02Z</time>
      </trkpt>
      <trkpt lat="42.86511" lon="0.23016">
        <ele>2361.1</ele>
        <time>2022-02-09T13:13:03Z</time>
      </trkpt>
      <trkpt lat="42.86511" lon="0.23016">
        <ele>2361.1</ele>
        <time>2022-02-09T13:13:04Z</time>
      </trkpt>
      <trkpt lat="42.86511" lon="0.23016">
        <ele>2361.1</ele>
        <time>2022-02-09T13:13:05Z</time>
      </trkpt>
      <trkpt lat="42.86511" lon="0.23016">
        <ele>2361.1</ele>
        <time>2022-02-09T13:13:06Z</time>
      </trkpt>
      <trkpt lat="42.86511" lon="0.23016">
        <ele>2361.1</ele>
        <time>2022-02-09T13:13:07Z</time>
      </trkpt>
      <trkpt lat="42.86511" lon="0.23016">
        <ele>2361.1</ele>
        <time>2022-02-09T13:13:08Z</time>
      </trkpt>
      <trkpt lat="42.86511" lon="0.23016">
        <ele>2361.1</ele>
        <time>2022-02-09T13:13:09Z</time>
      </trkpt>
      <trkpt lat="42.86511" lon="0.23016">
        <ele>2361.1</ele>
        <time>2022-02-09T13:13:10Z</time>
      </trkpt>
      <trkpt lat="42.86511" lon="0.23016">
        <ele>2361.1</ele>
        <time>2022-02-09T13:13:11Z</time>
      </trkpt>
      <trkpt lat="42.86511" lon="0.23016">
        <ele>2361.1</ele>
        <time>2022-02-09T13:13:12Z</time>
      </trkpt>
      <trkpt lat="42.86511" lon="0.23016">
        <ele>2361.1</ele>
        <time>2022-02-09T13:13:13Z</time>
      </trkpt>
      <trkpt lat="42.86511" lon="0.23016">
        <ele>2361.1</ele>
        <time>2022-02-09T13:13:14Z</time>
      </trkpt>
      <trkpt lat="42.86511" lon="0.23016">
        <ele>2361.1</ele>
        <time>2022-02-09T13:13:15Z</time>
      </trkpt>
      <trkpt lat="42.86511" lon="0.23016">
        <ele>2361.1</ele>
        <time>2022-02-09T13:13:16Z</time>
      </trkpt>
      <trkpt lat="42.86511" lon="0.23016">
        <ele>2361.1</ele>
        <time>2022-02-09T13:13:17Z</time>
      </trkpt>
      <trkpt lat="42.86511" lon="0.23016">
        <ele>2361.1</ele>
        <time>2022-02-09T13:13:18Z</time>
      </trkpt>
      <trkpt lat="42.86511" lon="0.23016">
        <ele>2361.1</ele>
        <time>2022-02-09T13:13:19Z</time>
      </trkpt>
      <trkpt lat="42.86511" lon="0.23016">
        <ele>2361.1</ele>
        <time>2022-02-09T13:13:20Z</time>
      </trkpt>
      <trkpt lat="42.86511" lon="0.23016">
        <ele>2361.1</ele>
        <time>2022-02-09T13:13:21Z</time>
      </trkpt>
      <trkpt lat="42.86511" lon="0.23016">
        <ele>2361.1</ele>
        <time>2022-02-09T13:13:22Z</time>
      </trkpt>
      <trkpt lat="42.86511" lon="0.23016">
        <ele>2361.1</ele>
        <time>2022-02-09T13:13:23Z</time>
      </trkpt>
      <trkpt lat="42.86511" lon="0.23016">
        <ele>2361.1</ele>
        <time>2022-02-09T13:13:24Z</time>
      </trkpt>
      <trkpt lat="42.86511" lon="0.23016">
        <ele>2361.1</ele>
        <time>2022-02-09T13:13:25Z</time>
      </trkpt>
      <trkpt lat="42.86511" lon="0.23016">
        <ele>2361.1</ele>
        <time>2022-02-09T13:13:26Z</time>
      </trkpt>
      <trkpt lat="42.86511" lon="0.23016">
        <ele>2361.1</ele>
        <time>2022-02-09T13:13:27Z</time>
      </trkpt>
      <trkpt lat="42.86511" lon="0.23016">
        <ele>2361.1</ele>
        <time>2022-02-09T13:13:28Z</time>
      </trkpt>
      <trkpt lat="42.86511" lon="0.23016">
        <ele>2361.1</ele>
        <time>2022-02-09T13:13:29Z</time>
      </trkpt>
      <trkpt lat="42.86511" lon="0.23016">
        <ele>2361.1</ele>
        <time>2022-02-09T13:13:30Z</time>
      </trkpt>
      <trkpt lat="42.86511" lon="0.23016">
        <ele>2361.1</ele>
        <time>2022-02-09T13:13:31Z</time>
      </trkpt>
      <trkpt lat="42.86511" lon="0.23016">
        <ele>2361.1</ele>
        <time>2022-02-09T13:13:32Z</time>
      </trkpt>
      <trkpt lat="42.86511" lon="0.23016">
        <ele>2361.1</ele>
        <time>2022-02-09T13:13:33Z</time>
      </trkpt>
      <trkpt lat="42.86511" lon="0.23016">
        <ele>2361.1</ele>
        <time>2022-02-09T13:13:34Z</time>
      </trkpt>
      <trkpt lat="42.86511" lon="0.23016">
        <ele>2361.1</ele>
        <time>2022-02-09T13:13:35Z</time>
      </trkpt>
      <trkpt lat="42.86511" lon="0.23016">
        <ele>2361.1</ele>
        <time>2022-02-09T13:13:36Z</time>
      </trkpt>
      <trkpt lat="42.86511" lon="0.23016">
        <ele>2361.1</ele>
        <time>2022-02-09T13:13:37Z</time>
      </trkpt>
      <trkpt lat="42.86511" lon="0.23016">
        <ele>2361.1</ele>
        <time>2022-02-09T13:13:38Z</time>
      </trkpt>
      <trkpt lat="42.86511" lon="0.23016">
        <ele>2361.1</ele>
        <time>2022-02-09T13:13:39Z</time>
      </trkpt>
      <trkpt lat="42.86511" lon="0.23016">
        <ele>2361.1</ele>
        <time>2022-02-09T13:13:40Z</time>
      </trkpt>
      <trkpt lat="42.86511" lon="0.23016">
        <ele>2361.1</ele>
        <time>2022-02-09T13:13:41Z</time>
      </trkpt>
      <trkpt lat="42.86511" lon="0.23016">
        <ele>2361.1</ele>
        <time>2022-02-09T13:13:42Z</time>
      </trkpt>
      <trkpt lat="42.86511" lon="0.23016">
        <ele>2361.1</ele>
        <time>2022-02-09T13:13:43Z</time>
      </trkpt>
      <trkpt lat="42.86511" lon="0.23016">
        <ele>2361.1</ele>
        <time>2022-02-09T13:13:44Z</time>
      </trkpt>
      <trkpt lat="42.86511" lon="0.23016">
        <ele>2361.1</ele>
        <time>2022-02-09T13:13:45Z</time>
      </trkpt>
      <trkpt lat="42.86511" lon="0.23016">
        <ele>2361.1</ele>
        <time>2022-02-09T13:13:46Z</time>
      </trkpt>
      <trkpt lat="42.86511" lon="0.23016">
        <ele>2361.1</ele>
        <time>2022-02-09T13:13:47Z</time>
      </trkpt>
      <trkpt lat="42.86511" lon="0.23016">
        <ele>2361.1</ele>
        <time>2022-02-09T13:13:48Z</time>
      </trkpt>
      <trkpt lat="42.86511" lon="0.23016">
        <ele>2361.1</ele>
        <time>2022-02-09T13:13:49Z</time>
      </trkpt>
      <trkpt lat="42.86511" lon="0.23016">
        <ele>2361.1</ele>
        <time>2022-02-09T13:13:50Z</time>
      </trkpt>
      <trkpt lat="42.86511" lon="0.23016">
        <ele>2361.1</ele>
        <time>2022-02-09T13:13:51Z</time>
      </trkpt>
      <trkpt lat="42.86511" lon="0.23016">
        <ele>2361.1</ele>
        <time>2022-02-09T13:13:52Z</time>
      </trkpt>
      <trkpt lat="42.86511" lon="0.23018">
        <ele>2361.1</ele>
        <time>2022-02-09T13:13:53Z</time>
      </trkpt>
      <trkpt lat="42.86509" lon="0.23021">
        <ele>2360</ele>
        <time>2022-02-09T13:13:54Z</time>
      </trkpt>
      <trkpt lat="42.86506" lon="0.23023">
        <ele>2360.3</ele>
        <time>2022-02-09T13:13:55Z</time>
      </trkpt>
      <trkpt lat="42.86502" lon="0.23025">
        <ele>2359.5</ele>
        <time>2022-02-09T13:13:56Z</time>
      </trkpt>
      <trkpt lat="42.86499" lon="0.23026">
        <ele>2360.1</ele>
        <time>2022-02-09T13:13:57Z</time>
      </trkpt>
      <trkpt lat="42.86496" lon="0.2303">
        <ele>2359</ele>
        <time>2022-02-09T13:13:58Z</time>
      </trkpt>
      <trkpt lat="42.86495" lon="0.23035">
        <ele>2358.2</ele>
        <time>2022-02-09T13:13:59Z</time>
      </trkpt>
      <trkpt lat="42.86491" lon="0.23039">
        <ele>2357.2</ele>
        <time>2022-02-09T13:14:00Z</time>
      </trkpt>
      <trkpt lat="42.86486" lon="0.23041">
        <ele>2357.6</ele>
        <time>2022-02-09T13:14:01Z</time>
      </trkpt>
      <trkpt lat="42.86483" lon="0.23044">
        <ele>2356.5</ele>
        <time>2022-02-09T13:14:02Z</time>
      </trkpt>
      <trkpt lat="42.86482" lon="0.23051">
        <ele>2353.8</ele>
        <time>2022-02-09T13:14:03Z</time>
      </trkpt>
      <trkpt lat="42.86482" lon="0.23059">
        <ele>2351.1</ele>
        <time>2022-02-09T13:14:04Z</time>
      </trkpt>
      <trkpt lat="42.86481" lon="0.23066">
        <ele>2349.7</ele>
        <time>2022-02-09T13:14:05Z</time>
      </trkpt>
      <trkpt lat="42.86477" lon="0.23071">
        <ele>2348.6</ele>
        <time>2022-02-09T13:14:06Z</time>
      </trkpt>
      <trkpt lat="42.86472" lon="0.23074">
        <ele>2346.8</ele>
        <time>2022-02-09T13:14:07Z</time>
      </trkpt>
      <trkpt lat="42.86468" lon="0.23078">
        <ele>2345.6</ele>
        <time>2022-02-09T13:14:08Z</time>
      </trkpt>
      <trkpt lat="42.86463" lon="0.23081">
        <ele>2344.1</ele>
        <time>2022-02-09T13:14:09Z</time>
      </trkpt>
      <trkpt lat="42.86459" lon="0.23083">
        <ele>2344.1</ele>
        <time>2022-02-09T13:14:10Z</time>
      </trkpt>
      <trkpt lat="42.86457" lon="0.23089">
        <ele>2340.7</ele>
        <time>2022-02-09T13:14:11Z</time>
      </trkpt>
      <trkpt lat="42.86456" lon="0.23095">
        <ele>2339</ele>
        <time>2022-02-09T13:14:12Z</time>
      </trkpt>
      <trkpt lat="42.86453" lon="0.231">
        <ele>2337.1</ele>
        <time>2022-02-09T13:14:13Z</time>
      </trkpt>
      <trkpt lat="42.86449" lon="0.23104">
        <ele>2335.3</ele>
        <time>2022-02-09T13:14:14Z</time>
      </trkpt>
      <trkpt lat="42.86446" lon="0.23109">
        <ele>2333.5</ele>
        <time>2022-02-09T13:14:15Z</time>
      </trkpt>
      <trkpt lat="42.86442" lon="0.23113">
        <ele>2331.9</ele>
        <time>2022-02-09T13:14:16Z</time>
      </trkpt>
      <trkpt lat="42.86439" lon="0.23117">
        <ele>2330.4</ele>
        <time>2022-02-09T13:14:17Z</time>
      </trkpt>
      <trkpt lat="42.86436" lon="0.23122">
        <ele>2328.8</ele>
        <time>2022-02-09T13:14:18Z</time>
      </trkpt>
      <trkpt lat="42.86435" lon="0.23128">
        <ele>2325.7</ele>
        <time>2022-02-09T13:14:19Z</time>
      </trkpt>
      <trkpt lat="42.86433" lon="0.23133">
        <ele>2323.9</ele>
        <time>2022-02-09T13:14:20Z</time>
      </trkpt>
      <trkpt lat="42.86431" lon="0.23138">
        <ele>2322.2</ele>
        <time>2022-02-09T13:14:21Z</time>
      </trkpt>
      <trkpt lat="42.86431" lon="0.23144">
        <ele>2320.3</ele>
        <time>2022-02-09T13:14:22Z</time>
      </trkpt>
      <trkpt lat="42.8643" lon="0.23149">
        <ele>2317</ele>
        <time>2022-02-09T13:14:23Z</time>
      </trkpt>
      <trkpt lat="42.86426" lon="0.23151">
        <ele>2317.1</ele>
        <time>2022-02-09T13:14:24Z</time>
      </trkpt>
      <trkpt lat="42.86423" lon="0.23151">
        <ele>2317.3</ele>
        <time>2022-02-09T13:14:25Z</time>
      </trkpt>
      <trkpt lat="42.86421" lon="0.2315">
        <ele>2317.3</ele>
        <time>2022-02-09T13:14:26Z</time>
      </trkpt>
      <trkpt lat="42.8642" lon="0.2315">
        <ele>2317.3</ele>
        <time>2022-02-09T13:14:27Z</time>
      </trkpt>
      <trkpt lat="42.8642" lon="0.2315">
        <ele>2317.3</ele>
        <time>2022-02-09T13:14:28Z</time>
      </trkpt>
      <trkpt lat="42.8642" lon="0.2315">
        <ele>2317.3</ele>
        <time>2022-02-09T13:14:29Z</time>
      </trkpt>
      <trkpt lat="42.8642" lon="0.2315">
        <ele>2317.3</ele>
        <time>2022-02-09T13:14:30Z</time>
      </trkpt>
      <trkpt lat="42.8642" lon="0.2315">
        <ele>2317.3</ele>
        <time>2022-02-09T13:14:31Z</time>
      </trkpt>
      <trkpt lat="42.8642" lon="0.2315">
        <ele>2317.3</ele>
        <time>2022-02-09T13:14:32Z</time>
      </trkpt>
      <trkpt lat="42.8642" lon="0.2315">
        <ele>2317.3</ele>
        <time>2022-02-09T13:14:33Z</time>
      </trkpt>
      <trkpt lat="42.8642" lon="0.2315">
        <ele>2317.3</ele>
        <time>2022-02-09T13:14:34Z</time>
      </trkpt>
      <trkpt lat="42.8642" lon="0.2315">
        <ele>2317.3</ele>
        <time>2022-02-09T13:14:35Z</time>
      </trkpt>
      <trkpt lat="42.8642" lon="0.2315">
        <ele>2317.3</ele>
        <time>2022-02-09T13:14:36Z</time>
      </trkpt>
      <trkpt lat="42.8642" lon="0.2315">
        <ele>2317.3</ele>
        <time>2022-02-09T13:14:37Z</time>
      </trkpt>
      <trkpt lat="42.8642" lon="0.2315">
        <ele>2317.3</ele>
        <time>2022-02-09T13:14:38Z</time>
      </trkpt>
      <trkpt lat="42.8642" lon="0.2315">
        <ele>2317.3</ele>
        <time>2022-02-09T13:14:39Z</time>
      </trkpt>
      <trkpt lat="42.8642" lon="0.23151">
        <ele>2317.4</ele>
        <time>2022-02-09T13:14:40Z</time>
      </trkpt>
      <trkpt lat="42.86419" lon="0.23154">
        <ele>2315.8</ele>
        <time>2022-02-09T13:14:41Z</time>
      </trkpt>
      <trkpt lat="42.8642" lon="0.23157">
        <ele>2315.8</ele>
        <time>2022-02-09T13:14:42Z</time>
      </trkpt>
      <trkpt lat="42.8642" lon="0.23159">
        <ele>2314.2</ele>
        <time>2022-02-09T13:14:43Z</time>
      </trkpt>
      <trkpt lat="42.86421" lon="0.23162">
        <ele>2312.7</ele>
        <time>2022-02-09T13:14:44Z</time>
      </trkpt>
      <trkpt lat="42.86423" lon="0.23164">
        <ele>2312.7</ele>
        <time>2022-02-09T13:14:45Z</time>
      </trkpt>
      <trkpt lat="42.86424" lon="0.23166">
        <ele>2311</ele>
        <time>2022-02-09T13:14:46Z</time>
      </trkpt>
      <trkpt lat="42.86425" lon="0.23167">
        <ele>2311</ele>
        <time>2022-02-09T13:14:47Z</time>
      </trkpt>
      <trkpt lat="42.86425" lon="0.23168">
        <ele>2311</ele>
        <time>2022-02-09T13:14:48Z</time>
      </trkpt>
      <trkpt lat="42.86425" lon="0.23168">
        <ele>2311</ele>
        <time>2022-02-09T13:14:49Z</time>
      </trkpt>
      <trkpt lat="42.86425" lon="0.23168">
        <ele>2311</ele>
        <time>2022-02-09T13:14:50Z</time>
      </trkpt>
      <trkpt lat="42.86425" lon="0.23168">
        <ele>2311</ele>
        <time>2022-02-09T13:14:51Z</time>
      </trkpt>
      <trkpt lat="42.86425" lon="0.23168">
        <ele>2311</ele>
        <time>2022-02-09T13:14:52Z</time>
      </trkpt>
      <trkpt lat="42.86425" lon="0.23169">
        <ele>2311</ele>
        <time>2022-02-09T13:14:53Z</time>
      </trkpt>
      <trkpt lat="42.86424" lon="0.23173">
        <ele>2309.6</ele>
        <time>2022-02-09T13:14:54Z</time>
      </trkpt>
      <trkpt lat="42.86422" lon="0.23177">
        <ele>2308.4</ele>
        <time>2022-02-09T13:14:55Z</time>
      </trkpt>
      <trkpt lat="42.86418" lon="0.2318">
        <ele>2307.2</ele>
        <time>2022-02-09T13:14:56Z</time>
      </trkpt>
      <trkpt lat="42.86414" lon="0.23182">
        <ele>2307.5</ele>
        <time>2022-02-09T13:14:57Z</time>
      </trkpt>
      <trkpt lat="42.86411" lon="0.23183">
        <ele>2306.4</ele>
        <time>2022-02-09T13:14:58Z</time>
      </trkpt>
      <trkpt lat="42.8641" lon="0.23187">
        <ele>2306.6</ele>
        <time>2022-02-09T13:14:59Z</time>
      </trkpt>
      <trkpt lat="42.86411" lon="0.23192">
        <ele>2303.6</ele>
        <time>2022-02-09T13:15:00Z</time>
      </trkpt>
      <trkpt lat="42.8641" lon="0.23197">
        <ele>2302.6</ele>
        <time>2022-02-09T13:15:01Z</time>
      </trkpt>
      <trkpt lat="42.86407" lon="0.23201">
        <ele>2301.7</ele>
        <time>2022-02-09T13:15:02Z</time>
      </trkpt>
      <trkpt lat="42.86406" lon="0.23206">
        <ele>2300.6</ele>
        <time>2022-02-09T13:15:03Z</time>
      </trkpt>
      <trkpt lat="42.86405" lon="0.23213">
        <ele>2298.3</ele>
        <time>2022-02-09T13:15:04Z</time>
      </trkpt>
      <trkpt lat="42.86403" lon="0.2322">
        <ele>2297.4</ele>
        <time>2022-02-09T13:15:05Z</time>
      </trkpt>
      <trkpt lat="42.86402" lon="0.23228">
        <ele>2294.9</ele>
        <time>2022-02-09T13:15:06Z</time>
      </trkpt>
      <trkpt lat="42.86402" lon="0.23237">
        <ele>2292.2</ele>
        <time>2022-02-09T13:15:07Z</time>
      </trkpt>
      <trkpt lat="42.864" lon="0.23247">
        <ele>2289.9</ele>
        <time>2022-02-09T13:15:08Z</time>
      </trkpt>
      <trkpt lat="42.86395" lon="0.23255">
        <ele>2287.7</ele>
        <time>2022-02-09T13:15:09Z</time>
      </trkpt>
      <trkpt lat="42.86391" lon="0.23264">
        <ele>2285.8</ele>
        <time>2022-02-09T13:15:10Z</time>
      </trkpt>
      <trkpt lat="42.86388" lon="0.23275">
        <ele>2282.1</ele>
        <time>2022-02-09T13:15:11Z</time>
      </trkpt>
      <trkpt lat="42.86384" lon="0.23285">
        <ele>2279.8</ele>
        <time>2022-02-09T13:15:12Z</time>
      </trkpt>
      <trkpt lat="42.86381" lon="0.23293">
        <ele>2277.8</ele>
        <time>2022-02-09T13:15:13Z</time>
      </trkpt>
      <trkpt lat="42.86378" lon="0.23299">
        <ele>2276.1</ele>
        <time>2022-02-09T13:15:14Z</time>
      </trkpt>
      <trkpt lat="42.86376" lon="0.23302">
        <ele>2275.4</ele>
        <time>2022-02-09T13:15:15Z</time>
      </trkpt>
      <trkpt lat="42.86376" lon="0.23302">
        <ele>2275.3</ele>
        <time>2022-02-09T13:15:16Z</time>
      </trkpt>
      <trkpt lat="42.86376" lon="0.23303">
        <ele>2275.2</ele>
        <time>2022-02-09T13:15:17Z</time>
      </trkpt>
      <trkpt lat="42.86376" lon="0.23303">
        <ele>2275.1</ele>
        <time>2022-02-09T13:15:18Z</time>
      </trkpt>
      <trkpt lat="42.86376" lon="0.23303">
        <ele>2275.1</ele>
        <time>2022-02-09T13:15:19Z</time>
      </trkpt>
      <trkpt lat="42.86376" lon="0.23303">
        <ele>2275.1</ele>
        <time>2022-02-09T13:15:20Z</time>
      </trkpt>
      <trkpt lat="42.86376" lon="0.23303">
        <ele>2275.1</ele>
        <time>2022-02-09T13:15:21Z</time>
      </trkpt>
      <trkpt lat="42.86376" lon="0.23303">
        <ele>2275.1</ele>
        <time>2022-02-09T13:15:22Z</time>
      </trkpt>
      <trkpt lat="42.86376" lon="0.23303">
        <ele>2275.1</ele>
        <time>2022-02-09T13:15:23Z</time>
      </trkpt>
      <trkpt lat="42.86376" lon="0.23303">
        <ele>2275.1</ele>
        <time>2022-02-09T13:15:24Z</time>
      </trkpt>
      <trkpt lat="42.86376" lon="0.23303">
        <ele>2275.1</ele>
        <time>2022-02-09T13:15:25Z</time>
      </trkpt>
      <trkpt lat="42.86376" lon="0.23303">
        <ele>2275.1</ele>
        <time>2022-02-09T13:15:26Z</time>
      </trkpt>
      <trkpt lat="42.86376" lon="0.23303">
        <ele>2275.1</ele>
        <time>2022-02-09T13:15:27Z</time>
      </trkpt>
      <trkpt lat="42.86376" lon="0.23303">
        <ele>2275.1</ele>
        <time>2022-02-09T13:15:28Z</time>
      </trkpt>
      <trkpt lat="42.86376" lon="0.23303">
        <ele>2275.1</ele>
        <time>2022-02-09T13:15:29Z</time>
      </trkpt>
      <trkpt lat="42.86376" lon="0.23303">
        <ele>2275.1</ele>
        <time>2022-02-09T13:15:30Z</time>
      </trkpt>
      <trkpt lat="42.86376" lon="0.23303">
        <ele>2275.1</ele>
        <time>2022-02-09T13:15:31Z</time>
      </trkpt>
      <trkpt lat="42.86376" lon="0.23303">
        <ele>2275.1</ele>
        <time>2022-02-09T13:15:32Z</time>
      </trkpt>
      <trkpt lat="42.86376" lon="0.23303">
        <ele>2275.1</ele>
        <time>2022-02-09T13:15:33Z</time>
      </trkpt>
      <trkpt lat="42.86376" lon="0.23303">
        <ele>2275.1</ele>
        <time>2022-02-09T13:15:34Z</time>
      </trkpt>
      <trkpt lat="42.86376" lon="0.23303">
        <ele>2275.1</ele>
        <time>2022-02-09T13:15:35Z</time>
      </trkpt>
      <trkpt lat="42.86376" lon="0.23303">
        <ele>2275.1</ele>
        <time>2022-02-09T13:15:36Z</time>
      </trkpt>
      <trkpt lat="42.86376" lon="0.23303">
        <ele>2275.1</ele>
        <time>2022-02-09T13:15:37Z</time>
      </trkpt>
      <trkpt lat="42.86376" lon="0.23303">
        <ele>2275.1</ele>
        <time>2022-02-09T13:15:38Z</time>
      </trkpt>
      <trkpt lat="42.86376" lon="0.23303">
        <ele>2275.1</ele>
        <time>2022-02-09T13:15:39Z</time>
      </trkpt>
      <trkpt lat="42.86376" lon="0.23303">
        <ele>2275.1</ele>
        <time>2022-02-09T13:15:40Z</time>
      </trkpt>
      <trkpt lat="42.86376" lon="0.23303">
        <ele>2275.1</ele>
        <time>2022-02-09T13:15:41Z</time>
      </trkpt>
      <trkpt lat="42.86376" lon="0.23303">
        <ele>2275.1</ele>
        <time>2022-02-09T13:15:42Z</time>
      </trkpt>
      <trkpt lat="42.86376" lon="0.23303">
        <ele>2275.1</ele>
        <time>2022-02-09T13:15:43Z</time>
      </trkpt>
      <trkpt lat="42.86376" lon="0.23303">
        <ele>2275.1</ele>
        <time>2022-02-09T13:15:44Z</time>
      </trkpt>
      <trkpt lat="42.86376" lon="0.23303">
        <ele>2275.1</ele>
        <time>2022-02-09T13:15:45Z</time>
      </trkpt>
      <trkpt lat="42.86376" lon="0.23303">
        <ele>2275.1</ele>
        <time>2022-02-09T13:15:46Z</time>
      </trkpt>
      <trkpt lat="42.86376" lon="0.23303">
        <ele>2275.1</ele>
        <time>2022-02-09T13:15:47Z</time>
      </trkpt>
      <trkpt lat="42.86376" lon="0.23303">
        <ele>2275.1</ele>
        <time>2022-02-09T13:15:48Z</time>
      </trkpt>
      <trkpt lat="42.86376" lon="0.23303">
        <ele>2275.1</ele>
        <time>2022-02-09T13:15:49Z</time>
      </trkpt>
      <trkpt lat="42.86376" lon="0.23303">
        <ele>2275.1</ele>
        <time>2022-02-09T13:15:50Z</time>
      </trkpt>
      <trkpt lat="42.86376" lon="0.23303">
        <ele>2275.1</ele>
        <time>2022-02-09T13:15:51Z</time>
      </trkpt>
      <trkpt lat="42.86376" lon="0.23303">
        <ele>2275.1</ele>
        <time>2022-02-09T13:15:52Z</time>
      </trkpt>
      <trkpt lat="42.86376" lon="0.23303">
        <ele>2275.1</ele>
        <time>2022-02-09T13:15:53Z</time>
      </trkpt>
      <trkpt lat="42.86376" lon="0.23303">
        <ele>2275.1</ele>
        <time>2022-02-09T13:15:54Z</time>
      </trkpt>
      <trkpt lat="42.86376" lon="0.23303">
        <ele>2275.1</ele>
        <time>2022-02-09T13:15:55Z</time>
      </trkpt>
      <trkpt lat="42.86376" lon="0.23303">
        <ele>2275.1</ele>
        <time>2022-02-09T13:15:56Z</time>
      </trkpt>
      <trkpt lat="42.86376" lon="0.23303">
        <ele>2275.1</ele>
        <time>2022-02-09T13:15:57Z</time>
      </trkpt>
      <trkpt lat="42.86376" lon="0.23303">
        <ele>2275.1</ele>
        <time>2022-02-09T13:15:58Z</time>
      </trkpt>
      <trkpt lat="42.86376" lon="0.23303">
        <ele>2275.1</ele>
        <time>2022-02-09T13:15:59Z</time>
      </trkpt>
      <trkpt lat="42.86376" lon="0.23303">
        <ele>2275.1</ele>
        <time>2022-02-09T13:16:00Z</time>
      </trkpt>
      <trkpt lat="42.86376" lon="0.23303">
        <ele>2275.1</ele>
        <time>2022-02-09T13:16:01Z</time>
      </trkpt>
      <trkpt lat="42.86376" lon="0.23303">
        <ele>2275.1</ele>
        <time>2022-02-09T13:16:02Z</time>
      </trkpt>
      <trkpt lat="42.86376" lon="0.23303">
        <ele>2275.1</ele>
        <time>2022-02-09T13:16:03Z</time>
      </trkpt>
      <trkpt lat="42.86376" lon="0.23303">
        <ele>2275.1</ele>
        <time>2022-02-09T13:16:04Z</time>
      </trkpt>
      <trkpt lat="42.86376" lon="0.23303">
        <ele>2275.1</ele>
        <time>2022-02-09T13:16:05Z</time>
      </trkpt>
      <trkpt lat="42.86376" lon="0.23303">
        <ele>2275.1</ele>
        <time>2022-02-09T13:16:06Z</time>
      </trkpt>
      <trkpt lat="42.86376" lon="0.23303">
        <ele>2275.1</ele>
        <time>2022-02-09T13:16:07Z</time>
      </trkpt>
      <trkpt lat="42.86376" lon="0.23303">
        <ele>2275.1</ele>
        <time>2022-02-09T13:16:08Z</time>
      </trkpt>
      <trkpt lat="42.86376" lon="0.23303">
        <ele>2275.1</ele>
        <time>2022-02-09T13:16:09Z</time>
      </trkpt>
      <trkpt lat="42.86376" lon="0.23303">
        <ele>2275.1</ele>
        <time>2022-02-09T13:16:10Z</time>
      </trkpt>
      <trkpt lat="42.86376" lon="0.23303">
        <ele>2275.1</ele>
        <time>2022-02-09T13:16:11Z</time>
      </trkpt>
      <trkpt lat="42.86376" lon="0.23303">
        <ele>2275.1</ele>
        <time>2022-02-09T13:16:12Z</time>
      </trkpt>
      <trkpt lat="42.86376" lon="0.23303">
        <ele>2275.1</ele>
        <time>2022-02-09T13:16:13Z</time>
      </trkpt>
      <trkpt lat="42.86376" lon="0.23303">
        <ele>2275.1</ele>
        <time>2022-02-09T13:16:14Z</time>
      </trkpt>
      <trkpt lat="42.86376" lon="0.23303">
        <ele>2275.1</ele>
        <time>2022-02-09T13:16:15Z</time>
      </trkpt>
      <trkpt lat="42.86376" lon="0.23303">
        <ele>2275.1</ele>
        <time>2022-02-09T13:16:16Z</time>
      </trkpt>
      <trkpt lat="42.86376" lon="0.23303">
        <ele>2275</ele>
        <time>2022-02-09T13:16:17Z</time>
      </trkpt>
      <trkpt lat="42.86376" lon="0.23306">
        <ele>2274.6</ele>
        <time>2022-02-09T13:16:18Z</time>
      </trkpt>
      <trkpt lat="42.86376" lon="0.23309">
        <ele>2274</ele>
        <time>2022-02-09T13:16:19Z</time>
      </trkpt>
      <trkpt lat="42.86375" lon="0.23313">
        <ele>2273.3</ele>
        <time>2022-02-09T13:16:20Z</time>
      </trkpt>
      <trkpt lat="42.86374" lon="0.23318">
        <ele>2272.3</ele>
        <time>2022-02-09T13:16:21Z</time>
      </trkpt>
      <trkpt lat="42.86374" lon="0.23324">
        <ele>2271.2</ele>
        <time>2022-02-09T13:16:22Z</time>
      </trkpt>
      <trkpt lat="42.86374" lon="0.23331">
        <ele>2270</ele>
        <time>2022-02-09T13:16:23Z</time>
      </trkpt>
      <trkpt lat="42.86375" lon="0.23338">
        <ele>2268.6</ele>
        <time>2022-02-09T13:16:24Z</time>
      </trkpt>
      <trkpt lat="42.86376" lon="0.23346">
        <ele>2267.2</ele>
        <time>2022-02-09T13:16:25Z</time>
      </trkpt>
      <trkpt lat="42.86375" lon="0.23353">
        <ele>2265.8</ele>
        <time>2022-02-09T13:16:26Z</time>
      </trkpt>
      <trkpt lat="42.86374" lon="0.23361">
        <ele>2264.4</ele>
        <time>2022-02-09T13:16:27Z</time>
      </trkpt>
      <trkpt lat="42.86374" lon="0.23369">
        <ele>2262.9</ele>
        <time>2022-02-09T13:16:28Z</time>
      </trkpt>
      <trkpt lat="42.86375" lon="0.23377">
        <ele>2261.5</ele>
        <time>2022-02-09T13:16:29Z</time>
      </trkpt>
      <trkpt lat="42.86375" lon="0.23385">
        <ele>2260.1</ele>
        <time>2022-02-09T13:16:30Z</time>
      </trkpt>
      <trkpt lat="42.86374" lon="0.23393">
        <ele>2258.6</ele>
        <time>2022-02-09T13:16:31Z</time>
      </trkpt>
      <trkpt lat="42.86375" lon="0.23402">
        <ele>2256.9</ele>
        <time>2022-02-09T13:16:32Z</time>
      </trkpt>
      <trkpt lat="42.86376" lon="0.23411">
        <ele>2255.3</ele>
        <time>2022-02-09T13:16:33Z</time>
      </trkpt>
      <trkpt lat="42.86376" lon="0.23419">
        <ele>2253.9</ele>
        <time>2022-02-09T13:16:34Z</time>
      </trkpt>
      <trkpt lat="42.86376" lon="0.23427">
        <ele>2252.4</ele>
        <time>2022-02-09T13:16:35Z</time>
      </trkpt>
      <trkpt lat="42.86377" lon="0.23436">
        <ele>2250.8</ele>
        <time>2022-02-09T13:16:36Z</time>
      </trkpt>
      <trkpt lat="42.8638" lon="0.23444">
        <ele>2249.2</ele>
        <time>2022-02-09T13:16:37Z</time>
      </trkpt>
      <trkpt lat="42.86383" lon="0.2345">
        <ele>2247.8</ele>
        <time>2022-02-09T13:16:38Z</time>
      </trkpt>
      <trkpt lat="42.86386" lon="0.23456">
        <ele>2246.5</ele>
        <time>2022-02-09T13:16:39Z</time>
      </trkpt>
      <trkpt lat="42.86388" lon="0.23461">
        <ele>2245.4</ele>
        <time>2022-02-09T13:16:40Z</time>
      </trkpt>
      <trkpt lat="42.86391" lon="0.23465">
        <ele>2244.4</ele>
        <time>2022-02-09T13:16:41Z</time>
      </trkpt>
      <trkpt lat="42.86394" lon="0.23469">
        <ele>2243.3</ele>
        <time>2022-02-09T13:16:42Z</time>
      </trkpt>
      <trkpt lat="42.86397" lon="0.23474">
        <ele>2242.3</ele>
        <time>2022-02-09T13:16:43Z</time>
      </trkpt>
      <trkpt lat="42.86396" lon="0.23479">
        <ele>2241.5</ele>
        <time>2022-02-09T13:16:44Z</time>
      </trkpt>
      <trkpt lat="42.86394" lon="0.23483">
        <ele>2240.5</ele>
        <time>2022-02-09T13:16:45Z</time>
      </trkpt>
      <trkpt lat="42.86392" lon="0.23488">
        <ele>2239.4</ele>
        <time>2022-02-09T13:16:46Z</time>
      </trkpt>
      <trkpt lat="42.86392" lon="0.23494">
        <ele>2238.4</ele>
        <time>2022-02-09T13:16:47Z</time>
      </trkpt>
      <trkpt lat="42.86394" lon="0.23499">
        <ele>2237.3</ele>
        <time>2022-02-09T13:16:48Z</time>
      </trkpt>
      <trkpt lat="42.86396" lon="0.23504">
        <ele>2236.2</ele>
        <time>2022-02-09T13:16:49Z</time>
      </trkpt>
      <trkpt lat="42.86396" lon="0.23511">
        <ele>2235.1</ele>
        <time>2022-02-09T13:16:50Z</time>
      </trkpt>
      <trkpt lat="42.86394" lon="0.23517">
        <ele>2233.9</ele>
        <time>2022-02-09T13:16:51Z</time>
      </trkpt>
      <trkpt lat="42.86391" lon="0.23522">
        <ele>2232.7</ele>
        <time>2022-02-09T13:16:52Z</time>
      </trkpt>
      <trkpt lat="42.86389" lon="0.23526">
        <ele>2231.6</ele>
        <time>2022-02-09T13:16:53Z</time>
      </trkpt>
      <trkpt lat="42.86386" lon="0.23531">
        <ele>2230.6</ele>
        <time>2022-02-09T13:16:54Z</time>
      </trkpt>
      <trkpt lat="42.86386" lon="0.23537">
        <ele>2229.6</ele>
        <time>2022-02-09T13:16:55Z</time>
      </trkpt>
      <trkpt lat="42.86387" lon="0.23541">
        <ele>2228.8</ele>
        <time>2022-02-09T13:16:56Z</time>
      </trkpt>
      <trkpt lat="42.86389" lon="0.23544">
        <ele>2227.9</ele>
        <time>2022-02-09T13:16:57Z</time>
      </trkpt>
      <trkpt lat="42.86392" lon="0.23547">
        <ele>2227.1</ele>
        <time>2022-02-09T13:16:58Z</time>
      </trkpt>
      <trkpt lat="42.86393" lon="0.23551">
        <ele>2226.4</ele>
        <time>2022-02-09T13:16:59Z</time>
      </trkpt>
      <trkpt lat="42.86391" lon="0.23555">
        <ele>2225.6</ele>
        <time>2022-02-09T13:17:00Z</time>
      </trkpt>
      <trkpt lat="42.8639" lon="0.23558">
        <ele>2224.9</ele>
        <time>2022-02-09T13:17:01Z</time>
      </trkpt>
      <trkpt lat="42.8639" lon="0.23562">
        <ele>2224.2</ele>
        <time>2022-02-09T13:17:02Z</time>
      </trkpt>
      <trkpt lat="42.86392" lon="0.23566">
        <ele>2223.4</ele>
        <time>2022-02-09T13:17:03Z</time>
      </trkpt>
      <trkpt lat="42.86393" lon="0.23568">
        <ele>2222.9</ele>
        <time>2022-02-09T13:17:04Z</time>
      </trkpt>
      <trkpt lat="42.86395" lon="0.23568">
        <ele>2222.4</ele>
        <time>2022-02-09T13:17:05Z</time>
      </trkpt>
      <trkpt lat="42.86396" lon="0.23568">
        <ele>2222.2</ele>
        <time>2022-02-09T13:17:06Z</time>
      </trkpt>
      <trkpt lat="42.86396" lon="0.23568">
        <ele>2222.1</ele>
        <time>2022-02-09T13:17:07Z</time>
      </trkpt>
      <trkpt lat="42.86396" lon="0.23568">
        <ele>2222</ele>
        <time>2022-02-09T13:17:08Z</time>
      </trkpt>
      <trkpt lat="42.86396" lon="0.23568">
        <ele>2222</ele>
        <time>2022-02-09T13:17:09Z</time>
      </trkpt>
      <trkpt lat="42.86396" lon="0.23568">
        <ele>2222</ele>
        <time>2022-02-09T13:17:10Z</time>
      </trkpt>
      <trkpt lat="42.86396" lon="0.23568">
        <ele>2222</ele>
        <time>2022-02-09T13:17:11Z</time>
      </trkpt>
      <trkpt lat="42.86396" lon="0.23568">
        <ele>2222</ele>
        <time>2022-02-09T13:17:12Z</time>
      </trkpt>
      <trkpt lat="42.86396" lon="0.23568">
        <ele>2222</ele>
        <time>2022-02-09T13:17:13Z</time>
      </trkpt>
      <trkpt lat="42.86396" lon="0.23568">
        <ele>2222</ele>
        <time>2022-02-09T13:17:14Z</time>
      </trkpt>
      <trkpt lat="42.86396" lon="0.23568">
        <ele>2222</ele>
        <time>2022-02-09T13:17:15Z</time>
      </trkpt>
      <trkpt lat="42.86396" lon="0.23568">
        <ele>2222</ele>
        <time>2022-02-09T13:17:16Z</time>
      </trkpt>
      <trkpt lat="42.86396" lon="0.23568">
        <ele>2222</ele>
        <time>2022-02-09T13:17:17Z</time>
      </trkpt>
      <trkpt lat="42.86396" lon="0.23568">
        <ele>2222</ele>
        <time>2022-02-09T13:17:18Z</time>
      </trkpt>
      <trkpt lat="42.86396" lon="0.23568">
        <ele>2222</ele>
        <time>2022-02-09T13:17:19Z</time>
      </trkpt>
      <trkpt lat="42.86396" lon="0.23568">
        <ele>2222</ele>
        <time>2022-02-09T13:17:20Z</time>
      </trkpt>
      <trkpt lat="42.86396" lon="0.23568">
        <ele>2222</ele>
        <time>2022-02-09T13:17:21Z</time>
      </trkpt>
      <trkpt lat="42.86396" lon="0.23568">
        <ele>2222</ele>
        <time>2022-02-09T13:17:22Z</time>
      </trkpt>
      <trkpt lat="42.86396" lon="0.23569">
        <ele>2221.8</ele>
        <time>2022-02-09T13:17:23Z</time>
      </trkpt>
      <trkpt lat="42.86397" lon="0.23572">
        <ele>2221.4</ele>
        <time>2022-02-09T13:17:24Z</time>
      </trkpt>
      <trkpt lat="42.86396" lon="0.23574">
        <ele>2220.9</ele>
        <time>2022-02-09T13:17:25Z</time>
      </trkpt>
      <trkpt lat="42.86395" lon="0.23577">
        <ele>2220.3</ele>
        <time>2022-02-09T13:17:26Z</time>
      </trkpt>
      <trkpt lat="42.86393" lon="0.23578">
        <ele>2219.8</ele>
        <time>2022-02-09T13:17:27Z</time>
      </trkpt>
      <trkpt lat="42.86391" lon="0.23579">
        <ele>2219.2</ele>
        <time>2022-02-09T13:17:28Z</time>
      </trkpt>
      <trkpt lat="42.86388" lon="0.23581">
        <ele>2218.6</ele>
        <time>2022-02-09T13:17:29Z</time>
      </trkpt>
      <trkpt lat="42.86386" lon="0.23583">
        <ele>2217.9</ele>
        <time>2022-02-09T13:17:30Z</time>
      </trkpt>
      <trkpt lat="42.86387" lon="0.23587">
        <ele>2217.3</ele>
        <time>2022-02-09T13:17:31Z</time>
      </trkpt>
      <trkpt lat="42.86389" lon="0.2359">
        <ele>2216.5</ele>
        <time>2022-02-09T13:17:32Z</time>
      </trkpt>
      <trkpt lat="42.86392" lon="0.23592">
        <ele>2215.8</ele>
        <time>2022-02-09T13:17:33Z</time>
      </trkpt>
      <trkpt lat="42.86395" lon="0.23594">
        <ele>2215</ele>
        <time>2022-02-09T13:17:34Z</time>
      </trkpt>
      <trkpt lat="42.86397" lon="0.23596">
        <ele>2214.3</ele>
        <time>2022-02-09T13:17:35Z</time>
      </trkpt>
      <trkpt lat="42.86398" lon="0.236">
        <ele>2213.5</ele>
        <time>2022-02-09T13:17:36Z</time>
      </trkpt>
      <trkpt lat="42.86396" lon="0.23604">
        <ele>2212.8</ele>
        <time>2022-02-09T13:17:37Z</time>
      </trkpt>
      <trkpt lat="42.86394" lon="0.23606">
        <ele>2212.1</ele>
        <time>2022-02-09T13:17:38Z</time>
      </trkpt>
      <trkpt lat="42.86391" lon="0.23607">
        <ele>2211.4</ele>
        <time>2022-02-09T13:17:39Z</time>
      </trkpt>
      <trkpt lat="42.86389" lon="0.23608">
        <ele>2210.8</ele>
        <time>2022-02-09T13:17:40Z</time>
      </trkpt>
      <trkpt lat="42.86386" lon="0.23609">
        <ele>2210.2</ele>
        <time>2022-02-09T13:17:41Z</time>
      </trkpt>
      <trkpt lat="42.86384" lon="0.23609">
        <ele>2209.6</ele>
        <time>2022-02-09T13:17:42Z</time>
      </trkpt>
      <trkpt lat="42.86382" lon="0.2361">
        <ele>2209</ele>
        <time>2022-02-09T13:17:43Z</time>
      </trkpt>
      <trkpt lat="42.8638" lon="0.23611">
        <ele>2208.6</ele>
        <time>2022-02-09T13:17:44Z</time>
      </trkpt>
      <trkpt lat="42.86379" lon="0.23611">
        <ele>2208.3</ele>
        <time>2022-02-09T13:17:45Z</time>
      </trkpt>
      <trkpt lat="42.86378" lon="0.23611">
        <ele>2208.1</ele>
        <time>2022-02-09T13:17:46Z</time>
      </trkpt>
      <trkpt lat="42.86378" lon="0.23612">
        <ele>2208</ele>
        <time>2022-02-09T13:17:47Z</time>
      </trkpt>
      <trkpt lat="42.86377" lon="0.23612">
        <ele>2207.9</ele>
        <time>2022-02-09T13:17:48Z</time>
      </trkpt>
      <trkpt lat="42.86377" lon="0.23612">
        <ele>2207.9</ele>
        <time>2022-02-09T13:17:49Z</time>
      </trkpt>
      <trkpt lat="42.86377" lon="0.23612">
        <ele>2207.9</ele>
        <time>2022-02-09T13:17:50Z</time>
      </trkpt>
      <trkpt lat="42.86377" lon="0.23612">
        <ele>2207.9</ele>
        <time>2022-02-09T13:17:51Z</time>
      </trkpt>
      <trkpt lat="42.86377" lon="0.23612">
        <ele>2207.9</ele>
        <time>2022-02-09T13:17:52Z</time>
      </trkpt>
      <trkpt lat="42.86377" lon="0.23612">
        <ele>2207.9</ele>
        <time>2022-02-09T13:17:53Z</time>
      </trkpt>
      <trkpt lat="42.86377" lon="0.23612">
        <ele>2207.9</ele>
        <time>2022-02-09T13:17:54Z</time>
      </trkpt>
      <trkpt lat="42.86377" lon="0.23612">
        <ele>2207.9</ele>
        <time>2022-02-09T13:17:55Z</time>
      </trkpt>
      <trkpt lat="42.86377" lon="0.23612">
        <ele>2207.9</ele>
        <time>2022-02-09T13:17:56Z</time>
      </trkpt>
      <trkpt lat="42.86377" lon="0.23612">
        <ele>2207.9</ele>
        <time>2022-02-09T13:17:57Z</time>
      </trkpt>
      <trkpt lat="42.86377" lon="0.23612">
        <ele>2207.9</ele>
        <time>2022-02-09T13:17:58Z</time>
      </trkpt>
      <trkpt lat="42.86377" lon="0.23612">
        <ele>2207.9</ele>
        <time>2022-02-09T13:17:59Z</time>
      </trkpt>
      <trkpt lat="42.86377" lon="0.23612">
        <ele>2207.9</ele>
        <time>2022-02-09T13:18:00Z</time>
      </trkpt>
      <trkpt lat="42.86377" lon="0.23612">
        <ele>2207.9</ele>
        <time>2022-02-09T13:18:01Z</time>
      </trkpt>
      <trkpt lat="42.86377" lon="0.23612">
        <ele>2207.9</ele>
        <time>2022-02-09T13:18:02Z</time>
      </trkpt>
      <trkpt lat="42.86377" lon="0.23612">
        <ele>2207.9</ele>
        <time>2022-02-09T13:18:03Z</time>
      </trkpt>
      <trkpt lat="42.86377" lon="0.23612">
        <ele>2207.9</ele>
        <time>2022-02-09T13:18:04Z</time>
      </trkpt>
      <trkpt lat="42.86377" lon="0.23612">
        <ele>2207.9</ele>
        <time>2022-02-09T13:18:05Z</time>
      </trkpt>
      <trkpt lat="42.86377" lon="0.23612">
        <ele>2207.9</ele>
        <time>2022-02-09T13:18:06Z</time>
      </trkpt>
      <trkpt lat="42.86376" lon="0.23612">
        <ele>2207.5</ele>
        <time>2022-02-09T13:18:07Z</time>
      </trkpt>
      <trkpt lat="42.86373" lon="0.23614">
        <ele>2206.8</ele>
        <time>2022-02-09T13:18:08Z</time>
      </trkpt>
      <trkpt lat="42.86372" lon="0.23614">
        <ele>2206.6</ele>
        <time>2022-02-09T13:18:09Z</time>
      </trkpt>
      <trkpt lat="42.86372" lon="0.23614">
        <ele>2206.5</ele>
        <time>2022-02-09T13:18:10Z</time>
      </trkpt>
      <trkpt lat="42.86372" lon="0.23614">
        <ele>2206.4</ele>
        <time>2022-02-09T13:18:11Z</time>
      </trkpt>
      <trkpt lat="42.86372" lon="0.23614">
        <ele>2206.4</ele>
        <time>2022-02-09T13:18:12Z</time>
      </trkpt>
      <trkpt lat="42.86372" lon="0.23614">
        <ele>2206.4</ele>
        <time>2022-02-09T13:18:13Z</time>
      </trkpt>
      <trkpt lat="42.86372" lon="0.23614">
        <ele>2206.4</ele>
        <time>2022-02-09T13:18:14Z</time>
      </trkpt>
      <trkpt lat="42.86372" lon="0.23614">
        <ele>2206.4</ele>
        <time>2022-02-09T13:18:15Z</time>
      </trkpt>
      <trkpt lat="42.86372" lon="0.23614">
        <ele>2206.4</ele>
        <time>2022-02-09T13:18:16Z</time>
      </trkpt>
      <trkpt lat="42.86372" lon="0.23614">
        <ele>2206.4</ele>
        <time>2022-02-09T13:18:17Z</time>
      </trkpt>
      <trkpt lat="42.86372" lon="0.23614">
        <ele>2206.4</ele>
        <time>2022-02-09T13:18:18Z</time>
      </trkpt>
      <trkpt lat="42.86372" lon="0.23614">
        <ele>2206.4</ele>
        <time>2022-02-09T13:18:19Z</time>
      </trkpt>
      <trkpt lat="42.86372" lon="0.23614">
        <ele>2206.4</ele>
        <time>2022-02-09T13:18:20Z</time>
      </trkpt>
      <trkpt lat="42.86372" lon="0.23614">
        <ele>2206.4</ele>
        <time>2022-02-09T13:18:21Z</time>
      </trkpt>
      <trkpt lat="42.86372" lon="0.23614">
        <ele>2206.4</ele>
        <time>2022-02-09T13:18:22Z</time>
      </trkpt>
      <trkpt lat="42.86372" lon="0.23614">
        <ele>2206.4</ele>
        <time>2022-02-09T13:18:23Z</time>
      </trkpt>
      <trkpt lat="42.86372" lon="0.23614">
        <ele>2206.4</ele>
        <time>2022-02-09T13:18:24Z</time>
      </trkpt>
      <trkpt lat="42.86372" lon="0.23614">
        <ele>2206.4</ele>
        <time>2022-02-09T13:18:25Z</time>
      </trkpt>
      <trkpt lat="42.86372" lon="0.23614">
        <ele>2206.4</ele>
        <time>2022-02-09T13:18:26Z</time>
      </trkpt>
      <trkpt lat="42.86372" lon="0.23614">
        <ele>2206.4</ele>
        <time>2022-02-09T13:18:27Z</time>
      </trkpt>
      <trkpt lat="42.86372" lon="0.23614">
        <ele>2206.4</ele>
        <time>2022-02-09T13:18:28Z</time>
      </trkpt>
      <trkpt lat="42.86372" lon="0.23614">
        <ele>2206.4</ele>
        <time>2022-02-09T13:18:29Z</time>
      </trkpt>
      <trkpt lat="42.86372" lon="0.23614">
        <ele>2206.4</ele>
        <time>2022-02-09T13:18:30Z</time>
      </trkpt>
      <trkpt lat="42.86372" lon="0.23614">
        <ele>2206.4</ele>
        <time>2022-02-09T13:18:31Z</time>
      </trkpt>
      <trkpt lat="42.86372" lon="0.23614">
        <ele>2206.4</ele>
        <time>2022-02-09T13:18:32Z</time>
      </trkpt>
      <trkpt lat="42.86372" lon="0.23614">
        <ele>2206.4</ele>
        <time>2022-02-09T13:18:33Z</time>
      </trkpt>
      <trkpt lat="42.86372" lon="0.23614">
        <ele>2206.4</ele>
        <time>2022-02-09T13:18:34Z</time>
      </trkpt>
      <trkpt lat="42.86372" lon="0.23614">
        <ele>2206.4</ele>
        <time>2022-02-09T13:18:35Z</time>
      </trkpt>
      <trkpt lat="42.86372" lon="0.23614">
        <ele>2206.4</ele>
        <time>2022-02-09T13:18:36Z</time>
      </trkpt>
      <trkpt lat="42.86372" lon="0.23614">
        <ele>2206.4</ele>
        <time>2022-02-09T13:18:37Z</time>
      </trkpt>
      <trkpt lat="42.86372" lon="0.23614">
        <ele>2206.4</ele>
        <time>2022-02-09T13:18:38Z</time>
      </trkpt>
      <trkpt lat="42.86372" lon="0.23614">
        <ele>2206.4</ele>
        <time>2022-02-09T13:18:39Z</time>
      </trkpt>
      <trkpt lat="42.86372" lon="0.23614">
        <ele>2206.4</ele>
        <time>2022-02-09T13:18:40Z</time>
      </trkpt>
      <trkpt lat="42.86372" lon="0.23614">
        <ele>2206.4</ele>
        <time>2022-02-09T13:18:41Z</time>
      </trkpt>
      <trkpt lat="42.86372" lon="0.23614">
        <ele>2206.4</ele>
        <time>2022-02-09T13:18:42Z</time>
      </trkpt>
      <trkpt lat="42.86372" lon="0.23614">
        <ele>2206.4</ele>
        <time>2022-02-09T13:18:43Z</time>
      </trkpt>
      <trkpt lat="42.8637" lon="0.23615">
        <ele>2206</ele>
        <time>2022-02-09T13:18:44Z</time>
      </trkpt>
      <trkpt lat="42.86367" lon="0.23618">
        <ele>2205.2</ele>
        <time>2022-02-09T13:18:45Z</time>
      </trkpt>
      <trkpt lat="42.86367" lon="0.2362">
        <ele>2204.7</ele>
        <time>2022-02-09T13:18:46Z</time>
      </trkpt>
      <trkpt lat="42.86369" lon="0.23624">
        <ele>2204</ele>
        <time>2022-02-09T13:18:47Z</time>
      </trkpt>
      <trkpt lat="42.86368" lon="0.23627">
        <ele>2203.3</ele>
        <time>2022-02-09T13:18:48Z</time>
      </trkpt>
      <trkpt lat="42.86366" lon="0.2363">
        <ele>2202.5</ele>
        <time>2022-02-09T13:18:49Z</time>
      </trkpt>
      <trkpt lat="42.86364" lon="0.23634">
        <ele>2201.7</ele>
        <time>2022-02-09T13:18:50Z</time>
      </trkpt>
      <trkpt lat="42.86363" lon="0.23638">
        <ele>2200.9</ele>
        <time>2022-02-09T13:18:51Z</time>
      </trkpt>
      <trkpt lat="42.86361" lon="0.23642">
        <ele>2200</ele>
        <time>2022-02-09T13:18:52Z</time>
      </trkpt>
      <trkpt lat="42.86359" lon="0.23645">
        <ele>2199.2</ele>
        <time>2022-02-09T13:18:53Z</time>
      </trkpt>
      <trkpt lat="42.86359" lon="0.2365">
        <ele>2198.3</ele>
        <time>2022-02-09T13:18:54Z</time>
      </trkpt>
      <trkpt lat="42.86358" lon="0.23655">
        <ele>2197.4</ele>
        <time>2022-02-09T13:18:55Z</time>
      </trkpt>
      <trkpt lat="42.86355" lon="0.23659">
        <ele>2196.4</ele>
        <time>2022-02-09T13:18:56Z</time>
      </trkpt>
      <trkpt lat="42.86352" lon="0.23662">
        <ele>2195.5</ele>
        <time>2022-02-09T13:18:57Z</time>
      </trkpt>
      <trkpt lat="42.86351" lon="0.23665">
        <ele>2194.7</ele>
        <time>2022-02-09T13:18:58Z</time>
      </trkpt>
      <trkpt lat="42.86349" lon="0.23669">
        <ele>2193.9</ele>
        <time>2022-02-09T13:18:59Z</time>
      </trkpt>
      <trkpt lat="42.86346" lon="0.23672">
        <ele>2193</ele>
        <time>2022-02-09T13:19:00Z</time>
      </trkpt>
      <trkpt lat="42.86343" lon="0.23676">
        <ele>2192</ele>
        <time>2022-02-09T13:19:01Z</time>
      </trkpt>
      <trkpt lat="42.8634" lon="0.2368">
        <ele>2190.8</ele>
        <time>2022-02-09T13:19:02Z</time>
      </trkpt>
      <trkpt lat="42.86335" lon="0.23682">
        <ele>2189.6</ele>
        <time>2022-02-09T13:19:03Z</time>
      </trkpt>
      <trkpt lat="42.86331" lon="0.23683">
        <ele>2188.6</ele>
        <time>2022-02-09T13:19:04Z</time>
      </trkpt>
      <trkpt lat="42.86328" lon="0.23686">
        <ele>2187.8</ele>
        <time>2022-02-09T13:19:05Z</time>
      </trkpt>
      <trkpt lat="42.86327" lon="0.23689">
        <ele>2187.2</ele>
        <time>2022-02-09T13:19:06Z</time>
      </trkpt>
      <trkpt lat="42.86326" lon="0.2369">
        <ele>2186.8</ele>
        <time>2022-02-09T13:19:07Z</time>
      </trkpt>
      <trkpt lat="42.86326" lon="0.23691">
        <ele>2186.7</ele>
        <time>2022-02-09T13:19:08Z</time>
      </trkpt>
      <trkpt lat="42.86326" lon="0.23691">
        <ele>2186.6</ele>
        <time>2022-02-09T13:19:09Z</time>
      </trkpt>
      <trkpt lat="42.86326" lon="0.23691">
        <ele>2186.6</ele>
        <time>2022-02-09T13:19:10Z</time>
      </trkpt>
      <trkpt lat="42.86326" lon="0.23691">
        <ele>2186.6</ele>
        <time>2022-02-09T13:19:11Z</time>
      </trkpt>
      <trkpt lat="42.86326" lon="0.23691">
        <ele>2186.6</ele>
        <time>2022-02-09T13:19:12Z</time>
      </trkpt>
      <trkpt lat="42.86326" lon="0.23691">
        <ele>2186.6</ele>
        <time>2022-02-09T13:19:13Z</time>
      </trkpt>
      <trkpt lat="42.86326" lon="0.23691">
        <ele>2186.6</ele>
        <time>2022-02-09T13:19:14Z</time>
      </trkpt>
      <trkpt lat="42.86326" lon="0.23691">
        <ele>2186.6</ele>
        <time>2022-02-09T13:19:15Z</time>
      </trkpt>
      <trkpt lat="42.86326" lon="0.23691">
        <ele>2186.6</ele>
        <time>2022-02-09T13:19:16Z</time>
      </trkpt>
      <trkpt lat="42.86326" lon="0.23691">
        <ele>2186.6</ele>
        <time>2022-02-09T13:19:17Z</time>
      </trkpt>
      <trkpt lat="42.86326" lon="0.23691">
        <ele>2186.6</ele>
        <time>2022-02-09T13:19:18Z</time>
      </trkpt>
      <trkpt lat="42.86326" lon="0.23691">
        <ele>2186.6</ele>
        <time>2022-02-09T13:19:19Z</time>
      </trkpt>
      <trkpt lat="42.86326" lon="0.23691">
        <ele>2186.6</ele>
        <time>2022-02-09T13:19:20Z</time>
      </trkpt>
      <trkpt lat="42.86326" lon="0.23691">
        <ele>2186.6</ele>
        <time>2022-02-09T13:19:21Z</time>
      </trkpt>
      <trkpt lat="42.86326" lon="0.23691">
        <ele>2186.6</ele>
        <time>2022-02-09T13:19:22Z</time>
      </trkpt>
      <trkpt lat="42.86326" lon="0.23691">
        <ele>2186.6</ele>
        <time>2022-02-09T13:19:23Z</time>
      </trkpt>
      <trkpt lat="42.86326" lon="0.23691">
        <ele>2186.6</ele>
        <time>2022-02-09T13:19:24Z</time>
      </trkpt>
      <trkpt lat="42.86326" lon="0.23691">
        <ele>2186.6</ele>
        <time>2022-02-09T13:19:25Z</time>
      </trkpt>
      <trkpt lat="42.86326" lon="0.23691">
        <ele>2186.6</ele>
        <time>2022-02-09T13:19:26Z</time>
      </trkpt>
      <trkpt lat="42.86326" lon="0.23691">
        <ele>2186.6</ele>
        <time>2022-02-09T13:19:27Z</time>
      </trkpt>
      <trkpt lat="42.86326" lon="0.23691">
        <ele>2186.6</ele>
        <time>2022-02-09T13:19:28Z</time>
      </trkpt>
      <trkpt lat="42.86326" lon="0.23691">
        <ele>2186.6</ele>
        <time>2022-02-09T13:19:29Z</time>
      </trkpt>
      <trkpt lat="42.86326" lon="0.23691">
        <ele>2186.6</ele>
        <time>2022-02-09T13:19:30Z</time>
      </trkpt>
      <trkpt lat="42.86326" lon="0.23691">
        <ele>2186.6</ele>
        <time>2022-02-09T13:19:31Z</time>
      </trkpt>
      <trkpt lat="42.86326" lon="0.23691">
        <ele>2186.6</ele>
        <time>2022-02-09T13:19:32Z</time>
      </trkpt>
      <trkpt lat="42.86326" lon="0.23691">
        <ele>2186.6</ele>
        <time>2022-02-09T13:19:33Z</time>
      </trkpt>
      <trkpt lat="42.86326" lon="0.23691">
        <ele>2186.6</ele>
        <time>2022-02-09T13:19:34Z</time>
      </trkpt>
      <trkpt lat="42.86326" lon="0.23691">
        <ele>2186.6</ele>
        <time>2022-02-09T13:19:35Z</time>
      </trkpt>
      <trkpt lat="42.86326" lon="0.23691">
        <ele>2186.6</ele>
        <time>2022-02-09T13:19:36Z</time>
      </trkpt>
      <trkpt lat="42.86326" lon="0.23691">
        <ele>2186.6</ele>
        <time>2022-02-09T13:19:37Z</time>
      </trkpt>
      <trkpt lat="42.86326" lon="0.23691">
        <ele>2186.6</ele>
        <time>2022-02-09T13:19:38Z</time>
      </trkpt>
      <trkpt lat="42.86326" lon="0.23691">
        <ele>2186.6</ele>
        <time>2022-02-09T13:19:39Z</time>
      </trkpt>
      <trkpt lat="42.86326" lon="0.23691">
        <ele>2186.6</ele>
        <time>2022-02-09T13:19:40Z</time>
      </trkpt>
      <trkpt lat="42.86326" lon="0.23691">
        <ele>2186.6</ele>
        <time>2022-02-09T13:19:41Z</time>
      </trkpt>
      <trkpt lat="42.86326" lon="0.23691">
        <ele>2186.6</ele>
        <time>2022-02-09T13:19:42Z</time>
      </trkpt>
      <trkpt lat="42.86326" lon="0.23691">
        <ele>2186.6</ele>
        <time>2022-02-09T13:19:43Z</time>
      </trkpt>
      <trkpt lat="42.86326" lon="0.23691">
        <ele>2186.6</ele>
        <time>2022-02-09T13:19:44Z</time>
      </trkpt>
      <trkpt lat="42.86326" lon="0.23691">
        <ele>2186.6</ele>
        <time>2022-02-09T13:19:45Z</time>
      </trkpt>
      <trkpt lat="42.86326" lon="0.23691">
        <ele>2186.6</ele>
        <time>2022-02-09T13:19:46Z</time>
      </trkpt>
      <trkpt lat="42.86326" lon="0.23691">
        <ele>2186.6</ele>
        <time>2022-02-09T13:19:47Z</time>
      </trkpt>
      <trkpt lat="42.86326" lon="0.23691">
        <ele>2186.6</ele>
        <time>2022-02-09T13:19:48Z</time>
      </trkpt>
      <trkpt lat="42.86326" lon="0.23691">
        <ele>2186.6</ele>
        <time>2022-02-09T13:19:49Z</time>
      </trkpt>
      <trkpt lat="42.86326" lon="0.23691">
        <ele>2186.6</ele>
        <time>2022-02-09T13:19:50Z</time>
      </trkpt>
      <trkpt lat="42.86326" lon="0.23691">
        <ele>2186.6</ele>
        <time>2022-02-09T13:19:51Z</time>
      </trkpt>
      <trkpt lat="42.86326" lon="0.23691">
        <ele>2186.6</ele>
        <time>2022-02-09T13:19:52Z</time>
      </trkpt>
      <trkpt lat="42.86326" lon="0.23691">
        <ele>2186.6</ele>
        <time>2022-02-09T13:19:53Z</time>
      </trkpt>
      <trkpt lat="42.86326" lon="0.23691">
        <ele>2186.6</ele>
        <time>2022-02-09T13:19:54Z</time>
      </trkpt>
      <trkpt lat="42.86326" lon="0.23691">
        <ele>2186.6</ele>
        <time>2022-02-09T13:19:55Z</time>
      </trkpt>
      <trkpt lat="42.86326" lon="0.23691">
        <ele>2186.6</ele>
        <time>2022-02-09T13:19:56Z</time>
      </trkpt>
      <trkpt lat="42.86326" lon="0.23691">
        <ele>2186.6</ele>
        <time>2022-02-09T13:19:57Z</time>
      </trkpt>
      <trkpt lat="42.86326" lon="0.23691">
        <ele>2186.6</ele>
        <time>2022-02-09T13:19:58Z</time>
      </trkpt>
      <trkpt lat="42.86326" lon="0.23691">
        <ele>2186.6</ele>
        <time>2022-02-09T13:19:59Z</time>
      </trkpt>
      <trkpt lat="42.86326" lon="0.23691">
        <ele>2186.6</ele>
        <time>2022-02-09T13:20:00Z</time>
      </trkpt>
      <trkpt lat="42.86326" lon="0.23691">
        <ele>2186.6</ele>
        <time>2022-02-09T13:20:01Z</time>
      </trkpt>
      <trkpt lat="42.86326" lon="0.23691">
        <ele>2186.6</ele>
        <time>2022-02-09T13:20:02Z</time>
      </trkpt>
      <trkpt lat="42.86326" lon="0.23691">
        <ele>2186.6</ele>
        <time>2022-02-09T13:20:03Z</time>
      </trkpt>
      <trkpt lat="42.86326" lon="0.23691">
        <ele>2186.6</ele>
        <time>2022-02-09T13:20:04Z</time>
      </trkpt>
      <trkpt lat="42.86326" lon="0.23691">
        <ele>2186.6</ele>
        <time>2022-02-09T13:20:05Z</time>
      </trkpt>
      <trkpt lat="42.86326" lon="0.23691">
        <ele>2186.6</ele>
        <time>2022-02-09T13:20:06Z</time>
      </trkpt>
      <trkpt lat="42.86326" lon="0.23691">
        <ele>2186.6</ele>
        <time>2022-02-09T13:20:07Z</time>
      </trkpt>
      <trkpt lat="42.86326" lon="0.23691">
        <ele>2186.6</ele>
        <time>2022-02-09T13:20:08Z</time>
      </trkpt>
      <trkpt lat="42.86326" lon="0.23691">
        <ele>2186.6</ele>
        <time>2022-02-09T13:20:09Z</time>
      </trkpt>
      <trkpt lat="42.86326" lon="0.23691">
        <ele>2186.6</ele>
        <time>2022-02-09T13:20:10Z</time>
      </trkpt>
      <trkpt lat="42.86326" lon="0.23691">
        <ele>2186.6</ele>
        <time>2022-02-09T13:20:11Z</time>
      </trkpt>
      <trkpt lat="42.86326" lon="0.23691">
        <ele>2186.6</ele>
        <time>2022-02-09T13:20:12Z</time>
      </trkpt>
      <trkpt lat="42.86326" lon="0.23691">
        <ele>2186.6</ele>
        <time>2022-02-09T13:20:13Z</time>
      </trkpt>
      <trkpt lat="42.86326" lon="0.23691">
        <ele>2186.6</ele>
        <time>2022-02-09T13:20:14Z</time>
      </trkpt>
      <trkpt lat="42.86326" lon="0.23691">
        <ele>2186.6</ele>
        <time>2022-02-09T13:20:15Z</time>
      </trkpt>
      <trkpt lat="42.86326" lon="0.23691">
        <ele>2186.6</ele>
        <time>2022-02-09T13:20:16Z</time>
      </trkpt>
      <trkpt lat="42.86326" lon="0.23691">
        <ele>2186.6</ele>
        <time>2022-02-09T13:20:17Z</time>
      </trkpt>
      <trkpt lat="42.86326" lon="0.23691">
        <ele>2186.6</ele>
        <time>2022-02-09T13:20:18Z</time>
      </trkpt>
      <trkpt lat="42.86326" lon="0.23691">
        <ele>2186.6</ele>
        <time>2022-02-09T13:20:19Z</time>
      </trkpt>
      <trkpt lat="42.86326" lon="0.23691">
        <ele>2186.6</ele>
        <time>2022-02-09T13:20:20Z</time>
      </trkpt>
      <trkpt lat="42.86326" lon="0.23691">
        <ele>2186.6</ele>
        <time>2022-02-09T13:20:21Z</time>
      </trkpt>
      <trkpt lat="42.86326" lon="0.23691">
        <ele>2186.6</ele>
        <time>2022-02-09T13:20:22Z</time>
      </trkpt>
      <trkpt lat="42.86326" lon="0.23691">
        <ele>2186.6</ele>
        <time>2022-02-09T13:20:23Z</time>
      </trkpt>
      <trkpt lat="42.86326" lon="0.23691">
        <ele>2186.6</ele>
        <time>2022-02-09T13:20:24Z</time>
      </trkpt>
      <trkpt lat="42.86326" lon="0.23691">
        <ele>2186.6</ele>
        <time>2022-02-09T13:20:25Z</time>
      </trkpt>
      <trkpt lat="42.86326" lon="0.23691">
        <ele>2186.6</ele>
        <time>2022-02-09T13:20:26Z</time>
      </trkpt>
      <trkpt lat="42.86326" lon="0.23691">
        <ele>2186.6</ele>
        <time>2022-02-09T13:20:27Z</time>
      </trkpt>
      <trkpt lat="42.86326" lon="0.23691">
        <ele>2186.6</ele>
        <time>2022-02-09T13:20:28Z</time>
      </trkpt>
      <trkpt lat="42.86326" lon="0.23691">
        <ele>2186.6</ele>
        <time>2022-02-09T13:20:29Z</time>
      </trkpt>
      <trkpt lat="42.86326" lon="0.23691">
        <ele>2186.6</ele>
        <time>2022-02-09T13:20:30Z</time>
      </trkpt>
      <trkpt lat="42.86326" lon="0.23691">
        <ele>2186.6</ele>
        <time>2022-02-09T13:20:31Z</time>
      </trkpt>
      <trkpt lat="42.86326" lon="0.23691">
        <ele>2186.6</ele>
        <time>2022-02-09T13:20:32Z</time>
      </trkpt>
      <trkpt lat="42.86326" lon="0.23691">
        <ele>2186.6</ele>
        <time>2022-02-09T13:20:33Z</time>
      </trkpt>
      <trkpt lat="42.86326" lon="0.23691">
        <ele>2186.6</ele>
        <time>2022-02-09T13:20:34Z</time>
      </trkpt>
      <trkpt lat="42.86326" lon="0.23691">
        <ele>2186.6</ele>
        <time>2022-02-09T13:20:35Z</time>
      </trkpt>
      <trkpt lat="42.86326" lon="0.23691">
        <ele>2186.6</ele>
        <time>2022-02-09T13:20:36Z</time>
      </trkpt>
      <trkpt lat="42.86326" lon="0.23691">
        <ele>2186.6</ele>
        <time>2022-02-09T13:20:37Z</time>
      </trkpt>
      <trkpt lat="42.86326" lon="0.23691">
        <ele>2186.6</ele>
        <time>2022-02-09T13:20:38Z</time>
      </trkpt>
      <trkpt lat="42.86326" lon="0.23691">
        <ele>2186.6</ele>
        <time>2022-02-09T13:20:39Z</time>
      </trkpt>
      <trkpt lat="42.86326" lon="0.23691">
        <ele>2186.6</ele>
        <time>2022-02-09T13:20:40Z</time>
      </trkpt>
      <trkpt lat="42.86326" lon="0.23691">
        <ele>2186.6</ele>
        <time>2022-02-09T13:20:41Z</time>
      </trkpt>
      <trkpt lat="42.86326" lon="0.23691">
        <ele>2186.6</ele>
        <time>2022-02-09T13:20:42Z</time>
      </trkpt>
      <trkpt lat="42.86326" lon="0.23691">
        <ele>2186.6</ele>
        <time>2022-02-09T13:20:43Z</time>
      </trkpt>
      <trkpt lat="42.86326" lon="0.23691">
        <ele>2186.6</ele>
        <time>2022-02-09T13:20:44Z</time>
      </trkpt>
      <trkpt lat="42.86326" lon="0.23691">
        <ele>2186.6</ele>
        <time>2022-02-09T13:20:45Z</time>
      </trkpt>
      <trkpt lat="42.86326" lon="0.23691">
        <ele>2186.6</ele>
        <time>2022-02-09T13:20:46Z</time>
      </trkpt>
      <trkpt lat="42.86324" lon="0.23691">
        <ele>2186.4</ele>
        <time>2022-02-09T13:20:47Z</time>
      </trkpt>
      <trkpt lat="42.86322" lon="0.23691">
        <ele>2185.7</ele>
        <time>2022-02-09T13:20:48Z</time>
      </trkpt>
      <trkpt lat="42.86319" lon="0.23691">
        <ele>2185</ele>
        <time>2022-02-09T13:20:49Z</time>
      </trkpt>
      <trkpt lat="42.86316" lon="0.2369">
        <ele>2184.2</ele>
        <time>2022-02-09T13:20:50Z</time>
      </trkpt>
      <trkpt lat="42.86312" lon="0.2369">
        <ele>2183.4</ele>
        <time>2022-02-09T13:20:51Z</time>
      </trkpt>
      <trkpt lat="42.86309" lon="0.23689">
        <ele>2182.5</ele>
        <time>2022-02-09T13:20:52Z</time>
      </trkpt>
      <trkpt lat="42.86305" lon="0.23689">
        <ele>2181.6</ele>
        <time>2022-02-09T13:20:53Z</time>
      </trkpt>
      <trkpt lat="42.86301" lon="0.2369">
        <ele>2180.6</ele>
        <time>2022-02-09T13:20:54Z</time>
      </trkpt>
      <trkpt lat="42.86297" lon="0.23691">
        <ele>2179.5</ele>
        <time>2022-02-09T13:20:55Z</time>
      </trkpt>
      <trkpt lat="42.86293" lon="0.23693">
        <ele>2178.4</ele>
        <time>2022-02-09T13:20:56Z</time>
      </trkpt>
      <trkpt lat="42.86289" lon="0.23694">
        <ele>2177.5</ele>
        <time>2022-02-09T13:20:57Z</time>
      </trkpt>
      <trkpt lat="42.86286" lon="0.23696">
        <ele>2176.6</ele>
        <time>2022-02-09T13:20:58Z</time>
      </trkpt>
      <trkpt lat="42.86282" lon="0.23698">
        <ele>2175.7</ele>
        <time>2022-02-09T13:20:59Z</time>
      </trkpt>
      <trkpt lat="42.86279" lon="0.23699">
        <ele>2174.8</ele>
        <time>2022-02-09T13:21:00Z</time>
      </trkpt>
      <trkpt lat="42.86276" lon="0.23701">
        <ele>2174</ele>
        <time>2022-02-09T13:21:01Z</time>
      </trkpt>
      <trkpt lat="42.86272" lon="0.23703">
        <ele>2173</ele>
        <time>2022-02-09T13:21:02Z</time>
      </trkpt>
      <trkpt lat="42.86268" lon="0.23706">
        <ele>2171.9</ele>
        <time>2022-02-09T13:21:03Z</time>
      </trkpt>
      <trkpt lat="42.86263" lon="0.23709">
        <ele>2170.6</ele>
        <time>2022-02-09T13:21:04Z</time>
      </trkpt>
      <trkpt lat="42.86259" lon="0.23713">
        <ele>2169.3</ele>
        <time>2022-02-09T13:21:05Z</time>
      </trkpt>
      <trkpt lat="42.86254" lon="0.23716">
        <ele>2167.8</ele>
        <time>2022-02-09T13:21:06Z</time>
      </trkpt>
      <trkpt lat="42.86249" lon="0.2372">
        <ele>2166.4</ele>
        <time>2022-02-09T13:21:07Z</time>
      </trkpt>
      <trkpt lat="42.86244" lon="0.23724">
        <ele>2165.1</ele>
        <time>2022-02-09T13:21:08Z</time>
      </trkpt>
      <trkpt lat="42.86239" lon="0.23727">
        <ele>2163.7</ele>
        <time>2022-02-09T13:21:09Z</time>
      </trkpt>
      <trkpt lat="42.86234" lon="0.23731">
        <ele>2162.4</ele>
        <time>2022-02-09T13:21:10Z</time>
      </trkpt>
      <trkpt lat="42.8623" lon="0.23735">
        <ele>2161.2</ele>
        <time>2022-02-09T13:21:11Z</time>
      </trkpt>
      <trkpt lat="42.86226" lon="0.23739">
        <ele>2160</ele>
        <time>2022-02-09T13:21:12Z</time>
      </trkpt>
      <trkpt lat="42.86223" lon="0.23741">
        <ele>2159</ele>
        <time>2022-02-09T13:21:13Z</time>
      </trkpt>
      <trkpt lat="42.8622" lon="0.23743">
        <ele>2158.1</ele>
        <time>2022-02-09T13:21:14Z</time>
      </trkpt>
      <trkpt lat="42.86216" lon="0.23746">
        <ele>2157.1</ele>
        <time>2022-02-09T13:21:15Z</time>
      </trkpt>
      <trkpt lat="42.86214" lon="0.23749">
        <ele>2156.3</ele>
        <time>2022-02-09T13:21:16Z</time>
      </trkpt>
      <trkpt lat="42.86214" lon="0.23753">
        <ele>2155.5</ele>
        <time>2022-02-09T13:21:17Z</time>
      </trkpt>
      <trkpt lat="42.86217" lon="0.23757">
        <ele>2154.5</ele>
        <time>2022-02-09T13:21:18Z</time>
      </trkpt>
      <trkpt lat="42.86219" lon="0.23761">
        <ele>2153.6</ele>
        <time>2022-02-09T13:21:19Z</time>
      </trkpt>
      <trkpt lat="42.8622" lon="0.23766">
        <ele>2152.7</ele>
        <time>2022-02-09T13:21:20Z</time>
      </trkpt>
      <trkpt lat="42.86219" lon="0.23772">
        <ele>2151.7</ele>
        <time>2022-02-09T13:21:21Z</time>
      </trkpt>
      <trkpt lat="42.86218" lon="0.23778">
        <ele>2150.5</ele>
        <time>2022-02-09T13:21:22Z</time>
      </trkpt>
      <trkpt lat="42.86217" lon="0.23784">
        <ele>2149.3</ele>
        <time>2022-02-09T13:21:23Z</time>
      </trkpt>
      <trkpt lat="42.86216" lon="0.23792">
        <ele>2148</ele>
        <time>2022-02-09T13:21:24Z</time>
      </trkpt>
      <trkpt lat="42.86216" lon="0.23799">
        <ele>2146.7</ele>
        <time>2022-02-09T13:21:25Z</time>
      </trkpt>
      <trkpt lat="42.86215" lon="0.23807">
        <ele>2145.2</ele>
        <time>2022-02-09T13:21:26Z</time>
      </trkpt>
      <trkpt lat="42.86215" lon="0.23815">
        <ele>2143.9</ele>
        <time>2022-02-09T13:21:27Z</time>
      </trkpt>
      <trkpt lat="42.86215" lon="0.23822">
        <ele>2142.5</ele>
        <time>2022-02-09T13:21:28Z</time>
      </trkpt>
      <trkpt lat="42.86214" lon="0.23829">
        <ele>2141.2</ele>
        <time>2022-02-09T13:21:29Z</time>
      </trkpt>
      <trkpt lat="42.86214" lon="0.23837">
        <ele>2139.8</ele>
        <time>2022-02-09T13:21:30Z</time>
      </trkpt>
      <trkpt lat="42.86213" lon="0.23844">
        <ele>2138.4</ele>
        <time>2022-02-09T13:21:31Z</time>
      </trkpt>
      <trkpt lat="42.86212" lon="0.23852">
        <ele>2137</ele>
        <time>2022-02-09T13:21:32Z</time>
      </trkpt>
      <trkpt lat="42.86209" lon="0.23859">
        <ele>2135.5</ele>
        <time>2022-02-09T13:21:33Z</time>
      </trkpt>
      <trkpt lat="42.86206" lon="0.23867">
        <ele>2133.9</ele>
        <time>2022-02-09T13:21:34Z</time>
      </trkpt>
      <trkpt lat="42.86204" lon="0.23876">
        <ele>2132.3</ele>
        <time>2022-02-09T13:21:35Z</time>
      </trkpt>
      <trkpt lat="42.86204" lon="0.23884">
        <ele>2130.7</ele>
        <time>2022-02-09T13:21:36Z</time>
      </trkpt>
      <trkpt lat="42.86203" lon="0.23893">
        <ele>2129.1</ele>
        <time>2022-02-09T13:21:37Z</time>
      </trkpt>
      <trkpt lat="42.86203" lon="0.23902">
        <ele>2127.6</ele>
        <time>2022-02-09T13:21:38Z</time>
      </trkpt>
      <trkpt lat="42.86202" lon="0.23909">
        <ele>2126.2</ele>
        <time>2022-02-09T13:21:39Z</time>
      </trkpt>
      <trkpt lat="42.86201" lon="0.23916">
        <ele>2124.9</ele>
        <time>2022-02-09T13:21:40Z</time>
      </trkpt>
      <trkpt lat="42.862" lon="0.23923">
        <ele>2123.7</ele>
        <time>2022-02-09T13:21:41Z</time>
      </trkpt>
      <trkpt lat="42.86198" lon="0.23929">
        <ele>2122.5</ele>
        <time>2022-02-09T13:21:42Z</time>
      </trkpt>
      <trkpt lat="42.86197" lon="0.23935">
        <ele>2121.3</ele>
        <time>2022-02-09T13:21:43Z</time>
      </trkpt>
      <trkpt lat="42.86194" lon="0.23941">
        <ele>2120.1</ele>
        <time>2022-02-09T13:21:44Z</time>
      </trkpt>
      <trkpt lat="42.86191" lon="0.23947">
        <ele>2117.7</ele>
        <time>2022-02-09T13:21:45Z</time>
      </trkpt>
      <trkpt lat="42.86188" lon="0.23952">
        <ele>2116.2</ele>
        <time>2022-02-09T13:21:46Z</time>
      </trkpt>
      <trkpt lat="42.86185" lon="0.23957">
        <ele>2114.8</ele>
        <time>2022-02-09T13:21:47Z</time>
      </trkpt>
      <trkpt lat="42.86182" lon="0.23962">
        <ele>2113.4</ele>
        <time>2022-02-09T13:21:48Z</time>
      </trkpt>
      <trkpt lat="42.86179" lon="0.23966">
        <ele>2112.1</ele>
        <time>2022-02-09T13:21:49Z</time>
      </trkpt>
      <trkpt lat="42.86176" lon="0.23971">
        <ele>2110.8</ele>
        <time>2022-02-09T13:21:50Z</time>
      </trkpt>
      <trkpt lat="42.86173" lon="0.23975">
        <ele>2109.6</ele>
        <time>2022-02-09T13:21:51Z</time>
      </trkpt>
      <trkpt lat="42.86171" lon="0.23979">
        <ele>2108.5</ele>
        <time>2022-02-09T13:21:52Z</time>
      </trkpt>
      <trkpt lat="42.86168" lon="0.23983">
        <ele>2107.3</ele>
        <time>2022-02-09T13:21:53Z</time>
      </trkpt>
      <trkpt lat="42.86166" lon="0.23987">
        <ele>2106.2</ele>
        <time>2022-02-09T13:21:54Z</time>
      </trkpt>
      <trkpt lat="42.86164" lon="0.2399">
        <ele>2105.4</ele>
        <time>2022-02-09T13:21:55Z</time>
      </trkpt>
      <trkpt lat="42.86163" lon="0.23992">
        <ele>2105.4</ele>
        <time>2022-02-09T13:21:56Z</time>
      </trkpt>
      <trkpt lat="42.86162" lon="0.23993">
        <ele>2105.4</ele>
        <time>2022-02-09T13:21:57Z</time>
      </trkpt>
      <trkpt lat="42.86162" lon="0.23994">
        <ele>2105.4</ele>
        <time>2022-02-09T13:21:58Z</time>
      </trkpt>
      <trkpt lat="42.86162" lon="0.23994">
        <ele>2105</ele>
        <time>2022-02-09T13:21:59Z</time>
      </trkpt>
      <trkpt lat="42.86162" lon="0.23994">
        <ele>2105</ele>
        <time>2022-02-09T13:22:00Z</time>
      </trkpt>
      <trkpt lat="42.86162" lon="0.23994">
        <ele>2105</ele>
        <time>2022-02-09T13:22:01Z</time>
      </trkpt>
      <trkpt lat="42.86162" lon="0.23994">
        <ele>2105</ele>
        <time>2022-02-09T13:22:02Z</time>
      </trkpt>
      <trkpt lat="42.86162" lon="0.23994">
        <ele>2105</ele>
        <time>2022-02-09T13:22:03Z</time>
      </trkpt>
      <trkpt lat="42.86162" lon="0.23994">
        <ele>2105</ele>
        <time>2022-02-09T13:22:04Z</time>
      </trkpt>
      <trkpt lat="42.86162" lon="0.23994">
        <ele>2105</ele>
        <time>2022-02-09T13:22:05Z</time>
      </trkpt>
      <trkpt lat="42.86162" lon="0.23994">
        <ele>2105</ele>
        <time>2022-02-09T13:22:06Z</time>
      </trkpt>
      <trkpt lat="42.86162" lon="0.23994">
        <ele>2105</ele>
        <time>2022-02-09T13:22:07Z</time>
      </trkpt>
      <trkpt lat="42.86162" lon="0.23994">
        <ele>2105</ele>
        <time>2022-02-09T13:22:08Z</time>
      </trkpt>
      <trkpt lat="42.86162" lon="0.23994">
        <ele>2105</ele>
        <time>2022-02-09T13:22:09Z</time>
      </trkpt>
      <trkpt lat="42.86162" lon="0.23994">
        <ele>2105</ele>
        <time>2022-02-09T13:22:10Z</time>
      </trkpt>
      <trkpt lat="42.86162" lon="0.23994">
        <ele>2105</ele>
        <time>2022-02-09T13:22:11Z</time>
      </trkpt>
      <trkpt lat="42.86162" lon="0.23994">
        <ele>2105</ele>
        <time>2022-02-09T13:22:12Z</time>
      </trkpt>
      <trkpt lat="42.86162" lon="0.23994">
        <ele>2105</ele>
        <time>2022-02-09T13:22:13Z</time>
      </trkpt>
      <trkpt lat="42.86162" lon="0.23994">
        <ele>2105</ele>
        <time>2022-02-09T13:22:14Z</time>
      </trkpt>
      <trkpt lat="42.86162" lon="0.23994">
        <ele>2105</ele>
        <time>2022-02-09T13:22:15Z</time>
      </trkpt>
      <trkpt lat="42.86162" lon="0.23994">
        <ele>2105</ele>
        <time>2022-02-09T13:22:16Z</time>
      </trkpt>
      <trkpt lat="42.86162" lon="0.23994">
        <ele>2105</ele>
        <time>2022-02-09T13:22:17Z</time>
      </trkpt>
      <trkpt lat="42.86162" lon="0.23994">
        <ele>2105</ele>
        <time>2022-02-09T13:22:18Z</time>
      </trkpt>
      <trkpt lat="42.86162" lon="0.23994">
        <ele>2105</ele>
        <time>2022-02-09T13:22:19Z</time>
      </trkpt>
      <trkpt lat="42.86162" lon="0.23994">
        <ele>2105</ele>
        <time>2022-02-09T13:22:20Z</time>
      </trkpt>
      <trkpt lat="42.86162" lon="0.23994">
        <ele>2105</ele>
        <time>2022-02-09T13:22:21Z</time>
      </trkpt>
      <trkpt lat="42.86162" lon="0.23994">
        <ele>2105</ele>
        <time>2022-02-09T13:22:22Z</time>
      </trkpt>
      <trkpt lat="42.86162" lon="0.23994">
        <ele>2105</ele>
        <time>2022-02-09T13:22:23Z</time>
      </trkpt>
      <trkpt lat="42.86162" lon="0.23994">
        <ele>2105</ele>
        <time>2022-02-09T13:22:24Z</time>
      </trkpt>
      <trkpt lat="42.86162" lon="0.23994">
        <ele>2105</ele>
        <time>2022-02-09T13:22:25Z</time>
      </trkpt>
      <trkpt lat="42.86162" lon="0.23994">
        <ele>2105</ele>
        <time>2022-02-09T13:22:26Z</time>
      </trkpt>
      <trkpt lat="42.86162" lon="0.23994">
        <ele>2105</ele>
        <time>2022-02-09T13:22:27Z</time>
      </trkpt>
      <trkpt lat="42.86162" lon="0.23994">
        <ele>2105</ele>
        <time>2022-02-09T13:22:28Z</time>
      </trkpt>
      <trkpt lat="42.86162" lon="0.23994">
        <ele>2105</ele>
        <time>2022-02-09T13:22:29Z</time>
      </trkpt>
      <trkpt lat="42.86162" lon="0.23994">
        <ele>2105</ele>
        <time>2022-02-09T13:22:30Z</time>
      </trkpt>
      <trkpt lat="42.86162" lon="0.23994">
        <ele>2105</ele>
        <time>2022-02-09T13:22:31Z</time>
      </trkpt>
      <trkpt lat="42.86162" lon="0.23994">
        <ele>2105</ele>
        <time>2022-02-09T13:22:32Z</time>
      </trkpt>
      <trkpt lat="42.86162" lon="0.23994">
        <ele>2105</ele>
        <time>2022-02-09T13:22:33Z</time>
      </trkpt>
      <trkpt lat="42.86162" lon="0.23994">
        <ele>2105</ele>
        <time>2022-02-09T13:22:34Z</time>
      </trkpt>
      <trkpt lat="42.86162" lon="0.23994">
        <ele>2105</ele>
        <time>2022-02-09T13:22:35Z</time>
      </trkpt>
      <trkpt lat="42.86162" lon="0.23994">
        <ele>2105</ele>
        <time>2022-02-09T13:22:36Z</time>
      </trkpt>
      <trkpt lat="42.86162" lon="0.23994">
        <ele>2105</ele>
        <time>2022-02-09T13:22:37Z</time>
      </trkpt>
      <trkpt lat="42.86162" lon="0.23994">
        <ele>2105</ele>
        <time>2022-02-09T13:22:38Z</time>
      </trkpt>
      <trkpt lat="42.86162" lon="0.23994">
        <ele>2105</ele>
        <time>2022-02-09T13:22:39Z</time>
      </trkpt>
      <trkpt lat="42.86162" lon="0.23994">
        <ele>2105</ele>
        <time>2022-02-09T13:22:40Z</time>
      </trkpt>
      <trkpt lat="42.86162" lon="0.23994">
        <ele>2105</ele>
        <time>2022-02-09T13:22:41Z</time>
      </trkpt>
      <trkpt lat="42.86162" lon="0.23994">
        <ele>2105</ele>
        <time>2022-02-09T13:22:42Z</time>
      </trkpt>
      <trkpt lat="42.86162" lon="0.23994">
        <ele>2105</ele>
        <time>2022-02-09T13:22:43Z</time>
      </trkpt>
      <trkpt lat="42.86162" lon="0.23994">
        <ele>2105</ele>
        <time>2022-02-09T13:22:44Z</time>
      </trkpt>
      <trkpt lat="42.86162" lon="0.23994">
        <ele>2105</ele>
        <time>2022-02-09T13:22:45Z</time>
      </trkpt>
      <trkpt lat="42.86162" lon="0.23994">
        <ele>2105</ele>
        <time>2022-02-09T13:22:46Z</time>
      </trkpt>
      <trkpt lat="42.86162" lon="0.23994">
        <ele>2105</ele>
        <time>2022-02-09T13:22:47Z</time>
      </trkpt>
      <trkpt lat="42.86162" lon="0.23994">
        <ele>2105</ele>
        <time>2022-02-09T13:22:48Z</time>
      </trkpt>
      <trkpt lat="42.86162" lon="0.23994">
        <ele>2105</ele>
        <time>2022-02-09T13:22:49Z</time>
      </trkpt>
      <trkpt lat="42.86162" lon="0.23994">
        <ele>2105</ele>
        <time>2022-02-09T13:22:50Z</time>
      </trkpt>
      <trkpt lat="42.86162" lon="0.23994">
        <ele>2105</ele>
        <time>2022-02-09T13:22:51Z</time>
      </trkpt>
      <trkpt lat="42.86162" lon="0.23994">
        <ele>2105</ele>
        <time>2022-02-09T13:22:52Z</time>
      </trkpt>
      <trkpt lat="42.86162" lon="0.23994">
        <ele>2105</ele>
        <time>2022-02-09T13:22:53Z</time>
      </trkpt>
      <trkpt lat="42.86162" lon="0.23994">
        <ele>2105</ele>
        <time>2022-02-09T13:22:54Z</time>
      </trkpt>
      <trkpt lat="42.86162" lon="0.23994">
        <ele>2105</ele>
        <time>2022-02-09T13:22:55Z</time>
      </trkpt>
      <trkpt lat="42.86162" lon="0.23994">
        <ele>2105</ele>
        <time>2022-02-09T13:22:56Z</time>
      </trkpt>
      <trkpt lat="42.86162" lon="0.23994">
        <ele>2105</ele>
        <time>2022-02-09T13:22:57Z</time>
      </trkpt>
      <trkpt lat="42.86162" lon="0.23994">
        <ele>2105</ele>
        <time>2022-02-09T13:22:58Z</time>
      </trkpt>
      <trkpt lat="42.86162" lon="0.23994">
        <ele>2105</ele>
        <time>2022-02-09T13:22:59Z</time>
      </trkpt>
      <trkpt lat="42.86162" lon="0.23994">
        <ele>2105</ele>
        <time>2022-02-09T13:23:00Z</time>
      </trkpt>
      <trkpt lat="42.86162" lon="0.23994">
        <ele>2105</ele>
        <time>2022-02-09T13:23:01Z</time>
      </trkpt>
      <trkpt lat="42.86162" lon="0.23994">
        <ele>2105</ele>
        <time>2022-02-09T13:23:02Z</time>
      </trkpt>
      <trkpt lat="42.86162" lon="0.23994">
        <ele>2105</ele>
        <time>2022-02-09T13:23:03Z</time>
      </trkpt>
      <trkpt lat="42.86162" lon="0.23994">
        <ele>2105</ele>
        <time>2022-02-09T13:23:04Z</time>
      </trkpt>
      <trkpt lat="42.86162" lon="0.23994">
        <ele>2105</ele>
        <time>2022-02-09T13:23:05Z</time>
      </trkpt>
      <trkpt lat="42.86162" lon="0.23994">
        <ele>2105</ele>
        <time>2022-02-09T13:23:06Z</time>
      </trkpt>
      <trkpt lat="42.86162" lon="0.23994">
        <ele>2105</ele>
        <time>2022-02-09T13:23:07Z</time>
      </trkpt>
      <trkpt lat="42.86162" lon="0.23994">
        <ele>2105</ele>
        <time>2022-02-09T13:23:08Z</time>
      </trkpt>
      <trkpt lat="42.86162" lon="0.23994">
        <ele>2105</ele>
        <time>2022-02-09T13:23:09Z</time>
      </trkpt>
      <trkpt lat="42.86162" lon="0.23994">
        <ele>2105</ele>
        <time>2022-02-09T13:23:10Z</time>
      </trkpt>
      <trkpt lat="42.86162" lon="0.23994">
        <ele>2105</ele>
        <time>2022-02-09T13:23:11Z</time>
      </trkpt>
      <trkpt lat="42.86162" lon="0.23994">
        <ele>2105</ele>
        <time>2022-02-09T13:23:12Z</time>
      </trkpt>
      <trkpt lat="42.86162" lon="0.23994">
        <ele>2105</ele>
        <time>2022-02-09T13:23:13Z</time>
      </trkpt>
      <trkpt lat="42.86162" lon="0.23994">
        <ele>2105</ele>
        <time>2022-02-09T13:23:14Z</time>
      </trkpt>
      <trkpt lat="42.86162" lon="0.23994">
        <ele>2105</ele>
        <time>2022-02-09T13:23:15Z</time>
      </trkpt>
      <trkpt lat="42.86162" lon="0.23994">
        <ele>2105</ele>
        <time>2022-02-09T13:23:16Z</time>
      </trkpt>
      <trkpt lat="42.86162" lon="0.23994">
        <ele>2105</ele>
        <time>2022-02-09T13:23:17Z</time>
      </trkpt>
      <trkpt lat="42.86162" lon="0.23994">
        <ele>2105</ele>
        <time>2022-02-09T13:23:18Z</time>
      </trkpt>
      <trkpt lat="42.86162" lon="0.23994">
        <ele>2105</ele>
        <time>2022-02-09T13:23:19Z</time>
      </trkpt>
      <trkpt lat="42.86162" lon="0.23994">
        <ele>2105</ele>
        <time>2022-02-09T13:23:20Z</time>
      </trkpt>
      <trkpt lat="42.86162" lon="0.23994">
        <ele>2105</ele>
        <time>2022-02-09T13:23:21Z</time>
      </trkpt>
      <trkpt lat="42.86162" lon="0.23994">
        <ele>2105</ele>
        <time>2022-02-09T13:23:22Z</time>
      </trkpt>
      <trkpt lat="42.86162" lon="0.23994">
        <ele>2105</ele>
        <time>2022-02-09T13:23:23Z</time>
      </trkpt>
      <trkpt lat="42.86162" lon="0.23994">
        <ele>2105</ele>
        <time>2022-02-09T13:23:24Z</time>
      </trkpt>
      <trkpt lat="42.86162" lon="0.23994">
        <ele>2105</ele>
        <time>2022-02-09T13:23:25Z</time>
      </trkpt>
      <trkpt lat="42.86162" lon="0.23994">
        <ele>2105</ele>
        <time>2022-02-09T13:23:26Z</time>
      </trkpt>
      <trkpt lat="42.86162" lon="0.23994">
        <ele>2105</ele>
        <time>2022-02-09T13:23:27Z</time>
      </trkpt>
      <trkpt lat="42.86162" lon="0.23994">
        <ele>2105</ele>
        <time>2022-02-09T13:23:28Z</time>
      </trkpt>
      <trkpt lat="42.86162" lon="0.23994">
        <ele>2105</ele>
        <time>2022-02-09T13:23:29Z</time>
      </trkpt>
      <trkpt lat="42.86162" lon="0.23994">
        <ele>2105</ele>
        <time>2022-02-09T13:23:30Z</time>
      </trkpt>
      <trkpt lat="42.86162" lon="0.23994">
        <ele>2105</ele>
        <time>2022-02-09T13:23:31Z</time>
      </trkpt>
      <trkpt lat="42.86162" lon="0.23994">
        <ele>2105</ele>
        <time>2022-02-09T13:23:32Z</time>
      </trkpt>
      <trkpt lat="42.86162" lon="0.23994">
        <ele>2105</ele>
        <time>2022-02-09T13:23:33Z</time>
      </trkpt>
      <trkpt lat="42.86162" lon="0.23994">
        <ele>2105</ele>
        <time>2022-02-09T13:23:34Z</time>
      </trkpt>
      <trkpt lat="42.86162" lon="0.23994">
        <ele>2105</ele>
        <time>2022-02-09T13:23:35Z</time>
      </trkpt>
      <trkpt lat="42.86162" lon="0.23994">
        <ele>2105</ele>
        <time>2022-02-09T13:23:36Z</time>
      </trkpt>
      <trkpt lat="42.86162" lon="0.23994">
        <ele>2105</ele>
        <time>2022-02-09T13:23:37Z</time>
      </trkpt>
      <trkpt lat="42.86162" lon="0.23994">
        <ele>2105</ele>
        <time>2022-02-09T13:23:38Z</time>
      </trkpt>
      <trkpt lat="42.86162" lon="0.23994">
        <ele>2105</ele>
        <time>2022-02-09T13:23:39Z</time>
      </trkpt>
      <trkpt lat="42.86162" lon="0.23994">
        <ele>2105</ele>
        <time>2022-02-09T13:23:40Z</time>
      </trkpt>
      <trkpt lat="42.86162" lon="0.23994">
        <ele>2105</ele>
        <time>2022-02-09T13:23:41Z</time>
      </trkpt>
      <trkpt lat="42.86162" lon="0.23994">
        <ele>2105</ele>
        <time>2022-02-09T13:23:42Z</time>
      </trkpt>
      <trkpt lat="42.86162" lon="0.23994">
        <ele>2105</ele>
        <time>2022-02-09T13:23:43Z</time>
      </trkpt>
      <trkpt lat="42.86162" lon="0.23994">
        <ele>2105</ele>
        <time>2022-02-09T13:23:44Z</time>
      </trkpt>
      <trkpt lat="42.86162" lon="0.23994">
        <ele>2105</ele>
        <time>2022-02-09T13:23:45Z</time>
      </trkpt>
      <trkpt lat="42.86162" lon="0.23994">
        <ele>2105</ele>
        <time>2022-02-09T13:23:46Z</time>
      </trkpt>
      <trkpt lat="42.86162" lon="0.23994">
        <ele>2105</ele>
        <time>2022-02-09T13:23:47Z</time>
      </trkpt>
      <trkpt lat="42.86162" lon="0.23994">
        <ele>2105</ele>
        <time>2022-02-09T13:23:48Z</time>
      </trkpt>
      <trkpt lat="42.86162" lon="0.23994">
        <ele>2105</ele>
        <time>2022-02-09T13:23:49Z</time>
      </trkpt>
      <trkpt lat="42.86162" lon="0.23994">
        <ele>2105</ele>
        <time>2022-02-09T13:23:50Z</time>
      </trkpt>
      <trkpt lat="42.86162" lon="0.23994">
        <ele>2105</ele>
        <time>2022-02-09T13:23:51Z</time>
      </trkpt>
      <trkpt lat="42.86162" lon="0.23994">
        <ele>2105</ele>
        <time>2022-02-09T13:23:52Z</time>
      </trkpt>
      <trkpt lat="42.86162" lon="0.23994">
        <ele>2105</ele>
        <time>2022-02-09T13:23:53Z</time>
      </trkpt>
      <trkpt lat="42.86162" lon="0.23994">
        <ele>2105</ele>
        <time>2022-02-09T13:23:54Z</time>
      </trkpt>
      <trkpt lat="42.86162" lon="0.23994">
        <ele>2105</ele>
        <time>2022-02-09T13:23:55Z</time>
      </trkpt>
      <trkpt lat="42.86162" lon="0.23994">
        <ele>2105</ele>
        <time>2022-02-09T13:23:56Z</time>
      </trkpt>
      <trkpt lat="42.86162" lon="0.23994">
        <ele>2105</ele>
        <time>2022-02-09T13:23:57Z</time>
      </trkpt>
      <trkpt lat="42.86162" lon="0.23994">
        <ele>2105</ele>
        <time>2022-02-09T13:23:58Z</time>
      </trkpt>
      <trkpt lat="42.86162" lon="0.23994">
        <ele>2105</ele>
        <time>2022-02-09T13:23:59Z</time>
      </trkpt>
      <trkpt lat="42.86162" lon="0.23994">
        <ele>2105</ele>
        <time>2022-02-09T13:24:00Z</time>
      </trkpt>
      <trkpt lat="42.86162" lon="0.23994">
        <ele>2105</ele>
        <time>2022-02-09T13:24:01Z</time>
      </trkpt>
      <trkpt lat="42.86162" lon="0.23994">
        <ele>2105</ele>
        <time>2022-02-09T13:24:02Z</time>
      </trkpt>
      <trkpt lat="42.86162" lon="0.23994">
        <ele>2105</ele>
        <time>2022-02-09T13:24:03Z</time>
      </trkpt>
      <trkpt lat="42.86162" lon="0.23994">
        <ele>2105</ele>
        <time>2022-02-09T13:24:04Z</time>
      </trkpt>
      <trkpt lat="42.86162" lon="0.23994">
        <ele>2105</ele>
        <time>2022-02-09T13:24:05Z</time>
      </trkpt>
      <trkpt lat="42.86162" lon="0.23994">
        <ele>2105</ele>
        <time>2022-02-09T13:24:06Z</time>
      </trkpt>
      <trkpt lat="42.86162" lon="0.23994">
        <ele>2105</ele>
        <time>2022-02-09T13:24:07Z</time>
      </trkpt>
      <trkpt lat="42.86162" lon="0.23994">
        <ele>2105</ele>
        <time>2022-02-09T13:24:08Z</time>
      </trkpt>
      <trkpt lat="42.86162" lon="0.23994">
        <ele>2105</ele>
        <time>2022-02-09T13:24:09Z</time>
      </trkpt>
      <trkpt lat="42.86162" lon="0.23994">
        <ele>2105</ele>
        <time>2022-02-09T13:24:10Z</time>
      </trkpt>
      <trkpt lat="42.86162" lon="0.23994">
        <ele>2105</ele>
        <time>2022-02-09T13:24:11Z</time>
      </trkpt>
      <trkpt lat="42.86162" lon="0.23994">
        <ele>2105</ele>
        <time>2022-02-09T13:24:12Z</time>
      </trkpt>
      <trkpt lat="42.86162" lon="0.23994">
        <ele>2105</ele>
        <time>2022-02-09T13:24:13Z</time>
      </trkpt>
      <trkpt lat="42.86162" lon="0.23994">
        <ele>2105</ele>
        <time>2022-02-09T13:24:14Z</time>
      </trkpt>
      <trkpt lat="42.86162" lon="0.23994">
        <ele>2105</ele>
        <time>2022-02-09T13:24:15Z</time>
      </trkpt>
      <trkpt lat="42.86162" lon="0.23994">
        <ele>2105</ele>
        <time>2022-02-09T13:24:16Z</time>
      </trkpt>
      <trkpt lat="42.86162" lon="0.23994">
        <ele>2105</ele>
        <time>2022-02-09T13:24:17Z</time>
      </trkpt>
      <trkpt lat="42.86162" lon="0.23994">
        <ele>2105</ele>
        <time>2022-02-09T13:24:18Z</time>
      </trkpt>
      <trkpt lat="42.86162" lon="0.23994">
        <ele>2105</ele>
        <time>2022-02-09T13:24:19Z</time>
      </trkpt>
      <trkpt lat="42.86162" lon="0.23994">
        <ele>2105</ele>
        <time>2022-02-09T13:24:20Z</time>
      </trkpt>
      <trkpt lat="42.86162" lon="0.23994">
        <ele>2105</ele>
        <time>2022-02-09T13:24:21Z</time>
      </trkpt>
      <trkpt lat="42.86162" lon="0.23994">
        <ele>2105</ele>
        <time>2022-02-09T13:24:22Z</time>
      </trkpt>
      <trkpt lat="42.86162" lon="0.23994">
        <ele>2105</ele>
        <time>2022-02-09T13:24:23Z</time>
      </trkpt>
      <trkpt lat="42.86162" lon="0.23994">
        <ele>2105</ele>
        <time>2022-02-09T13:24:24Z</time>
      </trkpt>
      <trkpt lat="42.86162" lon="0.23994">
        <ele>2105</ele>
        <time>2022-02-09T13:24:25Z</time>
      </trkpt>
      <trkpt lat="42.86162" lon="0.23994">
        <ele>2105</ele>
        <time>2022-02-09T13:24:26Z</time>
      </trkpt>
      <trkpt lat="42.86162" lon="0.23994">
        <ele>2105</ele>
        <time>2022-02-09T13:24:27Z</time>
      </trkpt>
      <trkpt lat="42.86162" lon="0.23994">
        <ele>2105</ele>
        <time>2022-02-09T13:24:28Z</time>
      </trkpt>
      <trkpt lat="42.86162" lon="0.23994">
        <ele>2105</ele>
        <time>2022-02-09T13:24:29Z</time>
      </trkpt>
      <trkpt lat="42.86162" lon="0.23994">
        <ele>2105</ele>
        <time>2022-02-09T13:24:30Z</time>
      </trkpt>
      <trkpt lat="42.86162" lon="0.23994">
        <ele>2105</ele>
        <time>2022-02-09T13:24:31Z</time>
      </trkpt>
      <trkpt lat="42.86162" lon="0.23994">
        <ele>2105</ele>
        <time>2022-02-09T13:24:32Z</time>
      </trkpt>
      <trkpt lat="42.86162" lon="0.23994">
        <ele>2105</ele>
        <time>2022-02-09T13:24:33Z</time>
      </trkpt>
      <trkpt lat="42.86162" lon="0.23994">
        <ele>2105</ele>
        <time>2022-02-09T13:24:34Z</time>
      </trkpt>
      <trkpt lat="42.86162" lon="0.23994">
        <ele>2105</ele>
        <time>2022-02-09T13:24:35Z</time>
      </trkpt>
      <trkpt lat="42.86162" lon="0.23994">
        <ele>2105</ele>
        <time>2022-02-09T13:24:36Z</time>
      </trkpt>
      <trkpt lat="42.86162" lon="0.23994">
        <ele>2105.1</ele>
        <time>2022-02-09T13:24:37Z</time>
      </trkpt>
      <trkpt lat="42.86162" lon="0.23994">
        <ele>2105.1</ele>
        <time>2022-02-09T13:24:38Z</time>
      </trkpt>
      <trkpt lat="42.86162" lon="0.23994">
        <ele>2105.1</ele>
        <time>2022-02-09T13:24:39Z</time>
      </trkpt>
      <trkpt lat="42.86162" lon="0.23994">
        <ele>2105.1</ele>
        <time>2022-02-09T13:24:40Z</time>
      </trkpt>
      <trkpt lat="42.86162" lon="0.23994">
        <ele>2105.1</ele>
        <time>2022-02-09T13:24:41Z</time>
      </trkpt>
      <trkpt lat="42.86162" lon="0.23994">
        <ele>2105.1</ele>
        <time>2022-02-09T13:24:42Z</time>
      </trkpt>
      <trkpt lat="42.86162" lon="0.23994">
        <ele>2105.1</ele>
        <time>2022-02-09T13:24:43Z</time>
      </trkpt>
      <trkpt lat="42.86162" lon="0.23994">
        <ele>2105.1</ele>
        <time>2022-02-09T13:24:44Z</time>
      </trkpt>
      <trkpt lat="42.86162" lon="0.23994">
        <ele>2105.1</ele>
        <time>2022-02-09T13:24:45Z</time>
      </trkpt>
      <trkpt lat="42.86162" lon="0.23994">
        <ele>2105.1</ele>
        <time>2022-02-09T13:24:46Z</time>
      </trkpt>
      <trkpt lat="42.86162" lon="0.23994">
        <ele>2105.1</ele>
        <time>2022-02-09T13:24:47Z</time>
      </trkpt>
      <trkpt lat="42.86162" lon="0.23994">
        <ele>2105.1</ele>
        <time>2022-02-09T13:24:48Z</time>
      </trkpt>
      <trkpt lat="42.86162" lon="0.23994">
        <ele>2105.1</ele>
        <time>2022-02-09T13:24:49Z</time>
      </trkpt>
      <trkpt lat="42.86162" lon="0.23994">
        <ele>2105.1</ele>
        <time>2022-02-09T13:24:50Z</time>
      </trkpt>
      <trkpt lat="42.86162" lon="0.23994">
        <ele>2105.1</ele>
        <time>2022-02-09T13:24:51Z</time>
      </trkpt>
      <trkpt lat="42.86162" lon="0.23994">
        <ele>2105.1</ele>
        <time>2022-02-09T13:24:52Z</time>
      </trkpt>
      <trkpt lat="42.86162" lon="0.23994">
        <ele>2105.1</ele>
        <time>2022-02-09T13:24:53Z</time>
      </trkpt>
      <trkpt lat="42.86162" lon="0.23994">
        <ele>2105.1</ele>
        <time>2022-02-09T13:24:54Z</time>
      </trkpt>
      <trkpt lat="42.86162" lon="0.23994">
        <ele>2105.1</ele>
        <time>2022-02-09T13:24:55Z</time>
      </trkpt>
      <trkpt lat="42.86162" lon="0.23994">
        <ele>2105.1</ele>
        <time>2022-02-09T13:24:56Z</time>
      </trkpt>
      <trkpt lat="42.86162" lon="0.23994">
        <ele>2105.1</ele>
        <time>2022-02-09T13:24:57Z</time>
      </trkpt>
      <trkpt lat="42.86162" lon="0.23994">
        <ele>2105.1</ele>
        <time>2022-02-09T13:24:58Z</time>
      </trkpt>
      <trkpt lat="42.86162" lon="0.23994">
        <ele>2105.1</ele>
        <time>2022-02-09T13:24:59Z</time>
      </trkpt>
      <trkpt lat="42.86162" lon="0.23994">
        <ele>2105.1</ele>
        <time>2022-02-09T13:25:00Z</time>
      </trkpt>
      <trkpt lat="42.86162" lon="0.23994">
        <ele>2105.1</ele>
        <time>2022-02-09T13:25:01Z</time>
      </trkpt>
      <trkpt lat="42.86162" lon="0.23994">
        <ele>2105.1</ele>
        <time>2022-02-09T13:25:02Z</time>
      </trkpt>
      <trkpt lat="42.86162" lon="0.23994">
        <ele>2105.1</ele>
        <time>2022-02-09T13:25:03Z</time>
      </trkpt>
      <trkpt lat="42.86162" lon="0.23994">
        <ele>2105.1</ele>
        <time>2022-02-09T13:25:04Z</time>
      </trkpt>
      <trkpt lat="42.86162" lon="0.23994">
        <ele>2105.1</ele>
        <time>2022-02-09T13:25:05Z</time>
      </trkpt>
      <trkpt lat="42.86162" lon="0.23994">
        <ele>2105.1</ele>
        <time>2022-02-09T13:25:06Z</time>
      </trkpt>
      <trkpt lat="42.86162" lon="0.23994">
        <ele>2105.1</ele>
        <time>2022-02-09T13:25:07Z</time>
      </trkpt>
      <trkpt lat="42.86162" lon="0.23994">
        <ele>2105.1</ele>
        <time>2022-02-09T13:25:08Z</time>
      </trkpt>
      <trkpt lat="42.86162" lon="0.23994">
        <ele>2105.1</ele>
        <time>2022-02-09T13:25:09Z</time>
      </trkpt>
      <trkpt lat="42.86162" lon="0.23994">
        <ele>2105.2</ele>
        <time>2022-02-09T13:25:10Z</time>
      </trkpt>
      <trkpt lat="42.86162" lon="0.23994">
        <ele>2105.2</ele>
        <time>2022-02-09T13:25:11Z</time>
      </trkpt>
      <trkpt lat="42.86162" lon="0.23994">
        <ele>2105.2</ele>
        <time>2022-02-09T13:25:12Z</time>
      </trkpt>
      <trkpt lat="42.86162" lon="0.23994">
        <ele>2105.2</ele>
        <time>2022-02-09T13:25:13Z</time>
      </trkpt>
      <trkpt lat="42.86162" lon="0.23994">
        <ele>2105.2</ele>
        <time>2022-02-09T13:25:14Z</time>
      </trkpt>
      <trkpt lat="42.86162" lon="0.23994">
        <ele>2105.2</ele>
        <time>2022-02-09T13:25:15Z</time>
      </trkpt>
      <trkpt lat="42.86162" lon="0.23994">
        <ele>2105.2</ele>
        <time>2022-02-09T13:25:16Z</time>
      </trkpt>
      <trkpt lat="42.86162" lon="0.23994">
        <ele>2105.2</ele>
        <time>2022-02-09T13:25:17Z</time>
      </trkpt>
      <trkpt lat="42.86162" lon="0.23994">
        <ele>2105.2</ele>
        <time>2022-02-09T13:25:18Z</time>
      </trkpt>
      <trkpt lat="42.86162" lon="0.23994">
        <ele>2105.2</ele>
        <time>2022-02-09T13:25:19Z</time>
      </trkpt>
      <trkpt lat="42.86162" lon="0.23994">
        <ele>2105.2</ele>
        <time>2022-02-09T13:25:20Z</time>
      </trkpt>
      <trkpt lat="42.86162" lon="0.23994">
        <ele>2105.2</ele>
        <time>2022-02-09T13:25:21Z</time>
      </trkpt>
      <trkpt lat="42.86162" lon="0.23994">
        <ele>2105.2</ele>
        <time>2022-02-09T13:25:22Z</time>
      </trkpt>
      <trkpt lat="42.86162" lon="0.23994">
        <ele>2105.2</ele>
        <time>2022-02-09T13:25:23Z</time>
      </trkpt>
      <trkpt lat="42.86162" lon="0.23994">
        <ele>2105.2</ele>
        <time>2022-02-09T13:25:24Z</time>
      </trkpt>
      <trkpt lat="42.86162" lon="0.23994">
        <ele>2105.2</ele>
        <time>2022-02-09T13:25:25Z</time>
      </trkpt>
      <trkpt lat="42.86162" lon="0.23994">
        <ele>2105.2</ele>
        <time>2022-02-09T13:25:26Z</time>
      </trkpt>
      <trkpt lat="42.86162" lon="0.23994">
        <ele>2105.2</ele>
        <time>2022-02-09T13:25:27Z</time>
      </trkpt>
      <trkpt lat="42.86162" lon="0.23994">
        <ele>2105.3</ele>
        <time>2022-02-09T13:25:28Z</time>
      </trkpt>
      <trkpt lat="42.86162" lon="0.23994">
        <ele>2105.3</ele>
        <time>2022-02-09T13:25:29Z</time>
      </trkpt>
      <trkpt lat="42.86162" lon="0.23994">
        <ele>2105.3</ele>
        <time>2022-02-09T13:25:30Z</time>
      </trkpt>
      <trkpt lat="42.86162" lon="0.23994">
        <ele>2105.3</ele>
        <time>2022-02-09T13:25:31Z</time>
      </trkpt>
      <trkpt lat="42.86162" lon="0.23994">
        <ele>2105.3</ele>
        <time>2022-02-09T13:25:32Z</time>
      </trkpt>
      <trkpt lat="42.86162" lon="0.23994">
        <ele>2105.3</ele>
        <time>2022-02-09T13:25:33Z</time>
      </trkpt>
      <trkpt lat="42.86162" lon="0.23994">
        <ele>2105.3</ele>
        <time>2022-02-09T13:25:34Z</time>
      </trkpt>
      <trkpt lat="42.86162" lon="0.23994">
        <ele>2105.3</ele>
        <time>2022-02-09T13:25:35Z</time>
      </trkpt>
      <trkpt lat="42.86162" lon="0.23994">
        <ele>2105.3</ele>
        <time>2022-02-09T13:25:36Z</time>
      </trkpt>
      <trkpt lat="42.86162" lon="0.23994">
        <ele>2105.3</ele>
        <time>2022-02-09T13:25:37Z</time>
      </trkpt>
      <trkpt lat="42.86162" lon="0.23994">
        <ele>2105.3</ele>
        <time>2022-02-09T13:25:38Z</time>
      </trkpt>
      <trkpt lat="42.86162" lon="0.23994">
        <ele>2105.3</ele>
        <time>2022-02-09T13:25:39Z</time>
      </trkpt>
      <trkpt lat="42.86162" lon="0.23994">
        <ele>2105.3</ele>
        <time>2022-02-09T13:25:40Z</time>
      </trkpt>
      <trkpt lat="42.86162" lon="0.23994">
        <ele>2105.3</ele>
        <time>2022-02-09T13:25:41Z</time>
      </trkpt>
      <trkpt lat="42.86162" lon="0.23994">
        <ele>2105.3</ele>
        <time>2022-02-09T13:25:42Z</time>
      </trkpt>
      <trkpt lat="42.86162" lon="0.23994">
        <ele>2105.3</ele>
        <time>2022-02-09T13:25:43Z</time>
      </trkpt>
      <trkpt lat="42.86162" lon="0.23994">
        <ele>2105.3</ele>
        <time>2022-02-09T13:25:44Z</time>
      </trkpt>
      <trkpt lat="42.86162" lon="0.23994">
        <ele>2105.3</ele>
        <time>2022-02-09T13:25:45Z</time>
      </trkpt>
      <trkpt lat="42.86162" lon="0.23994">
        <ele>2105.3</ele>
        <time>2022-02-09T13:25:46Z</time>
      </trkpt>
      <trkpt lat="42.86162" lon="0.23994">
        <ele>2105.3</ele>
        <time>2022-02-09T13:25:47Z</time>
      </trkpt>
      <trkpt lat="42.86162" lon="0.23994">
        <ele>2105.4</ele>
        <time>2022-02-09T13:25:48Z</time>
      </trkpt>
      <trkpt lat="42.86162" lon="0.23994">
        <ele>2105.4</ele>
        <time>2022-02-09T13:25:49Z</time>
      </trkpt>
      <trkpt lat="42.86162" lon="0.23994">
        <ele>2105.4</ele>
        <time>2022-02-09T13:25:50Z</time>
      </trkpt>
      <trkpt lat="42.86162" lon="0.23994">
        <ele>2105.4</ele>
        <time>2022-02-09T13:25:51Z</time>
      </trkpt>
      <trkpt lat="42.86162" lon="0.23994">
        <ele>2105.4</ele>
        <time>2022-02-09T13:25:52Z</time>
      </trkpt>
      <trkpt lat="42.86162" lon="0.23994">
        <ele>2105.4</ele>
        <time>2022-02-09T13:25:53Z</time>
      </trkpt>
      <trkpt lat="42.86162" lon="0.23994">
        <ele>2105.4</ele>
        <time>2022-02-09T13:25:54Z</time>
      </trkpt>
      <trkpt lat="42.86162" lon="0.23994">
        <ele>2105.4</ele>
        <time>2022-02-09T13:25:55Z</time>
      </trkpt>
      <trkpt lat="42.86162" lon="0.23994">
        <ele>2105.4</ele>
        <time>2022-02-09T13:25:56Z</time>
      </trkpt>
      <trkpt lat="42.86162" lon="0.23994">
        <ele>2105.4</ele>
        <time>2022-02-09T13:25:57Z</time>
      </trkpt>
      <trkpt lat="42.86162" lon="0.23994">
        <ele>2105.4</ele>
        <time>2022-02-09T13:25:58Z</time>
      </trkpt>
      <trkpt lat="42.86162" lon="0.23994">
        <ele>2105.4</ele>
        <time>2022-02-09T13:25:59Z</time>
      </trkpt>
      <trkpt lat="42.86162" lon="0.23994">
        <ele>2105.4</ele>
        <time>2022-02-09T13:26:00Z</time>
      </trkpt>
      <trkpt lat="42.86162" lon="0.23994">
        <ele>2105.4</ele>
        <time>2022-02-09T13:26:01Z</time>
      </trkpt>
      <trkpt lat="42.86162" lon="0.23994">
        <ele>2105.4</ele>
        <time>2022-02-09T13:26:02Z</time>
      </trkpt>
      <trkpt lat="42.86162" lon="0.23994">
        <ele>2105.4</ele>
        <time>2022-02-09T13:26:03Z</time>
      </trkpt>
      <trkpt lat="42.86162" lon="0.23994">
        <ele>2105.4</ele>
        <time>2022-02-09T13:26:04Z</time>
      </trkpt>
      <trkpt lat="42.86162" lon="0.23994">
        <ele>2105.4</ele>
        <time>2022-02-09T13:26:05Z</time>
      </trkpt>
      <trkpt lat="42.86162" lon="0.23994">
        <ele>2105.4</ele>
        <time>2022-02-09T13:26:06Z</time>
      </trkpt>
      <trkpt lat="42.86162" lon="0.23994">
        <ele>2105.4</ele>
        <time>2022-02-09T13:26:07Z</time>
      </trkpt>
      <trkpt lat="42.86162" lon="0.23994">
        <ele>2105.4</ele>
        <time>2022-02-09T13:26:08Z</time>
      </trkpt>
      <trkpt lat="42.86162" lon="0.23994">
        <ele>2105.4</ele>
        <time>2022-02-09T13:26:09Z</time>
      </trkpt>
      <trkpt lat="42.86162" lon="0.23994">
        <ele>2105.4</ele>
        <time>2022-02-09T13:26:10Z</time>
      </trkpt>
      <trkpt lat="42.86162" lon="0.23994">
        <ele>2105.4</ele>
        <time>2022-02-09T13:26:11Z</time>
      </trkpt>
      <trkpt lat="42.86162" lon="0.23994">
        <ele>2105.4</ele>
        <time>2022-02-09T13:26:12Z</time>
      </trkpt>
      <trkpt lat="42.86162" lon="0.23994">
        <ele>2105.4</ele>
        <time>2022-02-09T13:26:13Z</time>
      </trkpt>
      <trkpt lat="42.86162" lon="0.23994">
        <ele>2105.4</ele>
        <time>2022-02-09T13:26:14Z</time>
      </trkpt>
      <trkpt lat="42.86162" lon="0.23996">
        <ele>2105.4</ele>
        <time>2022-02-09T13:26:15Z</time>
      </trkpt>
      <trkpt lat="42.86162" lon="0.23999">
        <ele>2105</ele>
        <time>2022-02-09T13:26:16Z</time>
      </trkpt>
      <trkpt lat="42.86163" lon="0.24">
        <ele>2105</ele>
        <time>2022-02-09T13:26:17Z</time>
      </trkpt>
      <trkpt lat="42.86163" lon="0.24002">
        <ele>2105</ele>
        <time>2022-02-09T13:26:18Z</time>
      </trkpt>
      <trkpt lat="42.86163" lon="0.24004">
        <ele>2104.6</ele>
        <time>2022-02-09T13:26:19Z</time>
      </trkpt>
      <trkpt lat="42.86164" lon="0.24007">
        <ele>2104.2</ele>
        <time>2022-02-09T13:26:20Z</time>
      </trkpt>
      <trkpt lat="42.86166" lon="0.2401">
        <ele>2104.8</ele>
        <time>2022-02-09T13:26:21Z</time>
      </trkpt>
      <trkpt lat="42.86167" lon="0.24014">
        <ele>2104.5</ele>
        <time>2022-02-09T13:26:22Z</time>
      </trkpt>
      <trkpt lat="42.86168" lon="0.24018">
        <ele>2104.2</ele>
        <time>2022-02-09T13:26:23Z</time>
      </trkpt>
      <trkpt lat="42.8617" lon="0.24021">
        <ele>2104.6</ele>
        <time>2022-02-09T13:26:24Z</time>
      </trkpt>
      <trkpt lat="42.86172" lon="0.24025">
        <ele>2105</ele>
        <time>2022-02-09T13:26:25Z</time>
      </trkpt>
      <trkpt lat="42.86173" lon="0.2403">
        <ele>2104.7</ele>
        <time>2022-02-09T13:26:26Z</time>
      </trkpt>
      <trkpt lat="42.86175" lon="0.24034">
        <ele>2105</ele>
        <time>2022-02-09T13:26:27Z</time>
      </trkpt>
      <trkpt lat="42.86176" lon="0.24039">
        <ele>2104.7</ele>
        <time>2022-02-09T13:26:28Z</time>
      </trkpt>
      <trkpt lat="42.86178" lon="0.24043">
        <ele>2104.4</ele>
        <time>2022-02-09T13:26:29Z</time>
      </trkpt>
      <trkpt lat="42.86179" lon="0.24047">
        <ele>2104.7</ele>
        <time>2022-02-09T13:26:30Z</time>
      </trkpt>
      <trkpt lat="42.8618" lon="0.24051">
        <ele>2104.3</ele>
        <time>2022-02-09T13:26:31Z</time>
      </trkpt>
      <trkpt lat="42.86181" lon="0.24054">
        <ele>2103.9</ele>
        <time>2022-02-09T13:26:32Z</time>
      </trkpt>
      <trkpt lat="42.86182" lon="0.24057">
        <ele>2104.6</ele>
        <time>2022-02-09T13:26:33Z</time>
      </trkpt>
      <trkpt lat="42.86183" lon="0.24061">
        <ele>2104.2</ele>
        <time>2022-02-09T13:26:34Z</time>
      </trkpt>
      <trkpt lat="42.86184" lon="0.24065">
        <ele>2103.7</ele>
        <time>2022-02-09T13:26:35Z</time>
      </trkpt>
      <trkpt lat="42.86186" lon="0.24069">
        <ele>2104</ele>
        <time>2022-02-09T13:26:36Z</time>
      </trkpt>
      <trkpt lat="42.86187" lon="0.24074">
        <ele>2104.3</ele>
        <time>2022-02-09T13:26:37Z</time>
      </trkpt>
      <trkpt lat="42.8619" lon="0.24078">
        <ele>2103.8</ele>
        <time>2022-02-09T13:26:38Z</time>
      </trkpt>
      <trkpt lat="42.86192" lon="0.24083">
        <ele>2104.2</ele>
        <time>2022-02-09T13:26:39Z</time>
      </trkpt>
      <trkpt lat="42.86193" lon="0.24087">
        <ele>2103.7</ele>
        <time>2022-02-09T13:26:40Z</time>
      </trkpt>
      <trkpt lat="42.86195" lon="0.24091">
        <ele>2104.1</ele>
        <time>2022-02-09T13:26:41Z</time>
      </trkpt>
      <trkpt lat="42.86197" lon="0.24095">
        <ele>2104.6</ele>
        <time>2022-02-09T13:26:42Z</time>
      </trkpt>
      <trkpt lat="42.86199" lon="0.24098">
        <ele>2104.2</ele>
        <time>2022-02-09T13:26:43Z</time>
      </trkpt>
      <trkpt lat="42.86201" lon="0.24102">
        <ele>2104.7</ele>
        <time>2022-02-09T13:26:44Z</time>
      </trkpt>
      <trkpt lat="42.86204" lon="0.24107">
        <ele>2105.3</ele>
        <time>2022-02-09T13:26:45Z</time>
      </trkpt>
      <trkpt lat="42.86207" lon="0.24114">
        <ele>2105.9</ele>
        <time>2022-02-09T13:26:46Z</time>
      </trkpt>
      <trkpt lat="42.86209" lon="0.24122">
        <ele>2105.3</ele>
        <time>2022-02-09T13:26:47Z</time>
      </trkpt>
      <trkpt lat="42.86211" lon="0.2413">
        <ele>2105.7</ele>
        <time>2022-02-09T13:26:48Z</time>
      </trkpt>
      <trkpt lat="42.86212" lon="0.24138">
        <ele>2105.2</ele>
        <time>2022-02-09T13:26:49Z</time>
      </trkpt>
      <trkpt lat="42.86213" lon="0.24145">
        <ele>2105.7</ele>
        <time>2022-02-09T13:26:50Z</time>
      </trkpt>
      <trkpt lat="42.86213" lon="0.24153">
        <ele>2105.5</ele>
        <time>2022-02-09T13:26:51Z</time>
      </trkpt>
      <trkpt lat="42.86214" lon="0.2416">
        <ele>2105.2</ele>
        <time>2022-02-09T13:26:52Z</time>
      </trkpt>
      <trkpt lat="42.86215" lon="0.24167">
        <ele>2105</ele>
        <time>2022-02-09T13:26:53Z</time>
      </trkpt>
      <trkpt lat="42.86215" lon="0.24173">
        <ele>2104.7</ele>
        <time>2022-02-09T13:26:54Z</time>
      </trkpt>
      <trkpt lat="42.86216" lon="0.24179">
        <ele>2105.6</ele>
        <time>2022-02-09T13:26:55Z</time>
      </trkpt>
      <trkpt lat="42.86216" lon="0.24186">
        <ele>2105.5</ele>
        <time>2022-02-09T13:26:56Z</time>
      </trkpt>
      <trkpt lat="42.86215" lon="0.24192">
        <ele>2104.2</ele>
        <time>2022-02-09T13:26:57Z</time>
      </trkpt>
      <trkpt lat="42.86215" lon="0.24198">
        <ele>2104.2</ele>
        <time>2022-02-09T13:26:58Z</time>
      </trkpt>
      <trkpt lat="42.86214" lon="0.24204">
        <ele>2104.1</ele>
        <time>2022-02-09T13:26:59Z</time>
      </trkpt>
      <trkpt lat="42.86213" lon="0.24209">
        <ele>2104.2</ele>
        <time>2022-02-09T13:27:00Z</time>
      </trkpt>
      <trkpt lat="42.86212" lon="0.24215">
        <ele>2103.1</ele>
        <time>2022-02-09T13:27:01Z</time>
      </trkpt>
      <trkpt lat="42.86211" lon="0.24221">
        <ele>2103.2</ele>
        <time>2022-02-09T13:27:02Z</time>
      </trkpt>
      <trkpt lat="42.8621" lon="0.24227">
        <ele>2103.5</ele>
        <time>2022-02-09T13:27:03Z</time>
      </trkpt>
      <trkpt lat="42.86208" lon="0.24234">
        <ele>2102.4</ele>
        <time>2022-02-09T13:27:04Z</time>
      </trkpt>
      <trkpt lat="42.86207" lon="0.2424">
        <ele>2102.7</ele>
        <time>2022-02-09T13:27:05Z</time>
      </trkpt>
      <trkpt lat="42.86205" lon="0.24247">
        <ele>2101.5</ele>
        <time>2022-02-09T13:27:06Z</time>
      </trkpt>
      <trkpt lat="42.86203" lon="0.24253">
        <ele>2100.4</ele>
        <time>2022-02-09T13:27:07Z</time>
      </trkpt>
      <trkpt lat="42.86201" lon="0.24258">
        <ele>2100.5</ele>
        <time>2022-02-09T13:27:08Z</time>
      </trkpt>
      <trkpt lat="42.86199" lon="0.24263">
        <ele>2099.2</ele>
        <time>2022-02-09T13:27:09Z</time>
      </trkpt>
      <trkpt lat="42.86197" lon="0.24268">
        <ele>2097.8</ele>
        <time>2022-02-09T13:27:10Z</time>
      </trkpt>
      <trkpt lat="42.86195" lon="0.24272">
        <ele>2098</ele>
        <time>2022-02-09T13:27:11Z</time>
      </trkpt>
      <trkpt lat="42.86193" lon="0.24277">
        <ele>2096.7</ele>
        <time>2022-02-09T13:27:12Z</time>
      </trkpt>
      <trkpt lat="42.86191" lon="0.24281">
        <ele>2096.8</ele>
        <time>2022-02-09T13:27:13Z</time>
      </trkpt>
      <trkpt lat="42.8619" lon="0.24285">
        <ele>2095.6</ele>
        <time>2022-02-09T13:27:14Z</time>
      </trkpt>
      <trkpt lat="42.86188" lon="0.24289">
        <ele>2095.8</ele>
        <time>2022-02-09T13:27:15Z</time>
      </trkpt>
      <trkpt lat="42.86187" lon="0.24294">
        <ele>2094.7</ele>
        <time>2022-02-09T13:27:16Z</time>
      </trkpt>
      <trkpt lat="42.86185" lon="0.24298">
        <ele>2095</ele>
        <time>2022-02-09T13:27:17Z</time>
      </trkpt>
      <trkpt lat="42.86184" lon="0.24303">
        <ele>2094</ele>
        <time>2022-02-09T13:27:18Z</time>
      </trkpt>
      <trkpt lat="42.86182" lon="0.24307">
        <ele>2094.3</ele>
        <time>2022-02-09T13:27:19Z</time>
      </trkpt>
      <trkpt lat="42.86181" lon="0.24311">
        <ele>2093.4</ele>
        <time>2022-02-09T13:27:20Z</time>
      </trkpt>
      <trkpt lat="42.86179" lon="0.24315">
        <ele>2093.7</ele>
        <time>2022-02-09T13:27:21Z</time>
      </trkpt>
      <trkpt lat="42.86177" lon="0.24318">
        <ele>2092.7</ele>
        <time>2022-02-09T13:27:22Z</time>
      </trkpt>
      <trkpt lat="42.86176" lon="0.24322">
        <ele>2093.1</ele>
        <time>2022-02-09T13:27:23Z</time>
      </trkpt>
      <trkpt lat="42.86174" lon="0.24325">
        <ele>2092</ele>
        <time>2022-02-09T13:27:24Z</time>
      </trkpt>
      <trkpt lat="42.86172" lon="0.24328">
        <ele>2092</ele>
        <time>2022-02-09T13:27:25Z</time>
      </trkpt>
      <trkpt lat="42.86171" lon="0.24331">
        <ele>2090.9</ele>
        <time>2022-02-09T13:27:26Z</time>
      </trkpt>
      <trkpt lat="42.8617" lon="0.24334">
        <ele>2091.3</ele>
        <time>2022-02-09T13:27:27Z</time>
      </trkpt>
      <trkpt lat="42.86169" lon="0.24337">
        <ele>2091.3</ele>
        <time>2022-02-09T13:27:28Z</time>
      </trkpt>
      <trkpt lat="42.86168" lon="0.24341">
        <ele>2090.1</ele>
        <time>2022-02-09T13:27:29Z</time>
      </trkpt>
      <trkpt lat="42.86167" lon="0.24344">
        <ele>2090.5</ele>
        <time>2022-02-09T13:27:30Z</time>
      </trkpt>
      <trkpt lat="42.86166" lon="0.24347">
        <ele>2091</ele>
        <time>2022-02-09T13:27:31Z</time>
      </trkpt>
      <trkpt lat="42.86164" lon="0.2435">
        <ele>2089.3</ele>
        <time>2022-02-09T13:27:32Z</time>
      </trkpt>
      <trkpt lat="42.86163" lon="0.24353">
        <ele>2089.8</ele>
        <time>2022-02-09T13:27:33Z</time>
      </trkpt>
      <trkpt lat="42.86163" lon="0.24355">
        <ele>2090.4</ele>
        <time>2022-02-09T13:27:34Z</time>
      </trkpt>
      <trkpt lat="42.86162" lon="0.24357">
        <ele>2088.7</ele>
        <time>2022-02-09T13:27:35Z</time>
      </trkpt>
      <trkpt lat="42.8616" lon="0.24359">
        <ele>2089.3</ele>
        <time>2022-02-09T13:27:36Z</time>
      </trkpt>
      <trkpt lat="42.86159" lon="0.24362">
        <ele>2089.3</ele>
        <time>2022-02-09T13:27:37Z</time>
      </trkpt>
      <trkpt lat="42.86158" lon="0.24364">
        <ele>2088.3</ele>
        <time>2022-02-09T13:27:38Z</time>
      </trkpt>
      <trkpt lat="42.86157" lon="0.24366">
        <ele>2088.3</ele>
        <time>2022-02-09T13:27:39Z</time>
      </trkpt>
      <trkpt lat="42.86156" lon="0.24368">
        <ele>2087.3</ele>
        <time>2022-02-09T13:27:40Z</time>
      </trkpt>
      <trkpt lat="42.86155" lon="0.2437">
        <ele>2087.4</ele>
        <time>2022-02-09T13:27:41Z</time>
      </trkpt>
      <trkpt lat="42.86154" lon="0.24372">
        <ele>2087.9</ele>
        <time>2022-02-09T13:27:42Z</time>
      </trkpt>
      <trkpt lat="42.86154" lon="0.24374">
        <ele>2087.9</ele>
        <time>2022-02-09T13:27:43Z</time>
      </trkpt>
      <trkpt lat="42.86153" lon="0.24376">
        <ele>2087</ele>
        <time>2022-02-09T13:27:44Z</time>
      </trkpt>
      <trkpt lat="42.86152" lon="0.24378">
        <ele>2087</ele>
        <time>2022-02-09T13:27:45Z</time>
      </trkpt>
      <trkpt lat="42.86151" lon="0.24381">
        <ele>2087.5</ele>
        <time>2022-02-09T13:27:46Z</time>
      </trkpt>
      <trkpt lat="42.86151" lon="0.24382">
        <ele>2087.5</ele>
        <time>2022-02-09T13:27:47Z</time>
      </trkpt>
      <trkpt lat="42.8615" lon="0.24384">
        <ele>2087.5</ele>
        <time>2022-02-09T13:27:48Z</time>
      </trkpt>
      <trkpt lat="42.8615" lon="0.24384">
        <ele>2087.5</ele>
        <time>2022-02-09T13:27:49Z</time>
      </trkpt>
      <trkpt lat="42.8615" lon="0.24385">
        <ele>2088.1</ele>
        <time>2022-02-09T13:27:50Z</time>
      </trkpt>
      <trkpt lat="42.8615" lon="0.24385">
        <ele>2088.1</ele>
        <time>2022-02-09T13:27:51Z</time>
      </trkpt>
      <trkpt lat="42.8615" lon="0.24385">
        <ele>2088.1</ele>
        <time>2022-02-09T13:27:52Z</time>
      </trkpt>
      <trkpt lat="42.8615" lon="0.24385">
        <ele>2088.1</ele>
        <time>2022-02-09T13:27:53Z</time>
      </trkpt>
      <trkpt lat="42.8615" lon="0.24385">
        <ele>2088.1</ele>
        <time>2022-02-09T13:27:54Z</time>
      </trkpt>
      <trkpt lat="42.8615" lon="0.24385">
        <ele>2088.1</ele>
        <time>2022-02-09T13:27:55Z</time>
      </trkpt>
      <trkpt lat="42.8615" lon="0.24385">
        <ele>2088.1</ele>
        <time>2022-02-09T13:27:56Z</time>
      </trkpt>
      <trkpt lat="42.8615" lon="0.24385">
        <ele>2088.1</ele>
        <time>2022-02-09T13:27:57Z</time>
      </trkpt>
      <trkpt lat="42.8615" lon="0.24385">
        <ele>2088.1</ele>
        <time>2022-02-09T13:27:58Z</time>
      </trkpt>
      <trkpt lat="42.8615" lon="0.24385">
        <ele>2088.1</ele>
        <time>2022-02-09T13:27:59Z</time>
      </trkpt>
      <trkpt lat="42.8615" lon="0.24385">
        <ele>2088.1</ele>
        <time>2022-02-09T13:28:00Z</time>
      </trkpt>
      <trkpt lat="42.8615" lon="0.24385">
        <ele>2088.1</ele>
        <time>2022-02-09T13:28:01Z</time>
      </trkpt>
      <trkpt lat="42.8615" lon="0.24385">
        <ele>2088.1</ele>
        <time>2022-02-09T13:28:02Z</time>
      </trkpt>
      <trkpt lat="42.8615" lon="0.24385">
        <ele>2088.1</ele>
        <time>2022-02-09T13:28:03Z</time>
      </trkpt>
      <trkpt lat="42.8615" lon="0.24385">
        <ele>2088.1</ele>
        <time>2022-02-09T13:28:04Z</time>
      </trkpt>
      <trkpt lat="42.8615" lon="0.24385">
        <ele>2088.1</ele>
        <time>2022-02-09T13:28:05Z</time>
      </trkpt>
      <trkpt lat="42.8615" lon="0.24385">
        <ele>2088.1</ele>
        <time>2022-02-09T13:28:06Z</time>
      </trkpt>
      <trkpt lat="42.8615" lon="0.24385">
        <ele>2088.1</ele>
        <time>2022-02-09T13:28:07Z</time>
      </trkpt>
      <trkpt lat="42.8615" lon="0.24385">
        <ele>2088.1</ele>
        <time>2022-02-09T13:28:08Z</time>
      </trkpt>
      <trkpt lat="42.8615" lon="0.24385">
        <ele>2088.1</ele>
        <time>2022-02-09T13:28:09Z</time>
      </trkpt>
      <trkpt lat="42.8615" lon="0.24385">
        <ele>2088.1</ele>
        <time>2022-02-09T13:28:10Z</time>
      </trkpt>
      <trkpt lat="42.8615" lon="0.24385">
        <ele>2088.1</ele>
        <time>2022-02-09T13:28:11Z</time>
      </trkpt>
      <trkpt lat="42.8615" lon="0.24385">
        <ele>2088.1</ele>
        <time>2022-02-09T13:28:12Z</time>
      </trkpt>
      <trkpt lat="42.8615" lon="0.24385">
        <ele>2088.1</ele>
        <time>2022-02-09T13:28:13Z</time>
      </trkpt>
      <trkpt lat="42.8615" lon="0.24385">
        <ele>2088.1</ele>
        <time>2022-02-09T13:28:14Z</time>
      </trkpt>
      <trkpt lat="42.8615" lon="0.24385">
        <ele>2088.1</ele>
        <time>2022-02-09T13:28:15Z</time>
      </trkpt>
      <trkpt lat="42.8615" lon="0.24385">
        <ele>2088.1</ele>
        <time>2022-02-09T13:28:16Z</time>
      </trkpt>
      <trkpt lat="42.8615" lon="0.24385">
        <ele>2088.1</ele>
        <time>2022-02-09T13:28:17Z</time>
      </trkpt>
      <trkpt lat="42.8615" lon="0.24385">
        <ele>2088.1</ele>
        <time>2022-02-09T13:28:18Z</time>
      </trkpt>
      <trkpt lat="42.8615" lon="0.24385">
        <ele>2088.1</ele>
        <time>2022-02-09T13:28:19Z</time>
      </trkpt>
      <trkpt lat="42.8615" lon="0.24385">
        <ele>2088.1</ele>
        <time>2022-02-09T13:28:20Z</time>
      </trkpt>
      <trkpt lat="42.8615" lon="0.24385">
        <ele>2088.1</ele>
        <time>2022-02-09T13:28:21Z</time>
      </trkpt>
      <trkpt lat="42.8615" lon="0.24385">
        <ele>2088.1</ele>
        <time>2022-02-09T13:28:22Z</time>
      </trkpt>
      <trkpt lat="42.8615" lon="0.24385">
        <ele>2088.1</ele>
        <time>2022-02-09T13:28:23Z</time>
      </trkpt>
      <trkpt lat="42.8615" lon="0.24385">
        <ele>2088.1</ele>
        <time>2022-02-09T13:28:24Z</time>
      </trkpt>
      <trkpt lat="42.8615" lon="0.24385">
        <ele>2088.1</ele>
        <time>2022-02-09T13:28:25Z</time>
      </trkpt>
      <trkpt lat="42.8615" lon="0.24385">
        <ele>2088.1</ele>
        <time>2022-02-09T13:28:26Z</time>
      </trkpt>
      <trkpt lat="42.8615" lon="0.24385">
        <ele>2088.1</ele>
        <time>2022-02-09T13:28:27Z</time>
      </trkpt>
      <trkpt lat="42.8615" lon="0.24385">
        <ele>2088.1</ele>
        <time>2022-02-09T13:28:28Z</time>
      </trkpt>
      <trkpt lat="42.8615" lon="0.24385">
        <ele>2088.1</ele>
        <time>2022-02-09T13:28:29Z</time>
      </trkpt>
      <trkpt lat="42.8615" lon="0.24385">
        <ele>2088.1</ele>
        <time>2022-02-09T13:28:30Z</time>
      </trkpt>
      <trkpt lat="42.8615" lon="0.24385">
        <ele>2088.1</ele>
        <time>2022-02-09T13:28:31Z</time>
      </trkpt>
      <trkpt lat="42.8615" lon="0.24385">
        <ele>2088.1</ele>
        <time>2022-02-09T13:28:32Z</time>
      </trkpt>
      <trkpt lat="42.8615" lon="0.24385">
        <ele>2088.1</ele>
        <time>2022-02-09T13:28:33Z</time>
      </trkpt>
      <trkpt lat="42.8615" lon="0.24385">
        <ele>2088.1</ele>
        <time>2022-02-09T13:28:34Z</time>
      </trkpt>
      <trkpt lat="42.8615" lon="0.24385">
        <ele>2088.1</ele>
        <time>2022-02-09T13:28:35Z</time>
      </trkpt>
      <trkpt lat="42.8615" lon="0.24385">
        <ele>2088.1</ele>
        <time>2022-02-09T13:28:36Z</time>
      </trkpt>
      <trkpt lat="42.8615" lon="0.24385">
        <ele>2088.1</ele>
        <time>2022-02-09T13:28:37Z</time>
      </trkpt>
      <trkpt lat="42.8615" lon="0.24385">
        <ele>2088.1</ele>
        <time>2022-02-09T13:28:38Z</time>
      </trkpt>
      <trkpt lat="42.8615" lon="0.24385">
        <ele>2088.1</ele>
        <time>2022-02-09T13:28:39Z</time>
      </trkpt>
      <trkpt lat="42.8615" lon="0.24385">
        <ele>2088.1</ele>
        <time>2022-02-09T13:28:40Z</time>
      </trkpt>
      <trkpt lat="42.8615" lon="0.24385">
        <ele>2088.1</ele>
        <time>2022-02-09T13:28:41Z</time>
      </trkpt>
      <trkpt lat="42.8615" lon="0.24385">
        <ele>2088.1</ele>
        <time>2022-02-09T13:28:42Z</time>
      </trkpt>
      <trkpt lat="42.8615" lon="0.24385">
        <ele>2088.1</ele>
        <time>2022-02-09T13:28:43Z</time>
      </trkpt>
      <trkpt lat="42.8615" lon="0.24385">
        <ele>2088.1</ele>
        <time>2022-02-09T13:28:44Z</time>
      </trkpt>
      <trkpt lat="42.8615" lon="0.24385">
        <ele>2088.1</ele>
        <time>2022-02-09T13:28:45Z</time>
      </trkpt>
      <trkpt lat="42.8615" lon="0.24385">
        <ele>2088.1</ele>
        <time>2022-02-09T13:28:46Z</time>
      </trkpt>
      <trkpt lat="42.8615" lon="0.24385">
        <ele>2088.1</ele>
        <time>2022-02-09T13:28:47Z</time>
      </trkpt>
      <trkpt lat="42.8615" lon="0.24385">
        <ele>2088.1</ele>
        <time>2022-02-09T13:28:48Z</time>
      </trkpt>
      <trkpt lat="42.8615" lon="0.24385">
        <ele>2088.1</ele>
        <time>2022-02-09T13:28:49Z</time>
      </trkpt>
      <trkpt lat="42.8615" lon="0.24385">
        <ele>2088.1</ele>
        <time>2022-02-09T13:28:50Z</time>
      </trkpt>
      <trkpt lat="42.8615" lon="0.24385">
        <ele>2088.1</ele>
        <time>2022-02-09T13:28:51Z</time>
      </trkpt>
      <trkpt lat="42.8615" lon="0.24385">
        <ele>2088.1</ele>
        <time>2022-02-09T13:28:52Z</time>
      </trkpt>
      <trkpt lat="42.8615" lon="0.24385">
        <ele>2088.1</ele>
        <time>2022-02-09T13:28:53Z</time>
      </trkpt>
      <trkpt lat="42.8615" lon="0.24385">
        <ele>2088.1</ele>
        <time>2022-02-09T13:28:54Z</time>
      </trkpt>
      <trkpt lat="42.86149" lon="0.24386">
        <ele>2086.7</ele>
        <time>2022-02-09T13:28:55Z</time>
      </trkpt>
      <trkpt lat="42.86148" lon="0.24388">
        <ele>2086.7</ele>
        <time>2022-02-09T13:28:56Z</time>
      </trkpt>
      <trkpt lat="42.86146" lon="0.24391">
        <ele>2085.7</ele>
        <time>2022-02-09T13:28:57Z</time>
      </trkpt>
      <trkpt lat="42.86144" lon="0.24393">
        <ele>2085.7</ele>
        <time>2022-02-09T13:28:58Z</time>
      </trkpt>
      <trkpt lat="42.86141" lon="0.24392">
        <ele>2084.1</ele>
        <time>2022-02-09T13:28:59Z</time>
      </trkpt>
      <trkpt lat="42.86139" lon="0.24389">
        <ele>2082.4</ele>
        <time>2022-02-09T13:29:00Z</time>
      </trkpt>
      <trkpt lat="42.86138" lon="0.24385">
        <ele>2081.9</ele>
        <time>2022-02-09T13:29:01Z</time>
      </trkpt>
      <trkpt lat="42.86136" lon="0.24384">
        <ele>2079.6</ele>
        <time>2022-02-09T13:29:02Z</time>
      </trkpt>
      <trkpt lat="42.86133" lon="0.24387">
        <ele>2078.4</ele>
        <time>2022-02-09T13:29:03Z</time>
      </trkpt>
      <trkpt lat="42.8613" lon="0.2439">
        <ele>2077.2</ele>
        <time>2022-02-09T13:29:04Z</time>
      </trkpt>
      <trkpt lat="42.86127" lon="0.24392">
        <ele>2075.8</ele>
        <time>2022-02-09T13:29:05Z</time>
      </trkpt>
      <trkpt lat="42.86125" lon="0.24389">
        <ele>2075.8</ele>
        <time>2022-02-09T13:29:06Z</time>
      </trkpt>
      <trkpt lat="42.86124" lon="0.24385">
        <ele>2074.1</ele>
        <time>2022-02-09T13:29:07Z</time>
      </trkpt>
      <trkpt lat="42.86124" lon="0.2438">
        <ele>2073.5</ele>
        <time>2022-02-09T13:29:08Z</time>
      </trkpt>
      <trkpt lat="42.86123" lon="0.24376">
        <ele>2073.3</ele>
        <time>2022-02-09T13:29:09Z</time>
      </trkpt>
      <trkpt lat="42.8612" lon="0.24374">
        <ele>2072</ele>
        <time>2022-02-09T13:29:10Z</time>
      </trkpt>
      <trkpt lat="42.86116" lon="0.24377">
        <ele>2070.8</ele>
        <time>2022-02-09T13:29:11Z</time>
      </trkpt>
      <trkpt lat="42.86112" lon="0.2438">
        <ele>2069.4</ele>
        <time>2022-02-09T13:29:12Z</time>
      </trkpt>
      <trkpt lat="42.86109" lon="0.24381">
        <ele>2065.9</ele>
        <time>2022-02-09T13:29:13Z</time>
      </trkpt>
      <trkpt lat="42.86106" lon="0.24377">
        <ele>2065.8</ele>
        <time>2022-02-09T13:29:14Z</time>
      </trkpt>
      <trkpt lat="42.86105" lon="0.24372">
        <ele>2064.2</ele>
        <time>2022-02-09T13:29:15Z</time>
      </trkpt>
      <trkpt lat="42.86102" lon="0.24368">
        <ele>2062.7</ele>
        <time>2022-02-09T13:29:16Z</time>
      </trkpt>
      <trkpt lat="42.86098" lon="0.24369">
        <ele>2061.3</ele>
        <time>2022-02-09T13:29:17Z</time>
      </trkpt>
      <trkpt lat="42.86094" lon="0.24374">
        <ele>2059.8</ele>
        <time>2022-02-09T13:29:18Z</time>
      </trkpt>
      <trkpt lat="42.86091" lon="0.2438">
        <ele>2058.1</ele>
        <time>2022-02-09T13:29:19Z</time>
      </trkpt>
      <trkpt lat="42.86088" lon="0.24384">
        <ele>2056.1</ele>
        <time>2022-02-09T13:29:20Z</time>
      </trkpt>
      <trkpt lat="42.86084" lon="0.24384">
        <ele>2054.2</ele>
        <time>2022-02-09T13:29:21Z</time>
      </trkpt>
      <trkpt lat="42.86082" lon="0.2438">
        <ele>2052.3</ele>
        <time>2022-02-09T13:29:22Z</time>
      </trkpt>
      <trkpt lat="42.86081" lon="0.24375">
        <ele>2052.4</ele>
        <time>2022-02-09T13:29:23Z</time>
      </trkpt>
      <trkpt lat="42.86079" lon="0.24373">
        <ele>2050.5</ele>
        <time>2022-02-09T13:29:24Z</time>
      </trkpt>
      <trkpt lat="42.86076" lon="0.24376">
        <ele>2048.7</ele>
        <time>2022-02-09T13:29:25Z</time>
      </trkpt>
      <trkpt lat="42.86072" lon="0.2438">
        <ele>2046.8</ele>
        <time>2022-02-09T13:29:26Z</time>
      </trkpt>
      <trkpt lat="42.86069" lon="0.24384">
        <ele>2045</ele>
        <time>2022-02-09T13:29:27Z</time>
      </trkpt>
      <trkpt lat="42.86065" lon="0.24386">
        <ele>2043.2</ele>
        <time>2022-02-09T13:29:28Z</time>
      </trkpt>
      <trkpt lat="42.86062" lon="0.24383">
        <ele>2041.5</ele>
        <time>2022-02-09T13:29:29Z</time>
      </trkpt>
      <trkpt lat="42.86061" lon="0.24377">
        <ele>2039.8</ele>
        <time>2022-02-09T13:29:30Z</time>
      </trkpt>
      <trkpt lat="42.8606" lon="0.2437">
        <ele>2040.3</ele>
        <time>2022-02-09T13:29:31Z</time>
      </trkpt>
      <trkpt lat="42.8606" lon="0.24365">
        <ele>2040.6</ele>
        <time>2022-02-09T13:29:32Z</time>
      </trkpt>
      <trkpt lat="42.86059" lon="0.24361">
        <ele>2041</ele>
        <time>2022-02-09T13:29:33Z</time>
      </trkpt>
      <trkpt lat="42.86055" lon="0.2436">
        <ele>2037.4</ele>
        <time>2022-02-09T13:29:34Z</time>
      </trkpt>
      <trkpt lat="42.86051" lon="0.24364">
        <ele>2035.3</ele>
        <time>2022-02-09T13:29:35Z</time>
      </trkpt>
      <trkpt lat="42.86047" lon="0.24369">
        <ele>2033.2</ele>
        <time>2022-02-09T13:29:36Z</time>
      </trkpt>
      <trkpt lat="42.86044" lon="0.24374">
        <ele>2031.3</ele>
        <time>2022-02-09T13:29:37Z</time>
      </trkpt>
      <trkpt lat="42.86041" lon="0.24379">
        <ele>2029.4</ele>
        <time>2022-02-09T13:29:38Z</time>
      </trkpt>
      <trkpt lat="42.86038" lon="0.24381">
        <ele>2027.6</ele>
        <time>2022-02-09T13:29:39Z</time>
      </trkpt>
      <trkpt lat="42.86035" lon="0.2438">
        <ele>2026.1</ele>
        <time>2022-02-09T13:29:40Z</time>
      </trkpt>
      <trkpt lat="42.86032" lon="0.24374">
        <ele>2024.5</ele>
        <time>2022-02-09T13:29:41Z</time>
      </trkpt>
      <trkpt lat="42.86031" lon="0.24367">
        <ele>2025.1</ele>
        <time>2022-02-09T13:29:42Z</time>
      </trkpt>
      <trkpt lat="42.86032" lon="0.2436">
        <ele>2025.4</ele>
        <time>2022-02-09T13:29:43Z</time>
      </trkpt>
      <trkpt lat="42.86032" lon="0.24354">
        <ele>2026.3</ele>
        <time>2022-02-09T13:29:44Z</time>
      </trkpt>
      <trkpt lat="42.8603" lon="0.24351">
        <ele>2024.6</ele>
        <time>2022-02-09T13:29:45Z</time>
      </trkpt>
      <trkpt lat="42.86025" lon="0.24352">
        <ele>2022.8</ele>
        <time>2022-02-09T13:29:46Z</time>
      </trkpt>
      <trkpt lat="42.8602" lon="0.24356">
        <ele>2018.7</ele>
        <time>2022-02-09T13:29:47Z</time>
      </trkpt>
      <trkpt lat="42.86017" lon="0.24361">
        <ele>2016.6</ele>
        <time>2022-02-09T13:29:48Z</time>
      </trkpt>
      <trkpt lat="42.86014" lon="0.24366">
        <ele>2014.7</ele>
        <time>2022-02-09T13:29:49Z</time>
      </trkpt>
      <trkpt lat="42.8601" lon="0.24372">
        <ele>2012.7</ele>
        <time>2022-02-09T13:29:50Z</time>
      </trkpt>
      <trkpt lat="42.86007" lon="0.24379">
        <ele>2011</ele>
        <time>2022-02-09T13:29:51Z</time>
      </trkpt>
      <trkpt lat="42.86004" lon="0.24384">
        <ele>2009.4</ele>
        <time>2022-02-09T13:29:52Z</time>
      </trkpt>
      <trkpt lat="42.86" lon="0.24386">
        <ele>2007.7</ele>
        <time>2022-02-09T13:29:53Z</time>
      </trkpt>
      <trkpt lat="42.85998" lon="0.24386">
        <ele>2006</ele>
        <time>2022-02-09T13:29:54Z</time>
      </trkpt>
      <trkpt lat="42.85997" lon="0.24384">
        <ele>2006.1</ele>
        <time>2022-02-09T13:29:55Z</time>
      </trkpt>
      <trkpt lat="42.85997" lon="0.24383">
        <ele>2006.1</ele>
        <time>2022-02-09T13:29:56Z</time>
      </trkpt>
      <trkpt lat="42.85997" lon="0.24383">
        <ele>2006.1</ele>
        <time>2022-02-09T13:29:57Z</time>
      </trkpt>
      <trkpt lat="42.85997" lon="0.24383">
        <ele>2006.1</ele>
        <time>2022-02-09T13:29:58Z</time>
      </trkpt>
      <trkpt lat="42.85997" lon="0.24383">
        <ele>2006.1</ele>
        <time>2022-02-09T13:29:59Z</time>
      </trkpt>
      <trkpt lat="42.85997" lon="0.24383">
        <ele>2006.1</ele>
        <time>2022-02-09T13:30:00Z</time>
      </trkpt>
      <trkpt lat="42.85997" lon="0.24383">
        <ele>2006.1</ele>
        <time>2022-02-09T13:30:01Z</time>
      </trkpt>
      <trkpt lat="42.85997" lon="0.24383">
        <ele>2006.1</ele>
        <time>2022-02-09T13:30:02Z</time>
      </trkpt>
      <trkpt lat="42.85997" lon="0.24383">
        <ele>2006.1</ele>
        <time>2022-02-09T13:30:03Z</time>
      </trkpt>
      <trkpt lat="42.85997" lon="0.24383">
        <ele>2006.1</ele>
        <time>2022-02-09T13:30:04Z</time>
      </trkpt>
      <trkpt lat="42.85997" lon="0.24383">
        <ele>2006.1</ele>
        <time>2022-02-09T13:30:05Z</time>
      </trkpt>
      <trkpt lat="42.85997" lon="0.24383">
        <ele>2006.2</ele>
        <time>2022-02-09T13:30:06Z</time>
      </trkpt>
      <trkpt lat="42.85997" lon="0.24383">
        <ele>2006.2</ele>
        <time>2022-02-09T13:30:07Z</time>
      </trkpt>
      <trkpt lat="42.85997" lon="0.24383">
        <ele>2006.2</ele>
        <time>2022-02-09T13:30:08Z</time>
      </trkpt>
      <trkpt lat="42.85997" lon="0.24383">
        <ele>2006.2</ele>
        <time>2022-02-09T13:30:09Z</time>
      </trkpt>
      <trkpt lat="42.85997" lon="0.24383">
        <ele>2006.2</ele>
        <time>2022-02-09T13:30:10Z</time>
      </trkpt>
      <trkpt lat="42.85997" lon="0.24383">
        <ele>2006.2</ele>
        <time>2022-02-09T13:30:11Z</time>
      </trkpt>
      <trkpt lat="42.85997" lon="0.24383">
        <ele>2006.2</ele>
        <time>2022-02-09T13:30:12Z</time>
      </trkpt>
      <trkpt lat="42.85997" lon="0.24383">
        <ele>2006.2</ele>
        <time>2022-02-09T13:30:13Z</time>
      </trkpt>
      <trkpt lat="42.85997" lon="0.24383">
        <ele>2006.2</ele>
        <time>2022-02-09T13:30:14Z</time>
      </trkpt>
      <trkpt lat="42.85997" lon="0.24383">
        <ele>2006.2</ele>
        <time>2022-02-09T13:30:15Z</time>
      </trkpt>
      <trkpt lat="42.85997" lon="0.24383">
        <ele>2006.2</ele>
        <time>2022-02-09T13:30:16Z</time>
      </trkpt>
      <trkpt lat="42.85997" lon="0.24383">
        <ele>2006.2</ele>
        <time>2022-02-09T13:30:17Z</time>
      </trkpt>
      <trkpt lat="42.85997" lon="0.24383">
        <ele>2006.2</ele>
        <time>2022-02-09T13:30:18Z</time>
      </trkpt>
      <trkpt lat="42.85997" lon="0.24383">
        <ele>2006.2</ele>
        <time>2022-02-09T13:30:19Z</time>
      </trkpt>
      <trkpt lat="42.85997" lon="0.24383">
        <ele>2006.2</ele>
        <time>2022-02-09T13:30:20Z</time>
      </trkpt>
      <trkpt lat="42.85997" lon="0.24383">
        <ele>2006.2</ele>
        <time>2022-02-09T13:30:21Z</time>
      </trkpt>
      <trkpt lat="42.85997" lon="0.24383">
        <ele>2006.2</ele>
        <time>2022-02-09T13:30:22Z</time>
      </trkpt>
      <trkpt lat="42.85997" lon="0.24383">
        <ele>2006.2</ele>
        <time>2022-02-09T13:30:23Z</time>
      </trkpt>
      <trkpt lat="42.85997" lon="0.24383">
        <ele>2006.2</ele>
        <time>2022-02-09T13:30:24Z</time>
      </trkpt>
      <trkpt lat="42.85997" lon="0.24383">
        <ele>2006.2</ele>
        <time>2022-02-09T13:30:25Z</time>
      </trkpt>
      <trkpt lat="42.85997" lon="0.24383">
        <ele>2006.2</ele>
        <time>2022-02-09T13:30:26Z</time>
      </trkpt>
      <trkpt lat="42.85997" lon="0.24383">
        <ele>2006.2</ele>
        <time>2022-02-09T13:30:27Z</time>
      </trkpt>
      <trkpt lat="42.85997" lon="0.24383">
        <ele>2006.2</ele>
        <time>2022-02-09T13:30:28Z</time>
      </trkpt>
      <trkpt lat="42.85997" lon="0.24383">
        <ele>2006.2</ele>
        <time>2022-02-09T13:30:29Z</time>
      </trkpt>
      <trkpt lat="42.85997" lon="0.24383">
        <ele>2006.2</ele>
        <time>2022-02-09T13:30:30Z</time>
      </trkpt>
      <trkpt lat="42.85997" lon="0.24383">
        <ele>2006.2</ele>
        <time>2022-02-09T13:30:31Z</time>
      </trkpt>
      <trkpt lat="42.85997" lon="0.24383">
        <ele>2006.2</ele>
        <time>2022-02-09T13:30:32Z</time>
      </trkpt>
      <trkpt lat="42.85997" lon="0.24383">
        <ele>2006.2</ele>
        <time>2022-02-09T13:30:33Z</time>
      </trkpt>
      <trkpt lat="42.85997" lon="0.24383">
        <ele>2006.2</ele>
        <time>2022-02-09T13:30:34Z</time>
      </trkpt>
      <trkpt lat="42.85997" lon="0.24383">
        <ele>2006.2</ele>
        <time>2022-02-09T13:30:35Z</time>
      </trkpt>
      <trkpt lat="42.85997" lon="0.24383">
        <ele>2006.2</ele>
        <time>2022-02-09T13:30:36Z</time>
      </trkpt>
      <trkpt lat="42.85997" lon="0.24383">
        <ele>2006.2</ele>
        <time>2022-02-09T13:30:37Z</time>
      </trkpt>
      <trkpt lat="42.85997" lon="0.24383">
        <ele>2006.2</ele>
        <time>2022-02-09T13:30:38Z</time>
      </trkpt>
      <trkpt lat="42.85997" lon="0.24383">
        <ele>2006.2</ele>
        <time>2022-02-09T13:30:39Z</time>
      </trkpt>
      <trkpt lat="42.85997" lon="0.24383">
        <ele>2006.2</ele>
        <time>2022-02-09T13:30:40Z</time>
      </trkpt>
      <trkpt lat="42.85997" lon="0.24383">
        <ele>2006.2</ele>
        <time>2022-02-09T13:30:41Z</time>
      </trkpt>
      <trkpt lat="42.85997" lon="0.24383">
        <ele>2006.2</ele>
        <time>2022-02-09T13:30:42Z</time>
      </trkpt>
      <trkpt lat="42.85997" lon="0.24383">
        <ele>2006.2</ele>
        <time>2022-02-09T13:30:43Z</time>
      </trkpt>
      <trkpt lat="42.85997" lon="0.24383">
        <ele>2006.2</ele>
        <time>2022-02-09T13:30:44Z</time>
      </trkpt>
      <trkpt lat="42.85997" lon="0.24383">
        <ele>2006.2</ele>
        <time>2022-02-09T13:30:45Z</time>
      </trkpt>
      <trkpt lat="42.85997" lon="0.24383">
        <ele>2006.2</ele>
        <time>2022-02-09T13:30:46Z</time>
      </trkpt>
      <trkpt lat="42.85997" lon="0.24383">
        <ele>2006.2</ele>
        <time>2022-02-09T13:30:47Z</time>
      </trkpt>
      <trkpt lat="42.85997" lon="0.24383">
        <ele>2006.2</ele>
        <time>2022-02-09T13:30:48Z</time>
      </trkpt>
      <trkpt lat="42.85997" lon="0.24383">
        <ele>2006.2</ele>
        <time>2022-02-09T13:30:49Z</time>
      </trkpt>
      <trkpt lat="42.85997" lon="0.24383">
        <ele>2006.2</ele>
        <time>2022-02-09T13:30:50Z</time>
      </trkpt>
      <trkpt lat="42.85997" lon="0.24383">
        <ele>2006.2</ele>
        <time>2022-02-09T13:30:51Z</time>
      </trkpt>
      <trkpt lat="42.85997" lon="0.24383">
        <ele>2006.2</ele>
        <time>2022-02-09T13:30:52Z</time>
      </trkpt>
      <trkpt lat="42.85997" lon="0.24383">
        <ele>2006.2</ele>
        <time>2022-02-09T13:30:53Z</time>
      </trkpt>
      <trkpt lat="42.85997" lon="0.24383">
        <ele>2006.2</ele>
        <time>2022-02-09T13:30:54Z</time>
      </trkpt>
      <trkpt lat="42.85997" lon="0.24383">
        <ele>2006.2</ele>
        <time>2022-02-09T13:30:55Z</time>
      </trkpt>
      <trkpt lat="42.85997" lon="0.24383">
        <ele>2006.2</ele>
        <time>2022-02-09T13:30:56Z</time>
      </trkpt>
      <trkpt lat="42.85997" lon="0.24383">
        <ele>2006.2</ele>
        <time>2022-02-09T13:30:57Z</time>
      </trkpt>
      <trkpt lat="42.85997" lon="0.24383">
        <ele>2006.2</ele>
        <time>2022-02-09T13:30:58Z</time>
      </trkpt>
      <trkpt lat="42.85997" lon="0.24383">
        <ele>2006.2</ele>
        <time>2022-02-09T13:30:59Z</time>
      </trkpt>
      <trkpt lat="42.85997" lon="0.24383">
        <ele>2006.2</ele>
        <time>2022-02-09T13:31:00Z</time>
      </trkpt>
      <trkpt lat="42.85997" lon="0.24383">
        <ele>2006.2</ele>
        <time>2022-02-09T13:31:01Z</time>
      </trkpt>
      <trkpt lat="42.85997" lon="0.24383">
        <ele>2006.2</ele>
        <time>2022-02-09T13:31:02Z</time>
      </trkpt>
      <trkpt lat="42.85997" lon="0.24383">
        <ele>2006.2</ele>
        <time>2022-02-09T13:31:03Z</time>
      </trkpt>
      <trkpt lat="42.85997" lon="0.24383">
        <ele>2006.2</ele>
        <time>2022-02-09T13:31:04Z</time>
      </trkpt>
      <trkpt lat="42.85997" lon="0.24383">
        <ele>2006.2</ele>
        <time>2022-02-09T13:31:05Z</time>
      </trkpt>
      <trkpt lat="42.85997" lon="0.24383">
        <ele>2006.2</ele>
        <time>2022-02-09T13:31:06Z</time>
      </trkpt>
      <trkpt lat="42.85997" lon="0.24383">
        <ele>2006.2</ele>
        <time>2022-02-09T13:31:07Z</time>
      </trkpt>
      <trkpt lat="42.85997" lon="0.24383">
        <ele>2006.2</ele>
        <time>2022-02-09T13:31:08Z</time>
      </trkpt>
      <trkpt lat="42.85997" lon="0.24383">
        <ele>2006.2</ele>
        <time>2022-02-09T13:31:09Z</time>
      </trkpt>
      <trkpt lat="42.85997" lon="0.24383">
        <ele>2006.2</ele>
        <time>2022-02-09T13:31:10Z</time>
      </trkpt>
      <trkpt lat="42.85997" lon="0.24383">
        <ele>2006.2</ele>
        <time>2022-02-09T13:31:11Z</time>
      </trkpt>
      <trkpt lat="42.85997" lon="0.24383">
        <ele>2006.2</ele>
        <time>2022-02-09T13:31:12Z</time>
      </trkpt>
      <trkpt lat="42.85997" lon="0.24383">
        <ele>2006.2</ele>
        <time>2022-02-09T13:31:13Z</time>
      </trkpt>
      <trkpt lat="42.85997" lon="0.24383">
        <ele>2006.2</ele>
        <time>2022-02-09T13:31:14Z</time>
      </trkpt>
      <trkpt lat="42.85997" lon="0.24383">
        <ele>2006.2</ele>
        <time>2022-02-09T13:31:15Z</time>
      </trkpt>
      <trkpt lat="42.85997" lon="0.24383">
        <ele>2006.2</ele>
        <time>2022-02-09T13:31:16Z</time>
      </trkpt>
      <trkpt lat="42.85997" lon="0.24383">
        <ele>2006.2</ele>
        <time>2022-02-09T13:31:17Z</time>
      </trkpt>
      <trkpt lat="42.85997" lon="0.24383">
        <ele>2006.2</ele>
        <time>2022-02-09T13:31:18Z</time>
      </trkpt>
      <trkpt lat="42.85997" lon="0.24383">
        <ele>2006.2</ele>
        <time>2022-02-09T13:31:19Z</time>
      </trkpt>
      <trkpt lat="42.85997" lon="0.24383">
        <ele>2006.2</ele>
        <time>2022-02-09T13:31:20Z</time>
      </trkpt>
      <trkpt lat="42.85997" lon="0.24383">
        <ele>2006.2</ele>
        <time>2022-02-09T13:31:21Z</time>
      </trkpt>
      <trkpt lat="42.85997" lon="0.24383">
        <ele>2006.2</ele>
        <time>2022-02-09T13:31:22Z</time>
      </trkpt>
      <trkpt lat="42.85997" lon="0.24383">
        <ele>2006.2</ele>
        <time>2022-02-09T13:31:23Z</time>
      </trkpt>
      <trkpt lat="42.85997" lon="0.24383">
        <ele>2006.2</ele>
        <time>2022-02-09T13:31:24Z</time>
      </trkpt>
      <trkpt lat="42.85997" lon="0.24383">
        <ele>2006.2</ele>
        <time>2022-02-09T13:31:25Z</time>
      </trkpt>
      <trkpt lat="42.85997" lon="0.24383">
        <ele>2006.2</ele>
        <time>2022-02-09T13:31:26Z</time>
      </trkpt>
      <trkpt lat="42.85997" lon="0.24383">
        <ele>2006.2</ele>
        <time>2022-02-09T13:31:27Z</time>
      </trkpt>
      <trkpt lat="42.85997" lon="0.24383">
        <ele>2006.2</ele>
        <time>2022-02-09T13:31:28Z</time>
      </trkpt>
      <trkpt lat="42.85997" lon="0.24383">
        <ele>2006.2</ele>
        <time>2022-02-09T13:31:29Z</time>
      </trkpt>
      <trkpt lat="42.85997" lon="0.24383">
        <ele>2006.2</ele>
        <time>2022-02-09T13:31:30Z</time>
      </trkpt>
      <trkpt lat="42.85997" lon="0.24383">
        <ele>2006.2</ele>
        <time>2022-02-09T13:31:31Z</time>
      </trkpt>
      <trkpt lat="42.85997" lon="0.24383">
        <ele>2006.2</ele>
        <time>2022-02-09T13:31:32Z</time>
      </trkpt>
      <trkpt lat="42.85997" lon="0.24383">
        <ele>2006.2</ele>
        <time>2022-02-09T13:31:33Z</time>
      </trkpt>
      <trkpt lat="42.85997" lon="0.24383">
        <ele>2006.2</ele>
        <time>2022-02-09T13:31:34Z</time>
      </trkpt>
      <trkpt lat="42.85997" lon="0.24383">
        <ele>2006.2</ele>
        <time>2022-02-09T13:31:35Z</time>
      </trkpt>
      <trkpt lat="42.85997" lon="0.24383">
        <ele>2006.2</ele>
        <time>2022-02-09T13:31:36Z</time>
      </trkpt>
      <trkpt lat="42.85997" lon="0.24383">
        <ele>2006.2</ele>
        <time>2022-02-09T13:31:37Z</time>
      </trkpt>
      <trkpt lat="42.85997" lon="0.24383">
        <ele>2006.2</ele>
        <time>2022-02-09T13:31:38Z</time>
      </trkpt>
      <trkpt lat="42.85997" lon="0.24383">
        <ele>2006.2</ele>
        <time>2022-02-09T13:31:39Z</time>
      </trkpt>
      <trkpt lat="42.85997" lon="0.24383">
        <ele>2006.2</ele>
        <time>2022-02-09T13:31:40Z</time>
      </trkpt>
      <trkpt lat="42.85997" lon="0.24383">
        <ele>2006.2</ele>
        <time>2022-02-09T13:31:41Z</time>
      </trkpt>
      <trkpt lat="42.85997" lon="0.24383">
        <ele>2006.2</ele>
        <time>2022-02-09T13:31:42Z</time>
      </trkpt>
      <trkpt lat="42.85997" lon="0.24383">
        <ele>2006.2</ele>
        <time>2022-02-09T13:31:43Z</time>
      </trkpt>
      <trkpt lat="42.85997" lon="0.24383">
        <ele>2006.2</ele>
        <time>2022-02-09T13:31:44Z</time>
      </trkpt>
      <trkpt lat="42.85997" lon="0.24383">
        <ele>2006.2</ele>
        <time>2022-02-09T13:31:45Z</time>
      </trkpt>
      <trkpt lat="42.85997" lon="0.24383">
        <ele>2006.2</ele>
        <time>2022-02-09T13:31:46Z</time>
      </trkpt>
      <trkpt lat="42.85997" lon="0.24383">
        <ele>2006.2</ele>
        <time>2022-02-09T13:31:47Z</time>
      </trkpt>
      <trkpt lat="42.85997" lon="0.24383">
        <ele>2006.2</ele>
        <time>2022-02-09T13:31:48Z</time>
      </trkpt>
      <trkpt lat="42.85997" lon="0.24383">
        <ele>2006.2</ele>
        <time>2022-02-09T13:31:49Z</time>
      </trkpt>
      <trkpt lat="42.85997" lon="0.24383">
        <ele>2006.2</ele>
        <time>2022-02-09T13:31:50Z</time>
      </trkpt>
      <trkpt lat="42.85997" lon="0.24383">
        <ele>2006.2</ele>
        <time>2022-02-09T13:31:51Z</time>
      </trkpt>
      <trkpt lat="42.85997" lon="0.24383">
        <ele>2006.2</ele>
        <time>2022-02-09T13:31:52Z</time>
      </trkpt>
      <trkpt lat="42.85997" lon="0.24383">
        <ele>2006.2</ele>
        <time>2022-02-09T13:31:53Z</time>
      </trkpt>
      <trkpt lat="42.85997" lon="0.24383">
        <ele>2006.2</ele>
        <time>2022-02-09T13:31:54Z</time>
      </trkpt>
      <trkpt lat="42.85997" lon="0.24383">
        <ele>2006.2</ele>
        <time>2022-02-09T13:31:55Z</time>
      </trkpt>
      <trkpt lat="42.85997" lon="0.24383">
        <ele>2006.2</ele>
        <time>2022-02-09T13:31:56Z</time>
      </trkpt>
      <trkpt lat="42.85997" lon="0.24383">
        <ele>2006.2</ele>
        <time>2022-02-09T13:31:57Z</time>
      </trkpt>
      <trkpt lat="42.85997" lon="0.24383">
        <ele>2006.2</ele>
        <time>2022-02-09T13:31:58Z</time>
      </trkpt>
      <trkpt lat="42.85997" lon="0.24383">
        <ele>2006.2</ele>
        <time>2022-02-09T13:31:59Z</time>
      </trkpt>
      <trkpt lat="42.85997" lon="0.24383">
        <ele>2006.2</ele>
        <time>2022-02-09T13:32:00Z</time>
      </trkpt>
      <trkpt lat="42.85997" lon="0.24383">
        <ele>2006.2</ele>
        <time>2022-02-09T13:32:01Z</time>
      </trkpt>
      <trkpt lat="42.85997" lon="0.24383">
        <ele>2006.2</ele>
        <time>2022-02-09T13:32:02Z</time>
      </trkpt>
      <trkpt lat="42.85997" lon="0.24383">
        <ele>2006.2</ele>
        <time>2022-02-09T13:32:03Z</time>
      </trkpt>
      <trkpt lat="42.85997" lon="0.24383">
        <ele>2006.2</ele>
        <time>2022-02-09T13:32:04Z</time>
      </trkpt>
      <trkpt lat="42.85997" lon="0.24383">
        <ele>2006.2</ele>
        <time>2022-02-09T13:32:05Z</time>
      </trkpt>
      <trkpt lat="42.85997" lon="0.24383">
        <ele>2006.2</ele>
        <time>2022-02-09T13:32:06Z</time>
      </trkpt>
      <trkpt lat="42.85997" lon="0.24383">
        <ele>2006.2</ele>
        <time>2022-02-09T13:32:07Z</time>
      </trkpt>
      <trkpt lat="42.85997" lon="0.24383">
        <ele>2006.2</ele>
        <time>2022-02-09T13:32:08Z</time>
      </trkpt>
      <trkpt lat="42.85997" lon="0.24383">
        <ele>2006.2</ele>
        <time>2022-02-09T13:32:09Z</time>
      </trkpt>
      <trkpt lat="42.85997" lon="0.24383">
        <ele>2006.2</ele>
        <time>2022-02-09T13:32:10Z</time>
      </trkpt>
      <trkpt lat="42.85997" lon="0.24383">
        <ele>2006.2</ele>
        <time>2022-02-09T13:32:11Z</time>
      </trkpt>
      <trkpt lat="42.85997" lon="0.24383">
        <ele>2006.2</ele>
        <time>2022-02-09T13:32:12Z</time>
      </trkpt>
      <trkpt lat="42.85997" lon="0.24383">
        <ele>2006.2</ele>
        <time>2022-02-09T13:32:13Z</time>
      </trkpt>
      <trkpt lat="42.85997" lon="0.24383">
        <ele>2006.2</ele>
        <time>2022-02-09T13:32:14Z</time>
      </trkpt>
      <trkpt lat="42.85997" lon="0.24383">
        <ele>2006.2</ele>
        <time>2022-02-09T13:32:15Z</time>
      </trkpt>
      <trkpt lat="42.85997" lon="0.24383">
        <ele>2006.2</ele>
        <time>2022-02-09T13:32:16Z</time>
      </trkpt>
      <trkpt lat="42.85997" lon="0.24383">
        <ele>2006.2</ele>
        <time>2022-02-09T13:32:17Z</time>
      </trkpt>
      <trkpt lat="42.85997" lon="0.24383">
        <ele>2006.2</ele>
        <time>2022-02-09T13:32:18Z</time>
      </trkpt>
      <trkpt lat="42.85997" lon="0.24383">
        <ele>2006.2</ele>
        <time>2022-02-09T13:32:19Z</time>
      </trkpt>
      <trkpt lat="42.85997" lon="0.24383">
        <ele>2006.2</ele>
        <time>2022-02-09T13:32:20Z</time>
      </trkpt>
      <trkpt lat="42.85997" lon="0.24383">
        <ele>2006.2</ele>
        <time>2022-02-09T13:32:21Z</time>
      </trkpt>
      <trkpt lat="42.85997" lon="0.24383">
        <ele>2006.2</ele>
        <time>2022-02-09T13:32:22Z</time>
      </trkpt>
      <trkpt lat="42.85997" lon="0.24383">
        <ele>2006.2</ele>
        <time>2022-02-09T13:32:23Z</time>
      </trkpt>
      <trkpt lat="42.85997" lon="0.24383">
        <ele>2006.2</ele>
        <time>2022-02-09T13:32:24Z</time>
      </trkpt>
      <trkpt lat="42.85997" lon="0.24383">
        <ele>2006.2</ele>
        <time>2022-02-09T13:32:25Z</time>
      </trkpt>
      <trkpt lat="42.85997" lon="0.24383">
        <ele>2006.2</ele>
        <time>2022-02-09T13:32:26Z</time>
      </trkpt>
      <trkpt lat="42.85997" lon="0.24383">
        <ele>2006.2</ele>
        <time>2022-02-09T13:32:27Z</time>
      </trkpt>
      <trkpt lat="42.85997" lon="0.24383">
        <ele>2006.2</ele>
        <time>2022-02-09T13:32:28Z</time>
      </trkpt>
      <trkpt lat="42.85997" lon="0.24383">
        <ele>2006.2</ele>
        <time>2022-02-09T13:32:29Z</time>
      </trkpt>
      <trkpt lat="42.85997" lon="0.24383">
        <ele>2006.2</ele>
        <time>2022-02-09T13:32:30Z</time>
      </trkpt>
      <trkpt lat="42.85997" lon="0.24383">
        <ele>2006.2</ele>
        <time>2022-02-09T13:32:31Z</time>
      </trkpt>
      <trkpt lat="42.85997" lon="0.24383">
        <ele>2006.2</ele>
        <time>2022-02-09T13:32:32Z</time>
      </trkpt>
      <trkpt lat="42.85997" lon="0.24383">
        <ele>2006.2</ele>
        <time>2022-02-09T13:32:33Z</time>
      </trkpt>
      <trkpt lat="42.85997" lon="0.24383">
        <ele>2006.2</ele>
        <time>2022-02-09T13:32:34Z</time>
      </trkpt>
      <trkpt lat="42.85997" lon="0.24383">
        <ele>2006.2</ele>
        <time>2022-02-09T13:32:35Z</time>
      </trkpt>
      <trkpt lat="42.85997" lon="0.24383">
        <ele>2006.2</ele>
        <time>2022-02-09T13:32:36Z</time>
      </trkpt>
      <trkpt lat="42.85997" lon="0.24383">
        <ele>2006.2</ele>
        <time>2022-02-09T13:32:37Z</time>
      </trkpt>
      <trkpt lat="42.85997" lon="0.24383">
        <ele>2006.2</ele>
        <time>2022-02-09T13:32:38Z</time>
      </trkpt>
      <trkpt lat="42.85997" lon="0.24383">
        <ele>2006.2</ele>
        <time>2022-02-09T13:32:39Z</time>
      </trkpt>
      <trkpt lat="42.85997" lon="0.24383">
        <ele>2006.2</ele>
        <time>2022-02-09T13:32:40Z</time>
      </trkpt>
      <trkpt lat="42.85997" lon="0.24383">
        <ele>2006.2</ele>
        <time>2022-02-09T13:32:41Z</time>
      </trkpt>
      <trkpt lat="42.85997" lon="0.24383">
        <ele>2006.2</ele>
        <time>2022-02-09T13:32:42Z</time>
      </trkpt>
      <trkpt lat="42.85997" lon="0.24383">
        <ele>2006.2</ele>
        <time>2022-02-09T13:32:43Z</time>
      </trkpt>
      <trkpt lat="42.85997" lon="0.24383">
        <ele>2006.2</ele>
        <time>2022-02-09T13:32:44Z</time>
      </trkpt>
      <trkpt lat="42.85997" lon="0.24383">
        <ele>2006.2</ele>
        <time>2022-02-09T13:32:45Z</time>
      </trkpt>
      <trkpt lat="42.85997" lon="0.24383">
        <ele>2006.2</ele>
        <time>2022-02-09T13:32:46Z</time>
      </trkpt>
      <trkpt lat="42.85997" lon="0.24383">
        <ele>2006.2</ele>
        <time>2022-02-09T13:32:47Z</time>
      </trkpt>
      <trkpt lat="42.85997" lon="0.24383">
        <ele>2006.2</ele>
        <time>2022-02-09T13:32:48Z</time>
      </trkpt>
      <trkpt lat="42.85997" lon="0.24383">
        <ele>2006.2</ele>
        <time>2022-02-09T13:32:49Z</time>
      </trkpt>
      <trkpt lat="42.85997" lon="0.24383">
        <ele>2006.2</ele>
        <time>2022-02-09T13:32:50Z</time>
      </trkpt>
      <trkpt lat="42.85997" lon="0.24383">
        <ele>2006.2</ele>
        <time>2022-02-09T13:32:51Z</time>
      </trkpt>
      <trkpt lat="42.85997" lon="0.24383">
        <ele>2006.2</ele>
        <time>2022-02-09T13:32:52Z</time>
      </trkpt>
      <trkpt lat="42.85997" lon="0.24383">
        <ele>2006.2</ele>
        <time>2022-02-09T13:32:53Z</time>
      </trkpt>
      <trkpt lat="42.85997" lon="0.24383">
        <ele>2006.2</ele>
        <time>2022-02-09T13:32:54Z</time>
      </trkpt>
      <trkpt lat="42.85997" lon="0.24383">
        <ele>2006.2</ele>
        <time>2022-02-09T13:32:55Z</time>
      </trkpt>
      <trkpt lat="42.85997" lon="0.24383">
        <ele>2006.2</ele>
        <time>2022-02-09T13:32:56Z</time>
      </trkpt>
      <trkpt lat="42.85997" lon="0.24383">
        <ele>2006.2</ele>
        <time>2022-02-09T13:32:57Z</time>
      </trkpt>
      <trkpt lat="42.85997" lon="0.24383">
        <ele>2006.2</ele>
        <time>2022-02-09T13:32:58Z</time>
      </trkpt>
      <trkpt lat="42.85997" lon="0.24383">
        <ele>2006.2</ele>
        <time>2022-02-09T13:32:59Z</time>
      </trkpt>
      <trkpt lat="42.85997" lon="0.24383">
        <ele>2006.2</ele>
        <time>2022-02-09T13:33:00Z</time>
      </trkpt>
      <trkpt lat="42.85997" lon="0.24383">
        <ele>2006.2</ele>
        <time>2022-02-09T13:33:01Z</time>
      </trkpt>
      <trkpt lat="42.85997" lon="0.24383">
        <ele>2006.2</ele>
        <time>2022-02-09T13:33:02Z</time>
      </trkpt>
      <trkpt lat="42.85997" lon="0.24383">
        <ele>2006.2</ele>
        <time>2022-02-09T13:33:03Z</time>
      </trkpt>
      <trkpt lat="42.85997" lon="0.24383">
        <ele>2006.2</ele>
        <time>2022-02-09T13:33:04Z</time>
      </trkpt>
      <trkpt lat="42.85997" lon="0.24383">
        <ele>2006.2</ele>
        <time>2022-02-09T13:33:05Z</time>
      </trkpt>
      <trkpt lat="42.85997" lon="0.24383">
        <ele>2006.3</ele>
        <time>2022-02-09T13:33:06Z</time>
      </trkpt>
      <trkpt lat="42.85997" lon="0.24383">
        <ele>2006.3</ele>
        <time>2022-02-09T13:33:07Z</time>
      </trkpt>
      <trkpt lat="42.85997" lon="0.24383">
        <ele>2006.3</ele>
        <time>2022-02-09T13:33:08Z</time>
      </trkpt>
      <trkpt lat="42.85997" lon="0.24383">
        <ele>2006.3</ele>
        <time>2022-02-09T13:33:09Z</time>
      </trkpt>
      <trkpt lat="42.85997" lon="0.24383">
        <ele>2006.3</ele>
        <time>2022-02-09T13:33:10Z</time>
      </trkpt>
      <trkpt lat="42.85997" lon="0.24383">
        <ele>2006.3</ele>
        <time>2022-02-09T13:33:11Z</time>
      </trkpt>
      <trkpt lat="42.85997" lon="0.24383">
        <ele>2006.3</ele>
        <time>2022-02-09T13:33:12Z</time>
      </trkpt>
      <trkpt lat="42.85997" lon="0.24383">
        <ele>2006.3</ele>
        <time>2022-02-09T13:33:13Z</time>
      </trkpt>
      <trkpt lat="42.85997" lon="0.24383">
        <ele>2006.3</ele>
        <time>2022-02-09T13:33:14Z</time>
      </trkpt>
      <trkpt lat="42.85997" lon="0.24383">
        <ele>2006.3</ele>
        <time>2022-02-09T13:33:15Z</time>
      </trkpt>
      <trkpt lat="42.85997" lon="0.24382">
        <ele>2006.3</ele>
        <time>2022-02-09T13:33:16Z</time>
      </trkpt>
      <trkpt lat="42.85996" lon="0.24379">
        <ele>2006.4</ele>
        <time>2022-02-09T13:33:17Z</time>
      </trkpt>
      <trkpt lat="42.85994" lon="0.24375">
        <ele>2005</ele>
        <time>2022-02-09T13:33:18Z</time>
      </trkpt>
      <trkpt lat="42.85992" lon="0.2437">
        <ele>2003.8</ele>
        <time>2022-02-09T13:33:19Z</time>
      </trkpt>
      <trkpt lat="42.8599" lon="0.24363">
        <ele>2004.1</ele>
        <time>2022-02-09T13:33:20Z</time>
      </trkpt>
      <trkpt lat="42.85988" lon="0.24356">
        <ele>2003.5</ele>
        <time>2022-02-09T13:33:21Z</time>
      </trkpt>
      <trkpt lat="42.85985" lon="0.24348">
        <ele>2002.4</ele>
        <time>2022-02-09T13:33:22Z</time>
      </trkpt>
      <trkpt lat="42.85983" lon="0.24341">
        <ele>2002.2</ele>
        <time>2022-02-09T13:33:23Z</time>
      </trkpt>
      <trkpt lat="42.85981" lon="0.24334">
        <ele>2002.8</ele>
        <time>2022-02-09T13:33:24Z</time>
      </trkpt>
      <trkpt lat="42.85981" lon="0.24329">
        <ele>2004.1</ele>
        <time>2022-02-09T13:33:25Z</time>
      </trkpt>
      <trkpt lat="42.85979" lon="0.24323">
        <ele>2003.5</ele>
        <time>2022-02-09T13:33:26Z</time>
      </trkpt>
      <trkpt lat="42.85978" lon="0.24317">
        <ele>2004.3</ele>
        <time>2022-02-09T13:33:27Z</time>
      </trkpt>
      <trkpt lat="42.85976" lon="0.24311">
        <ele>2004.6</ele>
        <time>2022-02-09T13:33:28Z</time>
      </trkpt>
      <trkpt lat="42.85974" lon="0.24304">
        <ele>2005.6</ele>
        <time>2022-02-09T13:33:29Z</time>
      </trkpt>
      <trkpt lat="42.85973" lon="0.24297">
        <ele>2006.1</ele>
        <time>2022-02-09T13:33:30Z</time>
      </trkpt>
      <trkpt lat="42.8597" lon="0.24291">
        <ele>2007</ele>
        <time>2022-02-09T13:33:31Z</time>
      </trkpt>
      <trkpt lat="42.85967" lon="0.24285">
        <ele>2007.5</ele>
        <time>2022-02-09T13:33:32Z</time>
      </trkpt>
      <trkpt lat="42.85963" lon="0.24279">
        <ele>2006.2</ele>
        <time>2022-02-09T13:33:33Z</time>
      </trkpt>
      <trkpt lat="42.85959" lon="0.24274">
        <ele>2006.2</ele>
        <time>2022-02-09T13:33:34Z</time>
      </trkpt>
      <trkpt lat="42.85953" lon="0.2427">
        <ele>2005.2</ele>
        <time>2022-02-09T13:33:35Z</time>
      </trkpt>
      <trkpt lat="42.85948" lon="0.24266">
        <ele>2004.1</ele>
        <time>2022-02-09T13:33:36Z</time>
      </trkpt>
      <trkpt lat="42.85941" lon="0.24263">
        <ele>2003.2</ele>
        <time>2022-02-09T13:33:37Z</time>
      </trkpt>
      <trkpt lat="42.85935" lon="0.24262">
        <ele>2001.4</ele>
        <time>2022-02-09T13:33:38Z</time>
      </trkpt>
      <trkpt lat="42.85929" lon="0.24261">
        <ele>1999.8</ele>
        <time>2022-02-09T13:33:39Z</time>
      </trkpt>
      <trkpt lat="42.85923" lon="0.2426">
        <ele>2000.3</ele>
        <time>2022-02-09T13:33:40Z</time>
      </trkpt>
      <trkpt lat="42.85918" lon="0.2426">
        <ele>1997.4</ele>
        <time>2022-02-09T13:33:41Z</time>
      </trkpt>
      <trkpt lat="42.85914" lon="0.24262">
        <ele>1996.6</ele>
        <time>2022-02-09T13:33:42Z</time>
      </trkpt>
      <trkpt lat="42.85909" lon="0.24264">
        <ele>1995.2</ele>
        <time>2022-02-09T13:33:43Z</time>
      </trkpt>
      <trkpt lat="42.85903" lon="0.24266">
        <ele>1992.6</ele>
        <time>2022-02-09T13:33:44Z</time>
      </trkpt>
      <trkpt lat="42.85898" lon="0.24267">
        <ele>1992</ele>
        <time>2022-02-09T13:33:45Z</time>
      </trkpt>
      <trkpt lat="42.85893" lon="0.24269">
        <ele>1989.5</ele>
        <time>2022-02-09T13:33:46Z</time>
      </trkpt>
      <trkpt lat="42.85888" lon="0.24271">
        <ele>1988.2</ele>
        <time>2022-02-09T13:33:47Z</time>
      </trkpt>
      <trkpt lat="42.85884" lon="0.24273">
        <ele>1987.6</ele>
        <time>2022-02-09T13:33:48Z</time>
      </trkpt>
      <trkpt lat="42.85879" lon="0.24274">
        <ele>1985.6</ele>
        <time>2022-02-09T13:33:49Z</time>
      </trkpt>
      <trkpt lat="42.85875" lon="0.24275">
        <ele>1984.6</ele>
        <time>2022-02-09T13:33:50Z</time>
      </trkpt>
      <trkpt lat="42.85872" lon="0.24275">
        <ele>1984.2</ele>
        <time>2022-02-09T13:33:51Z</time>
      </trkpt>
      <trkpt lat="42.8587" lon="0.24274">
        <ele>1984.2</ele>
        <time>2022-02-09T13:33:52Z</time>
      </trkpt>
      <trkpt lat="42.85869" lon="0.24274">
        <ele>1983.7</ele>
        <time>2022-02-09T13:33:53Z</time>
      </trkpt>
      <trkpt lat="42.85868" lon="0.24274">
        <ele>1983.7</ele>
        <time>2022-02-09T13:33:54Z</time>
      </trkpt>
      <trkpt lat="42.85868" lon="0.24274">
        <ele>1983.7</ele>
        <time>2022-02-09T13:33:55Z</time>
      </trkpt>
      <trkpt lat="42.85868" lon="0.24274">
        <ele>1983.7</ele>
        <time>2022-02-09T13:33:56Z</time>
      </trkpt>
      <trkpt lat="42.85868" lon="0.24274">
        <ele>1983.7</ele>
        <time>2022-02-09T13:33:57Z</time>
      </trkpt>
      <trkpt lat="42.85868" lon="0.24274">
        <ele>1983.7</ele>
        <time>2022-02-09T13:33:58Z</time>
      </trkpt>
      <trkpt lat="42.85868" lon="0.24274">
        <ele>1983.7</ele>
        <time>2022-02-09T13:33:59Z</time>
      </trkpt>
      <trkpt lat="42.85868" lon="0.24274">
        <ele>1983.7</ele>
        <time>2022-02-09T13:34:00Z</time>
      </trkpt>
      <trkpt lat="42.85868" lon="0.24274">
        <ele>1983.7</ele>
        <time>2022-02-09T13:34:01Z</time>
      </trkpt>
      <trkpt lat="42.85868" lon="0.24274">
        <ele>1983.7</ele>
        <time>2022-02-09T13:34:02Z</time>
      </trkpt>
      <trkpt lat="42.85868" lon="0.24274">
        <ele>1983.7</ele>
        <time>2022-02-09T13:34:03Z</time>
      </trkpt>
      <trkpt lat="42.85868" lon="0.24274">
        <ele>1983.7</ele>
        <time>2022-02-09T13:34:04Z</time>
      </trkpt>
      <trkpt lat="42.85868" lon="0.24274">
        <ele>1983.7</ele>
        <time>2022-02-09T13:34:05Z</time>
      </trkpt>
      <trkpt lat="42.85868" lon="0.24274">
        <ele>1983.7</ele>
        <time>2022-02-09T13:34:06Z</time>
      </trkpt>
      <trkpt lat="42.85868" lon="0.24274">
        <ele>1983.7</ele>
        <time>2022-02-09T13:34:07Z</time>
      </trkpt>
      <trkpt lat="42.85868" lon="0.24274">
        <ele>1983.7</ele>
        <time>2022-02-09T13:34:08Z</time>
      </trkpt>
      <trkpt lat="42.85868" lon="0.24274">
        <ele>1983.7</ele>
        <time>2022-02-09T13:34:09Z</time>
      </trkpt>
      <trkpt lat="42.85868" lon="0.24274">
        <ele>1983.7</ele>
        <time>2022-02-09T13:34:10Z</time>
      </trkpt>
      <trkpt lat="42.85868" lon="0.24274">
        <ele>1983.7</ele>
        <time>2022-02-09T13:34:11Z</time>
      </trkpt>
      <trkpt lat="42.85868" lon="0.24274">
        <ele>1983.7</ele>
        <time>2022-02-09T13:34:12Z</time>
      </trkpt>
      <trkpt lat="42.85868" lon="0.24274">
        <ele>1983.7</ele>
        <time>2022-02-09T13:34:13Z</time>
      </trkpt>
      <trkpt lat="42.85868" lon="0.24274">
        <ele>1983.7</ele>
        <time>2022-02-09T13:34:14Z</time>
      </trkpt>
      <trkpt lat="42.85868" lon="0.24274">
        <ele>1983.7</ele>
        <time>2022-02-09T13:34:15Z</time>
      </trkpt>
      <trkpt lat="42.85868" lon="0.24274">
        <ele>1983.7</ele>
        <time>2022-02-09T13:34:16Z</time>
      </trkpt>
      <trkpt lat="42.85868" lon="0.24274">
        <ele>1983.7</ele>
        <time>2022-02-09T13:34:17Z</time>
      </trkpt>
      <trkpt lat="42.85868" lon="0.24274">
        <ele>1983.7</ele>
        <time>2022-02-09T13:34:18Z</time>
      </trkpt>
      <trkpt lat="42.85868" lon="0.24274">
        <ele>1983.7</ele>
        <time>2022-02-09T13:34:19Z</time>
      </trkpt>
      <trkpt lat="42.85868" lon="0.24274">
        <ele>1983.7</ele>
        <time>2022-02-09T13:34:20Z</time>
      </trkpt>
      <trkpt lat="42.85868" lon="0.24274">
        <ele>1983.7</ele>
        <time>2022-02-09T13:34:21Z</time>
      </trkpt>
      <trkpt lat="42.85868" lon="0.24274">
        <ele>1983.7</ele>
        <time>2022-02-09T13:34:22Z</time>
      </trkpt>
      <trkpt lat="42.85868" lon="0.24274">
        <ele>1983.7</ele>
        <time>2022-02-09T13:34:23Z</time>
      </trkpt>
      <trkpt lat="42.85868" lon="0.24274">
        <ele>1983.7</ele>
        <time>2022-02-09T13:34:24Z</time>
      </trkpt>
      <trkpt lat="42.85868" lon="0.24274">
        <ele>1983.7</ele>
        <time>2022-02-09T13:34:25Z</time>
      </trkpt>
      <trkpt lat="42.85868" lon="0.24274">
        <ele>1983.7</ele>
        <time>2022-02-09T13:34:26Z</time>
      </trkpt>
      <trkpt lat="42.85868" lon="0.24274">
        <ele>1983.7</ele>
        <time>2022-02-09T13:34:27Z</time>
      </trkpt>
      <trkpt lat="42.85868" lon="0.24274">
        <ele>1983.7</ele>
        <time>2022-02-09T13:34:28Z</time>
      </trkpt>
      <trkpt lat="42.85868" lon="0.24274">
        <ele>1983.7</ele>
        <time>2022-02-09T13:34:29Z</time>
      </trkpt>
      <trkpt lat="42.85868" lon="0.24274">
        <ele>1983.8</ele>
        <time>2022-02-09T13:34:30Z</time>
      </trkpt>
      <trkpt lat="42.85868" lon="0.24274">
        <ele>1983.8</ele>
        <time>2022-02-09T13:34:31Z</time>
      </trkpt>
      <trkpt lat="42.85868" lon="0.24274">
        <ele>1983.8</ele>
        <time>2022-02-09T13:34:32Z</time>
      </trkpt>
      <trkpt lat="42.85868" lon="0.24274">
        <ele>1983.8</ele>
        <time>2022-02-09T13:34:33Z</time>
      </trkpt>
      <trkpt lat="42.85868" lon="0.24274">
        <ele>1983.8</ele>
        <time>2022-02-09T13:34:34Z</time>
      </trkpt>
      <trkpt lat="42.85868" lon="0.24274">
        <ele>1983.8</ele>
        <time>2022-02-09T13:34:35Z</time>
      </trkpt>
      <trkpt lat="42.85868" lon="0.24274">
        <ele>1983.8</ele>
        <time>2022-02-09T13:34:36Z</time>
      </trkpt>
      <trkpt lat="42.85868" lon="0.24274">
        <ele>1983.8</ele>
        <time>2022-02-09T13:34:37Z</time>
      </trkpt>
      <trkpt lat="42.85868" lon="0.24274">
        <ele>1983.8</ele>
        <time>2022-02-09T13:34:38Z</time>
      </trkpt>
      <trkpt lat="42.85868" lon="0.24274">
        <ele>1983.8</ele>
        <time>2022-02-09T13:34:39Z</time>
      </trkpt>
      <trkpt lat="42.85868" lon="0.24274">
        <ele>1983.8</ele>
        <time>2022-02-09T13:34:40Z</time>
      </trkpt>
      <trkpt lat="42.85868" lon="0.24274">
        <ele>1983.8</ele>
        <time>2022-02-09T13:34:41Z</time>
      </trkpt>
      <trkpt lat="42.85867" lon="0.24275">
        <ele>1983.8</ele>
        <time>2022-02-09T13:34:42Z</time>
      </trkpt>
      <trkpt lat="42.85865" lon="0.24277">
        <ele>1983.3</ele>
        <time>2022-02-09T13:34:43Z</time>
      </trkpt>
      <trkpt lat="42.85864" lon="0.24279">
        <ele>1981.8</ele>
        <time>2022-02-09T13:34:44Z</time>
      </trkpt>
      <trkpt lat="42.85864" lon="0.24282">
        <ele>1981.8</ele>
        <time>2022-02-09T13:34:45Z</time>
      </trkpt>
      <trkpt lat="42.85865" lon="0.24284">
        <ele>1980.3</ele>
        <time>2022-02-09T13:34:46Z</time>
      </trkpt>
      <trkpt lat="42.85866" lon="0.24287">
        <ele>1978.9</ele>
        <time>2022-02-09T13:34:47Z</time>
      </trkpt>
      <trkpt lat="42.85865" lon="0.24289">
        <ele>1978.9</ele>
        <time>2022-02-09T13:34:48Z</time>
      </trkpt>
      <trkpt lat="42.85864" lon="0.24292">
        <ele>1977.6</ele>
        <time>2022-02-09T13:34:49Z</time>
      </trkpt>
      <trkpt lat="42.85864" lon="0.24296">
        <ele>1976.3</ele>
        <time>2022-02-09T13:34:50Z</time>
      </trkpt>
      <trkpt lat="42.85865" lon="0.243">
        <ele>1975</ele>
        <time>2022-02-09T13:34:51Z</time>
      </trkpt>
      <trkpt lat="42.85864" lon="0.24303">
        <ele>1973.6</ele>
        <time>2022-02-09T13:34:52Z</time>
      </trkpt>
      <trkpt lat="42.85863" lon="0.24307">
        <ele>1973.1</ele>
        <time>2022-02-09T13:34:53Z</time>
      </trkpt>
      <trkpt lat="42.85862" lon="0.2431">
        <ele>1971.8</ele>
        <time>2022-02-09T13:34:54Z</time>
      </trkpt>
      <trkpt lat="42.8586" lon="0.24314">
        <ele>1970</ele>
        <time>2022-02-09T13:34:55Z</time>
      </trkpt>
      <trkpt lat="42.85856" lon="0.24317">
        <ele>1968.3</ele>
        <time>2022-02-09T13:34:56Z</time>
      </trkpt>
      <trkpt lat="42.85854" lon="0.24319">
        <ele>1968.3</ele>
        <time>2022-02-09T13:34:57Z</time>
      </trkpt>
      <trkpt lat="42.85854" lon="0.24323">
        <ele>1967.2</ele>
        <time>2022-02-09T13:34:58Z</time>
      </trkpt>
      <trkpt lat="42.85854" lon="0.24326">
        <ele>1966.1</ele>
        <time>2022-02-09T13:34:59Z</time>
      </trkpt>
      <trkpt lat="42.85853" lon="0.24328">
        <ele>1965.6</ele>
        <time>2022-02-09T13:35:00Z</time>
      </trkpt>
      <trkpt lat="42.85851" lon="0.24328">
        <ele>1965.6</ele>
        <time>2022-02-09T13:35:01Z</time>
      </trkpt>
      <trkpt lat="42.8585" lon="0.24328">
        <ele>1965.2</ele>
        <time>2022-02-09T13:35:02Z</time>
      </trkpt>
      <trkpt lat="42.8585" lon="0.24328">
        <ele>1965.2</ele>
        <time>2022-02-09T13:35:03Z</time>
      </trkpt>
      <trkpt lat="42.8585" lon="0.24328">
        <ele>1965.2</ele>
        <time>2022-02-09T13:35:04Z</time>
      </trkpt>
      <trkpt lat="42.8585" lon="0.24329">
        <ele>1965.2</ele>
        <time>2022-02-09T13:35:05Z</time>
      </trkpt>
      <trkpt lat="42.8585" lon="0.24329">
        <ele>1965.2</ele>
        <time>2022-02-09T13:35:06Z</time>
      </trkpt>
      <trkpt lat="42.8585" lon="0.24329">
        <ele>1965.2</ele>
        <time>2022-02-09T13:35:07Z</time>
      </trkpt>
      <trkpt lat="42.8585" lon="0.24329">
        <ele>1965.2</ele>
        <time>2022-02-09T13:35:08Z</time>
      </trkpt>
      <trkpt lat="42.8585" lon="0.24329">
        <ele>1965.2</ele>
        <time>2022-02-09T13:35:09Z</time>
      </trkpt>
      <trkpt lat="42.8585" lon="0.24329">
        <ele>1965.2</ele>
        <time>2022-02-09T13:35:10Z</time>
      </trkpt>
      <trkpt lat="42.8585" lon="0.24329">
        <ele>1965.2</ele>
        <time>2022-02-09T13:35:11Z</time>
      </trkpt>
      <trkpt lat="42.8585" lon="0.24329">
        <ele>1965.2</ele>
        <time>2022-02-09T13:35:12Z</time>
      </trkpt>
      <trkpt lat="42.85849" lon="0.2433">
        <ele>1964.2</ele>
        <time>2022-02-09T13:35:13Z</time>
      </trkpt>
      <trkpt lat="42.8585" lon="0.24335">
        <ele>1963.2</ele>
        <time>2022-02-09T13:35:14Z</time>
      </trkpt>
      <trkpt lat="42.85851" lon="0.2434">
        <ele>1962.8</ele>
        <time>2022-02-09T13:35:15Z</time>
      </trkpt>
      <trkpt lat="42.85852" lon="0.24345">
        <ele>1961.9</ele>
        <time>2022-02-09T13:35:16Z</time>
      </trkpt>
      <trkpt lat="42.85853" lon="0.24351">
        <ele>1960.3</ele>
        <time>2022-02-09T13:35:17Z</time>
      </trkpt>
      <trkpt lat="42.85853" lon="0.24359">
        <ele>1958.9</ele>
        <time>2022-02-09T13:35:18Z</time>
      </trkpt>
      <trkpt lat="42.85852" lon="0.24368">
        <ele>1957.8</ele>
        <time>2022-02-09T13:35:19Z</time>
      </trkpt>
      <trkpt lat="42.85852" lon="0.24376">
        <ele>1956.9</ele>
        <time>2022-02-09T13:35:20Z</time>
      </trkpt>
      <trkpt lat="42.85851" lon="0.24384">
        <ele>1956.5</ele>
        <time>2022-02-09T13:35:21Z</time>
      </trkpt>
      <trkpt lat="42.85849" lon="0.24391">
        <ele>1955.1</ele>
        <time>2022-02-09T13:35:22Z</time>
      </trkpt>
      <trkpt lat="42.85848" lon="0.24397">
        <ele>1954.7</ele>
        <time>2022-02-09T13:35:23Z</time>
      </trkpt>
      <trkpt lat="42.85846" lon="0.24401">
        <ele>1953.6</ele>
        <time>2022-02-09T13:35:24Z</time>
      </trkpt>
      <trkpt lat="42.85845" lon="0.24406">
        <ele>1953.3</ele>
        <time>2022-02-09T13:35:25Z</time>
      </trkpt>
      <trkpt lat="42.85843" lon="0.2441">
        <ele>1952.3</ele>
        <time>2022-02-09T13:35:26Z</time>
      </trkpt>
      <trkpt lat="42.85841" lon="0.24414">
        <ele>1951.2</ele>
        <time>2022-02-09T13:35:27Z</time>
      </trkpt>
      <trkpt lat="42.85839" lon="0.24419">
        <ele>1950.7</ele>
        <time>2022-02-09T13:35:28Z</time>
      </trkpt>
      <trkpt lat="42.85836" lon="0.24425">
        <ele>1949.6</ele>
        <time>2022-02-09T13:35:29Z</time>
      </trkpt>
      <trkpt lat="42.85834" lon="0.2443">
        <ele>1948.5</ele>
        <time>2022-02-09T13:35:30Z</time>
      </trkpt>
      <trkpt lat="42.85832" lon="0.24436">
        <ele>1948.1</ele>
        <time>2022-02-09T13:35:31Z</time>
      </trkpt>
      <trkpt lat="42.85831" lon="0.24442">
        <ele>1946.9</ele>
        <time>2022-02-09T13:35:32Z</time>
      </trkpt>
      <trkpt lat="42.85829" lon="0.24448">
        <ele>1946.7</ele>
        <time>2022-02-09T13:35:33Z</time>
      </trkpt>
      <trkpt lat="42.85827" lon="0.24454">
        <ele>1945.4</ele>
        <time>2022-02-09T13:35:34Z</time>
      </trkpt>
      <trkpt lat="42.85826" lon="0.2446">
        <ele>1945.3</ele>
        <time>2022-02-09T13:35:35Z</time>
      </trkpt>
      <trkpt lat="42.85824" lon="0.24466">
        <ele>1944.3</ele>
        <time>2022-02-09T13:35:36Z</time>
      </trkpt>
      <trkpt lat="42.85822" lon="0.24471">
        <ele>1943.2</ele>
        <time>2022-02-09T13:35:37Z</time>
      </trkpt>
      <trkpt lat="42.85821" lon="0.24477">
        <ele>1943</ele>
        <time>2022-02-09T13:35:38Z</time>
      </trkpt>
      <trkpt lat="42.85819" lon="0.24482">
        <ele>1942.9</ele>
        <time>2022-02-09T13:35:39Z</time>
      </trkpt>
      <trkpt lat="42.85818" lon="0.24487">
        <ele>1941.9</ele>
        <time>2022-02-09T13:35:40Z</time>
      </trkpt>
      <trkpt lat="42.85816" lon="0.24491">
        <ele>1941.7</ele>
        <time>2022-02-09T13:35:41Z</time>
      </trkpt>
      <trkpt lat="42.85815" lon="0.24496">
        <ele>1940.7</ele>
        <time>2022-02-09T13:35:42Z</time>
      </trkpt>
      <trkpt lat="42.85813" lon="0.245">
        <ele>1940.3</ele>
        <time>2022-02-09T13:35:43Z</time>
      </trkpt>
      <trkpt lat="42.85812" lon="0.24505">
        <ele>1939.1</ele>
        <time>2022-02-09T13:35:44Z</time>
      </trkpt>
      <trkpt lat="42.85811" lon="0.2451">
        <ele>1938.8</ele>
        <time>2022-02-09T13:35:45Z</time>
      </trkpt>
      <trkpt lat="42.85809" lon="0.24515">
        <ele>1937.4</ele>
        <time>2022-02-09T13:35:46Z</time>
      </trkpt>
      <trkpt lat="42.85808" lon="0.24519">
        <ele>1937.1</ele>
        <time>2022-02-09T13:35:47Z</time>
      </trkpt>
      <trkpt lat="42.85806" lon="0.24524">
        <ele>1935.6</ele>
        <time>2022-02-09T13:35:48Z</time>
      </trkpt>
      <trkpt lat="42.85804" lon="0.24529">
        <ele>1935.2</ele>
        <time>2022-02-09T13:35:49Z</time>
      </trkpt>
      <trkpt lat="42.85803" lon="0.24535">
        <ele>1933.5</ele>
        <time>2022-02-09T13:35:50Z</time>
      </trkpt>
      <trkpt lat="42.85803" lon="0.2454">
        <ele>1932.6</ele>
        <time>2022-02-09T13:35:51Z</time>
      </trkpt>
      <trkpt lat="42.85803" lon="0.24545">
        <ele>1932.1</ele>
        <time>2022-02-09T13:35:52Z</time>
      </trkpt>
      <trkpt lat="42.85803" lon="0.24549">
        <ele>1931.6</ele>
        <time>2022-02-09T13:35:53Z</time>
      </trkpt>
      <trkpt lat="42.85803" lon="0.24553">
        <ele>1931.2</ele>
        <time>2022-02-09T13:35:54Z</time>
      </trkpt>
      <trkpt lat="42.85803" lon="0.24557">
        <ele>1930.7</ele>
        <time>2022-02-09T13:35:55Z</time>
      </trkpt>
      <trkpt lat="42.85804" lon="0.24561">
        <ele>1931.5</ele>
        <time>2022-02-09T13:35:56Z</time>
      </trkpt>
      <trkpt lat="42.85805" lon="0.24565">
        <ele>1931.5</ele>
        <time>2022-02-09T13:35:57Z</time>
      </trkpt>
      <trkpt lat="42.85805" lon="0.24568">
        <ele>1931</ele>
        <time>2022-02-09T13:35:58Z</time>
      </trkpt>
      <trkpt lat="42.85806" lon="0.24572">
        <ele>1930.4</ele>
        <time>2022-02-09T13:35:59Z</time>
      </trkpt>
      <trkpt lat="42.85807" lon="0.24575">
        <ele>1929.9</ele>
        <time>2022-02-09T13:36:00Z</time>
      </trkpt>
      <trkpt lat="42.85808" lon="0.24579">
        <ele>1930.7</ele>
        <time>2022-02-09T13:36:01Z</time>
      </trkpt>
      <trkpt lat="42.85809" lon="0.24583">
        <ele>1930.1</ele>
        <time>2022-02-09T13:36:02Z</time>
      </trkpt>
      <trkpt lat="42.8581" lon="0.24587">
        <ele>1929.6</ele>
        <time>2022-02-09T13:36:03Z</time>
      </trkpt>
      <trkpt lat="42.85811" lon="0.24591">
        <ele>1930.5</ele>
        <time>2022-02-09T13:36:04Z</time>
      </trkpt>
      <trkpt lat="42.85813" lon="0.24595">
        <ele>1930.1</ele>
        <time>2022-02-09T13:36:05Z</time>
      </trkpt>
      <trkpt lat="42.85814" lon="0.24599">
        <ele>1931.5</ele>
        <time>2022-02-09T13:36:06Z</time>
      </trkpt>
      <trkpt lat="42.85815" lon="0.24602">
        <ele>1931.1</ele>
        <time>2022-02-09T13:36:07Z</time>
      </trkpt>
      <trkpt lat="42.85816" lon="0.24606">
        <ele>1930.7</ele>
        <time>2022-02-09T13:36:08Z</time>
      </trkpt>
      <trkpt lat="42.85817" lon="0.2461">
        <ele>1931.7</ele>
        <time>2022-02-09T13:36:09Z</time>
      </trkpt>
      <trkpt lat="42.85818" lon="0.24614">
        <ele>1931.4</ele>
        <time>2022-02-09T13:36:10Z</time>
      </trkpt>
      <trkpt lat="42.85819" lon="0.24618">
        <ele>1932.3</ele>
        <time>2022-02-09T13:36:11Z</time>
      </trkpt>
      <trkpt lat="42.85821" lon="0.24622">
        <ele>1932</ele>
        <time>2022-02-09T13:36:12Z</time>
      </trkpt>
      <trkpt lat="42.85822" lon="0.24627">
        <ele>1931.7</ele>
        <time>2022-02-09T13:36:13Z</time>
      </trkpt>
      <trkpt lat="42.85824" lon="0.24631">
        <ele>1932.8</ele>
        <time>2022-02-09T13:36:14Z</time>
      </trkpt>
      <trkpt lat="42.85826" lon="0.24635">
        <ele>1934</ele>
        <time>2022-02-09T13:36:15Z</time>
      </trkpt>
      <trkpt lat="42.85828" lon="0.24639">
        <ele>1933.8</ele>
        <time>2022-02-09T13:36:16Z</time>
      </trkpt>
      <trkpt lat="42.85829" lon="0.24644">
        <ele>1935.2</ele>
        <time>2022-02-09T13:36:17Z</time>
      </trkpt>
      <trkpt lat="42.8583" lon="0.24648">
        <ele>1935.1</ele>
        <time>2022-02-09T13:36:18Z</time>
      </trkpt>
      <trkpt lat="42.85831" lon="0.24652">
        <ele>1935</ele>
        <time>2022-02-09T13:36:19Z</time>
      </trkpt>
      <trkpt lat="42.85831" lon="0.24658">
        <ele>1934.9</ele>
        <time>2022-02-09T13:36:20Z</time>
      </trkpt>
      <trkpt lat="42.85831" lon="0.24665">
        <ele>1934.8</ele>
        <time>2022-02-09T13:36:21Z</time>
      </trkpt>
      <trkpt lat="42.85831" lon="0.24673">
        <ele>1934.6</ele>
        <time>2022-02-09T13:36:22Z</time>
      </trkpt>
      <trkpt lat="42.85832" lon="0.24679">
        <ele>1934.5</ele>
        <time>2022-02-09T13:36:23Z</time>
      </trkpt>
      <trkpt lat="42.85832" lon="0.24685">
        <ele>1934.4</ele>
        <time>2022-02-09T13:36:24Z</time>
      </trkpt>
      <trkpt lat="42.85832" lon="0.2469">
        <ele>1934.3</ele>
        <time>2022-02-09T13:36:25Z</time>
      </trkpt>
      <trkpt lat="42.85831" lon="0.24694">
        <ele>1934.2</ele>
        <time>2022-02-09T13:36:26Z</time>
      </trkpt>
      <trkpt lat="42.8583" lon="0.24695">
        <ele>1934.2</ele>
        <time>2022-02-09T13:36:27Z</time>
      </trkpt>
      <trkpt lat="42.85828" lon="0.24694">
        <ele>1932.3</ele>
        <time>2022-02-09T13:36:28Z</time>
      </trkpt>
      <trkpt lat="42.85827" lon="0.24691">
        <ele>1932.4</ele>
        <time>2022-02-09T13:36:29Z</time>
      </trkpt>
      <trkpt lat="42.85825" lon="0.24689">
        <ele>1930.7</ele>
        <time>2022-02-09T13:36:30Z</time>
      </trkpt>
      <trkpt lat="42.85823" lon="0.2469">
        <ele>1930.7</ele>
        <time>2022-02-09T13:36:31Z</time>
      </trkpt>
      <trkpt lat="42.85821" lon="0.24692">
        <ele>1929</ele>
        <time>2022-02-09T13:36:32Z</time>
      </trkpt>
      <trkpt lat="42.85818" lon="0.24693">
        <ele>1927.2</ele>
        <time>2022-02-09T13:36:33Z</time>
      </trkpt>
      <trkpt lat="42.85815" lon="0.24691">
        <ele>1925.4</ele>
        <time>2022-02-09T13:36:34Z</time>
      </trkpt>
      <trkpt lat="42.85812" lon="0.2469">
        <ele>1923.4</ele>
        <time>2022-02-09T13:36:35Z</time>
      </trkpt>
      <trkpt lat="42.8581" lon="0.24691">
        <ele>1923.4</ele>
        <time>2022-02-09T13:36:36Z</time>
      </trkpt>
      <trkpt lat="42.85809" lon="0.24694">
        <ele>1921.1</ele>
        <time>2022-02-09T13:36:37Z</time>
      </trkpt>
      <trkpt lat="42.85808" lon="0.24695">
        <ele>1921.1</ele>
        <time>2022-02-09T13:36:38Z</time>
      </trkpt>
      <trkpt lat="42.85808" lon="0.24695">
        <ele>1921.1</ele>
        <time>2022-02-09T13:36:39Z</time>
      </trkpt>
      <trkpt lat="42.85807" lon="0.24695">
        <ele>1921.1</ele>
        <time>2022-02-09T13:36:40Z</time>
      </trkpt>
      <trkpt lat="42.85807" lon="0.24695">
        <ele>1921.1</ele>
        <time>2022-02-09T13:36:41Z</time>
      </trkpt>
      <trkpt lat="42.85807" lon="0.24695">
        <ele>1921.1</ele>
        <time>2022-02-09T13:36:42Z</time>
      </trkpt>
      <trkpt lat="42.85807" lon="0.24695">
        <ele>1921.1</ele>
        <time>2022-02-09T13:36:43Z</time>
      </trkpt>
      <trkpt lat="42.85807" lon="0.24695">
        <ele>1921.1</ele>
        <time>2022-02-09T13:36:44Z</time>
      </trkpt>
      <trkpt lat="42.85807" lon="0.24697">
        <ele>1921.1</ele>
        <time>2022-02-09T13:36:45Z</time>
      </trkpt>
      <trkpt lat="42.85805" lon="0.24699">
        <ele>1918.8</ele>
        <time>2022-02-09T13:36:46Z</time>
      </trkpt>
      <trkpt lat="42.85802" lon="0.24699">
        <ele>1916.9</ele>
        <time>2022-02-09T13:36:47Z</time>
      </trkpt>
      <trkpt lat="42.858" lon="0.24696">
        <ele>1915.3</ele>
        <time>2022-02-09T13:36:48Z</time>
      </trkpt>
      <trkpt lat="42.85798" lon="0.24693">
        <ele>1915.7</ele>
        <time>2022-02-09T13:36:49Z</time>
      </trkpt>
      <trkpt lat="42.85795" lon="0.24693">
        <ele>1913.9</ele>
        <time>2022-02-09T13:36:50Z</time>
      </trkpt>
      <trkpt lat="42.85792" lon="0.24696">
        <ele>1911.7</ele>
        <time>2022-02-09T13:36:51Z</time>
      </trkpt>
      <trkpt lat="42.8579" lon="0.24699">
        <ele>1909.5</ele>
        <time>2022-02-09T13:36:52Z</time>
      </trkpt>
      <trkpt lat="42.85787" lon="0.24698">
        <ele>1907.7</ele>
        <time>2022-02-09T13:36:53Z</time>
      </trkpt>
      <trkpt lat="42.85785" lon="0.24696">
        <ele>1906.3</ele>
        <time>2022-02-09T13:36:54Z</time>
      </trkpt>
      <trkpt lat="42.85782" lon="0.24696">
        <ele>1906.3</ele>
        <time>2022-02-09T13:36:55Z</time>
      </trkpt>
      <trkpt lat="42.85779" lon="0.24698">
        <ele>1904.4</ele>
        <time>2022-02-09T13:36:56Z</time>
      </trkpt>
      <trkpt lat="42.85777" lon="0.24699">
        <ele>1902.1</ele>
        <time>2022-02-09T13:36:57Z</time>
      </trkpt>
      <trkpt lat="42.85775" lon="0.24698">
        <ele>1900.3</ele>
        <time>2022-02-09T13:36:58Z</time>
      </trkpt>
      <trkpt lat="42.85774" lon="0.24695">
        <ele>1900.8</ele>
        <time>2022-02-09T13:36:59Z</time>
      </trkpt>
      <trkpt lat="42.85772" lon="0.24693">
        <ele>1899.6</ele>
        <time>2022-02-09T13:37:00Z</time>
      </trkpt>
      <trkpt lat="42.8577" lon="0.24693">
        <ele>1899.6</ele>
        <time>2022-02-09T13:37:01Z</time>
      </trkpt>
      <trkpt lat="42.85768" lon="0.24696">
        <ele>1897.4</ele>
        <time>2022-02-09T13:37:02Z</time>
      </trkpt>
      <trkpt lat="42.85767" lon="0.24699">
        <ele>1896.9</ele>
        <time>2022-02-09T13:37:03Z</time>
      </trkpt>
      <trkpt lat="42.85767" lon="0.24701">
        <ele>1896.9</ele>
        <time>2022-02-09T13:37:04Z</time>
      </trkpt>
      <trkpt lat="42.85767" lon="0.24705">
        <ele>1896.4</ele>
        <time>2022-02-09T13:37:05Z</time>
      </trkpt>
      <trkpt lat="42.85767" lon="0.24709">
        <ele>1895.8</ele>
        <time>2022-02-09T13:37:06Z</time>
      </trkpt>
      <trkpt lat="42.85767" lon="0.24713">
        <ele>1895.3</ele>
        <time>2022-02-09T13:37:07Z</time>
      </trkpt>
      <trkpt lat="42.85767" lon="0.24717">
        <ele>1894.9</ele>
        <time>2022-02-09T13:37:08Z</time>
      </trkpt>
      <trkpt lat="42.85766" lon="0.24721">
        <ele>1894.4</ele>
        <time>2022-02-09T13:37:09Z</time>
      </trkpt>
      <trkpt lat="42.85766" lon="0.24724">
        <ele>1892.4</ele>
        <time>2022-02-09T13:37:10Z</time>
      </trkpt>
      <trkpt lat="42.85766" lon="0.24728">
        <ele>1892.4</ele>
        <time>2022-02-09T13:37:11Z</time>
      </trkpt>
      <trkpt lat="42.85766" lon="0.24731">
        <ele>1892</ele>
        <time>2022-02-09T13:37:12Z</time>
      </trkpt>
      <trkpt lat="42.85766" lon="0.24735">
        <ele>1891.7</ele>
        <time>2022-02-09T13:37:13Z</time>
      </trkpt>
      <trkpt lat="42.85766" lon="0.24738">
        <ele>1891.4</ele>
        <time>2022-02-09T13:37:14Z</time>
      </trkpt>
      <trkpt lat="42.85766" lon="0.24742">
        <ele>1892.9</ele>
        <time>2022-02-09T13:37:15Z</time>
      </trkpt>
      <trkpt lat="42.85766" lon="0.24747">
        <ele>1892.7</ele>
        <time>2022-02-09T13:37:16Z</time>
      </trkpt>
      <trkpt lat="42.85766" lon="0.24752">
        <ele>1892.5</ele>
        <time>2022-02-09T13:37:17Z</time>
      </trkpt>
      <trkpt lat="42.85766" lon="0.24758">
        <ele>1892.2</ele>
        <time>2022-02-09T13:37:18Z</time>
      </trkpt>
      <trkpt lat="42.85765" lon="0.24764">
        <ele>1890.4</ele>
        <time>2022-02-09T13:37:19Z</time>
      </trkpt>
      <trkpt lat="42.85764" lon="0.24768">
        <ele>1890.4</ele>
        <time>2022-02-09T13:37:20Z</time>
      </trkpt>
      <trkpt lat="42.85763" lon="0.24771">
        <ele>1890.3</ele>
        <time>2022-02-09T13:37:21Z</time>
      </trkpt>
      <trkpt lat="42.85762" lon="0.24774">
        <ele>1888.7</ele>
        <time>2022-02-09T13:37:22Z</time>
      </trkpt>
      <trkpt lat="42.85761" lon="0.24776">
        <ele>1888.7</ele>
        <time>2022-02-09T13:37:23Z</time>
      </trkpt>
      <trkpt lat="42.8576" lon="0.24778">
        <ele>1888.7</ele>
        <time>2022-02-09T13:37:24Z</time>
      </trkpt>
      <trkpt lat="42.85758" lon="0.24781">
        <ele>1887</ele>
        <time>2022-02-09T13:37:25Z</time>
      </trkpt>
      <trkpt lat="42.85756" lon="0.24785">
        <ele>1885.4</ele>
        <time>2022-02-09T13:37:26Z</time>
      </trkpt>
      <trkpt lat="42.85755" lon="0.2479">
        <ele>1885.4</ele>
        <time>2022-02-09T13:37:27Z</time>
      </trkpt>
      <trkpt lat="42.85753" lon="0.24794">
        <ele>1883.8</ele>
        <time>2022-02-09T13:37:28Z</time>
      </trkpt>
      <trkpt lat="42.85752" lon="0.24798">
        <ele>1883.8</ele>
        <time>2022-02-09T13:37:29Z</time>
      </trkpt>
      <trkpt lat="42.85751" lon="0.248">
        <ele>1883.8</ele>
        <time>2022-02-09T13:37:30Z</time>
      </trkpt>
      <trkpt lat="42.8575" lon="0.24804">
        <ele>1882.1</ele>
        <time>2022-02-09T13:37:31Z</time>
      </trkpt>
      <trkpt lat="42.85748" lon="0.24808">
        <ele>1882.2</ele>
        <time>2022-02-09T13:37:32Z</time>
      </trkpt>
      <trkpt lat="42.85747" lon="0.24812">
        <ele>1880.6</ele>
        <time>2022-02-09T13:37:33Z</time>
      </trkpt>
      <trkpt lat="42.85745" lon="0.24817">
        <ele>1880.7</ele>
        <time>2022-02-09T13:37:34Z</time>
      </trkpt>
      <trkpt lat="42.85744" lon="0.24822">
        <ele>1879.3</ele>
        <time>2022-02-09T13:37:35Z</time>
      </trkpt>
      <trkpt lat="42.85742" lon="0.24827">
        <ele>1879.5</ele>
        <time>2022-02-09T13:37:36Z</time>
      </trkpt>
      <trkpt lat="42.85741" lon="0.24833">
        <ele>1878.3</ele>
        <time>2022-02-09T13:37:37Z</time>
      </trkpt>
      <trkpt lat="42.85739" lon="0.24838">
        <ele>1878.5</ele>
        <time>2022-02-09T13:37:38Z</time>
      </trkpt>
      <trkpt lat="42.85738" lon="0.24843">
        <ele>1878.7</ele>
        <time>2022-02-09T13:37:39Z</time>
      </trkpt>
      <trkpt lat="42.85737" lon="0.24848">
        <ele>1878</ele>
        <time>2022-02-09T13:37:40Z</time>
      </trkpt>
      <trkpt lat="42.85735" lon="0.24854">
        <ele>1878.3</ele>
        <time>2022-02-09T13:37:41Z</time>
      </trkpt>
      <trkpt lat="42.85734" lon="0.24859">
        <ele>1877.5</ele>
        <time>2022-02-09T13:37:42Z</time>
      </trkpt>
      <trkpt lat="42.85732" lon="0.24864">
        <ele>1877.8</ele>
        <time>2022-02-09T13:37:43Z</time>
      </trkpt>
      <trkpt lat="42.85731" lon="0.24868">
        <ele>1876.9</ele>
        <time>2022-02-09T13:37:44Z</time>
      </trkpt>
      <trkpt lat="42.85729" lon="0.24872">
        <ele>1877.2</ele>
        <time>2022-02-09T13:37:45Z</time>
      </trkpt>
      <trkpt lat="42.85728" lon="0.24876">
        <ele>1876.1</ele>
        <time>2022-02-09T13:37:46Z</time>
      </trkpt>
      <trkpt lat="42.85726" lon="0.24881">
        <ele>1876.4</ele>
        <time>2022-02-09T13:37:47Z</time>
      </trkpt>
      <trkpt lat="42.85724" lon="0.24886">
        <ele>1875.3</ele>
        <time>2022-02-09T13:37:48Z</time>
      </trkpt>
      <trkpt lat="42.85722" lon="0.24891">
        <ele>1874.4</ele>
        <time>2022-02-09T13:37:49Z</time>
      </trkpt>
      <trkpt lat="42.8572" lon="0.24897">
        <ele>1874.6</ele>
        <time>2022-02-09T13:37:50Z</time>
      </trkpt>
      <trkpt lat="42.85718" lon="0.24903">
        <ele>1873.5</ele>
        <time>2022-02-09T13:37:51Z</time>
      </trkpt>
      <trkpt lat="42.85716" lon="0.24909">
        <ele>1874</ele>
        <time>2022-02-09T13:37:52Z</time>
      </trkpt>
      <trkpt lat="42.85714" lon="0.24915">
        <ele>1873</ele>
        <time>2022-02-09T13:37:53Z</time>
      </trkpt>
      <trkpt lat="42.85712" lon="0.2492">
        <ele>1873.2</ele>
        <time>2022-02-09T13:37:54Z</time>
      </trkpt>
      <trkpt lat="42.85712" lon="0.24923">
        <ele>1872.2</ele>
        <time>2022-02-09T13:37:55Z</time>
      </trkpt>
      <trkpt lat="42.85712" lon="0.24924">
        <ele>1872.2</ele>
        <time>2022-02-09T13:37:56Z</time>
      </trkpt>
      <trkpt lat="42.85712" lon="0.24924">
        <ele>1872.2</ele>
        <time>2022-02-09T13:37:57Z</time>
      </trkpt>
      <trkpt lat="42.85712" lon="0.24924">
        <ele>1872.2</ele>
        <time>2022-02-09T13:37:58Z</time>
      </trkpt>
      <trkpt lat="42.85712" lon="0.24924">
        <ele>1872.2</ele>
        <time>2022-02-09T13:37:59Z</time>
      </trkpt>
      <trkpt lat="42.85712" lon="0.24924">
        <ele>1872.2</ele>
        <time>2022-02-09T13:38:00Z</time>
      </trkpt>
      <trkpt lat="42.85712" lon="0.24924">
        <ele>1872.2</ele>
        <time>2022-02-09T13:38:01Z</time>
      </trkpt>
      <trkpt lat="42.85712" lon="0.24924">
        <ele>1872.2</ele>
        <time>2022-02-09T13:38:02Z</time>
      </trkpt>
      <trkpt lat="42.85712" lon="0.24924">
        <ele>1872.2</ele>
        <time>2022-02-09T13:38:03Z</time>
      </trkpt>
      <trkpt lat="42.85712" lon="0.24924">
        <ele>1872.2</ele>
        <time>2022-02-09T13:38:04Z</time>
      </trkpt>
      <trkpt lat="42.85712" lon="0.24924">
        <ele>1872.2</ele>
        <time>2022-02-09T13:38:05Z</time>
      </trkpt>
      <trkpt lat="42.85712" lon="0.24924">
        <ele>1872.2</ele>
        <time>2022-02-09T13:38:06Z</time>
      </trkpt>
      <trkpt lat="42.85712" lon="0.24924">
        <ele>1872.2</ele>
        <time>2022-02-09T13:38:07Z</time>
      </trkpt>
      <trkpt lat="42.85712" lon="0.24924">
        <ele>1872.2</ele>
        <time>2022-02-09T13:38:08Z</time>
      </trkpt>
      <trkpt lat="42.85712" lon="0.24924">
        <ele>1872.2</ele>
        <time>2022-02-09T13:38:09Z</time>
      </trkpt>
      <trkpt lat="42.85712" lon="0.24924">
        <ele>1872.2</ele>
        <time>2022-02-09T13:38:10Z</time>
      </trkpt>
      <trkpt lat="42.85712" lon="0.24924">
        <ele>1872.2</ele>
        <time>2022-02-09T13:38:11Z</time>
      </trkpt>
      <trkpt lat="42.85712" lon="0.24924">
        <ele>1872.2</ele>
        <time>2022-02-09T13:38:12Z</time>
      </trkpt>
      <trkpt lat="42.85712" lon="0.24924">
        <ele>1872.2</ele>
        <time>2022-02-09T13:38:13Z</time>
      </trkpt>
      <trkpt lat="42.85712" lon="0.24924">
        <ele>1872.2</ele>
        <time>2022-02-09T13:38:14Z</time>
      </trkpt>
      <trkpt lat="42.85712" lon="0.24924">
        <ele>1872.2</ele>
        <time>2022-02-09T13:38:15Z</time>
      </trkpt>
      <trkpt lat="42.85712" lon="0.24924">
        <ele>1872.2</ele>
        <time>2022-02-09T13:38:16Z</time>
      </trkpt>
      <trkpt lat="42.85712" lon="0.24924">
        <ele>1872.2</ele>
        <time>2022-02-09T13:38:17Z</time>
      </trkpt>
      <trkpt lat="42.85712" lon="0.24924">
        <ele>1872.2</ele>
        <time>2022-02-09T13:38:18Z</time>
      </trkpt>
      <trkpt lat="42.85712" lon="0.24924">
        <ele>1872.2</ele>
        <time>2022-02-09T13:38:19Z</time>
      </trkpt>
      <trkpt lat="42.85712" lon="0.24924">
        <ele>1872.2</ele>
        <time>2022-02-09T13:38:20Z</time>
      </trkpt>
      <trkpt lat="42.85712" lon="0.24924">
        <ele>1872.2</ele>
        <time>2022-02-09T13:38:21Z</time>
      </trkpt>
      <trkpt lat="42.85712" lon="0.24924">
        <ele>1872.2</ele>
        <time>2022-02-09T13:38:22Z</time>
      </trkpt>
      <trkpt lat="42.85712" lon="0.24924">
        <ele>1872.2</ele>
        <time>2022-02-09T13:38:23Z</time>
      </trkpt>
      <trkpt lat="42.85712" lon="0.24924">
        <ele>1872.2</ele>
        <time>2022-02-09T13:38:24Z</time>
      </trkpt>
      <trkpt lat="42.85712" lon="0.24924">
        <ele>1872.2</ele>
        <time>2022-02-09T13:38:25Z</time>
      </trkpt>
      <trkpt lat="42.85712" lon="0.24924">
        <ele>1872.2</ele>
        <time>2022-02-09T13:38:26Z</time>
      </trkpt>
      <trkpt lat="42.85712" lon="0.24924">
        <ele>1872.2</ele>
        <time>2022-02-09T13:38:27Z</time>
      </trkpt>
      <trkpt lat="42.85712" lon="0.24924">
        <ele>1872.2</ele>
        <time>2022-02-09T13:38:28Z</time>
      </trkpt>
      <trkpt lat="42.85712" lon="0.24924">
        <ele>1872.2</ele>
        <time>2022-02-09T13:38:29Z</time>
      </trkpt>
      <trkpt lat="42.85712" lon="0.24924">
        <ele>1872.2</ele>
        <time>2022-02-09T13:38:30Z</time>
      </trkpt>
      <trkpt lat="42.85712" lon="0.24924">
        <ele>1872.2</ele>
        <time>2022-02-09T13:38:31Z</time>
      </trkpt>
      <trkpt lat="42.85712" lon="0.24924">
        <ele>1872.2</ele>
        <time>2022-02-09T13:38:32Z</time>
      </trkpt>
      <trkpt lat="42.85712" lon="0.24924">
        <ele>1872.2</ele>
        <time>2022-02-09T13:38:33Z</time>
      </trkpt>
      <trkpt lat="42.85712" lon="0.24924">
        <ele>1872.2</ele>
        <time>2022-02-09T13:38:34Z</time>
      </trkpt>
      <trkpt lat="42.85712" lon="0.24924">
        <ele>1872.3</ele>
        <time>2022-02-09T13:38:35Z</time>
      </trkpt>
      <trkpt lat="42.85712" lon="0.24924">
        <ele>1872.3</ele>
        <time>2022-02-09T13:38:36Z</time>
      </trkpt>
      <trkpt lat="42.85712" lon="0.24924">
        <ele>1872.3</ele>
        <time>2022-02-09T13:38:37Z</time>
      </trkpt>
      <trkpt lat="42.85712" lon="0.24924">
        <ele>1872.3</ele>
        <time>2022-02-09T13:38:38Z</time>
      </trkpt>
      <trkpt lat="42.85711" lon="0.24925">
        <ele>1872.3</ele>
        <time>2022-02-09T13:38:39Z</time>
      </trkpt>
      <trkpt lat="42.85709" lon="0.24928">
        <ele>1872.4</ele>
        <time>2022-02-09T13:38:40Z</time>
      </trkpt>
      <trkpt lat="42.85709" lon="0.24929">
        <ele>1871.4</ele>
        <time>2022-02-09T13:38:41Z</time>
      </trkpt>
      <trkpt lat="42.85708" lon="0.24931">
        <ele>1871.5</ele>
        <time>2022-02-09T13:38:42Z</time>
      </trkpt>
      <trkpt lat="42.85708" lon="0.24931">
        <ele>1871.5</ele>
        <time>2022-02-09T13:38:43Z</time>
      </trkpt>
      <trkpt lat="42.85708" lon="0.24931">
        <ele>1871.5</ele>
        <time>2022-02-09T13:38:44Z</time>
      </trkpt>
      <trkpt lat="42.85707" lon="0.24933">
        <ele>1871.5</ele>
        <time>2022-02-09T13:38:45Z</time>
      </trkpt>
      <trkpt lat="42.85706" lon="0.24937">
        <ele>1870.6</ele>
        <time>2022-02-09T13:38:46Z</time>
      </trkpt>
      <trkpt lat="42.85705" lon="0.24941">
        <ele>1870.8</ele>
        <time>2022-02-09T13:38:47Z</time>
      </trkpt>
      <trkpt lat="42.85703" lon="0.24946">
        <ele>1870.9</ele>
        <time>2022-02-09T13:38:48Z</time>
      </trkpt>
      <trkpt lat="42.85702" lon="0.24949">
        <ele>1869.9</ele>
        <time>2022-02-09T13:38:49Z</time>
      </trkpt>
      <trkpt lat="42.85701" lon="0.24952">
        <ele>1870</ele>
        <time>2022-02-09T13:38:50Z</time>
      </trkpt>
      <trkpt lat="42.857" lon="0.24955">
        <ele>1870</ele>
        <time>2022-02-09T13:38:51Z</time>
      </trkpt>
      <trkpt lat="42.85698" lon="0.24959">
        <ele>1868.8</ele>
        <time>2022-02-09T13:38:52Z</time>
      </trkpt>
      <trkpt lat="42.85696" lon="0.24964">
        <ele>1867.7</ele>
        <time>2022-02-09T13:38:53Z</time>
      </trkpt>
      <trkpt lat="42.85694" lon="0.2497">
        <ele>1867.7</ele>
        <time>2022-02-09T13:38:54Z</time>
      </trkpt>
      <trkpt lat="42.85692" lon="0.24976">
        <ele>1866.4</ele>
        <time>2022-02-09T13:38:55Z</time>
      </trkpt>
      <trkpt lat="42.85691" lon="0.24982">
        <ele>1866.3</ele>
        <time>2022-02-09T13:38:56Z</time>
      </trkpt>
      <trkpt lat="42.85688" lon="0.24987">
        <ele>1865</ele>
        <time>2022-02-09T13:38:57Z</time>
      </trkpt>
      <trkpt lat="42.85687" lon="0.24991">
        <ele>1863.7</ele>
        <time>2022-02-09T13:38:58Z</time>
      </trkpt>
      <trkpt lat="42.85686" lon="0.24994">
        <ele>1863.6</ele>
        <time>2022-02-09T13:38:59Z</time>
      </trkpt>
      <trkpt lat="42.85685" lon="0.24996">
        <ele>1863.6</ele>
        <time>2022-02-09T13:39:00Z</time>
      </trkpt>
      <trkpt lat="42.85685" lon="0.24997">
        <ele>1863.6</ele>
        <time>2022-02-09T13:39:01Z</time>
      </trkpt>
      <trkpt lat="42.85685" lon="0.24997">
        <ele>1863.6</ele>
        <time>2022-02-09T13:39:02Z</time>
      </trkpt>
      <trkpt lat="42.85685" lon="0.24997">
        <ele>1863.6</ele>
        <time>2022-02-09T13:39:03Z</time>
      </trkpt>
      <trkpt lat="42.85685" lon="0.24997">
        <ele>1863.6</ele>
        <time>2022-02-09T13:39:04Z</time>
      </trkpt>
      <trkpt lat="42.85685" lon="0.24997">
        <ele>1863.6</ele>
        <time>2022-02-09T13:39:05Z</time>
      </trkpt>
      <trkpt lat="42.85685" lon="0.24997">
        <ele>1863.6</ele>
        <time>2022-02-09T13:39:06Z</time>
      </trkpt>
      <trkpt lat="42.85685" lon="0.24997">
        <ele>1863.6</ele>
        <time>2022-02-09T13:39:07Z</time>
      </trkpt>
      <trkpt lat="42.85685" lon="0.24997">
        <ele>1863.6</ele>
        <time>2022-02-09T13:39:08Z</time>
      </trkpt>
      <trkpt lat="42.85685" lon="0.24998">
        <ele>1863.4</ele>
        <time>2022-02-09T13:39:09Z</time>
      </trkpt>
      <trkpt lat="42.85683" lon="0.25002">
        <ele>1862.3</ele>
        <time>2022-02-09T13:39:10Z</time>
      </trkpt>
      <trkpt lat="42.85682" lon="0.25004">
        <ele>1862.1</ele>
        <time>2022-02-09T13:39:11Z</time>
      </trkpt>
      <trkpt lat="42.85682" lon="0.25005">
        <ele>1862.1</ele>
        <time>2022-02-09T13:39:12Z</time>
      </trkpt>
      <trkpt lat="42.85681" lon="0.25004">
        <ele>1861</ele>
        <time>2022-02-09T13:39:13Z</time>
      </trkpt>
      <trkpt lat="42.85678" lon="0.25002">
        <ele>1861.2</ele>
        <time>2022-02-09T13:39:14Z</time>
      </trkpt>
      <trkpt lat="42.85676" lon="0.25001">
        <ele>1860</ele>
        <time>2022-02-09T13:39:15Z</time>
      </trkpt>
      <trkpt lat="42.85675" lon="0.25003">
        <ele>1858.7</ele>
        <time>2022-02-09T13:39:16Z</time>
      </trkpt>
      <trkpt lat="42.85673" lon="0.25006">
        <ele>1858.7</ele>
        <time>2022-02-09T13:39:17Z</time>
      </trkpt>
      <trkpt lat="42.85672" lon="0.25008">
        <ele>1858.5</ele>
        <time>2022-02-09T13:39:18Z</time>
      </trkpt>
      <trkpt lat="42.8567" lon="0.25012">
        <ele>1857.1</ele>
        <time>2022-02-09T13:39:19Z</time>
      </trkpt>
      <trkpt lat="42.85669" lon="0.25017">
        <ele>1856.8</ele>
        <time>2022-02-09T13:39:20Z</time>
      </trkpt>
      <trkpt lat="42.85667" lon="0.25022">
        <ele>1855.3</ele>
        <time>2022-02-09T13:39:21Z</time>
      </trkpt>
      <trkpt lat="42.85665" lon="0.25027">
        <ele>1855</ele>
        <time>2022-02-09T13:39:22Z</time>
      </trkpt>
      <trkpt lat="42.85664" lon="0.25033">
        <ele>1853</ele>
        <time>2022-02-09T13:39:23Z</time>
      </trkpt>
      <trkpt lat="42.85662" lon="0.25038">
        <ele>1851.5</ele>
        <time>2022-02-09T13:39:24Z</time>
      </trkpt>
      <trkpt lat="42.85659" lon="0.25042">
        <ele>1850.1</ele>
        <time>2022-02-09T13:39:25Z</time>
      </trkpt>
      <trkpt lat="42.85654" lon="0.25044">
        <ele>1849.1</ele>
        <time>2022-02-09T13:39:26Z</time>
      </trkpt>
      <trkpt lat="42.85649" lon="0.25045">
        <ele>1847.2</ele>
        <time>2022-02-09T13:39:27Z</time>
      </trkpt>
      <trkpt lat="42.85646" lon="0.25048">
        <ele>1845.8</ele>
        <time>2022-02-09T13:39:28Z</time>
      </trkpt>
      <trkpt lat="42.85645" lon="0.25052">
        <ele>1845.3</ele>
        <time>2022-02-09T13:39:29Z</time>
      </trkpt>
      <trkpt lat="42.85645" lon="0.25056">
        <ele>1844.8</ele>
        <time>2022-02-09T13:39:30Z</time>
      </trkpt>
      <trkpt lat="42.85646" lon="0.25059">
        <ele>1844.2</ele>
        <time>2022-02-09T13:39:31Z</time>
      </trkpt>
      <trkpt lat="42.85645" lon="0.25061">
        <ele>1844.2</ele>
        <time>2022-02-09T13:39:32Z</time>
      </trkpt>
      <trkpt lat="42.85643" lon="0.25062">
        <ele>1843.4</ele>
        <time>2022-02-09T13:39:33Z</time>
      </trkpt>
      <trkpt lat="42.8564" lon="0.25062">
        <ele>1843.4</ele>
        <time>2022-02-09T13:39:34Z</time>
      </trkpt>
      <trkpt lat="42.85637" lon="0.25062">
        <ele>1842.6</ele>
        <time>2022-02-09T13:39:35Z</time>
      </trkpt>
      <trkpt lat="42.85634" lon="0.25061">
        <ele>1841.8</ele>
        <time>2022-02-09T13:39:36Z</time>
      </trkpt>
      <trkpt lat="42.85631" lon="0.25059">
        <ele>1841.1</ele>
        <time>2022-02-09T13:39:37Z</time>
      </trkpt>
      <trkpt lat="42.85628" lon="0.25057">
        <ele>1841</ele>
        <time>2022-02-09T13:39:38Z</time>
      </trkpt>
      <trkpt lat="42.85624" lon="0.25057">
        <ele>1840.4</ele>
        <time>2022-02-09T13:39:39Z</time>
      </trkpt>
      <trkpt lat="42.85622" lon="0.25058">
        <ele>1840</ele>
        <time>2022-02-09T13:39:40Z</time>
      </trkpt>
      <trkpt lat="42.8562" lon="0.2506">
        <ele>1839.1</ele>
        <time>2022-02-09T13:39:41Z</time>
      </trkpt>
      <trkpt lat="42.85617" lon="0.25064">
        <ele>1838.2</ele>
        <time>2022-02-09T13:39:42Z</time>
      </trkpt>
      <trkpt lat="42.85613" lon="0.25067">
        <ele>1837.3</ele>
        <time>2022-02-09T13:39:43Z</time>
      </trkpt>
      <trkpt lat="42.85609" lon="0.25071">
        <ele>1836.4</ele>
        <time>2022-02-09T13:39:44Z</time>
      </trkpt>
      <trkpt lat="42.85607" lon="0.25078">
        <ele>1835.4</ele>
        <time>2022-02-09T13:39:45Z</time>
      </trkpt>
      <trkpt lat="42.85606" lon="0.25085">
        <ele>1834.3</ele>
        <time>2022-02-09T13:39:46Z</time>
      </trkpt>
      <trkpt lat="42.85607" lon="0.25091">
        <ele>1833.7</ele>
        <time>2022-02-09T13:39:47Z</time>
      </trkpt>
      <trkpt lat="42.85608" lon="0.25096">
        <ele>1833.2</ele>
        <time>2022-02-09T13:39:48Z</time>
      </trkpt>
      <trkpt lat="42.8561" lon="0.251">
        <ele>1833</ele>
        <time>2022-02-09T13:39:49Z</time>
      </trkpt>
      <trkpt lat="42.85611" lon="0.25104">
        <ele>1832.5</ele>
        <time>2022-02-09T13:39:50Z</time>
      </trkpt>
      <trkpt lat="42.85613" lon="0.25107">
        <ele>1832.2</ele>
        <time>2022-02-09T13:39:51Z</time>
      </trkpt>
      <trkpt lat="42.85614" lon="0.2511">
        <ele>1832.3</ele>
        <time>2022-02-09T13:39:52Z</time>
      </trkpt>
      <trkpt lat="42.85614" lon="0.25112">
        <ele>1831.7</ele>
        <time>2022-02-09T13:39:53Z</time>
      </trkpt>
      <trkpt lat="42.85615" lon="0.25114">
        <ele>1831.7</ele>
        <time>2022-02-09T13:39:54Z</time>
      </trkpt>
      <trkpt lat="42.85615" lon="0.25115">
        <ele>1831.4</ele>
        <time>2022-02-09T13:39:55Z</time>
      </trkpt>
      <trkpt lat="42.85615" lon="0.25116">
        <ele>1831.4</ele>
        <time>2022-02-09T13:39:56Z</time>
      </trkpt>
      <trkpt lat="42.85615" lon="0.25118">
        <ele>1831.4</ele>
        <time>2022-02-09T13:39:57Z</time>
      </trkpt>
      <trkpt lat="42.85615" lon="0.25119">
        <ele>1830.8</ele>
        <time>2022-02-09T13:39:58Z</time>
      </trkpt>
      <trkpt lat="42.85615" lon="0.25121">
        <ele>1830.5</ele>
        <time>2022-02-09T13:39:59Z</time>
      </trkpt>
      <trkpt lat="42.85614" lon="0.25124">
        <ele>1830</ele>
        <time>2022-02-09T13:40:00Z</time>
      </trkpt>
      <trkpt lat="42.85613" lon="0.25127">
        <ele>1830</ele>
        <time>2022-02-09T13:40:01Z</time>
      </trkpt>
      <trkpt lat="42.85613" lon="0.25131">
        <ele>1829.5</ele>
        <time>2022-02-09T13:40:02Z</time>
      </trkpt>
      <trkpt lat="42.85612" lon="0.25135">
        <ele>1828.8</ele>
        <time>2022-02-09T13:40:03Z</time>
      </trkpt>
      <trkpt lat="42.85611" lon="0.25141">
        <ele>1827.9</ele>
        <time>2022-02-09T13:40:04Z</time>
      </trkpt>
      <trkpt lat="42.85609" lon="0.25148">
        <ele>1827.4</ele>
        <time>2022-02-09T13:40:05Z</time>
      </trkpt>
      <trkpt lat="42.85608" lon="0.25155">
        <ele>1826.4</ele>
        <time>2022-02-09T13:40:06Z</time>
      </trkpt>
      <trkpt lat="42.85608" lon="0.25164">
        <ele>1825.4</ele>
        <time>2022-02-09T13:40:07Z</time>
      </trkpt>
      <trkpt lat="42.85608" lon="0.25172">
        <ele>1824.3</ele>
        <time>2022-02-09T13:40:08Z</time>
      </trkpt>
      <trkpt lat="42.85609" lon="0.25181">
        <ele>1823.2</ele>
        <time>2022-02-09T13:40:09Z</time>
      </trkpt>
      <trkpt lat="42.85609" lon="0.2519">
        <ele>1822.2</ele>
        <time>2022-02-09T13:40:10Z</time>
      </trkpt>
      <trkpt lat="42.8561" lon="0.25199">
        <ele>1821.2</ele>
        <time>2022-02-09T13:40:11Z</time>
      </trkpt>
      <trkpt lat="42.8561" lon="0.25208">
        <ele>1820.1</ele>
        <time>2022-02-09T13:40:12Z</time>
      </trkpt>
      <trkpt lat="42.8561" lon="0.25216">
        <ele>1819</ele>
        <time>2022-02-09T13:40:13Z</time>
      </trkpt>
      <trkpt lat="42.85611" lon="0.25224">
        <ele>1817.9</ele>
        <time>2022-02-09T13:40:14Z</time>
      </trkpt>
      <trkpt lat="42.85611" lon="0.25232">
        <ele>1816.9</ele>
        <time>2022-02-09T13:40:15Z</time>
      </trkpt>
      <trkpt lat="42.85611" lon="0.25241">
        <ele>1815.9</ele>
        <time>2022-02-09T13:40:16Z</time>
      </trkpt>
      <trkpt lat="42.85611" lon="0.2525">
        <ele>1814.9</ele>
        <time>2022-02-09T13:40:17Z</time>
      </trkpt>
      <trkpt lat="42.85611" lon="0.25258">
        <ele>1814</ele>
        <time>2022-02-09T13:40:18Z</time>
      </trkpt>
      <trkpt lat="42.85612" lon="0.25265">
        <ele>1813.1</ele>
        <time>2022-02-09T13:40:19Z</time>
      </trkpt>
      <trkpt lat="42.85612" lon="0.2527">
        <ele>1812.5</ele>
        <time>2022-02-09T13:40:20Z</time>
      </trkpt>
      <trkpt lat="42.85611" lon="0.25274">
        <ele>1812.2</ele>
        <time>2022-02-09T13:40:21Z</time>
      </trkpt>
      <trkpt lat="42.85611" lon="0.25277">
        <ele>1812.2</ele>
        <time>2022-02-09T13:40:22Z</time>
      </trkpt>
      <trkpt lat="42.85611" lon="0.25279">
        <ele>1811.9</ele>
        <time>2022-02-09T13:40:23Z</time>
      </trkpt>
      <trkpt lat="42.85612" lon="0.25282">
        <ele>1811.1</ele>
        <time>2022-02-09T13:40:24Z</time>
      </trkpt>
      <trkpt lat="42.85613" lon="0.25285">
        <ele>1811.1</ele>
        <time>2022-02-09T13:40:25Z</time>
      </trkpt>
      <trkpt lat="42.85614" lon="0.2529">
        <ele>1810.8</ele>
        <time>2022-02-09T13:40:26Z</time>
      </trkpt>
      <trkpt lat="42.85615" lon="0.25294">
        <ele>1810.2</ele>
        <time>2022-02-09T13:40:27Z</time>
      </trkpt>
      <trkpt lat="42.85615" lon="0.25298">
        <ele>1809.6</ele>
        <time>2022-02-09T13:40:28Z</time>
      </trkpt>
      <trkpt lat="42.85615" lon="0.253">
        <ele>1809.3</ele>
        <time>2022-02-09T13:40:29Z</time>
      </trkpt>
      <trkpt lat="42.85616" lon="0.25301">
        <ele>1809.3</ele>
        <time>2022-02-09T13:40:30Z</time>
      </trkpt>
      <trkpt lat="42.85616" lon="0.25302">
        <ele>1809.3</ele>
        <time>2022-02-09T13:40:31Z</time>
      </trkpt>
      <trkpt lat="42.85616" lon="0.25302">
        <ele>1809.3</ele>
        <time>2022-02-09T13:40:32Z</time>
      </trkpt>
      <trkpt lat="42.85616" lon="0.25302">
        <ele>1809.3</ele>
        <time>2022-02-09T13:40:33Z</time>
      </trkpt>
      <trkpt lat="42.85616" lon="0.25302">
        <ele>1809.3</ele>
        <time>2022-02-09T13:40:34Z</time>
      </trkpt>
      <trkpt lat="42.85616" lon="0.25302">
        <ele>1809.3</ele>
        <time>2022-02-09T13:40:35Z</time>
      </trkpt>
      <trkpt lat="42.85616" lon="0.25302">
        <ele>1809.3</ele>
        <time>2022-02-09T13:40:36Z</time>
      </trkpt>
      <trkpt lat="42.85616" lon="0.25302">
        <ele>1809.3</ele>
        <time>2022-02-09T13:40:37Z</time>
      </trkpt>
      <trkpt lat="42.85616" lon="0.25302">
        <ele>1809.3</ele>
        <time>2022-02-09T13:40:38Z</time>
      </trkpt>
      <trkpt lat="42.85616" lon="0.25302">
        <ele>1809.3</ele>
        <time>2022-02-09T13:40:39Z</time>
      </trkpt>
      <trkpt lat="42.85616" lon="0.25302">
        <ele>1809.3</ele>
        <time>2022-02-09T13:40:40Z</time>
      </trkpt>
      <trkpt lat="42.85616" lon="0.25302">
        <ele>1809.3</ele>
        <time>2022-02-09T13:40:41Z</time>
      </trkpt>
      <trkpt lat="42.85616" lon="0.25302">
        <ele>1809.3</ele>
        <time>2022-02-09T13:40:42Z</time>
      </trkpt>
      <trkpt lat="42.85616" lon="0.25302">
        <ele>1809.3</ele>
        <time>2022-02-09T13:40:43Z</time>
      </trkpt>
      <trkpt lat="42.85616" lon="0.25302">
        <ele>1809.3</ele>
        <time>2022-02-09T13:40:44Z</time>
      </trkpt>
      <trkpt lat="42.85616" lon="0.25302">
        <ele>1809.3</ele>
        <time>2022-02-09T13:40:45Z</time>
      </trkpt>
      <trkpt lat="42.85616" lon="0.25302">
        <ele>1809.3</ele>
        <time>2022-02-09T13:40:46Z</time>
      </trkpt>
      <trkpt lat="42.85616" lon="0.25302">
        <ele>1809.3</ele>
        <time>2022-02-09T13:40:47Z</time>
      </trkpt>
      <trkpt lat="42.85616" lon="0.25302">
        <ele>1809.3</ele>
        <time>2022-02-09T13:40:48Z</time>
      </trkpt>
      <trkpt lat="42.85616" lon="0.25302">
        <ele>1809.3</ele>
        <time>2022-02-09T13:40:49Z</time>
      </trkpt>
      <trkpt lat="42.85616" lon="0.25302">
        <ele>1809.3</ele>
        <time>2022-02-09T13:40:50Z</time>
      </trkpt>
      <trkpt lat="42.85616" lon="0.25302">
        <ele>1809.3</ele>
        <time>2022-02-09T13:40:51Z</time>
      </trkpt>
      <trkpt lat="42.85616" lon="0.25302">
        <ele>1809.3</ele>
        <time>2022-02-09T13:40:52Z</time>
      </trkpt>
      <trkpt lat="42.85616" lon="0.25302">
        <ele>1809.3</ele>
        <time>2022-02-09T13:40:53Z</time>
      </trkpt>
      <trkpt lat="42.85616" lon="0.25302">
        <ele>1809.3</ele>
        <time>2022-02-09T13:40:54Z</time>
      </trkpt>
      <trkpt lat="42.85616" lon="0.25302">
        <ele>1809.3</ele>
        <time>2022-02-09T13:40:55Z</time>
      </trkpt>
      <trkpt lat="42.85616" lon="0.25302">
        <ele>1809.3</ele>
        <time>2022-02-09T13:40:56Z</time>
      </trkpt>
      <trkpt lat="42.85616" lon="0.25302">
        <ele>1809.3</ele>
        <time>2022-02-09T13:40:57Z</time>
      </trkpt>
      <trkpt lat="42.85616" lon="0.25302">
        <ele>1809.3</ele>
        <time>2022-02-09T13:40:58Z</time>
      </trkpt>
      <trkpt lat="42.85616" lon="0.25302">
        <ele>1809.3</ele>
        <time>2022-02-09T13:40:59Z</time>
      </trkpt>
      <trkpt lat="42.85616" lon="0.25302">
        <ele>1809.3</ele>
        <time>2022-02-09T13:41:00Z</time>
      </trkpt>
      <trkpt lat="42.85616" lon="0.25302">
        <ele>1809.3</ele>
        <time>2022-02-09T13:41:01Z</time>
      </trkpt>
      <trkpt lat="42.85616" lon="0.25302">
        <ele>1809.3</ele>
        <time>2022-02-09T13:41:02Z</time>
      </trkpt>
      <trkpt lat="42.85616" lon="0.25302">
        <ele>1809.3</ele>
        <time>2022-02-09T13:41:03Z</time>
      </trkpt>
      <trkpt lat="42.85616" lon="0.25302">
        <ele>1809.3</ele>
        <time>2022-02-09T13:41:04Z</time>
      </trkpt>
      <trkpt lat="42.85616" lon="0.25302">
        <ele>1809.3</ele>
        <time>2022-02-09T13:41:05Z</time>
      </trkpt>
      <trkpt lat="42.85616" lon="0.25302">
        <ele>1809.3</ele>
        <time>2022-02-09T13:41:06Z</time>
      </trkpt>
      <trkpt lat="42.85616" lon="0.25302">
        <ele>1809.3</ele>
        <time>2022-02-09T13:41:07Z</time>
      </trkpt>
      <trkpt lat="42.85616" lon="0.25302">
        <ele>1809.3</ele>
        <time>2022-02-09T13:41:08Z</time>
      </trkpt>
      <trkpt lat="42.85616" lon="0.25302">
        <ele>1809.3</ele>
        <time>2022-02-09T13:41:09Z</time>
      </trkpt>
      <trkpt lat="42.85616" lon="0.25302">
        <ele>1809.3</ele>
        <time>2022-02-09T13:41:10Z</time>
      </trkpt>
      <trkpt lat="42.85616" lon="0.25302">
        <ele>1809.3</ele>
        <time>2022-02-09T13:41:11Z</time>
      </trkpt>
      <trkpt lat="42.85617" lon="0.25304">
        <ele>1809</ele>
        <time>2022-02-09T13:41:12Z</time>
      </trkpt>
      <trkpt lat="42.8562" lon="0.25308">
        <ele>1808.1</ele>
        <time>2022-02-09T13:41:13Z</time>
      </trkpt>
      <trkpt lat="42.8562" lon="0.25309">
        <ele>1808.1</ele>
        <time>2022-02-09T13:41:14Z</time>
      </trkpt>
      <trkpt lat="42.85621" lon="0.2531">
        <ele>1808.1</ele>
        <time>2022-02-09T13:41:15Z</time>
      </trkpt>
      <trkpt lat="42.85621" lon="0.25311">
        <ele>1808.1</ele>
        <time>2022-02-09T13:41:16Z</time>
      </trkpt>
      <trkpt lat="42.85621" lon="0.25311">
        <ele>1808.1</ele>
        <time>2022-02-09T13:41:17Z</time>
      </trkpt>
      <trkpt lat="42.85621" lon="0.25311">
        <ele>1808.1</ele>
        <time>2022-02-09T13:41:18Z</time>
      </trkpt>
      <trkpt lat="42.85622" lon="0.25312">
        <ele>1807.3</ele>
        <time>2022-02-09T13:41:19Z</time>
      </trkpt>
      <trkpt lat="42.85624" lon="0.25312">
        <ele>1807.3</ele>
        <time>2022-02-09T13:41:20Z</time>
      </trkpt>
      <trkpt lat="42.85625" lon="0.25309">
        <ele>1807</ele>
        <time>2022-02-09T13:41:21Z</time>
      </trkpt>
      <trkpt lat="42.85625" lon="0.25305">
        <ele>1807.4</ele>
        <time>2022-02-09T13:41:22Z</time>
      </trkpt>
      <trkpt lat="42.85626" lon="0.25301">
        <ele>1807.8</ele>
        <time>2022-02-09T13:41:23Z</time>
      </trkpt>
      <trkpt lat="42.85626" lon="0.25298">
        <ele>1808.2</ele>
        <time>2022-02-09T13:41:24Z</time>
      </trkpt>
      <trkpt lat="42.85627" lon="0.25295">
        <ele>1808.2</ele>
        <time>2022-02-09T13:41:25Z</time>
      </trkpt>
      <trkpt lat="42.85628" lon="0.25292">
        <ele>1808.1</ele>
        <time>2022-02-09T13:41:26Z</time>
      </trkpt>
      <trkpt lat="42.8563" lon="0.25289">
        <ele>1808.5</ele>
        <time>2022-02-09T13:41:27Z</time>
      </trkpt>
      <trkpt lat="42.85631" lon="0.25286">
        <ele>1808</ele>
        <time>2022-02-09T13:41:28Z</time>
      </trkpt>
      <trkpt lat="42.85632" lon="0.25285">
        <ele>1808.4</ele>
        <time>2022-02-09T13:41:29Z</time>
      </trkpt>
      <trkpt lat="42.85633" lon="0.25283">
        <ele>1808.4</ele>
        <time>2022-02-09T13:41:30Z</time>
      </trkpt>
      <trkpt lat="42.85634" lon="0.25281">
        <ele>1808.3</ele>
        <time>2022-02-09T13:41:31Z</time>
      </trkpt>
      <trkpt lat="42.85636" lon="0.25279">
        <ele>1808.3</ele>
        <time>2022-02-09T13:41:32Z</time>
      </trkpt>
      <trkpt lat="42.85637" lon="0.25278">
        <ele>1807.8</ele>
        <time>2022-02-09T13:41:33Z</time>
      </trkpt>
      <trkpt lat="42.85638" lon="0.25278">
        <ele>1807.8</ele>
        <time>2022-02-09T13:41:34Z</time>
      </trkpt>
      <trkpt lat="42.85639" lon="0.25282">
        <ele>1807.4</ele>
        <time>2022-02-09T13:41:35Z</time>
      </trkpt>
      <trkpt lat="42.85639" lon="0.25287">
        <ele>1806.9</ele>
        <time>2022-02-09T13:41:36Z</time>
      </trkpt>
      <trkpt lat="42.8564" lon="0.25292">
        <ele>1806.4</ele>
        <time>2022-02-09T13:41:37Z</time>
      </trkpt>
      <trkpt lat="42.85641" lon="0.25295">
        <ele>1805.5</ele>
        <time>2022-02-09T13:41:38Z</time>
      </trkpt>
      <trkpt lat="42.85643" lon="0.25298">
        <ele>1805</ele>
        <time>2022-02-09T13:41:39Z</time>
      </trkpt>
      <trkpt lat="42.85646" lon="0.25297">
        <ele>1805</ele>
        <time>2022-02-09T13:41:40Z</time>
      </trkpt>
      <trkpt lat="42.85648" lon="0.25296">
        <ele>1804.5</ele>
        <time>2022-02-09T13:41:41Z</time>
      </trkpt>
      <trkpt lat="42.8565" lon="0.25298">
        <ele>1804.1</ele>
        <time>2022-02-09T13:41:42Z</time>
      </trkpt>
      <trkpt lat="42.85652" lon="0.25301">
        <ele>1803.6</ele>
        <time>2022-02-09T13:41:43Z</time>
      </trkpt>
      <trkpt lat="42.85654" lon="0.25305">
        <ele>1802.8</ele>
        <time>2022-02-09T13:41:44Z</time>
      </trkpt>
      <trkpt lat="42.85657" lon="0.25306">
        <ele>1802.4</ele>
        <time>2022-02-09T13:41:45Z</time>
      </trkpt>
      <trkpt lat="42.8566" lon="0.25308">
        <ele>1801.6</ele>
        <time>2022-02-09T13:41:46Z</time>
      </trkpt>
      <trkpt lat="42.85662" lon="0.25312">
        <ele>1800.8</ele>
        <time>2022-02-09T13:41:47Z</time>
      </trkpt>
      <trkpt lat="42.85663" lon="0.25313">
        <ele>1800.8</ele>
        <time>2022-02-09T13:41:48Z</time>
      </trkpt>
      <trkpt lat="42.85663" lon="0.25314">
        <ele>1800.8</ele>
        <time>2022-02-09T13:41:49Z</time>
      </trkpt>
      <trkpt lat="42.85663" lon="0.25314">
        <ele>1800.8</ele>
        <time>2022-02-09T13:41:50Z</time>
      </trkpt>
      <trkpt lat="42.85663" lon="0.25314">
        <ele>1800.8</ele>
        <time>2022-02-09T13:41:51Z</time>
      </trkpt>
      <trkpt lat="42.85663" lon="0.25314">
        <ele>1800.8</ele>
        <time>2022-02-09T13:41:52Z</time>
      </trkpt>
      <trkpt lat="42.85663" lon="0.25314">
        <ele>1800.8</ele>
        <time>2022-02-09T13:41:53Z</time>
      </trkpt>
      <trkpt lat="42.85663" lon="0.25314">
        <ele>1800.8</ele>
        <time>2022-02-09T13:41:54Z</time>
      </trkpt>
      <trkpt lat="42.85663" lon="0.25314">
        <ele>1800.8</ele>
        <time>2022-02-09T13:41:55Z</time>
      </trkpt>
      <trkpt lat="42.85663" lon="0.25314">
        <ele>1800.8</ele>
        <time>2022-02-09T13:41:56Z</time>
      </trkpt>
      <trkpt lat="42.85663" lon="0.25314">
        <ele>1800.8</ele>
        <time>2022-02-09T13:41:57Z</time>
      </trkpt>
      <trkpt lat="42.85663" lon="0.25314">
        <ele>1800.8</ele>
        <time>2022-02-09T13:41:58Z</time>
      </trkpt>
      <trkpt lat="42.85663" lon="0.25314">
        <ele>1800.8</ele>
        <time>2022-02-09T13:41:59Z</time>
      </trkpt>
      <trkpt lat="42.85663" lon="0.25314">
        <ele>1800.8</ele>
        <time>2022-02-09T13:42:00Z</time>
      </trkpt>
      <trkpt lat="42.85663" lon="0.25314">
        <ele>1800.8</ele>
        <time>2022-02-09T13:42:01Z</time>
      </trkpt>
      <trkpt lat="42.85663" lon="0.25314">
        <ele>1800.8</ele>
        <time>2022-02-09T13:42:02Z</time>
      </trkpt>
      <trkpt lat="42.85663" lon="0.25314">
        <ele>1800.8</ele>
        <time>2022-02-09T13:42:03Z</time>
      </trkpt>
      <trkpt lat="42.85663" lon="0.25314">
        <ele>1800.8</ele>
        <time>2022-02-09T13:42:04Z</time>
      </trkpt>
      <trkpt lat="42.85663" lon="0.25314">
        <ele>1800.8</ele>
        <time>2022-02-09T13:42:05Z</time>
      </trkpt>
      <trkpt lat="42.85663" lon="0.25314">
        <ele>1800.8</ele>
        <time>2022-02-09T13:42:06Z</time>
      </trkpt>
      <trkpt lat="42.85663" lon="0.25314">
        <ele>1800.8</ele>
        <time>2022-02-09T13:42:07Z</time>
      </trkpt>
      <trkpt lat="42.85663" lon="0.25314">
        <ele>1800.8</ele>
        <time>2022-02-09T13:42:08Z</time>
      </trkpt>
      <trkpt lat="42.85663" lon="0.25314">
        <ele>1800.8</ele>
        <time>2022-02-09T13:42:09Z</time>
      </trkpt>
      <trkpt lat="42.85663" lon="0.25314">
        <ele>1800.8</ele>
        <time>2022-02-09T13:42:10Z</time>
      </trkpt>
      <trkpt lat="42.85663" lon="0.25314">
        <ele>1800.8</ele>
        <time>2022-02-09T13:42:11Z</time>
      </trkpt>
      <trkpt lat="42.85663" lon="0.25314">
        <ele>1800.8</ele>
        <time>2022-02-09T13:42:12Z</time>
      </trkpt>
      <trkpt lat="42.85663" lon="0.25314">
        <ele>1800.8</ele>
        <time>2022-02-09T13:42:13Z</time>
      </trkpt>
      <trkpt lat="42.85663" lon="0.25314">
        <ele>1800.8</ele>
        <time>2022-02-09T13:42:14Z</time>
      </trkpt>
      <trkpt lat="42.85663" lon="0.25314">
        <ele>1800.8</ele>
        <time>2022-02-09T13:42:15Z</time>
      </trkpt>
      <trkpt lat="42.85663" lon="0.25314">
        <ele>1800.8</ele>
        <time>2022-02-09T13:42:16Z</time>
      </trkpt>
      <trkpt lat="42.85663" lon="0.25314">
        <ele>1800.8</ele>
        <time>2022-02-09T13:42:17Z</time>
      </trkpt>
      <trkpt lat="42.85663" lon="0.25314">
        <ele>1800.8</ele>
        <time>2022-02-09T13:42:18Z</time>
      </trkpt>
      <trkpt lat="42.85663" lon="0.25314">
        <ele>1800.8</ele>
        <time>2022-02-09T13:42:19Z</time>
      </trkpt>
      <trkpt lat="42.85663" lon="0.25314">
        <ele>1800.8</ele>
        <time>2022-02-09T13:42:20Z</time>
      </trkpt>
      <trkpt lat="42.85663" lon="0.25314">
        <ele>1800.8</ele>
        <time>2022-02-09T13:42:21Z</time>
      </trkpt>
      <trkpt lat="42.85663" lon="0.25314">
        <ele>1800.8</ele>
        <time>2022-02-09T13:42:22Z</time>
      </trkpt>
      <trkpt lat="42.85663" lon="0.25314">
        <ele>1800.8</ele>
        <time>2022-02-09T13:42:23Z</time>
      </trkpt>
      <trkpt lat="42.85663" lon="0.25314">
        <ele>1800.8</ele>
        <time>2022-02-09T13:42:24Z</time>
      </trkpt>
      <trkpt lat="42.85663" lon="0.25314">
        <ele>1800.8</ele>
        <time>2022-02-09T13:42:25Z</time>
      </trkpt>
      <trkpt lat="42.85663" lon="0.25314">
        <ele>1800.8</ele>
        <time>2022-02-09T13:42:26Z</time>
      </trkpt>
      <trkpt lat="42.85663" lon="0.25314">
        <ele>1800.8</ele>
        <time>2022-02-09T13:42:27Z</time>
      </trkpt>
      <trkpt lat="42.85663" lon="0.25314">
        <ele>1800.8</ele>
        <time>2022-02-09T13:42:28Z</time>
      </trkpt>
      <trkpt lat="42.85663" lon="0.25314">
        <ele>1800.8</ele>
        <time>2022-02-09T13:42:29Z</time>
      </trkpt>
      <trkpt lat="42.85663" lon="0.25314">
        <ele>1800.8</ele>
        <time>2022-02-09T13:42:30Z</time>
      </trkpt>
      <trkpt lat="42.85663" lon="0.25314">
        <ele>1800.8</ele>
        <time>2022-02-09T13:42:31Z</time>
      </trkpt>
      <trkpt lat="42.85663" lon="0.25314">
        <ele>1800.8</ele>
        <time>2022-02-09T13:42:32Z</time>
      </trkpt>
      <trkpt lat="42.85663" lon="0.25314">
        <ele>1800.8</ele>
        <time>2022-02-09T13:42:33Z</time>
      </trkpt>
      <trkpt lat="42.85663" lon="0.25314">
        <ele>1800.8</ele>
        <time>2022-02-09T13:42:34Z</time>
      </trkpt>
      <trkpt lat="42.85663" lon="0.25314">
        <ele>1800.8</ele>
        <time>2022-02-09T13:42:35Z</time>
      </trkpt>
      <trkpt lat="42.85663" lon="0.25314">
        <ele>1800.8</ele>
        <time>2022-02-09T13:42:36Z</time>
      </trkpt>
      <trkpt lat="42.85663" lon="0.25314">
        <ele>1800.8</ele>
        <time>2022-02-09T13:42:37Z</time>
      </trkpt>
      <trkpt lat="42.85663" lon="0.25314">
        <ele>1800.8</ele>
        <time>2022-02-09T13:42:38Z</time>
      </trkpt>
      <trkpt lat="42.85663" lon="0.25314">
        <ele>1800.8</ele>
        <time>2022-02-09T13:42:39Z</time>
      </trkpt>
      <trkpt lat="42.85663" lon="0.25314">
        <ele>1800.8</ele>
        <time>2022-02-09T13:42:40Z</time>
      </trkpt>
      <trkpt lat="42.85663" lon="0.25314">
        <ele>1800.8</ele>
        <time>2022-02-09T13:42:41Z</time>
      </trkpt>
      <trkpt lat="42.85663" lon="0.25314">
        <ele>1800.8</ele>
        <time>2022-02-09T13:42:42Z</time>
      </trkpt>
      <trkpt lat="42.85663" lon="0.25314">
        <ele>1800.8</ele>
        <time>2022-02-09T13:42:43Z</time>
      </trkpt>
      <trkpt lat="42.85663" lon="0.25314">
        <ele>1800.8</ele>
        <time>2022-02-09T13:42:44Z</time>
      </trkpt>
      <trkpt lat="42.85664" lon="0.25315">
        <ele>1800.8</ele>
        <time>2022-02-09T13:42:45Z</time>
      </trkpt>
      <trkpt lat="42.85666" lon="0.25317">
        <ele>1800</ele>
        <time>2022-02-09T13:42:46Z</time>
      </trkpt>
      <trkpt lat="42.85668" lon="0.25319">
        <ele>1800</ele>
        <time>2022-02-09T13:42:47Z</time>
      </trkpt>
      <trkpt lat="42.85671" lon="0.25319">
        <ele>1799.7</ele>
        <time>2022-02-09T13:42:48Z</time>
      </trkpt>
      <trkpt lat="42.85674" lon="0.25319">
        <ele>1799.3</ele>
        <time>2022-02-09T13:42:49Z</time>
      </trkpt>
      <trkpt lat="42.85676" lon="0.25321">
        <ele>1798.6</ele>
        <time>2022-02-09T13:42:50Z</time>
      </trkpt>
      <trkpt lat="42.85679" lon="0.25324">
        <ele>1798.3</ele>
        <time>2022-02-09T13:42:51Z</time>
      </trkpt>
      <trkpt lat="42.85684" lon="0.25325">
        <ele>1797.5</ele>
        <time>2022-02-09T13:42:52Z</time>
      </trkpt>
      <trkpt lat="42.8569" lon="0.25325">
        <ele>1797.1</ele>
        <time>2022-02-09T13:42:53Z</time>
      </trkpt>
      <trkpt lat="42.85695" lon="0.25326">
        <ele>1796.6</ele>
        <time>2022-02-09T13:42:54Z</time>
      </trkpt>
      <trkpt lat="42.85699" lon="0.25329">
        <ele>1796.4</ele>
        <time>2022-02-09T13:42:55Z</time>
      </trkpt>
      <trkpt lat="42.85702" lon="0.25331">
        <ele>1795.6</ele>
        <time>2022-02-09T13:42:56Z</time>
      </trkpt>
      <trkpt lat="42.85704" lon="0.25334">
        <ele>1794.8</ele>
        <time>2022-02-09T13:42:57Z</time>
      </trkpt>
      <trkpt lat="42.85706" lon="0.25335">
        <ele>1794.8</ele>
        <time>2022-02-09T13:42:58Z</time>
      </trkpt>
      <trkpt lat="42.85707" lon="0.25335">
        <ele>1794.5</ele>
        <time>2022-02-09T13:42:59Z</time>
      </trkpt>
      <trkpt lat="42.85708" lon="0.25335">
        <ele>1794.5</ele>
        <time>2022-02-09T13:43:00Z</time>
      </trkpt>
      <trkpt lat="42.85708" lon="0.25335">
        <ele>1794.5</ele>
        <time>2022-02-09T13:43:01Z</time>
      </trkpt>
      <trkpt lat="42.85708" lon="0.25335">
        <ele>1794.5</ele>
        <time>2022-02-09T13:43:02Z</time>
      </trkpt>
      <trkpt lat="42.85708" lon="0.25335">
        <ele>1794.5</ele>
        <time>2022-02-09T13:43:03Z</time>
      </trkpt>
      <trkpt lat="42.85708" lon="0.25335">
        <ele>1794.5</ele>
        <time>2022-02-09T13:43:04Z</time>
      </trkpt>
      <trkpt lat="42.85708" lon="0.25335">
        <ele>1794.5</ele>
        <time>2022-02-09T13:43:05Z</time>
      </trkpt>
      <trkpt lat="42.85708" lon="0.25335">
        <ele>1794.5</ele>
        <time>2022-02-09T13:43:06Z</time>
      </trkpt>
      <trkpt lat="42.85708" lon="0.25335">
        <ele>1794.5</ele>
        <time>2022-02-09T13:43:07Z</time>
      </trkpt>
      <trkpt lat="42.85708" lon="0.25335">
        <ele>1794.5</ele>
        <time>2022-02-09T13:43:08Z</time>
      </trkpt>
      <trkpt lat="42.85708" lon="0.25335">
        <ele>1794.5</ele>
        <time>2022-02-09T13:43:09Z</time>
      </trkpt>
      <trkpt lat="42.85708" lon="0.25335">
        <ele>1794.5</ele>
        <time>2022-02-09T13:43:10Z</time>
      </trkpt>
      <trkpt lat="42.85708" lon="0.25335">
        <ele>1794.5</ele>
        <time>2022-02-09T13:43:11Z</time>
      </trkpt>
      <trkpt lat="42.85708" lon="0.25335">
        <ele>1794.5</ele>
        <time>2022-02-09T13:43:12Z</time>
      </trkpt>
      <trkpt lat="42.85708" lon="0.25335">
        <ele>1794.5</ele>
        <time>2022-02-09T13:43:13Z</time>
      </trkpt>
      <trkpt lat="42.85708" lon="0.25335">
        <ele>1794.5</ele>
        <time>2022-02-09T13:43:14Z</time>
      </trkpt>
      <trkpt lat="42.85708" lon="0.25335">
        <ele>1794.5</ele>
        <time>2022-02-09T13:43:15Z</time>
      </trkpt>
      <trkpt lat="42.85708" lon="0.25335">
        <ele>1794.5</ele>
        <time>2022-02-09T13:43:16Z</time>
      </trkpt>
      <trkpt lat="42.85708" lon="0.25335">
        <ele>1794.5</ele>
        <time>2022-02-09T13:43:17Z</time>
      </trkpt>
      <trkpt lat="42.85708" lon="0.25335">
        <ele>1794.5</ele>
        <time>2022-02-09T13:43:18Z</time>
      </trkpt>
      <trkpt lat="42.85708" lon="0.25335">
        <ele>1794.5</ele>
        <time>2022-02-09T13:43:19Z</time>
      </trkpt>
      <trkpt lat="42.85708" lon="0.25335">
        <ele>1794.6</ele>
        <time>2022-02-09T13:43:20Z</time>
      </trkpt>
      <trkpt lat="42.85708" lon="0.25335">
        <ele>1794.6</ele>
        <time>2022-02-09T13:43:21Z</time>
      </trkpt>
      <trkpt lat="42.85708" lon="0.25335">
        <ele>1794.6</ele>
        <time>2022-02-09T13:43:22Z</time>
      </trkpt>
      <trkpt lat="42.85708" lon="0.25335">
        <ele>1794.6</ele>
        <time>2022-02-09T13:43:23Z</time>
      </trkpt>
      <trkpt lat="42.85708" lon="0.25335">
        <ele>1794.6</ele>
        <time>2022-02-09T13:43:24Z</time>
      </trkpt>
      <trkpt lat="42.85708" lon="0.25335">
        <ele>1794.6</ele>
        <time>2022-02-09T13:43:25Z</time>
      </trkpt>
      <trkpt lat="42.85708" lon="0.25335">
        <ele>1794.6</ele>
        <time>2022-02-09T13:43:26Z</time>
      </trkpt>
      <trkpt lat="42.85708" lon="0.25335">
        <ele>1794.6</ele>
        <time>2022-02-09T13:43:27Z</time>
      </trkpt>
      <trkpt lat="42.85708" lon="0.25335">
        <ele>1794.6</ele>
        <time>2022-02-09T13:43:28Z</time>
      </trkpt>
      <trkpt lat="42.85708" lon="0.25335">
        <ele>1794.6</ele>
        <time>2022-02-09T13:43:29Z</time>
      </trkpt>
      <trkpt lat="42.85708" lon="0.25335">
        <ele>1794.6</ele>
        <time>2022-02-09T13:43:30Z</time>
      </trkpt>
      <trkpt lat="42.85708" lon="0.25335">
        <ele>1794.6</ele>
        <time>2022-02-09T13:43:31Z</time>
      </trkpt>
      <trkpt lat="42.85708" lon="0.25335">
        <ele>1794.6</ele>
        <time>2022-02-09T13:43:32Z</time>
      </trkpt>
      <trkpt lat="42.85708" lon="0.25335">
        <ele>1794.6</ele>
        <time>2022-02-09T13:43:33Z</time>
      </trkpt>
      <trkpt lat="42.85708" lon="0.25335">
        <ele>1794.6</ele>
        <time>2022-02-09T13:43:34Z</time>
      </trkpt>
      <trkpt lat="42.85708" lon="0.25335">
        <ele>1794.6</ele>
        <time>2022-02-09T13:43:35Z</time>
      </trkpt>
      <trkpt lat="42.85708" lon="0.25335">
        <ele>1794.6</ele>
        <time>2022-02-09T13:43:36Z</time>
      </trkpt>
      <trkpt lat="42.85708" lon="0.25335">
        <ele>1794.6</ele>
        <time>2022-02-09T13:43:37Z</time>
      </trkpt>
      <trkpt lat="42.85708" lon="0.25335">
        <ele>1794.6</ele>
        <time>2022-02-09T13:43:38Z</time>
      </trkpt>
      <trkpt lat="42.85708" lon="0.25335">
        <ele>1794.6</ele>
        <time>2022-02-09T13:43:39Z</time>
      </trkpt>
      <trkpt lat="42.85708" lon="0.25335">
        <ele>1794.6</ele>
        <time>2022-02-09T13:43:40Z</time>
      </trkpt>
      <trkpt lat="42.85708" lon="0.25335">
        <ele>1794.6</ele>
        <time>2022-02-09T13:43:41Z</time>
      </trkpt>
      <trkpt lat="42.85708" lon="0.25335">
        <ele>1794.6</ele>
        <time>2022-02-09T13:43:42Z</time>
      </trkpt>
      <trkpt lat="42.85708" lon="0.25335">
        <ele>1794.6</ele>
        <time>2022-02-09T13:43:43Z</time>
      </trkpt>
      <trkpt lat="42.85708" lon="0.25335">
        <ele>1794.6</ele>
        <time>2022-02-09T13:43:44Z</time>
      </trkpt>
      <trkpt lat="42.85708" lon="0.25335">
        <ele>1794.6</ele>
        <time>2022-02-09T13:43:45Z</time>
      </trkpt>
      <trkpt lat="42.85708" lon="0.25335">
        <ele>1794.6</ele>
        <time>2022-02-09T13:43:46Z</time>
      </trkpt>
      <trkpt lat="42.85708" lon="0.25335">
        <ele>1794.6</ele>
        <time>2022-02-09T13:43:47Z</time>
      </trkpt>
      <trkpt lat="42.85708" lon="0.25335">
        <ele>1794.6</ele>
        <time>2022-02-09T13:43:48Z</time>
      </trkpt>
      <trkpt lat="42.85708" lon="0.25335">
        <ele>1794.6</ele>
        <time>2022-02-09T13:43:49Z</time>
      </trkpt>
      <trkpt lat="42.85708" lon="0.25335">
        <ele>1794.6</ele>
        <time>2022-02-09T13:43:50Z</time>
      </trkpt>
      <trkpt lat="42.85708" lon="0.25335">
        <ele>1794.6</ele>
        <time>2022-02-09T13:43:51Z</time>
      </trkpt>
      <trkpt lat="42.85708" lon="0.25335">
        <ele>1794.6</ele>
        <time>2022-02-09T13:43:52Z</time>
      </trkpt>
      <trkpt lat="42.85708" lon="0.25335">
        <ele>1794.6</ele>
        <time>2022-02-09T13:43:53Z</time>
      </trkpt>
      <trkpt lat="42.85708" lon="0.25335">
        <ele>1794.6</ele>
        <time>2022-02-09T13:43:54Z</time>
      </trkpt>
      <trkpt lat="42.85708" lon="0.25335">
        <ele>1794.6</ele>
        <time>2022-02-09T13:43:55Z</time>
      </trkpt>
      <trkpt lat="42.85708" lon="0.25335">
        <ele>1794.6</ele>
        <time>2022-02-09T13:43:56Z</time>
      </trkpt>
      <trkpt lat="42.85708" lon="0.25335">
        <ele>1794.6</ele>
        <time>2022-02-09T13:43:57Z</time>
      </trkpt>
      <trkpt lat="42.85708" lon="0.25335">
        <ele>1794.6</ele>
        <time>2022-02-09T13:43:58Z</time>
      </trkpt>
      <trkpt lat="42.85708" lon="0.25335">
        <ele>1794.6</ele>
        <time>2022-02-09T13:43:59Z</time>
      </trkpt>
      <trkpt lat="42.85708" lon="0.25335">
        <ele>1794.6</ele>
        <time>2022-02-09T13:44:00Z</time>
      </trkpt>
      <trkpt lat="42.85708" lon="0.25335">
        <ele>1794.6</ele>
        <time>2022-02-09T13:44:01Z</time>
      </trkpt>
      <trkpt lat="42.85708" lon="0.25335">
        <ele>1794.6</ele>
        <time>2022-02-09T13:44:02Z</time>
      </trkpt>
      <trkpt lat="42.85708" lon="0.25335">
        <ele>1794.6</ele>
        <time>2022-02-09T13:44:03Z</time>
      </trkpt>
      <trkpt lat="42.85708" lon="0.25335">
        <ele>1794.6</ele>
        <time>2022-02-09T13:44:04Z</time>
      </trkpt>
      <trkpt lat="42.85708" lon="0.25335">
        <ele>1794.6</ele>
        <time>2022-02-09T13:44:05Z</time>
      </trkpt>
      <trkpt lat="42.85708" lon="0.25335">
        <ele>1794.6</ele>
        <time>2022-02-09T13:44:06Z</time>
      </trkpt>
      <trkpt lat="42.85708" lon="0.25335">
        <ele>1794.6</ele>
        <time>2022-02-09T13:44:07Z</time>
      </trkpt>
      <trkpt lat="42.85708" lon="0.25335">
        <ele>1794.6</ele>
        <time>2022-02-09T13:44:08Z</time>
      </trkpt>
      <trkpt lat="42.85708" lon="0.25335">
        <ele>1794.6</ele>
        <time>2022-02-09T13:44:09Z</time>
      </trkpt>
      <trkpt lat="42.85708" lon="0.25335">
        <ele>1794.6</ele>
        <time>2022-02-09T13:44:10Z</time>
      </trkpt>
      <trkpt lat="42.85708" lon="0.25335">
        <ele>1794.6</ele>
        <time>2022-02-09T13:44:11Z</time>
      </trkpt>
      <trkpt lat="42.85708" lon="0.25335">
        <ele>1794.6</ele>
        <time>2022-02-09T13:44:12Z</time>
      </trkpt>
      <trkpt lat="42.85708" lon="0.25335">
        <ele>1794.6</ele>
        <time>2022-02-09T13:44:13Z</time>
      </trkpt>
      <trkpt lat="42.85708" lon="0.25335">
        <ele>1794.6</ele>
        <time>2022-02-09T13:44:14Z</time>
      </trkpt>
      <trkpt lat="42.85708" lon="0.25335">
        <ele>1794.6</ele>
        <time>2022-02-09T13:44:15Z</time>
      </trkpt>
      <trkpt lat="42.85708" lon="0.25335">
        <ele>1794.6</ele>
        <time>2022-02-09T13:44:16Z</time>
      </trkpt>
      <trkpt lat="42.85708" lon="0.25335">
        <ele>1794.6</ele>
        <time>2022-02-09T13:44:17Z</time>
      </trkpt>
      <trkpt lat="42.85708" lon="0.25335">
        <ele>1794.6</ele>
        <time>2022-02-09T13:44:18Z</time>
      </trkpt>
      <trkpt lat="42.85708" lon="0.25335">
        <ele>1794.6</ele>
        <time>2022-02-09T13:44:19Z</time>
      </trkpt>
      <trkpt lat="42.85708" lon="0.25335">
        <ele>1794.6</ele>
        <time>2022-02-09T13:44:20Z</time>
      </trkpt>
      <trkpt lat="42.85708" lon="0.25335">
        <ele>1794.6</ele>
        <time>2022-02-09T13:44:21Z</time>
      </trkpt>
      <trkpt lat="42.85708" lon="0.25335">
        <ele>1794.6</ele>
        <time>2022-02-09T13:44:22Z</time>
      </trkpt>
      <trkpt lat="42.85708" lon="0.25335">
        <ele>1794.6</ele>
        <time>2022-02-09T13:44:23Z</time>
      </trkpt>
      <trkpt lat="42.85708" lon="0.25335">
        <ele>1794.6</ele>
        <time>2022-02-09T13:44:24Z</time>
      </trkpt>
      <trkpt lat="42.85708" lon="0.25335">
        <ele>1794.6</ele>
        <time>2022-02-09T13:44:25Z</time>
      </trkpt>
      <trkpt lat="42.85708" lon="0.25335">
        <ele>1794.6</ele>
        <time>2022-02-09T13:44:26Z</time>
      </trkpt>
      <trkpt lat="42.85708" lon="0.25335">
        <ele>1794.6</ele>
        <time>2022-02-09T13:44:27Z</time>
      </trkpt>
      <trkpt lat="42.85708" lon="0.25335">
        <ele>1794.6</ele>
        <time>2022-02-09T13:44:28Z</time>
      </trkpt>
      <trkpt lat="42.85708" lon="0.25335">
        <ele>1794.6</ele>
        <time>2022-02-09T13:44:29Z</time>
      </trkpt>
      <trkpt lat="42.85708" lon="0.25335">
        <ele>1794.6</ele>
        <time>2022-02-09T13:44:30Z</time>
      </trkpt>
      <trkpt lat="42.85708" lon="0.25335">
        <ele>1794.6</ele>
        <time>2022-02-09T13:44:31Z</time>
      </trkpt>
      <trkpt lat="42.85708" lon="0.25335">
        <ele>1794.6</ele>
        <time>2022-02-09T13:44:32Z</time>
      </trkpt>
      <trkpt lat="42.85708" lon="0.25335">
        <ele>1794.6</ele>
        <time>2022-02-09T13:44:33Z</time>
      </trkpt>
      <trkpt lat="42.85708" lon="0.25335">
        <ele>1794.6</ele>
        <time>2022-02-09T13:44:34Z</time>
      </trkpt>
      <trkpt lat="42.85708" lon="0.25335">
        <ele>1794.6</ele>
        <time>2022-02-09T13:44:35Z</time>
      </trkpt>
      <trkpt lat="42.85708" lon="0.25335">
        <ele>1794.6</ele>
        <time>2022-02-09T13:44:36Z</time>
      </trkpt>
      <trkpt lat="42.85708" lon="0.25335">
        <ele>1794.6</ele>
        <time>2022-02-09T13:44:37Z</time>
      </trkpt>
      <trkpt lat="42.85708" lon="0.25335">
        <ele>1794.5</ele>
        <time>2022-02-09T13:44:38Z</time>
      </trkpt>
      <trkpt lat="42.85708" lon="0.25335">
        <ele>1794.5</ele>
        <time>2022-02-09T13:44:39Z</time>
      </trkpt>
      <trkpt lat="42.85708" lon="0.25335">
        <ele>1794.4</ele>
        <time>2022-02-09T13:44:40Z</time>
      </trkpt>
      <trkpt lat="42.85708" lon="0.25335">
        <ele>1794.3</ele>
        <time>2022-02-09T13:44:41Z</time>
      </trkpt>
      <trkpt lat="42.85708" lon="0.25335">
        <ele>1794.3</ele>
        <time>2022-02-09T13:44:42Z</time>
      </trkpt>
      <trkpt lat="42.85708" lon="0.25335">
        <ele>1794.2</ele>
        <time>2022-02-09T13:44:43Z</time>
      </trkpt>
      <trkpt lat="42.85708" lon="0.25335">
        <ele>1794.2</ele>
        <time>2022-02-09T13:44:44Z</time>
      </trkpt>
      <trkpt lat="42.85708" lon="0.25335">
        <ele>1794.1</ele>
        <time>2022-02-09T13:44:45Z</time>
      </trkpt>
      <trkpt lat="42.85708" lon="0.25335">
        <ele>1794</ele>
        <time>2022-02-09T13:44:46Z</time>
      </trkpt>
      <trkpt lat="42.85708" lon="0.25335">
        <ele>1794</ele>
        <time>2022-02-09T13:44:47Z</time>
      </trkpt>
      <trkpt lat="42.85708" lon="0.25335">
        <ele>1793.9</ele>
        <time>2022-02-09T13:44:48Z</time>
      </trkpt>
      <trkpt lat="42.85708" lon="0.25335">
        <ele>1793.8</ele>
        <time>2022-02-09T13:44:49Z</time>
      </trkpt>
      <trkpt lat="42.85708" lon="0.25335">
        <ele>1793.8</ele>
        <time>2022-02-09T13:44:50Z</time>
      </trkpt>
      <trkpt lat="42.85708" lon="0.25335">
        <ele>1793.7</ele>
        <time>2022-02-09T13:44:51Z</time>
      </trkpt>
      <trkpt lat="42.85708" lon="0.25335">
        <ele>1793.7</ele>
        <time>2022-02-09T13:44:52Z</time>
      </trkpt>
      <trkpt lat="42.85709" lon="0.25336">
        <ele>1793.4</ele>
        <time>2022-02-09T13:44:53Z</time>
      </trkpt>
      <trkpt lat="42.85712" lon="0.2534">
        <ele>1792.6</ele>
        <time>2022-02-09T13:44:54Z</time>
      </trkpt>
      <trkpt lat="42.85713" lon="0.25343">
        <ele>1791.7</ele>
        <time>2022-02-09T13:44:55Z</time>
      </trkpt>
      <trkpt lat="42.85716" lon="0.25347">
        <ele>1790.7</ele>
        <time>2022-02-09T13:44:56Z</time>
      </trkpt>
      <trkpt lat="42.85719" lon="0.25351">
        <ele>1789.9</ele>
        <time>2022-02-09T13:44:57Z</time>
      </trkpt>
      <trkpt lat="42.85723" lon="0.25354">
        <ele>1788.9</ele>
        <time>2022-02-09T13:44:58Z</time>
      </trkpt>
      <trkpt lat="42.85726" lon="0.25357">
        <ele>1788.1</ele>
        <time>2022-02-09T13:44:59Z</time>
      </trkpt>
      <trkpt lat="42.85729" lon="0.2536">
        <ele>1787.2</ele>
        <time>2022-02-09T13:45:00Z</time>
      </trkpt>
      <trkpt lat="42.85732" lon="0.25363">
        <ele>1786.4</ele>
        <time>2022-02-09T13:45:01Z</time>
      </trkpt>
      <trkpt lat="42.85735" lon="0.25367">
        <ele>1785.5</ele>
        <time>2022-02-09T13:45:02Z</time>
      </trkpt>
      <trkpt lat="42.85737" lon="0.2537">
        <ele>1784.8</ele>
        <time>2022-02-09T13:45:03Z</time>
      </trkpt>
      <trkpt lat="42.85738" lon="0.25374">
        <ele>1784.1</ele>
        <time>2022-02-09T13:45:04Z</time>
      </trkpt>
      <trkpt lat="42.85739" lon="0.25378">
        <ele>1783.3</ele>
        <time>2022-02-09T13:45:05Z</time>
      </trkpt>
      <trkpt lat="42.85742" lon="0.25383">
        <ele>1782.3</ele>
        <time>2022-02-09T13:45:06Z</time>
      </trkpt>
      <trkpt lat="42.85744" lon="0.25387">
        <ele>1781.5</ele>
        <time>2022-02-09T13:45:07Z</time>
      </trkpt>
      <trkpt lat="42.85746" lon="0.25391">
        <ele>1780.7</ele>
        <time>2022-02-09T13:45:08Z</time>
      </trkpt>
      <trkpt lat="42.85747" lon="0.25396">
        <ele>1779.8</ele>
        <time>2022-02-09T13:45:09Z</time>
      </trkpt>
      <trkpt lat="42.85749" lon="0.254">
        <ele>1778.8</ele>
        <time>2022-02-09T13:45:10Z</time>
      </trkpt>
      <trkpt lat="42.85751" lon="0.25405">
        <ele>1777.9</ele>
        <time>2022-02-09T13:45:11Z</time>
      </trkpt>
      <trkpt lat="42.85753" lon="0.2541">
        <ele>1777.2</ele>
        <time>2022-02-09T13:45:12Z</time>
      </trkpt>
      <trkpt lat="42.85754" lon="0.25414">
        <ele>1776.4</ele>
        <time>2022-02-09T13:45:13Z</time>
      </trkpt>
      <trkpt lat="42.85756" lon="0.25418">
        <ele>1775.8</ele>
        <time>2022-02-09T13:45:14Z</time>
      </trkpt>
      <trkpt lat="42.85757" lon="0.25422">
        <ele>1775.1</ele>
        <time>2022-02-09T13:45:15Z</time>
      </trkpt>
      <trkpt lat="42.85758" lon="0.25425">
        <ele>1774.5</ele>
        <time>2022-02-09T13:45:16Z</time>
      </trkpt>
      <trkpt lat="42.85761" lon="0.25429">
        <ele>1773.8</ele>
        <time>2022-02-09T13:45:17Z</time>
      </trkpt>
      <trkpt lat="42.85762" lon="0.25432">
        <ele>1773.1</ele>
        <time>2022-02-09T13:45:18Z</time>
      </trkpt>
      <trkpt lat="42.85763" lon="0.25436">
        <ele>1772.6</ele>
        <time>2022-02-09T13:45:19Z</time>
      </trkpt>
      <trkpt lat="42.85765" lon="0.25438">
        <ele>1772.1</ele>
        <time>2022-02-09T13:45:20Z</time>
      </trkpt>
      <trkpt lat="42.85768" lon="0.25439">
        <ele>1771.5</ele>
        <time>2022-02-09T13:45:21Z</time>
      </trkpt>
      <trkpt lat="42.8577" lon="0.25442">
        <ele>1771</ele>
        <time>2022-02-09T13:45:22Z</time>
      </trkpt>
      <trkpt lat="42.85772" lon="0.25446">
        <ele>1770.2</ele>
        <time>2022-02-09T13:45:23Z</time>
      </trkpt>
      <trkpt lat="42.85774" lon="0.25449">
        <ele>1769.6</ele>
        <time>2022-02-09T13:45:24Z</time>
      </trkpt>
      <trkpt lat="42.85776" lon="0.25453">
        <ele>1768.8</ele>
        <time>2022-02-09T13:45:25Z</time>
      </trkpt>
      <trkpt lat="42.85779" lon="0.25457">
        <ele>1767.9</ele>
        <time>2022-02-09T13:45:26Z</time>
      </trkpt>
      <trkpt lat="42.85782" lon="0.25461">
        <ele>1767.1</ele>
        <time>2022-02-09T13:45:27Z</time>
      </trkpt>
      <trkpt lat="42.85785" lon="0.25465">
        <ele>1766.2</ele>
        <time>2022-02-09T13:45:28Z</time>
      </trkpt>
      <trkpt lat="42.85786" lon="0.2547">
        <ele>1765.3</ele>
        <time>2022-02-09T13:45:29Z</time>
      </trkpt>
      <trkpt lat="42.85787" lon="0.25476">
        <ele>1764.3</ele>
        <time>2022-02-09T13:45:30Z</time>
      </trkpt>
      <trkpt lat="42.85787" lon="0.25481">
        <ele>1763.6</ele>
        <time>2022-02-09T13:45:31Z</time>
      </trkpt>
      <trkpt lat="42.85787" lon="0.25484">
        <ele>1763.1</ele>
        <time>2022-02-09T13:45:32Z</time>
      </trkpt>
      <trkpt lat="42.85788" lon="0.25487">
        <ele>1762.6</ele>
        <time>2022-02-09T13:45:33Z</time>
      </trkpt>
      <trkpt lat="42.85788" lon="0.25489">
        <ele>1762.2</ele>
        <time>2022-02-09T13:45:34Z</time>
      </trkpt>
      <trkpt lat="42.85789" lon="0.25491">
        <ele>1761.9</ele>
        <time>2022-02-09T13:45:35Z</time>
      </trkpt>
      <trkpt lat="42.8579" lon="0.25493">
        <ele>1761.4</ele>
        <time>2022-02-09T13:45:36Z</time>
      </trkpt>
      <trkpt lat="42.85792" lon="0.25495">
        <ele>1760.9</ele>
        <time>2022-02-09T13:45:37Z</time>
      </trkpt>
      <trkpt lat="42.85793" lon="0.25497">
        <ele>1760.5</ele>
        <time>2022-02-09T13:45:38Z</time>
      </trkpt>
      <trkpt lat="42.85795" lon="0.25497">
        <ele>1760.1</ele>
        <time>2022-02-09T13:45:39Z</time>
      </trkpt>
      <trkpt lat="42.85796" lon="0.25496">
        <ele>1760</ele>
        <time>2022-02-09T13:45:40Z</time>
      </trkpt>
      <trkpt lat="42.85796" lon="0.25496">
        <ele>1760</ele>
        <time>2022-02-09T13:45:41Z</time>
      </trkpt>
      <trkpt lat="42.85796" lon="0.25496">
        <ele>1759.9</ele>
        <time>2022-02-09T13:45:42Z</time>
      </trkpt>
      <trkpt lat="42.85796" lon="0.25496">
        <ele>1759.9</ele>
        <time>2022-02-09T13:45:43Z</time>
      </trkpt>
      <trkpt lat="42.85796" lon="0.25496">
        <ele>1759.9</ele>
        <time>2022-02-09T13:45:44Z</time>
      </trkpt>
      <trkpt lat="42.85796" lon="0.25496">
        <ele>1759.8</ele>
        <time>2022-02-09T13:45:45Z</time>
      </trkpt>
      <trkpt lat="42.85796" lon="0.25496">
        <ele>1759.8</ele>
        <time>2022-02-09T13:45:46Z</time>
      </trkpt>
      <trkpt lat="42.85796" lon="0.25496">
        <ele>1759.8</ele>
        <time>2022-02-09T13:45:47Z</time>
      </trkpt>
      <trkpt lat="42.85796" lon="0.25496">
        <ele>1759.8</ele>
        <time>2022-02-09T13:45:48Z</time>
      </trkpt>
      <trkpt lat="42.85796" lon="0.25496">
        <ele>1759.8</ele>
        <time>2022-02-09T13:45:49Z</time>
      </trkpt>
      <trkpt lat="42.85796" lon="0.25496">
        <ele>1759.7</ele>
        <time>2022-02-09T13:45:50Z</time>
      </trkpt>
      <trkpt lat="42.85796" lon="0.25496">
        <ele>1759.7</ele>
        <time>2022-02-09T13:45:51Z</time>
      </trkpt>
      <trkpt lat="42.85796" lon="0.25496">
        <ele>1759.7</ele>
        <time>2022-02-09T13:45:52Z</time>
      </trkpt>
      <trkpt lat="42.85796" lon="0.25496">
        <ele>1759.7</ele>
        <time>2022-02-09T13:45:53Z</time>
      </trkpt>
      <trkpt lat="42.85796" lon="0.25496">
        <ele>1759.7</ele>
        <time>2022-02-09T13:45:54Z</time>
      </trkpt>
      <trkpt lat="42.85796" lon="0.25496">
        <ele>1759.6</ele>
        <time>2022-02-09T13:45:55Z</time>
      </trkpt>
      <trkpt lat="42.85796" lon="0.25496">
        <ele>1759.6</ele>
        <time>2022-02-09T13:45:56Z</time>
      </trkpt>
      <trkpt lat="42.85796" lon="0.25496">
        <ele>1759.6</ele>
        <time>2022-02-09T13:45:57Z</time>
      </trkpt>
      <trkpt lat="42.85796" lon="0.25496">
        <ele>1759.6</ele>
        <time>2022-02-09T13:45:58Z</time>
      </trkpt>
      <trkpt lat="42.85796" lon="0.25496">
        <ele>1759.6</ele>
        <time>2022-02-09T13:45:59Z</time>
      </trkpt>
      <trkpt lat="42.85796" lon="0.25496">
        <ele>1759.5</ele>
        <time>2022-02-09T13:46:00Z</time>
      </trkpt>
      <trkpt lat="42.85796" lon="0.25496">
        <ele>1759.5</ele>
        <time>2022-02-09T13:46:01Z</time>
      </trkpt>
      <trkpt lat="42.85796" lon="0.25496">
        <ele>1759.5</ele>
        <time>2022-02-09T13:46:02Z</time>
      </trkpt>
      <trkpt lat="42.85796" lon="0.25496">
        <ele>1759.5</ele>
        <time>2022-02-09T13:46:03Z</time>
      </trkpt>
      <trkpt lat="42.85796" lon="0.25496">
        <ele>1759.5</ele>
        <time>2022-02-09T13:46:04Z</time>
      </trkpt>
      <trkpt lat="42.85796" lon="0.25496">
        <ele>1759.4</ele>
        <time>2022-02-09T13:46:05Z</time>
      </trkpt>
      <trkpt lat="42.85796" lon="0.25496">
        <ele>1759.4</ele>
        <time>2022-02-09T13:46:06Z</time>
      </trkpt>
      <trkpt lat="42.85797" lon="0.25496">
        <ele>1759</ele>
        <time>2022-02-09T13:46:07Z</time>
      </trkpt>
      <trkpt lat="42.858" lon="0.25496">
        <ele>1758.4</ele>
        <time>2022-02-09T13:46:08Z</time>
      </trkpt>
      <trkpt lat="42.85801" lon="0.25497">
        <ele>1758.1</ele>
        <time>2022-02-09T13:46:09Z</time>
      </trkpt>
      <trkpt lat="42.85802" lon="0.25499">
        <ele>1757.5</ele>
        <time>2022-02-09T13:46:10Z</time>
      </trkpt>
      <trkpt lat="42.85803" lon="0.25502">
        <ele>1757</ele>
        <time>2022-02-09T13:46:11Z</time>
      </trkpt>
      <trkpt lat="42.85805" lon="0.25504">
        <ele>1756.5</ele>
        <time>2022-02-09T13:46:12Z</time>
      </trkpt>
      <trkpt lat="42.85807" lon="0.25504">
        <ele>1756.1</ele>
        <time>2022-02-09T13:46:13Z</time>
      </trkpt>
      <trkpt lat="42.8581" lon="0.25502">
        <ele>1755.4</ele>
        <time>2022-02-09T13:46:14Z</time>
      </trkpt>
      <trkpt lat="42.85812" lon="0.25501">
        <ele>1754.8</ele>
        <time>2022-02-09T13:46:15Z</time>
      </trkpt>
      <trkpt lat="42.85815" lon="0.25501">
        <ele>1754.3</ele>
        <time>2022-02-09T13:46:16Z</time>
      </trkpt>
      <trkpt lat="42.85817" lon="0.25502">
        <ele>1753.8</ele>
        <time>2022-02-09T13:46:17Z</time>
      </trkpt>
      <trkpt lat="42.85819" lon="0.25503">
        <ele>1753.2</ele>
        <time>2022-02-09T13:46:18Z</time>
      </trkpt>
      <trkpt lat="42.85822" lon="0.25503">
        <ele>1752.5</ele>
        <time>2022-02-09T13:46:19Z</time>
      </trkpt>
      <trkpt lat="42.85825" lon="0.25504">
        <ele>1751.8</ele>
        <time>2022-02-09T13:46:20Z</time>
      </trkpt>
      <trkpt lat="42.85828" lon="0.25505">
        <ele>1751</ele>
        <time>2022-02-09T13:46:21Z</time>
      </trkpt>
      <trkpt lat="42.85831" lon="0.25507">
        <ele>1750.2</ele>
        <time>2022-02-09T13:46:22Z</time>
      </trkpt>
      <trkpt lat="42.85834" lon="0.25509">
        <ele>1749.5</ele>
        <time>2022-02-09T13:46:23Z</time>
      </trkpt>
      <trkpt lat="42.85836" lon="0.2551">
        <ele>1748.8</ele>
        <time>2022-02-09T13:46:24Z</time>
      </trkpt>
      <trkpt lat="42.85839" lon="0.25512">
        <ele>1748.1</ele>
        <time>2022-02-09T13:46:25Z</time>
      </trkpt>
      <trkpt lat="42.85842" lon="0.25514">
        <ele>1747.3</ele>
        <time>2022-02-09T13:46:26Z</time>
      </trkpt>
      <trkpt lat="42.85845" lon="0.25516">
        <ele>1746.5</ele>
        <time>2022-02-09T13:46:27Z</time>
      </trkpt>
      <trkpt lat="42.85848" lon="0.25518">
        <ele>1745.7</ele>
        <time>2022-02-09T13:46:28Z</time>
      </trkpt>
      <trkpt lat="42.8585" lon="0.25521">
        <ele>1745</ele>
        <time>2022-02-09T13:46:29Z</time>
      </trkpt>
      <trkpt lat="42.85852" lon="0.25523">
        <ele>1744.4</ele>
        <time>2022-02-09T13:46:30Z</time>
      </trkpt>
      <trkpt lat="42.85853" lon="0.25525">
        <ele>1743.7</ele>
        <time>2022-02-09T13:46:31Z</time>
      </trkpt>
      <trkpt lat="42.85854" lon="0.25527">
        <ele>1743.2</ele>
        <time>2022-02-09T13:46:32Z</time>
      </trkpt>
      <trkpt lat="42.85855" lon="0.25529">
        <ele>1742.9</ele>
        <time>2022-02-09T13:46:33Z</time>
      </trkpt>
      <trkpt lat="42.85854" lon="0.2553">
        <ele>1742.5</ele>
        <time>2022-02-09T13:46:34Z</time>
      </trkpt>
      <trkpt lat="42.85853" lon="0.25532">
        <ele>1742.1</ele>
        <time>2022-02-09T13:46:35Z</time>
      </trkpt>
      <trkpt lat="42.85852" lon="0.25534">
        <ele>1741.7</ele>
        <time>2022-02-09T13:46:36Z</time>
      </trkpt>
      <trkpt lat="42.85853" lon="0.25536">
        <ele>1741.3</ele>
        <time>2022-02-09T13:46:37Z</time>
      </trkpt>
      <trkpt lat="42.85854" lon="0.25538">
        <ele>1740.8</ele>
        <time>2022-02-09T13:46:38Z</time>
      </trkpt>
      <trkpt lat="42.85854" lon="0.2554">
        <ele>1740.3</ele>
        <time>2022-02-09T13:46:39Z</time>
      </trkpt>
      <trkpt lat="42.85852" lon="0.25543">
        <ele>1739.7</ele>
        <time>2022-02-09T13:46:40Z</time>
      </trkpt>
      <trkpt lat="42.85852" lon="0.25546">
        <ele>1739.2</ele>
        <time>2022-02-09T13:46:41Z</time>
      </trkpt>
      <trkpt lat="42.85852" lon="0.25548">
        <ele>1738.6</ele>
        <time>2022-02-09T13:46:42Z</time>
      </trkpt>
      <trkpt lat="42.85853" lon="0.2555">
        <ele>1738.2</ele>
        <time>2022-02-09T13:46:43Z</time>
      </trkpt>
      <trkpt lat="42.85854" lon="0.2555">
        <ele>1738</ele>
        <time>2022-02-09T13:46:44Z</time>
      </trkpt>
      <trkpt lat="42.85855" lon="0.25551">
        <ele>1737.9</ele>
        <time>2022-02-09T13:46:45Z</time>
      </trkpt>
      <trkpt lat="42.85855" lon="0.25552">
        <ele>1737.6</ele>
        <time>2022-02-09T13:46:46Z</time>
      </trkpt>
      <trkpt lat="42.85857" lon="0.25553">
        <ele>1737.1</ele>
        <time>2022-02-09T13:46:47Z</time>
      </trkpt>
      <trkpt lat="42.85859" lon="0.25555">
        <ele>1736.3</ele>
        <time>2022-02-09T13:46:48Z</time>
      </trkpt>
      <trkpt lat="42.85862" lon="0.25558">
        <ele>1735.5</ele>
        <time>2022-02-09T13:46:49Z</time>
      </trkpt>
      <trkpt lat="42.85864" lon="0.2556">
        <ele>1734.8</ele>
        <time>2022-02-09T13:46:50Z</time>
      </trkpt>
      <trkpt lat="42.85866" lon="0.25562">
        <ele>1734</ele>
        <time>2022-02-09T13:46:51Z</time>
      </trkpt>
      <trkpt lat="42.85868" lon="0.25565">
        <ele>1733.3</ele>
        <time>2022-02-09T13:46:52Z</time>
      </trkpt>
      <trkpt lat="42.85869" lon="0.25567">
        <ele>1732.7</ele>
        <time>2022-02-09T13:46:53Z</time>
      </trkpt>
      <trkpt lat="42.85871" lon="0.25568">
        <ele>1732.2</ele>
        <time>2022-02-09T13:46:54Z</time>
      </trkpt>
      <trkpt lat="42.85873" lon="0.25569">
        <ele>1731.6</ele>
        <time>2022-02-09T13:46:55Z</time>
      </trkpt>
      <trkpt lat="42.85874" lon="0.25569">
        <ele>1731.1</ele>
        <time>2022-02-09T13:46:56Z</time>
      </trkpt>
      <trkpt lat="42.85876" lon="0.2557">
        <ele>1730.6</ele>
        <time>2022-02-09T13:46:57Z</time>
      </trkpt>
      <trkpt lat="42.85878" lon="0.25571">
        <ele>1730</ele>
        <time>2022-02-09T13:46:58Z</time>
      </trkpt>
      <trkpt lat="42.8588" lon="0.25572">
        <ele>1729.3</ele>
        <time>2022-02-09T13:46:59Z</time>
      </trkpt>
      <trkpt lat="42.85883" lon="0.25573">
        <ele>1728.5</ele>
        <time>2022-02-09T13:47:00Z</time>
      </trkpt>
      <trkpt lat="42.85886" lon="0.25574">
        <ele>1727.6</ele>
        <time>2022-02-09T13:47:01Z</time>
      </trkpt>
      <trkpt lat="42.85889" lon="0.25575">
        <ele>1726.7</ele>
        <time>2022-02-09T13:47:02Z</time>
      </trkpt>
      <trkpt lat="42.85892" lon="0.25576">
        <ele>1725.7</ele>
        <time>2022-02-09T13:47:03Z</time>
      </trkpt>
      <trkpt lat="42.85895" lon="0.25578">
        <ele>1724.9</ele>
        <time>2022-02-09T13:47:04Z</time>
      </trkpt>
      <trkpt lat="42.85897" lon="0.2558">
        <ele>1724</ele>
        <time>2022-02-09T13:47:05Z</time>
      </trkpt>
      <trkpt lat="42.859" lon="0.25583">
        <ele>1723</ele>
        <time>2022-02-09T13:47:06Z</time>
      </trkpt>
      <trkpt lat="42.85902" lon="0.25587">
        <ele>1722</ele>
        <time>2022-02-09T13:47:07Z</time>
      </trkpt>
      <trkpt lat="42.85904" lon="0.2559">
        <ele>1721.1</ele>
        <time>2022-02-09T13:47:08Z</time>
      </trkpt>
      <trkpt lat="42.85906" lon="0.25594">
        <ele>1720.1</ele>
        <time>2022-02-09T13:47:09Z</time>
      </trkpt>
      <trkpt lat="42.85908" lon="0.25597">
        <ele>1719.4</ele>
        <time>2022-02-09T13:47:10Z</time>
      </trkpt>
      <trkpt lat="42.85909" lon="0.25601">
        <ele>1718.6</ele>
        <time>2022-02-09T13:47:11Z</time>
      </trkpt>
      <trkpt lat="42.85911" lon="0.25603">
        <ele>1718</ele>
        <time>2022-02-09T13:47:12Z</time>
      </trkpt>
      <trkpt lat="42.85912" lon="0.25606">
        <ele>1717.5</ele>
        <time>2022-02-09T13:47:13Z</time>
      </trkpt>
      <trkpt lat="42.85913" lon="0.25608">
        <ele>1717</ele>
        <time>2022-02-09T13:47:14Z</time>
      </trkpt>
      <trkpt lat="42.85915" lon="0.2561">
        <ele>1716.4</ele>
        <time>2022-02-09T13:47:15Z</time>
      </trkpt>
      <trkpt lat="42.85917" lon="0.25613">
        <ele>1715.7</ele>
        <time>2022-02-09T13:47:16Z</time>
      </trkpt>
      <trkpt lat="42.85919" lon="0.25617">
        <ele>1714.9</ele>
        <time>2022-02-09T13:47:17Z</time>
      </trkpt>
      <trkpt lat="42.85921" lon="0.2562">
        <ele>1714</ele>
        <time>2022-02-09T13:47:18Z</time>
      </trkpt>
      <trkpt lat="42.85923" lon="0.25624">
        <ele>1713.1</ele>
        <time>2022-02-09T13:47:19Z</time>
      </trkpt>
      <trkpt lat="42.85925" lon="0.25627">
        <ele>1712.2</ele>
        <time>2022-02-09T13:47:20Z</time>
      </trkpt>
      <trkpt lat="42.85927" lon="0.2563">
        <ele>1711.3</ele>
        <time>2022-02-09T13:47:21Z</time>
      </trkpt>
      <trkpt lat="42.8593" lon="0.25633">
        <ele>1710.4</ele>
        <time>2022-02-09T13:47:22Z</time>
      </trkpt>
      <trkpt lat="42.85932" lon="0.25636">
        <ele>1709.6</ele>
        <time>2022-02-09T13:47:23Z</time>
      </trkpt>
      <trkpt lat="42.85934" lon="0.25638">
        <ele>1708.9</ele>
        <time>2022-02-09T13:47:24Z</time>
      </trkpt>
      <trkpt lat="42.85935" lon="0.25641">
        <ele>1708.3</ele>
        <time>2022-02-09T13:47:25Z</time>
      </trkpt>
      <trkpt lat="42.85937" lon="0.25643">
        <ele>1707.7</ele>
        <time>2022-02-09T13:47:26Z</time>
      </trkpt>
      <trkpt lat="42.85939" lon="0.25646">
        <ele>1707</ele>
        <time>2022-02-09T13:47:27Z</time>
      </trkpt>
      <trkpt lat="42.8594" lon="0.2565">
        <ele>1706.2</ele>
        <time>2022-02-09T13:47:28Z</time>
      </trkpt>
      <trkpt lat="42.85942" lon="0.25653">
        <ele>1705.4</ele>
        <time>2022-02-09T13:47:29Z</time>
      </trkpt>
      <trkpt lat="42.85943" lon="0.25656">
        <ele>1704.8</ele>
        <time>2022-02-09T13:47:30Z</time>
      </trkpt>
      <trkpt lat="42.85944" lon="0.25658">
        <ele>1704.3</ele>
        <time>2022-02-09T13:47:31Z</time>
      </trkpt>
      <trkpt lat="42.85945" lon="0.25661">
        <ele>1703.8</ele>
        <time>2022-02-09T13:47:32Z</time>
      </trkpt>
      <trkpt lat="42.85946" lon="0.25664">
        <ele>1703.3</ele>
        <time>2022-02-09T13:47:33Z</time>
      </trkpt>
      <trkpt lat="42.85947" lon="0.25667">
        <ele>1702.7</ele>
        <time>2022-02-09T13:47:34Z</time>
      </trkpt>
      <trkpt lat="42.85948" lon="0.2567">
        <ele>1702.2</ele>
        <time>2022-02-09T13:47:35Z</time>
      </trkpt>
      <trkpt lat="42.8595" lon="0.25673">
        <ele>1701.7</ele>
        <time>2022-02-09T13:47:36Z</time>
      </trkpt>
      <trkpt lat="42.85952" lon="0.25676">
        <ele>1701.2</ele>
        <time>2022-02-09T13:47:37Z</time>
      </trkpt>
      <trkpt lat="42.85953" lon="0.25679">
        <ele>1700.7</ele>
        <time>2022-02-09T13:47:38Z</time>
      </trkpt>
      <trkpt lat="42.85954" lon="0.25683">
        <ele>1700.2</ele>
        <time>2022-02-09T13:47:39Z</time>
      </trkpt>
      <trkpt lat="42.85955" lon="0.25687">
        <ele>1699.7</ele>
        <time>2022-02-09T13:47:40Z</time>
      </trkpt>
      <trkpt lat="42.85955" lon="0.25692">
        <ele>1699</ele>
        <time>2022-02-09T13:47:41Z</time>
      </trkpt>
      <trkpt lat="42.85956" lon="0.25697">
        <ele>1698.4</ele>
        <time>2022-02-09T13:47:42Z</time>
      </trkpt>
      <trkpt lat="42.85958" lon="0.257">
        <ele>1697.8</ele>
        <time>2022-02-09T13:47:43Z</time>
      </trkpt>
      <trkpt lat="42.8596" lon="0.25704">
        <ele>1697.2</ele>
        <time>2022-02-09T13:47:44Z</time>
      </trkpt>
      <trkpt lat="42.85962" lon="0.25709">
        <ele>1696.4</ele>
        <time>2022-02-09T13:47:45Z</time>
      </trkpt>
      <trkpt lat="42.85964" lon="0.25714">
        <ele>1695.5</ele>
        <time>2022-02-09T13:47:46Z</time>
      </trkpt>
      <trkpt lat="42.85966" lon="0.25721">
        <ele>1694.4</ele>
        <time>2022-02-09T13:47:47Z</time>
      </trkpt>
      <trkpt lat="42.85969" lon="0.25728">
        <ele>1693.3</ele>
        <time>2022-02-09T13:47:48Z</time>
      </trkpt>
      <trkpt lat="42.85972" lon="0.25733">
        <ele>1692.3</ele>
        <time>2022-02-09T13:47:49Z</time>
      </trkpt>
      <trkpt lat="42.85974" lon="0.25737">
        <ele>1691.6</ele>
        <time>2022-02-09T13:47:50Z</time>
      </trkpt>
      <trkpt lat="42.85975" lon="0.25739">
        <ele>1691.2</ele>
        <time>2022-02-09T13:47:51Z</time>
      </trkpt>
      <trkpt lat="42.85976" lon="0.25739">
        <ele>1691.1</ele>
        <time>2022-02-09T13:47:52Z</time>
      </trkpt>
      <trkpt lat="42.85976" lon="0.25739">
        <ele>1691.1</ele>
        <time>2022-02-09T13:47:53Z</time>
      </trkpt>
      <trkpt lat="42.85976" lon="0.25739">
        <ele>1691</ele>
        <time>2022-02-09T13:47:54Z</time>
      </trkpt>
      <trkpt lat="42.85976" lon="0.25739">
        <ele>1691</ele>
        <time>2022-02-09T13:47:55Z</time>
      </trkpt>
      <trkpt lat="42.85976" lon="0.25739">
        <ele>1691</ele>
        <time>2022-02-09T13:47:56Z</time>
      </trkpt>
      <trkpt lat="42.85976" lon="0.25739">
        <ele>1691</ele>
        <time>2022-02-09T13:47:57Z</time>
      </trkpt>
      <trkpt lat="42.85976" lon="0.25739">
        <ele>1691</ele>
        <time>2022-02-09T13:47:58Z</time>
      </trkpt>
      <trkpt lat="42.85976" lon="0.25739">
        <ele>1691</ele>
        <time>2022-02-09T13:47:59Z</time>
      </trkpt>
      <trkpt lat="42.85976" lon="0.25739">
        <ele>1691</ele>
        <time>2022-02-09T13:48:00Z</time>
      </trkpt>
      <trkpt lat="42.85976" lon="0.25739">
        <ele>1691</ele>
        <time>2022-02-09T13:48:01Z</time>
      </trkpt>
      <trkpt lat="42.85976" lon="0.25739">
        <ele>1691</ele>
        <time>2022-02-09T13:48:02Z</time>
      </trkpt>
      <trkpt lat="42.85976" lon="0.25739">
        <ele>1691</ele>
        <time>2022-02-09T13:48:03Z</time>
      </trkpt>
      <trkpt lat="42.85976" lon="0.25739">
        <ele>1691</ele>
        <time>2022-02-09T13:48:04Z</time>
      </trkpt>
      <trkpt lat="42.85976" lon="0.25739">
        <ele>1691</ele>
        <time>2022-02-09T13:48:05Z</time>
      </trkpt>
      <trkpt lat="42.85976" lon="0.25739">
        <ele>1691</ele>
        <time>2022-02-09T13:48:06Z</time>
      </trkpt>
      <trkpt lat="42.85976" lon="0.25739">
        <ele>1691</ele>
        <time>2022-02-09T13:48:07Z</time>
      </trkpt>
      <trkpt lat="42.85976" lon="0.25739">
        <ele>1691</ele>
        <time>2022-02-09T13:48:08Z</time>
      </trkpt>
      <trkpt lat="42.85976" lon="0.25739">
        <ele>1691</ele>
        <time>2022-02-09T13:48:09Z</time>
      </trkpt>
      <trkpt lat="42.85976" lon="0.25739">
        <ele>1691</ele>
        <time>2022-02-09T13:48:10Z</time>
      </trkpt>
      <trkpt lat="42.85976" lon="0.25739">
        <ele>1691</ele>
        <time>2022-02-09T13:48:11Z</time>
      </trkpt>
      <trkpt lat="42.85976" lon="0.25739">
        <ele>1691</ele>
        <time>2022-02-09T13:48:12Z</time>
      </trkpt>
      <trkpt lat="42.85976" lon="0.25739">
        <ele>1691</ele>
        <time>2022-02-09T13:48:13Z</time>
      </trkpt>
      <trkpt lat="42.85976" lon="0.25739">
        <ele>1691</ele>
        <time>2022-02-09T13:48:14Z</time>
      </trkpt>
      <trkpt lat="42.85976" lon="0.25739">
        <ele>1691</ele>
        <time>2022-02-09T13:48:15Z</time>
      </trkpt>
      <trkpt lat="42.85976" lon="0.25739">
        <ele>1691</ele>
        <time>2022-02-09T13:48:16Z</time>
      </trkpt>
      <trkpt lat="42.85976" lon="0.25739">
        <ele>1691</ele>
        <time>2022-02-09T13:48:17Z</time>
      </trkpt>
      <trkpt lat="42.85976" lon="0.25739">
        <ele>1691</ele>
        <time>2022-02-09T13:48:18Z</time>
      </trkpt>
      <trkpt lat="42.85976" lon="0.25739">
        <ele>1691</ele>
        <time>2022-02-09T13:48:19Z</time>
      </trkpt>
      <trkpt lat="42.85976" lon="0.25739">
        <ele>1691</ele>
        <time>2022-02-09T13:48:20Z</time>
      </trkpt>
      <trkpt lat="42.85976" lon="0.25739">
        <ele>1691</ele>
        <time>2022-02-09T13:48:21Z</time>
      </trkpt>
      <trkpt lat="42.85976" lon="0.25739">
        <ele>1691</ele>
        <time>2022-02-09T13:48:22Z</time>
      </trkpt>
      <trkpt lat="42.85976" lon="0.25739">
        <ele>1691</ele>
        <time>2022-02-09T13:48:23Z</time>
      </trkpt>
      <trkpt lat="42.85976" lon="0.25739">
        <ele>1691</ele>
        <time>2022-02-09T13:48:24Z</time>
      </trkpt>
      <trkpt lat="42.85976" lon="0.25739">
        <ele>1691</ele>
        <time>2022-02-09T13:48:25Z</time>
      </trkpt>
      <trkpt lat="42.85976" lon="0.25739">
        <ele>1691</ele>
        <time>2022-02-09T13:48:26Z</time>
      </trkpt>
      <trkpt lat="42.85976" lon="0.25739">
        <ele>1691</ele>
        <time>2022-02-09T13:48:27Z</time>
      </trkpt>
      <trkpt lat="42.85976" lon="0.25739">
        <ele>1691</ele>
        <time>2022-02-09T13:48:28Z</time>
      </trkpt>
      <trkpt lat="42.85976" lon="0.25739">
        <ele>1691</ele>
        <time>2022-02-09T13:48:29Z</time>
      </trkpt>
      <trkpt lat="42.85976" lon="0.25739">
        <ele>1691</ele>
        <time>2022-02-09T13:48:30Z</time>
      </trkpt>
      <trkpt lat="42.85976" lon="0.25739">
        <ele>1691</ele>
        <time>2022-02-09T13:48:31Z</time>
      </trkpt>
      <trkpt lat="42.85976" lon="0.25739">
        <ele>1691</ele>
        <time>2022-02-09T13:48:32Z</time>
      </trkpt>
      <trkpt lat="42.85976" lon="0.25739">
        <ele>1691</ele>
        <time>2022-02-09T13:48:33Z</time>
      </trkpt>
      <trkpt lat="42.85976" lon="0.25739">
        <ele>1691</ele>
        <time>2022-02-09T13:48:34Z</time>
      </trkpt>
      <trkpt lat="42.85976" lon="0.25739">
        <ele>1691</ele>
        <time>2022-02-09T13:48:35Z</time>
      </trkpt>
      <trkpt lat="42.85976" lon="0.25739">
        <ele>1691</ele>
        <time>2022-02-09T13:48:36Z</time>
      </trkpt>
      <trkpt lat="42.85976" lon="0.25739">
        <ele>1691</ele>
        <time>2022-02-09T13:48:37Z</time>
      </trkpt>
      <trkpt lat="42.85976" lon="0.25739">
        <ele>1691</ele>
        <time>2022-02-09T13:48:38Z</time>
      </trkpt>
      <trkpt lat="42.85976" lon="0.25739">
        <ele>1691</ele>
        <time>2022-02-09T13:48:39Z</time>
      </trkpt>
      <trkpt lat="42.85976" lon="0.25739">
        <ele>1691</ele>
        <time>2022-02-09T13:48:40Z</time>
      </trkpt>
      <trkpt lat="42.85976" lon="0.25739">
        <ele>1691</ele>
        <time>2022-02-09T13:48:41Z</time>
      </trkpt>
      <trkpt lat="42.85976" lon="0.25739">
        <ele>1691</ele>
        <time>2022-02-09T13:48:42Z</time>
      </trkpt>
      <trkpt lat="42.85976" lon="0.25739">
        <ele>1691</ele>
        <time>2022-02-09T13:48:43Z</time>
      </trkpt>
      <trkpt lat="42.85976" lon="0.25739">
        <ele>1691</ele>
        <time>2022-02-09T13:48:44Z</time>
      </trkpt>
      <trkpt lat="42.85976" lon="0.25739">
        <ele>1691</ele>
        <time>2022-02-09T13:48:45Z</time>
      </trkpt>
      <trkpt lat="42.85976" lon="0.25741">
        <ele>1690.8</ele>
        <time>2022-02-09T13:48:46Z</time>
      </trkpt>
      <trkpt lat="42.85977" lon="0.25745">
        <ele>1690.2</ele>
        <time>2022-02-09T13:48:47Z</time>
      </trkpt>
      <trkpt lat="42.85976" lon="0.25748">
        <ele>1689.8</ele>
        <time>2022-02-09T13:48:48Z</time>
      </trkpt>
      <trkpt lat="42.85974" lon="0.25749">
        <ele>1689.3</ele>
        <time>2022-02-09T13:48:49Z</time>
      </trkpt>
      <trkpt lat="42.8597" lon="0.25748">
        <ele>1688.5</ele>
        <time>2022-02-09T13:48:50Z</time>
      </trkpt>
      <trkpt lat="42.85967" lon="0.25747">
        <ele>1687.9</ele>
        <time>2022-02-09T13:48:51Z</time>
      </trkpt>
      <trkpt lat="42.85965" lon="0.25748">
        <ele>1687.4</ele>
        <time>2022-02-09T13:48:52Z</time>
      </trkpt>
      <trkpt lat="42.85962" lon="0.25751">
        <ele>1686.7</ele>
        <time>2022-02-09T13:48:53Z</time>
      </trkpt>
      <trkpt lat="42.85959" lon="0.25752">
        <ele>1686.1</ele>
        <time>2022-02-09T13:48:54Z</time>
      </trkpt>
      <trkpt lat="42.85956" lon="0.25752">
        <ele>1685.5</ele>
        <time>2022-02-09T13:48:55Z</time>
      </trkpt>
      <trkpt lat="42.85953" lon="0.25754">
        <ele>1684.9</ele>
        <time>2022-02-09T13:48:56Z</time>
      </trkpt>
      <trkpt lat="42.8595" lon="0.25758">
        <ele>1684.3</ele>
        <time>2022-02-09T13:48:57Z</time>
      </trkpt>
      <trkpt lat="42.85946" lon="0.25758">
        <ele>1683.6</ele>
        <time>2022-02-09T13:48:58Z</time>
      </trkpt>
      <trkpt lat="42.85942" lon="0.25757">
        <ele>1683</ele>
        <time>2022-02-09T13:48:59Z</time>
      </trkpt>
      <trkpt lat="42.85939" lon="0.25758">
        <ele>1682.5</ele>
        <time>2022-02-09T13:49:00Z</time>
      </trkpt>
      <trkpt lat="42.85938" lon="0.25762">
        <ele>1681.9</ele>
        <time>2022-02-09T13:49:01Z</time>
      </trkpt>
      <trkpt lat="42.85939" lon="0.25766">
        <ele>1681.2</ele>
        <time>2022-02-09T13:49:02Z</time>
      </trkpt>
      <trkpt lat="42.8594" lon="0.25769">
        <ele>1680.7</ele>
        <time>2022-02-09T13:49:03Z</time>
      </trkpt>
      <trkpt lat="42.8594" lon="0.25772">
        <ele>1680.2</ele>
        <time>2022-02-09T13:49:04Z</time>
      </trkpt>
      <trkpt lat="42.85941" lon="0.25777">
        <ele>1679.4</ele>
        <time>2022-02-09T13:49:05Z</time>
      </trkpt>
      <trkpt lat="42.85941" lon="0.25781">
        <ele>1678.6</ele>
        <time>2022-02-09T13:49:06Z</time>
      </trkpt>
      <trkpt lat="42.85942" lon="0.25784">
        <ele>1677.9</ele>
        <time>2022-02-09T13:49:07Z</time>
      </trkpt>
      <trkpt lat="42.85943" lon="0.25787">
        <ele>1677.4</ele>
        <time>2022-02-09T13:49:08Z</time>
      </trkpt>
      <trkpt lat="42.85944" lon="0.2579">
        <ele>1676.8</ele>
        <time>2022-02-09T13:49:09Z</time>
      </trkpt>
      <trkpt lat="42.85945" lon="0.25794">
        <ele>1676</ele>
        <time>2022-02-09T13:49:10Z</time>
      </trkpt>
      <trkpt lat="42.85946" lon="0.25798">
        <ele>1675.1</ele>
        <time>2022-02-09T13:49:11Z</time>
      </trkpt>
      <trkpt lat="42.85947" lon="0.25802">
        <ele>1674.2</ele>
        <time>2022-02-09T13:49:12Z</time>
      </trkpt>
      <trkpt lat="42.85949" lon="0.25806">
        <ele>1673.3</ele>
        <time>2022-02-09T13:49:13Z</time>
      </trkpt>
      <trkpt lat="42.85951" lon="0.25809">
        <ele>1672.4</ele>
        <time>2022-02-09T13:49:14Z</time>
      </trkpt>
      <trkpt lat="42.85953" lon="0.25813">
        <ele>1671.6</ele>
        <time>2022-02-09T13:49:15Z</time>
      </trkpt>
      <trkpt lat="42.85956" lon="0.25817">
        <ele>1670.6</ele>
        <time>2022-02-09T13:49:16Z</time>
      </trkpt>
      <trkpt lat="42.85958" lon="0.25821">
        <ele>1669.6</ele>
        <time>2022-02-09T13:49:17Z</time>
      </trkpt>
      <trkpt lat="42.85961" lon="0.25825">
        <ele>1668.5</ele>
        <time>2022-02-09T13:49:18Z</time>
      </trkpt>
      <trkpt lat="42.85965" lon="0.25829">
        <ele>1667.4</ele>
        <time>2022-02-09T13:49:19Z</time>
      </trkpt>
      <trkpt lat="42.85968" lon="0.25833">
        <ele>1666.4</ele>
        <time>2022-02-09T13:49:20Z</time>
      </trkpt>
      <trkpt lat="42.85971" lon="0.25836">
        <ele>1665.5</ele>
        <time>2022-02-09T13:49:21Z</time>
      </trkpt>
      <trkpt lat="42.85973" lon="0.25839">
        <ele>1664.8</ele>
        <time>2022-02-09T13:49:22Z</time>
      </trkpt>
      <trkpt lat="42.85974" lon="0.25843">
        <ele>1664</ele>
        <time>2022-02-09T13:49:23Z</time>
      </trkpt>
      <trkpt lat="42.85977" lon="0.25847">
        <ele>1663</ele>
        <time>2022-02-09T13:49:24Z</time>
      </trkpt>
      <trkpt lat="42.85979" lon="0.25853">
        <ele>1661.8</ele>
        <time>2022-02-09T13:49:25Z</time>
      </trkpt>
      <trkpt lat="42.8598" lon="0.2586">
        <ele>1660.6</ele>
        <time>2022-02-09T13:49:26Z</time>
      </trkpt>
      <trkpt lat="42.85982" lon="0.25866">
        <ele>1659.3</ele>
        <time>2022-02-09T13:49:27Z</time>
      </trkpt>
      <trkpt lat="42.85982" lon="0.25873">
        <ele>1658</ele>
        <time>2022-02-09T13:49:28Z</time>
      </trkpt>
      <trkpt lat="42.85983" lon="0.25879">
        <ele>1656.8</ele>
        <time>2022-02-09T13:49:29Z</time>
      </trkpt>
      <trkpt lat="42.85984" lon="0.25885">
        <ele>1655.7</ele>
        <time>2022-02-09T13:49:30Z</time>
      </trkpt>
      <trkpt lat="42.85985" lon="0.25891">
        <ele>1654.6</ele>
        <time>2022-02-09T13:49:31Z</time>
      </trkpt>
      <trkpt lat="42.85985" lon="0.25896">
        <ele>1653.6</ele>
        <time>2022-02-09T13:49:32Z</time>
      </trkpt>
      <trkpt lat="42.85986" lon="0.25902">
        <ele>1652.4</ele>
        <time>2022-02-09T13:49:33Z</time>
      </trkpt>
      <trkpt lat="42.85986" lon="0.25908">
        <ele>1651.3</ele>
        <time>2022-02-09T13:49:34Z</time>
      </trkpt>
      <trkpt lat="42.85986" lon="0.25913">
        <ele>1650.2</ele>
        <time>2022-02-09T13:49:35Z</time>
      </trkpt>
      <trkpt lat="42.85986" lon="0.25917">
        <ele>1649.4</ele>
        <time>2022-02-09T13:49:36Z</time>
      </trkpt>
      <trkpt lat="42.85984" lon="0.25919">
        <ele>1648.9</ele>
        <time>2022-02-09T13:49:37Z</time>
      </trkpt>
      <trkpt lat="42.85983" lon="0.25919">
        <ele>1648.6</ele>
        <time>2022-02-09T13:49:38Z</time>
      </trkpt>
      <trkpt lat="42.85983" lon="0.25918">
        <ele>1648.5</ele>
        <time>2022-02-09T13:49:39Z</time>
      </trkpt>
      <trkpt lat="42.85983" lon="0.25918">
        <ele>1648.3</ele>
        <time>2022-02-09T13:49:40Z</time>
      </trkpt>
      <trkpt lat="42.85984" lon="0.25918">
        <ele>1648.1</ele>
        <time>2022-02-09T13:49:41Z</time>
      </trkpt>
      <trkpt lat="42.85984" lon="0.25918">
        <ele>1648.1</ele>
        <time>2022-02-09T13:49:42Z</time>
      </trkpt>
      <trkpt lat="42.85984" lon="0.25918">
        <ele>1648.1</ele>
        <time>2022-02-09T13:49:43Z</time>
      </trkpt>
      <trkpt lat="42.85984" lon="0.25918">
        <ele>1648.1</ele>
        <time>2022-02-09T13:49:44Z</time>
      </trkpt>
      <trkpt lat="42.85984" lon="0.25918">
        <ele>1648.1</ele>
        <time>2022-02-09T13:49:45Z</time>
      </trkpt>
      <trkpt lat="42.85984" lon="0.25918">
        <ele>1648.1</ele>
        <time>2022-02-09T13:49:46Z</time>
      </trkpt>
      <trkpt lat="42.85984" lon="0.25918">
        <ele>1648.1</ele>
        <time>2022-02-09T13:49:47Z</time>
      </trkpt>
      <trkpt lat="42.85984" lon="0.25918">
        <ele>1648.1</ele>
        <time>2022-02-09T13:49:48Z</time>
      </trkpt>
      <trkpt lat="42.85984" lon="0.25918">
        <ele>1648.1</ele>
        <time>2022-02-09T13:49:49Z</time>
      </trkpt>
      <trkpt lat="42.85984" lon="0.25918">
        <ele>1648.1</ele>
        <time>2022-02-09T13:49:50Z</time>
      </trkpt>
      <trkpt lat="42.85984" lon="0.25918">
        <ele>1648.1</ele>
        <time>2022-02-09T13:49:51Z</time>
      </trkpt>
      <trkpt lat="42.85984" lon="0.25918">
        <ele>1648.1</ele>
        <time>2022-02-09T13:49:52Z</time>
      </trkpt>
      <trkpt lat="42.85983" lon="0.25917">
        <ele>1647.9</ele>
        <time>2022-02-09T13:49:53Z</time>
      </trkpt>
      <trkpt lat="42.8598" lon="0.25915">
        <ele>1647.2</ele>
        <time>2022-02-09T13:49:54Z</time>
      </trkpt>
      <trkpt lat="42.85977" lon="0.25914">
        <ele>1646.5</ele>
        <time>2022-02-09T13:49:55Z</time>
      </trkpt>
      <trkpt lat="42.85975" lon="0.25914">
        <ele>1645.9</ele>
        <time>2022-02-09T13:49:56Z</time>
      </trkpt>
      <trkpt lat="42.85973" lon="0.25918">
        <ele>1645.1</ele>
        <time>2022-02-09T13:49:57Z</time>
      </trkpt>
      <trkpt lat="42.8597" lon="0.25922">
        <ele>1644.3</ele>
        <time>2022-02-09T13:49:58Z</time>
      </trkpt>
      <trkpt lat="42.85967" lon="0.25923">
        <ele>1643.5</ele>
        <time>2022-02-09T13:49:59Z</time>
      </trkpt>
      <trkpt lat="42.85964" lon="0.25923">
        <ele>1642.9</ele>
        <time>2022-02-09T13:50:00Z</time>
      </trkpt>
      <trkpt lat="42.85961" lon="0.25925">
        <ele>1642.1</ele>
        <time>2022-02-09T13:50:01Z</time>
      </trkpt>
      <trkpt lat="42.85957" lon="0.25928">
        <ele>1641.3</ele>
        <time>2022-02-09T13:50:02Z</time>
      </trkpt>
      <trkpt lat="42.85953" lon="0.25929">
        <ele>1640.3</ele>
        <time>2022-02-09T13:50:03Z</time>
      </trkpt>
      <trkpt lat="42.85948" lon="0.2593">
        <ele>1639.5</ele>
        <time>2022-02-09T13:50:04Z</time>
      </trkpt>
      <trkpt lat="42.85946" lon="0.25934">
        <ele>1638.7</ele>
        <time>2022-02-09T13:50:05Z</time>
      </trkpt>
      <trkpt lat="42.85942" lon="0.25937">
        <ele>1637.9</ele>
        <time>2022-02-09T13:50:06Z</time>
      </trkpt>
      <trkpt lat="42.85938" lon="0.25937">
        <ele>1637</ele>
        <time>2022-02-09T13:50:07Z</time>
      </trkpt>
      <trkpt lat="42.85933" lon="0.25938">
        <ele>1636.1</ele>
        <time>2022-02-09T13:50:08Z</time>
      </trkpt>
      <trkpt lat="42.85931" lon="0.25942">
        <ele>1635.3</ele>
        <time>2022-02-09T13:50:09Z</time>
      </trkpt>
      <trkpt lat="42.85928" lon="0.25948">
        <ele>1634.3</ele>
        <time>2022-02-09T13:50:10Z</time>
      </trkpt>
      <trkpt lat="42.85923" lon="0.2595">
        <ele>1633.5</ele>
        <time>2022-02-09T13:50:11Z</time>
      </trkpt>
      <trkpt lat="42.85919" lon="0.25952">
        <ele>1632.7</ele>
        <time>2022-02-09T13:50:12Z</time>
      </trkpt>
      <trkpt lat="42.85916" lon="0.25956">
        <ele>1632</ele>
        <time>2022-02-09T13:50:13Z</time>
      </trkpt>
      <trkpt lat="42.85913" lon="0.25962">
        <ele>1631.2</ele>
        <time>2022-02-09T13:50:14Z</time>
      </trkpt>
      <trkpt lat="42.85909" lon="0.25965">
        <ele>1630.4</ele>
        <time>2022-02-09T13:50:15Z</time>
      </trkpt>
      <trkpt lat="42.85904" lon="0.25966">
        <ele>1629.5</ele>
        <time>2022-02-09T13:50:16Z</time>
      </trkpt>
      <trkpt lat="42.859" lon="0.25968">
        <ele>1628.6</ele>
        <time>2022-02-09T13:50:17Z</time>
      </trkpt>
      <trkpt lat="42.85896" lon="0.25973">
        <ele>1627.7</ele>
        <time>2022-02-09T13:50:18Z</time>
      </trkpt>
      <trkpt lat="42.85894" lon="0.25978">
        <ele>1626.9</ele>
        <time>2022-02-09T13:50:19Z</time>
      </trkpt>
      <trkpt lat="42.85893" lon="0.25984">
        <ele>1626.2</ele>
        <time>2022-02-09T13:50:20Z</time>
      </trkpt>
      <trkpt lat="42.85893" lon="0.25989">
        <ele>1625.6</ele>
        <time>2022-02-09T13:50:21Z</time>
      </trkpt>
      <trkpt lat="42.85893" lon="0.25992">
        <ele>1625.3</ele>
        <time>2022-02-09T13:50:22Z</time>
      </trkpt>
      <trkpt lat="42.85893" lon="0.25992">
        <ele>1625.3</ele>
        <time>2022-02-09T13:50:23Z</time>
      </trkpt>
      <trkpt lat="42.85893" lon="0.25992">
        <ele>1625.2</ele>
        <time>2022-02-09T13:50:24Z</time>
      </trkpt>
      <trkpt lat="42.85893" lon="0.25993">
        <ele>1625.2</ele>
        <time>2022-02-09T13:50:25Z</time>
      </trkpt>
      <trkpt lat="42.85891" lon="0.25993">
        <ele>1624.9</ele>
        <time>2022-02-09T13:50:26Z</time>
      </trkpt>
      <trkpt lat="42.85887" lon="0.25995">
        <ele>1624.6</ele>
        <time>2022-02-09T13:50:27Z</time>
      </trkpt>
      <trkpt lat="42.85887" lon="0.25999">
        <ele>1624.3</ele>
        <time>2022-02-09T13:50:28Z</time>
      </trkpt>
      <trkpt lat="42.85886" lon="0.26002">
        <ele>1624.2</ele>
        <time>2022-02-09T13:50:29Z</time>
      </trkpt>
      <trkpt lat="42.85886" lon="0.26004">
        <ele>1624.1</ele>
        <time>2022-02-09T13:50:30Z</time>
      </trkpt>
      <trkpt lat="42.85886" lon="0.26005">
        <ele>1624</ele>
        <time>2022-02-09T13:50:31Z</time>
      </trkpt>
      <trkpt lat="42.85886" lon="0.26008">
        <ele>1623.9</ele>
        <time>2022-02-09T13:50:32Z</time>
      </trkpt>
      <trkpt lat="42.85886" lon="0.26012">
        <ele>1623.8</ele>
        <time>2022-02-09T13:50:33Z</time>
      </trkpt>
      <trkpt lat="42.85886" lon="0.26017">
        <ele>1623.7</ele>
        <time>2022-02-09T13:50:34Z</time>
      </trkpt>
      <trkpt lat="42.85886" lon="0.26021">
        <ele>1623.6</ele>
        <time>2022-02-09T13:50:35Z</time>
      </trkpt>
      <trkpt lat="42.85885" lon="0.26026">
        <ele>1623.4</ele>
        <time>2022-02-09T13:50:36Z</time>
      </trkpt>
      <trkpt lat="42.85883" lon="0.26031">
        <ele>1623.1</ele>
        <time>2022-02-09T13:50:37Z</time>
      </trkpt>
      <trkpt lat="42.85881" lon="0.26036">
        <ele>1622.9</ele>
        <time>2022-02-09T13:50:38Z</time>
      </trkpt>
      <trkpt lat="42.85881" lon="0.26039">
        <ele>1622.7</ele>
        <time>2022-02-09T13:50:39Z</time>
      </trkpt>
      <trkpt lat="42.8588" lon="0.2604">
        <ele>1622.7</ele>
        <time>2022-02-09T13:50:40Z</time>
      </trkpt>
      <trkpt lat="42.8588" lon="0.2604">
        <ele>1622.7</ele>
        <time>2022-02-09T13:50:41Z</time>
      </trkpt>
      <trkpt lat="42.8588" lon="0.2604">
        <ele>1622.6</ele>
        <time>2022-02-09T13:50:42Z</time>
      </trkpt>
      <trkpt lat="42.8588" lon="0.2604">
        <ele>1622.6</ele>
        <time>2022-02-09T13:50:43Z</time>
      </trkpt>
      <trkpt lat="42.8588" lon="0.2604">
        <ele>1622.6</ele>
        <time>2022-02-09T13:50:44Z</time>
      </trkpt>
      <trkpt lat="42.8588" lon="0.2604">
        <ele>1622.6</ele>
        <time>2022-02-09T13:50:45Z</time>
      </trkpt>
      <trkpt lat="42.85878" lon="0.2604">
        <ele>1622.5</ele>
        <time>2022-02-09T13:50:46Z</time>
      </trkpt>
      <trkpt lat="42.85877" lon="0.26041">
        <ele>1622.4</ele>
        <time>2022-02-09T13:50:47Z</time>
      </trkpt>
      <trkpt lat="42.85875" lon="0.26042">
        <ele>1622.3</ele>
        <time>2022-02-09T13:50:48Z</time>
      </trkpt>
      <trkpt lat="42.85874" lon="0.26044">
        <ele>1622.2</ele>
        <time>2022-02-09T13:50:49Z</time>
      </trkpt>
      <trkpt lat="42.85873" lon="0.26048">
        <ele>1622</ele>
        <time>2022-02-09T13:50:50Z</time>
      </trkpt>
      <trkpt lat="42.85873" lon="0.26052">
        <ele>1621.8</ele>
        <time>2022-02-09T13:50:51Z</time>
      </trkpt>
      <trkpt lat="42.85873" lon="0.26055">
        <ele>1621.7</ele>
        <time>2022-02-09T13:50:52Z</time>
      </trkpt>
      <trkpt lat="42.85873" lon="0.26056">
        <ele>1621.7</ele>
        <time>2022-02-09T13:50:53Z</time>
      </trkpt>
      <trkpt lat="42.85874" lon="0.26056">
        <ele>1621.7</ele>
        <time>2022-02-09T13:50:54Z</time>
      </trkpt>
      <trkpt lat="42.85874" lon="0.26056">
        <ele>1621.6</ele>
        <time>2022-02-09T13:50:55Z</time>
      </trkpt>
      <trkpt lat="42.85874" lon="0.26056">
        <ele>1621.6</ele>
        <time>2022-02-09T13:50:56Z</time>
      </trkpt>
      <trkpt lat="42.85874" lon="0.26056">
        <ele>1621.6</ele>
        <time>2022-02-09T13:50:57Z</time>
      </trkpt>
      <trkpt lat="42.85873" lon="0.26057">
        <ele>1621.6</ele>
        <time>2022-02-09T13:50:58Z</time>
      </trkpt>
      <trkpt lat="42.8587" lon="0.26058">
        <ele>1621.4</ele>
        <time>2022-02-09T13:50:59Z</time>
      </trkpt>
      <trkpt lat="42.85869" lon="0.26061">
        <ele>1621.3</ele>
        <time>2022-02-09T13:51:00Z</time>
      </trkpt>
      <trkpt lat="42.85867" lon="0.26063">
        <ele>1621.2</ele>
        <time>2022-02-09T13:51:01Z</time>
      </trkpt>
      <trkpt lat="42.85865" lon="0.26065">
        <ele>1621</ele>
        <time>2022-02-09T13:51:02Z</time>
      </trkpt>
      <trkpt lat="42.85863" lon="0.26067">
        <ele>1620.8</ele>
        <time>2022-02-09T13:51:03Z</time>
      </trkpt>
      <trkpt lat="42.85861" lon="0.2607">
        <ele>1620.7</ele>
        <time>2022-02-09T13:51:04Z</time>
      </trkpt>
      <trkpt lat="42.85861" lon="0.26073">
        <ele>1620.4</ele>
        <time>2022-02-09T13:51:05Z</time>
      </trkpt>
      <trkpt lat="42.85861" lon="0.26077">
        <ele>1620.2</ele>
        <time>2022-02-09T13:51:06Z</time>
      </trkpt>
      <trkpt lat="42.85862" lon="0.26081">
        <ele>1619.9</ele>
        <time>2022-02-09T13:51:07Z</time>
      </trkpt>
      <trkpt lat="42.85862" lon="0.26083">
        <ele>1619.7</ele>
        <time>2022-02-09T13:51:08Z</time>
      </trkpt>
      <trkpt lat="42.85861" lon="0.26084">
        <ele>1619.6</ele>
        <time>2022-02-09T13:51:09Z</time>
      </trkpt>
      <trkpt lat="42.85861" lon="0.26084">
        <ele>1619.6</ele>
        <time>2022-02-09T13:51:10Z</time>
      </trkpt>
      <trkpt lat="42.85861" lon="0.26084">
        <ele>1619.6</ele>
        <time>2022-02-09T13:51:11Z</time>
      </trkpt>
      <trkpt lat="42.85861" lon="0.26084">
        <ele>1619.6</ele>
        <time>2022-02-09T13:51:12Z</time>
      </trkpt>
      <trkpt lat="42.85861" lon="0.26084">
        <ele>1619.6</ele>
        <time>2022-02-09T13:51:13Z</time>
      </trkpt>
      <trkpt lat="42.85861" lon="0.26084">
        <ele>1619.6</ele>
        <time>2022-02-09T13:51:14Z</time>
      </trkpt>
      <trkpt lat="42.85861" lon="0.26084">
        <ele>1619.6</ele>
        <time>2022-02-09T13:51:15Z</time>
      </trkpt>
      <trkpt lat="42.85861" lon="0.26084">
        <ele>1619.6</ele>
        <time>2022-02-09T13:51:16Z</time>
      </trkpt>
      <trkpt lat="42.85861" lon="0.26084">
        <ele>1619.6</ele>
        <time>2022-02-09T13:51:17Z</time>
      </trkpt>
      <trkpt lat="42.85861" lon="0.26085">
        <ele>1619.6</ele>
        <time>2022-02-09T13:51:18Z</time>
      </trkpt>
      <trkpt lat="42.85861" lon="0.26085">
        <ele>1619.6</ele>
        <time>2022-02-09T13:51:19Z</time>
      </trkpt>
      <trkpt lat="42.85861" lon="0.26085">
        <ele>1619.6</ele>
        <time>2022-02-09T13:51:20Z</time>
      </trkpt>
      <trkpt lat="42.85861" lon="0.26085">
        <ele>1619.6</ele>
        <time>2022-02-09T13:51:21Z</time>
      </trkpt>
      <trkpt lat="42.85861" lon="0.26085">
        <ele>1619.6</ele>
        <time>2022-02-09T13:51:22Z</time>
      </trkpt>
      <trkpt lat="42.85861" lon="0.26085">
        <ele>1619.6</ele>
        <time>2022-02-09T13:51:23Z</time>
      </trkpt>
      <trkpt lat="42.85861" lon="0.26085">
        <ele>1619.6</ele>
        <time>2022-02-09T13:51:24Z</time>
      </trkpt>
      <trkpt lat="42.85861" lon="0.26085">
        <ele>1619.6</ele>
        <time>2022-02-09T13:51:25Z</time>
      </trkpt>
      <trkpt lat="42.85861" lon="0.26085">
        <ele>1619.6</ele>
        <time>2022-02-09T13:51:26Z</time>
      </trkpt>
      <trkpt lat="42.85861" lon="0.26085">
        <ele>1619.6</ele>
        <time>2022-02-09T13:51:27Z</time>
      </trkpt>
      <trkpt lat="42.85861" lon="0.26085">
        <ele>1619.6</ele>
        <time>2022-02-09T13:51:28Z</time>
      </trkpt>
      <trkpt lat="42.85861" lon="0.26085">
        <ele>1619.6</ele>
        <time>2022-02-09T13:51:29Z</time>
      </trkpt>
      <trkpt lat="42.85861" lon="0.26085">
        <ele>1619.6</ele>
        <time>2022-02-09T13:51:30Z</time>
      </trkpt>
      <trkpt lat="42.85861" lon="0.26085">
        <ele>1619.6</ele>
        <time>2022-02-09T13:51:31Z</time>
      </trkpt>
      <trkpt lat="42.85861" lon="0.26085">
        <ele>1619.6</ele>
        <time>2022-02-09T13:51:32Z</time>
      </trkpt>
      <trkpt lat="42.85861" lon="0.26085">
        <ele>1619.6</ele>
        <time>2022-02-09T13:51:33Z</time>
      </trkpt>
      <trkpt lat="42.85861" lon="0.26085">
        <ele>1619.6</ele>
        <time>2022-02-09T13:51:34Z</time>
      </trkpt>
      <trkpt lat="42.85861" lon="0.26085">
        <ele>1619.5</ele>
        <time>2022-02-09T13:51:35Z</time>
      </trkpt>
      <trkpt lat="42.85861" lon="0.26085">
        <ele>1619.5</ele>
        <time>2022-02-09T13:51:36Z</time>
      </trkpt>
      <trkpt lat="42.85861" lon="0.26085">
        <ele>1619.5</ele>
        <time>2022-02-09T13:51:37Z</time>
      </trkpt>
      <trkpt lat="42.85861" lon="0.26085">
        <ele>1619.5</ele>
        <time>2022-02-09T13:51:38Z</time>
      </trkpt>
      <trkpt lat="42.85861" lon="0.26085">
        <ele>1619.5</ele>
        <time>2022-02-09T13:51:39Z</time>
      </trkpt>
      <trkpt lat="42.85861" lon="0.26085">
        <ele>1619.5</ele>
        <time>2022-02-09T13:51:40Z</time>
      </trkpt>
      <trkpt lat="42.85861" lon="0.26085">
        <ele>1619.5</ele>
        <time>2022-02-09T13:51:41Z</time>
      </trkpt>
      <trkpt lat="42.85861" lon="0.26085">
        <ele>1619.5</ele>
        <time>2022-02-09T13:51:42Z</time>
      </trkpt>
      <trkpt lat="42.85861" lon="0.26085">
        <ele>1619.5</ele>
        <time>2022-02-09T13:51:43Z</time>
      </trkpt>
      <trkpt lat="42.85861" lon="0.26085">
        <ele>1619.5</ele>
        <time>2022-02-09T13:51:44Z</time>
      </trkpt>
      <trkpt lat="42.85861" lon="0.26085">
        <ele>1619.5</ele>
        <time>2022-02-09T13:51:45Z</time>
      </trkpt>
      <trkpt lat="42.85861" lon="0.26085">
        <ele>1619.5</ele>
        <time>2022-02-09T13:51:46Z</time>
      </trkpt>
      <trkpt lat="42.85861" lon="0.26085">
        <ele>1619.5</ele>
        <time>2022-02-09T13:51:47Z</time>
      </trkpt>
      <trkpt lat="42.85861" lon="0.26085">
        <ele>1619.5</ele>
        <time>2022-02-09T13:51:48Z</time>
      </trkpt>
      <trkpt lat="42.85861" lon="0.26085">
        <ele>1619.5</ele>
        <time>2022-02-09T13:51:49Z</time>
      </trkpt>
      <trkpt lat="42.85861" lon="0.26086">
        <ele>1619.5</ele>
        <time>2022-02-09T13:51:50Z</time>
      </trkpt>
      <trkpt lat="42.85861" lon="0.26086">
        <ele>1619.5</ele>
        <time>2022-02-09T13:51:51Z</time>
      </trkpt>
      <trkpt lat="42.8586" lon="0.26086">
        <ele>1619.5</ele>
        <time>2022-02-09T13:51:52Z</time>
      </trkpt>
      <trkpt lat="42.8586" lon="0.26086">
        <ele>1619.5</ele>
        <time>2022-02-09T13:51:53Z</time>
      </trkpt>
      <trkpt lat="42.8586" lon="0.26086">
        <ele>1619.5</ele>
        <time>2022-02-09T13:51:54Z</time>
      </trkpt>
      <trkpt lat="42.8586" lon="0.26086">
        <ele>1619.5</ele>
        <time>2022-02-09T13:51:55Z</time>
      </trkpt>
      <trkpt lat="42.8586" lon="0.26086">
        <ele>1619.5</ele>
        <time>2022-02-09T13:51:56Z</time>
      </trkpt>
      <trkpt lat="42.8586" lon="0.26086">
        <ele>1619.5</ele>
        <time>2022-02-09T13:51:57Z</time>
      </trkpt>
      <trkpt lat="42.8586" lon="0.26086">
        <ele>1619.5</ele>
        <time>2022-02-09T13:51:58Z</time>
      </trkpt>
      <trkpt lat="42.8586" lon="0.26086">
        <ele>1619.4</ele>
        <time>2022-02-09T13:51:59Z</time>
      </trkpt>
      <trkpt lat="42.8586" lon="0.26086">
        <ele>1619.4</ele>
        <time>2022-02-09T13:52:00Z</time>
      </trkpt>
      <trkpt lat="42.8586" lon="0.26086">
        <ele>1619.4</ele>
        <time>2022-02-09T13:52:01Z</time>
      </trkpt>
      <trkpt lat="42.8586" lon="0.26086">
        <ele>1619.4</ele>
        <time>2022-02-09T13:52:02Z</time>
      </trkpt>
      <trkpt lat="42.8586" lon="0.26086">
        <ele>1619.4</ele>
        <time>2022-02-09T13:52:03Z</time>
      </trkpt>
      <trkpt lat="42.8586" lon="0.26086">
        <ele>1619.4</ele>
        <time>2022-02-09T13:52:04Z</time>
      </trkpt>
      <trkpt lat="42.8586" lon="0.26086">
        <ele>1619.4</ele>
        <time>2022-02-09T13:52:05Z</time>
      </trkpt>
      <trkpt lat="42.8586" lon="0.26086">
        <ele>1619.4</ele>
        <time>2022-02-09T13:52:06Z</time>
      </trkpt>
      <trkpt lat="42.8586" lon="0.26086">
        <ele>1619.4</ele>
        <time>2022-02-09T13:52:07Z</time>
      </trkpt>
      <trkpt lat="42.8586" lon="0.26086">
        <ele>1619.4</ele>
        <time>2022-02-09T13:52:08Z</time>
      </trkpt>
      <trkpt lat="42.8586" lon="0.26086">
        <ele>1619.4</ele>
        <time>2022-02-09T13:52:09Z</time>
      </trkpt>
      <trkpt lat="42.8586" lon="0.26086">
        <ele>1619.4</ele>
        <time>2022-02-09T13:52:10Z</time>
      </trkpt>
      <trkpt lat="42.8586" lon="0.26086">
        <ele>1619.4</ele>
        <time>2022-02-09T13:52:11Z</time>
      </trkpt>
      <trkpt lat="42.8586" lon="0.26086">
        <ele>1619.4</ele>
        <time>2022-02-09T13:52:12Z</time>
      </trkpt>
      <trkpt lat="42.8586" lon="0.26086">
        <ele>1619.4</ele>
        <time>2022-02-09T13:52:13Z</time>
      </trkpt>
      <trkpt lat="42.8586" lon="0.26086">
        <ele>1619.4</ele>
        <time>2022-02-09T13:52:14Z</time>
      </trkpt>
      <trkpt lat="42.8586" lon="0.26086">
        <ele>1619.4</ele>
        <time>2022-02-09T13:52:15Z</time>
      </trkpt>
      <trkpt lat="42.8586" lon="0.26086">
        <ele>1619.4</ele>
        <time>2022-02-09T13:52:16Z</time>
      </trkpt>
      <trkpt lat="42.8586" lon="0.26086">
        <ele>1619.4</ele>
        <time>2022-02-09T13:52:17Z</time>
      </trkpt>
      <trkpt lat="42.8586" lon="0.26086">
        <ele>1619.4</ele>
        <time>2022-02-09T13:52:18Z</time>
      </trkpt>
      <trkpt lat="42.8586" lon="0.26086">
        <ele>1619.4</ele>
        <time>2022-02-09T13:52:19Z</time>
      </trkpt>
      <trkpt lat="42.8586" lon="0.26086">
        <ele>1619.4</ele>
        <time>2022-02-09T13:52:20Z</time>
      </trkpt>
      <trkpt lat="42.8586" lon="0.26087">
        <ele>1619.4</ele>
        <time>2022-02-09T13:52:21Z</time>
      </trkpt>
      <trkpt lat="42.8586" lon="0.26087">
        <ele>1619.4</ele>
        <time>2022-02-09T13:52:22Z</time>
      </trkpt>
      <trkpt lat="42.8586" lon="0.26087">
        <ele>1619.4</ele>
        <time>2022-02-09T13:52:23Z</time>
      </trkpt>
      <trkpt lat="42.8586" lon="0.26087">
        <ele>1619.4</ele>
        <time>2022-02-09T13:52:24Z</time>
      </trkpt>
      <trkpt lat="42.8586" lon="0.26087">
        <ele>1619.4</ele>
        <time>2022-02-09T13:52:25Z</time>
      </trkpt>
      <trkpt lat="42.8586" lon="0.26087">
        <ele>1619.3</ele>
        <time>2022-02-09T13:52:26Z</time>
      </trkpt>
      <trkpt lat="42.8586" lon="0.26087">
        <ele>1619.3</ele>
        <time>2022-02-09T13:52:27Z</time>
      </trkpt>
      <trkpt lat="42.8586" lon="0.26087">
        <ele>1619.3</ele>
        <time>2022-02-09T13:52:28Z</time>
      </trkpt>
      <trkpt lat="42.8586" lon="0.26087">
        <ele>1619.3</ele>
        <time>2022-02-09T13:52:29Z</time>
      </trkpt>
      <trkpt lat="42.8586" lon="0.26087">
        <ele>1619.3</ele>
        <time>2022-02-09T13:52:30Z</time>
      </trkpt>
      <trkpt lat="42.8586" lon="0.26087">
        <ele>1619.3</ele>
        <time>2022-02-09T13:52:31Z</time>
      </trkpt>
      <trkpt lat="42.8586" lon="0.26087">
        <ele>1619.3</ele>
        <time>2022-02-09T13:52:32Z</time>
      </trkpt>
      <trkpt lat="42.8586" lon="0.26087">
        <ele>1619.3</ele>
        <time>2022-02-09T13:52:33Z</time>
      </trkpt>
      <trkpt lat="42.8586" lon="0.26087">
        <ele>1619.3</ele>
        <time>2022-02-09T13:52:34Z</time>
      </trkpt>
      <trkpt lat="42.8586" lon="0.26087">
        <ele>1619.3</ele>
        <time>2022-02-09T13:52:35Z</time>
      </trkpt>
      <trkpt lat="42.8586" lon="0.26087">
        <ele>1619.3</ele>
        <time>2022-02-09T13:52:36Z</time>
      </trkpt>
      <trkpt lat="42.8586" lon="0.26087">
        <ele>1619.3</ele>
        <time>2022-02-09T13:52:37Z</time>
      </trkpt>
      <trkpt lat="42.8586" lon="0.26087">
        <ele>1619.3</ele>
        <time>2022-02-09T13:52:38Z</time>
      </trkpt>
      <trkpt lat="42.8586" lon="0.26087">
        <ele>1619.3</ele>
        <time>2022-02-09T13:52:39Z</time>
      </trkpt>
      <trkpt lat="42.8586" lon="0.26087">
        <ele>1619.3</ele>
        <time>2022-02-09T13:52:40Z</time>
      </trkpt>
      <trkpt lat="42.8586" lon="0.26087">
        <ele>1619.3</ele>
        <time>2022-02-09T13:52:41Z</time>
      </trkpt>
      <trkpt lat="42.8586" lon="0.26087">
        <ele>1619.3</ele>
        <time>2022-02-09T13:52:42Z</time>
      </trkpt>
      <trkpt lat="42.8586" lon="0.26087">
        <ele>1619.3</ele>
        <time>2022-02-09T13:52:43Z</time>
      </trkpt>
      <trkpt lat="42.8586" lon="0.26087">
        <ele>1619.3</ele>
        <time>2022-02-09T13:52:44Z</time>
      </trkpt>
      <trkpt lat="42.8586" lon="0.26087">
        <ele>1619.3</ele>
        <time>2022-02-09T13:52:45Z</time>
      </trkpt>
      <trkpt lat="42.8586" lon="0.26087">
        <ele>1619.3</ele>
        <time>2022-02-09T13:52:46Z</time>
      </trkpt>
      <trkpt lat="42.8586" lon="0.26087">
        <ele>1619.3</ele>
        <time>2022-02-09T13:52:47Z</time>
      </trkpt>
      <trkpt lat="42.8586" lon="0.26087">
        <ele>1619.3</ele>
        <time>2022-02-09T13:52:48Z</time>
      </trkpt>
      <trkpt lat="42.85859" lon="0.26087">
        <ele>1619.3</ele>
        <time>2022-02-09T13:52:49Z</time>
      </trkpt>
      <trkpt lat="42.85859" lon="0.26087">
        <ele>1619.2</ele>
        <time>2022-02-09T13:52:50Z</time>
      </trkpt>
      <trkpt lat="42.85859" lon="0.26087">
        <ele>1619.2</ele>
        <time>2022-02-09T13:52:51Z</time>
      </trkpt>
      <trkpt lat="42.85859" lon="0.26087">
        <ele>1619.2</ele>
        <time>2022-02-09T13:52:52Z</time>
      </trkpt>
      <trkpt lat="42.85859" lon="0.26088">
        <ele>1619.2</ele>
        <time>2022-02-09T13:52:53Z</time>
      </trkpt>
      <trkpt lat="42.85859" lon="0.26088">
        <ele>1619.2</ele>
        <time>2022-02-09T13:52:54Z</time>
      </trkpt>
      <trkpt lat="42.85859" lon="0.26088">
        <ele>1619.2</ele>
        <time>2022-02-09T13:52:55Z</time>
      </trkpt>
      <trkpt lat="42.85859" lon="0.26088">
        <ele>1619.2</ele>
        <time>2022-02-09T13:52:56Z</time>
      </trkpt>
      <trkpt lat="42.85859" lon="0.26088">
        <ele>1619.2</ele>
        <time>2022-02-09T13:52:57Z</time>
      </trkpt>
      <trkpt lat="42.85859" lon="0.26088">
        <ele>1619.2</ele>
        <time>2022-02-09T13:52:58Z</time>
      </trkpt>
      <trkpt lat="42.85859" lon="0.26088">
        <ele>1619.2</ele>
        <time>2022-02-09T13:52:59Z</time>
      </trkpt>
      <trkpt lat="42.85859" lon="0.26088">
        <ele>1619.2</ele>
        <time>2022-02-09T13:53:00Z</time>
      </trkpt>
      <trkpt lat="42.85859" lon="0.26088">
        <ele>1619.2</ele>
        <time>2022-02-09T13:53:01Z</time>
      </trkpt>
      <trkpt lat="42.85859" lon="0.26088">
        <ele>1619.2</ele>
        <time>2022-02-09T13:53:02Z</time>
      </trkpt>
      <trkpt lat="42.85859" lon="0.26088">
        <ele>1619.2</ele>
        <time>2022-02-09T13:53:03Z</time>
      </trkpt>
      <trkpt lat="42.85859" lon="0.26088">
        <ele>1619.2</ele>
        <time>2022-02-09T13:53:04Z</time>
      </trkpt>
      <trkpt lat="42.85859" lon="0.26088">
        <ele>1619.2</ele>
        <time>2022-02-09T13:53:05Z</time>
      </trkpt>
      <trkpt lat="42.85859" lon="0.26088">
        <ele>1619.2</ele>
        <time>2022-02-09T13:53:06Z</time>
      </trkpt>
      <trkpt lat="42.85859" lon="0.26088">
        <ele>1619.2</ele>
        <time>2022-02-09T13:53:07Z</time>
      </trkpt>
      <trkpt lat="42.85859" lon="0.26088">
        <ele>1619.2</ele>
        <time>2022-02-09T13:53:08Z</time>
      </trkpt>
      <trkpt lat="42.85859" lon="0.26088">
        <ele>1619.2</ele>
        <time>2022-02-09T13:53:09Z</time>
      </trkpt>
      <trkpt lat="42.85859" lon="0.26088">
        <ele>1619.2</ele>
        <time>2022-02-09T13:53:10Z</time>
      </trkpt>
      <trkpt lat="42.85859" lon="0.26088">
        <ele>1619.2</ele>
        <time>2022-02-09T13:53:11Z</time>
      </trkpt>
      <trkpt lat="42.85859" lon="0.26088">
        <ele>1619.2</ele>
        <time>2022-02-09T13:53:12Z</time>
      </trkpt>
      <trkpt lat="42.85859" lon="0.26088">
        <ele>1619.2</ele>
        <time>2022-02-09T13:53:13Z</time>
      </trkpt>
      <trkpt lat="42.85859" lon="0.26088">
        <ele>1619.2</ele>
        <time>2022-02-09T13:53:14Z</time>
      </trkpt>
      <trkpt lat="42.85859" lon="0.26088">
        <ele>1619.1</ele>
        <time>2022-02-09T13:53:15Z</time>
      </trkpt>
      <trkpt lat="42.85859" lon="0.26088">
        <ele>1619.1</ele>
        <time>2022-02-09T13:53:16Z</time>
      </trkpt>
      <trkpt lat="42.85859" lon="0.26088">
        <ele>1619.1</ele>
        <time>2022-02-09T13:53:17Z</time>
      </trkpt>
      <trkpt lat="42.85859" lon="0.26088">
        <ele>1619.1</ele>
        <time>2022-02-09T13:53:18Z</time>
      </trkpt>
      <trkpt lat="42.85859" lon="0.26088">
        <ele>1619.1</ele>
        <time>2022-02-09T13:53:19Z</time>
      </trkpt>
      <trkpt lat="42.85859" lon="0.26088">
        <ele>1619.1</ele>
        <time>2022-02-09T13:53:20Z</time>
      </trkpt>
      <trkpt lat="42.85859" lon="0.26088">
        <ele>1619.1</ele>
        <time>2022-02-09T13:53:21Z</time>
      </trkpt>
      <trkpt lat="42.85859" lon="0.26088">
        <ele>1619.1</ele>
        <time>2022-02-09T13:53:22Z</time>
      </trkpt>
      <trkpt lat="42.85859" lon="0.26088">
        <ele>1619.1</ele>
        <time>2022-02-09T13:53:23Z</time>
      </trkpt>
      <trkpt lat="42.85856" lon="0.26095">
        <ele>1618.5</ele>
        <time>2022-02-09T13:53:24Z</time>
      </trkpt>
      <trkpt lat="42.85855" lon="0.26098">
        <ele>1618.2</ele>
        <time>2022-02-09T13:53:25Z</time>
      </trkpt>
      <trkpt lat="42.85854" lon="0.26099">
        <ele>1618.1</ele>
        <time>2022-02-09T13:53:26Z</time>
      </trkpt>
      <trkpt lat="42.85854" lon="0.261">
        <ele>1618</ele>
        <time>2022-02-09T13:53:27Z</time>
      </trkpt>
      <trkpt lat="42.85854" lon="0.26101">
        <ele>1617.9</ele>
        <time>2022-02-09T13:53:28Z</time>
      </trkpt>
      <trkpt lat="42.85853" lon="0.26102">
        <ele>1617.9</ele>
        <time>2022-02-09T13:53:29Z</time>
      </trkpt>
      <trkpt lat="42.85853" lon="0.26103">
        <ele>1617.8</ele>
        <time>2022-02-09T13:53:30Z</time>
      </trkpt>
      <trkpt lat="42.85853" lon="0.26104">
        <ele>1617.6</ele>
        <time>2022-02-09T13:53:31Z</time>
      </trkpt>
      <trkpt lat="42.85852" lon="0.26105">
        <ele>1617.5</ele>
        <time>2022-02-09T13:53:32Z</time>
      </trkpt>
      <trkpt lat="42.85852" lon="0.26107">
        <ele>1617.4</ele>
        <time>2022-02-09T13:53:33Z</time>
      </trkpt>
      <trkpt lat="42.85851" lon="0.26108">
        <ele>1617.3</ele>
        <time>2022-02-09T13:53:34Z</time>
      </trkpt>
      <trkpt lat="42.85851" lon="0.26109">
        <ele>1617.2</ele>
        <time>2022-02-09T13:53:35Z</time>
      </trkpt>
      <trkpt lat="42.85851" lon="0.2611">
        <ele>1617.1</ele>
        <time>2022-02-09T13:53:36Z</time>
      </trkpt>
      <trkpt lat="42.8585" lon="0.26111">
        <ele>1617</ele>
        <time>2022-02-09T13:53:37Z</time>
      </trkpt>
      <trkpt lat="42.8585" lon="0.26112">
        <ele>1616.9</ele>
        <time>2022-02-09T13:53:38Z</time>
      </trkpt>
      <trkpt lat="42.8585" lon="0.26113">
        <ele>1616.8</ele>
        <time>2022-02-09T13:53:39Z</time>
      </trkpt>
      <trkpt lat="42.85849" lon="0.26114">
        <ele>1616.7</ele>
        <time>2022-02-09T13:53:40Z</time>
      </trkpt>
      <trkpt lat="42.85849" lon="0.26115">
        <ele>1616.6</ele>
        <time>2022-02-09T13:53:41Z</time>
      </trkpt>
      <trkpt lat="42.85849" lon="0.26117">
        <ele>1616.5</ele>
        <time>2022-02-09T13:53:42Z</time>
      </trkpt>
      <trkpt lat="42.85848" lon="0.26118">
        <ele>1616.3</ele>
        <time>2022-02-09T13:53:43Z</time>
      </trkpt>
      <trkpt lat="42.85848" lon="0.26119">
        <ele>1616.2</ele>
        <time>2022-02-09T13:53:44Z</time>
      </trkpt>
      <trkpt lat="42.85848" lon="0.2612">
        <ele>1616.1</ele>
        <time>2022-02-09T13:53:45Z</time>
      </trkpt>
      <trkpt lat="42.85847" lon="0.26121">
        <ele>1616</ele>
        <time>2022-02-09T13:53:46Z</time>
      </trkpt>
      <trkpt lat="42.85847" lon="0.26122">
        <ele>1615.8</ele>
        <time>2022-02-09T13:53:47Z</time>
      </trkpt>
      <trkpt lat="42.85847" lon="0.26123">
        <ele>1615.7</ele>
        <time>2022-02-09T13:53:48Z</time>
      </trkpt>
      <trkpt lat="42.85846" lon="0.26124">
        <ele>1615.6</ele>
        <time>2022-02-09T13:53:49Z</time>
      </trkpt>
      <trkpt lat="42.85846" lon="0.26125">
        <ele>1615.5</ele>
        <time>2022-02-09T13:53:50Z</time>
      </trkpt>
      <trkpt lat="42.85845" lon="0.26127">
        <ele>1615.4</ele>
        <time>2022-02-09T13:53:51Z</time>
      </trkpt>
      <trkpt lat="42.85845" lon="0.26128">
        <ele>1615.2</ele>
        <time>2022-02-09T13:53:52Z</time>
      </trkpt>
      <trkpt lat="42.85845" lon="0.26129">
        <ele>1615.1</ele>
        <time>2022-02-09T13:53:53Z</time>
      </trkpt>
      <trkpt lat="42.85844" lon="0.2613">
        <ele>1615</ele>
        <time>2022-02-09T13:53:54Z</time>
      </trkpt>
      <trkpt lat="42.85844" lon="0.26131">
        <ele>1614.9</ele>
        <time>2022-02-09T13:53:55Z</time>
      </trkpt>
      <trkpt lat="42.85844" lon="0.26132">
        <ele>1614.7</ele>
        <time>2022-02-09T13:53:56Z</time>
      </trkpt>
      <trkpt lat="42.85843" lon="0.26133">
        <ele>1614.6</ele>
        <time>2022-02-09T13:53:57Z</time>
      </trkpt>
      <trkpt lat="42.85843" lon="0.26134">
        <ele>1614.5</ele>
        <time>2022-02-09T13:53:58Z</time>
      </trkpt>
      <trkpt lat="42.85843" lon="0.26135">
        <ele>1614.4</ele>
        <time>2022-02-09T13:53:59Z</time>
      </trkpt>
      <trkpt lat="42.85842" lon="0.26137">
        <ele>1614.3</ele>
        <time>2022-02-09T13:54:00Z</time>
      </trkpt>
      <trkpt lat="42.85842" lon="0.26138">
        <ele>1614.1</ele>
        <time>2022-02-09T13:54:01Z</time>
      </trkpt>
      <trkpt lat="42.85842" lon="0.26139">
        <ele>1614</ele>
        <time>2022-02-09T13:54:02Z</time>
      </trkpt>
      <trkpt lat="42.85841" lon="0.2614">
        <ele>1613.9</ele>
        <time>2022-02-09T13:54:03Z</time>
      </trkpt>
      <trkpt lat="42.85841" lon="0.26141">
        <ele>1613.8</ele>
        <time>2022-02-09T13:54:04Z</time>
      </trkpt>
      <trkpt lat="42.8584" lon="0.26142">
        <ele>1613.7</ele>
        <time>2022-02-09T13:54:05Z</time>
      </trkpt>
      <trkpt lat="42.8584" lon="0.26143">
        <ele>1613.6</ele>
        <time>2022-02-09T13:54:06Z</time>
      </trkpt>
      <trkpt lat="42.8584" lon="0.26144">
        <ele>1613.6</ele>
        <time>2022-02-09T13:54:07Z</time>
      </trkpt>
      <trkpt lat="42.85839" lon="0.26146">
        <ele>1613.5</ele>
        <time>2022-02-09T13:54:08Z</time>
      </trkpt>
      <trkpt lat="42.85839" lon="0.26147">
        <ele>1613.4</ele>
        <time>2022-02-09T13:54:09Z</time>
      </trkpt>
      <trkpt lat="42.85839" lon="0.26148">
        <ele>1613.3</ele>
        <time>2022-02-09T13:54:10Z</time>
      </trkpt>
      <trkpt lat="42.85838" lon="0.26149">
        <ele>1613.2</ele>
        <time>2022-02-09T13:54:11Z</time>
      </trkpt>
      <trkpt lat="42.85838" lon="0.2615">
        <ele>1613.2</ele>
        <time>2022-02-09T13:54:12Z</time>
      </trkpt>
      <trkpt lat="42.85838" lon="0.26151">
        <ele>1613.1</ele>
        <time>2022-02-09T13:54:13Z</time>
      </trkpt>
      <trkpt lat="42.85837" lon="0.26152">
        <ele>1613</ele>
        <time>2022-02-09T13:54:14Z</time>
      </trkpt>
      <trkpt lat="42.85835" lon="0.26159">
        <ele>1612.6</ele>
        <time>2022-02-09T13:54:15Z</time>
      </trkpt>
      <trkpt lat="42.85835" lon="0.2616">
        <ele>1612.6</ele>
        <time>2022-02-09T13:54:16Z</time>
      </trkpt>
      <trkpt lat="42.85835" lon="0.2616">
        <ele>1612.6</ele>
        <time>2022-02-09T13:54:17Z</time>
      </trkpt>
      <trkpt lat="42.85834" lon="0.26161">
        <ele>1612.5</ele>
        <time>2022-02-09T13:54:18Z</time>
      </trkpt>
      <trkpt lat="42.85834" lon="0.26161">
        <ele>1612.5</ele>
        <time>2022-02-09T13:54:19Z</time>
      </trkpt>
      <trkpt lat="42.85834" lon="0.26161">
        <ele>1612.5</ele>
        <time>2022-02-09T13:54:20Z</time>
      </trkpt>
      <trkpt lat="42.85834" lon="0.26162">
        <ele>1612.5</ele>
        <time>2022-02-09T13:54:21Z</time>
      </trkpt>
      <trkpt lat="42.85834" lon="0.26162">
        <ele>1612.5</ele>
        <time>2022-02-09T13:54:22Z</time>
      </trkpt>
      <trkpt lat="42.85834" lon="0.26162">
        <ele>1612.4</ele>
        <time>2022-02-09T13:54:23Z</time>
      </trkpt>
      <trkpt lat="42.85834" lon="0.26163">
        <ele>1612.4</ele>
        <time>2022-02-09T13:54:24Z</time>
      </trkpt>
      <trkpt lat="42.85834" lon="0.26163">
        <ele>1612.4</ele>
        <time>2022-02-09T13:54:25Z</time>
      </trkpt>
      <trkpt lat="42.85833" lon="0.26164">
        <ele>1612.4</ele>
        <time>2022-02-09T13:54:26Z</time>
      </trkpt>
      <trkpt lat="42.85833" lon="0.26164">
        <ele>1612.4</ele>
        <time>2022-02-09T13:54:27Z</time>
      </trkpt>
      <trkpt lat="42.85833" lon="0.26164">
        <ele>1612.3</ele>
        <time>2022-02-09T13:54:28Z</time>
      </trkpt>
      <trkpt lat="42.85833" lon="0.26165">
        <ele>1612.3</ele>
        <time>2022-02-09T13:54:29Z</time>
      </trkpt>
      <trkpt lat="42.85833" lon="0.26165">
        <ele>1612.3</ele>
        <time>2022-02-09T13:54:30Z</time>
      </trkpt>
      <trkpt lat="42.85833" lon="0.26165">
        <ele>1612.3</ele>
        <time>2022-02-09T13:54:31Z</time>
      </trkpt>
      <trkpt lat="42.85833" lon="0.26166">
        <ele>1612.3</ele>
        <time>2022-02-09T13:54:32Z</time>
      </trkpt>
      <trkpt lat="42.85833" lon="0.26166">
        <ele>1612.3</ele>
        <time>2022-02-09T13:54:33Z</time>
      </trkpt>
      <trkpt lat="42.85832" lon="0.26167">
        <ele>1612.2</ele>
        <time>2022-02-09T13:54:34Z</time>
      </trkpt>
      <trkpt lat="42.85832" lon="0.26167">
        <ele>1612.2</ele>
        <time>2022-02-09T13:54:35Z</time>
      </trkpt>
      <trkpt lat="42.85832" lon="0.26167">
        <ele>1612.2</ele>
        <time>2022-02-09T13:54:36Z</time>
      </trkpt>
      <trkpt lat="42.85832" lon="0.26168">
        <ele>1612.2</ele>
        <time>2022-02-09T13:54:37Z</time>
      </trkpt>
      <trkpt lat="42.85832" lon="0.26168">
        <ele>1612.2</ele>
        <time>2022-02-09T13:54:38Z</time>
      </trkpt>
      <trkpt lat="42.85832" lon="0.26168">
        <ele>1612.1</ele>
        <time>2022-02-09T13:54:39Z</time>
      </trkpt>
      <trkpt lat="42.85832" lon="0.26169">
        <ele>1612.1</ele>
        <time>2022-02-09T13:54:40Z</time>
      </trkpt>
      <trkpt lat="42.85832" lon="0.26169">
        <ele>1612.1</ele>
        <time>2022-02-09T13:54:41Z</time>
      </trkpt>
      <trkpt lat="42.85832" lon="0.2617">
        <ele>1612.1</ele>
        <time>2022-02-09T13:54:42Z</time>
      </trkpt>
      <trkpt lat="42.85831" lon="0.2617">
        <ele>1612.1</ele>
        <time>2022-02-09T13:54:43Z</time>
      </trkpt>
      <trkpt lat="42.85831" lon="0.2617">
        <ele>1612.1</ele>
        <time>2022-02-09T13:54:44Z</time>
      </trkpt>
      <trkpt lat="42.85831" lon="0.26171">
        <ele>1612</ele>
        <time>2022-02-09T13:54:45Z</time>
      </trkpt>
      <trkpt lat="42.85831" lon="0.26171">
        <ele>1612</ele>
        <time>2022-02-09T13:54:46Z</time>
      </trkpt>
      <trkpt lat="42.85831" lon="0.26171">
        <ele>1612</ele>
        <time>2022-02-09T13:54:47Z</time>
      </trkpt>
      <trkpt lat="42.85831" lon="0.26172">
        <ele>1612</ele>
        <time>2022-02-09T13:54:48Z</time>
      </trkpt>
      <trkpt lat="42.85831" lon="0.26172">
        <ele>1612</ele>
        <time>2022-02-09T13:54:49Z</time>
      </trkpt>
      <trkpt lat="42.85827" lon="0.26178">
        <ele>1611.7</ele>
        <time>2022-02-09T13:54:50Z</time>
      </trkpt>
      <trkpt lat="42.85827" lon="0.26179">
        <ele>1611.7</ele>
        <time>2022-02-09T13:54:51Z</time>
      </trkpt>
      <trkpt lat="42.85827" lon="0.2618">
        <ele>1611.6</ele>
        <time>2022-02-09T13:54:52Z</time>
      </trkpt>
      <trkpt lat="42.85827" lon="0.2618">
        <ele>1611.6</ele>
        <time>2022-02-09T13:54:53Z</time>
      </trkpt>
      <trkpt lat="42.85827" lon="0.2618">
        <ele>1611.6</ele>
        <time>2022-02-09T13:54:54Z</time>
      </trkpt>
      <trkpt lat="42.85827" lon="0.2618">
        <ele>1611.6</ele>
        <time>2022-02-09T13:54:55Z</time>
      </trkpt>
      <trkpt lat="42.85827" lon="0.2618">
        <ele>1611.6</ele>
        <time>2022-02-09T13:54:56Z</time>
      </trkpt>
      <trkpt lat="42.85827" lon="0.2618">
        <ele>1611.6</ele>
        <time>2022-02-09T13:54:57Z</time>
      </trkpt>
      <trkpt lat="42.85827" lon="0.2618">
        <ele>1611.6</ele>
        <time>2022-02-09T13:54:58Z</time>
      </trkpt>
      <trkpt lat="42.85827" lon="0.2618">
        <ele>1611.6</ele>
        <time>2022-02-09T13:54:59Z</time>
      </trkpt>
      <trkpt lat="42.85827" lon="0.2618">
        <ele>1611.6</ele>
        <time>2022-02-09T13:55:00Z</time>
      </trkpt>
      <trkpt lat="42.85827" lon="0.2618">
        <ele>1611.6</ele>
        <time>2022-02-09T13:55:01Z</time>
      </trkpt>
      <trkpt lat="42.85827" lon="0.2618">
        <ele>1611.6</ele>
        <time>2022-02-09T13:55:02Z</time>
      </trkpt>
      <trkpt lat="42.85827" lon="0.2618">
        <ele>1611.6</ele>
        <time>2022-02-09T13:55:03Z</time>
      </trkpt>
      <trkpt lat="42.85827" lon="0.2618">
        <ele>1611.6</ele>
        <time>2022-02-09T13:55:04Z</time>
      </trkpt>
      <trkpt lat="42.85827" lon="0.2618">
        <ele>1611.6</ele>
        <time>2022-02-09T13:55:05Z</time>
      </trkpt>
      <trkpt lat="42.85827" lon="0.2618">
        <ele>1611.6</ele>
        <time>2022-02-09T13:55:06Z</time>
      </trkpt>
      <trkpt lat="42.85827" lon="0.2618">
        <ele>1611.6</ele>
        <time>2022-02-09T13:55:07Z</time>
      </trkpt>
      <trkpt lat="42.85825" lon="0.26182">
        <ele>1611.5</ele>
        <time>2022-02-09T13:55:08Z</time>
      </trkpt>
      <trkpt lat="42.85821" lon="0.26186">
        <ele>1611.3</ele>
        <time>2022-02-09T13:55:09Z</time>
      </trkpt>
      <trkpt lat="42.8582" lon="0.26187">
        <ele>1611.2</ele>
        <time>2022-02-09T13:55:10Z</time>
      </trkpt>
      <trkpt lat="42.8582" lon="0.26188">
        <ele>1611.2</ele>
        <time>2022-02-09T13:55:11Z</time>
      </trkpt>
      <trkpt lat="42.85819" lon="0.26189">
        <ele>1611.2</ele>
        <time>2022-02-09T13:55:12Z</time>
      </trkpt>
      <trkpt lat="42.85819" lon="0.26189">
        <ele>1611.1</ele>
        <time>2022-02-09T13:55:13Z</time>
      </trkpt>
      <trkpt lat="42.85819" lon="0.2619">
        <ele>1611.1</ele>
        <time>2022-02-09T13:55:14Z</time>
      </trkpt>
      <trkpt lat="42.85819" lon="0.26191">
        <ele>1611.1</ele>
        <time>2022-02-09T13:55:15Z</time>
      </trkpt>
      <trkpt lat="42.85818" lon="0.26191">
        <ele>1611.1</ele>
        <time>2022-02-09T13:55:16Z</time>
      </trkpt>
      <trkpt lat="42.85818" lon="0.26192">
        <ele>1611.1</ele>
        <time>2022-02-09T13:55:17Z</time>
      </trkpt>
      <trkpt lat="42.85818" lon="0.26193">
        <ele>1611</ele>
        <time>2022-02-09T13:55:18Z</time>
      </trkpt>
      <trkpt lat="42.85818" lon="0.26193">
        <ele>1611</ele>
        <time>2022-02-09T13:55:19Z</time>
      </trkpt>
      <trkpt lat="42.85817" lon="0.26194">
        <ele>1611</ele>
        <time>2022-02-09T13:55:20Z</time>
      </trkpt>
      <trkpt lat="42.85817" lon="0.26195">
        <ele>1611</ele>
        <time>2022-02-09T13:55:21Z</time>
      </trkpt>
      <trkpt lat="42.85817" lon="0.26195">
        <ele>1610.9</ele>
        <time>2022-02-09T13:55:22Z</time>
      </trkpt>
      <trkpt lat="42.85817" lon="0.26196">
        <ele>1610.9</ele>
        <time>2022-02-09T13:55:23Z</time>
      </trkpt>
      <trkpt lat="42.85816" lon="0.26197">
        <ele>1610.9</ele>
        <time>2022-02-09T13:55:24Z</time>
      </trkpt>
      <trkpt lat="42.85816" lon="0.26197">
        <ele>1610.9</ele>
        <time>2022-02-09T13:55:25Z</time>
      </trkpt>
      <trkpt lat="42.85816" lon="0.26198">
        <ele>1610.9</ele>
        <time>2022-02-09T13:55:26Z</time>
      </trkpt>
      <trkpt lat="42.85816" lon="0.26199">
        <ele>1610.9</ele>
        <time>2022-02-09T13:55:27Z</time>
      </trkpt>
      <trkpt lat="42.85815" lon="0.26199">
        <ele>1610.8</ele>
        <time>2022-02-09T13:55:28Z</time>
      </trkpt>
      <trkpt lat="42.85815" lon="0.262">
        <ele>1610.8</ele>
        <time>2022-02-09T13:55:29Z</time>
      </trkpt>
      <trkpt lat="42.85815" lon="0.26201">
        <ele>1610.8</ele>
        <time>2022-02-09T13:55:30Z</time>
      </trkpt>
      <trkpt lat="42.85815" lon="0.26201">
        <ele>1610.8</ele>
        <time>2022-02-09T13:55:31Z</time>
      </trkpt>
      <trkpt lat="42.85814" lon="0.26202">
        <ele>1610.8</ele>
        <time>2022-02-09T13:55:32Z</time>
      </trkpt>
      <trkpt lat="42.85814" lon="0.26203">
        <ele>1610.8</ele>
        <time>2022-02-09T13:55:33Z</time>
      </trkpt>
      <trkpt lat="42.85813" lon="0.26211">
        <ele>1610.8</ele>
        <time>2022-02-09T13:55:34Z</time>
      </trkpt>
      <trkpt lat="42.85813" lon="0.26214">
        <ele>1610.8</ele>
        <time>2022-02-09T13:55:35Z</time>
      </trkpt>
      <trkpt lat="42.85813" lon="0.26215">
        <ele>1610.8</ele>
        <time>2022-02-09T13:55:36Z</time>
      </trkpt>
      <trkpt lat="42.85813" lon="0.26216">
        <ele>1610.8</ele>
        <time>2022-02-09T13:55:37Z</time>
      </trkpt>
      <trkpt lat="42.85813" lon="0.26216">
        <ele>1610.8</ele>
        <time>2022-02-09T13:55:38Z</time>
      </trkpt>
      <trkpt lat="42.85813" lon="0.26217">
        <ele>1610.9</ele>
        <time>2022-02-09T13:55:39Z</time>
      </trkpt>
      <trkpt lat="42.85813" lon="0.26218">
        <ele>1610.9</ele>
        <time>2022-02-09T13:55:40Z</time>
      </trkpt>
      <trkpt lat="42.85813" lon="0.26219">
        <ele>1610.9</ele>
        <time>2022-02-09T13:55:41Z</time>
      </trkpt>
      <trkpt lat="42.85813" lon="0.2622">
        <ele>1610.9</ele>
        <time>2022-02-09T13:55:42Z</time>
      </trkpt>
      <trkpt lat="42.85813" lon="0.26221">
        <ele>1610.9</ele>
        <time>2022-02-09T13:55:43Z</time>
      </trkpt>
      <trkpt lat="42.85813" lon="0.26222">
        <ele>1611</ele>
        <time>2022-02-09T13:55:44Z</time>
      </trkpt>
      <trkpt lat="42.85813" lon="0.26223">
        <ele>1611</ele>
        <time>2022-02-09T13:55:45Z</time>
      </trkpt>
      <trkpt lat="42.85812" lon="0.26224">
        <ele>1611</ele>
        <time>2022-02-09T13:55:46Z</time>
      </trkpt>
      <trkpt lat="42.85812" lon="0.26224">
        <ele>1611</ele>
        <time>2022-02-09T13:55:47Z</time>
      </trkpt>
      <trkpt lat="42.85812" lon="0.26225">
        <ele>1611.1</ele>
        <time>2022-02-09T13:55:48Z</time>
      </trkpt>
      <trkpt lat="42.85812" lon="0.26226">
        <ele>1611.1</ele>
        <time>2022-02-09T13:55:49Z</time>
      </trkpt>
      <trkpt lat="42.85812" lon="0.26227">
        <ele>1611.1</ele>
        <time>2022-02-09T13:55:50Z</time>
      </trkpt>
      <trkpt lat="42.85812" lon="0.26228">
        <ele>1611.1</ele>
        <time>2022-02-09T13:55:51Z</time>
      </trkpt>
      <trkpt lat="42.85812" lon="0.26229">
        <ele>1611.2</ele>
        <time>2022-02-09T13:55:52Z</time>
      </trkpt>
      <trkpt lat="42.85812" lon="0.2623">
        <ele>1611.2</ele>
        <time>2022-02-09T13:55:53Z</time>
      </trkpt>
      <trkpt lat="42.85812" lon="0.26231">
        <ele>1611.2</ele>
        <time>2022-02-09T13:55:54Z</time>
      </trkpt>
      <trkpt lat="42.85812" lon="0.26231">
        <ele>1611.2</ele>
        <time>2022-02-09T13:55:55Z</time>
      </trkpt>
      <trkpt lat="42.85812" lon="0.26232">
        <ele>1611.3</ele>
        <time>2022-02-09T13:55:56Z</time>
      </trkpt>
      <trkpt lat="42.85812" lon="0.26233">
        <ele>1611.3</ele>
        <time>2022-02-09T13:55:57Z</time>
      </trkpt>
      <trkpt lat="42.85812" lon="0.26234">
        <ele>1611.3</ele>
        <time>2022-02-09T13:55:58Z</time>
      </trkpt>
      <trkpt lat="42.85812" lon="0.26235">
        <ele>1611.3</ele>
        <time>2022-02-09T13:55:59Z</time>
      </trkpt>
      <trkpt lat="42.85812" lon="0.26236">
        <ele>1611.4</ele>
        <time>2022-02-09T13:56:00Z</time>
      </trkpt>
      <trkpt lat="42.85812" lon="0.26237">
        <ele>1611.4</ele>
        <time>2022-02-09T13:56:01Z</time>
      </trkpt>
      <trkpt lat="42.85812" lon="0.26238">
        <ele>1611.4</ele>
        <time>2022-02-09T13:56:02Z</time>
      </trkpt>
      <trkpt lat="42.85812" lon="0.26239">
        <ele>1611.5</ele>
        <time>2022-02-09T13:56:03Z</time>
      </trkpt>
      <trkpt lat="42.85812" lon="0.26239">
        <ele>1611.5</ele>
        <time>2022-02-09T13:56:04Z</time>
      </trkpt>
      <trkpt lat="42.85812" lon="0.2624">
        <ele>1611.5</ele>
        <time>2022-02-09T13:56:05Z</time>
      </trkpt>
      <trkpt lat="42.85812" lon="0.26241">
        <ele>1611.5</ele>
        <time>2022-02-09T13:56:06Z</time>
      </trkpt>
      <trkpt lat="42.85812" lon="0.26242">
        <ele>1611.6</ele>
        <time>2022-02-09T13:56:07Z</time>
      </trkpt>
      <trkpt lat="42.85812" lon="0.26243">
        <ele>1611.6</ele>
        <time>2022-02-09T13:56:08Z</time>
      </trkpt>
      <trkpt lat="42.85812" lon="0.26244">
        <ele>1611.6</ele>
        <time>2022-02-09T13:56:09Z</time>
      </trkpt>
      <trkpt lat="42.85812" lon="0.26252">
        <ele>1611.7</ele>
        <time>2022-02-09T13:56:10Z</time>
      </trkpt>
      <trkpt lat="42.85812" lon="0.26254">
        <ele>1611.7</ele>
        <time>2022-02-09T13:56:11Z</time>
      </trkpt>
      <trkpt lat="42.85812" lon="0.26255">
        <ele>1611.7</ele>
        <time>2022-02-09T13:56:12Z</time>
      </trkpt>
      <trkpt lat="42.85811" lon="0.26256">
        <ele>1611.7</ele>
        <time>2022-02-09T13:56:13Z</time>
      </trkpt>
      <trkpt lat="42.85811" lon="0.26256">
        <ele>1611.7</ele>
        <time>2022-02-09T13:56:14Z</time>
      </trkpt>
      <trkpt lat="42.85811" lon="0.26257">
        <ele>1611.7</ele>
        <time>2022-02-09T13:56:15Z</time>
      </trkpt>
      <trkpt lat="42.85811" lon="0.26258">
        <ele>1611.7</ele>
        <time>2022-02-09T13:56:16Z</time>
      </trkpt>
      <trkpt lat="42.85811" lon="0.26258">
        <ele>1611.6</ele>
        <time>2022-02-09T13:56:17Z</time>
      </trkpt>
      <trkpt lat="42.85811" lon="0.26259">
        <ele>1611.6</ele>
        <time>2022-02-09T13:56:18Z</time>
      </trkpt>
      <trkpt lat="42.85811" lon="0.2626">
        <ele>1611.6</ele>
        <time>2022-02-09T13:56:19Z</time>
      </trkpt>
      <trkpt lat="42.8581" lon="0.26261">
        <ele>1611.6</ele>
        <time>2022-02-09T13:56:20Z</time>
      </trkpt>
      <trkpt lat="42.8581" lon="0.26261">
        <ele>1611.6</ele>
        <time>2022-02-09T13:56:21Z</time>
      </trkpt>
      <trkpt lat="42.8581" lon="0.26262">
        <ele>1611.5</ele>
        <time>2022-02-09T13:56:22Z</time>
      </trkpt>
      <trkpt lat="42.8581" lon="0.26263">
        <ele>1611.5</ele>
        <time>2022-02-09T13:56:23Z</time>
      </trkpt>
      <trkpt lat="42.8581" lon="0.26264">
        <ele>1611.5</ele>
        <time>2022-02-09T13:56:24Z</time>
      </trkpt>
      <trkpt lat="42.8581" lon="0.26264">
        <ele>1611.4</ele>
        <time>2022-02-09T13:56:25Z</time>
      </trkpt>
      <trkpt lat="42.8581" lon="0.26265">
        <ele>1611.4</ele>
        <time>2022-02-09T13:56:26Z</time>
      </trkpt>
      <trkpt lat="42.8581" lon="0.26266">
        <ele>1611.3</ele>
        <time>2022-02-09T13:56:27Z</time>
      </trkpt>
      <trkpt lat="42.85809" lon="0.26266">
        <ele>1611.3</ele>
        <time>2022-02-09T13:56:28Z</time>
      </trkpt>
      <trkpt lat="42.85809" lon="0.26267">
        <ele>1611.3</ele>
        <time>2022-02-09T13:56:29Z</time>
      </trkpt>
      <trkpt lat="42.85809" lon="0.26268">
        <ele>1611.2</ele>
        <time>2022-02-09T13:56:30Z</time>
      </trkpt>
      <trkpt lat="42.85809" lon="0.26269">
        <ele>1611.2</ele>
        <time>2022-02-09T13:56:31Z</time>
      </trkpt>
      <trkpt lat="42.85809" lon="0.26269">
        <ele>1611.1</ele>
        <time>2022-02-09T13:56:32Z</time>
      </trkpt>
      <trkpt lat="42.85809" lon="0.2627">
        <ele>1611</ele>
        <time>2022-02-09T13:56:33Z</time>
      </trkpt>
      <trkpt lat="42.85809" lon="0.26271">
        <ele>1611</ele>
        <time>2022-02-09T13:56:34Z</time>
      </trkpt>
      <trkpt lat="42.85808" lon="0.26272">
        <ele>1610.9</ele>
        <time>2022-02-09T13:56:35Z</time>
      </trkpt>
      <trkpt lat="42.85808" lon="0.26272">
        <ele>1610.8</ele>
        <time>2022-02-09T13:56:36Z</time>
      </trkpt>
      <trkpt lat="42.85808" lon="0.26273">
        <ele>1610.8</ele>
        <time>2022-02-09T13:56:37Z</time>
      </trkpt>
      <trkpt lat="42.85808" lon="0.26274">
        <ele>1610.7</ele>
        <time>2022-02-09T13:56:38Z</time>
      </trkpt>
      <trkpt lat="42.85808" lon="0.26274">
        <ele>1610.6</ele>
        <time>2022-02-09T13:56:39Z</time>
      </trkpt>
      <trkpt lat="42.85808" lon="0.26275">
        <ele>1610.5</ele>
        <time>2022-02-09T13:56:40Z</time>
      </trkpt>
      <trkpt lat="42.85808" lon="0.26276">
        <ele>1610.5</ele>
        <time>2022-02-09T13:56:41Z</time>
      </trkpt>
      <trkpt lat="42.85808" lon="0.26277">
        <ele>1610.4</ele>
        <time>2022-02-09T13:56:42Z</time>
      </trkpt>
      <trkpt lat="42.85807" lon="0.26277">
        <ele>1610.3</ele>
        <time>2022-02-09T13:56:43Z</time>
      </trkpt>
      <trkpt lat="42.85807" lon="0.26278">
        <ele>1610.2</ele>
        <time>2022-02-09T13:56:44Z</time>
      </trkpt>
      <trkpt lat="42.85807" lon="0.26279">
        <ele>1610.1</ele>
        <time>2022-02-09T13:56:45Z</time>
      </trkpt>
      <trkpt lat="42.85807" lon="0.26279">
        <ele>1610</ele>
        <time>2022-02-09T13:56:46Z</time>
      </trkpt>
      <trkpt lat="42.85807" lon="0.2628">
        <ele>1609.9</ele>
        <time>2022-02-09T13:56:47Z</time>
      </trkpt>
      <trkpt lat="42.85807" lon="0.26281">
        <ele>1609.9</ele>
        <time>2022-02-09T13:56:48Z</time>
      </trkpt>
      <trkpt lat="42.85807" lon="0.26282">
        <ele>1609.8</ele>
        <time>2022-02-09T13:56:49Z</time>
      </trkpt>
      <trkpt lat="42.85806" lon="0.26282">
        <ele>1609.7</ele>
        <time>2022-02-09T13:56:50Z</time>
      </trkpt>
      <trkpt lat="42.85806" lon="0.26283">
        <ele>1609.6</ele>
        <time>2022-02-09T13:56:51Z</time>
      </trkpt>
      <trkpt lat="42.85806" lon="0.26284">
        <ele>1609.5</ele>
        <time>2022-02-09T13:56:52Z</time>
      </trkpt>
      <trkpt lat="42.85806" lon="0.26285">
        <ele>1609.4</ele>
        <time>2022-02-09T13:56:53Z</time>
      </trkpt>
      <trkpt lat="42.85806" lon="0.26285">
        <ele>1609.3</ele>
        <time>2022-02-09T13:56:54Z</time>
      </trkpt>
      <trkpt lat="42.85806" lon="0.26286">
        <ele>1609.2</ele>
        <time>2022-02-09T13:56:55Z</time>
      </trkpt>
      <trkpt lat="42.85806" lon="0.26287">
        <ele>1609.1</ele>
        <time>2022-02-09T13:56:56Z</time>
      </trkpt>
      <trkpt lat="42.85806" lon="0.26287">
        <ele>1609</ele>
        <time>2022-02-09T13:56:57Z</time>
      </trkpt>
      <trkpt lat="42.85805" lon="0.26288">
        <ele>1608.9</ele>
        <time>2022-02-09T13:56:58Z</time>
      </trkpt>
      <trkpt lat="42.85805" lon="0.26289">
        <ele>1608.8</ele>
        <time>2022-02-09T13:56:59Z</time>
      </trkpt>
      <trkpt lat="42.85805" lon="0.2629">
        <ele>1608.7</ele>
        <time>2022-02-09T13:57:00Z</time>
      </trkpt>
      <trkpt lat="42.85805" lon="0.2629">
        <ele>1608.5</ele>
        <time>2022-02-09T13:57:01Z</time>
      </trkpt>
      <trkpt lat="42.85805" lon="0.26291">
        <ele>1608.4</ele>
        <time>2022-02-09T13:57:02Z</time>
      </trkpt>
      <trkpt lat="42.85805" lon="0.26292">
        <ele>1608.3</ele>
        <time>2022-02-09T13:57:03Z</time>
      </trkpt>
      <trkpt lat="42.85805" lon="0.26293">
        <ele>1608.2</ele>
        <time>2022-02-09T13:57:04Z</time>
      </trkpt>
      <trkpt lat="42.85804" lon="0.26293">
        <ele>1608.1</ele>
        <time>2022-02-09T13:57:05Z</time>
      </trkpt>
      <trkpt lat="42.85804" lon="0.26294">
        <ele>1608</ele>
        <time>2022-02-09T13:57:06Z</time>
      </trkpt>
      <trkpt lat="42.85804" lon="0.26295">
        <ele>1607.9</ele>
        <time>2022-02-09T13:57:07Z</time>
      </trkpt>
      <trkpt lat="42.85804" lon="0.26295">
        <ele>1607.8</ele>
        <time>2022-02-09T13:57:08Z</time>
      </trkpt>
      <trkpt lat="42.85804" lon="0.26296">
        <ele>1607.6</ele>
        <time>2022-02-09T13:57:09Z</time>
      </trkpt>
      <trkpt lat="42.85804" lon="0.26297">
        <ele>1607.5</ele>
        <time>2022-02-09T13:57:10Z</time>
      </trkpt>
      <trkpt lat="42.85804" lon="0.26298">
        <ele>1607.4</ele>
        <time>2022-02-09T13:57:11Z</time>
      </trkpt>
      <trkpt lat="42.85804" lon="0.26298">
        <ele>1607.3</ele>
        <time>2022-02-09T13:57:12Z</time>
      </trkpt>
      <trkpt lat="42.85803" lon="0.26299">
        <ele>1607.2</ele>
        <time>2022-02-09T13:57:13Z</time>
      </trkpt>
      <trkpt lat="42.85803" lon="0.263">
        <ele>1607.1</ele>
        <time>2022-02-09T13:57:14Z</time>
      </trkpt>
      <trkpt lat="42.85803" lon="0.26301">
        <ele>1607</ele>
        <time>2022-02-09T13:57:15Z</time>
      </trkpt>
      <trkpt lat="42.85803" lon="0.26301">
        <ele>1606.9</ele>
        <time>2022-02-09T13:57:16Z</time>
      </trkpt>
      <trkpt lat="42.85803" lon="0.26302">
        <ele>1606.7</ele>
        <time>2022-02-09T13:57:17Z</time>
      </trkpt>
      <trkpt lat="42.85803" lon="0.26303">
        <ele>1606.6</ele>
        <time>2022-02-09T13:57:18Z</time>
      </trkpt>
      <trkpt lat="42.85803" lon="0.26303">
        <ele>1606.5</ele>
        <time>2022-02-09T13:57:19Z</time>
      </trkpt>
      <trkpt lat="42.85802" lon="0.26304">
        <ele>1606.4</ele>
        <time>2022-02-09T13:57:20Z</time>
      </trkpt>
      <trkpt lat="42.85802" lon="0.26305">
        <ele>1606.3</ele>
        <time>2022-02-09T13:57:21Z</time>
      </trkpt>
      <trkpt lat="42.85802" lon="0.26306">
        <ele>1606.2</ele>
        <time>2022-02-09T13:57:22Z</time>
      </trkpt>
      <trkpt lat="42.85802" lon="0.26306">
        <ele>1606.1</ele>
        <time>2022-02-09T13:57:23Z</time>
      </trkpt>
      <trkpt lat="42.85802" lon="0.26307">
        <ele>1606</ele>
        <time>2022-02-09T13:57:24Z</time>
      </trkpt>
      <trkpt lat="42.85802" lon="0.26308">
        <ele>1605.8</ele>
        <time>2022-02-09T13:57:25Z</time>
      </trkpt>
      <trkpt lat="42.85802" lon="0.26309">
        <ele>1605.7</ele>
        <time>2022-02-09T13:57:26Z</time>
      </trkpt>
      <trkpt lat="42.85802" lon="0.26309">
        <ele>1605.6</ele>
        <time>2022-02-09T13:57:27Z</time>
      </trkpt>
      <trkpt lat="42.85801" lon="0.2631">
        <ele>1605.5</ele>
        <time>2022-02-09T13:57:28Z</time>
      </trkpt>
      <trkpt lat="42.85801" lon="0.26311">
        <ele>1605.4</ele>
        <time>2022-02-09T13:57:29Z</time>
      </trkpt>
      <trkpt lat="42.85801" lon="0.26311">
        <ele>1605.3</ele>
        <time>2022-02-09T13:57:30Z</time>
      </trkpt>
      <trkpt lat="42.85801" lon="0.26312">
        <ele>1605.2</ele>
        <time>2022-02-09T13:57:31Z</time>
      </trkpt>
      <trkpt lat="42.85801" lon="0.26313">
        <ele>1605.1</ele>
        <time>2022-02-09T13:57:32Z</time>
      </trkpt>
      <trkpt lat="42.85801" lon="0.26314">
        <ele>1605</ele>
        <time>2022-02-09T13:57:33Z</time>
      </trkpt>
      <trkpt lat="42.85801" lon="0.26314">
        <ele>1604.8</ele>
        <time>2022-02-09T13:57:34Z</time>
      </trkpt>
      <trkpt lat="42.858" lon="0.26315">
        <ele>1604.7</ele>
        <time>2022-02-09T13:57:35Z</time>
      </trkpt>
      <trkpt lat="42.858" lon="0.26316">
        <ele>1604.6</ele>
        <time>2022-02-09T13:57:36Z</time>
      </trkpt>
      <trkpt lat="42.858" lon="0.26317">
        <ele>1604.5</ele>
        <time>2022-02-09T13:57:37Z</time>
      </trkpt>
      <trkpt lat="42.85796" lon="0.26322">
        <ele>1603.3</ele>
        <time>2022-02-09T13:57:38Z</time>
      </trkpt>
      <trkpt lat="42.85796" lon="0.26324">
        <ele>1603.1</ele>
        <time>2022-02-09T13:57:39Z</time>
      </trkpt>
      <trkpt lat="42.85796" lon="0.26325">
        <ele>1603</ele>
        <time>2022-02-09T13:57:40Z</time>
      </trkpt>
      <trkpt lat="42.85796" lon="0.26325">
        <ele>1602.9</ele>
        <time>2022-02-09T13:57:41Z</time>
      </trkpt>
      <trkpt lat="42.85796" lon="0.26326">
        <ele>1602.8</ele>
        <time>2022-02-09T13:57:42Z</time>
      </trkpt>
      <trkpt lat="42.85796" lon="0.26326">
        <ele>1602.7</ele>
        <time>2022-02-09T13:57:43Z</time>
      </trkpt>
      <trkpt lat="42.85796" lon="0.26327">
        <ele>1602.6</ele>
        <time>2022-02-09T13:57:44Z</time>
      </trkpt>
      <trkpt lat="42.85796" lon="0.26328">
        <ele>1602.6</ele>
        <time>2022-02-09T13:57:45Z</time>
      </trkpt>
      <trkpt lat="42.85796" lon="0.26328">
        <ele>1602.5</ele>
        <time>2022-02-09T13:57:46Z</time>
      </trkpt>
      <trkpt lat="42.85796" lon="0.26329">
        <ele>1602.4</ele>
        <time>2022-02-09T13:57:47Z</time>
      </trkpt>
      <trkpt lat="42.85796" lon="0.26329">
        <ele>1602.3</ele>
        <time>2022-02-09T13:57:48Z</time>
      </trkpt>
      <trkpt lat="42.85796" lon="0.2633">
        <ele>1602.2</ele>
        <time>2022-02-09T13:57:49Z</time>
      </trkpt>
      <trkpt lat="42.85796" lon="0.2633">
        <ele>1602.1</ele>
        <time>2022-02-09T13:57:50Z</time>
      </trkpt>
      <trkpt lat="42.85794" lon="0.26338">
        <ele>1600.8</ele>
        <time>2022-02-09T13:57:51Z</time>
      </trkpt>
      <trkpt lat="42.85793" lon="0.26339">
        <ele>1600.5</ele>
        <time>2022-02-09T13:57:52Z</time>
      </trkpt>
      <trkpt lat="42.85793" lon="0.2634">
        <ele>1600.4</ele>
        <time>2022-02-09T13:57:53Z</time>
      </trkpt>
      <trkpt lat="42.85793" lon="0.2634">
        <ele>1600.4</ele>
        <time>2022-02-09T13:57:54Z</time>
      </trkpt>
      <trkpt lat="42.85793" lon="0.26341">
        <ele>1600.3</ele>
        <time>2022-02-09T13:57:55Z</time>
      </trkpt>
      <trkpt lat="42.85793" lon="0.26341">
        <ele>1600.2</ele>
        <time>2022-02-09T13:57:56Z</time>
      </trkpt>
      <trkpt lat="42.85792" lon="0.26342">
        <ele>1600.1</ele>
        <time>2022-02-09T13:57:57Z</time>
      </trkpt>
      <trkpt lat="42.85792" lon="0.26342">
        <ele>1600</ele>
        <time>2022-02-09T13:57:58Z</time>
      </trkpt>
      <trkpt lat="42.85792" lon="0.26342">
        <ele>1599.9</ele>
        <time>2022-02-09T13:57:59Z</time>
      </trkpt>
      <trkpt lat="42.85792" lon="0.26343">
        <ele>1599.8</ele>
        <time>2022-02-09T13:58:00Z</time>
      </trkpt>
      <trkpt lat="42.85792" lon="0.26343">
        <ele>1599.8</ele>
        <time>2022-02-09T13:58:01Z</time>
      </trkpt>
      <trkpt lat="42.85792" lon="0.26344">
        <ele>1599.7</ele>
        <time>2022-02-09T13:58:02Z</time>
      </trkpt>
      <trkpt lat="42.85791" lon="0.26344">
        <ele>1599.6</ele>
        <time>2022-02-09T13:58:03Z</time>
      </trkpt>
      <trkpt lat="42.85791" lon="0.26345">
        <ele>1599.5</ele>
        <time>2022-02-09T13:58:04Z</time>
      </trkpt>
      <trkpt lat="42.85791" lon="0.26345">
        <ele>1599.4</ele>
        <time>2022-02-09T13:58:05Z</time>
      </trkpt>
      <trkpt lat="42.85791" lon="0.26345">
        <ele>1599.3</ele>
        <time>2022-02-09T13:58:06Z</time>
      </trkpt>
      <trkpt lat="42.85788" lon="0.26353">
        <ele>1597.9</ele>
        <time>2022-02-09T13:58:07Z</time>
      </trkpt>
      <trkpt lat="42.85787" lon="0.26354">
        <ele>1597.6</ele>
        <time>2022-02-09T13:58:08Z</time>
      </trkpt>
      <trkpt lat="42.85786" lon="0.26354">
        <ele>1597.5</ele>
        <time>2022-02-09T13:58:09Z</time>
      </trkpt>
      <trkpt lat="42.85786" lon="0.26355">
        <ele>1597.4</ele>
        <time>2022-02-09T13:58:10Z</time>
      </trkpt>
      <trkpt lat="42.85786" lon="0.26355">
        <ele>1597.4</ele>
        <time>2022-02-09T13:58:11Z</time>
      </trkpt>
      <trkpt lat="42.85786" lon="0.26356">
        <ele>1597.3</ele>
        <time>2022-02-09T13:58:12Z</time>
      </trkpt>
      <trkpt lat="42.85786" lon="0.26356">
        <ele>1597.2</ele>
        <time>2022-02-09T13:58:13Z</time>
      </trkpt>
      <trkpt lat="42.85785" lon="0.26356">
        <ele>1597.1</ele>
        <time>2022-02-09T13:58:14Z</time>
      </trkpt>
      <trkpt lat="42.85785" lon="0.26357">
        <ele>1597</ele>
        <time>2022-02-09T13:58:15Z</time>
      </trkpt>
      <trkpt lat="42.85785" lon="0.26357">
        <ele>1597</ele>
        <time>2022-02-09T13:58:16Z</time>
      </trkpt>
      <trkpt lat="42.85785" lon="0.26358">
        <ele>1596.9</ele>
        <time>2022-02-09T13:58:17Z</time>
      </trkpt>
      <trkpt lat="42.85785" lon="0.26358">
        <ele>1596.8</ele>
        <time>2022-02-09T13:58:18Z</time>
      </trkpt>
      <trkpt lat="42.85785" lon="0.26358">
        <ele>1596.7</ele>
        <time>2022-02-09T13:58:19Z</time>
      </trkpt>
      <trkpt lat="42.85784" lon="0.26359">
        <ele>1596.7</ele>
        <time>2022-02-09T13:58:20Z</time>
      </trkpt>
      <trkpt lat="42.85784" lon="0.26359">
        <ele>1596.6</ele>
        <time>2022-02-09T13:58:21Z</time>
      </trkpt>
      <trkpt lat="42.85784" lon="0.2636">
        <ele>1596.5</ele>
        <time>2022-02-09T13:58:22Z</time>
      </trkpt>
      <trkpt lat="42.85784" lon="0.2636">
        <ele>1596.5</ele>
        <time>2022-02-09T13:58:23Z</time>
      </trkpt>
      <trkpt lat="42.85781" lon="0.26366">
        <ele>1595.3</ele>
        <time>2022-02-09T13:58:24Z</time>
      </trkpt>
      <trkpt lat="42.8578" lon="0.26368">
        <ele>1595</ele>
        <time>2022-02-09T13:58:25Z</time>
      </trkpt>
      <trkpt lat="42.8578" lon="0.26369">
        <ele>1594.9</ele>
        <time>2022-02-09T13:58:26Z</time>
      </trkpt>
      <trkpt lat="42.85779" lon="0.2637">
        <ele>1594.8</ele>
        <time>2022-02-09T13:58:27Z</time>
      </trkpt>
      <trkpt lat="42.85779" lon="0.2637">
        <ele>1594.6</ele>
        <time>2022-02-09T13:58:28Z</time>
      </trkpt>
      <trkpt lat="42.85779" lon="0.26371">
        <ele>1594.5</ele>
        <time>2022-02-09T13:58:29Z</time>
      </trkpt>
      <trkpt lat="42.85779" lon="0.26372">
        <ele>1594.4</ele>
        <time>2022-02-09T13:58:30Z</time>
      </trkpt>
      <trkpt lat="42.85779" lon="0.26372">
        <ele>1594.3</ele>
        <time>2022-02-09T13:58:31Z</time>
      </trkpt>
      <trkpt lat="42.85778" lon="0.26373">
        <ele>1594.2</ele>
        <time>2022-02-09T13:58:32Z</time>
      </trkpt>
      <trkpt lat="42.85778" lon="0.26374">
        <ele>1594.1</ele>
        <time>2022-02-09T13:58:33Z</time>
      </trkpt>
      <trkpt lat="42.85778" lon="0.26374">
        <ele>1594</ele>
        <time>2022-02-09T13:58:34Z</time>
      </trkpt>
      <trkpt lat="42.85778" lon="0.26375">
        <ele>1593.9</ele>
        <time>2022-02-09T13:58:35Z</time>
      </trkpt>
      <trkpt lat="42.85777" lon="0.26376">
        <ele>1593.8</ele>
        <time>2022-02-09T13:58:36Z</time>
      </trkpt>
      <trkpt lat="42.85777" lon="0.26376">
        <ele>1593.7</ele>
        <time>2022-02-09T13:58:37Z</time>
      </trkpt>
      <trkpt lat="42.85777" lon="0.26377">
        <ele>1593.6</ele>
        <time>2022-02-09T13:58:38Z</time>
      </trkpt>
      <trkpt lat="42.85775" lon="0.26385">
        <ele>1592.4</ele>
        <time>2022-02-09T13:58:39Z</time>
      </trkpt>
      <trkpt lat="42.85774" lon="0.26387">
        <ele>1592.1</ele>
        <time>2022-02-09T13:58:40Z</time>
      </trkpt>
      <trkpt lat="42.85774" lon="0.26388">
        <ele>1592</ele>
        <time>2022-02-09T13:58:41Z</time>
      </trkpt>
      <trkpt lat="42.85774" lon="0.26388">
        <ele>1591.9</ele>
        <time>2022-02-09T13:58:42Z</time>
      </trkpt>
      <trkpt lat="42.85774" lon="0.26389">
        <ele>1591.8</ele>
        <time>2022-02-09T13:58:43Z</time>
      </trkpt>
      <trkpt lat="42.85774" lon="0.2639">
        <ele>1591.7</ele>
        <time>2022-02-09T13:58:44Z</time>
      </trkpt>
      <trkpt lat="42.85774" lon="0.2639">
        <ele>1591.6</ele>
        <time>2022-02-09T13:58:45Z</time>
      </trkpt>
      <trkpt lat="42.85774" lon="0.26391">
        <ele>1591.6</ele>
        <time>2022-02-09T13:58:46Z</time>
      </trkpt>
      <trkpt lat="42.85774" lon="0.26392">
        <ele>1591.5</ele>
        <time>2022-02-09T13:58:47Z</time>
      </trkpt>
      <trkpt lat="42.85773" lon="0.26392">
        <ele>1591.4</ele>
        <time>2022-02-09T13:58:48Z</time>
      </trkpt>
      <trkpt lat="42.85773" lon="0.26393">
        <ele>1591.3</ele>
        <time>2022-02-09T13:58:49Z</time>
      </trkpt>
      <trkpt lat="42.85773" lon="0.26394">
        <ele>1591.2</ele>
        <time>2022-02-09T13:58:50Z</time>
      </trkpt>
      <trkpt lat="42.85773" lon="0.26402">
        <ele>1590.2</ele>
        <time>2022-02-09T13:58:51Z</time>
      </trkpt>
      <trkpt lat="42.85773" lon="0.26404">
        <ele>1590</ele>
        <time>2022-02-09T13:58:52Z</time>
      </trkpt>
      <trkpt lat="42.85772" lon="0.26405">
        <ele>1589.9</ele>
        <time>2022-02-09T13:58:53Z</time>
      </trkpt>
      <trkpt lat="42.85772" lon="0.26405">
        <ele>1589.9</ele>
        <time>2022-02-09T13:58:54Z</time>
      </trkpt>
      <trkpt lat="42.85772" lon="0.26406">
        <ele>1589.8</ele>
        <time>2022-02-09T13:58:55Z</time>
      </trkpt>
      <trkpt lat="42.85772" lon="0.26406">
        <ele>1589.7</ele>
        <time>2022-02-09T13:58:56Z</time>
      </trkpt>
      <trkpt lat="42.85772" lon="0.26407">
        <ele>1589.7</ele>
        <time>2022-02-09T13:58:57Z</time>
      </trkpt>
      <trkpt lat="42.85772" lon="0.26408">
        <ele>1589.6</ele>
        <time>2022-02-09T13:58:58Z</time>
      </trkpt>
      <trkpt lat="42.85772" lon="0.26408">
        <ele>1589.5</ele>
        <time>2022-02-09T13:58:59Z</time>
      </trkpt>
      <trkpt lat="42.85772" lon="0.26409">
        <ele>1589.5</ele>
        <time>2022-02-09T13:59:00Z</time>
      </trkpt>
      <trkpt lat="42.85772" lon="0.26409">
        <ele>1589.4</ele>
        <time>2022-02-09T13:59:01Z</time>
      </trkpt>
      <trkpt lat="42.85772" lon="0.2641">
        <ele>1589.3</ele>
        <time>2022-02-09T13:59:02Z</time>
      </trkpt>
      <trkpt lat="42.85772" lon="0.26411">
        <ele>1589.3</ele>
        <time>2022-02-09T13:59:03Z</time>
      </trkpt>
      <trkpt lat="42.8577" lon="0.26419">
        <ele>1588.4</ele>
        <time>2022-02-09T13:59:04Z</time>
      </trkpt>
      <trkpt lat="42.8577" lon="0.26421">
        <ele>1588.1</ele>
        <time>2022-02-09T13:59:05Z</time>
      </trkpt>
      <trkpt lat="42.8577" lon="0.26422">
        <ele>1588</ele>
        <time>2022-02-09T13:59:06Z</time>
      </trkpt>
      <trkpt lat="42.85771" lon="0.26423">
        <ele>1587.9</ele>
        <time>2022-02-09T13:59:07Z</time>
      </trkpt>
      <trkpt lat="42.85771" lon="0.26424">
        <ele>1587.8</ele>
        <time>2022-02-09T13:59:08Z</time>
      </trkpt>
      <trkpt lat="42.85771" lon="0.26425">
        <ele>1587.8</ele>
        <time>2022-02-09T13:59:09Z</time>
      </trkpt>
      <trkpt lat="42.85771" lon="0.26426">
        <ele>1587.7</ele>
        <time>2022-02-09T13:59:10Z</time>
      </trkpt>
      <trkpt lat="42.85771" lon="0.26426">
        <ele>1587.6</ele>
        <time>2022-02-09T13:59:11Z</time>
      </trkpt>
      <trkpt lat="42.85771" lon="0.26427">
        <ele>1587.5</ele>
        <time>2022-02-09T13:59:12Z</time>
      </trkpt>
      <trkpt lat="42.85771" lon="0.26428">
        <ele>1587.4</ele>
        <time>2022-02-09T13:59:13Z</time>
      </trkpt>
      <trkpt lat="42.85771" lon="0.26429">
        <ele>1587.3</ele>
        <time>2022-02-09T13:59:14Z</time>
      </trkpt>
      <trkpt lat="42.85771" lon="0.26437">
        <ele>1586.3</ele>
        <time>2022-02-09T13:59:15Z</time>
      </trkpt>
      <trkpt lat="42.8577" lon="0.26439">
        <ele>1586</ele>
        <time>2022-02-09T13:59:16Z</time>
      </trkpt>
      <trkpt lat="42.8577" lon="0.26439">
        <ele>1586</ele>
        <time>2022-02-09T13:59:17Z</time>
      </trkpt>
      <trkpt lat="42.8577" lon="0.2644">
        <ele>1585.9</ele>
        <time>2022-02-09T13:59:18Z</time>
      </trkpt>
      <trkpt lat="42.8577" lon="0.26441">
        <ele>1585.8</ele>
        <time>2022-02-09T13:59:19Z</time>
      </trkpt>
      <trkpt lat="42.85769" lon="0.26441">
        <ele>1585.7</ele>
        <time>2022-02-09T13:59:20Z</time>
      </trkpt>
      <trkpt lat="42.85769" lon="0.26442">
        <ele>1585.6</ele>
        <time>2022-02-09T13:59:21Z</time>
      </trkpt>
      <trkpt lat="42.85769" lon="0.26442">
        <ele>1585.5</ele>
        <time>2022-02-09T13:59:22Z</time>
      </trkpt>
      <trkpt lat="42.85769" lon="0.26443">
        <ele>1585.5</ele>
        <time>2022-02-09T13:59:23Z</time>
      </trkpt>
      <trkpt lat="42.85769" lon="0.26444">
        <ele>1585.4</ele>
        <time>2022-02-09T13:59:24Z</time>
      </trkpt>
      <trkpt lat="42.85769" lon="0.26444">
        <ele>1585.3</ele>
        <time>2022-02-09T13:59:25Z</time>
      </trkpt>
      <trkpt lat="42.85767" lon="0.26452">
        <ele>1584.3</ele>
        <time>2022-02-09T13:59:26Z</time>
      </trkpt>
      <trkpt lat="42.85767" lon="0.26454">
        <ele>1584</ele>
        <time>2022-02-09T13:59:27Z</time>
      </trkpt>
      <trkpt lat="42.85767" lon="0.26454">
        <ele>1584</ele>
        <time>2022-02-09T13:59:28Z</time>
      </trkpt>
      <trkpt lat="42.85767" lon="0.26455">
        <ele>1583.9</ele>
        <time>2022-02-09T13:59:29Z</time>
      </trkpt>
      <trkpt lat="42.85766" lon="0.26456">
        <ele>1583.8</ele>
        <time>2022-02-09T13:59:30Z</time>
      </trkpt>
      <trkpt lat="42.85766" lon="0.26456">
        <ele>1583.7</ele>
        <time>2022-02-09T13:59:31Z</time>
      </trkpt>
      <trkpt lat="42.85766" lon="0.26457">
        <ele>1583.6</ele>
        <time>2022-02-09T13:59:32Z</time>
      </trkpt>
      <trkpt lat="42.85766" lon="0.26457">
        <ele>1583.6</ele>
        <time>2022-02-09T13:59:33Z</time>
      </trkpt>
      <trkpt lat="42.85766" lon="0.26458">
        <ele>1583.5</ele>
        <time>2022-02-09T13:59:34Z</time>
      </trkpt>
      <trkpt lat="42.85766" lon="0.26459">
        <ele>1583.4</ele>
        <time>2022-02-09T13:59:35Z</time>
      </trkpt>
      <trkpt lat="42.85766" lon="0.26459">
        <ele>1583.3</ele>
        <time>2022-02-09T13:59:36Z</time>
      </trkpt>
      <trkpt lat="42.85766" lon="0.2646">
        <ele>1583.3</ele>
        <time>2022-02-09T13:59:37Z</time>
      </trkpt>
      <trkpt lat="42.85765" lon="0.2646">
        <ele>1583.2</ele>
        <time>2022-02-09T13:59:38Z</time>
      </trkpt>
      <trkpt lat="42.85764" lon="0.26468">
        <ele>1582.2</ele>
        <time>2022-02-09T13:59:39Z</time>
      </trkpt>
      <trkpt lat="42.85764" lon="0.2647">
        <ele>1582.1</ele>
        <time>2022-02-09T13:59:40Z</time>
      </trkpt>
      <trkpt lat="42.85764" lon="0.2647">
        <ele>1582.1</ele>
        <time>2022-02-09T13:59:41Z</time>
      </trkpt>
      <trkpt lat="42.85764" lon="0.2647">
        <ele>1582</ele>
        <time>2022-02-09T13:59:42Z</time>
      </trkpt>
      <trkpt lat="42.85764" lon="0.26471">
        <ele>1582</ele>
        <time>2022-02-09T13:59:43Z</time>
      </trkpt>
      <trkpt lat="42.85764" lon="0.26471">
        <ele>1582</ele>
        <time>2022-02-09T13:59:44Z</time>
      </trkpt>
      <trkpt lat="42.85764" lon="0.26471">
        <ele>1581.9</ele>
        <time>2022-02-09T13:59:45Z</time>
      </trkpt>
      <trkpt lat="42.85764" lon="0.26471">
        <ele>1581.9</ele>
        <time>2022-02-09T13:59:46Z</time>
      </trkpt>
      <trkpt lat="42.85764" lon="0.26472">
        <ele>1581.9</ele>
        <time>2022-02-09T13:59:47Z</time>
      </trkpt>
      <trkpt lat="42.85764" lon="0.26472">
        <ele>1581.8</ele>
        <time>2022-02-09T13:59:48Z</time>
      </trkpt>
      <trkpt lat="42.85764" lon="0.26472">
        <ele>1581.8</ele>
        <time>2022-02-09T13:59:49Z</time>
      </trkpt>
      <trkpt lat="42.85764" lon="0.26472">
        <ele>1581.8</ele>
        <time>2022-02-09T13:59:50Z</time>
      </trkpt>
      <trkpt lat="42.85764" lon="0.26473">
        <ele>1581.8</ele>
        <time>2022-02-09T13:59:51Z</time>
      </trkpt>
      <trkpt lat="42.85764" lon="0.26473">
        <ele>1581.7</ele>
        <time>2022-02-09T13:59:52Z</time>
      </trkpt>
      <trkpt lat="42.85764" lon="0.26473">
        <ele>1581.7</ele>
        <time>2022-02-09T13:59:53Z</time>
      </trkpt>
      <trkpt lat="42.85764" lon="0.26473">
        <ele>1581.7</ele>
        <time>2022-02-09T13:59:54Z</time>
      </trkpt>
      <trkpt lat="42.85764" lon="0.26474">
        <ele>1581.6</ele>
        <time>2022-02-09T13:59:55Z</time>
      </trkpt>
      <trkpt lat="42.85764" lon="0.26474">
        <ele>1581.6</ele>
        <time>2022-02-09T13:59:56Z</time>
      </trkpt>
      <trkpt lat="42.85764" lon="0.26474">
        <ele>1581.6</ele>
        <time>2022-02-09T13:59:57Z</time>
      </trkpt>
      <trkpt lat="42.85764" lon="0.26474">
        <ele>1581.6</ele>
        <time>2022-02-09T13:59:58Z</time>
      </trkpt>
      <trkpt lat="42.85763" lon="0.26475">
        <ele>1581.5</ele>
        <time>2022-02-09T13:59:59Z</time>
      </trkpt>
      <trkpt lat="42.85763" lon="0.26475">
        <ele>1581.5</ele>
        <time>2022-02-09T14:00:00Z</time>
      </trkpt>
      <trkpt lat="42.85763" lon="0.26475">
        <ele>1581.5</ele>
        <time>2022-02-09T14:00:01Z</time>
      </trkpt>
      <trkpt lat="42.85763" lon="0.26475">
        <ele>1581.4</ele>
        <time>2022-02-09T14:00:02Z</time>
      </trkpt>
      <trkpt lat="42.85763" lon="0.26476">
        <ele>1581.4</ele>
        <time>2022-02-09T14:00:03Z</time>
      </trkpt>
      <trkpt lat="42.85763" lon="0.26476">
        <ele>1581.4</ele>
        <time>2022-02-09T14:00:04Z</time>
      </trkpt>
      <trkpt lat="42.85763" lon="0.26476">
        <ele>1581.4</ele>
        <time>2022-02-09T14:00:05Z</time>
      </trkpt>
      <trkpt lat="42.85763" lon="0.26476">
        <ele>1581.3</ele>
        <time>2022-02-09T14:00:06Z</time>
      </trkpt>
      <trkpt lat="42.85763" lon="0.26477">
        <ele>1581.3</ele>
        <time>2022-02-09T14:00:07Z</time>
      </trkpt>
      <trkpt lat="42.85762" lon="0.26484">
        <ele>1580.6</ele>
        <time>2022-02-09T14:00:08Z</time>
      </trkpt>
      <trkpt lat="42.85761" lon="0.26486">
        <ele>1580.4</ele>
        <time>2022-02-09T14:00:09Z</time>
      </trkpt>
      <trkpt lat="42.85761" lon="0.26487">
        <ele>1580.3</ele>
        <time>2022-02-09T14:00:10Z</time>
      </trkpt>
      <trkpt lat="42.85761" lon="0.26487">
        <ele>1580.2</ele>
        <time>2022-02-09T14:00:11Z</time>
      </trkpt>
      <trkpt lat="42.8576" lon="0.26488">
        <ele>1580.1</ele>
        <time>2022-02-09T14:00:12Z</time>
      </trkpt>
      <trkpt lat="42.8576" lon="0.26489">
        <ele>1580</ele>
        <time>2022-02-09T14:00:13Z</time>
      </trkpt>
      <trkpt lat="42.8576" lon="0.2649">
        <ele>1579.9</ele>
        <time>2022-02-09T14:00:14Z</time>
      </trkpt>
      <trkpt lat="42.8576" lon="0.26491">
        <ele>1579.8</ele>
        <time>2022-02-09T14:00:15Z</time>
      </trkpt>
      <trkpt lat="42.8576" lon="0.26492">
        <ele>1579.7</ele>
        <time>2022-02-09T14:00:16Z</time>
      </trkpt>
      <trkpt lat="42.8576" lon="0.26492">
        <ele>1579.7</ele>
        <time>2022-02-09T14:00:17Z</time>
      </trkpt>
      <trkpt lat="42.85759" lon="0.26493">
        <ele>1579.6</ele>
        <time>2022-02-09T14:00:18Z</time>
      </trkpt>
      <trkpt lat="42.85759" lon="0.26494">
        <ele>1579.5</ele>
        <time>2022-02-09T14:00:19Z</time>
      </trkpt>
      <trkpt lat="42.85759" lon="0.26495">
        <ele>1579.4</ele>
        <time>2022-02-09T14:00:20Z</time>
      </trkpt>
      <trkpt lat="42.85759" lon="0.26496">
        <ele>1579.3</ele>
        <time>2022-02-09T14:00:21Z</time>
      </trkpt>
      <trkpt lat="42.85759" lon="0.26497">
        <ele>1579.2</ele>
        <time>2022-02-09T14:00:22Z</time>
      </trkpt>
      <trkpt lat="42.85758" lon="0.26498">
        <ele>1579.1</ele>
        <time>2022-02-09T14:00:23Z</time>
      </trkpt>
      <trkpt lat="42.85758" lon="0.26498">
        <ele>1579</ele>
        <time>2022-02-09T14:00:24Z</time>
      </trkpt>
      <trkpt lat="42.85758" lon="0.26499">
        <ele>1578.9</ele>
        <time>2022-02-09T14:00:25Z</time>
      </trkpt>
      <trkpt lat="42.85758" lon="0.265">
        <ele>1578.8</ele>
        <time>2022-02-09T14:00:26Z</time>
      </trkpt>
      <trkpt lat="42.85758" lon="0.26501">
        <ele>1578.7</ele>
        <time>2022-02-09T14:00:27Z</time>
      </trkpt>
      <trkpt lat="42.85758" lon="0.26502">
        <ele>1578.7</ele>
        <time>2022-02-09T14:00:28Z</time>
      </trkpt>
      <trkpt lat="42.85757" lon="0.26503">
        <ele>1578.5</ele>
        <time>2022-02-09T14:00:29Z</time>
      </trkpt>
      <trkpt lat="42.85757" lon="0.26504">
        <ele>1578.5</ele>
        <time>2022-02-09T14:00:30Z</time>
      </trkpt>
      <trkpt lat="42.85757" lon="0.26504">
        <ele>1578.4</ele>
        <time>2022-02-09T14:00:31Z</time>
      </trkpt>
      <trkpt lat="42.85757" lon="0.26505">
        <ele>1578.3</ele>
        <time>2022-02-09T14:00:32Z</time>
      </trkpt>
      <trkpt lat="42.85757" lon="0.26506">
        <ele>1578.2</ele>
        <time>2022-02-09T14:00:33Z</time>
      </trkpt>
      <trkpt lat="42.85756" lon="0.26507">
        <ele>1578.1</ele>
        <time>2022-02-09T14:00:34Z</time>
      </trkpt>
      <trkpt lat="42.85754" lon="0.26515">
        <ele>1577.1</ele>
        <time>2022-02-09T14:00:35Z</time>
      </trkpt>
      <trkpt lat="42.85754" lon="0.26516">
        <ele>1576.9</ele>
        <time>2022-02-09T14:00:36Z</time>
      </trkpt>
      <trkpt lat="42.85754" lon="0.26517">
        <ele>1576.8</ele>
        <time>2022-02-09T14:00:37Z</time>
      </trkpt>
      <trkpt lat="42.85754" lon="0.26518">
        <ele>1576.7</ele>
        <time>2022-02-09T14:00:38Z</time>
      </trkpt>
      <trkpt lat="42.85754" lon="0.26518">
        <ele>1576.7</ele>
        <time>2022-02-09T14:00:39Z</time>
      </trkpt>
      <trkpt lat="42.85754" lon="0.26518">
        <ele>1576.7</ele>
        <time>2022-02-09T14:00:40Z</time>
      </trkpt>
      <trkpt lat="42.85754" lon="0.26518">
        <ele>1576.7</ele>
        <time>2022-02-09T14:00:41Z</time>
      </trkpt>
      <trkpt lat="42.85753" lon="0.26521">
        <ele>1576.4</ele>
        <time>2022-02-09T14:00:42Z</time>
      </trkpt>
      <trkpt lat="42.85751" lon="0.26526">
        <ele>1575.9</ele>
        <time>2022-02-09T14:00:43Z</time>
      </trkpt>
      <trkpt lat="42.85751" lon="0.26528">
        <ele>1575.6</ele>
        <time>2022-02-09T14:00:44Z</time>
      </trkpt>
      <trkpt lat="42.85751" lon="0.26529">
        <ele>1575.5</ele>
        <time>2022-02-09T14:00:45Z</time>
      </trkpt>
      <trkpt lat="42.85751" lon="0.2653">
        <ele>1575.4</ele>
        <time>2022-02-09T14:00:46Z</time>
      </trkpt>
      <trkpt lat="42.85751" lon="0.26531">
        <ele>1575.4</ele>
        <time>2022-02-09T14:00:47Z</time>
      </trkpt>
      <trkpt lat="42.85751" lon="0.26532">
        <ele>1575.3</ele>
        <time>2022-02-09T14:00:48Z</time>
      </trkpt>
      <trkpt lat="42.85751" lon="0.26534">
        <ele>1575.2</ele>
        <time>2022-02-09T14:00:49Z</time>
      </trkpt>
      <trkpt lat="42.85751" lon="0.26535">
        <ele>1575.1</ele>
        <time>2022-02-09T14:00:50Z</time>
      </trkpt>
      <trkpt lat="42.85751" lon="0.26536">
        <ele>1575</ele>
        <time>2022-02-09T14:00:51Z</time>
      </trkpt>
      <trkpt lat="42.85751" lon="0.26537">
        <ele>1574.9</ele>
        <time>2022-02-09T14:00:52Z</time>
      </trkpt>
      <trkpt lat="42.85751" lon="0.26538">
        <ele>1574.8</ele>
        <time>2022-02-09T14:00:53Z</time>
      </trkpt>
      <trkpt lat="42.85751" lon="0.26539">
        <ele>1574.7</ele>
        <time>2022-02-09T14:00:54Z</time>
      </trkpt>
      <trkpt lat="42.85751" lon="0.2654">
        <ele>1574.6</ele>
        <time>2022-02-09T14:00:55Z</time>
      </trkpt>
      <trkpt lat="42.85751" lon="0.26541">
        <ele>1574.5</ele>
        <time>2022-02-09T14:00:56Z</time>
      </trkpt>
      <trkpt lat="42.85751" lon="0.26542">
        <ele>1574.4</ele>
        <time>2022-02-09T14:00:57Z</time>
      </trkpt>
      <trkpt lat="42.85751" lon="0.26543">
        <ele>1574.3</ele>
        <time>2022-02-09T14:00:58Z</time>
      </trkpt>
      <trkpt lat="42.85751" lon="0.26544">
        <ele>1574.2</ele>
        <time>2022-02-09T14:00:59Z</time>
      </trkpt>
      <trkpt lat="42.85751" lon="0.26545">
        <ele>1574.1</ele>
        <time>2022-02-09T14:01:00Z</time>
      </trkpt>
      <trkpt lat="42.85751" lon="0.26546">
        <ele>1574</ele>
        <time>2022-02-09T14:01:01Z</time>
      </trkpt>
      <trkpt lat="42.85751" lon="0.26547">
        <ele>1573.9</ele>
        <time>2022-02-09T14:01:02Z</time>
      </trkpt>
      <trkpt lat="42.85751" lon="0.26548">
        <ele>1573.7</ele>
        <time>2022-02-09T14:01:03Z</time>
      </trkpt>
      <trkpt lat="42.85751" lon="0.26549">
        <ele>1573.6</ele>
        <time>2022-02-09T14:01:04Z</time>
      </trkpt>
      <trkpt lat="42.85751" lon="0.2655">
        <ele>1573.5</ele>
        <time>2022-02-09T14:01:05Z</time>
      </trkpt>
      <trkpt lat="42.85751" lon="0.26551">
        <ele>1573.3</ele>
        <time>2022-02-09T14:01:06Z</time>
      </trkpt>
      <trkpt lat="42.85751" lon="0.26552">
        <ele>1573.2</ele>
        <time>2022-02-09T14:01:07Z</time>
      </trkpt>
      <trkpt lat="42.85751" lon="0.26553">
        <ele>1573.1</ele>
        <time>2022-02-09T14:01:08Z</time>
      </trkpt>
      <trkpt lat="42.85751" lon="0.26554">
        <ele>1572.9</ele>
        <time>2022-02-09T14:01:09Z</time>
      </trkpt>
      <trkpt lat="42.85751" lon="0.26555">
        <ele>1572.8</ele>
        <time>2022-02-09T14:01:10Z</time>
      </trkpt>
      <trkpt lat="42.85751" lon="0.26556">
        <ele>1572.6</ele>
        <time>2022-02-09T14:01:11Z</time>
      </trkpt>
      <trkpt lat="42.85751" lon="0.26558">
        <ele>1572.5</ele>
        <time>2022-02-09T14:01:12Z</time>
      </trkpt>
      <trkpt lat="42.85751" lon="0.26559">
        <ele>1572.3</ele>
        <time>2022-02-09T14:01:13Z</time>
      </trkpt>
      <trkpt lat="42.85751" lon="0.2656">
        <ele>1572.2</ele>
        <time>2022-02-09T14:01:14Z</time>
      </trkpt>
      <trkpt lat="42.85751" lon="0.26561">
        <ele>1572</ele>
        <time>2022-02-09T14:01:15Z</time>
      </trkpt>
      <trkpt lat="42.85751" lon="0.26562">
        <ele>1571.8</ele>
        <time>2022-02-09T14:01:16Z</time>
      </trkpt>
      <trkpt lat="42.85751" lon="0.26563">
        <ele>1571.7</ele>
        <time>2022-02-09T14:01:17Z</time>
      </trkpt>
      <trkpt lat="42.85751" lon="0.26564">
        <ele>1571.5</ele>
        <time>2022-02-09T14:01:18Z</time>
      </trkpt>
      <trkpt lat="42.8575" lon="0.26572">
        <ele>1570.3</ele>
        <time>2022-02-09T14:01:19Z</time>
      </trkpt>
      <trkpt lat="42.8575" lon="0.26573">
        <ele>1570.1</ele>
        <time>2022-02-09T14:01:20Z</time>
      </trkpt>
      <trkpt lat="42.8575" lon="0.26573">
        <ele>1570</ele>
        <time>2022-02-09T14:01:21Z</time>
      </trkpt>
      <trkpt lat="42.8575" lon="0.26574">
        <ele>1569.9</ele>
        <time>2022-02-09T14:01:22Z</time>
      </trkpt>
      <trkpt lat="42.85749" lon="0.26574">
        <ele>1569.8</ele>
        <time>2022-02-09T14:01:23Z</time>
      </trkpt>
      <trkpt lat="42.85749" lon="0.26575">
        <ele>1569.8</ele>
        <time>2022-02-09T14:01:24Z</time>
      </trkpt>
      <trkpt lat="42.85749" lon="0.26575">
        <ele>1569.7</ele>
        <time>2022-02-09T14:01:25Z</time>
      </trkpt>
      <trkpt lat="42.85749" lon="0.26576">
        <ele>1569.6</ele>
        <time>2022-02-09T14:01:26Z</time>
      </trkpt>
      <trkpt lat="42.85749" lon="0.26576">
        <ele>1569.5</ele>
        <time>2022-02-09T14:01:27Z</time>
      </trkpt>
      <trkpt lat="42.85749" lon="0.26577">
        <ele>1569.5</ele>
        <time>2022-02-09T14:01:28Z</time>
      </trkpt>
      <trkpt lat="42.85749" lon="0.26577">
        <ele>1569.4</ele>
        <time>2022-02-09T14:01:29Z</time>
      </trkpt>
      <trkpt lat="42.85749" lon="0.26578">
        <ele>1569.3</ele>
        <time>2022-02-09T14:01:30Z</time>
      </trkpt>
      <trkpt lat="42.85748" lon="0.26578">
        <ele>1569.2</ele>
        <time>2022-02-09T14:01:31Z</time>
      </trkpt>
      <trkpt lat="42.85748" lon="0.26579">
        <ele>1569.2</ele>
        <time>2022-02-09T14:01:32Z</time>
      </trkpt>
      <trkpt lat="42.85747" lon="0.26587">
        <ele>1568</ele>
        <time>2022-02-09T14:01:33Z</time>
      </trkpt>
      <trkpt lat="42.85746" lon="0.26588">
        <ele>1567.8</ele>
        <time>2022-02-09T14:01:34Z</time>
      </trkpt>
      <trkpt lat="42.85746" lon="0.26589">
        <ele>1567.6</ele>
        <time>2022-02-09T14:01:35Z</time>
      </trkpt>
      <trkpt lat="42.85746" lon="0.2659">
        <ele>1567.6</ele>
        <time>2022-02-09T14:01:36Z</time>
      </trkpt>
      <trkpt lat="42.85746" lon="0.2659">
        <ele>1567.6</ele>
        <time>2022-02-09T14:01:37Z</time>
      </trkpt>
      <trkpt lat="42.85746" lon="0.2659">
        <ele>1567.6</ele>
        <time>2022-02-09T14:01:38Z</time>
      </trkpt>
      <trkpt lat="42.85746" lon="0.2659">
        <ele>1567.6</ele>
        <time>2022-02-09T14:01:39Z</time>
      </trkpt>
      <trkpt lat="42.85746" lon="0.2659">
        <ele>1567.6</ele>
        <time>2022-02-09T14:01:40Z</time>
      </trkpt>
      <trkpt lat="42.85746" lon="0.26593">
        <ele>1567.1</ele>
        <time>2022-02-09T14:01:41Z</time>
      </trkpt>
      <trkpt lat="42.85746" lon="0.26598">
        <ele>1566.5</ele>
        <time>2022-02-09T14:01:42Z</time>
      </trkpt>
      <trkpt lat="42.85745" lon="0.266">
        <ele>1566.3</ele>
        <time>2022-02-09T14:01:43Z</time>
      </trkpt>
      <trkpt lat="42.85745" lon="0.26601">
        <ele>1566.2</ele>
        <time>2022-02-09T14:01:44Z</time>
      </trkpt>
      <trkpt lat="42.85745" lon="0.26602">
        <ele>1566</ele>
        <time>2022-02-09T14:01:45Z</time>
      </trkpt>
      <trkpt lat="42.85745" lon="0.26604">
        <ele>1565.9</ele>
        <time>2022-02-09T14:01:46Z</time>
      </trkpt>
      <trkpt lat="42.85745" lon="0.26605">
        <ele>1565.7</ele>
        <time>2022-02-09T14:01:47Z</time>
      </trkpt>
      <trkpt lat="42.85744" lon="0.26606">
        <ele>1565.6</ele>
        <time>2022-02-09T14:01:48Z</time>
      </trkpt>
      <trkpt lat="42.85744" lon="0.26607">
        <ele>1565.5</ele>
        <time>2022-02-09T14:01:49Z</time>
      </trkpt>
      <trkpt lat="42.85744" lon="0.26608">
        <ele>1565.4</ele>
        <time>2022-02-09T14:01:50Z</time>
      </trkpt>
      <trkpt lat="42.85744" lon="0.26608">
        <ele>1565.4</ele>
        <time>2022-02-09T14:01:51Z</time>
      </trkpt>
      <trkpt lat="42.85744" lon="0.26608">
        <ele>1565.4</ele>
        <time>2022-02-09T14:01:52Z</time>
      </trkpt>
      <trkpt lat="42.85744" lon="0.26608">
        <ele>1565.4</ele>
        <time>2022-02-09T14:01:53Z</time>
      </trkpt>
      <trkpt lat="42.85744" lon="0.26608">
        <ele>1565.4</ele>
        <time>2022-02-09T14:01:54Z</time>
      </trkpt>
      <trkpt lat="42.85743" lon="0.26612">
        <ele>1565</ele>
        <time>2022-02-09T14:01:55Z</time>
      </trkpt>
      <trkpt lat="42.85743" lon="0.26617">
        <ele>1564.5</ele>
        <time>2022-02-09T14:01:56Z</time>
      </trkpt>
      <trkpt lat="42.85743" lon="0.26619">
        <ele>1564.3</ele>
        <time>2022-02-09T14:01:57Z</time>
      </trkpt>
      <trkpt lat="42.85743" lon="0.2662">
        <ele>1563.9</ele>
        <time>2022-02-09T14:01:58Z</time>
      </trkpt>
      <trkpt lat="42.85743" lon="0.26622">
        <ele>1563.7</ele>
        <time>2022-02-09T14:01:59Z</time>
      </trkpt>
      <trkpt lat="42.85743" lon="0.26623">
        <ele>1563.5</ele>
        <time>2022-02-09T14:02:00Z</time>
      </trkpt>
      <trkpt lat="42.85743" lon="0.26624">
        <ele>1563.4</ele>
        <time>2022-02-09T14:02:01Z</time>
      </trkpt>
      <trkpt lat="42.85743" lon="0.26624">
        <ele>1563.4</ele>
        <time>2022-02-09T14:02:02Z</time>
      </trkpt>
      <trkpt lat="42.85743" lon="0.26624">
        <ele>1563.4</ele>
        <time>2022-02-09T14:02:03Z</time>
      </trkpt>
      <trkpt lat="42.85742" lon="0.26626">
        <ele>1563</ele>
        <time>2022-02-09T14:02:04Z</time>
      </trkpt>
      <trkpt lat="42.85742" lon="0.2663">
        <ele>1562.4</ele>
        <time>2022-02-09T14:02:05Z</time>
      </trkpt>
      <trkpt lat="42.85742" lon="0.26631">
        <ele>1562.1</ele>
        <time>2022-02-09T14:02:06Z</time>
      </trkpt>
      <trkpt lat="42.85741" lon="0.26633">
        <ele>1561.9</ele>
        <time>2022-02-09T14:02:07Z</time>
      </trkpt>
      <trkpt lat="42.85741" lon="0.26634">
        <ele>1561.6</ele>
        <time>2022-02-09T14:02:08Z</time>
      </trkpt>
      <trkpt lat="42.85741" lon="0.26636">
        <ele>1561.4</ele>
        <time>2022-02-09T14:02:09Z</time>
      </trkpt>
      <trkpt lat="42.85741" lon="0.26637">
        <ele>1561.2</ele>
        <time>2022-02-09T14:02:10Z</time>
      </trkpt>
      <trkpt lat="42.85741" lon="0.26638">
        <ele>1561</ele>
        <time>2022-02-09T14:02:11Z</time>
      </trkpt>
      <trkpt lat="42.85741" lon="0.26639">
        <ele>1560.9</ele>
        <time>2022-02-09T14:02:12Z</time>
      </trkpt>
      <trkpt lat="42.85741" lon="0.2664">
        <ele>1560.9</ele>
        <time>2022-02-09T14:02:13Z</time>
      </trkpt>
      <trkpt lat="42.8574" lon="0.2664">
        <ele>1560.7</ele>
        <time>2022-02-09T14:02:14Z</time>
      </trkpt>
      <trkpt lat="42.85739" lon="0.26642">
        <ele>1560.4</ele>
        <time>2022-02-09T14:02:15Z</time>
      </trkpt>
      <trkpt lat="42.85738" lon="0.26643">
        <ele>1560.2</ele>
        <time>2022-02-09T14:02:16Z</time>
      </trkpt>
      <trkpt lat="42.85738" lon="0.26644">
        <ele>1560.1</ele>
        <time>2022-02-09T14:02:17Z</time>
      </trkpt>
      <trkpt lat="42.85738" lon="0.26645">
        <ele>1560</ele>
        <time>2022-02-09T14:02:18Z</time>
      </trkpt>
      <trkpt lat="42.85738" lon="0.26645">
        <ele>1560</ele>
        <time>2022-02-09T14:02:19Z</time>
      </trkpt>
      <trkpt lat="42.85738" lon="0.26645">
        <ele>1560</ele>
        <time>2022-02-09T14:02:20Z</time>
      </trkpt>
      <trkpt lat="42.85738" lon="0.26645">
        <ele>1560</ele>
        <time>2022-02-09T14:02:21Z</time>
      </trkpt>
      <trkpt lat="42.85738" lon="0.26645">
        <ele>1560</ele>
        <time>2022-02-09T14:02:22Z</time>
      </trkpt>
      <trkpt lat="42.85738" lon="0.26645">
        <ele>1560</ele>
        <time>2022-02-09T14:02:23Z</time>
      </trkpt>
      <trkpt lat="42.85738" lon="0.26645">
        <ele>1560</ele>
        <time>2022-02-09T14:02:24Z</time>
      </trkpt>
      <trkpt lat="42.85738" lon="0.26645">
        <ele>1560</ele>
        <time>2022-02-09T14:02:25Z</time>
      </trkpt>
      <trkpt lat="42.85738" lon="0.26645">
        <ele>1560</ele>
        <time>2022-02-09T14:02:26Z</time>
      </trkpt>
      <trkpt lat="42.85738" lon="0.26645">
        <ele>1560</ele>
        <time>2022-02-09T14:02:27Z</time>
      </trkpt>
      <trkpt lat="42.85738" lon="0.26645">
        <ele>1560</ele>
        <time>2022-02-09T14:02:28Z</time>
      </trkpt>
      <trkpt lat="42.85738" lon="0.26645">
        <ele>1560</ele>
        <time>2022-02-09T14:02:29Z</time>
      </trkpt>
      <trkpt lat="42.85738" lon="0.26645">
        <ele>1560</ele>
        <time>2022-02-09T14:02:30Z</time>
      </trkpt>
      <trkpt lat="42.85738" lon="0.26645">
        <ele>1560</ele>
        <time>2022-02-09T14:02:31Z</time>
      </trkpt>
      <trkpt lat="42.85738" lon="0.26645">
        <ele>1560</ele>
        <time>2022-02-09T14:02:32Z</time>
      </trkpt>
      <trkpt lat="42.85738" lon="0.26645">
        <ele>1560</ele>
        <time>2022-02-09T14:02:33Z</time>
      </trkpt>
      <trkpt lat="42.85738" lon="0.26645">
        <ele>1560</ele>
        <time>2022-02-09T14:02:34Z</time>
      </trkpt>
      <trkpt lat="42.85738" lon="0.26645">
        <ele>1560</ele>
        <time>2022-02-09T14:02:35Z</time>
      </trkpt>
      <trkpt lat="42.85738" lon="0.26645">
        <ele>1560</ele>
        <time>2022-02-09T14:02:36Z</time>
      </trkpt>
      <trkpt lat="42.85738" lon="0.26645">
        <ele>1560</ele>
        <time>2022-02-09T14:02:37Z</time>
      </trkpt>
      <trkpt lat="42.85738" lon="0.26645">
        <ele>1560</ele>
        <time>2022-02-09T14:02:38Z</time>
      </trkpt>
      <trkpt lat="42.85738" lon="0.26645">
        <ele>1560</ele>
        <time>2022-02-09T14:02:39Z</time>
      </trkpt>
      <trkpt lat="42.85738" lon="0.26645">
        <ele>1560</ele>
        <time>2022-02-09T14:02:40Z</time>
      </trkpt>
      <trkpt lat="42.85738" lon="0.26645">
        <ele>1560</ele>
        <time>2022-02-09T14:02:41Z</time>
      </trkpt>
      <trkpt lat="42.85738" lon="0.26645">
        <ele>1560</ele>
        <time>2022-02-09T14:02:42Z</time>
      </trkpt>
      <trkpt lat="42.85738" lon="0.26645">
        <ele>1560</ele>
        <time>2022-02-09T14:02:43Z</time>
      </trkpt>
      <trkpt lat="42.85738" lon="0.26645">
        <ele>1560</ele>
        <time>2022-02-09T14:02:44Z</time>
      </trkpt>
      <trkpt lat="42.85738" lon="0.26645">
        <ele>1560</ele>
        <time>2022-02-09T14:02:45Z</time>
      </trkpt>
      <trkpt lat="42.85738" lon="0.26645">
        <ele>1560</ele>
        <time>2022-02-09T14:02:46Z</time>
      </trkpt>
      <trkpt lat="42.85738" lon="0.26645">
        <ele>1560</ele>
        <time>2022-02-09T14:02:47Z</time>
      </trkpt>
      <trkpt lat="42.85738" lon="0.26645">
        <ele>1560</ele>
        <time>2022-02-09T14:02:48Z</time>
      </trkpt>
      <trkpt lat="42.85738" lon="0.26645">
        <ele>1560</ele>
        <time>2022-02-09T14:02:49Z</time>
      </trkpt>
      <trkpt lat="42.85738" lon="0.26645">
        <ele>1560</ele>
        <time>2022-02-09T14:02:50Z</time>
      </trkpt>
      <trkpt lat="42.85738" lon="0.26645">
        <ele>1560</ele>
        <time>2022-02-09T14:02:51Z</time>
      </trkpt>
      <trkpt lat="42.85738" lon="0.26645">
        <ele>1560</ele>
        <time>2022-02-09T14:02:52Z</time>
      </trkpt>
      <trkpt lat="42.85738" lon="0.26645">
        <ele>1560</ele>
        <time>2022-02-09T14:02:53Z</time>
      </trkpt>
      <trkpt lat="42.85738" lon="0.26645">
        <ele>1560</ele>
        <time>2022-02-09T14:02:54Z</time>
      </trkpt>
      <trkpt lat="42.85738" lon="0.26645">
        <ele>1560</ele>
        <time>2022-02-09T14:02:55Z</time>
      </trkpt>
      <trkpt lat="42.85738" lon="0.26645">
        <ele>1560</ele>
        <time>2022-02-09T14:02:56Z</time>
      </trkpt>
      <trkpt lat="42.85738" lon="0.26645">
        <ele>1560</ele>
        <time>2022-02-09T14:02:57Z</time>
      </trkpt>
      <trkpt lat="42.85738" lon="0.26645">
        <ele>1560</ele>
        <time>2022-02-09T14:02:58Z</time>
      </trkpt>
      <trkpt lat="42.85738" lon="0.26645">
        <ele>1560</ele>
        <time>2022-02-09T14:02:59Z</time>
      </trkpt>
      <trkpt lat="42.85738" lon="0.26645">
        <ele>1560</ele>
        <time>2022-02-09T14:03:00Z</time>
      </trkpt>
      <trkpt lat="42.85738" lon="0.26645">
        <ele>1560</ele>
        <time>2022-02-09T14:03:01Z</time>
      </trkpt>
      <trkpt lat="42.85738" lon="0.26645">
        <ele>1560</ele>
        <time>2022-02-09T14:03:02Z</time>
      </trkpt>
      <trkpt lat="42.85738" lon="0.26645">
        <ele>1560</ele>
        <time>2022-02-09T14:03:03Z</time>
      </trkpt>
      <trkpt lat="42.85738" lon="0.26645">
        <ele>1560</ele>
        <time>2022-02-09T14:03:04Z</time>
      </trkpt>
      <trkpt lat="42.85738" lon="0.26645">
        <ele>1560</ele>
        <time>2022-02-09T14:03:05Z</time>
      </trkpt>
      <trkpt lat="42.85738" lon="0.26645">
        <ele>1560</ele>
        <time>2022-02-09T14:03:06Z</time>
      </trkpt>
      <trkpt lat="42.85738" lon="0.26645">
        <ele>1560</ele>
        <time>2022-02-09T14:03:07Z</time>
      </trkpt>
      <trkpt lat="42.85738" lon="0.26645">
        <ele>1560</ele>
        <time>2022-02-09T14:03:08Z</time>
      </trkpt>
      <trkpt lat="42.85738" lon="0.26645">
        <ele>1560</ele>
        <time>2022-02-09T14:03:09Z</time>
      </trkpt>
      <trkpt lat="42.85738" lon="0.26645">
        <ele>1560</ele>
        <time>2022-02-09T14:03:10Z</time>
      </trkpt>
      <trkpt lat="42.85738" lon="0.26645">
        <ele>1560</ele>
        <time>2022-02-09T14:03:11Z</time>
      </trkpt>
      <trkpt lat="42.85738" lon="0.26645">
        <ele>1560</ele>
        <time>2022-02-09T14:03:12Z</time>
      </trkpt>
      <trkpt lat="42.85738" lon="0.26645">
        <ele>1560</ele>
        <time>2022-02-09T14:03:13Z</time>
      </trkpt>
      <trkpt lat="42.85738" lon="0.26645">
        <ele>1560</ele>
        <time>2022-02-09T14:03:14Z</time>
      </trkpt>
      <trkpt lat="42.85738" lon="0.26645">
        <ele>1560</ele>
        <time>2022-02-09T14:03:15Z</time>
      </trkpt>
      <trkpt lat="42.85738" lon="0.26645">
        <ele>1560</ele>
        <time>2022-02-09T14:03:16Z</time>
      </trkpt>
      <trkpt lat="42.85738" lon="0.26645">
        <ele>1560</ele>
        <time>2022-02-09T14:03:17Z</time>
      </trkpt>
      <trkpt lat="42.85738" lon="0.26645">
        <ele>1560</ele>
        <time>2022-02-09T14:03:18Z</time>
      </trkpt>
      <trkpt lat="42.85738" lon="0.26645">
        <ele>1560</ele>
        <time>2022-02-09T14:03:19Z</time>
      </trkpt>
      <trkpt lat="42.85738" lon="0.26645">
        <ele>1560</ele>
        <time>2022-02-09T14:03:20Z</time>
      </trkpt>
      <trkpt lat="42.85738" lon="0.26645">
        <ele>1560</ele>
        <time>2022-02-09T14:03:21Z</time>
      </trkpt>
      <trkpt lat="42.85738" lon="0.26645">
        <ele>1560</ele>
        <time>2022-02-09T14:03:22Z</time>
      </trkpt>
      <trkpt lat="42.85738" lon="0.26645">
        <ele>1560</ele>
        <time>2022-02-09T14:03:23Z</time>
      </trkpt>
      <trkpt lat="42.85738" lon="0.26645">
        <ele>1560</ele>
        <time>2022-02-09T14:03:24Z</time>
      </trkpt>
      <trkpt lat="42.85738" lon="0.26645">
        <ele>1560</ele>
        <time>2022-02-09T14:03:25Z</time>
      </trkpt>
      <trkpt lat="42.85738" lon="0.26645">
        <ele>1560</ele>
        <time>2022-02-09T14:03:26Z</time>
      </trkpt>
      <trkpt lat="42.85738" lon="0.26645">
        <ele>1560</ele>
        <time>2022-02-09T14:03:27Z</time>
      </trkpt>
      <trkpt lat="42.85738" lon="0.26645">
        <ele>1560</ele>
        <time>2022-02-09T14:03:28Z</time>
      </trkpt>
      <trkpt lat="42.85738" lon="0.26645">
        <ele>1560</ele>
        <time>2022-02-09T14:03:29Z</time>
      </trkpt>
      <trkpt lat="42.85738" lon="0.26645">
        <ele>1560</ele>
        <time>2022-02-09T14:03:30Z</time>
      </trkpt>
      <trkpt lat="42.85738" lon="0.26645">
        <ele>1560</ele>
        <time>2022-02-09T14:03:31Z</time>
      </trkpt>
      <trkpt lat="42.85738" lon="0.26645">
        <ele>1560</ele>
        <time>2022-02-09T14:03:32Z</time>
      </trkpt>
      <trkpt lat="42.85738" lon="0.26645">
        <ele>1560</ele>
        <time>2022-02-09T14:03:33Z</time>
      </trkpt>
      <trkpt lat="42.85738" lon="0.26645">
        <ele>1560</ele>
        <time>2022-02-09T14:03:34Z</time>
      </trkpt>
      <trkpt lat="42.85738" lon="0.26645">
        <ele>1560</ele>
        <time>2022-02-09T14:03:35Z</time>
      </trkpt>
      <trkpt lat="42.85738" lon="0.26645">
        <ele>1560</ele>
        <time>2022-02-09T14:03:36Z</time>
      </trkpt>
      <trkpt lat="42.85738" lon="0.26645">
        <ele>1560</ele>
        <time>2022-02-09T14:03:37Z</time>
      </trkpt>
      <trkpt lat="42.85738" lon="0.26645">
        <ele>1560</ele>
        <time>2022-02-09T14:03:38Z</time>
      </trkpt>
      <trkpt lat="42.85738" lon="0.26645">
        <ele>1560</ele>
        <time>2022-02-09T14:03:39Z</time>
      </trkpt>
      <trkpt lat="42.85738" lon="0.26645">
        <ele>1560</ele>
        <time>2022-02-09T14:03:40Z</time>
      </trkpt>
      <trkpt lat="42.85738" lon="0.26645">
        <ele>1560</ele>
        <time>2022-02-09T14:03:41Z</time>
      </trkpt>
      <trkpt lat="42.85738" lon="0.26645">
        <ele>1560</ele>
        <time>2022-02-09T14:03:42Z</time>
      </trkpt>
      <trkpt lat="42.85738" lon="0.26645">
        <ele>1560</ele>
        <time>2022-02-09T14:03:43Z</time>
      </trkpt>
      <trkpt lat="42.85738" lon="0.26645">
        <ele>1560</ele>
        <time>2022-02-09T14:03:44Z</time>
      </trkpt>
      <trkpt lat="42.85738" lon="0.26645">
        <ele>1560</ele>
        <time>2022-02-09T14:03:45Z</time>
      </trkpt>
      <trkpt lat="42.85738" lon="0.26645">
        <ele>1560</ele>
        <time>2022-02-09T14:03:46Z</time>
      </trkpt>
      <trkpt lat="42.85738" lon="0.26645">
        <ele>1560</ele>
        <time>2022-02-09T14:03:47Z</time>
      </trkpt>
      <trkpt lat="42.85738" lon="0.26645">
        <ele>1560</ele>
        <time>2022-02-09T14:03:48Z</time>
      </trkpt>
      <trkpt lat="42.85738" lon="0.26645">
        <ele>1560</ele>
        <time>2022-02-09T14:03:49Z</time>
      </trkpt>
      <trkpt lat="42.85738" lon="0.26645">
        <ele>1560</ele>
        <time>2022-02-09T14:03:50Z</time>
      </trkpt>
      <trkpt lat="42.85738" lon="0.26645">
        <ele>1560</ele>
        <time>2022-02-09T14:03:51Z</time>
      </trkpt>
      <trkpt lat="42.85738" lon="0.26645">
        <ele>1560</ele>
        <time>2022-02-09T14:03:52Z</time>
      </trkpt>
      <trkpt lat="42.85738" lon="0.26645">
        <ele>1560</ele>
        <time>2022-02-09T14:03:53Z</time>
      </trkpt>
      <trkpt lat="42.85738" lon="0.26645">
        <ele>1560</ele>
        <time>2022-02-09T14:03:54Z</time>
      </trkpt>
      <trkpt lat="42.85738" lon="0.26645">
        <ele>1560</ele>
        <time>2022-02-09T14:03:55Z</time>
      </trkpt>
      <trkpt lat="42.85738" lon="0.26645">
        <ele>1560</ele>
        <time>2022-02-09T14:03:56Z</time>
      </trkpt>
      <trkpt lat="42.85738" lon="0.26645">
        <ele>1560</ele>
        <time>2022-02-09T14:03:57Z</time>
      </trkpt>
      <trkpt lat="42.85738" lon="0.26645">
        <ele>1560</ele>
        <time>2022-02-09T14:03:58Z</time>
      </trkpt>
      <trkpt lat="42.85738" lon="0.26645">
        <ele>1560</ele>
        <time>2022-02-09T14:03:59Z</time>
      </trkpt>
      <trkpt lat="42.85738" lon="0.26645">
        <ele>1560</ele>
        <time>2022-02-09T14:04:00Z</time>
      </trkpt>
      <trkpt lat="42.85738" lon="0.26645">
        <ele>1560</ele>
        <time>2022-02-09T14:04:01Z</time>
      </trkpt>
      <trkpt lat="42.85738" lon="0.26645">
        <ele>1560</ele>
        <time>2022-02-09T14:04:02Z</time>
      </trkpt>
      <trkpt lat="42.85738" lon="0.26645">
        <ele>1560</ele>
        <time>2022-02-09T14:04:03Z</time>
      </trkpt>
      <trkpt lat="42.85738" lon="0.26645">
        <ele>1560</ele>
        <time>2022-02-09T14:04:04Z</time>
      </trkpt>
      <trkpt lat="42.85738" lon="0.26645">
        <ele>1560</ele>
        <time>2022-02-09T14:04:05Z</time>
      </trkpt>
      <trkpt lat="42.85738" lon="0.26645">
        <ele>1560</ele>
        <time>2022-02-09T14:04:06Z</time>
      </trkpt>
      <trkpt lat="42.85738" lon="0.26645">
        <ele>1560</ele>
        <time>2022-02-09T14:04:07Z</time>
      </trkpt>
      <trkpt lat="42.85738" lon="0.26645">
        <ele>1560</ele>
        <time>2022-02-09T14:04:08Z</time>
      </trkpt>
      <trkpt lat="42.85738" lon="0.26645">
        <ele>1560</ele>
        <time>2022-02-09T14:04:09Z</time>
      </trkpt>
      <trkpt lat="42.85738" lon="0.26645">
        <ele>1560</ele>
        <time>2022-02-09T14:04:10Z</time>
      </trkpt>
      <trkpt lat="42.85738" lon="0.26645">
        <ele>1560</ele>
        <time>2022-02-09T14:04:11Z</time>
      </trkpt>
      <trkpt lat="42.85738" lon="0.26645">
        <ele>1560</ele>
        <time>2022-02-09T14:04:12Z</time>
      </trkpt>
      <trkpt lat="42.85738" lon="0.26645">
        <ele>1560</ele>
        <time>2022-02-09T14:04:13Z</time>
      </trkpt>
      <trkpt lat="42.85738" lon="0.26645">
        <ele>1560</ele>
        <time>2022-02-09T14:04:14Z</time>
      </trkpt>
      <trkpt lat="42.85738" lon="0.26645">
        <ele>1560</ele>
        <time>2022-02-09T14:04:15Z</time>
      </trkpt>
      <trkpt lat="42.85738" lon="0.26645">
        <ele>1560</ele>
        <time>2022-02-09T14:04:16Z</time>
      </trkpt>
      <trkpt lat="42.85738" lon="0.26645">
        <ele>1560</ele>
        <time>2022-02-09T14:04:17Z</time>
      </trkpt>
      <trkpt lat="42.85738" lon="0.26645">
        <ele>1560</ele>
        <time>2022-02-09T14:04:18Z</time>
      </trkpt>
      <trkpt lat="42.85738" lon="0.26645">
        <ele>1560</ele>
        <time>2022-02-09T14:04:19Z</time>
      </trkpt>
      <trkpt lat="42.85738" lon="0.26645">
        <ele>1560</ele>
        <time>2022-02-09T14:04:20Z</time>
      </trkpt>
      <trkpt lat="42.85738" lon="0.26645">
        <ele>1560</ele>
        <time>2022-02-09T14:04:21Z</time>
      </trkpt>
      <trkpt lat="42.85738" lon="0.26645">
        <ele>1560</ele>
        <time>2022-02-09T14:04:22Z</time>
      </trkpt>
      <trkpt lat="42.85738" lon="0.26645">
        <ele>1560</ele>
        <time>2022-02-09T14:04:23Z</time>
      </trkpt>
      <trkpt lat="42.85738" lon="0.26645">
        <ele>1560</ele>
        <time>2022-02-09T14:04:24Z</time>
      </trkpt>
      <trkpt lat="42.85738" lon="0.26645">
        <ele>1560</ele>
        <time>2022-02-09T14:04:25Z</time>
      </trkpt>
      <trkpt lat="42.85738" lon="0.26645">
        <ele>1560</ele>
        <time>2022-02-09T14:04:26Z</time>
      </trkpt>
      <trkpt lat="42.85738" lon="0.26645">
        <ele>1560</ele>
        <time>2022-02-09T14:04:27Z</time>
      </trkpt>
      <trkpt lat="42.85738" lon="0.26645">
        <ele>1560</ele>
        <time>2022-02-09T14:04:28Z</time>
      </trkpt>
      <trkpt lat="42.85738" lon="0.26645">
        <ele>1560</ele>
        <time>2022-02-09T14:04:29Z</time>
      </trkpt>
      <trkpt lat="42.85738" lon="0.26645">
        <ele>1560</ele>
        <time>2022-02-09T14:04:30Z</time>
      </trkpt>
      <trkpt lat="42.85738" lon="0.26645">
        <ele>1560</ele>
        <time>2022-02-09T14:04:31Z</time>
      </trkpt>
      <trkpt lat="42.85738" lon="0.26645">
        <ele>1560</ele>
        <time>2022-02-09T14:04:32Z</time>
      </trkpt>
      <trkpt lat="42.85738" lon="0.26645">
        <ele>1560</ele>
        <time>2022-02-09T14:04:33Z</time>
      </trkpt>
      <trkpt lat="42.85738" lon="0.26645">
        <ele>1560</ele>
        <time>2022-02-09T14:04:34Z</time>
      </trkpt>
      <trkpt lat="42.85738" lon="0.26645">
        <ele>1560</ele>
        <time>2022-02-09T14:04:35Z</time>
      </trkpt>
      <trkpt lat="42.85738" lon="0.26645">
        <ele>1560</ele>
        <time>2022-02-09T14:04:36Z</time>
      </trkpt>
      <trkpt lat="42.85738" lon="0.26645">
        <ele>1560</ele>
        <time>2022-02-09T14:04:37Z</time>
      </trkpt>
      <trkpt lat="42.85738" lon="0.26645">
        <ele>1560</ele>
        <time>2022-02-09T14:04:38Z</time>
      </trkpt>
      <trkpt lat="42.85738" lon="0.26645">
        <ele>1560</ele>
        <time>2022-02-09T14:04:39Z</time>
      </trkpt>
      <trkpt lat="42.85738" lon="0.26645">
        <ele>1560</ele>
        <time>2022-02-09T14:04:40Z</time>
      </trkpt>
      <trkpt lat="42.85738" lon="0.26645">
        <ele>1560</ele>
        <time>2022-02-09T14:04:41Z</time>
      </trkpt>
      <trkpt lat="42.85738" lon="0.26645">
        <ele>1560</ele>
        <time>2022-02-09T14:04:42Z</time>
      </trkpt>
      <trkpt lat="42.85738" lon="0.26645">
        <ele>1560</ele>
        <time>2022-02-09T14:04:43Z</time>
      </trkpt>
      <trkpt lat="42.85738" lon="0.26645">
        <ele>1560</ele>
        <time>2022-02-09T14:04:44Z</time>
      </trkpt>
      <trkpt lat="42.85738" lon="0.26645">
        <ele>1560</ele>
        <time>2022-02-09T14:04:45Z</time>
      </trkpt>
      <trkpt lat="42.85738" lon="0.26645">
        <ele>1560</ele>
        <time>2022-02-09T14:04:46Z</time>
      </trkpt>
      <trkpt lat="42.85738" lon="0.26645">
        <ele>1560</ele>
        <time>2022-02-09T14:04:47Z</time>
      </trkpt>
      <trkpt lat="42.85738" lon="0.26645">
        <ele>1560</ele>
        <time>2022-02-09T14:04:48Z</time>
      </trkpt>
      <trkpt lat="42.85738" lon="0.26645">
        <ele>1560</ele>
        <time>2022-02-09T14:04:49Z</time>
      </trkpt>
      <trkpt lat="42.85738" lon="0.26645">
        <ele>1560</ele>
        <time>2022-02-09T14:04:50Z</time>
      </trkpt>
      <trkpt lat="42.85738" lon="0.26645">
        <ele>1560</ele>
        <time>2022-02-09T14:04:51Z</time>
      </trkpt>
      <trkpt lat="42.85738" lon="0.26645">
        <ele>1560</ele>
        <time>2022-02-09T14:04:52Z</time>
      </trkpt>
      <trkpt lat="42.85738" lon="0.26645">
        <ele>1560</ele>
        <time>2022-02-09T14:04:53Z</time>
      </trkpt>
      <trkpt lat="42.85738" lon="0.26645">
        <ele>1560</ele>
        <time>2022-02-09T14:04:54Z</time>
      </trkpt>
      <trkpt lat="42.85738" lon="0.26645">
        <ele>1560</ele>
        <time>2022-02-09T14:04:55Z</time>
      </trkpt>
      <trkpt lat="42.85738" lon="0.26645">
        <ele>1560</ele>
        <time>2022-02-09T14:04:56Z</time>
      </trkpt>
      <trkpt lat="42.85738" lon="0.26645">
        <ele>1560</ele>
        <time>2022-02-09T14:04:57Z</time>
      </trkpt>
      <trkpt lat="42.85738" lon="0.26645">
        <ele>1560</ele>
        <time>2022-02-09T14:04:58Z</time>
      </trkpt>
      <trkpt lat="42.85738" lon="0.26645">
        <ele>1560</ele>
        <time>2022-02-09T14:04:59Z</time>
      </trkpt>
      <trkpt lat="42.85738" lon="0.26645">
        <ele>1560</ele>
        <time>2022-02-09T14:05:00Z</time>
      </trkpt>
      <trkpt lat="42.85738" lon="0.26645">
        <ele>1560</ele>
        <time>2022-02-09T14:05:01Z</time>
      </trkpt>
      <trkpt lat="42.85738" lon="0.26645">
        <ele>1560</ele>
        <time>2022-02-09T14:05:02Z</time>
      </trkpt>
      <trkpt lat="42.85738" lon="0.26645">
        <ele>1560</ele>
        <time>2022-02-09T14:05:03Z</time>
      </trkpt>
      <trkpt lat="42.85738" lon="0.26645">
        <ele>1560</ele>
        <time>2022-02-09T14:05:04Z</time>
      </trkpt>
      <trkpt lat="42.85738" lon="0.26645">
        <ele>1560</ele>
        <time>2022-02-09T14:05:05Z</time>
      </trkpt>
      <trkpt lat="42.85738" lon="0.26645">
        <ele>1560</ele>
        <time>2022-02-09T14:05:06Z</time>
      </trkpt>
      <trkpt lat="42.85738" lon="0.26645">
        <ele>1560</ele>
        <time>2022-02-09T14:05:07Z</time>
      </trkpt>
      <trkpt lat="42.85738" lon="0.26645">
        <ele>1560</ele>
        <time>2022-02-09T14:05:08Z</time>
      </trkpt>
      <trkpt lat="42.85738" lon="0.26645">
        <ele>1560</ele>
        <time>2022-02-09T14:05:09Z</time>
      </trkpt>
      <trkpt lat="42.85738" lon="0.26645">
        <ele>1560</ele>
        <time>2022-02-09T14:05:10Z</time>
      </trkpt>
      <trkpt lat="42.85738" lon="0.26645">
        <ele>1560</ele>
        <time>2022-02-09T14:05:11Z</time>
      </trkpt>
      <trkpt lat="42.85738" lon="0.26645">
        <ele>1560</ele>
        <time>2022-02-09T14:05:12Z</time>
      </trkpt>
      <trkpt lat="42.85738" lon="0.26645">
        <ele>1560</ele>
        <time>2022-02-09T14:05:13Z</time>
      </trkpt>
      <trkpt lat="42.85738" lon="0.26645">
        <ele>1560</ele>
        <time>2022-02-09T14:05:14Z</time>
      </trkpt>
      <trkpt lat="42.85738" lon="0.26645">
        <ele>1560</ele>
        <time>2022-02-09T14:05:15Z</time>
      </trkpt>
      <trkpt lat="42.85738" lon="0.26645">
        <ele>1560</ele>
        <time>2022-02-09T14:05:16Z</time>
      </trkpt>
      <trkpt lat="42.85738" lon="0.26645">
        <ele>1560</ele>
        <time>2022-02-09T14:05:17Z</time>
      </trkpt>
      <trkpt lat="42.85738" lon="0.26645">
        <ele>1560</ele>
        <time>2022-02-09T14:05:18Z</time>
      </trkpt>
      <trkpt lat="42.85738" lon="0.26645">
        <ele>1560</ele>
        <time>2022-02-09T14:05:19Z</time>
      </trkpt>
      <trkpt lat="42.85738" lon="0.26645">
        <ele>1560</ele>
        <time>2022-02-09T14:05:20Z</time>
      </trkpt>
      <trkpt lat="42.85738" lon="0.26645">
        <ele>1560</ele>
        <time>2022-02-09T14:05:21Z</time>
      </trkpt>
      <trkpt lat="42.85738" lon="0.26645">
        <ele>1560</ele>
        <time>2022-02-09T14:05:22Z</time>
      </trkpt>
      <trkpt lat="42.85738" lon="0.26645">
        <ele>1560</ele>
        <time>2022-02-09T14:05:23Z</time>
      </trkpt>
      <trkpt lat="42.85738" lon="0.26645">
        <ele>1560</ele>
        <time>2022-02-09T14:05:24Z</time>
      </trkpt>
      <trkpt lat="42.85738" lon="0.26645">
        <ele>1560</ele>
        <time>2022-02-09T14:05:25Z</time>
      </trkpt>
      <trkpt lat="42.85738" lon="0.26645">
        <ele>1560</ele>
        <time>2022-02-09T14:05:26Z</time>
      </trkpt>
      <trkpt lat="42.85738" lon="0.26645">
        <ele>1560</ele>
        <time>2022-02-09T14:05:27Z</time>
      </trkpt>
      <trkpt lat="42.85738" lon="0.26645">
        <ele>1560</ele>
        <time>2022-02-09T14:05:28Z</time>
      </trkpt>
      <trkpt lat="42.85738" lon="0.26645">
        <ele>1560</ele>
        <time>2022-02-09T14:05:29Z</time>
      </trkpt>
      <trkpt lat="42.85738" lon="0.26645">
        <ele>1560</ele>
        <time>2022-02-09T14:05:30Z</time>
      </trkpt>
      <trkpt lat="42.85738" lon="0.26645">
        <ele>1560</ele>
        <time>2022-02-09T14:05:31Z</time>
      </trkpt>
      <trkpt lat="42.85738" lon="0.26645">
        <ele>1560</ele>
        <time>2022-02-09T14:05:32Z</time>
      </trkpt>
      <trkpt lat="42.85738" lon="0.26645">
        <ele>1560</ele>
        <time>2022-02-09T14:05:33Z</time>
      </trkpt>
      <trkpt lat="42.85738" lon="0.26645">
        <ele>1560</ele>
        <time>2022-02-09T14:05:34Z</time>
      </trkpt>
      <trkpt lat="42.85738" lon="0.26645">
        <ele>1560</ele>
        <time>2022-02-09T14:05:35Z</time>
      </trkpt>
      <trkpt lat="42.85738" lon="0.26645">
        <ele>1560</ele>
        <time>2022-02-09T14:05:36Z</time>
      </trkpt>
      <trkpt lat="42.85738" lon="0.26645">
        <ele>1560</ele>
        <time>2022-02-09T14:05:37Z</time>
      </trkpt>
      <trkpt lat="42.85738" lon="0.26645">
        <ele>1560</ele>
        <time>2022-02-09T14:05:38Z</time>
      </trkpt>
      <trkpt lat="42.85738" lon="0.26645">
        <ele>1560</ele>
        <time>2022-02-09T14:05:39Z</time>
      </trkpt>
      <trkpt lat="42.85738" lon="0.26645">
        <ele>1560</ele>
        <time>2022-02-09T14:05:40Z</time>
      </trkpt>
      <trkpt lat="42.85738" lon="0.26645">
        <ele>1560</ele>
        <time>2022-02-09T14:05:41Z</time>
      </trkpt>
      <trkpt lat="42.85738" lon="0.26645">
        <ele>1560</ele>
        <time>2022-02-09T14:05:42Z</time>
      </trkpt>
      <trkpt lat="42.85738" lon="0.26645">
        <ele>1560</ele>
        <time>2022-02-09T14:05:43Z</time>
      </trkpt>
      <trkpt lat="42.85738" lon="0.26645">
        <ele>1560</ele>
        <time>2022-02-09T14:05:44Z</time>
      </trkpt>
      <trkpt lat="42.85738" lon="0.26645">
        <ele>1560</ele>
        <time>2022-02-09T14:05:45Z</time>
      </trkpt>
      <trkpt lat="42.85738" lon="0.26645">
        <ele>1560</ele>
        <time>2022-02-09T14:05:46Z</time>
      </trkpt>
      <trkpt lat="42.85738" lon="0.26645">
        <ele>1560</ele>
        <time>2022-02-09T14:05:47Z</time>
      </trkpt>
      <trkpt lat="42.85738" lon="0.26645">
        <ele>1560</ele>
        <time>2022-02-09T14:05:48Z</time>
      </trkpt>
      <trkpt lat="42.85738" lon="0.26645">
        <ele>1560</ele>
        <time>2022-02-09T14:05:49Z</time>
      </trkpt>
      <trkpt lat="42.85738" lon="0.26645">
        <ele>1560</ele>
        <time>2022-02-09T14:05:50Z</time>
      </trkpt>
      <trkpt lat="42.85738" lon="0.26645">
        <ele>1560</ele>
        <time>2022-02-09T14:05:51Z</time>
      </trkpt>
      <trkpt lat="42.85738" lon="0.26645">
        <ele>1560</ele>
        <time>2022-02-09T14:05:52Z</time>
      </trkpt>
      <trkpt lat="42.85738" lon="0.26645">
        <ele>1560</ele>
        <time>2022-02-09T14:05:53Z</time>
      </trkpt>
      <trkpt lat="42.85738" lon="0.26645">
        <ele>1560</ele>
        <time>2022-02-09T14:05:54Z</time>
      </trkpt>
      <trkpt lat="42.85738" lon="0.26645">
        <ele>1560</ele>
        <time>2022-02-09T14:05:55Z</time>
      </trkpt>
      <trkpt lat="42.85738" lon="0.26645">
        <ele>1560</ele>
        <time>2022-02-09T14:05:56Z</time>
      </trkpt>
      <trkpt lat="42.85738" lon="0.26645">
        <ele>1560</ele>
        <time>2022-02-09T14:05:57Z</time>
      </trkpt>
      <trkpt lat="42.85738" lon="0.26645">
        <ele>1560</ele>
        <time>2022-02-09T14:05:58Z</time>
      </trkpt>
      <trkpt lat="42.85738" lon="0.26645">
        <ele>1560</ele>
        <time>2022-02-09T14:05:59Z</time>
      </trkpt>
      <trkpt lat="42.85738" lon="0.26645">
        <ele>1560</ele>
        <time>2022-02-09T14:06:00Z</time>
      </trkpt>
      <trkpt lat="42.85738" lon="0.26645">
        <ele>1560</ele>
        <time>2022-02-09T14:06:01Z</time>
      </trkpt>
      <trkpt lat="42.85738" lon="0.26645">
        <ele>1560</ele>
        <time>2022-02-09T14:06:02Z</time>
      </trkpt>
      <trkpt lat="42.85738" lon="0.26645">
        <ele>1560</ele>
        <time>2022-02-09T14:06:03Z</time>
      </trkpt>
      <trkpt lat="42.85738" lon="0.26645">
        <ele>1560</ele>
        <time>2022-02-09T14:06:04Z</time>
      </trkpt>
      <trkpt lat="42.85738" lon="0.26645">
        <ele>1560</ele>
        <time>2022-02-09T14:06:05Z</time>
      </trkpt>
      <trkpt lat="42.85738" lon="0.26645">
        <ele>1560</ele>
        <time>2022-02-09T14:06:06Z</time>
      </trkpt>
      <trkpt lat="42.85738" lon="0.26645">
        <ele>1560</ele>
        <time>2022-02-09T14:06:07Z</time>
      </trkpt>
      <trkpt lat="42.85738" lon="0.26645">
        <ele>1560</ele>
        <time>2022-02-09T14:06:08Z</time>
      </trkpt>
      <trkpt lat="42.85738" lon="0.26645">
        <ele>1560</ele>
        <time>2022-02-09T14:06:09Z</time>
      </trkpt>
      <trkpt lat="42.85738" lon="0.26645">
        <ele>1560</ele>
        <time>2022-02-09T14:06:10Z</time>
      </trkpt>
      <trkpt lat="42.85738" lon="0.26645">
        <ele>1560</ele>
        <time>2022-02-09T14:06:11Z</time>
      </trkpt>
      <trkpt lat="42.85738" lon="0.26645">
        <ele>1560</ele>
        <time>2022-02-09T14:06:12Z</time>
      </trkpt>
      <trkpt lat="42.85738" lon="0.26645">
        <ele>1560</ele>
        <time>2022-02-09T14:06:13Z</time>
      </trkpt>
      <trkpt lat="42.85738" lon="0.26645">
        <ele>1560</ele>
        <time>2022-02-09T14:06:14Z</time>
      </trkpt>
      <trkpt lat="42.85738" lon="0.26645">
        <ele>1560</ele>
        <time>2022-02-09T14:06:15Z</time>
      </trkpt>
      <trkpt lat="42.85738" lon="0.26645">
        <ele>1560</ele>
        <time>2022-02-09T14:06:16Z</time>
      </trkpt>
      <trkpt lat="42.85738" lon="0.26645">
        <ele>1560</ele>
        <time>2022-02-09T14:06:17Z</time>
      </trkpt>
      <trkpt lat="42.85738" lon="0.26645">
        <ele>1560</ele>
        <time>2022-02-09T14:06:18Z</time>
      </trkpt>
      <trkpt lat="42.85738" lon="0.26645">
        <ele>1560</ele>
        <time>2022-02-09T14:06:19Z</time>
      </trkpt>
      <trkpt lat="42.85738" lon="0.26645">
        <ele>1560</ele>
        <time>2022-02-09T14:06:20Z</time>
      </trkpt>
      <trkpt lat="42.85738" lon="0.26645">
        <ele>1560</ele>
        <time>2022-02-09T14:06:21Z</time>
      </trkpt>
      <trkpt lat="42.85738" lon="0.26645">
        <ele>1560</ele>
        <time>2022-02-09T14:06:22Z</time>
      </trkpt>
      <trkpt lat="42.85738" lon="0.26645">
        <ele>1560</ele>
        <time>2022-02-09T14:06:23Z</time>
      </trkpt>
      <trkpt lat="42.85738" lon="0.26645">
        <ele>1560</ele>
        <time>2022-02-09T14:06:24Z</time>
      </trkpt>
      <trkpt lat="42.85738" lon="0.26645">
        <ele>1560</ele>
        <time>2022-02-09T14:06:25Z</time>
      </trkpt>
      <trkpt lat="42.85738" lon="0.26645">
        <ele>1560</ele>
        <time>2022-02-09T14:06:26Z</time>
      </trkpt>
      <trkpt lat="42.85738" lon="0.26645">
        <ele>1560</ele>
        <time>2022-02-09T14:06:27Z</time>
      </trkpt>
      <trkpt lat="42.85738" lon="0.26645">
        <ele>1560</ele>
        <time>2022-02-09T14:06:28Z</time>
      </trkpt>
      <trkpt lat="42.85738" lon="0.26645">
        <ele>1560</ele>
        <time>2022-02-09T14:06:29Z</time>
      </trkpt>
      <trkpt lat="42.85738" lon="0.26645">
        <ele>1560</ele>
        <time>2022-02-09T14:06:30Z</time>
      </trkpt>
      <trkpt lat="42.85738" lon="0.26645">
        <ele>1560</ele>
        <time>2022-02-09T14:06:31Z</time>
      </trkpt>
      <trkpt lat="42.85738" lon="0.26645">
        <ele>1560</ele>
        <time>2022-02-09T14:06:32Z</time>
      </trkpt>
      <trkpt lat="42.85738" lon="0.26645">
        <ele>1560</ele>
        <time>2022-02-09T14:06:33Z</time>
      </trkpt>
      <trkpt lat="42.85738" lon="0.26645">
        <ele>1560</ele>
        <time>2022-02-09T14:06:34Z</time>
      </trkpt>
      <trkpt lat="42.85738" lon="0.26645">
        <ele>1560</ele>
        <time>2022-02-09T14:06:35Z</time>
      </trkpt>
      <trkpt lat="42.85738" lon="0.26645">
        <ele>1560</ele>
        <time>2022-02-09T14:06:36Z</time>
      </trkpt>
      <trkpt lat="42.85738" lon="0.26645">
        <ele>1560</ele>
        <time>2022-02-09T14:06:37Z</time>
      </trkpt>
      <trkpt lat="42.85738" lon="0.26645">
        <ele>1560</ele>
        <time>2022-02-09T14:06:38Z</time>
      </trkpt>
      <trkpt lat="42.85738" lon="0.26645">
        <ele>1560</ele>
        <time>2022-02-09T14:06:39Z</time>
      </trkpt>
      <trkpt lat="42.85738" lon="0.26645">
        <ele>1560</ele>
        <time>2022-02-09T14:06:40Z</time>
      </trkpt>
      <trkpt lat="42.85738" lon="0.26645">
        <ele>1560</ele>
        <time>2022-02-09T14:06:41Z</time>
      </trkpt>
      <trkpt lat="42.85738" lon="0.26645">
        <ele>1560</ele>
        <time>2022-02-09T14:06:42Z</time>
      </trkpt>
      <trkpt lat="42.85738" lon="0.26645">
        <ele>1560</ele>
        <time>2022-02-09T14:06:43Z</time>
      </trkpt>
      <trkpt lat="42.85738" lon="0.26645">
        <ele>1560</ele>
        <time>2022-02-09T14:06:44Z</time>
      </trkpt>
      <trkpt lat="42.85738" lon="0.26645">
        <ele>1560</ele>
        <time>2022-02-09T14:06:45Z</time>
      </trkpt>
      <trkpt lat="42.85738" lon="0.26645">
        <ele>1560</ele>
        <time>2022-02-09T14:06:46Z</time>
      </trkpt>
      <trkpt lat="42.85738" lon="0.26645">
        <ele>1560</ele>
        <time>2022-02-09T14:06:47Z</time>
      </trkpt>
      <trkpt lat="42.85738" lon="0.26645">
        <ele>1560</ele>
        <time>2022-02-09T14:06:48Z</time>
      </trkpt>
      <trkpt lat="42.85738" lon="0.26645">
        <ele>1560</ele>
        <time>2022-02-09T14:06:49Z</time>
      </trkpt>
      <trkpt lat="42.85738" lon="0.26645">
        <ele>1560</ele>
        <time>2022-02-09T14:06:50Z</time>
      </trkpt>
      <trkpt lat="42.85738" lon="0.26645">
        <ele>1560</ele>
        <time>2022-02-09T14:06:51Z</time>
      </trkpt>
      <trkpt lat="42.85738" lon="0.26645">
        <ele>1560</ele>
        <time>2022-02-09T14:06:52Z</time>
      </trkpt>
      <trkpt lat="42.85738" lon="0.26645">
        <ele>1560</ele>
        <time>2022-02-09T14:06:53Z</time>
      </trkpt>
      <trkpt lat="42.85738" lon="0.26645">
        <ele>1560</ele>
        <time>2022-02-09T14:06:54Z</time>
      </trkpt>
      <trkpt lat="42.85738" lon="0.26645">
        <ele>1560</ele>
        <time>2022-02-09T14:06:55Z</time>
      </trkpt>
      <trkpt lat="42.85738" lon="0.26645">
        <ele>1560</ele>
        <time>2022-02-09T14:06:56Z</time>
      </trkpt>
      <trkpt lat="42.85738" lon="0.26645">
        <ele>1560</ele>
        <time>2022-02-09T14:06:57Z</time>
      </trkpt>
      <trkpt lat="42.85738" lon="0.26645">
        <ele>1560</ele>
        <time>2022-02-09T14:06:58Z</time>
      </trkpt>
      <trkpt lat="42.85738" lon="0.26645">
        <ele>1560</ele>
        <time>2022-02-09T14:06:59Z</time>
      </trkpt>
      <trkpt lat="42.85738" lon="0.26645">
        <ele>1560</ele>
        <time>2022-02-09T14:07:00Z</time>
      </trkpt>
      <trkpt lat="42.85738" lon="0.26645">
        <ele>1560</ele>
        <time>2022-02-09T14:07:01Z</time>
      </trkpt>
      <trkpt lat="42.85738" lon="0.26645">
        <ele>1560</ele>
        <time>2022-02-09T14:07:02Z</time>
      </trkpt>
      <trkpt lat="42.85738" lon="0.26645">
        <ele>1560</ele>
        <time>2022-02-09T14:07:03Z</time>
      </trkpt>
      <trkpt lat="42.85738" lon="0.26645">
        <ele>1560</ele>
        <time>2022-02-09T14:07:04Z</time>
      </trkpt>
      <trkpt lat="42.85738" lon="0.26645">
        <ele>1560</ele>
        <time>2022-02-09T14:07:05Z</time>
      </trkpt>
      <trkpt lat="42.85738" lon="0.26645">
        <ele>1560</ele>
        <time>2022-02-09T14:07:06Z</time>
      </trkpt>
      <trkpt lat="42.85738" lon="0.26645">
        <ele>1560</ele>
        <time>2022-02-09T14:07:07Z</time>
      </trkpt>
      <trkpt lat="42.85738" lon="0.26645">
        <ele>1560</ele>
        <time>2022-02-09T14:07:08Z</time>
      </trkpt>
      <trkpt lat="42.85738" lon="0.26645">
        <ele>1560</ele>
        <time>2022-02-09T14:07:09Z</time>
      </trkpt>
      <trkpt lat="42.85738" lon="0.26645">
        <ele>1560</ele>
        <time>2022-02-09T14:07:10Z</time>
      </trkpt>
      <trkpt lat="42.85738" lon="0.26645">
        <ele>1560</ele>
        <time>2022-02-09T14:07:11Z</time>
      </trkpt>
      <trkpt lat="42.85738" lon="0.26645">
        <ele>1560</ele>
        <time>2022-02-09T14:07:12Z</time>
      </trkpt>
      <trkpt lat="42.85738" lon="0.26645">
        <ele>1560</ele>
        <time>2022-02-09T14:07:13Z</time>
      </trkpt>
      <trkpt lat="42.85735" lon="0.26648">
        <ele>1559.5</ele>
        <time>2022-02-09T14:07:14Z</time>
      </trkpt>
      <trkpt lat="42.85731" lon="0.26654">
        <ele>1558.6</ele>
        <time>2022-02-09T14:07:15Z</time>
      </trkpt>
      <trkpt lat="42.85727" lon="0.26655">
        <ele>1557.1</ele>
        <time>2022-02-09T14:07:16Z</time>
      </trkpt>
      <trkpt lat="42.85724" lon="0.26656">
        <ele>1555.7</ele>
        <time>2022-02-09T14:07:17Z</time>
      </trkpt>
      <trkpt lat="42.85721" lon="0.26656">
        <ele>1554.3</ele>
        <time>2022-02-09T14:07:18Z</time>
      </trkpt>
      <trkpt lat="42.85717" lon="0.26654">
        <ele>1553.2</ele>
        <time>2022-02-09T14:07:19Z</time>
      </trkpt>
      <trkpt lat="42.85713" lon="0.26655">
        <ele>1551.8</ele>
        <time>2022-02-09T14:07:20Z</time>
      </trkpt>
      <trkpt lat="42.8571" lon="0.26656">
        <ele>1550.7</ele>
        <time>2022-02-09T14:07:21Z</time>
      </trkpt>
      <trkpt lat="42.85706" lon="0.26655">
        <ele>1549.7</ele>
        <time>2022-02-09T14:07:22Z</time>
      </trkpt>
      <trkpt lat="42.85702" lon="0.26655">
        <ele>1547.8</ele>
        <time>2022-02-09T14:07:23Z</time>
      </trkpt>
      <trkpt lat="42.85699" lon="0.26653">
        <ele>1546.6</ele>
        <time>2022-02-09T14:07:24Z</time>
      </trkpt>
      <trkpt lat="42.85695" lon="0.26651">
        <ele>1545.3</ele>
        <time>2022-02-09T14:07:25Z</time>
      </trkpt>
      <trkpt lat="42.85692" lon="0.26651">
        <ele>1544.2</ele>
        <time>2022-02-09T14:07:26Z</time>
      </trkpt>
      <trkpt lat="42.85689" lon="0.26654">
        <ele>1543.1</ele>
        <time>2022-02-09T14:07:27Z</time>
      </trkpt>
      <trkpt lat="42.85686" lon="0.26659">
        <ele>1541.8</ele>
        <time>2022-02-09T14:07:28Z</time>
      </trkpt>
      <trkpt lat="42.85684" lon="0.26663">
        <ele>1540.5</ele>
        <time>2022-02-09T14:07:29Z</time>
      </trkpt>
      <trkpt lat="42.85681" lon="0.26666">
        <ele>1539.3</ele>
        <time>2022-02-09T14:07:30Z</time>
      </trkpt>
      <trkpt lat="42.85677" lon="0.26666">
        <ele>1538.3</ele>
        <time>2022-02-09T14:07:31Z</time>
      </trkpt>
      <trkpt lat="42.85672" lon="0.26667">
        <ele>1537.2</ele>
        <time>2022-02-09T14:07:32Z</time>
      </trkpt>
      <trkpt lat="42.85668" lon="0.26671">
        <ele>1534.7</ele>
        <time>2022-02-09T14:07:33Z</time>
      </trkpt>
      <trkpt lat="42.85666" lon="0.26676">
        <ele>1534.5</ele>
        <time>2022-02-09T14:07:34Z</time>
      </trkpt>
      <trkpt lat="42.85664" lon="0.26681">
        <ele>1532.9</ele>
        <time>2022-02-09T14:07:35Z</time>
      </trkpt>
      <trkpt lat="42.85662" lon="0.26686">
        <ele>1532.7</ele>
        <time>2022-02-09T14:07:36Z</time>
      </trkpt>
      <trkpt lat="42.85661" lon="0.26691">
        <ele>1531.4</ele>
        <time>2022-02-09T14:07:37Z</time>
      </trkpt>
      <trkpt lat="42.85659" lon="0.26695">
        <ele>1531.2</ele>
        <time>2022-02-09T14:07:38Z</time>
      </trkpt>
      <trkpt lat="42.85657" lon="0.26698">
        <ele>1530.1</ele>
        <time>2022-02-09T14:07:39Z</time>
      </trkpt>
      <trkpt lat="42.85654" lon="0.26698">
        <ele>1528.8</ele>
        <time>2022-02-09T14:07:40Z</time>
      </trkpt>
      <trkpt lat="42.85651" lon="0.26696">
        <ele>1528.1</ele>
        <time>2022-02-09T14:07:41Z</time>
      </trkpt>
      <trkpt lat="42.85648" lon="0.26693">
        <ele>1527.3</ele>
        <time>2022-02-09T14:07:42Z</time>
      </trkpt>
      <trkpt lat="42.85646" lon="0.2669">
        <ele>1527.3</ele>
        <time>2022-02-09T14:07:43Z</time>
      </trkpt>
      <trkpt lat="42.85645" lon="0.26688">
        <ele>1526.6</ele>
        <time>2022-02-09T14:07:44Z</time>
      </trkpt>
      <trkpt lat="42.85643" lon="0.26689">
        <ele>1525.5</ele>
        <time>2022-02-09T14:07:45Z</time>
      </trkpt>
      <trkpt lat="42.8564" lon="0.26689">
        <ele>1524.3</ele>
        <time>2022-02-09T14:07:46Z</time>
      </trkpt>
      <trkpt lat="42.85636" lon="0.26687">
        <ele>1523.1</ele>
        <time>2022-02-09T14:07:47Z</time>
      </trkpt>
      <trkpt lat="42.85633" lon="0.26688">
        <ele>1521.9</ele>
        <time>2022-02-09T14:07:48Z</time>
      </trkpt>
      <trkpt lat="42.8563" lon="0.26692">
        <ele>1520.4</ele>
        <time>2022-02-09T14:07:49Z</time>
      </trkpt>
      <trkpt lat="42.85628" lon="0.26697">
        <ele>1520.1</ele>
        <time>2022-02-09T14:07:50Z</time>
      </trkpt>
      <trkpt lat="42.85626" lon="0.26701">
        <ele>1518.6</ele>
        <time>2022-02-09T14:07:51Z</time>
      </trkpt>
      <trkpt lat="42.85623" lon="0.26703">
        <ele>1517.2</ele>
        <time>2022-02-09T14:07:52Z</time>
      </trkpt>
      <trkpt lat="42.85621" lon="0.26702">
        <ele>1516.2</ele>
        <time>2022-02-09T14:07:53Z</time>
      </trkpt>
      <trkpt lat="42.85618" lon="0.26702">
        <ele>1515.1</ele>
        <time>2022-02-09T14:07:54Z</time>
      </trkpt>
      <trkpt lat="42.85615" lon="0.26705">
        <ele>1514</ele>
        <time>2022-02-09T14:07:55Z</time>
      </trkpt>
      <trkpt lat="42.85613" lon="0.26708">
        <ele>1513.7</ele>
        <time>2022-02-09T14:07:56Z</time>
      </trkpt>
      <trkpt lat="42.8561" lon="0.26711">
        <ele>1512.3</ele>
        <time>2022-02-09T14:07:57Z</time>
      </trkpt>
      <trkpt lat="42.85608" lon="0.26711">
        <ele>1511.1</ele>
        <time>2022-02-09T14:07:58Z</time>
      </trkpt>
      <trkpt lat="42.85604" lon="0.2671">
        <ele>1510.2</ele>
        <time>2022-02-09T14:07:59Z</time>
      </trkpt>
      <trkpt lat="42.85602" lon="0.26711">
        <ele>1508.9</ele>
        <time>2022-02-09T14:08:00Z</time>
      </trkpt>
      <trkpt lat="42.85599" lon="0.26714">
        <ele>1508</ele>
        <time>2022-02-09T14:08:01Z</time>
      </trkpt>
      <trkpt lat="42.85595" lon="0.26717">
        <ele>1506.8</ele>
        <time>2022-02-09T14:08:02Z</time>
      </trkpt>
      <trkpt lat="42.85591" lon="0.2672">
        <ele>1505.6</ele>
        <time>2022-02-09T14:08:03Z</time>
      </trkpt>
      <trkpt lat="42.85589" lon="0.26724">
        <ele>1504.3</ele>
        <time>2022-02-09T14:08:04Z</time>
      </trkpt>
      <trkpt lat="42.85586" lon="0.26726">
        <ele>1503.1</ele>
        <time>2022-02-09T14:08:05Z</time>
      </trkpt>
      <trkpt lat="42.85583" lon="0.26729">
        <ele>1501.7</ele>
        <time>2022-02-09T14:08:06Z</time>
      </trkpt>
      <trkpt lat="42.85581" lon="0.26733">
        <ele>1501.4</ele>
        <time>2022-02-09T14:08:07Z</time>
      </trkpt>
      <trkpt lat="42.85579" lon="0.26737">
        <ele>1500</ele>
        <time>2022-02-09T14:08:08Z</time>
      </trkpt>
      <trkpt lat="42.85577" lon="0.26739">
        <ele>1499</ele>
        <time>2022-02-09T14:08:09Z</time>
      </trkpt>
      <trkpt lat="42.85574" lon="0.26742">
        <ele>1498.7</ele>
        <time>2022-02-09T14:08:10Z</time>
      </trkpt>
      <trkpt lat="42.85572" lon="0.26745">
        <ele>1497.5</ele>
        <time>2022-02-09T14:08:11Z</time>
      </trkpt>
      <trkpt lat="42.8557" lon="0.26748">
        <ele>1496.6</ele>
        <time>2022-02-09T14:08:12Z</time>
      </trkpt>
      <trkpt lat="42.85567" lon="0.2675">
        <ele>1495.5</ele>
        <time>2022-02-09T14:08:13Z</time>
      </trkpt>
      <trkpt lat="42.85565" lon="0.26753">
        <ele>1495.5</ele>
        <time>2022-02-09T14:08:14Z</time>
      </trkpt>
      <trkpt lat="42.85562" lon="0.26756">
        <ele>1494.4</ele>
        <time>2022-02-09T14:08:15Z</time>
      </trkpt>
      <trkpt lat="42.85561" lon="0.26759">
        <ele>1493.2</ele>
        <time>2022-02-09T14:08:16Z</time>
      </trkpt>
      <trkpt lat="42.8556" lon="0.26763">
        <ele>1493</ele>
        <time>2022-02-09T14:08:17Z</time>
      </trkpt>
      <trkpt lat="42.85558" lon="0.26767">
        <ele>1492.8</ele>
        <time>2022-02-09T14:08:18Z</time>
      </trkpt>
      <trkpt lat="42.85556" lon="0.26769">
        <ele>1491.9</ele>
        <time>2022-02-09T14:08:19Z</time>
      </trkpt>
      <trkpt lat="42.85554" lon="0.26771">
        <ele>1490.7</ele>
        <time>2022-02-09T14:08:20Z</time>
      </trkpt>
      <trkpt lat="42.85551" lon="0.26771">
        <ele>1489.8</ele>
        <time>2022-02-09T14:08:21Z</time>
      </trkpt>
      <trkpt lat="42.85549" lon="0.26771">
        <ele>1489.8</ele>
        <time>2022-02-09T14:08:22Z</time>
      </trkpt>
      <trkpt lat="42.85548" lon="0.26769">
        <ele>1489.2</ele>
        <time>2022-02-09T14:08:23Z</time>
      </trkpt>
      <trkpt lat="42.85546" lon="0.26768">
        <ele>1489.2</ele>
        <time>2022-02-09T14:08:24Z</time>
      </trkpt>
      <trkpt lat="42.85544" lon="0.26765">
        <ele>1488.7</ele>
        <time>2022-02-09T14:08:25Z</time>
      </trkpt>
      <trkpt lat="42.85542" lon="0.26763">
        <ele>1487.9</ele>
        <time>2022-02-09T14:08:26Z</time>
      </trkpt>
      <trkpt lat="42.85541" lon="0.2676">
        <ele>1488.1</ele>
        <time>2022-02-09T14:08:27Z</time>
      </trkpt>
      <trkpt lat="42.8554" lon="0.26758">
        <ele>1488.1</ele>
        <time>2022-02-09T14:08:28Z</time>
      </trkpt>
      <trkpt lat="42.85538" lon="0.26756">
        <ele>1487.5</ele>
        <time>2022-02-09T14:08:29Z</time>
      </trkpt>
      <trkpt lat="42.85536" lon="0.26755">
        <ele>1486.7</ele>
        <time>2022-02-09T14:08:30Z</time>
      </trkpt>
      <trkpt lat="42.85533" lon="0.26755">
        <ele>1485.8</ele>
        <time>2022-02-09T14:08:31Z</time>
      </trkpt>
      <trkpt lat="42.85529" lon="0.26757">
        <ele>1484.9</ele>
        <time>2022-02-09T14:08:32Z</time>
      </trkpt>
      <trkpt lat="42.85526" lon="0.2676">
        <ele>1483.8</ele>
        <time>2022-02-09T14:08:33Z</time>
      </trkpt>
      <trkpt lat="42.85524" lon="0.26764">
        <ele>1483.6</ele>
        <time>2022-02-09T14:08:34Z</time>
      </trkpt>
      <trkpt lat="42.85521" lon="0.26767">
        <ele>1482.5</ele>
        <time>2022-02-09T14:08:35Z</time>
      </trkpt>
      <trkpt lat="42.85518" lon="0.26769">
        <ele>1481.7</ele>
        <time>2022-02-09T14:08:36Z</time>
      </trkpt>
      <trkpt lat="42.85515" lon="0.26772">
        <ele>1480.7</ele>
        <time>2022-02-09T14:08:37Z</time>
      </trkpt>
      <trkpt lat="42.85512" lon="0.26774">
        <ele>1479.9</ele>
        <time>2022-02-09T14:08:38Z</time>
      </trkpt>
      <trkpt lat="42.8551" lon="0.26776">
        <ele>1478.9</ele>
        <time>2022-02-09T14:08:39Z</time>
      </trkpt>
      <trkpt lat="42.85507" lon="0.2678">
        <ele>1477.9</ele>
        <time>2022-02-09T14:08:40Z</time>
      </trkpt>
      <trkpt lat="42.85505" lon="0.26783">
        <ele>1477.2</ele>
        <time>2022-02-09T14:08:41Z</time>
      </trkpt>
      <trkpt lat="42.85501" lon="0.26786">
        <ele>1476.2</ele>
        <time>2022-02-09T14:08:42Z</time>
      </trkpt>
      <trkpt lat="42.85497" lon="0.26788">
        <ele>1475.2</ele>
        <time>2022-02-09T14:08:43Z</time>
      </trkpt>
      <trkpt lat="42.85494" lon="0.26792">
        <ele>1474.5</ele>
        <time>2022-02-09T14:08:44Z</time>
      </trkpt>
      <trkpt lat="42.8549" lon="0.26794">
        <ele>1473.5</ele>
        <time>2022-02-09T14:08:45Z</time>
      </trkpt>
      <trkpt lat="42.85487" lon="0.26796">
        <ele>1472.8</ele>
        <time>2022-02-09T14:08:46Z</time>
      </trkpt>
      <trkpt lat="42.85483" lon="0.26798">
        <ele>1471.9</ele>
        <time>2022-02-09T14:08:47Z</time>
      </trkpt>
      <trkpt lat="42.85479" lon="0.268">
        <ele>1470.8</ele>
        <time>2022-02-09T14:08:48Z</time>
      </trkpt>
      <trkpt lat="42.85476" lon="0.26799">
        <ele>1470.2</ele>
        <time>2022-02-09T14:08:49Z</time>
      </trkpt>
      <trkpt lat="42.85473" lon="0.26799">
        <ele>1469.7</ele>
        <time>2022-02-09T14:08:50Z</time>
      </trkpt>
      <trkpt lat="42.8547" lon="0.268">
        <ele>1469.7</ele>
        <time>2022-02-09T14:08:51Z</time>
      </trkpt>
      <trkpt lat="42.85468" lon="0.26804">
        <ele>1468.7</ele>
        <time>2022-02-09T14:08:52Z</time>
      </trkpt>
      <trkpt lat="42.85468" lon="0.26808">
        <ele>1468.2</ele>
        <time>2022-02-09T14:08:53Z</time>
      </trkpt>
      <trkpt lat="42.85467" lon="0.26812">
        <ele>1467.6</ele>
        <time>2022-02-09T14:08:54Z</time>
      </trkpt>
      <trkpt lat="42.85465" lon="0.26814">
        <ele>1466.5</ele>
        <time>2022-02-09T14:08:55Z</time>
      </trkpt>
      <trkpt lat="42.85462" lon="0.26814">
        <ele>1466.1</ele>
        <time>2022-02-09T14:08:56Z</time>
      </trkpt>
      <trkpt lat="42.8546" lon="0.26813">
        <ele>1466.3</ele>
        <time>2022-02-09T14:08:57Z</time>
      </trkpt>
      <trkpt lat="42.85457" lon="0.26812">
        <ele>1466</ele>
        <time>2022-02-09T14:08:58Z</time>
      </trkpt>
      <trkpt lat="42.85455" lon="0.26815">
        <ele>1465.3</ele>
        <time>2022-02-09T14:08:59Z</time>
      </trkpt>
      <trkpt lat="42.85454" lon="0.2682">
        <ele>1464.4</ele>
        <time>2022-02-09T14:09:00Z</time>
      </trkpt>
      <trkpt lat="42.85453" lon="0.26826">
        <ele>1463.7</ele>
        <time>2022-02-09T14:09:01Z</time>
      </trkpt>
      <trkpt lat="42.85451" lon="0.26831">
        <ele>1463.1</ele>
        <time>2022-02-09T14:09:02Z</time>
      </trkpt>
      <trkpt lat="42.85449" lon="0.26834">
        <ele>1462.1</ele>
        <time>2022-02-09T14:09:03Z</time>
      </trkpt>
      <trkpt lat="42.85447" lon="0.26838">
        <ele>1461.1</ele>
        <time>2022-02-09T14:09:04Z</time>
      </trkpt>
      <trkpt lat="42.85446" lon="0.26843">
        <ele>1460.4</ele>
        <time>2022-02-09T14:09:05Z</time>
      </trkpt>
      <trkpt lat="42.85446" lon="0.26848">
        <ele>1459.2</ele>
        <time>2022-02-09T14:09:06Z</time>
      </trkpt>
      <trkpt lat="42.85446" lon="0.26853">
        <ele>1458.7</ele>
        <time>2022-02-09T14:09:07Z</time>
      </trkpt>
      <trkpt lat="42.85446" lon="0.26858">
        <ele>1458.1</ele>
        <time>2022-02-09T14:09:08Z</time>
      </trkpt>
      <trkpt lat="42.85444" lon="0.26863">
        <ele>1457</ele>
        <time>2022-02-09T14:09:09Z</time>
      </trkpt>
      <trkpt lat="42.85443" lon="0.26868">
        <ele>1456.3</ele>
        <time>2022-02-09T14:09:10Z</time>
      </trkpt>
      <trkpt lat="42.85443" lon="0.26872">
        <ele>1455.7</ele>
        <time>2022-02-09T14:09:11Z</time>
      </trkpt>
      <trkpt lat="42.85444" lon="0.26875">
        <ele>1455.1</ele>
        <time>2022-02-09T14:09:12Z</time>
      </trkpt>
      <trkpt lat="42.85444" lon="0.26877">
        <ele>1455.1</ele>
        <time>2022-02-09T14:09:13Z</time>
      </trkpt>
      <trkpt lat="42.85444" lon="0.26877">
        <ele>1455.1</ele>
        <time>2022-02-09T14:09:14Z</time>
      </trkpt>
      <trkpt lat="42.85444" lon="0.26878">
        <ele>1455.1</ele>
        <time>2022-02-09T14:09:15Z</time>
      </trkpt>
      <trkpt lat="42.85445" lon="0.26878">
        <ele>1455.1</ele>
        <time>2022-02-09T14:09:16Z</time>
      </trkpt>
      <trkpt lat="42.85445" lon="0.26879">
        <ele>1454.6</ele>
        <time>2022-02-09T14:09:17Z</time>
      </trkpt>
      <trkpt lat="42.85445" lon="0.26881">
        <ele>1455.2</ele>
        <time>2022-02-09T14:09:18Z</time>
      </trkpt>
      <trkpt lat="42.85446" lon="0.26882">
        <ele>1455.2</ele>
        <time>2022-02-09T14:09:19Z</time>
      </trkpt>
      <trkpt lat="42.85446" lon="0.26883">
        <ele>1454.7</ele>
        <time>2022-02-09T14:09:20Z</time>
      </trkpt>
      <trkpt lat="42.85446" lon="0.26883">
        <ele>1454.7</ele>
        <time>2022-02-09T14:09:21Z</time>
      </trkpt>
      <trkpt lat="42.85446" lon="0.26883">
        <ele>1454.7</ele>
        <time>2022-02-09T14:09:22Z</time>
      </trkpt>
      <trkpt lat="42.85446" lon="0.26885">
        <ele>1454.7</ele>
        <time>2022-02-09T14:09:23Z</time>
      </trkpt>
      <trkpt lat="42.85445" lon="0.2689">
        <ele>1453.5</ele>
        <time>2022-02-09T14:09:24Z</time>
      </trkpt>
      <trkpt lat="42.85444" lon="0.26894">
        <ele>1453</ele>
        <time>2022-02-09T14:09:25Z</time>
      </trkpt>
      <trkpt lat="42.85443" lon="0.26899">
        <ele>1452.5</ele>
        <time>2022-02-09T14:09:26Z</time>
      </trkpt>
      <trkpt lat="42.85442" lon="0.26902">
        <ele>1452</ele>
        <time>2022-02-09T14:09:27Z</time>
      </trkpt>
      <trkpt lat="42.85442" lon="0.26906">
        <ele>1450.8</ele>
        <time>2022-02-09T14:09:28Z</time>
      </trkpt>
      <trkpt lat="42.8544" lon="0.26909">
        <ele>1450.2</ele>
        <time>2022-02-09T14:09:29Z</time>
      </trkpt>
      <trkpt lat="42.85438" lon="0.26912">
        <ele>1448.9</ele>
        <time>2022-02-09T14:09:30Z</time>
      </trkpt>
      <trkpt lat="42.85436" lon="0.26916">
        <ele>1448.9</ele>
        <time>2022-02-09T14:09:31Z</time>
      </trkpt>
      <trkpt lat="42.85435" lon="0.26921">
        <ele>1447.1</ele>
        <time>2022-02-09T14:09:32Z</time>
      </trkpt>
      <trkpt lat="42.85434" lon="0.26925">
        <ele>1447.1</ele>
        <time>2022-02-09T14:09:33Z</time>
      </trkpt>
      <trkpt lat="42.85434" lon="0.26926">
        <ele>1446.5</ele>
        <time>2022-02-09T14:09:34Z</time>
      </trkpt>
      <trkpt lat="42.85435" lon="0.26926">
        <ele>1446.5</ele>
        <time>2022-02-09T14:09:35Z</time>
      </trkpt>
      <trkpt lat="42.85435" lon="0.26926">
        <ele>1446.5</ele>
        <time>2022-02-09T14:09:36Z</time>
      </trkpt>
      <trkpt lat="42.85435" lon="0.26926">
        <ele>1446.5</ele>
        <time>2022-02-09T14:09:37Z</time>
      </trkpt>
      <trkpt lat="42.85435" lon="0.26926">
        <ele>1446.5</ele>
        <time>2022-02-09T14:09:38Z</time>
      </trkpt>
      <trkpt lat="42.85435" lon="0.26926">
        <ele>1446.5</ele>
        <time>2022-02-09T14:09:39Z</time>
      </trkpt>
      <trkpt lat="42.85435" lon="0.26926">
        <ele>1446.5</ele>
        <time>2022-02-09T14:09:40Z</time>
      </trkpt>
      <trkpt lat="42.85436" lon="0.26925">
        <ele>1447.3</ele>
        <time>2022-02-09T14:09:41Z</time>
      </trkpt>
      <trkpt lat="42.85436" lon="0.26925">
        <ele>1447.3</ele>
        <time>2022-02-09T14:09:42Z</time>
      </trkpt>
      <trkpt lat="42.85436" lon="0.26925">
        <ele>1447.3</ele>
        <time>2022-02-09T14:09:43Z</time>
      </trkpt>
      <trkpt lat="42.85436" lon="0.26925">
        <ele>1447.8</ele>
        <time>2022-02-09T14:09:44Z</time>
      </trkpt>
      <trkpt lat="42.85436" lon="0.26925">
        <ele>1447.8</ele>
        <time>2022-02-09T14:09:45Z</time>
      </trkpt>
      <trkpt lat="42.85436" lon="0.26925">
        <ele>1447.8</ele>
        <time>2022-02-09T14:09:46Z</time>
      </trkpt>
      <trkpt lat="42.85437" lon="0.26925">
        <ele>1447.8</ele>
        <time>2022-02-09T14:09:47Z</time>
      </trkpt>
      <trkpt lat="42.85437" lon="0.26924">
        <ele>1447.8</ele>
        <time>2022-02-09T14:09:48Z</time>
      </trkpt>
      <trkpt lat="42.85437" lon="0.26924">
        <ele>1447.8</ele>
        <time>2022-02-09T14:09:49Z</time>
      </trkpt>
      <trkpt lat="42.85437" lon="0.26924">
        <ele>1447.8</ele>
        <time>2022-02-09T14:09:50Z</time>
      </trkpt>
      <trkpt lat="42.85437" lon="0.26924">
        <ele>1447.8</ele>
        <time>2022-02-09T14:09:51Z</time>
      </trkpt>
      <trkpt lat="42.85437" lon="0.26924">
        <ele>1447.8</ele>
        <time>2022-02-09T14:09:52Z</time>
      </trkpt>
      <trkpt lat="42.85438" lon="0.26924">
        <ele>1447.8</ele>
        <time>2022-02-09T14:09:53Z</time>
      </trkpt>
      <trkpt lat="42.85438" lon="0.26924">
        <ele>1447.8</ele>
        <time>2022-02-09T14:09:54Z</time>
      </trkpt>
      <trkpt lat="42.85438" lon="0.26923">
        <ele>1447.8</ele>
        <time>2022-02-09T14:09:55Z</time>
      </trkpt>
      <trkpt lat="42.85438" lon="0.26923">
        <ele>1447.8</ele>
        <time>2022-02-09T14:09:56Z</time>
      </trkpt>
      <trkpt lat="42.85438" lon="0.26923">
        <ele>1447.8</ele>
        <time>2022-02-09T14:09:57Z</time>
      </trkpt>
      <trkpt lat="42.85438" lon="0.26923">
        <ele>1447.8</ele>
        <time>2022-02-09T14:09:58Z</time>
      </trkpt>
      <trkpt lat="42.85439" lon="0.26923">
        <ele>1448.6</ele>
        <time>2022-02-09T14:09:59Z</time>
      </trkpt>
      <trkpt lat="42.85439" lon="0.26923">
        <ele>1448.6</ele>
        <time>2022-02-09T14:10:00Z</time>
      </trkpt>
      <trkpt lat="42.85439" lon="0.26923">
        <ele>1448.6</ele>
        <time>2022-02-09T14:10:01Z</time>
      </trkpt>
      <trkpt lat="42.85439" lon="0.26922">
        <ele>1448.6</ele>
        <time>2022-02-09T14:10:02Z</time>
      </trkpt>
      <trkpt lat="42.85439" lon="0.26922">
        <ele>1448.6</ele>
        <time>2022-02-09T14:10:03Z</time>
      </trkpt>
      <trkpt lat="42.85439" lon="0.26922">
        <ele>1448.6</ele>
        <time>2022-02-09T14:10:04Z</time>
      </trkpt>
      <trkpt lat="42.8544" lon="0.26922">
        <ele>1448.6</ele>
        <time>2022-02-09T14:10:05Z</time>
      </trkpt>
      <trkpt lat="42.8544" lon="0.26922">
        <ele>1448.6</ele>
        <time>2022-02-09T14:10:06Z</time>
      </trkpt>
      <trkpt lat="42.8544" lon="0.26922">
        <ele>1448.6</ele>
        <time>2022-02-09T14:10:07Z</time>
      </trkpt>
      <trkpt lat="42.8544" lon="0.26922">
        <ele>1448.6</ele>
        <time>2022-02-09T14:10:08Z</time>
      </trkpt>
      <trkpt lat="42.8544" lon="0.26922">
        <ele>1448.6</ele>
        <time>2022-02-09T14:10:09Z</time>
      </trkpt>
      <trkpt lat="42.8544" lon="0.26921">
        <ele>1448.6</ele>
        <time>2022-02-09T14:10:10Z</time>
      </trkpt>
      <trkpt lat="42.85441" lon="0.26921">
        <ele>1448.6</ele>
        <time>2022-02-09T14:10:11Z</time>
      </trkpt>
      <trkpt lat="42.85441" lon="0.26921">
        <ele>1448.6</ele>
        <time>2022-02-09T14:10:12Z</time>
      </trkpt>
      <trkpt lat="42.85441" lon="0.26921">
        <ele>1448.6</ele>
        <time>2022-02-09T14:10:13Z</time>
      </trkpt>
      <trkpt lat="42.85441" lon="0.26921">
        <ele>1448.6</ele>
        <time>2022-02-09T14:10:14Z</time>
      </trkpt>
      <trkpt lat="42.85441" lon="0.26921">
        <ele>1449.2</ele>
        <time>2022-02-09T14:10:15Z</time>
      </trkpt>
      <trkpt lat="42.85442" lon="0.26921">
        <ele>1449.2</ele>
        <time>2022-02-09T14:10:16Z</time>
      </trkpt>
      <trkpt lat="42.85442" lon="0.2692">
        <ele>1449.2</ele>
        <time>2022-02-09T14:10:17Z</time>
      </trkpt>
      <trkpt lat="42.85442" lon="0.2692">
        <ele>1450</ele>
        <time>2022-02-09T14:10:18Z</time>
      </trkpt>
      <trkpt lat="42.85442" lon="0.2692">
        <ele>1450</ele>
        <time>2022-02-09T14:10:19Z</time>
      </trkpt>
      <trkpt lat="42.85442" lon="0.2692">
        <ele>1450</ele>
        <time>2022-02-09T14:10:20Z</time>
      </trkpt>
      <trkpt lat="42.85442" lon="0.2692">
        <ele>1450</ele>
        <time>2022-02-09T14:10:21Z</time>
      </trkpt>
      <trkpt lat="42.85443" lon="0.2692">
        <ele>1450</ele>
        <time>2022-02-09T14:10:22Z</time>
      </trkpt>
      <trkpt lat="42.85443" lon="0.2692">
        <ele>1450</ele>
        <time>2022-02-09T14:10:23Z</time>
      </trkpt>
      <trkpt lat="42.85443" lon="0.26919">
        <ele>1450</ele>
        <time>2022-02-09T14:10:24Z</time>
      </trkpt>
      <trkpt lat="42.85443" lon="0.26919">
        <ele>1450</ele>
        <time>2022-02-09T14:10:25Z</time>
      </trkpt>
      <trkpt lat="42.85443" lon="0.26919">
        <ele>1450</ele>
        <time>2022-02-09T14:10:26Z</time>
      </trkpt>
      <trkpt lat="42.85443" lon="0.26919">
        <ele>1450</ele>
        <time>2022-02-09T14:10:27Z</time>
      </trkpt>
      <trkpt lat="42.85444" lon="0.26919">
        <ele>1450</ele>
        <time>2022-02-09T14:10:28Z</time>
      </trkpt>
      <trkpt lat="42.85444" lon="0.26919">
        <ele>1450</ele>
        <time>2022-02-09T14:10:29Z</time>
      </trkpt>
      <trkpt lat="42.85444" lon="0.26919">
        <ele>1450</ele>
        <time>2022-02-09T14:10:30Z</time>
      </trkpt>
      <trkpt lat="42.85444" lon="0.26918">
        <ele>1450</ele>
        <time>2022-02-09T14:10:31Z</time>
      </trkpt>
      <trkpt lat="42.85444" lon="0.26918">
        <ele>1450</ele>
        <time>2022-02-09T14:10:32Z</time>
      </trkpt>
      <trkpt lat="42.85444" lon="0.26918">
        <ele>1450</ele>
        <time>2022-02-09T14:10:33Z</time>
      </trkpt>
      <trkpt lat="42.85445" lon="0.26918">
        <ele>1450</ele>
        <time>2022-02-09T14:10:34Z</time>
      </trkpt>
      <trkpt lat="42.85445" lon="0.26918">
        <ele>1450</ele>
        <time>2022-02-09T14:10:35Z</time>
      </trkpt>
      <trkpt lat="42.85445" lon="0.26918">
        <ele>1450.9</ele>
        <time>2022-02-09T14:10:36Z</time>
      </trkpt>
      <trkpt lat="42.85445" lon="0.26918">
        <ele>1450.9</ele>
        <time>2022-02-09T14:10:37Z</time>
      </trkpt>
      <trkpt lat="42.85445" lon="0.26917">
        <ele>1450.9</ele>
        <time>2022-02-09T14:10:38Z</time>
      </trkpt>
      <trkpt lat="42.85445" lon="0.26917">
        <ele>1450.9</ele>
        <time>2022-02-09T14:10:39Z</time>
      </trkpt>
      <trkpt lat="42.85446" lon="0.26917">
        <ele>1450.9</ele>
        <time>2022-02-09T14:10:40Z</time>
      </trkpt>
      <trkpt lat="42.85446" lon="0.26917">
        <ele>1450.9</ele>
        <time>2022-02-09T14:10:41Z</time>
      </trkpt>
      <trkpt lat="42.85446" lon="0.26917">
        <ele>1450.9</ele>
        <time>2022-02-09T14:10:42Z</time>
      </trkpt>
      <trkpt lat="42.85446" lon="0.26917">
        <ele>1450.9</ele>
        <time>2022-02-09T14:10:43Z</time>
      </trkpt>
      <trkpt lat="42.85446" lon="0.26917">
        <ele>1450.9</ele>
        <time>2022-02-09T14:10:44Z</time>
      </trkpt>
      <trkpt lat="42.85446" lon="0.26916">
        <ele>1451.4</ele>
        <time>2022-02-09T14:10:45Z</time>
      </trkpt>
      <trkpt lat="42.85447" lon="0.26916">
        <ele>1451.4</ele>
        <time>2022-02-09T14:10:46Z</time>
      </trkpt>
      <trkpt lat="42.85447" lon="0.26916">
        <ele>1451.4</ele>
        <time>2022-02-09T14:10:47Z</time>
      </trkpt>
      <trkpt lat="42.85447" lon="0.26916">
        <ele>1451.4</ele>
        <time>2022-02-09T14:10:48Z</time>
      </trkpt>
      <trkpt lat="42.85447" lon="0.26916">
        <ele>1451.4</ele>
        <time>2022-02-09T14:10:49Z</time>
      </trkpt>
      <trkpt lat="42.85447" lon="0.26916">
        <ele>1451.4</ele>
        <time>2022-02-09T14:10:50Z</time>
      </trkpt>
      <trkpt lat="42.85448" lon="0.26916">
        <ele>1451.4</ele>
        <time>2022-02-09T14:10:51Z</time>
      </trkpt>
      <trkpt lat="42.85448" lon="0.26916">
        <ele>1451.4</ele>
        <time>2022-02-09T14:10:52Z</time>
      </trkpt>
      <trkpt lat="42.85448" lon="0.26915">
        <ele>1451.4</ele>
        <time>2022-02-09T14:10:53Z</time>
      </trkpt>
      <trkpt lat="42.85448" lon="0.26915">
        <ele>1451.4</ele>
        <time>2022-02-09T14:10:54Z</time>
      </trkpt>
      <trkpt lat="42.85448" lon="0.26915">
        <ele>1452.2</ele>
        <time>2022-02-09T14:10:55Z</time>
      </trkpt>
      <trkpt lat="42.85448" lon="0.26915">
        <ele>1452.2</ele>
        <time>2022-02-09T14:10:56Z</time>
      </trkpt>
      <trkpt lat="42.85449" lon="0.26915">
        <ele>1452.2</ele>
        <time>2022-02-09T14:10:57Z</time>
      </trkpt>
      <trkpt lat="42.85449" lon="0.26915">
        <ele>1452.2</ele>
        <time>2022-02-09T14:10:58Z</time>
      </trkpt>
      <trkpt lat="42.85449" lon="0.26915">
        <ele>1452.2</ele>
        <time>2022-02-09T14:10:59Z</time>
      </trkpt>
      <trkpt lat="42.85449" lon="0.26914">
        <ele>1452.2</ele>
        <time>2022-02-09T14:11:00Z</time>
      </trkpt>
      <trkpt lat="42.85449" lon="0.26914">
        <ele>1452.2</ele>
        <time>2022-02-09T14:11:01Z</time>
      </trkpt>
      <trkpt lat="42.85449" lon="0.26914">
        <ele>1452.2</ele>
        <time>2022-02-09T14:11:02Z</time>
      </trkpt>
      <trkpt lat="42.8545" lon="0.26914">
        <ele>1452.2</ele>
        <time>2022-02-09T14:11:03Z</time>
      </trkpt>
      <trkpt lat="42.8545" lon="0.26914">
        <ele>1452.2</ele>
        <time>2022-02-09T14:11:04Z</time>
      </trkpt>
      <trkpt lat="42.8545" lon="0.26914">
        <ele>1452.2</ele>
        <time>2022-02-09T14:11:05Z</time>
      </trkpt>
      <trkpt lat="42.8545" lon="0.26914">
        <ele>1452.2</ele>
        <time>2022-02-09T14:11:06Z</time>
      </trkpt>
      <trkpt lat="42.8545" lon="0.26913">
        <ele>1452.2</ele>
        <time>2022-02-09T14:11:07Z</time>
      </trkpt>
      <trkpt lat="42.8545" lon="0.26913">
        <ele>1452.2</ele>
        <time>2022-02-09T14:11:08Z</time>
      </trkpt>
      <trkpt lat="42.85451" lon="0.26913">
        <ele>1452.2</ele>
        <time>2022-02-09T14:11:09Z</time>
      </trkpt>
      <trkpt lat="42.85451" lon="0.26913">
        <ele>1452.2</ele>
        <time>2022-02-09T14:11:10Z</time>
      </trkpt>
      <trkpt lat="42.85451" lon="0.26913">
        <ele>1452.2</ele>
        <time>2022-02-09T14:11:11Z</time>
      </trkpt>
      <trkpt lat="42.85451" lon="0.26913">
        <ele>1452.2</ele>
        <time>2022-02-09T14:11:12Z</time>
      </trkpt>
      <trkpt lat="42.85451" lon="0.26913">
        <ele>1453.1</ele>
        <time>2022-02-09T14:11:13Z</time>
      </trkpt>
      <trkpt lat="42.85451" lon="0.26912">
        <ele>1453.1</ele>
        <time>2022-02-09T14:11:14Z</time>
      </trkpt>
      <trkpt lat="42.85452" lon="0.26912">
        <ele>1453.5</ele>
        <time>2022-02-09T14:11:15Z</time>
      </trkpt>
      <trkpt lat="42.85452" lon="0.26912">
        <ele>1453.5</ele>
        <time>2022-02-09T14:11:16Z</time>
      </trkpt>
      <trkpt lat="42.85452" lon="0.26912">
        <ele>1453.5</ele>
        <time>2022-02-09T14:11:17Z</time>
      </trkpt>
      <trkpt lat="42.85452" lon="0.26912">
        <ele>1453.5</ele>
        <time>2022-02-09T14:11:18Z</time>
      </trkpt>
      <trkpt lat="42.85452" lon="0.26912">
        <ele>1453.5</ele>
        <time>2022-02-09T14:11:19Z</time>
      </trkpt>
      <trkpt lat="42.85452" lon="0.26912">
        <ele>1453.5</ele>
        <time>2022-02-09T14:11:20Z</time>
      </trkpt>
      <trkpt lat="42.85453" lon="0.26911">
        <ele>1453.5</ele>
        <time>2022-02-09T14:11:21Z</time>
      </trkpt>
      <trkpt lat="42.85453" lon="0.26911">
        <ele>1453.5</ele>
        <time>2022-02-09T14:11:22Z</time>
      </trkpt>
      <trkpt lat="42.85453" lon="0.26911">
        <ele>1453.5</ele>
        <time>2022-02-09T14:11:23Z</time>
      </trkpt>
      <trkpt lat="42.85453" lon="0.26911">
        <ele>1453.5</ele>
        <time>2022-02-09T14:11:24Z</time>
      </trkpt>
      <trkpt lat="42.85453" lon="0.26911">
        <ele>1453.5</ele>
        <time>2022-02-09T14:11:25Z</time>
      </trkpt>
      <trkpt lat="42.85454" lon="0.26911">
        <ele>1453.5</ele>
        <time>2022-02-09T14:11:26Z</time>
      </trkpt>
      <trkpt lat="42.85454" lon="0.26911">
        <ele>1453.5</ele>
        <time>2022-02-09T14:11:27Z</time>
      </trkpt>
      <trkpt lat="42.85454" lon="0.2691">
        <ele>1453.5</ele>
        <time>2022-02-09T14:11:28Z</time>
      </trkpt>
      <trkpt lat="42.85454" lon="0.2691">
        <ele>1453.5</ele>
        <time>2022-02-09T14:11:29Z</time>
      </trkpt>
      <trkpt lat="42.85454" lon="0.2691">
        <ele>1453.5</ele>
        <time>2022-02-09T14:11:30Z</time>
      </trkpt>
      <trkpt lat="42.85454" lon="0.2691">
        <ele>1453.5</ele>
        <time>2022-02-09T14:11:31Z</time>
      </trkpt>
      <trkpt lat="42.85455" lon="0.2691">
        <ele>1454.2</ele>
        <time>2022-02-09T14:11:32Z</time>
      </trkpt>
      <trkpt lat="42.85455" lon="0.2691">
        <ele>1454.2</ele>
        <time>2022-02-09T14:11:33Z</time>
      </trkpt>
      <trkpt lat="42.85455" lon="0.2691">
        <ele>1454.2</ele>
        <time>2022-02-09T14:11:34Z</time>
      </trkpt>
      <trkpt lat="42.85455" lon="0.26909">
        <ele>1454.2</ele>
        <time>2022-02-09T14:11:35Z</time>
      </trkpt>
      <trkpt lat="42.85455" lon="0.26909">
        <ele>1454.2</ele>
        <time>2022-02-09T14:11:36Z</time>
      </trkpt>
      <trkpt lat="42.85455" lon="0.26909">
        <ele>1454.2</ele>
        <time>2022-02-09T14:11:37Z</time>
      </trkpt>
      <trkpt lat="42.85456" lon="0.26909">
        <ele>1454.2</ele>
        <time>2022-02-09T14:11:38Z</time>
      </trkpt>
      <trkpt lat="42.85456" lon="0.26909">
        <ele>1454.2</ele>
        <time>2022-02-09T14:11:39Z</time>
      </trkpt>
      <trkpt lat="42.85456" lon="0.26909">
        <ele>1454.2</ele>
        <time>2022-02-09T14:11:40Z</time>
      </trkpt>
      <trkpt lat="42.85456" lon="0.26909">
        <ele>1454.2</ele>
        <time>2022-02-09T14:11:41Z</time>
      </trkpt>
      <trkpt lat="42.85456" lon="0.26909">
        <ele>1454.2</ele>
        <time>2022-02-09T14:11:42Z</time>
      </trkpt>
      <trkpt lat="42.85456" lon="0.26908">
        <ele>1454.2</ele>
        <time>2022-02-09T14:11:43Z</time>
      </trkpt>
      <trkpt lat="42.85457" lon="0.26908">
        <ele>1454.2</ele>
        <time>2022-02-09T14:11:44Z</time>
      </trkpt>
      <trkpt lat="42.85457" lon="0.26908">
        <ele>1454.2</ele>
        <time>2022-02-09T14:11:45Z</time>
      </trkpt>
      <trkpt lat="42.85457" lon="0.26908">
        <ele>1454.6</ele>
        <time>2022-02-09T14:11:46Z</time>
      </trkpt>
      <trkpt lat="42.85457" lon="0.26908">
        <ele>1454.6</ele>
        <time>2022-02-09T14:11:47Z</time>
      </trkpt>
      <trkpt lat="42.85457" lon="0.26908">
        <ele>1454.6</ele>
        <time>2022-02-09T14:11:48Z</time>
      </trkpt>
      <trkpt lat="42.85457" lon="0.26908">
        <ele>1454.6</ele>
        <time>2022-02-09T14:11:49Z</time>
      </trkpt>
      <trkpt lat="42.85458" lon="0.26907">
        <ele>1455.4</ele>
        <time>2022-02-09T14:11:50Z</time>
      </trkpt>
      <trkpt lat="42.85458" lon="0.26907">
        <ele>1455.4</ele>
        <time>2022-02-09T14:11:51Z</time>
      </trkpt>
      <trkpt lat="42.85458" lon="0.26907">
        <ele>1455.4</ele>
        <time>2022-02-09T14:11:52Z</time>
      </trkpt>
      <trkpt lat="42.85458" lon="0.26907">
        <ele>1455.4</ele>
        <time>2022-02-09T14:11:53Z</time>
      </trkpt>
      <trkpt lat="42.85458" lon="0.26907">
        <ele>1455.4</ele>
        <time>2022-02-09T14:11:54Z</time>
      </trkpt>
      <trkpt lat="42.85458" lon="0.26907">
        <ele>1455.4</ele>
        <time>2022-02-09T14:11:55Z</time>
      </trkpt>
      <trkpt lat="42.85459" lon="0.26907">
        <ele>1455.4</ele>
        <time>2022-02-09T14:11:56Z</time>
      </trkpt>
      <trkpt lat="42.85459" lon="0.26906">
        <ele>1455.4</ele>
        <time>2022-02-09T14:11:57Z</time>
      </trkpt>
      <trkpt lat="42.85459" lon="0.26906">
        <ele>1455.4</ele>
        <time>2022-02-09T14:11:58Z</time>
      </trkpt>
      <trkpt lat="42.85459" lon="0.26906">
        <ele>1455.4</ele>
        <time>2022-02-09T14:11:59Z</time>
      </trkpt>
      <trkpt lat="42.85459" lon="0.26906">
        <ele>1455.4</ele>
        <time>2022-02-09T14:12:00Z</time>
      </trkpt>
      <trkpt lat="42.8546" lon="0.26906">
        <ele>1455.4</ele>
        <time>2022-02-09T14:12:01Z</time>
      </trkpt>
      <trkpt lat="42.8546" lon="0.26906">
        <ele>1455.4</ele>
        <time>2022-02-09T14:12:02Z</time>
      </trkpt>
      <trkpt lat="42.8546" lon="0.26906">
        <ele>1455.4</ele>
        <time>2022-02-09T14:12:03Z</time>
      </trkpt>
      <trkpt lat="42.8546" lon="0.26905">
        <ele>1455.4</ele>
        <time>2022-02-09T14:12:04Z</time>
      </trkpt>
      <trkpt lat="42.8546" lon="0.26905">
        <ele>1455.4</ele>
        <time>2022-02-09T14:12:05Z</time>
      </trkpt>
      <trkpt lat="42.8546" lon="0.26905">
        <ele>1455.4</ele>
        <time>2022-02-09T14:12:06Z</time>
      </trkpt>
      <trkpt lat="42.85461" lon="0.26905">
        <ele>1455.4</ele>
        <time>2022-02-09T14:12:07Z</time>
      </trkpt>
      <trkpt lat="42.85461" lon="0.26905">
        <ele>1456.2</ele>
        <time>2022-02-09T14:12:08Z</time>
      </trkpt>
      <trkpt lat="42.85461" lon="0.26905">
        <ele>1456.2</ele>
        <time>2022-02-09T14:12:09Z</time>
      </trkpt>
      <trkpt lat="42.85461" lon="0.26905">
        <ele>1456.2</ele>
        <time>2022-02-09T14:12:10Z</time>
      </trkpt>
      <trkpt lat="42.85461" lon="0.26904">
        <ele>1456.2</ele>
        <time>2022-02-09T14:12:11Z</time>
      </trkpt>
      <trkpt lat="42.85461" lon="0.26904">
        <ele>1456.2</ele>
        <time>2022-02-09T14:12:12Z</time>
      </trkpt>
      <trkpt lat="42.85462" lon="0.26904">
        <ele>1456.2</ele>
        <time>2022-02-09T14:12:13Z</time>
      </trkpt>
      <trkpt lat="42.85462" lon="0.26904">
        <ele>1456.2</ele>
        <time>2022-02-09T14:12:14Z</time>
      </trkpt>
      <trkpt lat="42.85462" lon="0.26904">
        <ele>1456.2</ele>
        <time>2022-02-09T14:12:15Z</time>
      </trkpt>
      <trkpt lat="42.85462" lon="0.26904">
        <ele>1456.2</ele>
        <time>2022-02-09T14:12:16Z</time>
      </trkpt>
      <trkpt lat="42.85462" lon="0.26904">
        <ele>1456.5</ele>
        <time>2022-02-09T14:12:17Z</time>
      </trkpt>
      <trkpt lat="42.85462" lon="0.26903">
        <ele>1456.5</ele>
        <time>2022-02-09T14:12:18Z</time>
      </trkpt>
      <trkpt lat="42.85463" lon="0.26903">
        <ele>1456.5</ele>
        <time>2022-02-09T14:12:19Z</time>
      </trkpt>
      <trkpt lat="42.85463" lon="0.26903">
        <ele>1456.5</ele>
        <time>2022-02-09T14:12:20Z</time>
      </trkpt>
      <trkpt lat="42.85463" lon="0.26903">
        <ele>1456.5</ele>
        <time>2022-02-09T14:12:21Z</time>
      </trkpt>
      <trkpt lat="42.85463" lon="0.26903">
        <ele>1456.5</ele>
        <time>2022-02-09T14:12:22Z</time>
      </trkpt>
      <trkpt lat="42.85463" lon="0.26903">
        <ele>1456.5</ele>
        <time>2022-02-09T14:12:23Z</time>
      </trkpt>
      <trkpt lat="42.85463" lon="0.26903">
        <ele>1456.5</ele>
        <time>2022-02-09T14:12:24Z</time>
      </trkpt>
      <trkpt lat="42.85464" lon="0.26902">
        <ele>1456.5</ele>
        <time>2022-02-09T14:12:25Z</time>
      </trkpt>
      <trkpt lat="42.85464" lon="0.26902">
        <ele>1456.5</ele>
        <time>2022-02-09T14:12:26Z</time>
      </trkpt>
      <trkpt lat="42.85464" lon="0.26902">
        <ele>1457.4</ele>
        <time>2022-02-09T14:12:27Z</time>
      </trkpt>
      <trkpt lat="42.85464" lon="0.26902">
        <ele>1457.4</ele>
        <time>2022-02-09T14:12:28Z</time>
      </trkpt>
      <trkpt lat="42.85464" lon="0.26902">
        <ele>1457.4</ele>
        <time>2022-02-09T14:12:29Z</time>
      </trkpt>
      <trkpt lat="42.85464" lon="0.26902">
        <ele>1457.4</ele>
        <time>2022-02-09T14:12:30Z</time>
      </trkpt>
      <trkpt lat="42.85465" lon="0.26902">
        <ele>1457.4</ele>
        <time>2022-02-09T14:12:31Z</time>
      </trkpt>
      <trkpt lat="42.85465" lon="0.26902">
        <ele>1457.4</ele>
        <time>2022-02-09T14:12:32Z</time>
      </trkpt>
      <trkpt lat="42.85465" lon="0.26901">
        <ele>1457.4</ele>
        <time>2022-02-09T14:12:33Z</time>
      </trkpt>
      <trkpt lat="42.85465" lon="0.26901">
        <ele>1457.4</ele>
        <time>2022-02-09T14:12:34Z</time>
      </trkpt>
      <trkpt lat="42.85465" lon="0.26901">
        <ele>1457.4</ele>
        <time>2022-02-09T14:12:35Z</time>
      </trkpt>
      <trkpt lat="42.85466" lon="0.26901">
        <ele>1457.4</ele>
        <time>2022-02-09T14:12:36Z</time>
      </trkpt>
      <trkpt lat="42.85466" lon="0.26901">
        <ele>1457.4</ele>
        <time>2022-02-09T14:12:37Z</time>
      </trkpt>
      <trkpt lat="42.85466" lon="0.26901">
        <ele>1457.4</ele>
        <time>2022-02-09T14:12:38Z</time>
      </trkpt>
      <trkpt lat="42.85466" lon="0.26901">
        <ele>1457.4</ele>
        <time>2022-02-09T14:12:39Z</time>
      </trkpt>
      <trkpt lat="42.85466" lon="0.269">
        <ele>1457.4</ele>
        <time>2022-02-09T14:12:40Z</time>
      </trkpt>
      <trkpt lat="42.85466" lon="0.269">
        <ele>1457.4</ele>
        <time>2022-02-09T14:12:41Z</time>
      </trkpt>
      <trkpt lat="42.85467" lon="0.269">
        <ele>1457.4</ele>
        <time>2022-02-09T14:12:42Z</time>
      </trkpt>
      <trkpt lat="42.85467" lon="0.269">
        <ele>1457.4</ele>
        <time>2022-02-09T14:12:43Z</time>
      </trkpt>
      <trkpt lat="42.85467" lon="0.269">
        <ele>1457.4</ele>
        <time>2022-02-09T14:12:44Z</time>
      </trkpt>
      <trkpt lat="42.85467" lon="0.269">
        <ele>1458.4</ele>
        <time>2022-02-09T14:12:45Z</time>
      </trkpt>
      <trkpt lat="42.85467" lon="0.269">
        <ele>1458.4</ele>
        <time>2022-02-09T14:12:46Z</time>
      </trkpt>
      <trkpt lat="42.85467" lon="0.26899">
        <ele>1458.4</ele>
        <time>2022-02-09T14:12:47Z</time>
      </trkpt>
      <trkpt lat="42.85468" lon="0.26899">
        <ele>1458.7</ele>
        <time>2022-02-09T14:12:48Z</time>
      </trkpt>
      <trkpt lat="42.85468" lon="0.26899">
        <ele>1458.7</ele>
        <time>2022-02-09T14:12:49Z</time>
      </trkpt>
      <trkpt lat="42.85468" lon="0.26899">
        <ele>1458.7</ele>
        <time>2022-02-09T14:12:50Z</time>
      </trkpt>
      <trkpt lat="42.85468" lon="0.26899">
        <ele>1458.7</ele>
        <time>2022-02-09T14:12:51Z</time>
      </trkpt>
      <trkpt lat="42.85468" lon="0.26899">
        <ele>1458.7</ele>
        <time>2022-02-09T14:12:52Z</time>
      </trkpt>
      <trkpt lat="42.85468" lon="0.26899">
        <ele>1458.7</ele>
        <time>2022-02-09T14:12:53Z</time>
      </trkpt>
      <trkpt lat="42.85469" lon="0.26898">
        <ele>1458.7</ele>
        <time>2022-02-09T14:12:54Z</time>
      </trkpt>
      <trkpt lat="42.85469" lon="0.26898">
        <ele>1458.7</ele>
        <time>2022-02-09T14:12:55Z</time>
      </trkpt>
      <trkpt lat="42.85469" lon="0.26898">
        <ele>1458.7</ele>
        <time>2022-02-09T14:12:56Z</time>
      </trkpt>
      <trkpt lat="42.85469" lon="0.26898">
        <ele>1458.7</ele>
        <time>2022-02-09T14:12:57Z</time>
      </trkpt>
      <trkpt lat="42.85469" lon="0.26898">
        <ele>1458.7</ele>
        <time>2022-02-09T14:12:58Z</time>
      </trkpt>
      <trkpt lat="42.85469" lon="0.26898">
        <ele>1458.7</ele>
        <time>2022-02-09T14:12:59Z</time>
      </trkpt>
      <trkpt lat="42.8547" lon="0.26898">
        <ele>1458.7</ele>
        <time>2022-02-09T14:13:00Z</time>
      </trkpt>
      <trkpt lat="42.8547" lon="0.26897">
        <ele>1458.7</ele>
        <time>2022-02-09T14:13:01Z</time>
      </trkpt>
      <trkpt lat="42.8547" lon="0.26897">
        <ele>1458.7</ele>
        <time>2022-02-09T14:13:02Z</time>
      </trkpt>
      <trkpt lat="42.8547" lon="0.26897">
        <ele>1459.7</ele>
        <time>2022-02-09T14:13:03Z</time>
      </trkpt>
      <trkpt lat="42.8547" lon="0.26897">
        <ele>1459.7</ele>
        <time>2022-02-09T14:13:04Z</time>
      </trkpt>
      <trkpt lat="42.8547" lon="0.26897">
        <ele>1459.7</ele>
        <time>2022-02-09T14:13:05Z</time>
      </trkpt>
      <trkpt lat="42.85471" lon="0.26897">
        <ele>1459.7</ele>
        <time>2022-02-09T14:13:06Z</time>
      </trkpt>
      <trkpt lat="42.85471" lon="0.26897">
        <ele>1459.7</ele>
        <time>2022-02-09T14:13:07Z</time>
      </trkpt>
      <trkpt lat="42.85471" lon="0.26896">
        <ele>1459.7</ele>
        <time>2022-02-09T14:13:08Z</time>
      </trkpt>
      <trkpt lat="42.85471" lon="0.26896">
        <ele>1459.7</ele>
        <time>2022-02-09T14:13:09Z</time>
      </trkpt>
      <trkpt lat="42.85471" lon="0.26896">
        <ele>1459.7</ele>
        <time>2022-02-09T14:13:10Z</time>
      </trkpt>
      <trkpt lat="42.85471" lon="0.26896">
        <ele>1459.7</ele>
        <time>2022-02-09T14:13:11Z</time>
      </trkpt>
      <trkpt lat="42.85472" lon="0.26896">
        <ele>1459.7</ele>
        <time>2022-02-09T14:13:12Z</time>
      </trkpt>
      <trkpt lat="42.85472" lon="0.26896">
        <ele>1459.7</ele>
        <time>2022-02-09T14:13:13Z</time>
      </trkpt>
      <trkpt lat="42.85472" lon="0.26896">
        <ele>1459.7</ele>
        <time>2022-02-09T14:13:14Z</time>
      </trkpt>
      <trkpt lat="42.85472" lon="0.26895">
        <ele>1459.7</ele>
        <time>2022-02-09T14:13:15Z</time>
      </trkpt>
      <trkpt lat="42.85472" lon="0.26895">
        <ele>1459.7</ele>
        <time>2022-02-09T14:13:16Z</time>
      </trkpt>
      <trkpt lat="42.85473" lon="0.26895">
        <ele>1459.7</ele>
        <time>2022-02-09T14:13:17Z</time>
      </trkpt>
      <trkpt lat="42.85473" lon="0.26895">
        <ele>1460</ele>
        <time>2022-02-09T14:13:18Z</time>
      </trkpt>
      <trkpt lat="42.85473" lon="0.26895">
        <ele>1460</ele>
        <time>2022-02-09T14:13:19Z</time>
      </trkpt>
      <trkpt lat="42.85473" lon="0.26895">
        <ele>1460</ele>
        <time>2022-02-09T14:13:20Z</time>
      </trkpt>
      <trkpt lat="42.85473" lon="0.26895">
        <ele>1461</ele>
        <time>2022-02-09T14:13:21Z</time>
      </trkpt>
      <trkpt lat="42.85473" lon="0.26895">
        <ele>1461</ele>
        <time>2022-02-09T14:13:22Z</time>
      </trkpt>
      <trkpt lat="42.85474" lon="0.26894">
        <ele>1461</ele>
        <time>2022-02-09T14:13:23Z</time>
      </trkpt>
      <trkpt lat="42.85474" lon="0.26894">
        <ele>1461</ele>
        <time>2022-02-09T14:13:24Z</time>
      </trkpt>
      <trkpt lat="42.85474" lon="0.26894">
        <ele>1461</ele>
        <time>2022-02-09T14:13:25Z</time>
      </trkpt>
      <trkpt lat="42.85474" lon="0.26894">
        <ele>1461</ele>
        <time>2022-02-09T14:13:26Z</time>
      </trkpt>
      <trkpt lat="42.85474" lon="0.26894">
        <ele>1461</ele>
        <time>2022-02-09T14:13:27Z</time>
      </trkpt>
      <trkpt lat="42.85474" lon="0.26894">
        <ele>1461</ele>
        <time>2022-02-09T14:13:28Z</time>
      </trkpt>
      <trkpt lat="42.85475" lon="0.26894">
        <ele>1461</ele>
        <time>2022-02-09T14:13:29Z</time>
      </trkpt>
      <trkpt lat="42.85475" lon="0.26893">
        <ele>1461</ele>
        <time>2022-02-09T14:13:30Z</time>
      </trkpt>
      <trkpt lat="42.85475" lon="0.26893">
        <ele>1461</ele>
        <time>2022-02-09T14:13:31Z</time>
      </trkpt>
      <trkpt lat="42.85475" lon="0.26893">
        <ele>1461</ele>
        <time>2022-02-09T14:13:32Z</time>
      </trkpt>
      <trkpt lat="42.85475" lon="0.26893">
        <ele>1461</ele>
        <time>2022-02-09T14:13:33Z</time>
      </trkpt>
      <trkpt lat="42.85475" lon="0.26893">
        <ele>1461</ele>
        <time>2022-02-09T14:13:34Z</time>
      </trkpt>
      <trkpt lat="42.8548" lon="0.26888">
        <ele>1463.1</ele>
        <time>2022-02-09T14:13:35Z</time>
      </trkpt>
      <trkpt lat="42.8548" lon="0.26887">
        <ele>1463.1</ele>
        <time>2022-02-09T14:13:36Z</time>
      </trkpt>
      <trkpt lat="42.85481" lon="0.26886">
        <ele>1463.4</ele>
        <time>2022-02-09T14:13:37Z</time>
      </trkpt>
      <trkpt lat="42.85481" lon="0.26885">
        <ele>1463.4</ele>
        <time>2022-02-09T14:13:38Z</time>
      </trkpt>
      <trkpt lat="42.85481" lon="0.26885">
        <ele>1463.4</ele>
        <time>2022-02-09T14:13:39Z</time>
      </trkpt>
      <trkpt lat="42.85481" lon="0.26885">
        <ele>1463.4</ele>
        <time>2022-02-09T14:13:40Z</time>
      </trkpt>
      <trkpt lat="42.85481" lon="0.26885">
        <ele>1463.4</ele>
        <time>2022-02-09T14:13:41Z</time>
      </trkpt>
      <trkpt lat="42.85481" lon="0.26885">
        <ele>1463.4</ele>
        <time>2022-02-09T14:13:42Z</time>
      </trkpt>
      <trkpt lat="42.85481" lon="0.26885">
        <ele>1463.4</ele>
        <time>2022-02-09T14:13:43Z</time>
      </trkpt>
      <trkpt lat="42.85481" lon="0.26885">
        <ele>1463.4</ele>
        <time>2022-02-09T14:13:44Z</time>
      </trkpt>
      <trkpt lat="42.85481" lon="0.26885">
        <ele>1463.4</ele>
        <time>2022-02-09T14:13:45Z</time>
      </trkpt>
      <trkpt lat="42.85481" lon="0.26885">
        <ele>1463.4</ele>
        <time>2022-02-09T14:13:46Z</time>
      </trkpt>
      <trkpt lat="42.85481" lon="0.26885">
        <ele>1463.4</ele>
        <time>2022-02-09T14:13:47Z</time>
      </trkpt>
      <trkpt lat="42.85481" lon="0.26885">
        <ele>1463.4</ele>
        <time>2022-02-09T14:13:48Z</time>
      </trkpt>
      <trkpt lat="42.85481" lon="0.26885">
        <ele>1463.4</ele>
        <time>2022-02-09T14:13:49Z</time>
      </trkpt>
      <trkpt lat="42.85481" lon="0.26885">
        <ele>1463.4</ele>
        <time>2022-02-09T14:13:50Z</time>
      </trkpt>
      <trkpt lat="42.85481" lon="0.26885">
        <ele>1463.4</ele>
        <time>2022-02-09T14:13:51Z</time>
      </trkpt>
      <trkpt lat="42.85481" lon="0.26885">
        <ele>1463.4</ele>
        <time>2022-02-09T14:13:52Z</time>
      </trkpt>
      <trkpt lat="42.85481" lon="0.26885">
        <ele>1463.4</ele>
        <time>2022-02-09T14:13:53Z</time>
      </trkpt>
      <trkpt lat="42.85481" lon="0.26885">
        <ele>1463.4</ele>
        <time>2022-02-09T14:13:54Z</time>
      </trkpt>
      <trkpt lat="42.85481" lon="0.26885">
        <ele>1463.4</ele>
        <time>2022-02-09T14:13:55Z</time>
      </trkpt>
      <trkpt lat="42.85481" lon="0.26885">
        <ele>1463.4</ele>
        <time>2022-02-09T14:13:56Z</time>
      </trkpt>
      <trkpt lat="42.85481" lon="0.26885">
        <ele>1463.4</ele>
        <time>2022-02-09T14:13:57Z</time>
      </trkpt>
      <trkpt lat="42.85481" lon="0.26885">
        <ele>1463.4</ele>
        <time>2022-02-09T14:13:58Z</time>
      </trkpt>
      <trkpt lat="42.85481" lon="0.26885">
        <ele>1463.4</ele>
        <time>2022-02-09T14:13:59Z</time>
      </trkpt>
      <trkpt lat="42.85481" lon="0.26885">
        <ele>1463.4</ele>
        <time>2022-02-09T14:14:00Z</time>
      </trkpt>
      <trkpt lat="42.85481" lon="0.26885">
        <ele>1463.4</ele>
        <time>2022-02-09T14:14:01Z</time>
      </trkpt>
      <trkpt lat="42.85481" lon="0.26885">
        <ele>1463.4</ele>
        <time>2022-02-09T14:14:02Z</time>
      </trkpt>
      <trkpt lat="42.85481" lon="0.26885">
        <ele>1463.4</ele>
        <time>2022-02-09T14:14:03Z</time>
      </trkpt>
      <trkpt lat="42.85481" lon="0.26885">
        <ele>1463.4</ele>
        <time>2022-02-09T14:14:04Z</time>
      </trkpt>
      <trkpt lat="42.85481" lon="0.26885">
        <ele>1463.4</ele>
        <time>2022-02-09T14:14:05Z</time>
      </trkpt>
      <trkpt lat="42.85481" lon="0.26885">
        <ele>1463.4</ele>
        <time>2022-02-09T14:14:06Z</time>
      </trkpt>
      <trkpt lat="42.85481" lon="0.26885">
        <ele>1463.4</ele>
        <time>2022-02-09T14:14:07Z</time>
      </trkpt>
      <trkpt lat="42.85481" lon="0.26885">
        <ele>1463.4</ele>
        <time>2022-02-09T14:14:08Z</time>
      </trkpt>
      <trkpt lat="42.85481" lon="0.26885">
        <ele>1463.4</ele>
        <time>2022-02-09T14:14:09Z</time>
      </trkpt>
      <trkpt lat="42.85481" lon="0.26885">
        <ele>1463.4</ele>
        <time>2022-02-09T14:14:10Z</time>
      </trkpt>
      <trkpt lat="42.85481" lon="0.26885">
        <ele>1463.4</ele>
        <time>2022-02-09T14:14:11Z</time>
      </trkpt>
      <trkpt lat="42.85481" lon="0.26885">
        <ele>1463.4</ele>
        <time>2022-02-09T14:14:12Z</time>
      </trkpt>
      <trkpt lat="42.85481" lon="0.26885">
        <ele>1463.4</ele>
        <time>2022-02-09T14:14:13Z</time>
      </trkpt>
      <trkpt lat="42.85481" lon="0.26885">
        <ele>1463.4</ele>
        <time>2022-02-09T14:14:14Z</time>
      </trkpt>
      <trkpt lat="42.85481" lon="0.26885">
        <ele>1463.4</ele>
        <time>2022-02-09T14:14:15Z</time>
      </trkpt>
      <trkpt lat="42.85481" lon="0.26885">
        <ele>1463.4</ele>
        <time>2022-02-09T14:14:16Z</time>
      </trkpt>
      <trkpt lat="42.85481" lon="0.26885">
        <ele>1463.4</ele>
        <time>2022-02-09T14:14:17Z</time>
      </trkpt>
      <trkpt lat="42.85481" lon="0.26885">
        <ele>1463.4</ele>
        <time>2022-02-09T14:14:18Z</time>
      </trkpt>
      <trkpt lat="42.85481" lon="0.26885">
        <ele>1463.4</ele>
        <time>2022-02-09T14:14:19Z</time>
      </trkpt>
      <trkpt lat="42.85481" lon="0.26885">
        <ele>1463.4</ele>
        <time>2022-02-09T14:14:20Z</time>
      </trkpt>
      <trkpt lat="42.85481" lon="0.26885">
        <ele>1463.4</ele>
        <time>2022-02-09T14:14:21Z</time>
      </trkpt>
      <trkpt lat="42.85481" lon="0.26885">
        <ele>1463.4</ele>
        <time>2022-02-09T14:14:22Z</time>
      </trkpt>
      <trkpt lat="42.85481" lon="0.26885">
        <ele>1463.4</ele>
        <time>2022-02-09T14:14:23Z</time>
      </trkpt>
      <trkpt lat="42.85481" lon="0.26885">
        <ele>1463.4</ele>
        <time>2022-02-09T14:14:24Z</time>
      </trkpt>
      <trkpt lat="42.85481" lon="0.26885">
        <ele>1463.4</ele>
        <time>2022-02-09T14:14:25Z</time>
      </trkpt>
      <trkpt lat="42.85481" lon="0.26885">
        <ele>1463.4</ele>
        <time>2022-02-09T14:14:26Z</time>
      </trkpt>
      <trkpt lat="42.85481" lon="0.26885">
        <ele>1463.4</ele>
        <time>2022-02-09T14:14:27Z</time>
      </trkpt>
      <trkpt lat="42.85481" lon="0.26885">
        <ele>1463.4</ele>
        <time>2022-02-09T14:14:28Z</time>
      </trkpt>
      <trkpt lat="42.85481" lon="0.26885">
        <ele>1463.4</ele>
        <time>2022-02-09T14:14:29Z</time>
      </trkpt>
      <trkpt lat="42.85481" lon="0.26885">
        <ele>1463.4</ele>
        <time>2022-02-09T14:14:30Z</time>
      </trkpt>
      <trkpt lat="42.85481" lon="0.26885">
        <ele>1463.4</ele>
        <time>2022-02-09T14:14:31Z</time>
      </trkpt>
      <trkpt lat="42.85481" lon="0.26885">
        <ele>1463.4</ele>
        <time>2022-02-09T14:14:32Z</time>
      </trkpt>
      <trkpt lat="42.85481" lon="0.26885">
        <ele>1463.4</ele>
        <time>2022-02-09T14:14:33Z</time>
      </trkpt>
      <trkpt lat="42.85481" lon="0.26885">
        <ele>1463.4</ele>
        <time>2022-02-09T14:14:34Z</time>
      </trkpt>
      <trkpt lat="42.85481" lon="0.26885">
        <ele>1463.4</ele>
        <time>2022-02-09T14:14:35Z</time>
      </trkpt>
      <trkpt lat="42.85481" lon="0.26885">
        <ele>1463.4</ele>
        <time>2022-02-09T14:14:36Z</time>
      </trkpt>
      <trkpt lat="42.85481" lon="0.26885">
        <ele>1463.4</ele>
        <time>2022-02-09T14:14:37Z</time>
      </trkpt>
      <trkpt lat="42.85481" lon="0.26885">
        <ele>1463.4</ele>
        <time>2022-02-09T14:14:38Z</time>
      </trkpt>
      <trkpt lat="42.85481" lon="0.26885">
        <ele>1463.4</ele>
        <time>2022-02-09T14:14:39Z</time>
      </trkpt>
      <trkpt lat="42.85481" lon="0.26885">
        <ele>1463.4</ele>
        <time>2022-02-09T14:14:40Z</time>
      </trkpt>
      <trkpt lat="42.85481" lon="0.26885">
        <ele>1463.4</ele>
        <time>2022-02-09T14:14:41Z</time>
      </trkpt>
      <trkpt lat="42.85481" lon="0.26885">
        <ele>1463.4</ele>
        <time>2022-02-09T14:14:42Z</time>
      </trkpt>
      <trkpt lat="42.85481" lon="0.26885">
        <ele>1463.4</ele>
        <time>2022-02-09T14:14:43Z</time>
      </trkpt>
      <trkpt lat="42.85481" lon="0.26885">
        <ele>1463.4</ele>
        <time>2022-02-09T14:14:44Z</time>
      </trkpt>
      <trkpt lat="42.85481" lon="0.26885">
        <ele>1463.4</ele>
        <time>2022-02-09T14:14:45Z</time>
      </trkpt>
      <trkpt lat="42.85481" lon="0.26885">
        <ele>1463.4</ele>
        <time>2022-02-09T14:14:46Z</time>
      </trkpt>
      <trkpt lat="42.85481" lon="0.26885">
        <ele>1463.4</ele>
        <time>2022-02-09T14:14:47Z</time>
      </trkpt>
      <trkpt lat="42.85481" lon="0.26885">
        <ele>1463.4</ele>
        <time>2022-02-09T14:14:48Z</time>
      </trkpt>
      <trkpt lat="42.85481" lon="0.26885">
        <ele>1463.4</ele>
        <time>2022-02-09T14:14:49Z</time>
      </trkpt>
      <trkpt lat="42.85481" lon="0.26885">
        <ele>1463.4</ele>
        <time>2022-02-09T14:14:50Z</time>
      </trkpt>
      <trkpt lat="42.85481" lon="0.26885">
        <ele>1463.4</ele>
        <time>2022-02-09T14:14:51Z</time>
      </trkpt>
      <trkpt lat="42.85481" lon="0.26885">
        <ele>1463.4</ele>
        <time>2022-02-09T14:14:52Z</time>
      </trkpt>
      <trkpt lat="42.85481" lon="0.26885">
        <ele>1463.4</ele>
        <time>2022-02-09T14:14:53Z</time>
      </trkpt>
      <trkpt lat="42.85481" lon="0.26885">
        <ele>1463.4</ele>
        <time>2022-02-09T14:14:54Z</time>
      </trkpt>
      <trkpt lat="42.85481" lon="0.26885">
        <ele>1463.4</ele>
        <time>2022-02-09T14:14:55Z</time>
      </trkpt>
      <trkpt lat="42.85481" lon="0.26885">
        <ele>1463.4</ele>
        <time>2022-02-09T14:14:56Z</time>
      </trkpt>
      <trkpt lat="42.85481" lon="0.26885">
        <ele>1463.4</ele>
        <time>2022-02-09T14:14:57Z</time>
      </trkpt>
      <trkpt lat="42.85481" lon="0.26885">
        <ele>1463.4</ele>
        <time>2022-02-09T14:14:58Z</time>
      </trkpt>
      <trkpt lat="42.85481" lon="0.26885">
        <ele>1463.4</ele>
        <time>2022-02-09T14:14:59Z</time>
      </trkpt>
      <trkpt lat="42.85481" lon="0.26885">
        <ele>1463.4</ele>
        <time>2022-02-09T14:15:00Z</time>
      </trkpt>
      <trkpt lat="42.85481" lon="0.26885">
        <ele>1463.4</ele>
        <time>2022-02-09T14:15:01Z</time>
      </trkpt>
      <trkpt lat="42.85481" lon="0.26885">
        <ele>1463.4</ele>
        <time>2022-02-09T14:15:02Z</time>
      </trkpt>
      <trkpt lat="42.85481" lon="0.26885">
        <ele>1463.4</ele>
        <time>2022-02-09T14:15:03Z</time>
      </trkpt>
      <trkpt lat="42.85481" lon="0.26885">
        <ele>1463.4</ele>
        <time>2022-02-09T14:15:04Z</time>
      </trkpt>
      <trkpt lat="42.85481" lon="0.26885">
        <ele>1463.4</ele>
        <time>2022-02-09T14:15:05Z</time>
      </trkpt>
      <trkpt lat="42.85481" lon="0.26885">
        <ele>1463.4</ele>
        <time>2022-02-09T14:15:06Z</time>
      </trkpt>
      <trkpt lat="42.85481" lon="0.26885">
        <ele>1463.4</ele>
        <time>2022-02-09T14:15:07Z</time>
      </trkpt>
      <trkpt lat="42.85481" lon="0.26885">
        <ele>1463.4</ele>
        <time>2022-02-09T14:15:08Z</time>
      </trkpt>
      <trkpt lat="42.85481" lon="0.26885">
        <ele>1463.4</ele>
        <time>2022-02-09T14:15:09Z</time>
      </trkpt>
      <trkpt lat="42.85481" lon="0.26885">
        <ele>1463.4</ele>
        <time>2022-02-09T14:15:10Z</time>
      </trkpt>
      <trkpt lat="42.85481" lon="0.26885">
        <ele>1463.4</ele>
        <time>2022-02-09T14:15:11Z</time>
      </trkpt>
      <trkpt lat="42.85481" lon="0.26885">
        <ele>1463.4</ele>
        <time>2022-02-09T14:15:12Z</time>
      </trkpt>
      <trkpt lat="42.85481" lon="0.26885">
        <ele>1463.4</ele>
        <time>2022-02-09T14:15:13Z</time>
      </trkpt>
      <trkpt lat="42.85481" lon="0.26885">
        <ele>1463.4</ele>
        <time>2022-02-09T14:15:14Z</time>
      </trkpt>
      <trkpt lat="42.85481" lon="0.26885">
        <ele>1463.4</ele>
        <time>2022-02-09T14:15:15Z</time>
      </trkpt>
      <trkpt lat="42.85481" lon="0.26885">
        <ele>1463.4</ele>
        <time>2022-02-09T14:15:16Z</time>
      </trkpt>
      <trkpt lat="42.85484" lon="0.26886">
        <ele>1464.2</ele>
        <time>2022-02-09T14:15:17Z</time>
      </trkpt>
      <trkpt lat="42.85489" lon="0.26887">
        <ele>1464.8</ele>
        <time>2022-02-09T14:15:18Z</time>
      </trkpt>
      <trkpt lat="42.85489" lon="0.26889">
        <ele>1464.8</ele>
        <time>2022-02-09T14:15:19Z</time>
      </trkpt>
      <trkpt lat="42.85489" lon="0.26891">
        <ele>1464.5</ele>
        <time>2022-02-09T14:15:20Z</time>
      </trkpt>
      <trkpt lat="42.85489" lon="0.26892">
        <ele>1464.5</ele>
        <time>2022-02-09T14:15:21Z</time>
      </trkpt>
      <trkpt lat="42.85489" lon="0.26893">
        <ele>1464.5</ele>
        <time>2022-02-09T14:15:22Z</time>
      </trkpt>
      <trkpt lat="42.85489" lon="0.26893">
        <ele>1464.5</ele>
        <time>2022-02-09T14:15:23Z</time>
      </trkpt>
      <trkpt lat="42.85489" lon="0.26893">
        <ele>1464.5</ele>
        <time>2022-02-09T14:15:24Z</time>
      </trkpt>
      <trkpt lat="42.85489" lon="0.26893">
        <ele>1464.5</ele>
        <time>2022-02-09T14:15:25Z</time>
      </trkpt>
      <trkpt lat="42.85489" lon="0.26893">
        <ele>1464.5</ele>
        <time>2022-02-09T14:15:26Z</time>
      </trkpt>
      <trkpt lat="42.85489" lon="0.26893">
        <ele>1464.5</ele>
        <time>2022-02-09T14:15:27Z</time>
      </trkpt>
      <trkpt lat="42.85489" lon="0.26893">
        <ele>1464.5</ele>
        <time>2022-02-09T14:15:28Z</time>
      </trkpt>
      <trkpt lat="42.85489" lon="0.26893">
        <ele>1464.5</ele>
        <time>2022-02-09T14:15:29Z</time>
      </trkpt>
      <trkpt lat="42.85489" lon="0.26893">
        <ele>1464.5</ele>
        <time>2022-02-09T14:15:30Z</time>
      </trkpt>
      <trkpt lat="42.85489" lon="0.26893">
        <ele>1464.5</ele>
        <time>2022-02-09T14:15:31Z</time>
      </trkpt>
      <trkpt lat="42.85489" lon="0.26893">
        <ele>1464.5</ele>
        <time>2022-02-09T14:15:32Z</time>
      </trkpt>
      <trkpt lat="42.85489" lon="0.26893">
        <ele>1464.5</ele>
        <time>2022-02-09T14:15:33Z</time>
      </trkpt>
      <trkpt lat="42.85489" lon="0.26893">
        <ele>1464.5</ele>
        <time>2022-02-09T14:15:34Z</time>
      </trkpt>
      <trkpt lat="42.85489" lon="0.26893">
        <ele>1464.5</ele>
        <time>2022-02-09T14:15:35Z</time>
      </trkpt>
      <trkpt lat="42.85489" lon="0.26893">
        <ele>1464.5</ele>
        <time>2022-02-09T14:15:36Z</time>
      </trkpt>
      <trkpt lat="42.85489" lon="0.26893">
        <ele>1464.5</ele>
        <time>2022-02-09T14:15:37Z</time>
      </trkpt>
      <trkpt lat="42.85489" lon="0.26893">
        <ele>1464.5</ele>
        <time>2022-02-09T14:15:38Z</time>
      </trkpt>
      <trkpt lat="42.85489" lon="0.26893">
        <ele>1464.5</ele>
        <time>2022-02-09T14:15:39Z</time>
      </trkpt>
      <trkpt lat="42.85489" lon="0.26893">
        <ele>1464.5</ele>
        <time>2022-02-09T14:15:40Z</time>
      </trkpt>
      <trkpt lat="42.85489" lon="0.26893">
        <ele>1464.5</ele>
        <time>2022-02-09T14:15:41Z</time>
      </trkpt>
      <trkpt lat="42.85489" lon="0.26893">
        <ele>1464.5</ele>
        <time>2022-02-09T14:15:42Z</time>
      </trkpt>
      <trkpt lat="42.85489" lon="0.26893">
        <ele>1464.5</ele>
        <time>2022-02-09T14:15:43Z</time>
      </trkpt>
      <trkpt lat="42.85489" lon="0.26893">
        <ele>1464.5</ele>
        <time>2022-02-09T14:15:44Z</time>
      </trkpt>
      <trkpt lat="42.85489" lon="0.26893">
        <ele>1464.5</ele>
        <time>2022-02-09T14:15:45Z</time>
      </trkpt>
      <trkpt lat="42.85489" lon="0.26893">
        <ele>1464.5</ele>
        <time>2022-02-09T14:15:46Z</time>
      </trkpt>
      <trkpt lat="42.85489" lon="0.26893">
        <ele>1464.5</ele>
        <time>2022-02-09T14:15:47Z</time>
      </trkpt>
      <trkpt lat="42.85489" lon="0.26893">
        <ele>1464.5</ele>
        <time>2022-02-09T14:15:48Z</time>
      </trkpt>
      <trkpt lat="42.85489" lon="0.26893">
        <ele>1464.5</ele>
        <time>2022-02-09T14:15:49Z</time>
      </trkpt>
      <trkpt lat="42.85489" lon="0.26893">
        <ele>1464.5</ele>
        <time>2022-02-09T14:15:50Z</time>
      </trkpt>
      <trkpt lat="42.85489" lon="0.26893">
        <ele>1464.5</ele>
        <time>2022-02-09T14:15:51Z</time>
      </trkpt>
      <trkpt lat="42.85488" lon="0.26895">
        <ele>1464.3</ele>
        <time>2022-02-09T14:15:52Z</time>
      </trkpt>
      <trkpt lat="42.85487" lon="0.269">
        <ele>1464.1</ele>
        <time>2022-02-09T14:15:53Z</time>
      </trkpt>
      <trkpt lat="42.85487" lon="0.26901">
        <ele>1464.1</ele>
        <time>2022-02-09T14:15:54Z</time>
      </trkpt>
      <trkpt lat="42.85487" lon="0.26902">
        <ele>1464.1</ele>
        <time>2022-02-09T14:15:55Z</time>
      </trkpt>
      <trkpt lat="42.85487" lon="0.26902">
        <ele>1464.1</ele>
        <time>2022-02-09T14:15:56Z</time>
      </trkpt>
      <trkpt lat="42.85487" lon="0.26902">
        <ele>1464.1</ele>
        <time>2022-02-09T14:15:57Z</time>
      </trkpt>
      <trkpt lat="42.85487" lon="0.26902">
        <ele>1464.1</ele>
        <time>2022-02-09T14:15:58Z</time>
      </trkpt>
      <trkpt lat="42.85487" lon="0.26902">
        <ele>1464.1</ele>
        <time>2022-02-09T14:15:59Z</time>
      </trkpt>
      <trkpt lat="42.85487" lon="0.26902">
        <ele>1464.1</ele>
        <time>2022-02-09T14:16:00Z</time>
      </trkpt>
      <trkpt lat="42.85487" lon="0.26902">
        <ele>1464.1</ele>
        <time>2022-02-09T14:16:01Z</time>
      </trkpt>
      <trkpt lat="42.85487" lon="0.26902">
        <ele>1464.1</ele>
        <time>2022-02-09T14:16:02Z</time>
      </trkpt>
      <trkpt lat="42.85487" lon="0.26902">
        <ele>1464.1</ele>
        <time>2022-02-09T14:16:03Z</time>
      </trkpt>
      <trkpt lat="42.85487" lon="0.26902">
        <ele>1464.1</ele>
        <time>2022-02-09T14:16:04Z</time>
      </trkpt>
      <trkpt lat="42.85487" lon="0.26902">
        <ele>1464.1</ele>
        <time>2022-02-09T14:16:05Z</time>
      </trkpt>
      <trkpt lat="42.85487" lon="0.26902">
        <ele>1464.1</ele>
        <time>2022-02-09T14:16:06Z</time>
      </trkpt>
      <trkpt lat="42.85487" lon="0.26902">
        <ele>1464.1</ele>
        <time>2022-02-09T14:16:07Z</time>
      </trkpt>
      <trkpt lat="42.85487" lon="0.26902">
        <ele>1464.1</ele>
        <time>2022-02-09T14:16:08Z</time>
      </trkpt>
      <trkpt lat="42.85487" lon="0.26902">
        <ele>1464.1</ele>
        <time>2022-02-09T14:16:09Z</time>
      </trkpt>
      <trkpt lat="42.85487" lon="0.26902">
        <ele>1464.1</ele>
        <time>2022-02-09T14:16:10Z</time>
      </trkpt>
      <trkpt lat="42.85487" lon="0.26902">
        <ele>1464.1</ele>
        <time>2022-02-09T14:16:11Z</time>
      </trkpt>
      <trkpt lat="42.85487" lon="0.26902">
        <ele>1464.1</ele>
        <time>2022-02-09T14:16:12Z</time>
      </trkpt>
      <trkpt lat="42.85487" lon="0.26902">
        <ele>1464.1</ele>
        <time>2022-02-09T14:16:13Z</time>
      </trkpt>
      <trkpt lat="42.85487" lon="0.26902">
        <ele>1464.1</ele>
        <time>2022-02-09T14:16:14Z</time>
      </trkpt>
      <trkpt lat="42.85487" lon="0.26902">
        <ele>1464.1</ele>
        <time>2022-02-09T14:16:15Z</time>
      </trkpt>
      <trkpt lat="42.85487" lon="0.26902">
        <ele>1464.1</ele>
        <time>2022-02-09T14:16:16Z</time>
      </trkpt>
      <trkpt lat="42.85487" lon="0.26902">
        <ele>1464.1</ele>
        <time>2022-02-09T14:16:17Z</time>
      </trkpt>
      <trkpt lat="42.85487" lon="0.26902">
        <ele>1464.1</ele>
        <time>2022-02-09T14:16:18Z</time>
      </trkpt>
      <trkpt lat="42.85487" lon="0.26902">
        <ele>1464.1</ele>
        <time>2022-02-09T14:16:19Z</time>
      </trkpt>
      <trkpt lat="42.85487" lon="0.26902">
        <ele>1464.1</ele>
        <time>2022-02-09T14:16:20Z</time>
      </trkpt>
      <trkpt lat="42.85487" lon="0.26902">
        <ele>1464.1</ele>
        <time>2022-02-09T14:16:21Z</time>
      </trkpt>
      <trkpt lat="42.85487" lon="0.26902">
        <ele>1464.1</ele>
        <time>2022-02-09T14:16:22Z</time>
      </trkpt>
      <trkpt lat="42.85487" lon="0.26902">
        <ele>1464.1</ele>
        <time>2022-02-09T14:16:23Z</time>
      </trkpt>
      <trkpt lat="42.85487" lon="0.26902">
        <ele>1464.1</ele>
        <time>2022-02-09T14:16:24Z</time>
      </trkpt>
      <trkpt lat="42.85487" lon="0.26902">
        <ele>1464.1</ele>
        <time>2022-02-09T14:16:25Z</time>
      </trkpt>
      <trkpt lat="42.85487" lon="0.26902">
        <ele>1464.1</ele>
        <time>2022-02-09T14:16:26Z</time>
      </trkpt>
      <trkpt lat="42.85487" lon="0.26902">
        <ele>1464.1</ele>
        <time>2022-02-09T14:16:27Z</time>
      </trkpt>
      <trkpt lat="42.85487" lon="0.26902">
        <ele>1464.1</ele>
        <time>2022-02-09T14:16:28Z</time>
      </trkpt>
      <trkpt lat="42.85487" lon="0.26902">
        <ele>1464.1</ele>
        <time>2022-02-09T14:16:29Z</time>
      </trkpt>
      <trkpt lat="42.85487" lon="0.26902">
        <ele>1464.1</ele>
        <time>2022-02-09T14:16:30Z</time>
      </trkpt>
      <trkpt lat="42.85487" lon="0.26902">
        <ele>1464.1</ele>
        <time>2022-02-09T14:16:31Z</time>
      </trkpt>
      <trkpt lat="42.85487" lon="0.26902">
        <ele>1464.1</ele>
        <time>2022-02-09T14:16:32Z</time>
      </trkpt>
      <trkpt lat="42.85487" lon="0.26902">
        <ele>1464.1</ele>
        <time>2022-02-09T14:16:33Z</time>
      </trkpt>
      <trkpt lat="42.85487" lon="0.26902">
        <ele>1464.1</ele>
        <time>2022-02-09T14:16:34Z</time>
      </trkpt>
      <trkpt lat="42.85487" lon="0.26902">
        <ele>1464.1</ele>
        <time>2022-02-09T14:16:35Z</time>
      </trkpt>
      <trkpt lat="42.85487" lon="0.26902">
        <ele>1464.1</ele>
        <time>2022-02-09T14:16:36Z</time>
      </trkpt>
      <trkpt lat="42.85487" lon="0.26902">
        <ele>1464.1</ele>
        <time>2022-02-09T14:16:37Z</time>
      </trkpt>
      <trkpt lat="42.85487" lon="0.26902">
        <ele>1464.1</ele>
        <time>2022-02-09T14:16:38Z</time>
      </trkpt>
      <trkpt lat="42.85487" lon="0.26902">
        <ele>1464.1</ele>
        <time>2022-02-09T14:16:39Z</time>
      </trkpt>
      <trkpt lat="42.85487" lon="0.26902">
        <ele>1464.1</ele>
        <time>2022-02-09T14:16:40Z</time>
      </trkpt>
      <trkpt lat="42.85487" lon="0.26902">
        <ele>1464.1</ele>
        <time>2022-02-09T14:16:41Z</time>
      </trkpt>
      <trkpt lat="42.85487" lon="0.26902">
        <ele>1464.1</ele>
        <time>2022-02-09T14:16:42Z</time>
      </trkpt>
      <trkpt lat="42.85487" lon="0.26902">
        <ele>1464.1</ele>
        <time>2022-02-09T14:16:43Z</time>
      </trkpt>
      <trkpt lat="42.85487" lon="0.26902">
        <ele>1464.1</ele>
        <time>2022-02-09T14:16:44Z</time>
      </trkpt>
      <trkpt lat="42.85487" lon="0.26902">
        <ele>1464.1</ele>
        <time>2022-02-09T14:16:45Z</time>
      </trkpt>
      <trkpt lat="42.85487" lon="0.26902">
        <ele>1464.1</ele>
        <time>2022-02-09T14:16:46Z</time>
      </trkpt>
      <trkpt lat="42.85487" lon="0.26902">
        <ele>1464.1</ele>
        <time>2022-02-09T14:16:47Z</time>
      </trkpt>
      <trkpt lat="42.85487" lon="0.26902">
        <ele>1464.1</ele>
        <time>2022-02-09T14:16:48Z</time>
      </trkpt>
      <trkpt lat="42.85487" lon="0.26902">
        <ele>1464.1</ele>
        <time>2022-02-09T14:16:49Z</time>
      </trkpt>
      <trkpt lat="42.85487" lon="0.26902">
        <ele>1464.1</ele>
        <time>2022-02-09T14:16:50Z</time>
      </trkpt>
      <trkpt lat="42.85487" lon="0.26902">
        <ele>1464.1</ele>
        <time>2022-02-09T14:16:51Z</time>
      </trkpt>
      <trkpt lat="42.85487" lon="0.26902">
        <ele>1464.1</ele>
        <time>2022-02-09T14:16:52Z</time>
      </trkpt>
      <trkpt lat="42.85487" lon="0.26902">
        <ele>1464.1</ele>
        <time>2022-02-09T14:16:53Z</time>
      </trkpt>
      <trkpt lat="42.85487" lon="0.26902">
        <ele>1464.1</ele>
        <time>2022-02-09T14:16:54Z</time>
      </trkpt>
      <trkpt lat="42.85487" lon="0.26902">
        <ele>1464.1</ele>
        <time>2022-02-09T14:16:55Z</time>
      </trkpt>
      <trkpt lat="42.85487" lon="0.26902">
        <ele>1464.1</ele>
        <time>2022-02-09T14:16:56Z</time>
      </trkpt>
      <trkpt lat="42.85487" lon="0.26902">
        <ele>1464.1</ele>
        <time>2022-02-09T14:16:57Z</time>
      </trkpt>
      <trkpt lat="42.85487" lon="0.26902">
        <ele>1464.1</ele>
        <time>2022-02-09T14:16:58Z</time>
      </trkpt>
      <trkpt lat="42.85487" lon="0.26902">
        <ele>1464.1</ele>
        <time>2022-02-09T14:16:59Z</time>
      </trkpt>
      <trkpt lat="42.85487" lon="0.26902">
        <ele>1464.1</ele>
        <time>2022-02-09T14:17:00Z</time>
      </trkpt>
      <trkpt lat="42.85487" lon="0.26902">
        <ele>1464.1</ele>
        <time>2022-02-09T14:17:01Z</time>
      </trkpt>
      <trkpt lat="42.85487" lon="0.26902">
        <ele>1464.1</ele>
        <time>2022-02-09T14:17:02Z</time>
      </trkpt>
      <trkpt lat="42.85487" lon="0.26902">
        <ele>1464.1</ele>
        <time>2022-02-09T14:17:03Z</time>
      </trkpt>
      <trkpt lat="42.85487" lon="0.26902">
        <ele>1464.1</ele>
        <time>2022-02-09T14:17:04Z</time>
      </trkpt>
      <trkpt lat="42.85487" lon="0.26902">
        <ele>1464.1</ele>
        <time>2022-02-09T14:17:05Z</time>
      </trkpt>
      <trkpt lat="42.85487" lon="0.26902">
        <ele>1464.1</ele>
        <time>2022-02-09T14:17:06Z</time>
      </trkpt>
      <trkpt lat="42.85487" lon="0.26902">
        <ele>1464.1</ele>
        <time>2022-02-09T14:17:07Z</time>
      </trkpt>
      <trkpt lat="42.85487" lon="0.26902">
        <ele>1464.1</ele>
        <time>2022-02-09T14:17:08Z</time>
      </trkpt>
      <trkpt lat="42.85487" lon="0.26902">
        <ele>1464.1</ele>
        <time>2022-02-09T14:17:09Z</time>
      </trkpt>
      <trkpt lat="42.85487" lon="0.26902">
        <ele>1464.1</ele>
        <time>2022-02-09T14:17:10Z</time>
      </trkpt>
      <trkpt lat="42.85487" lon="0.26902">
        <ele>1464.1</ele>
        <time>2022-02-09T14:17:11Z</time>
      </trkpt>
      <trkpt lat="42.85487" lon="0.26902">
        <ele>1464.1</ele>
        <time>2022-02-09T14:17:12Z</time>
      </trkpt>
      <trkpt lat="42.85487" lon="0.26902">
        <ele>1464.1</ele>
        <time>2022-02-09T14:17:13Z</time>
      </trkpt>
      <trkpt lat="42.85487" lon="0.26902">
        <ele>1464.1</ele>
        <time>2022-02-09T14:17:14Z</time>
      </trkpt>
      <trkpt lat="42.85487" lon="0.26902">
        <ele>1464.1</ele>
        <time>2022-02-09T14:17:15Z</time>
      </trkpt>
      <trkpt lat="42.85487" lon="0.26902">
        <ele>1464.1</ele>
        <time>2022-02-09T14:17:16Z</time>
      </trkpt>
      <trkpt lat="42.85487" lon="0.26902">
        <ele>1464.1</ele>
        <time>2022-02-09T14:17:17Z</time>
      </trkpt>
      <trkpt lat="42.85487" lon="0.26902">
        <ele>1464.1</ele>
        <time>2022-02-09T14:17:18Z</time>
      </trkpt>
      <trkpt lat="42.85487" lon="0.26902">
        <ele>1464.1</ele>
        <time>2022-02-09T14:17:19Z</time>
      </trkpt>
      <trkpt lat="42.85487" lon="0.26902">
        <ele>1464.1</ele>
        <time>2022-02-09T14:17:20Z</time>
      </trkpt>
      <trkpt lat="42.85487" lon="0.26902">
        <ele>1464.1</ele>
        <time>2022-02-09T14:17:21Z</time>
      </trkpt>
      <trkpt lat="42.85487" lon="0.26902">
        <ele>1464.1</ele>
        <time>2022-02-09T14:17:22Z</time>
      </trkpt>
      <trkpt lat="42.85487" lon="0.26902">
        <ele>1464.1</ele>
        <time>2022-02-09T14:17:23Z</time>
      </trkpt>
      <trkpt lat="42.85487" lon="0.26902">
        <ele>1464.1</ele>
        <time>2022-02-09T14:17:24Z</time>
      </trkpt>
      <trkpt lat="42.85487" lon="0.26902">
        <ele>1464.1</ele>
        <time>2022-02-09T14:17:25Z</time>
      </trkpt>
      <trkpt lat="42.85487" lon="0.26902">
        <ele>1464.1</ele>
        <time>2022-02-09T14:17:26Z</time>
      </trkpt>
      <trkpt lat="42.85487" lon="0.26902">
        <ele>1464.1</ele>
        <time>2022-02-09T14:17:27Z</time>
      </trkpt>
      <trkpt lat="42.85487" lon="0.26902">
        <ele>1464.1</ele>
        <time>2022-02-09T14:17:28Z</time>
      </trkpt>
      <trkpt lat="42.85487" lon="0.26902">
        <ele>1464.1</ele>
        <time>2022-02-09T14:17:29Z</time>
      </trkpt>
      <trkpt lat="42.85487" lon="0.26902">
        <ele>1464.1</ele>
        <time>2022-02-09T14:17:30Z</time>
      </trkpt>
      <trkpt lat="42.85487" lon="0.26902">
        <ele>1464.1</ele>
        <time>2022-02-09T14:17:31Z</time>
      </trkpt>
      <trkpt lat="42.85487" lon="0.26902">
        <ele>1464.1</ele>
        <time>2022-02-09T14:17:32Z</time>
      </trkpt>
      <trkpt lat="42.85487" lon="0.26902">
        <ele>1464.1</ele>
        <time>2022-02-09T14:17:33Z</time>
      </trkpt>
      <trkpt lat="42.85487" lon="0.26902">
        <ele>1464.1</ele>
        <time>2022-02-09T14:17:34Z</time>
      </trkpt>
      <trkpt lat="42.85487" lon="0.26902">
        <ele>1464.1</ele>
        <time>2022-02-09T14:17:35Z</time>
      </trkpt>
      <trkpt lat="42.85487" lon="0.26902">
        <ele>1464.1</ele>
        <time>2022-02-09T14:17:36Z</time>
      </trkpt>
      <trkpt lat="42.85487" lon="0.26902">
        <ele>1464.1</ele>
        <time>2022-02-09T14:17:37Z</time>
      </trkpt>
      <trkpt lat="42.85487" lon="0.26902">
        <ele>1464.1</ele>
        <time>2022-02-09T14:17:38Z</time>
      </trkpt>
      <trkpt lat="42.85487" lon="0.26902">
        <ele>1464.1</ele>
        <time>2022-02-09T14:17:39Z</time>
      </trkpt>
      <trkpt lat="42.85487" lon="0.26902">
        <ele>1464.1</ele>
        <time>2022-02-09T14:17:40Z</time>
      </trkpt>
      <trkpt lat="42.85487" lon="0.26902">
        <ele>1464.1</ele>
        <time>2022-02-09T14:17:41Z</time>
      </trkpt>
      <trkpt lat="42.85487" lon="0.26902">
        <ele>1464.1</ele>
        <time>2022-02-09T14:17:42Z</time>
      </trkpt>
      <trkpt lat="42.85487" lon="0.26902">
        <ele>1464.1</ele>
        <time>2022-02-09T14:17:43Z</time>
      </trkpt>
      <trkpt lat="42.85487" lon="0.26902">
        <ele>1464.1</ele>
        <time>2022-02-09T14:17:44Z</time>
      </trkpt>
      <trkpt lat="42.85487" lon="0.26902">
        <ele>1464.1</ele>
        <time>2022-02-09T14:17:45Z</time>
      </trkpt>
      <trkpt lat="42.85487" lon="0.26902">
        <ele>1464.1</ele>
        <time>2022-02-09T14:17:46Z</time>
      </trkpt>
      <trkpt lat="42.85487" lon="0.26902">
        <ele>1464.1</ele>
        <time>2022-02-09T14:17:47Z</time>
      </trkpt>
      <trkpt lat="42.85487" lon="0.26902">
        <ele>1464.1</ele>
        <time>2022-02-09T14:17:48Z</time>
      </trkpt>
      <trkpt lat="42.85487" lon="0.26902">
        <ele>1464.1</ele>
        <time>2022-02-09T14:17:49Z</time>
      </trkpt>
      <trkpt lat="42.85487" lon="0.26903">
        <ele>1464.1</ele>
        <time>2022-02-09T14:17:50Z</time>
      </trkpt>
      <trkpt lat="42.85487" lon="0.26906">
        <ele>1463.8</ele>
        <time>2022-02-09T14:17:51Z</time>
      </trkpt>
      <trkpt lat="42.85487" lon="0.26909">
        <ele>1463.6</ele>
        <time>2022-02-09T14:17:52Z</time>
      </trkpt>
      <trkpt lat="42.85487" lon="0.26911">
        <ele>1463.6</ele>
        <time>2022-02-09T14:17:53Z</time>
      </trkpt>
      <trkpt lat="42.85487" lon="0.26913">
        <ele>1463.3</ele>
        <time>2022-02-09T14:17:54Z</time>
      </trkpt>
      <trkpt lat="42.85487" lon="0.26915">
        <ele>1463.3</ele>
        <time>2022-02-09T14:17:55Z</time>
      </trkpt>
      <trkpt lat="42.85487" lon="0.26916">
        <ele>1463.3</ele>
        <time>2022-02-09T14:17:56Z</time>
      </trkpt>
      <trkpt lat="42.85486" lon="0.26917">
        <ele>1463.1</ele>
        <time>2022-02-09T14:17:57Z</time>
      </trkpt>
      <trkpt lat="42.85484" lon="0.26918">
        <ele>1462.1</ele>
        <time>2022-02-09T14:17:58Z</time>
      </trkpt>
      <trkpt lat="42.85481" lon="0.26922">
        <ele>1461</ele>
        <time>2022-02-09T14:17:59Z</time>
      </trkpt>
      <trkpt lat="42.85478" lon="0.26928">
        <ele>1459.8</ele>
        <time>2022-02-09T14:18:00Z</time>
      </trkpt>
      <trkpt lat="42.85476" lon="0.26935">
        <ele>1458.4</ele>
        <time>2022-02-09T14:18:01Z</time>
      </trkpt>
      <trkpt lat="42.85475" lon="0.26941">
        <ele>1458.3</ele>
        <time>2022-02-09T14:18:02Z</time>
      </trkpt>
      <trkpt lat="42.85475" lon="0.26947">
        <ele>1458</ele>
        <time>2022-02-09T14:18:03Z</time>
      </trkpt>
      <trkpt lat="42.85475" lon="0.26953">
        <ele>1457.9</ele>
        <time>2022-02-09T14:18:04Z</time>
      </trkpt>
      <trkpt lat="42.85475" lon="0.26957">
        <ele>1457.8</ele>
        <time>2022-02-09T14:18:05Z</time>
      </trkpt>
      <trkpt lat="42.85475" lon="0.26962">
        <ele>1457.7</ele>
        <time>2022-02-09T14:18:06Z</time>
      </trkpt>
      <trkpt lat="42.85474" lon="0.26966">
        <ele>1457.6</ele>
        <time>2022-02-09T14:18:07Z</time>
      </trkpt>
      <trkpt lat="42.85473" lon="0.26968">
        <ele>1456.2</ele>
        <time>2022-02-09T14:18:08Z</time>
      </trkpt>
      <trkpt lat="42.8547" lon="0.26969">
        <ele>1456.1</ele>
        <time>2022-02-09T14:18:09Z</time>
      </trkpt>
      <trkpt lat="42.85468" lon="0.26971">
        <ele>1454.7</ele>
        <time>2022-02-09T14:18:10Z</time>
      </trkpt>
      <trkpt lat="42.85467" lon="0.26973">
        <ele>1454.6</ele>
        <time>2022-02-09T14:18:11Z</time>
      </trkpt>
      <trkpt lat="42.85467" lon="0.26975">
        <ele>1453.3</ele>
        <time>2022-02-09T14:18:12Z</time>
      </trkpt>
      <trkpt lat="42.85467" lon="0.26975">
        <ele>1453.3</ele>
        <time>2022-02-09T14:18:13Z</time>
      </trkpt>
      <trkpt lat="42.85467" lon="0.26976">
        <ele>1454.6</ele>
        <time>2022-02-09T14:18:14Z</time>
      </trkpt>
      <trkpt lat="42.85467" lon="0.26976">
        <ele>1454.6</ele>
        <time>2022-02-09T14:18:15Z</time>
      </trkpt>
      <trkpt lat="42.85467" lon="0.26976">
        <ele>1454.6</ele>
        <time>2022-02-09T14:18:16Z</time>
      </trkpt>
      <trkpt lat="42.85467" lon="0.26976">
        <ele>1454.6</ele>
        <time>2022-02-09T14:18:17Z</time>
      </trkpt>
      <trkpt lat="42.85467" lon="0.26976">
        <ele>1454.6</ele>
        <time>2022-02-09T14:18:18Z</time>
      </trkpt>
      <trkpt lat="42.85467" lon="0.26976">
        <ele>1454.6</ele>
        <time>2022-02-09T14:18:19Z</time>
      </trkpt>
      <trkpt lat="42.85467" lon="0.26976">
        <ele>1454.6</ele>
        <time>2022-02-09T14:18:20Z</time>
      </trkpt>
      <trkpt lat="42.85467" lon="0.26976">
        <ele>1454.6</ele>
        <time>2022-02-09T14:18:21Z</time>
      </trkpt>
      <trkpt lat="42.85467" lon="0.26976">
        <ele>1454.6</ele>
        <time>2022-02-09T14:18:22Z</time>
      </trkpt>
      <trkpt lat="42.85467" lon="0.26976">
        <ele>1454.6</ele>
        <time>2022-02-09T14:18:23Z</time>
      </trkpt>
      <trkpt lat="42.85467" lon="0.26976">
        <ele>1454.6</ele>
        <time>2022-02-09T14:18:24Z</time>
      </trkpt>
      <trkpt lat="42.85467" lon="0.26976">
        <ele>1454.6</ele>
        <time>2022-02-09T14:18:25Z</time>
      </trkpt>
      <trkpt lat="42.85467" lon="0.26976">
        <ele>1454.6</ele>
        <time>2022-02-09T14:18:26Z</time>
      </trkpt>
      <trkpt lat="42.85467" lon="0.26976">
        <ele>1454.6</ele>
        <time>2022-02-09T14:18:27Z</time>
      </trkpt>
      <trkpt lat="42.85467" lon="0.26976">
        <ele>1454.6</ele>
        <time>2022-02-09T14:18:28Z</time>
      </trkpt>
      <trkpt lat="42.85467" lon="0.26976">
        <ele>1454.6</ele>
        <time>2022-02-09T14:18:29Z</time>
      </trkpt>
      <trkpt lat="42.85467" lon="0.26976">
        <ele>1454.6</ele>
        <time>2022-02-09T14:18:30Z</time>
      </trkpt>
      <trkpt lat="42.85467" lon="0.26976">
        <ele>1454.6</ele>
        <time>2022-02-09T14:18:31Z</time>
      </trkpt>
      <trkpt lat="42.85467" lon="0.26976">
        <ele>1454.6</ele>
        <time>2022-02-09T14:18:32Z</time>
      </trkpt>
      <trkpt lat="42.85467" lon="0.26976">
        <ele>1454.6</ele>
        <time>2022-02-09T14:18:33Z</time>
      </trkpt>
      <trkpt lat="42.85467" lon="0.26976">
        <ele>1454.6</ele>
        <time>2022-02-09T14:18:34Z</time>
      </trkpt>
      <trkpt lat="42.85467" lon="0.26976">
        <ele>1454.6</ele>
        <time>2022-02-09T14:18:35Z</time>
      </trkpt>
      <trkpt lat="42.85467" lon="0.26976">
        <ele>1454.6</ele>
        <time>2022-02-09T14:18:36Z</time>
      </trkpt>
      <trkpt lat="42.85467" lon="0.26976">
        <ele>1454.6</ele>
        <time>2022-02-09T14:18:37Z</time>
      </trkpt>
      <trkpt lat="42.85467" lon="0.26976">
        <ele>1454.6</ele>
        <time>2022-02-09T14:18:38Z</time>
      </trkpt>
      <trkpt lat="42.85467" lon="0.26976">
        <ele>1454.6</ele>
        <time>2022-02-09T14:18:39Z</time>
      </trkpt>
      <trkpt lat="42.85467" lon="0.26976">
        <ele>1454.6</ele>
        <time>2022-02-09T14:18:40Z</time>
      </trkpt>
      <trkpt lat="42.85467" lon="0.26976">
        <ele>1454.6</ele>
        <time>2022-02-09T14:18:41Z</time>
      </trkpt>
      <trkpt lat="42.85467" lon="0.26976">
        <ele>1454.6</ele>
        <time>2022-02-09T14:18:42Z</time>
      </trkpt>
      <trkpt lat="42.85467" lon="0.26976">
        <ele>1454.6</ele>
        <time>2022-02-09T14:18:43Z</time>
      </trkpt>
      <trkpt lat="42.85467" lon="0.26976">
        <ele>1454.6</ele>
        <time>2022-02-09T14:18:44Z</time>
      </trkpt>
      <trkpt lat="42.85467" lon="0.26976">
        <ele>1454.6</ele>
        <time>2022-02-09T14:18:45Z</time>
      </trkpt>
      <trkpt lat="42.85467" lon="0.26976">
        <ele>1454.6</ele>
        <time>2022-02-09T14:18:46Z</time>
      </trkpt>
      <trkpt lat="42.85467" lon="0.26976">
        <ele>1454.6</ele>
        <time>2022-02-09T14:18:47Z</time>
      </trkpt>
      <trkpt lat="42.85467" lon="0.26976">
        <ele>1454.6</ele>
        <time>2022-02-09T14:18:48Z</time>
      </trkpt>
      <trkpt lat="42.85467" lon="0.26976">
        <ele>1454.6</ele>
        <time>2022-02-09T14:18:49Z</time>
      </trkpt>
      <trkpt lat="42.85467" lon="0.26976">
        <ele>1454.6</ele>
        <time>2022-02-09T14:18:50Z</time>
      </trkpt>
      <trkpt lat="42.85467" lon="0.26976">
        <ele>1454.6</ele>
        <time>2022-02-09T14:18:51Z</time>
      </trkpt>
      <trkpt lat="42.85467" lon="0.26976">
        <ele>1454.6</ele>
        <time>2022-02-09T14:18:52Z</time>
      </trkpt>
      <trkpt lat="42.85467" lon="0.26976">
        <ele>1454.6</ele>
        <time>2022-02-09T14:18:53Z</time>
      </trkpt>
      <trkpt lat="42.85467" lon="0.26976">
        <ele>1454.6</ele>
        <time>2022-02-09T14:18:54Z</time>
      </trkpt>
      <trkpt lat="42.85467" lon="0.26976">
        <ele>1454.6</ele>
        <time>2022-02-09T14:18:55Z</time>
      </trkpt>
      <trkpt lat="42.85467" lon="0.26976">
        <ele>1454.6</ele>
        <time>2022-02-09T14:18:56Z</time>
      </trkpt>
      <trkpt lat="42.85467" lon="0.26976">
        <ele>1454.6</ele>
        <time>2022-02-09T14:18:57Z</time>
      </trkpt>
      <trkpt lat="42.85467" lon="0.26976">
        <ele>1454.6</ele>
        <time>2022-02-09T14:18:58Z</time>
      </trkpt>
      <trkpt lat="42.85467" lon="0.26976">
        <ele>1454.6</ele>
        <time>2022-02-09T14:18:59Z</time>
      </trkpt>
      <trkpt lat="42.85467" lon="0.26976">
        <ele>1454.6</ele>
        <time>2022-02-09T14:19:00Z</time>
      </trkpt>
      <trkpt lat="42.85467" lon="0.26976">
        <ele>1454.6</ele>
        <time>2022-02-09T14:19:01Z</time>
      </trkpt>
      <trkpt lat="42.85467" lon="0.26976">
        <ele>1454.6</ele>
        <time>2022-02-09T14:19:02Z</time>
      </trkpt>
      <trkpt lat="42.85467" lon="0.26976">
        <ele>1454.6</ele>
        <time>2022-02-09T14:19:03Z</time>
      </trkpt>
      <trkpt lat="42.85467" lon="0.26976">
        <ele>1454.6</ele>
        <time>2022-02-09T14:19:04Z</time>
      </trkpt>
      <trkpt lat="42.85467" lon="0.26976">
        <ele>1454.6</ele>
        <time>2022-02-09T14:19:05Z</time>
      </trkpt>
      <trkpt lat="42.85467" lon="0.26976">
        <ele>1454.6</ele>
        <time>2022-02-09T14:19:06Z</time>
      </trkpt>
      <trkpt lat="42.85467" lon="0.26976">
        <ele>1454.6</ele>
        <time>2022-02-09T14:19:07Z</time>
      </trkpt>
      <trkpt lat="42.85467" lon="0.26976">
        <ele>1454.6</ele>
        <time>2022-02-09T14:19:08Z</time>
      </trkpt>
      <trkpt lat="42.85467" lon="0.26976">
        <ele>1454.6</ele>
        <time>2022-02-09T14:19:09Z</time>
      </trkpt>
      <trkpt lat="42.85467" lon="0.26976">
        <ele>1454.6</ele>
        <time>2022-02-09T14:19:10Z</time>
      </trkpt>
      <trkpt lat="42.85467" lon="0.26976">
        <ele>1454.6</ele>
        <time>2022-02-09T14:19:11Z</time>
      </trkpt>
      <trkpt lat="42.85467" lon="0.26976">
        <ele>1454.6</ele>
        <time>2022-02-09T14:19:12Z</time>
      </trkpt>
      <trkpt lat="42.85467" lon="0.26976">
        <ele>1454.6</ele>
        <time>2022-02-09T14:19:13Z</time>
      </trkpt>
      <trkpt lat="42.85467" lon="0.26976">
        <ele>1454.6</ele>
        <time>2022-02-09T14:19:14Z</time>
      </trkpt>
      <trkpt lat="42.85467" lon="0.26978">
        <ele>1453.2</ele>
        <time>2022-02-09T14:19:15Z</time>
      </trkpt>
      <trkpt lat="42.85466" lon="0.26981">
        <ele>1453.1</ele>
        <time>2022-02-09T14:19:16Z</time>
      </trkpt>
      <trkpt lat="42.85464" lon="0.26983">
        <ele>1451.9</ele>
        <time>2022-02-09T14:19:17Z</time>
      </trkpt>
      <trkpt lat="42.85462" lon="0.26985">
        <ele>1451.9</ele>
        <time>2022-02-09T14:19:18Z</time>
      </trkpt>
      <trkpt lat="42.8546" lon="0.26988">
        <ele>1450.7</ele>
        <time>2022-02-09T14:19:19Z</time>
      </trkpt>
      <trkpt lat="42.85459" lon="0.26992">
        <ele>1450.6</ele>
        <time>2022-02-09T14:19:20Z</time>
      </trkpt>
      <trkpt lat="42.85456" lon="0.26994">
        <ele>1449.5</ele>
        <time>2022-02-09T14:19:21Z</time>
      </trkpt>
      <trkpt lat="42.85454" lon="0.26994">
        <ele>1448.5</ele>
        <time>2022-02-09T14:19:22Z</time>
      </trkpt>
      <trkpt lat="42.85451" lon="0.26992">
        <ele>1447.6</ele>
        <time>2022-02-09T14:19:23Z</time>
      </trkpt>
      <trkpt lat="42.85448" lon="0.26989">
        <ele>1446.6</ele>
        <time>2022-02-09T14:19:24Z</time>
      </trkpt>
      <trkpt lat="42.85445" lon="0.26986">
        <ele>1445.5</ele>
        <time>2022-02-09T14:19:25Z</time>
      </trkpt>
      <trkpt lat="42.85442" lon="0.26985">
        <ele>1444.6</ele>
        <time>2022-02-09T14:19:26Z</time>
      </trkpt>
      <trkpt lat="42.85439" lon="0.26986">
        <ele>1444.5</ele>
        <time>2022-02-09T14:19:27Z</time>
      </trkpt>
      <trkpt lat="42.85438" lon="0.26991">
        <ele>1443.4</ele>
        <time>2022-02-09T14:19:28Z</time>
      </trkpt>
      <trkpt lat="42.85438" lon="0.26995">
        <ele>1443.2</ele>
        <time>2022-02-09T14:19:29Z</time>
      </trkpt>
      <trkpt lat="42.85437" lon="0.27">
        <ele>1443</ele>
        <time>2022-02-09T14:19:30Z</time>
      </trkpt>
      <trkpt lat="42.85437" lon="0.27005">
        <ele>1442.8</ele>
        <time>2022-02-09T14:19:31Z</time>
      </trkpt>
      <trkpt lat="42.85435" lon="0.2701">
        <ele>1441.8</ele>
        <time>2022-02-09T14:19:32Z</time>
      </trkpt>
      <trkpt lat="42.85433" lon="0.27012">
        <ele>1441.6</ele>
        <time>2022-02-09T14:19:33Z</time>
      </trkpt>
      <trkpt lat="42.8543" lon="0.27013">
        <ele>1440.7</ele>
        <time>2022-02-09T14:19:34Z</time>
      </trkpt>
      <trkpt lat="42.85428" lon="0.27015">
        <ele>1439.9</ele>
        <time>2022-02-09T14:19:35Z</time>
      </trkpt>
      <trkpt lat="42.85425" lon="0.27017">
        <ele>1438.8</ele>
        <time>2022-02-09T14:19:36Z</time>
      </trkpt>
      <trkpt lat="42.85422" lon="0.27018">
        <ele>1437.9</ele>
        <time>2022-02-09T14:19:37Z</time>
      </trkpt>
      <trkpt lat="42.8542" lon="0.2702">
        <ele>1436.9</ele>
        <time>2022-02-09T14:19:38Z</time>
      </trkpt>
      <trkpt lat="42.85416" lon="0.27022">
        <ele>1435.9</ele>
        <time>2022-02-09T14:19:39Z</time>
      </trkpt>
      <trkpt lat="42.85412" lon="0.27023">
        <ele>1435.1</ele>
        <time>2022-02-09T14:19:40Z</time>
      </trkpt>
      <trkpt lat="42.85407" lon="0.27023">
        <ele>1434.4</ele>
        <time>2022-02-09T14:19:41Z</time>
      </trkpt>
      <trkpt lat="42.85403" lon="0.27025">
        <ele>1433.1</ele>
        <time>2022-02-09T14:19:42Z</time>
      </trkpt>
      <trkpt lat="42.85399" lon="0.27029">
        <ele>1432.4</ele>
        <time>2022-02-09T14:19:43Z</time>
      </trkpt>
      <trkpt lat="42.85395" lon="0.27031">
        <ele>1431.9</ele>
        <time>2022-02-09T14:19:44Z</time>
      </trkpt>
      <trkpt lat="42.85392" lon="0.27033">
        <ele>1431.2</ele>
        <time>2022-02-09T14:19:45Z</time>
      </trkpt>
      <trkpt lat="42.85389" lon="0.27036">
        <ele>1430.6</ele>
        <time>2022-02-09T14:19:46Z</time>
      </trkpt>
      <trkpt lat="42.85386" lon="0.27039">
        <ele>1429.9</ele>
        <time>2022-02-09T14:19:47Z</time>
      </trkpt>
      <trkpt lat="42.85383" lon="0.27041">
        <ele>1429.2</ele>
        <time>2022-02-09T14:19:48Z</time>
      </trkpt>
      <trkpt lat="42.85379" lon="0.27045">
        <ele>1428.7</ele>
        <time>2022-02-09T14:19:49Z</time>
      </trkpt>
      <trkpt lat="42.85375" lon="0.2705">
        <ele>1427.5</ele>
        <time>2022-02-09T14:19:50Z</time>
      </trkpt>
      <trkpt lat="42.85371" lon="0.27054">
        <ele>1426.5</ele>
        <time>2022-02-09T14:19:51Z</time>
      </trkpt>
      <trkpt lat="42.85367" lon="0.27059">
        <ele>1425.9</ele>
        <time>2022-02-09T14:19:52Z</time>
      </trkpt>
      <trkpt lat="42.85365" lon="0.27066">
        <ele>1425.2</ele>
        <time>2022-02-09T14:19:53Z</time>
      </trkpt>
      <trkpt lat="42.85365" lon="0.27073">
        <ele>1425</ele>
        <time>2022-02-09T14:19:54Z</time>
      </trkpt>
      <trkpt lat="42.85363" lon="0.2708">
        <ele>1424.3</ele>
        <time>2022-02-09T14:19:55Z</time>
      </trkpt>
      <trkpt lat="42.8536" lon="0.27085">
        <ele>1423.6</ele>
        <time>2022-02-09T14:19:56Z</time>
      </trkpt>
      <trkpt lat="42.85356" lon="0.27089">
        <ele>1423</ele>
        <time>2022-02-09T14:19:57Z</time>
      </trkpt>
      <trkpt lat="42.85354" lon="0.27094">
        <ele>1422.9</ele>
        <time>2022-02-09T14:19:58Z</time>
      </trkpt>
      <trkpt lat="42.85353" lon="0.271">
        <ele>1422.2</ele>
        <time>2022-02-09T14:19:59Z</time>
      </trkpt>
      <trkpt lat="42.85352" lon="0.27106">
        <ele>1422.2</ele>
        <time>2022-02-09T14:20:00Z</time>
      </trkpt>
      <trkpt lat="42.85352" lon="0.27112">
        <ele>1422.2</ele>
        <time>2022-02-09T14:20:01Z</time>
      </trkpt>
      <trkpt lat="42.85351" lon="0.27117">
        <ele>1422.3</ele>
        <time>2022-02-09T14:20:02Z</time>
      </trkpt>
      <trkpt lat="42.8535" lon="0.27121">
        <ele>1421.5</ele>
        <time>2022-02-09T14:20:03Z</time>
      </trkpt>
      <trkpt lat="42.8535" lon="0.27124">
        <ele>1421.6</ele>
        <time>2022-02-09T14:20:04Z</time>
      </trkpt>
      <trkpt lat="42.8535" lon="0.27129">
        <ele>1421.7</ele>
        <time>2022-02-09T14:20:05Z</time>
      </trkpt>
      <trkpt lat="42.85348" lon="0.27133">
        <ele>1421.8</ele>
        <time>2022-02-09T14:20:06Z</time>
      </trkpt>
      <trkpt lat="42.85346" lon="0.27137">
        <ele>1421.3</ele>
        <time>2022-02-09T14:20:07Z</time>
      </trkpt>
      <trkpt lat="42.85343" lon="0.27141">
        <ele>1420.7</ele>
        <time>2022-02-09T14:20:08Z</time>
      </trkpt>
      <trkpt lat="42.85341" lon="0.27145">
        <ele>1420.9</ele>
        <time>2022-02-09T14:20:09Z</time>
      </trkpt>
      <trkpt lat="42.85338" lon="0.27148">
        <ele>1420.3</ele>
        <time>2022-02-09T14:20:10Z</time>
      </trkpt>
      <trkpt lat="42.85335" lon="0.27151">
        <ele>1419.5</ele>
        <time>2022-02-09T14:20:11Z</time>
      </trkpt>
      <trkpt lat="42.85332" lon="0.27154">
        <ele>1418.7</ele>
        <time>2022-02-09T14:20:12Z</time>
      </trkpt>
      <trkpt lat="42.8533" lon="0.27156">
        <ele>1417.8</ele>
        <time>2022-02-09T14:20:13Z</time>
      </trkpt>
      <trkpt lat="42.85329" lon="0.27156">
        <ele>1417.8</ele>
        <time>2022-02-09T14:20:14Z</time>
      </trkpt>
      <trkpt lat="42.85328" lon="0.27157">
        <ele>1417</ele>
        <time>2022-02-09T14:20:15Z</time>
      </trkpt>
      <trkpt lat="42.85327" lon="0.2716">
        <ele>1417</ele>
        <time>2022-02-09T14:20:16Z</time>
      </trkpt>
      <trkpt lat="42.85327" lon="0.27163">
        <ele>1417.2</ele>
        <time>2022-02-09T14:20:17Z</time>
      </trkpt>
      <trkpt lat="42.85325" lon="0.27166">
        <ele>1417.3</ele>
        <time>2022-02-09T14:20:18Z</time>
      </trkpt>
      <trkpt lat="42.85325" lon="0.27168">
        <ele>1416.4</ele>
        <time>2022-02-09T14:20:19Z</time>
      </trkpt>
      <trkpt lat="42.85325" lon="0.27168">
        <ele>1416.4</ele>
        <time>2022-02-09T14:20:20Z</time>
      </trkpt>
      <trkpt lat="42.85324" lon="0.27168">
        <ele>1416.4</ele>
        <time>2022-02-09T14:20:21Z</time>
      </trkpt>
      <trkpt lat="42.85324" lon="0.27168">
        <ele>1416.4</ele>
        <time>2022-02-09T14:20:22Z</time>
      </trkpt>
      <trkpt lat="42.85324" lon="0.27168">
        <ele>1416.4</ele>
        <time>2022-02-09T14:20:23Z</time>
      </trkpt>
      <trkpt lat="42.85324" lon="0.27168">
        <ele>1416.4</ele>
        <time>2022-02-09T14:20:24Z</time>
      </trkpt>
      <trkpt lat="42.85324" lon="0.27168">
        <ele>1416.4</ele>
        <time>2022-02-09T14:20:25Z</time>
      </trkpt>
      <trkpt lat="42.85324" lon="0.27168">
        <ele>1416.4</ele>
        <time>2022-02-09T14:20:26Z</time>
      </trkpt>
      <trkpt lat="42.85324" lon="0.27168">
        <ele>1416.4</ele>
        <time>2022-02-09T14:20:27Z</time>
      </trkpt>
      <trkpt lat="42.85324" lon="0.27168">
        <ele>1416.4</ele>
        <time>2022-02-09T14:20:28Z</time>
      </trkpt>
      <trkpt lat="42.85324" lon="0.27168">
        <ele>1416.4</ele>
        <time>2022-02-09T14:20:29Z</time>
      </trkpt>
      <trkpt lat="42.85323" lon="0.27168">
        <ele>1416.4</ele>
        <time>2022-02-09T14:20:30Z</time>
      </trkpt>
      <trkpt lat="42.85321" lon="0.27167">
        <ele>1415.6</ele>
        <time>2022-02-09T14:20:31Z</time>
      </trkpt>
      <trkpt lat="42.85317" lon="0.27168">
        <ele>1414.9</ele>
        <time>2022-02-09T14:20:32Z</time>
      </trkpt>
      <trkpt lat="42.85314" lon="0.27168">
        <ele>1414.1</ele>
        <time>2022-02-09T14:20:33Z</time>
      </trkpt>
      <trkpt lat="42.8531" lon="0.27168">
        <ele>1412.2</ele>
        <time>2022-02-09T14:20:34Z</time>
      </trkpt>
      <trkpt lat="42.85305" lon="0.27169">
        <ele>1411.1</ele>
        <time>2022-02-09T14:20:35Z</time>
      </trkpt>
      <trkpt lat="42.85302" lon="0.27171">
        <ele>1410.3</ele>
        <time>2022-02-09T14:20:36Z</time>
      </trkpt>
      <trkpt lat="42.85299" lon="0.27173">
        <ele>1409.3</ele>
        <time>2022-02-09T14:20:37Z</time>
      </trkpt>
      <trkpt lat="42.85296" lon="0.27174">
        <ele>1408.5</ele>
        <time>2022-02-09T14:20:38Z</time>
      </trkpt>
      <trkpt lat="42.85292" lon="0.27174">
        <ele>1407.7</ele>
        <time>2022-02-09T14:20:39Z</time>
      </trkpt>
      <trkpt lat="42.85289" lon="0.27175">
        <ele>1407</ele>
        <time>2022-02-09T14:20:40Z</time>
      </trkpt>
      <trkpt lat="42.85285" lon="0.27176">
        <ele>1406.2</ele>
        <time>2022-02-09T14:20:41Z</time>
      </trkpt>
      <trkpt lat="42.85282" lon="0.27177">
        <ele>1405.4</ele>
        <time>2022-02-09T14:20:42Z</time>
      </trkpt>
      <trkpt lat="42.85278" lon="0.27178">
        <ele>1404.5</ele>
        <time>2022-02-09T14:20:43Z</time>
      </trkpt>
      <trkpt lat="42.85276" lon="0.2718">
        <ele>1403.8</ele>
        <time>2022-02-09T14:20:44Z</time>
      </trkpt>
      <trkpt lat="42.85274" lon="0.27183">
        <ele>1403.1</ele>
        <time>2022-02-09T14:20:45Z</time>
      </trkpt>
      <trkpt lat="42.85273" lon="0.27187">
        <ele>1403.1</ele>
        <time>2022-02-09T14:20:46Z</time>
      </trkpt>
      <trkpt lat="42.85272" lon="0.27191">
        <ele>1402.4</ele>
        <time>2022-02-09T14:20:47Z</time>
      </trkpt>
      <trkpt lat="42.85271" lon="0.27196">
        <ele>1402.6</ele>
        <time>2022-02-09T14:20:48Z</time>
      </trkpt>
      <trkpt lat="42.85269" lon="0.272">
        <ele>1402.8</ele>
        <time>2022-02-09T14:20:49Z</time>
      </trkpt>
      <trkpt lat="42.85266" lon="0.27203">
        <ele>1402</ele>
        <time>2022-02-09T14:20:50Z</time>
      </trkpt>
      <trkpt lat="42.85264" lon="0.27207">
        <ele>1401.4</ele>
        <time>2022-02-09T14:20:51Z</time>
      </trkpt>
      <trkpt lat="42.85262" lon="0.27212">
        <ele>1400.8</ele>
        <time>2022-02-09T14:20:52Z</time>
      </trkpt>
      <trkpt lat="42.85261" lon="0.27217">
        <ele>1401</ele>
        <time>2022-02-09T14:20:53Z</time>
      </trkpt>
      <trkpt lat="42.85261" lon="0.2722">
        <ele>1401.3</ele>
        <time>2022-02-09T14:20:54Z</time>
      </trkpt>
      <trkpt lat="42.8526" lon="0.27222">
        <ele>1401.6</ele>
        <time>2022-02-09T14:20:55Z</time>
      </trkpt>
      <trkpt lat="42.85259" lon="0.27223">
        <ele>1400.7</ele>
        <time>2022-02-09T14:20:56Z</time>
      </trkpt>
      <trkpt lat="42.85257" lon="0.27225">
        <ele>1400.7</ele>
        <time>2022-02-09T14:20:57Z</time>
      </trkpt>
      <trkpt lat="42.85255" lon="0.27228">
        <ele>1400.2</ele>
        <time>2022-02-09T14:20:58Z</time>
      </trkpt>
      <trkpt lat="42.85253" lon="0.2723">
        <ele>1400.6</ele>
        <time>2022-02-09T14:20:59Z</time>
      </trkpt>
      <trkpt lat="42.85253" lon="0.27232">
        <ele>1399.6</ele>
        <time>2022-02-09T14:21:00Z</time>
      </trkpt>
      <trkpt lat="42.85252" lon="0.27233">
        <ele>1399.6</ele>
        <time>2022-02-09T14:21:01Z</time>
      </trkpt>
      <trkpt lat="42.85252" lon="0.27234">
        <ele>1399.6</ele>
        <time>2022-02-09T14:21:02Z</time>
      </trkpt>
      <trkpt lat="42.85252" lon="0.27234">
        <ele>1399.6</ele>
        <time>2022-02-09T14:21:03Z</time>
      </trkpt>
      <trkpt lat="42.85252" lon="0.27234">
        <ele>1399.6</ele>
        <time>2022-02-09T14:21:04Z</time>
      </trkpt>
      <trkpt lat="42.85252" lon="0.27234">
        <ele>1399.6</ele>
        <time>2022-02-09T14:21:05Z</time>
      </trkpt>
      <trkpt lat="42.85252" lon="0.27234">
        <ele>1399.6</ele>
        <time>2022-02-09T14:21:06Z</time>
      </trkpt>
      <trkpt lat="42.85252" lon="0.27234">
        <ele>1399.6</ele>
        <time>2022-02-09T14:21:07Z</time>
      </trkpt>
      <trkpt lat="42.85252" lon="0.27234">
        <ele>1399.6</ele>
        <time>2022-02-09T14:21:08Z</time>
      </trkpt>
      <trkpt lat="42.85252" lon="0.27234">
        <ele>1399.6</ele>
        <time>2022-02-09T14:21:09Z</time>
      </trkpt>
      <trkpt lat="42.85252" lon="0.27234">
        <ele>1399.6</ele>
        <time>2022-02-09T14:21:10Z</time>
      </trkpt>
      <trkpt lat="42.85252" lon="0.27234">
        <ele>1399.6</ele>
        <time>2022-02-09T14:21:11Z</time>
      </trkpt>
      <trkpt lat="42.85252" lon="0.27234">
        <ele>1399.6</ele>
        <time>2022-02-09T14:21:12Z</time>
      </trkpt>
      <trkpt lat="42.85252" lon="0.27234">
        <ele>1399.6</ele>
        <time>2022-02-09T14:21:13Z</time>
      </trkpt>
      <trkpt lat="42.85252" lon="0.27234">
        <ele>1399.6</ele>
        <time>2022-02-09T14:21:14Z</time>
      </trkpt>
      <trkpt lat="42.85252" lon="0.27234">
        <ele>1399.6</ele>
        <time>2022-02-09T14:21:15Z</time>
      </trkpt>
      <trkpt lat="42.85252" lon="0.27234">
        <ele>1399.6</ele>
        <time>2022-02-09T14:21:16Z</time>
      </trkpt>
      <trkpt lat="42.85252" lon="0.27234">
        <ele>1399.6</ele>
        <time>2022-02-09T14:21:17Z</time>
      </trkpt>
      <trkpt lat="42.85252" lon="0.27234">
        <ele>1399.6</ele>
        <time>2022-02-09T14:21:18Z</time>
      </trkpt>
      <trkpt lat="42.85252" lon="0.27234">
        <ele>1399.6</ele>
        <time>2022-02-09T14:21:19Z</time>
      </trkpt>
      <trkpt lat="42.85252" lon="0.27234">
        <ele>1399.6</ele>
        <time>2022-02-09T14:21:20Z</time>
      </trkpt>
      <trkpt lat="42.85252" lon="0.27234">
        <ele>1399.6</ele>
        <time>2022-02-09T14:21:21Z</time>
      </trkpt>
      <trkpt lat="42.85252" lon="0.27234">
        <ele>1399.6</ele>
        <time>2022-02-09T14:21:22Z</time>
      </trkpt>
      <trkpt lat="42.85252" lon="0.27234">
        <ele>1399.6</ele>
        <time>2022-02-09T14:21:23Z</time>
      </trkpt>
      <trkpt lat="42.85252" lon="0.27234">
        <ele>1399.6</ele>
        <time>2022-02-09T14:21:24Z</time>
      </trkpt>
      <trkpt lat="42.85252" lon="0.27234">
        <ele>1399.6</ele>
        <time>2022-02-09T14:21:25Z</time>
      </trkpt>
      <trkpt lat="42.85252" lon="0.27234">
        <ele>1399.6</ele>
        <time>2022-02-09T14:21:26Z</time>
      </trkpt>
      <trkpt lat="42.85252" lon="0.27234">
        <ele>1399.6</ele>
        <time>2022-02-09T14:21:27Z</time>
      </trkpt>
      <trkpt lat="42.85252" lon="0.27234">
        <ele>1399.6</ele>
        <time>2022-02-09T14:21:28Z</time>
      </trkpt>
      <trkpt lat="42.85252" lon="0.27234">
        <ele>1399.6</ele>
        <time>2022-02-09T14:21:29Z</time>
      </trkpt>
      <trkpt lat="42.85252" lon="0.27234">
        <ele>1399.6</ele>
        <time>2022-02-09T14:21:30Z</time>
      </trkpt>
      <trkpt lat="42.85252" lon="0.27234">
        <ele>1399.6</ele>
        <time>2022-02-09T14:21:31Z</time>
      </trkpt>
      <trkpt lat="42.85252" lon="0.27234">
        <ele>1399.6</ele>
        <time>2022-02-09T14:21:32Z</time>
      </trkpt>
      <trkpt lat="42.85252" lon="0.27234">
        <ele>1399.6</ele>
        <time>2022-02-09T14:21:33Z</time>
      </trkpt>
      <trkpt lat="42.85252" lon="0.27234">
        <ele>1399.6</ele>
        <time>2022-02-09T14:21:34Z</time>
      </trkpt>
      <trkpt lat="42.85252" lon="0.27234">
        <ele>1399.6</ele>
        <time>2022-02-09T14:21:35Z</time>
      </trkpt>
      <trkpt lat="42.85252" lon="0.27234">
        <ele>1399.6</ele>
        <time>2022-02-09T14:21:36Z</time>
      </trkpt>
      <trkpt lat="42.85252" lon="0.27234">
        <ele>1399.6</ele>
        <time>2022-02-09T14:21:37Z</time>
      </trkpt>
      <trkpt lat="42.85252" lon="0.27234">
        <ele>1399.6</ele>
        <time>2022-02-09T14:21:38Z</time>
      </trkpt>
      <trkpt lat="42.85252" lon="0.27234">
        <ele>1399.6</ele>
        <time>2022-02-09T14:21:39Z</time>
      </trkpt>
      <trkpt lat="42.85252" lon="0.27234">
        <ele>1399.6</ele>
        <time>2022-02-09T14:21:40Z</time>
      </trkpt>
      <trkpt lat="42.85252" lon="0.27234">
        <ele>1399.6</ele>
        <time>2022-02-09T14:21:41Z</time>
      </trkpt>
      <trkpt lat="42.85252" lon="0.27234">
        <ele>1399.6</ele>
        <time>2022-02-09T14:21:42Z</time>
      </trkpt>
      <trkpt lat="42.85252" lon="0.27234">
        <ele>1399.6</ele>
        <time>2022-02-09T14:21:43Z</time>
      </trkpt>
      <trkpt lat="42.85252" lon="0.27234">
        <ele>1399.6</ele>
        <time>2022-02-09T14:21:44Z</time>
      </trkpt>
      <trkpt lat="42.85252" lon="0.27234">
        <ele>1399.6</ele>
        <time>2022-02-09T14:21:45Z</time>
      </trkpt>
      <trkpt lat="42.85252" lon="0.27234">
        <ele>1399.6</ele>
        <time>2022-02-09T14:21:46Z</time>
      </trkpt>
      <trkpt lat="42.85252" lon="0.27234">
        <ele>1399.6</ele>
        <time>2022-02-09T14:21:47Z</time>
      </trkpt>
      <trkpt lat="42.85252" lon="0.27234">
        <ele>1399.6</ele>
        <time>2022-02-09T14:21:48Z</time>
      </trkpt>
      <trkpt lat="42.85252" lon="0.27234">
        <ele>1399.6</ele>
        <time>2022-02-09T14:21:49Z</time>
      </trkpt>
      <trkpt lat="42.85252" lon="0.27234">
        <ele>1399.6</ele>
        <time>2022-02-09T14:21:50Z</time>
      </trkpt>
      <trkpt lat="42.85252" lon="0.27234">
        <ele>1399.6</ele>
        <time>2022-02-09T14:21:51Z</time>
      </trkpt>
      <trkpt lat="42.85252" lon="0.27234">
        <ele>1399.6</ele>
        <time>2022-02-09T14:21:52Z</time>
      </trkpt>
      <trkpt lat="42.85252" lon="0.27234">
        <ele>1399.6</ele>
        <time>2022-02-09T14:21:53Z</time>
      </trkpt>
      <trkpt lat="42.85252" lon="0.27234">
        <ele>1399.6</ele>
        <time>2022-02-09T14:21:54Z</time>
      </trkpt>
      <trkpt lat="42.85252" lon="0.27234">
        <ele>1399.6</ele>
        <time>2022-02-09T14:21:55Z</time>
      </trkpt>
      <trkpt lat="42.85252" lon="0.27234">
        <ele>1399.6</ele>
        <time>2022-02-09T14:21:56Z</time>
      </trkpt>
      <trkpt lat="42.85252" lon="0.27234">
        <ele>1399.6</ele>
        <time>2022-02-09T14:21:57Z</time>
      </trkpt>
      <trkpt lat="42.85252" lon="0.27234">
        <ele>1399.6</ele>
        <time>2022-02-09T14:21:58Z</time>
      </trkpt>
      <trkpt lat="42.85252" lon="0.27234">
        <ele>1399.6</ele>
        <time>2022-02-09T14:21:59Z</time>
      </trkpt>
      <trkpt lat="42.85252" lon="0.27234">
        <ele>1399.6</ele>
        <time>2022-02-09T14:22:00Z</time>
      </trkpt>
      <trkpt lat="42.85252" lon="0.27234">
        <ele>1399.6</ele>
        <time>2022-02-09T14:22:01Z</time>
      </trkpt>
      <trkpt lat="42.85252" lon="0.27234">
        <ele>1399.6</ele>
        <time>2022-02-09T14:22:02Z</time>
      </trkpt>
      <trkpt lat="42.85252" lon="0.27234">
        <ele>1399.6</ele>
        <time>2022-02-09T14:22:03Z</time>
      </trkpt>
      <trkpt lat="42.85252" lon="0.27234">
        <ele>1399.6</ele>
        <time>2022-02-09T14:22:04Z</time>
      </trkpt>
      <trkpt lat="42.85252" lon="0.27234">
        <ele>1399.6</ele>
        <time>2022-02-09T14:22:05Z</time>
      </trkpt>
      <trkpt lat="42.85252" lon="0.27234">
        <ele>1399.6</ele>
        <time>2022-02-09T14:22:06Z</time>
      </trkpt>
      <trkpt lat="42.85252" lon="0.27234">
        <ele>1399.6</ele>
        <time>2022-02-09T14:22:07Z</time>
      </trkpt>
      <trkpt lat="42.8525" lon="0.27238">
        <ele>1400.1</ele>
        <time>2022-02-09T14:22:08Z</time>
      </trkpt>
      <trkpt lat="42.85247" lon="0.27244">
        <ele>1400</ele>
        <time>2022-02-09T14:22:09Z</time>
      </trkpt>
      <trkpt lat="42.85246" lon="0.27245">
        <ele>1399</ele>
        <time>2022-02-09T14:22:10Z</time>
      </trkpt>
      <trkpt lat="42.85245" lon="0.27245">
        <ele>1399</ele>
        <time>2022-02-09T14:22:11Z</time>
      </trkpt>
      <trkpt lat="42.85245" lon="0.27246">
        <ele>1399</ele>
        <time>2022-02-09T14:22:12Z</time>
      </trkpt>
      <trkpt lat="42.85245" lon="0.27246">
        <ele>1399</ele>
        <time>2022-02-09T14:22:13Z</time>
      </trkpt>
      <trkpt lat="42.85244" lon="0.27247">
        <ele>1399</ele>
        <time>2022-02-09T14:22:14Z</time>
      </trkpt>
      <trkpt lat="42.85244" lon="0.27247">
        <ele>1399</ele>
        <time>2022-02-09T14:22:15Z</time>
      </trkpt>
      <trkpt lat="42.85244" lon="0.27247">
        <ele>1399</ele>
        <time>2022-02-09T14:22:16Z</time>
      </trkpt>
      <trkpt lat="42.85244" lon="0.27249">
        <ele>1399.5</ele>
        <time>2022-02-09T14:22:17Z</time>
      </trkpt>
      <trkpt lat="42.85243" lon="0.27252">
        <ele>1399</ele>
        <time>2022-02-09T14:22:18Z</time>
      </trkpt>
      <trkpt lat="42.85242" lon="0.27253">
        <ele>1399</ele>
        <time>2022-02-09T14:22:19Z</time>
      </trkpt>
      <trkpt lat="42.85241" lon="0.27255">
        <ele>1399</ele>
        <time>2022-02-09T14:22:20Z</time>
      </trkpt>
      <trkpt lat="42.85241" lon="0.27255">
        <ele>1399</ele>
        <time>2022-02-09T14:22:21Z</time>
      </trkpt>
      <trkpt lat="42.8524" lon="0.27256">
        <ele>1398.5</ele>
        <time>2022-02-09T14:22:22Z</time>
      </trkpt>
      <trkpt lat="42.85239" lon="0.27256">
        <ele>1398.5</ele>
        <time>2022-02-09T14:22:23Z</time>
      </trkpt>
      <trkpt lat="42.85239" lon="0.27257">
        <ele>1398.5</ele>
        <time>2022-02-09T14:22:24Z</time>
      </trkpt>
      <trkpt lat="42.85238" lon="0.27257">
        <ele>1398.5</ele>
        <time>2022-02-09T14:22:25Z</time>
      </trkpt>
      <trkpt lat="42.85238" lon="0.27257">
        <ele>1398.5</ele>
        <time>2022-02-09T14:22:26Z</time>
      </trkpt>
      <trkpt lat="42.85238" lon="0.27257">
        <ele>1398.5</ele>
        <time>2022-02-09T14:22:27Z</time>
      </trkpt>
      <trkpt lat="42.85237" lon="0.27258">
        <ele>1397.6</ele>
        <time>2022-02-09T14:22:28Z</time>
      </trkpt>
      <trkpt lat="42.85235" lon="0.2726">
        <ele>1398.1</ele>
        <time>2022-02-09T14:22:29Z</time>
      </trkpt>
      <trkpt lat="42.85234" lon="0.2726">
        <ele>1398.1</ele>
        <time>2022-02-09T14:22:30Z</time>
      </trkpt>
      <trkpt lat="42.85233" lon="0.27261">
        <ele>1397.2</ele>
        <time>2022-02-09T14:22:31Z</time>
      </trkpt>
      <trkpt lat="42.85232" lon="0.27261">
        <ele>1397.2</ele>
        <time>2022-02-09T14:22:32Z</time>
      </trkpt>
      <trkpt lat="42.85231" lon="0.27262">
        <ele>1397.2</ele>
        <time>2022-02-09T14:22:33Z</time>
      </trkpt>
      <trkpt lat="42.8523" lon="0.27262">
        <ele>1396.3</ele>
        <time>2022-02-09T14:22:34Z</time>
      </trkpt>
      <trkpt lat="42.85229" lon="0.27263">
        <ele>1396.3</ele>
        <time>2022-02-09T14:22:35Z</time>
      </trkpt>
      <trkpt lat="42.85228" lon="0.27263">
        <ele>1396.3</ele>
        <time>2022-02-09T14:22:36Z</time>
      </trkpt>
      <trkpt lat="42.85228" lon="0.27264">
        <ele>1395.5</ele>
        <time>2022-02-09T14:22:37Z</time>
      </trkpt>
      <trkpt lat="42.85227" lon="0.27264">
        <ele>1395.9</ele>
        <time>2022-02-09T14:22:38Z</time>
      </trkpt>
      <trkpt lat="42.85226" lon="0.27265">
        <ele>1395.9</ele>
        <time>2022-02-09T14:22:39Z</time>
      </trkpt>
      <trkpt lat="42.85225" lon="0.27266">
        <ele>1395.9</ele>
        <time>2022-02-09T14:22:40Z</time>
      </trkpt>
      <trkpt lat="42.85224" lon="0.27267">
        <ele>1395</ele>
        <time>2022-02-09T14:22:41Z</time>
      </trkpt>
      <trkpt lat="42.85224" lon="0.27268">
        <ele>1395</ele>
        <time>2022-02-09T14:22:42Z</time>
      </trkpt>
      <trkpt lat="42.85223" lon="0.27268">
        <ele>1395</ele>
        <time>2022-02-09T14:22:43Z</time>
      </trkpt>
      <trkpt lat="42.85222" lon="0.27269">
        <ele>1395.5</ele>
        <time>2022-02-09T14:22:44Z</time>
      </trkpt>
      <trkpt lat="42.85221" lon="0.27269">
        <ele>1394.6</ele>
        <time>2022-02-09T14:22:45Z</time>
      </trkpt>
      <trkpt lat="42.8522" lon="0.2727">
        <ele>1394.6</ele>
        <time>2022-02-09T14:22:46Z</time>
      </trkpt>
      <trkpt lat="42.85219" lon="0.27271">
        <ele>1394.6</ele>
        <time>2022-02-09T14:22:47Z</time>
      </trkpt>
      <trkpt lat="42.85218" lon="0.27271">
        <ele>1393.6</ele>
        <time>2022-02-09T14:22:48Z</time>
      </trkpt>
      <trkpt lat="42.85217" lon="0.27272">
        <ele>1393.6</ele>
        <time>2022-02-09T14:22:49Z</time>
      </trkpt>
      <trkpt lat="42.85216" lon="0.27272">
        <ele>1393.6</ele>
        <time>2022-02-09T14:22:50Z</time>
      </trkpt>
      <trkpt lat="42.85215" lon="0.27273">
        <ele>1394.1</ele>
        <time>2022-02-09T14:22:51Z</time>
      </trkpt>
      <trkpt lat="42.85215" lon="0.27274">
        <ele>1393.1</ele>
        <time>2022-02-09T14:22:52Z</time>
      </trkpt>
      <trkpt lat="42.85214" lon="0.27275">
        <ele>1393.1</ele>
        <time>2022-02-09T14:22:53Z</time>
      </trkpt>
      <trkpt lat="42.85213" lon="0.27276">
        <ele>1393.1</ele>
        <time>2022-02-09T14:22:54Z</time>
      </trkpt>
      <trkpt lat="42.85212" lon="0.27278">
        <ele>1392.6</ele>
        <time>2022-02-09T14:22:55Z</time>
      </trkpt>
      <trkpt lat="42.85211" lon="0.27279">
        <ele>1392.6</ele>
        <time>2022-02-09T14:22:56Z</time>
      </trkpt>
      <trkpt lat="42.8521" lon="0.2728">
        <ele>1392.6</ele>
        <time>2022-02-09T14:22:57Z</time>
      </trkpt>
      <trkpt lat="42.8521" lon="0.27281">
        <ele>1393.1</ele>
        <time>2022-02-09T14:22:58Z</time>
      </trkpt>
      <trkpt lat="42.8521" lon="0.27283">
        <ele>1393.1</ele>
        <time>2022-02-09T14:22:59Z</time>
      </trkpt>
      <trkpt lat="42.85209" lon="0.27283">
        <ele>1393.1</ele>
        <time>2022-02-09T14:23:00Z</time>
      </trkpt>
      <trkpt lat="42.85209" lon="0.27283">
        <ele>1393.1</ele>
        <time>2022-02-09T14:23:01Z</time>
      </trkpt>
      <trkpt lat="42.85209" lon="0.27283">
        <ele>1393.1</ele>
        <time>2022-02-09T14:23:02Z</time>
      </trkpt>
      <trkpt lat="42.85209" lon="0.27283">
        <ele>1393.1</ele>
        <time>2022-02-09T14:23:03Z</time>
      </trkpt>
      <trkpt lat="42.85209" lon="0.27283">
        <ele>1393.1</ele>
        <time>2022-02-09T14:23:04Z</time>
      </trkpt>
      <trkpt lat="42.85209" lon="0.27283">
        <ele>1393.1</ele>
        <time>2022-02-09T14:23:05Z</time>
      </trkpt>
      <trkpt lat="42.85209" lon="0.27283">
        <ele>1393.1</ele>
        <time>2022-02-09T14:23:06Z</time>
      </trkpt>
      <trkpt lat="42.85209" lon="0.27283">
        <ele>1393.1</ele>
        <time>2022-02-09T14:23:07Z</time>
      </trkpt>
      <trkpt lat="42.85209" lon="0.27283">
        <ele>1393.1</ele>
        <time>2022-02-09T14:23:08Z</time>
      </trkpt>
      <trkpt lat="42.85209" lon="0.27283">
        <ele>1393.1</ele>
        <time>2022-02-09T14:23:09Z</time>
      </trkpt>
      <trkpt lat="42.85209" lon="0.27283">
        <ele>1393.1</ele>
        <time>2022-02-09T14:23:10Z</time>
      </trkpt>
      <trkpt lat="42.85209" lon="0.27283">
        <ele>1393.1</ele>
        <time>2022-02-09T14:23:11Z</time>
      </trkpt>
      <trkpt lat="42.85209" lon="0.27283">
        <ele>1393.1</ele>
        <time>2022-02-09T14:23:12Z</time>
      </trkpt>
      <trkpt lat="42.85209" lon="0.27283">
        <ele>1393.1</ele>
        <time>2022-02-09T14:23:13Z</time>
      </trkpt>
      <trkpt lat="42.85209" lon="0.27283">
        <ele>1393.1</ele>
        <time>2022-02-09T14:23:14Z</time>
      </trkpt>
      <trkpt lat="42.85209" lon="0.27283">
        <ele>1393.1</ele>
        <time>2022-02-09T14:23:15Z</time>
      </trkpt>
      <trkpt lat="42.85209" lon="0.27283">
        <ele>1393.1</ele>
        <time>2022-02-09T14:23:16Z</time>
      </trkpt>
      <trkpt lat="42.85206" lon="0.27285">
        <ele>1392.2</ele>
        <time>2022-02-09T14:23:17Z</time>
      </trkpt>
      <trkpt lat="42.85201" lon="0.27289">
        <ele>1390.8</ele>
        <time>2022-02-09T14:23:18Z</time>
      </trkpt>
      <trkpt lat="42.85201" lon="0.2729">
        <ele>1390.8</ele>
        <time>2022-02-09T14:23:19Z</time>
      </trkpt>
      <trkpt lat="42.852" lon="0.27291">
        <ele>1391.2</ele>
        <time>2022-02-09T14:23:20Z</time>
      </trkpt>
      <trkpt lat="42.85199" lon="0.27292">
        <ele>1390.2</ele>
        <time>2022-02-09T14:23:21Z</time>
      </trkpt>
      <trkpt lat="42.85199" lon="0.27293">
        <ele>1390.2</ele>
        <time>2022-02-09T14:23:22Z</time>
      </trkpt>
      <trkpt lat="42.85198" lon="0.27294">
        <ele>1390.2</ele>
        <time>2022-02-09T14:23:23Z</time>
      </trkpt>
      <trkpt lat="42.85197" lon="0.27294">
        <ele>1390.6</ele>
        <time>2022-02-09T14:23:24Z</time>
      </trkpt>
      <trkpt lat="42.85196" lon="0.27295">
        <ele>1389.4</ele>
        <time>2022-02-09T14:23:25Z</time>
      </trkpt>
      <trkpt lat="42.85195" lon="0.27296">
        <ele>1389.4</ele>
        <time>2022-02-09T14:23:26Z</time>
      </trkpt>
      <trkpt lat="42.85195" lon="0.27297">
        <ele>1389.4</ele>
        <time>2022-02-09T14:23:27Z</time>
      </trkpt>
      <trkpt lat="42.85194" lon="0.27298">
        <ele>1389.4</ele>
        <time>2022-02-09T14:23:28Z</time>
      </trkpt>
      <trkpt lat="42.85193" lon="0.27298">
        <ele>1389.4</ele>
        <time>2022-02-09T14:23:29Z</time>
      </trkpt>
      <trkpt lat="42.85193" lon="0.27298">
        <ele>1388.3</ele>
        <time>2022-02-09T14:23:30Z</time>
      </trkpt>
      <trkpt lat="42.85193" lon="0.27298">
        <ele>1388.3</ele>
        <time>2022-02-09T14:23:31Z</time>
      </trkpt>
      <trkpt lat="42.85192" lon="0.27298">
        <ele>1388.3</ele>
        <time>2022-02-09T14:23:32Z</time>
      </trkpt>
      <trkpt lat="42.8519" lon="0.27299">
        <ele>1387.5</ele>
        <time>2022-02-09T14:23:33Z</time>
      </trkpt>
      <trkpt lat="42.85189" lon="0.27299">
        <ele>1387.5</ele>
        <time>2022-02-09T14:23:34Z</time>
      </trkpt>
      <trkpt lat="42.85188" lon="0.27299">
        <ele>1387.5</ele>
        <time>2022-02-09T14:23:35Z</time>
      </trkpt>
      <trkpt lat="42.85188" lon="0.27299">
        <ele>1387.5</ele>
        <time>2022-02-09T14:23:36Z</time>
      </trkpt>
      <trkpt lat="42.85187" lon="0.273">
        <ele>1386.4</ele>
        <time>2022-02-09T14:23:37Z</time>
      </trkpt>
      <trkpt lat="42.85186" lon="0.273">
        <ele>1386.4</ele>
        <time>2022-02-09T14:23:38Z</time>
      </trkpt>
      <trkpt lat="42.85185" lon="0.273">
        <ele>1386.4</ele>
        <time>2022-02-09T14:23:39Z</time>
      </trkpt>
      <trkpt lat="42.85184" lon="0.273">
        <ele>1385.5</ele>
        <time>2022-02-09T14:23:40Z</time>
      </trkpt>
      <trkpt lat="42.85183" lon="0.273">
        <ele>1385.5</ele>
        <time>2022-02-09T14:23:41Z</time>
      </trkpt>
      <trkpt lat="42.85182" lon="0.273">
        <ele>1385.5</ele>
        <time>2022-02-09T14:23:42Z</time>
      </trkpt>
      <trkpt lat="42.85181" lon="0.27299">
        <ele>1384.2</ele>
        <time>2022-02-09T14:23:43Z</time>
      </trkpt>
      <trkpt lat="42.8518" lon="0.27299">
        <ele>1384.2</ele>
        <time>2022-02-09T14:23:44Z</time>
      </trkpt>
      <trkpt lat="42.85179" lon="0.27299">
        <ele>1384.2</ele>
        <time>2022-02-09T14:23:45Z</time>
      </trkpt>
      <trkpt lat="42.85178" lon="0.27299">
        <ele>1384.2</ele>
        <time>2022-02-09T14:23:46Z</time>
      </trkpt>
      <trkpt lat="42.85176" lon="0.27299">
        <ele>1383.4</ele>
        <time>2022-02-09T14:23:47Z</time>
      </trkpt>
      <trkpt lat="42.85175" lon="0.27299">
        <ele>1383.4</ele>
        <time>2022-02-09T14:23:48Z</time>
      </trkpt>
      <trkpt lat="42.85174" lon="0.27299">
        <ele>1382.6</ele>
        <time>2022-02-09T14:23:49Z</time>
      </trkpt>
      <trkpt lat="42.85173" lon="0.27299">
        <ele>1382.6</ele>
        <time>2022-02-09T14:23:50Z</time>
      </trkpt>
      <trkpt lat="42.85172" lon="0.27299">
        <ele>1382.6</ele>
        <time>2022-02-09T14:23:51Z</time>
      </trkpt>
      <trkpt lat="42.85171" lon="0.27299">
        <ele>1381.8</ele>
        <time>2022-02-09T14:23:52Z</time>
      </trkpt>
      <trkpt lat="42.8517" lon="0.27299">
        <ele>1381.8</ele>
        <time>2022-02-09T14:23:53Z</time>
      </trkpt>
      <trkpt lat="42.85169" lon="0.27299">
        <ele>1381.8</ele>
        <time>2022-02-09T14:23:54Z</time>
      </trkpt>
      <trkpt lat="42.85169" lon="0.27299">
        <ele>1381.8</ele>
        <time>2022-02-09T14:23:55Z</time>
      </trkpt>
      <trkpt lat="42.85169" lon="0.27299">
        <ele>1381.8</ele>
        <time>2022-02-09T14:23:56Z</time>
      </trkpt>
      <trkpt lat="42.85169" lon="0.27299">
        <ele>1381.8</ele>
        <time>2022-02-09T14:23:57Z</time>
      </trkpt>
      <trkpt lat="42.85169" lon="0.27299">
        <ele>1381.8</ele>
        <time>2022-02-09T14:23:58Z</time>
      </trkpt>
      <trkpt lat="42.85169" lon="0.27299">
        <ele>1381.8</ele>
        <time>2022-02-09T14:23:59Z</time>
      </trkpt>
      <trkpt lat="42.85169" lon="0.27299">
        <ele>1381.8</ele>
        <time>2022-02-09T14:24:00Z</time>
      </trkpt>
      <trkpt lat="42.85169" lon="0.27299">
        <ele>1381.8</ele>
        <time>2022-02-09T14:24:01Z</time>
      </trkpt>
      <trkpt lat="42.85169" lon="0.27299">
        <ele>1381.8</ele>
        <time>2022-02-09T14:24:02Z</time>
      </trkpt>
      <trkpt lat="42.85169" lon="0.27299">
        <ele>1381.8</ele>
        <time>2022-02-09T14:24:03Z</time>
      </trkpt>
      <trkpt lat="42.85169" lon="0.27299">
        <ele>1381.8</ele>
        <time>2022-02-09T14:24:04Z</time>
      </trkpt>
      <trkpt lat="42.85169" lon="0.27299">
        <ele>1381.8</ele>
        <time>2022-02-09T14:24:05Z</time>
      </trkpt>
      <trkpt lat="42.85169" lon="0.27299">
        <ele>1381.8</ele>
        <time>2022-02-09T14:24:06Z</time>
      </trkpt>
      <trkpt lat="42.85169" lon="0.27299">
        <ele>1381.8</ele>
        <time>2022-02-09T14:24:07Z</time>
      </trkpt>
      <trkpt lat="42.85169" lon="0.27299">
        <ele>1381.8</ele>
        <time>2022-02-09T14:24:08Z</time>
      </trkpt>
      <trkpt lat="42.85169" lon="0.27299">
        <ele>1381.8</ele>
        <time>2022-02-09T14:24:09Z</time>
      </trkpt>
      <trkpt lat="42.85169" lon="0.27299">
        <ele>1381.8</ele>
        <time>2022-02-09T14:24:10Z</time>
      </trkpt>
      <trkpt lat="42.85169" lon="0.27299">
        <ele>1381.8</ele>
        <time>2022-02-09T14:24:11Z</time>
      </trkpt>
      <trkpt lat="42.85169" lon="0.27299">
        <ele>1381.8</ele>
        <time>2022-02-09T14:24:12Z</time>
      </trkpt>
      <trkpt lat="42.85169" lon="0.27299">
        <ele>1381.8</ele>
        <time>2022-02-09T14:24:13Z</time>
      </trkpt>
      <trkpt lat="42.85166" lon="0.27299">
        <ele>1381</ele>
        <time>2022-02-09T14:24:14Z</time>
      </trkpt>
      <trkpt lat="42.85162" lon="0.27298">
        <ele>1380.1</ele>
        <time>2022-02-09T14:24:15Z</time>
      </trkpt>
      <trkpt lat="42.85161" lon="0.27298">
        <ele>1379.5</ele>
        <time>2022-02-09T14:24:16Z</time>
      </trkpt>
      <trkpt lat="42.85161" lon="0.27297">
        <ele>1379.5</ele>
        <time>2022-02-09T14:24:17Z</time>
      </trkpt>
      <trkpt lat="42.85161" lon="0.27296">
        <ele>1379.5</ele>
        <time>2022-02-09T14:24:18Z</time>
      </trkpt>
      <trkpt lat="42.85161" lon="0.27296">
        <ele>1379.5</ele>
        <time>2022-02-09T14:24:19Z</time>
      </trkpt>
      <trkpt lat="42.85161" lon="0.27296">
        <ele>1379.5</ele>
        <time>2022-02-09T14:24:20Z</time>
      </trkpt>
      <trkpt lat="42.85161" lon="0.27296">
        <ele>1379.5</ele>
        <time>2022-02-09T14:24:21Z</time>
      </trkpt>
      <trkpt lat="42.85161" lon="0.27296">
        <ele>1379.5</ele>
        <time>2022-02-09T14:24:22Z</time>
      </trkpt>
      <trkpt lat="42.85161" lon="0.27296">
        <ele>1379.5</ele>
        <time>2022-02-09T14:24:23Z</time>
      </trkpt>
      <trkpt lat="42.85161" lon="0.27296">
        <ele>1379.5</ele>
        <time>2022-02-09T14:24:24Z</time>
      </trkpt>
      <trkpt lat="42.85161" lon="0.27296">
        <ele>1379.5</ele>
        <time>2022-02-09T14:24:25Z</time>
      </trkpt>
      <trkpt lat="42.85161" lon="0.27296">
        <ele>1379.5</ele>
        <time>2022-02-09T14:24:26Z</time>
      </trkpt>
      <trkpt lat="42.85161" lon="0.27296">
        <ele>1379.5</ele>
        <time>2022-02-09T14:24:27Z</time>
      </trkpt>
      <trkpt lat="42.85161" lon="0.27296">
        <ele>1379.5</ele>
        <time>2022-02-09T14:24:28Z</time>
      </trkpt>
      <trkpt lat="42.85161" lon="0.27296">
        <ele>1379.5</ele>
        <time>2022-02-09T14:24:29Z</time>
      </trkpt>
      <trkpt lat="42.85161" lon="0.27296">
        <ele>1379.5</ele>
        <time>2022-02-09T14:24:30Z</time>
      </trkpt>
      <trkpt lat="42.85161" lon="0.27296">
        <ele>1379.5</ele>
        <time>2022-02-09T14:24:31Z</time>
      </trkpt>
      <trkpt lat="42.85161" lon="0.27296">
        <ele>1379.5</ele>
        <time>2022-02-09T14:24:32Z</time>
      </trkpt>
      <trkpt lat="42.85161" lon="0.27296">
        <ele>1379.5</ele>
        <time>2022-02-09T14:24:33Z</time>
      </trkpt>
      <trkpt lat="42.85161" lon="0.27296">
        <ele>1379.5</ele>
        <time>2022-02-09T14:24:34Z</time>
      </trkpt>
      <trkpt lat="42.85161" lon="0.27296">
        <ele>1379.5</ele>
        <time>2022-02-09T14:24:35Z</time>
      </trkpt>
      <trkpt lat="42.85161" lon="0.27296">
        <ele>1379.5</ele>
        <time>2022-02-09T14:24:36Z</time>
      </trkpt>
      <trkpt lat="42.85161" lon="0.27296">
        <ele>1379.5</ele>
        <time>2022-02-09T14:24:37Z</time>
      </trkpt>
      <trkpt lat="42.85161" lon="0.27296">
        <ele>1379.5</ele>
        <time>2022-02-09T14:24:38Z</time>
      </trkpt>
      <trkpt lat="42.85161" lon="0.27296">
        <ele>1379.5</ele>
        <time>2022-02-09T14:24:39Z</time>
      </trkpt>
      <trkpt lat="42.85161" lon="0.27296">
        <ele>1379.5</ele>
        <time>2022-02-09T14:24:40Z</time>
      </trkpt>
      <trkpt lat="42.85161" lon="0.27296">
        <ele>1379.5</ele>
        <time>2022-02-09T14:24:41Z</time>
      </trkpt>
      <trkpt lat="42.85161" lon="0.27296">
        <ele>1379.5</ele>
        <time>2022-02-09T14:24:42Z</time>
      </trkpt>
      <trkpt lat="42.85161" lon="0.27296">
        <ele>1379.5</ele>
        <time>2022-02-09T14:24:43Z</time>
      </trkpt>
      <trkpt lat="42.85161" lon="0.27296">
        <ele>1379.5</ele>
        <time>2022-02-09T14:24:44Z</time>
      </trkpt>
      <trkpt lat="42.85161" lon="0.27296">
        <ele>1379.5</ele>
        <time>2022-02-09T14:24:45Z</time>
      </trkpt>
      <trkpt lat="42.85161" lon="0.27296">
        <ele>1379.5</ele>
        <time>2022-02-09T14:24:46Z</time>
      </trkpt>
      <trkpt lat="42.85161" lon="0.27296">
        <ele>1379.5</ele>
        <time>2022-02-09T14:24:47Z</time>
      </trkpt>
      <trkpt lat="42.85161" lon="0.27296">
        <ele>1379.5</ele>
        <time>2022-02-09T14:24:48Z</time>
      </trkpt>
      <trkpt lat="42.85161" lon="0.27296">
        <ele>1379.5</ele>
        <time>2022-02-09T14:24:49Z</time>
      </trkpt>
      <trkpt lat="42.85161" lon="0.27296">
        <ele>1379.5</ele>
        <time>2022-02-09T14:24:50Z</time>
      </trkpt>
      <trkpt lat="42.85161" lon="0.27296">
        <ele>1379.5</ele>
        <time>2022-02-09T14:24:51Z</time>
      </trkpt>
      <trkpt lat="42.85161" lon="0.27296">
        <ele>1379.5</ele>
        <time>2022-02-09T14:24:52Z</time>
      </trkpt>
      <trkpt lat="42.85161" lon="0.27296">
        <ele>1379.5</ele>
        <time>2022-02-09T14:24:53Z</time>
      </trkpt>
      <trkpt lat="42.85161" lon="0.27296">
        <ele>1379.5</ele>
        <time>2022-02-09T14:24:54Z</time>
      </trkpt>
      <trkpt lat="42.85161" lon="0.27296">
        <ele>1379.5</ele>
        <time>2022-02-09T14:24:55Z</time>
      </trkpt>
      <trkpt lat="42.85161" lon="0.27296">
        <ele>1379.5</ele>
        <time>2022-02-09T14:24:56Z</time>
      </trkpt>
      <trkpt lat="42.85161" lon="0.27296">
        <ele>1379.5</ele>
        <time>2022-02-09T14:24:57Z</time>
      </trkpt>
      <trkpt lat="42.85161" lon="0.27296">
        <ele>1379.5</ele>
        <time>2022-02-09T14:24:58Z</time>
      </trkpt>
      <trkpt lat="42.85161" lon="0.27296">
        <ele>1379.5</ele>
        <time>2022-02-09T14:24:59Z</time>
      </trkpt>
      <trkpt lat="42.85161" lon="0.27296">
        <ele>1379.5</ele>
        <time>2022-02-09T14:25:00Z</time>
      </trkpt>
      <trkpt lat="42.85161" lon="0.27296">
        <ele>1379.5</ele>
        <time>2022-02-09T14:25:01Z</time>
      </trkpt>
      <trkpt lat="42.85161" lon="0.27296">
        <ele>1379.5</ele>
        <time>2022-02-09T14:25:02Z</time>
      </trkpt>
      <trkpt lat="42.85161" lon="0.27296">
        <ele>1379.5</ele>
        <time>2022-02-09T14:25:03Z</time>
      </trkpt>
      <trkpt lat="42.85161" lon="0.27296">
        <ele>1379.5</ele>
        <time>2022-02-09T14:25:04Z</time>
      </trkpt>
      <trkpt lat="42.85161" lon="0.27296">
        <ele>1379.5</ele>
        <time>2022-02-09T14:25:05Z</time>
      </trkpt>
      <trkpt lat="42.85161" lon="0.27296">
        <ele>1379.5</ele>
        <time>2022-02-09T14:25:06Z</time>
      </trkpt>
      <trkpt lat="42.85161" lon="0.27296">
        <ele>1379.5</ele>
        <time>2022-02-09T14:25:07Z</time>
      </trkpt>
      <trkpt lat="42.85161" lon="0.27296">
        <ele>1379.5</ele>
        <time>2022-02-09T14:25:08Z</time>
      </trkpt>
      <trkpt lat="42.85161" lon="0.27296">
        <ele>1379.5</ele>
        <time>2022-02-09T14:25:09Z</time>
      </trkpt>
      <trkpt lat="42.85161" lon="0.27296">
        <ele>1379.5</ele>
        <time>2022-02-09T14:25:10Z</time>
      </trkpt>
      <trkpt lat="42.85161" lon="0.27296">
        <ele>1379.5</ele>
        <time>2022-02-09T14:25:11Z</time>
      </trkpt>
      <trkpt lat="42.85161" lon="0.27296">
        <ele>1379.5</ele>
        <time>2022-02-09T14:25:12Z</time>
      </trkpt>
      <trkpt lat="42.85161" lon="0.27296">
        <ele>1379.5</ele>
        <time>2022-02-09T14:25:13Z</time>
      </trkpt>
      <trkpt lat="42.85161" lon="0.27296">
        <ele>1379.5</ele>
        <time>2022-02-09T14:25:14Z</time>
      </trkpt>
      <trkpt lat="42.85161" lon="0.27296">
        <ele>1379.5</ele>
        <time>2022-02-09T14:25:15Z</time>
      </trkpt>
      <trkpt lat="42.85161" lon="0.27296">
        <ele>1379.5</ele>
        <time>2022-02-09T14:25:16Z</time>
      </trkpt>
      <trkpt lat="42.85161" lon="0.27296">
        <ele>1379.5</ele>
        <time>2022-02-09T14:25:17Z</time>
      </trkpt>
      <trkpt lat="42.85161" lon="0.27296">
        <ele>1379.5</ele>
        <time>2022-02-09T14:25:18Z</time>
      </trkpt>
      <trkpt lat="42.85161" lon="0.27296">
        <ele>1379.5</ele>
        <time>2022-02-09T14:25:19Z</time>
      </trkpt>
      <trkpt lat="42.85161" lon="0.27296">
        <ele>1379.5</ele>
        <time>2022-02-09T14:25:20Z</time>
      </trkpt>
      <trkpt lat="42.85161" lon="0.27296">
        <ele>1379.5</ele>
        <time>2022-02-09T14:25:21Z</time>
      </trkpt>
    </trkseg>
  </trk>
</gpx>